<?xml version='1.0' encoding='UTF-8'?><gpx version="1.1" creator="JPX - https://github.com/jenetics/jpx" xmlns="http://www.topografix.com/GPX/1/1"><trk><trkseg><trkpt lat="44.21589699319165" lon="12.081310877750694"><ele>21.0</ele><time>2026-03-22T08:52:26.027Z</time></trkpt><trkpt lat="44.215844967373805" lon="12.081391906706648"><ele>21.0</ele><time>2026-03-22T08:52:44.026Z</time></trkpt><trkpt lat="44.21580856825794" lon="12.08151956463832"><ele>21.0</ele><time>2026-03-22T08:52:57.026Z</time></trkpt><trkpt lat="44.21582770144355" lon="12.081624704358259"><ele>21.0</ele><time>2026-03-22T08:53:00.026Z</time></trkpt><trkpt lat="44.21584557076746" lon="12.081739680881572"><ele>21.0</ele><time>2026-03-22T08:53:03.026Z</time></trkpt><trkpt lat="44.21589186531156" lon="12.081809121007538"><ele>21.0</ele><time>2026-03-22T08:53:07.026Z</time></trkpt><trkpt lat="44.21595967858686" lon="12.081858038575106"><ele>21.0</ele><time>2026-03-22T08:53:14.026Z</time></trkpt><trkpt lat="44.2160485961809" lon="12.081813921101663"><ele>21.0</ele><time>2026-03-22T08:53:16.026Z</time></trkpt><trkpt lat="44.21610956192514" lon="12.081670547077442"><ele>21.0</ele><time>2026-03-22T08:53:18.026Z</time></trkpt><trkpt lat="44.216137020348015" lon="12.081585893579884"><ele>21.0</ele><time>2026-03-22T08:53:19.026Z</time></trkpt><trkpt lat="44.2161984319993" lon="12.08142682122033"><ele>21.0</ele><time>2026-03-22T08:53:21.026Z</time></trkpt><trkpt lat="44.216233031540014" lon="12.081331761973166"><ele>21.0</ele><time>2026-03-22T08:53:22.026Z</time></trkpt><trkpt lat="44.21627448370187" lon="12.081229535841032"><ele>21.0</ele><time>2026-03-22T08:53:23.026Z</time></trkpt><trkpt lat="44.216325334896" lon="12.08109644514242"><ele>21.0</ele><time>2026-03-22T08:53:24.026Z</time></trkpt><trkpt lat="44.216368951195044" lon="12.080984046340236"><ele>21.0</ele><time>2026-03-22T08:53:25.026Z</time></trkpt><trkpt lat="44.216408130059044" lon="12.080892312350338"><ele>21.0</ele><time>2026-03-22T08:53:26.026Z</time></trkpt><trkpt lat="44.21645062455126" lon="12.080797354730548"><ele>21.0</ele><time>2026-03-22T08:53:27.026Z</time></trkpt><trkpt lat="44.21649357313465" lon="12.080691703239141"><ele>21.0</ele><time>2026-03-22T08:53:28.026Z</time></trkpt><trkpt lat="44.21653085714704" lon="12.080593510619163"><ele>21.0</ele><time>2026-03-22T08:53:29.026Z</time></trkpt><trkpt lat="44.21656466045618" lon="12.080512168599018"><ele>21.0</ele><time>2026-03-22T08:53:30.026Z</time></trkpt><trkpt lat="44.216597422359726" lon="12.080421231709801"><ele>21.0</ele><time>2026-03-22T08:53:31.026Z</time></trkpt><trkpt lat="44.21664125826766" lon="12.080302040580833"><ele>21.0</ele><time>2026-03-22T08:53:32.026Z</time></trkpt><trkpt lat="44.216683886064814" lon="12.080200993013554"><ele>21.0</ele><time>2026-03-22T08:53:33.026Z</time></trkpt><trkpt lat="44.216718139241166" lon="12.08010547242666"><ele>21.0</ele><time>2026-03-22T08:53:34.026Z</time></trkpt><trkpt lat="44.21676377438266" lon="12.079999553503173"><ele>21.0</ele><time>2026-03-22T08:53:35.026Z</time></trkpt><trkpt lat="44.21680132218208" lon="12.079905970367886"><ele>21.0</ele><time>2026-03-22T08:53:36.026Z</time></trkpt><trkpt lat="44.21683001967703" lon="12.079815680791638"><ele>21.0</ele><time>2026-03-22T08:53:37.026Z</time></trkpt><trkpt lat="44.216854950431824" lon="12.07971720931448"><ele>21.0</ele><time>2026-03-22T08:53:38.026Z</time></trkpt><trkpt lat="44.21687629110044" lon="12.079627328146255"><ele>21.0</ele><time>2026-03-22T08:53:39.026Z</time></trkpt><trkpt lat="44.21690453856374" lon="12.07953257327208"><ele>20.833333333333332</ele><time>2026-03-22T08:53:40.026Z</time></trkpt><trkpt lat="44.21694734834475" lon="12.079427193791307"><ele>20.666666666666668</ele><time>2026-03-22T08:53:41.026Z</time></trkpt><trkpt lat="44.21699244162335" lon="12.079328919785814"><ele>20.5</ele><time>2026-03-22T08:53:42.026Z</time></trkpt><trkpt lat="44.217006816764616" lon="12.079233294805052"><ele>20.333333333333336</ele><time>2026-03-22T08:53:43.026Z</time></trkpt><trkpt lat="44.216995785573694" lon="12.079125802842091"><ele>20.166666666666668</ele><time>2026-03-22T08:53:44.026Z</time></trkpt><trkpt lat="44.21694374976035" lon="12.079015245064562"><ele>20.0</ele><time>2026-03-22T08:53:45.026Z</time></trkpt><trkpt lat="44.21688061940036" lon="12.078918791647554"><ele>19.8</ele><time>2026-03-22T08:53:46.026Z</time></trkpt><trkpt lat="44.21680714417034" lon="12.078837305887596"><ele>19.6</ele><time>2026-03-22T08:53:47.026Z</time></trkpt><trkpt lat="44.21677723046591" lon="12.078716552214857"><ele>19.4</ele><time>2026-03-22T08:53:48.026Z</time></trkpt><trkpt lat="44.21677110863421" lon="12.078587935015598"><ele>19.2</ele><time>2026-03-22T08:53:49.026Z</time></trkpt><trkpt lat="44.21678574120185" lon="12.078461308692868"><ele>19.0</ele><time>2026-03-22T08:53:50.026Z</time></trkpt><trkpt lat="44.21681191452639" lon="12.078342987067336"><ele>19.0</ele><time>2026-03-22T08:53:51.026Z</time></trkpt><trkpt lat="44.21684362596032" lon="12.078239404168574"><ele>19.0</ele><time>2026-03-22T08:53:52.026Z</time></trkpt><trkpt lat="44.21687741402653" lon="12.078138047287094"><ele>19.0</ele><time>2026-03-22T08:53:53.026Z</time></trkpt><trkpt lat="44.216914623049256" lon="12.078039537723376"><ele>19.0</ele><time>2026-03-22T08:53:54.026Z</time></trkpt><trkpt lat="44.216955310196674" lon="12.077957867051383"><ele>19.0</ele><time>2026-03-22T08:53:55.026Z</time></trkpt><trkpt lat="44.216996291384554" lon="12.077888404717335"><ele>19.0</ele><time>2026-03-22T08:53:56.026Z</time></trkpt><trkpt lat="44.21705557019162" lon="12.077837905851693"><ele>19.0</ele><time>2026-03-22T08:53:57.026Z</time></trkpt><trkpt lat="44.21712247086229" lon="12.077802331290302"><ele>19.0</ele><time>2026-03-22T08:53:58.026Z</time></trkpt><trkpt lat="44.21720779725597" lon="12.077771362231386"><ele>19.0</ele><time>2026-03-22T08:53:59.026Z</time></trkpt><trkpt lat="44.21729000265554" lon="12.077721891981446"><ele>19.0</ele><time>2026-03-22T08:54:00.026Z</time></trkpt><trkpt lat="44.21734510118197" lon="12.07764525203994"><ele>19.0</ele><time>2026-03-22T08:54:01.026Z</time></trkpt><trkpt lat="44.21737577438517" lon="12.077545403156556"><ele>19.0</ele><time>2026-03-22T08:54:02.026Z</time></trkpt><trkpt lat="44.21736996167095" lon="12.077436518890732"><ele>19.0</ele><time>2026-03-22T08:54:03.026Z</time></trkpt><trkpt lat="44.217339389897354" lon="12.077343340443415"><ele>19.5</ele><time>2026-03-22T08:54:04.026Z</time></trkpt><trkpt lat="44.2172975207818" lon="12.077261339125442"><ele>20.0</ele><time>2026-03-22T08:54:05.026Z</time></trkpt><trkpt lat="44.217235741700065" lon="12.077202677343198"><ele>20.5</ele><time>2026-03-22T08:54:06.026Z</time></trkpt><trkpt lat="44.21716136212253" lon="12.077181479740489"><ele>21.0</ele><time>2026-03-22T08:54:07.026Z</time></trkpt><trkpt lat="44.21708145788985" lon="12.077188915872117"><ele>21.5</ele><time>2026-03-22T08:54:08.026Z</time></trkpt><trkpt lat="44.21700917281271" lon="12.077233002236046"><ele>22.0</ele><time>2026-03-22T08:54:09.026Z</time></trkpt><trkpt lat="44.21694482587298" lon="12.077305650013033"><ele>22.0</ele><time>2026-03-22T08:54:10.026Z</time></trkpt><trkpt lat="44.21687347181197" lon="12.077369975816575"><ele>22.0</ele><time>2026-03-22T08:54:11.026Z</time></trkpt><trkpt lat="44.216803171844404" lon="12.077405907147789"><ele>22.0</ele><time>2026-03-22T08:54:12.026Z</time></trkpt><trkpt lat="44.21671758495902" lon="12.077385282200993"><ele>22.0</ele><time>2026-03-22T08:54:13.026Z</time></trkpt><trkpt lat="44.216641642352165" lon="12.077331215696999"><ele>22.0</ele><time>2026-03-22T08:54:14.026Z</time></trkpt><trkpt lat="44.21658010369444" lon="12.077246583970368"><ele>22.0</ele><time>2026-03-22T08:54:15.026Z</time></trkpt><trkpt lat="44.216536439844596" lon="12.077135602716297"><ele>22.0</ele><time>2026-03-22T08:54:16.026Z</time></trkpt><trkpt lat="44.216514850357385" lon="12.077019816914534"><ele>22.0</ele><time>2026-03-22T08:54:17.026Z</time></trkpt><trkpt lat="44.216509955740484" lon="12.076902890490908"><ele>22.0</ele><time>2026-03-22T08:54:18.026Z</time></trkpt><trkpt lat="44.216527255119914" lon="12.076794768856256"><ele>22.0</ele><time>2026-03-22T08:54:19.026Z</time></trkpt><trkpt lat="44.21656278565247" lon="12.076695126325319"><ele>22.0</ele><time>2026-03-22T08:54:20.026Z</time></trkpt><trkpt lat="44.216610928218124" lon="12.076611295094997"><ele>22.0</ele><time>2026-03-22T08:54:21.026Z</time></trkpt><trkpt lat="44.21666853636951" lon="12.076538192932782"><ele>22.0</ele><time>2026-03-22T08:54:22.026Z</time></trkpt><trkpt lat="44.21674010161564" lon="12.076487450829655"><ele>22.0</ele><time>2026-03-22T08:54:23.026Z</time></trkpt><trkpt lat="44.21682104343379" lon="12.076461958634832"><ele>22.0</ele><time>2026-03-22T08:54:24.026Z</time></trkpt><trkpt lat="44.21690821712671" lon="12.076460626254494"><ele>22.0</ele><time>2026-03-22T08:54:25.026Z</time></trkpt><trkpt lat="44.216994580770695" lon="12.076487509846634"><ele>22.0</ele><time>2026-03-22T08:54:26.026Z</time></trkpt><trkpt lat="44.21708083705576" lon="12.076546340055938"><ele>22.0</ele><time>2026-03-22T08:54:27.026Z</time></trkpt><trkpt lat="44.21716083112853" lon="12.076623492727126"><ele>22.0</ele><time>2026-03-22T08:54:28.026Z</time></trkpt><trkpt lat="44.21724088854488" lon="12.076717631547387"><ele>22.0</ele><time>2026-03-22T08:54:29.026Z</time></trkpt><trkpt lat="44.21733698739267" lon="12.076827842585963"><ele>22.0</ele><time>2026-03-22T08:54:30.026Z</time></trkpt><trkpt lat="44.21745269953855" lon="12.076960123249957"><ele>22.0</ele><time>2026-03-22T08:54:31.026Z</time></trkpt><trkpt lat="44.21757653217108" lon="12.077100097143674"><ele>22.333333333333332</ele><time>2026-03-22T08:54:32.026Z</time></trkpt><trkpt lat="44.217710342877005" lon="12.077245210598164"><ele>22.666666666666668</ele><time>2026-03-22T08:54:33.026Z</time></trkpt><trkpt lat="44.217858984684845" lon="12.07740688215369"><ele>23.0</ele><time>2026-03-22T08:54:34.026Z</time></trkpt><trkpt lat="44.21801528398266" lon="12.077581902763566"><ele>21.666666666666668</ele><time>2026-03-22T08:54:35.027Z</time></trkpt><trkpt lat="44.21817058070823" lon="12.077756589550862"><ele>20.333333333333332</ele><time>2026-03-22T08:54:36.027Z</time></trkpt><trkpt lat="44.21832888001659" lon="12.077947061817039"><ele>19.0</ele><time>2026-03-22T08:54:37.027Z</time></trkpt><trkpt lat="44.21849581507747" lon="12.078146154675148"><ele>19.5</ele><time>2026-03-22T08:54:38.026Z</time></trkpt><trkpt lat="44.21866676279415" lon="12.07834980788236"><ele>20.0</ele><time>2026-03-22T08:54:39.026Z</time></trkpt><trkpt lat="44.218848003385716" lon="12.07856121481366"><ele>20.0</ele><time>2026-03-22T08:54:40.026Z</time></trkpt><trkpt lat="44.21903668675831" lon="12.078783456869944"><ele>20.0</ele><time>2026-03-22T08:54:41.026Z</time></trkpt><trkpt lat="44.219225343153354" lon="12.079017783175132"><ele>20.5</ele><time>2026-03-22T08:54:42.026Z</time></trkpt><trkpt lat="44.21942309738492" lon="12.07926892923475"><ele>21.0</ele><time>2026-03-22T08:54:43.026Z</time></trkpt><trkpt lat="44.219628403678776" lon="12.079527118793965"><ele>20.5</ele><time>2026-03-22T08:54:44.026Z</time></trkpt><trkpt lat="44.219833904464046" lon="12.07980194887261"><ele>20.0</ele><time>2026-03-22T08:54:45.026Z</time></trkpt><trkpt lat="44.22003039198229" lon="12.080070740946715"><ele>20.0</ele><time>2026-03-22T08:54:46.026Z</time></trkpt><trkpt lat="44.22022127846936" lon="12.080326422687856"><ele>20.0</ele><time>2026-03-22T08:54:47.026Z</time></trkpt><trkpt lat="44.22038487351444" lon="12.080546933201788"><ele>20.0</ele><time>2026-03-22T08:54:48.026Z</time></trkpt><trkpt lat="44.22053425060413" lon="12.08074720333947"><ele>20.0</ele><time>2026-03-22T08:54:49.026Z</time></trkpt><trkpt lat="44.220665422067874" lon="12.080937701144116"><ele>20.0</ele><time>2026-03-22T08:54:50.026Z</time></trkpt><trkpt lat="44.220781756408854" lon="12.081107257265542"><ele>20.0</ele><time>2026-03-22T08:54:51.026Z</time></trkpt><trkpt lat="44.22089121990259" lon="12.081263767051514"><ele>20.0</ele><time>2026-03-22T08:54:52.026Z</time></trkpt><trkpt lat="44.220989426682344" lon="12.081408186316567"><ele>20.0</ele><time>2026-03-22T08:54:53.026Z</time></trkpt><trkpt lat="44.22108193792212" lon="12.081549576807854"><ele>20.0</ele><time>2026-03-22T08:54:54.026Z</time></trkpt><trkpt lat="44.22117203530623" lon="12.081686080933821"><ele>19.666666666666668</ele><time>2026-03-22T08:54:55.026Z</time></trkpt><trkpt lat="44.22127422568273" lon="12.081828253441005"><ele>19.333333333333332</ele><time>2026-03-22T08:54:56.026Z</time></trkpt><trkpt lat="44.22139065062166" lon="12.081986451373153"><ele>19.0</ele><time>2026-03-22T08:54:57.026Z</time></trkpt><trkpt lat="44.221519323494505" lon="12.082160641768334"><ele>19.0</ele><time>2026-03-22T08:54:58.026Z</time></trkpt><trkpt lat="44.22165093401313" lon="12.08234594710597"><ele>19.0</ele><time>2026-03-22T08:54:59.026Z</time></trkpt><trkpt lat="44.22177800379817" lon="12.08252226603665"><ele>19.0</ele><time>2026-03-22T08:55:00.026Z</time></trkpt><trkpt lat="44.2219054933099" lon="12.082695290430062"><ele>19.0</ele><time>2026-03-22T08:55:01.026Z</time></trkpt><trkpt lat="44.22202525325071" lon="12.082862199747835"><ele>19.0</ele><time>2026-03-22T08:55:02.026Z</time></trkpt><trkpt lat="44.22213848141679" lon="12.08302092162202"><ele>19.0</ele><time>2026-03-22T08:55:03.026Z</time></trkpt><trkpt lat="44.222251125279215" lon="12.083172918088763"><ele>19.333333333333332</ele><time>2026-03-22T08:55:04.026Z</time></trkpt><trkpt lat="44.2223705371788" lon="12.083335554078136"><ele>19.666666666666668</ele><time>2026-03-22T08:55:05.026Z</time></trkpt><trkpt lat="44.222496104249906" lon="12.083510544109663"><ele>20.0</ele><time>2026-03-22T08:55:06.026Z</time></trkpt><trkpt lat="44.22262177909718" lon="12.083686278284645"><ele>20.0</ele><time>2026-03-22T08:55:07.026Z</time></trkpt><trkpt lat="44.22274043491976" lon="12.083852335172487"><ele>20.0</ele><time>2026-03-22T08:55:08.026Z</time></trkpt><trkpt lat="44.22287162809091" lon="12.084027600573952"><ele>20.0</ele><time>2026-03-22T08:55:09.026Z</time></trkpt><trkpt lat="44.22301145072237" lon="12.084234844821388"><ele>19.666666666666668</ele><time>2026-03-22T08:55:10.026Z</time></trkpt><trkpt lat="44.22315183393857" lon="12.084451755314069"><ele>19.333333333333332</ele><time>2026-03-22T08:55:11.026Z</time></trkpt><trkpt lat="44.22329036217126" lon="12.08465301068783"><ele>19.0</ele><time>2026-03-22T08:55:12.026Z</time></trkpt><trkpt lat="44.22341908106893" lon="12.084829825609829"><ele>18.666666666666664</ele><time>2026-03-22T08:55:13.026Z</time></trkpt><trkpt lat="44.223544132988984" lon="12.084996473635623"><ele>18.333333333333332</ele><time>2026-03-22T08:55:14.026Z</time></trkpt><trkpt lat="44.22367349680093" lon="12.085169765122211"><ele>18.0</ele><time>2026-03-22T08:55:15.026Z</time></trkpt><trkpt lat="44.223802828894854" lon="12.0853420893753"><ele>18.0</ele><time>2026-03-22T08:55:16.026Z</time></trkpt><trkpt lat="44.22392934873759" lon="12.085503806520386"><ele>18.0</ele><time>2026-03-22T08:55:17.026Z</time></trkpt><trkpt lat="44.22405792914903" lon="12.085665276545184"><ele>18.0</ele><time>2026-03-22T08:55:18.026Z</time></trkpt><trkpt lat="44.224180351111904" lon="12.085819489988952"><ele>18.666666666666668</ele><time>2026-03-22T08:55:19.026Z</time></trkpt><trkpt lat="44.224300975814394" lon="12.085973250700958"><ele>19.333333333333336</ele><time>2026-03-22T08:55:20.026Z</time></trkpt><trkpt lat="44.224415673495024" lon="12.086117851255647"><ele>20.0</ele><time>2026-03-22T08:55:21.026Z</time></trkpt><trkpt lat="44.22452948846979" lon="12.086256702252674"><ele>20.0</ele><time>2026-03-22T08:55:22.026Z</time></trkpt><trkpt lat="44.22464329165223" lon="12.086397111225944"><ele>20.0</ele><time>2026-03-22T08:55:23.026Z</time></trkpt><trkpt lat="44.22475977889684" lon="12.086535649613147"><ele>20.0</ele><time>2026-03-22T08:55:24.026Z</time></trkpt><trkpt lat="44.22487735456495" lon="12.086677510356532"><ele>19.666666666666668</ele><time>2026-03-22T08:55:25.026Z</time></trkpt><trkpt lat="44.224998674581386" lon="12.086822543579766"><ele>19.333333333333332</ele><time>2026-03-22T08:55:26.026Z</time></trkpt><trkpt lat="44.22512445807812" lon="12.086968054378248"><ele>19.0</ele><time>2026-03-22T08:55:27.026Z</time></trkpt><trkpt lat="44.22525003527794" lon="12.087116431500363"><ele>19.0</ele><time>2026-03-22T08:55:28.026Z</time></trkpt><trkpt lat="44.2253769986086" lon="12.087262935342446"><ele>19.0</ele><time>2026-03-22T08:55:29.026Z</time></trkpt><trkpt lat="44.22550867246559" lon="12.087412991757901"><ele>19.0</ele><time>2026-03-22T08:55:30.026Z</time></trkpt><trkpt lat="44.22564031974974" lon="12.087564289291354"><ele>19.0</ele><time>2026-03-22T08:55:31.026Z</time></trkpt><trkpt lat="44.225769912078675" lon="12.08770792059646"><ele>19.0</ele><time>2026-03-22T08:55:32.026Z</time></trkpt><trkpt lat="44.22590399507943" lon="12.08784600811896"><ele>19.0</ele><time>2026-03-22T08:55:33.026Z</time></trkpt><trkpt lat="44.22603965684923" lon="12.087989424888189"><ele>19.0</ele><time>2026-03-22T08:55:34.026Z</time></trkpt><trkpt lat="44.22617606384324" lon="12.088131323390925"><ele>19.0</ele><time>2026-03-22T08:55:35.026Z</time></trkpt><trkpt lat="44.22631018023598" lon="12.088266220524407"><ele>19.0</ele><time>2026-03-22T08:55:36.026Z</time></trkpt><trkpt lat="44.22644461844333" lon="12.088403953898423"><ele>19.333333333333332</ele><time>2026-03-22T08:55:37.026Z</time></trkpt><trkpt lat="44.22658078683838" lon="12.088544409332323"><ele>19.666666666666668</ele><time>2026-03-22T08:55:38.026Z</time></trkpt><trkpt lat="44.22672087058608" lon="12.088681941914212"><ele>20.0</ele><time>2026-03-22T08:55:39.026Z</time></trkpt><trkpt lat="44.226862007632455" lon="12.088825222676773"><ele>20.0</ele><time>2026-03-22T08:55:40.026Z</time></trkpt><trkpt lat="44.22700828691347" lon="12.088974124741387"><ele>20.0</ele><time>2026-03-22T08:55:41.026Z</time></trkpt><trkpt lat="44.22716026186869" lon="12.089107284759512"><ele>20.0</ele><time>2026-03-22T08:55:42.026Z</time></trkpt><trkpt lat="44.227310762425866" lon="12.089239452022587"><ele>20.0</ele><time>2026-03-22T08:55:43.026Z</time></trkpt><trkpt lat="44.227456423973585" lon="12.089367643977678"><ele>20.0</ele><time>2026-03-22T08:55:44.026Z</time></trkpt><trkpt lat="44.22759087718824" lon="12.08948409610616"><ele>20.0</ele><time>2026-03-22T08:55:45.026Z</time></trkpt><trkpt lat="44.22772123936156" lon="12.089594601303178"><ele>20.0</ele><time>2026-03-22T08:55:46.026Z</time></trkpt><trkpt lat="44.22784928166661" lon="12.0897012060181"><ele>20.0</ele><time>2026-03-22T08:55:47.026Z</time></trkpt><trkpt lat="44.2279804286288" lon="12.089806211427163"><ele>20.0</ele><time>2026-03-22T08:55:48.026Z</time></trkpt><trkpt lat="44.22811518348605" lon="12.089911605160209"><ele>20.333333333333336</ele><time>2026-03-22T08:55:49.026Z</time></trkpt><trkpt lat="44.228257490440974" lon="12.090022422489696"><ele>20.666666666666668</ele><time>2026-03-22T08:55:50.026Z</time></trkpt><trkpt lat="44.22840225267445" lon="12.090128620595966"><ele>21.0</ele><time>2026-03-22T08:55:51.026Z</time></trkpt><trkpt lat="44.22854793021385" lon="12.09023757933483"><ele>21.0</ele><time>2026-03-22T08:55:52.026Z</time></trkpt><trkpt lat="44.22870006571403" lon="12.09034360045513"><ele>21.0</ele><time>2026-03-22T08:55:53.026Z</time></trkpt><trkpt lat="44.22885794719051" lon="12.09045190688007"><ele>21.0</ele><time>2026-03-22T08:55:54.026Z</time></trkpt><trkpt lat="44.22901980648699" lon="12.090556657977935"><ele>20.666666666666668</ele><time>2026-03-22T08:55:55.026Z</time></trkpt><trkpt lat="44.2291784077707" lon="12.09066528626725"><ele>20.333333333333336</ele><time>2026-03-22T08:55:56.026Z</time></trkpt><trkpt lat="44.22933471810349" lon="12.09075883505792"><ele>20.0</ele><time>2026-03-22T08:55:57.026Z</time></trkpt><trkpt lat="44.22949554435134" lon="12.090853969221603"><ele>20.0</ele><time>2026-03-22T08:55:58.026Z</time></trkpt><trkpt lat="44.229660282135335" lon="12.090955850242214"><ele>20.0</ele><time>2026-03-22T08:55:59.026Z</time></trkpt><trkpt lat="44.2298239886384" lon="12.091047982838218"><ele>20.0</ele><time>2026-03-22T08:56:00.026Z</time></trkpt><trkpt lat="44.22998595195421" lon="12.091143613952973"><ele>18.333333333333336</ele><time>2026-03-22T08:56:01.026Z</time></trkpt><trkpt lat="44.230151480427324" lon="12.091234648038995"><ele>16.666666666666668</ele><time>2026-03-22T08:56:02.026Z</time></trkpt><trkpt lat="44.23032821636091" lon="12.09132010274781"><ele>15.0</ele><time>2026-03-22T08:56:03.026Z</time></trkpt><trkpt lat="44.23050206988998" lon="12.091403568207502"><ele>15.0</ele><time>2026-03-22T08:56:04.026Z</time></trkpt><trkpt lat="44.23067374031021" lon="12.091487606919541"><ele>15.0</ele><time>2026-03-22T08:56:05.026Z</time></trkpt><trkpt lat="44.23084642853711" lon="12.091565508101407"><ele>15.0</ele><time>2026-03-22T08:56:06.026Z</time></trkpt><trkpt lat="44.23101737168617" lon="12.091642305528039"><ele>15.0</ele><time>2026-03-22T08:56:07.026Z</time></trkpt><trkpt lat="44.23119241763813" lon="12.091715706484715"><ele>15.0</ele><time>2026-03-22T08:56:08.026Z</time></trkpt><trkpt lat="44.23136523212342" lon="12.0917851373286"><ele>15.0</ele><time>2026-03-22T08:56:09.026Z</time></trkpt><trkpt lat="44.23153893603735" lon="12.091854608161846"><ele>15.666666666666668</ele><time>2026-03-22T08:56:10.026Z</time></trkpt><trkpt lat="44.23171284669705" lon="12.091920941332967"><ele>16.333333333333336</ele><time>2026-03-22T08:56:11.026Z</time></trkpt><trkpt lat="44.231889080423926" lon="12.091984650072853"><ele>17.0</ele><time>2026-03-22T08:56:12.026Z</time></trkpt><trkpt lat="44.23206478358277" lon="12.092043830083657"><ele>17.0</ele><time>2026-03-22T08:56:13.026Z</time></trkpt><trkpt lat="44.232240547604746" lon="12.092098667088123"><ele>17.0</ele><time>2026-03-22T08:56:14.026Z</time></trkpt><trkpt lat="44.23241805826194" lon="12.092152137184033"><ele>17.0</ele><time>2026-03-22T08:56:15.026Z</time></trkpt><trkpt lat="44.232594170209886" lon="12.092200447484212"><ele>17.333333333333336</ele><time>2026-03-22T08:56:16.026Z</time></trkpt><trkpt lat="44.232766654623795" lon="12.092248534528753"><ele>17.666666666666668</ele><time>2026-03-22T08:56:17.026Z</time></trkpt><trkpt lat="44.23293832984174" lon="12.092296308479364"><ele>18.0</ele><time>2026-03-22T08:56:18.026Z</time></trkpt><trkpt lat="44.23310809317469" lon="12.092340138776143"><ele>17.666666666666668</ele><time>2026-03-22T08:56:19.026Z</time></trkpt><trkpt lat="44.233282142488484" lon="12.09237710938214"><ele>17.333333333333336</ele><time>2026-03-22T08:56:20.026Z</time></trkpt><trkpt lat="44.23344981372577" lon="12.092411801884648"><ele>17.0</ele><time>2026-03-22T08:56:21.026Z</time></trkpt><trkpt lat="44.23362239492424" lon="12.092443199454863"><ele>17.0</ele><time>2026-03-22T08:56:22.026Z</time></trkpt><trkpt lat="44.23379279015325" lon="12.092472943269"><ele>17.0</ele><time>2026-03-22T08:56:23.026Z</time></trkpt><trkpt lat="44.2339623638063" lon="12.092498919767042"><ele>17.0</ele><time>2026-03-22T08:56:24.026Z</time></trkpt><trkpt lat="44.234131529497844" lon="12.09252984919049"><ele>16.0</ele><time>2026-03-22T08:56:25.026Z</time></trkpt><trkpt lat="44.23430115116548" lon="12.092550279639829"><ele>15.0</ele><time>2026-03-22T08:56:26.026Z</time></trkpt><trkpt lat="44.234468882402446" lon="12.092569183528354"><ele>14.0</ele><time>2026-03-22T08:56:27.026Z</time></trkpt><trkpt lat="44.23463967557132" lon="12.092587529746368"><ele>14.333333333333334</ele><time>2026-03-22T08:56:28.026Z</time></trkpt><trkpt lat="44.23481318640824" lon="12.092602556473876"><ele>14.666666666666668</ele><time>2026-03-22T08:56:29.026Z</time></trkpt><trkpt lat="44.23498338654468" lon="12.092617158652342"><ele>15.0</ele><time>2026-03-22T08:56:30.026Z</time></trkpt><trkpt lat="44.235154553859765" lon="12.09263106682588"><ele>15.0</ele><time>2026-03-22T08:56:31.026Z</time></trkpt><trkpt lat="44.235325263760394" lon="12.09264456153761"><ele>15.0</ele><time>2026-03-22T08:56:32.026Z</time></trkpt><trkpt lat="44.23549543053484" lon="12.09265589950763"><ele>15.0</ele><time>2026-03-22T08:56:33.027Z</time></trkpt><trkpt lat="44.23566697487021" lon="12.09266721567039"><ele>15.333333333333332</ele><time>2026-03-22T08:56:34.026Z</time></trkpt><trkpt lat="44.23583702892246" lon="12.092677719772558"><ele>15.666666666666666</ele><time>2026-03-22T08:56:35.026Z</time></trkpt><trkpt lat="44.23600950361534" lon="12.09268794580753"><ele>16.0</ele><time>2026-03-22T08:56:36.026Z</time></trkpt><trkpt lat="44.23618450416081" lon="12.092697312459723"><ele>16.0</ele><time>2026-03-22T08:56:37.026Z</time></trkpt><trkpt lat="44.23636638497324" lon="12.092711957155608"><ele>16.0</ele><time>2026-03-22T08:56:38.026Z</time></trkpt><trkpt lat="44.23654294264357" lon="12.092724326823962"><ele>16.0</ele><time>2026-03-22T08:56:39.027Z</time></trkpt><trkpt lat="44.23672187334983" lon="12.092729025348502"><ele>16.333333333333332</ele><time>2026-03-22T08:56:40.026Z</time></trkpt><trkpt lat="44.23690357378339" lon="12.092743890676367"><ele>16.666666666666668</ele><time>2026-03-22T08:56:41.026Z</time></trkpt><trkpt lat="44.23708415396867" lon="12.092759081935021"><ele>17.0</ele><time>2026-03-22T08:56:42.026Z</time></trkpt><trkpt lat="44.23727092652257" lon="12.09277057417478"><ele>16.333333333333336</ele><time>2026-03-22T08:56:43.027Z</time></trkpt><trkpt lat="44.237461436749356" lon="12.092788313125393"><ele>15.666666666666668</ele><time>2026-03-22T08:56:44.027Z</time></trkpt><trkpt lat="44.237651371292465" lon="12.092803785644929"><ele>15.0</ele><time>2026-03-22T08:56:45.026Z</time></trkpt><trkpt lat="44.237839147888394" lon="12.092824600490198"><ele>15.0</ele><time>2026-03-22T08:56:46.026Z</time></trkpt><trkpt lat="44.23802126378553" lon="12.092842958251527"><ele>15.0</ele><time>2026-03-22T08:56:47.026Z</time></trkpt><trkpt lat="44.23821284053497" lon="12.092863943896567"><ele>15.0</ele><time>2026-03-22T08:56:48.026Z</time></trkpt><trkpt lat="44.23840595227916" lon="12.092886882505427"><ele>15.666666666666668</ele><time>2026-03-22T08:56:49.026Z</time></trkpt><trkpt lat="44.23860112656128" lon="12.092912018075491"><ele>16.333333333333336</ele><time>2026-03-22T08:56:50.026Z</time></trkpt><trkpt lat="44.23879789598342" lon="12.092939394570703"><ele>17.0</ele><time>2026-03-22T08:56:51.026Z</time></trkpt><trkpt lat="44.238993799906716" lon="12.09297148074402"><ele>17.0</ele><time>2026-03-22T08:56:52.026Z</time></trkpt><trkpt lat="44.23918566410614" lon="12.093002267087545"><ele>17.0</ele><time>2026-03-22T08:56:53.026Z</time></trkpt><trkpt lat="44.2393753003567" lon="12.093032994357792"><ele>17.0</ele><time>2026-03-22T08:56:54.026Z</time></trkpt><trkpt lat="44.23956685271177" lon="12.093069168296324"><ele>17.0</ele><time>2026-03-22T08:56:55.026Z</time></trkpt><trkpt lat="44.23976059240745" lon="12.093109525547979"><ele>17.0</ele><time>2026-03-22T08:56:56.026Z</time></trkpt><trkpt lat="44.2399509921248" lon="12.093150956402953"><ele>17.0</ele><time>2026-03-22T08:56:57.026Z</time></trkpt><trkpt lat="44.240148216859346" lon="12.093188376391014"><ele>17.0</ele><time>2026-03-22T08:56:58.026Z</time></trkpt><trkpt lat="44.24034402762435" lon="12.093225988982745"><ele>17.0</ele><time>2026-03-22T08:56:59.026Z</time></trkpt><trkpt lat="44.24054504909423" lon="12.093275286310938"><ele>17.0</ele><time>2026-03-22T08:57:00.026Z</time></trkpt><trkpt lat="44.24074177872996" lon="12.093322219333563"><ele>17.0</ele><time>2026-03-22T08:57:01.026Z</time></trkpt><trkpt lat="44.240936620871885" lon="12.093365731624818"><ele>17.0</ele><time>2026-03-22T08:57:02.026Z</time></trkpt><trkpt lat="44.241133245429545" lon="12.093415922832937"><ele>17.0</ele><time>2026-03-22T08:57:03.026Z</time></trkpt><trkpt lat="44.24132982563281" lon="12.093471298323399"><ele>16.333333333333336</ele><time>2026-03-22T08:57:04.026Z</time></trkpt><trkpt lat="44.241523895244804" lon="12.093516763314781"><ele>15.666666666666668</ele><time>2026-03-22T08:57:05.026Z</time></trkpt><trkpt lat="44.24171813468912" lon="12.093566860719553"><ele>15.0</ele><time>2026-03-22T08:57:06.026Z</time></trkpt><trkpt lat="44.241911477224335" lon="12.093617220132066"><ele>15.0</ele><time>2026-03-22T08:57:07.026Z</time></trkpt><trkpt lat="44.242099573360356" lon="12.093664323131755"><ele>15.0</ele><time>2026-03-22T08:57:08.026Z</time></trkpt><trkpt lat="44.24229199284638" lon="12.093709347831012"><ele>15.0</ele><time>2026-03-22T08:57:09.026Z</time></trkpt><trkpt lat="44.24247371667686" lon="12.093763939669314"><ele>15.333333333333332</ele><time>2026-03-22T08:57:10.026Z</time></trkpt><trkpt lat="44.242660352777996" lon="12.093814431956691"><ele>15.666666666666666</ele><time>2026-03-22T08:57:11.026Z</time></trkpt><trkpt lat="44.24284749004429" lon="12.093869229565726"><ele>16.0</ele><time>2026-03-22T08:57:12.026Z</time></trkpt><trkpt lat="44.24303721271663" lon="12.093919703521342"><ele>17.0</ele><time>2026-03-22T08:57:13.026Z</time></trkpt><trkpt lat="44.243231240175476" lon="12.093971884572207"><ele>18.0</ele><time>2026-03-22T08:57:14.026Z</time></trkpt><trkpt lat="44.24342257773297" lon="12.094020862449472"><ele>19.0</ele><time>2026-03-22T08:57:15.026Z</time></trkpt><trkpt lat="44.24360967767201" lon="12.094069568488282"><ele>18.333333333333332</ele><time>2026-03-22T08:57:16.026Z</time></trkpt><trkpt lat="44.243795384983606" lon="12.094119624258202"><ele>17.666666666666668</ele><time>2026-03-22T08:57:17.026Z</time></trkpt><trkpt lat="44.243979222449184" lon="12.094173198390415"><ele>17.0</ele><time>2026-03-22T08:57:18.026Z</time></trkpt><trkpt lat="44.244167535240535" lon="12.094220819035176"><ele>16.0</ele><time>2026-03-22T08:57:19.026Z</time></trkpt><trkpt lat="44.24435568668432" lon="12.094269890140566"><ele>15.0</ele><time>2026-03-22T08:57:20.026Z</time></trkpt><trkpt lat="44.24455020666603" lon="12.094321339494224"><ele>14.0</ele><time>2026-03-22T08:57:21.026Z</time></trkpt><trkpt lat="44.24474593681407" lon="12.094372620034044"><ele>14.333333333333334</ele><time>2026-03-22T08:57:22.026Z</time></trkpt><trkpt lat="44.24493674982547" lon="12.094420865254154"><ele>14.666666666666668</ele><time>2026-03-22T08:57:23.026Z</time></trkpt><trkpt lat="44.245124186672655" lon="12.094470597490584"><ele>15.0</ele><time>2026-03-22T08:57:24.026Z</time></trkpt><trkpt lat="44.24530911560589" lon="12.094516592042606"><ele>15.0</ele><time>2026-03-22T08:57:25.026Z</time></trkpt><trkpt lat="44.24548587588613" lon="12.094561406744958"><ele>15.0</ele><time>2026-03-22T08:57:26.026Z</time></trkpt><trkpt lat="44.24564116132661" lon="12.094598518533637"><ele>15.0</ele><time>2026-03-22T08:57:27.026Z</time></trkpt><trkpt lat="44.24579165288109" lon="12.094641399593208"><ele>15.0</ele><time>2026-03-22T08:57:28.026Z</time></trkpt><trkpt lat="44.24592740812787" lon="12.094680342201984"><ele>15.0</ele><time>2026-03-22T08:57:29.026Z</time></trkpt><trkpt lat="44.24605189389951" lon="12.094712217923346"><ele>15.0</ele><time>2026-03-22T08:57:30.026Z</time></trkpt><trkpt lat="44.24615903508867" lon="12.094745264970047"><ele>15.0</ele><time>2026-03-22T08:57:31.026Z</time></trkpt><trkpt lat="44.24625935727022" lon="12.094768691688602"><ele>15.0</ele><time>2026-03-22T08:57:32.026Z</time></trkpt><trkpt lat="44.246345510884055" lon="12.09479318663597"><ele>15.0</ele><time>2026-03-22T08:57:33.026Z</time></trkpt><trkpt lat="44.24641754561378" lon="12.09482303307996"><ele>15.0</ele><time>2026-03-22T08:57:34.026Z</time></trkpt><trkpt lat="44.24648802116719" lon="12.094856335606288"><ele>15.0</ele><time>2026-03-22T08:57:35.026Z</time></trkpt><trkpt lat="44.24655694977513" lon="12.094911388952008"><ele>15.0</ele><time>2026-03-22T08:57:36.026Z</time></trkpt><trkpt lat="44.2466260140023" lon="12.094982502998336"><ele>15.0</ele><time>2026-03-22T08:57:37.026Z</time></trkpt><trkpt lat="44.24668386947329" lon="12.095078552875519"><ele>15.333333333333334</ele><time>2026-03-22T08:57:38.026Z</time></trkpt><trkpt lat="44.24673352794647" lon="12.095195924518446"><ele>15.666666666666668</ele><time>2026-03-22T08:57:39.026Z</time></trkpt><trkpt lat="44.246794395588" lon="12.095288535222664"><ele>16.0</ele><time>2026-03-22T08:57:40.026Z</time></trkpt><trkpt lat="44.24686670396616" lon="12.095339375943526"><ele>16.333333333333336</ele><time>2026-03-22T08:57:41.026Z</time></trkpt><trkpt lat="44.2469479528082" lon="12.095354952023454"><ele>16.666666666666668</ele><time>2026-03-22T08:57:42.026Z</time></trkpt><trkpt lat="44.24702829198042" lon="12.095342579215338"><ele>17.0</ele><time>2026-03-22T08:57:43.026Z</time></trkpt><trkpt lat="44.24710127811729" lon="12.095303961952501"><ele>17.0</ele><time>2026-03-22T08:57:44.026Z</time></trkpt><trkpt lat="44.24716039504886" lon="12.095243826065671"><ele>17.0</ele><time>2026-03-22T08:57:45.026Z</time></trkpt><trkpt lat="44.24720866867211" lon="12.09516685329031"><ele>17.0</ele><time>2026-03-22T08:57:46.026Z</time></trkpt><trkpt lat="44.247230366983565" lon="12.09506703213633"><ele>17.0</ele><time>2026-03-22T08:57:47.026Z</time></trkpt><trkpt lat="44.24724390015974" lon="12.094976315494783"><ele>17.0</ele><time>2026-03-22T08:57:48.026Z</time></trkpt><trkpt lat="44.24724451986129" lon="12.094821018783296"><ele>17.0</ele><time>2026-03-22T08:57:50.026Z</time></trkpt><trkpt lat="44.247220752741065" lon="12.0946679330975"><ele>16.8</ele><time>2026-03-22T08:57:52.026Z</time></trkpt><trkpt lat="44.24720409848539" lon="12.094494630110022"><ele>16.6</ele><time>2026-03-22T08:57:54.026Z</time></trkpt><trkpt lat="44.247214319137136" lon="12.094386301862192"><ele>16.400000000000002</ele><time>2026-03-22T08:57:55.026Z</time></trkpt><trkpt lat="44.24723761339008" lon="12.094269078502101"><ele>16.2</ele><time>2026-03-22T08:57:56.026Z</time></trkpt><trkpt lat="44.247284410629284" lon="12.094117055178911"><ele>16.0</ele><time>2026-03-22T08:57:57.026Z</time></trkpt><trkpt lat="44.24734553048603" lon="12.093960060545472"><ele>16.0</ele><time>2026-03-22T08:57:58.026Z</time></trkpt><trkpt lat="44.24741149283631" lon="12.093798099279065"><ele>16.0</ele><time>2026-03-22T08:57:59.026Z</time></trkpt><trkpt lat="44.24748239145074" lon="12.093632463655679"><ele>16.0</ele><time>2026-03-22T08:58:00.026Z</time></trkpt><trkpt lat="44.24755982479805" lon="12.09346452529626"><ele>16.0</ele><time>2026-03-22T08:58:01.026Z</time></trkpt><trkpt lat="44.24762889874417" lon="12.09328620808877"><ele>16.25</ele><time>2026-03-22T08:58:02.026Z</time></trkpt><trkpt lat="44.24769723941746" lon="12.09311627350849"><ele>16.5</ele><time>2026-03-22T08:58:03.026Z</time></trkpt><trkpt lat="44.247759915835736" lon="12.092946255322005"><ele>16.75</ele><time>2026-03-22T08:58:04.026Z</time></trkpt><trkpt lat="44.24782276245828" lon="12.092773593216238"><ele>17.0</ele><time>2026-03-22T08:58:05.026Z</time></trkpt><trkpt lat="44.247887754550845" lon="12.09259704465197"><ele>16.75</ele><time>2026-03-22T08:58:06.026Z</time></trkpt><trkpt lat="44.24796108713066" lon="12.09241956578609"><ele>16.5</ele><time>2026-03-22T08:58:07.026Z</time></trkpt><trkpt lat="44.24803071785832" lon="12.092242070779136"><ele>16.25</ele><time>2026-03-22T08:58:08.026Z</time></trkpt><trkpt lat="44.24809408818057" lon="12.092081890188142"><ele>16.0</ele><time>2026-03-22T08:58:09.026Z</time></trkpt><trkpt lat="44.24815277261587" lon="12.091936161180113"><ele>16.0</ele><time>2026-03-22T08:58:10.026Z</time></trkpt><trkpt lat="44.24820715319405" lon="12.09179595273923"><ele>16.0</ele><time>2026-03-22T08:58:11.026Z</time></trkpt><trkpt lat="44.24826781650815" lon="12.091656177052787"><ele>16.0</ele><time>2026-03-22T08:58:12.026Z</time></trkpt><trkpt lat="44.248332788372245" lon="12.091500236480362"><ele>16.0</ele><time>2026-03-22T08:58:13.026Z</time></trkpt><trkpt lat="44.24839396173336" lon="12.091347607098594"><ele>16.0</ele><time>2026-03-22T08:58:14.026Z</time></trkpt><trkpt lat="44.248450871202486" lon="12.091204549441882"><ele>16.0</ele><time>2026-03-22T08:58:15.026Z</time></trkpt><trkpt lat="44.248509337077095" lon="12.09106883524177"><ele>16.0</ele><time>2026-03-22T08:58:16.026Z</time></trkpt><trkpt lat="44.24857778531344" lon="12.090935950798809"><ele>16.0</ele><time>2026-03-22T08:58:17.026Z</time></trkpt><trkpt lat="44.24864966358042" lon="12.090819628939272"><ele>16.0</ele><time>2026-03-22T08:58:18.026Z</time></trkpt><trkpt lat="44.24872285925824" lon="12.090733860293833"><ele>16.0</ele><time>2026-03-22T08:58:19.026Z</time></trkpt><trkpt lat="44.24880954462237" lon="12.090669437557414"><ele>16.0</ele><time>2026-03-22T08:58:20.026Z</time></trkpt><trkpt lat="44.24890204768648" lon="12.090632818786563"><ele>16.0</ele><time>2026-03-22T08:58:21.026Z</time></trkpt><trkpt lat="44.24900145950772" lon="12.090611956678384"><ele>16.0</ele><time>2026-03-22T08:58:22.026Z</time></trkpt><trkpt lat="44.24910526201802" lon="12.09060584492201"><ele>16.0</ele><time>2026-03-22T08:58:23.026Z</time></trkpt><trkpt lat="44.249212626222175" lon="12.090620859153402"><ele>16.0</ele><time>2026-03-22T08:58:24.026Z</time></trkpt><trkpt lat="44.24930694600285" lon="12.09065432218297"><ele>16.0</ele><time>2026-03-22T08:58:25.026Z</time></trkpt><trkpt lat="44.249395787005255" lon="12.090706585429079"><ele>16.0</ele><time>2026-03-22T08:58:26.026Z</time></trkpt><trkpt lat="44.249488551673835" lon="12.090784430310297"><ele>16.0</ele><time>2026-03-22T08:58:27.026Z</time></trkpt><trkpt lat="44.249571240405295" lon="12.09086667345438"><ele>15.999999999999998</ele><time>2026-03-22T08:58:28.026Z</time></trkpt><trkpt lat="44.24965650384573" lon="12.09094801476834"><ele>16.0</ele><time>2026-03-22T08:58:29.026Z</time></trkpt><trkpt lat="44.24973912099577" lon="12.091016514311669"><ele>16.0</ele><time>2026-03-22T08:58:30.026Z</time></trkpt><trkpt lat="44.2498070050478" lon="12.091074117095607"><ele>16.0</ele><time>2026-03-22T08:58:31.026Z</time></trkpt><trkpt lat="44.2499013267328" lon="12.091055467874916"><ele>15.999999999999998</ele><time>2026-03-22T08:58:32.026Z</time></trkpt><trkpt lat="44.24996934075741" lon="12.091099833615665"><ele>16.0</ele><time>2026-03-22T08:58:33.026Z</time></trkpt><trkpt lat="44.25005166817192" lon="12.091150061646063"><ele>16.0</ele><time>2026-03-22T08:58:34.026Z</time></trkpt><trkpt lat="44.2501377234518" lon="12.091199140065688"><ele>16.0</ele><time>2026-03-22T08:58:35.026Z</time></trkpt><trkpt lat="44.25022492432097" lon="12.091246559504546"><ele>16.0</ele><time>2026-03-22T08:58:36.026Z</time></trkpt><trkpt lat="44.25031450424288" lon="12.091293869316965"><ele>16.0</ele><time>2026-03-22T08:58:37.026Z</time></trkpt><trkpt lat="44.25040806947993" lon="12.091339633165685"><ele>16.0</ele><time>2026-03-22T08:58:38.026Z</time></trkpt><trkpt lat="44.25050717125067" lon="12.091382904315493"><ele>16.0</ele><time>2026-03-22T08:58:39.027Z</time></trkpt><trkpt lat="44.25060494324709" lon="12.091418007399325"><ele>16.0</ele><time>2026-03-22T08:58:40.027Z</time></trkpt><trkpt lat="44.25070247322076" lon="12.091453413710727"><ele>16.0</ele><time>2026-03-22T08:58:41.027Z</time></trkpt><trkpt lat="44.25078603708827" lon="12.091550185905929"><ele>16.0</ele><time>2026-03-22T08:58:42.027Z</time></trkpt><trkpt lat="44.25087111005007" lon="12.091624155025114"><ele>16.0</ele><time>2026-03-22T08:58:43.027Z</time></trkpt><trkpt lat="44.25094812850894" lon="12.091724718588504"><ele>16.0</ele><time>2026-03-22T08:58:44.027Z</time></trkpt><trkpt lat="44.251011747289276" lon="12.09184873438447"><ele>16.0</ele><time>2026-03-22T08:58:45.027Z</time></trkpt><trkpt lat="44.25107072660976" lon="12.091986518510437"><ele>16.0</ele><time>2026-03-22T08:58:46.027Z</time></trkpt><trkpt lat="44.2511153416298" lon="12.092125221385539"><ele>16.0</ele><time>2026-03-22T08:58:47.027Z</time></trkpt><trkpt lat="44.25115396361658" lon="12.092270427570758"><ele>16.0</ele><time>2026-03-22T08:58:48.026Z</time></trkpt><trkpt lat="44.251188488935895" lon="12.092419229696254"><ele>16.25</ele><time>2026-03-22T08:58:49.027Z</time></trkpt><trkpt lat="44.251209850969374" lon="12.092570594847185"><ele>16.5</ele><time>2026-03-22T08:58:50.027Z</time></trkpt><trkpt lat="44.251225386243256" lon="12.092724770973197"><ele>16.75</ele><time>2026-03-22T08:58:51.027Z</time></trkpt><trkpt lat="44.25123049067364" lon="12.09288304229997"><ele>17.0</ele><time>2026-03-22T08:58:52.027Z</time></trkpt><trkpt lat="44.25121871421341" lon="12.093045302787463"><ele>17.0</ele><time>2026-03-22T08:58:53.027Z</time></trkpt><trkpt lat="44.25119463157906" lon="12.093199996745682"><ele>17.0</ele><time>2026-03-22T08:58:54.027Z</time></trkpt><trkpt lat="44.25116627713789" lon="12.093346050121578"><ele>17.0</ele><time>2026-03-22T08:58:55.027Z</time></trkpt><trkpt lat="44.251131840790386" lon="12.093494595826073"><ele>17.0</ele><time>2026-03-22T08:58:56.027Z</time></trkpt><trkpt lat="44.25109113117968" lon="12.093650963097504"><ele>17.0</ele><time>2026-03-22T08:58:57.027Z</time></trkpt><trkpt lat="44.25104802753912" lon="12.093808239001273"><ele>17.0</ele><time>2026-03-22T08:58:58.027Z</time></trkpt><trkpt lat="44.25100254076226" lon="12.093972432958457"><ele>17.0</ele><time>2026-03-22T08:58:59.027Z</time></trkpt><trkpt lat="44.25095534913727" lon="12.094128135512666"><ele>17.0</ele><time>2026-03-22T08:59:00.027Z</time></trkpt><trkpt lat="44.25079976754411" lon="12.094748709331043"><ele>17.0</ele><time>2026-03-22T08:59:04.027Z</time></trkpt><trkpt lat="44.250751006572436" lon="12.094920844253249"><ele>17.0</ele><time>2026-03-22T08:59:05.027Z</time></trkpt><trkpt lat="44.250697631608226" lon="12.095105205640863"><ele>17.0</ele><time>2026-03-22T08:59:06.027Z</time></trkpt><trkpt lat="44.250644422287586" lon="12.095300189346979"><ele>17.0</ele><time>2026-03-22T08:59:07.027Z</time></trkpt><trkpt lat="44.25059182027434" lon="12.095499757928522"><ele>16.666666666666668</ele><time>2026-03-22T08:59:08.027Z</time></trkpt><trkpt lat="44.250537224277906" lon="12.09569793693001"><ele>16.333333333333332</ele><time>2026-03-22T08:59:09.027Z</time></trkpt><trkpt lat="44.2504826434252" lon="12.095898243434549"><ele>16.0</ele><time>2026-03-22T08:59:10.027Z</time></trkpt><trkpt lat="44.250428067528794" lon="12.096100220707562"><ele>16.0</ele><time>2026-03-22T08:59:11.027Z</time></trkpt><trkpt lat="44.25037231744569" lon="12.09631844031861"><ele>16.0</ele><time>2026-03-22T08:59:12.027Z</time></trkpt><trkpt lat="44.250307719400816" lon="12.096545521796868"><ele>16.0</ele><time>2026-03-22T08:59:13.027Z</time></trkpt><trkpt lat="44.250241420902974" lon="12.09677310198289"><ele>15.666666666666666</ele><time>2026-03-22T08:59:14.027Z</time></trkpt><trkpt lat="44.25017446422957" lon="12.097001483842208"><ele>15.333333333333332</ele><time>2026-03-22T08:59:15.027Z</time></trkpt><trkpt lat="44.25010726071048" lon="12.097224275147346"><ele>15.0</ele><time>2026-03-22T08:59:16.027Z</time></trkpt><trkpt lat="44.25003944203323" lon="12.097458021270919"><ele>14.333333333333332</ele><time>2026-03-22T08:59:17.027Z</time></trkpt><trkpt lat="44.24997019097195" lon="12.097698315490442"><ele>13.666666666666666</ele><time>2026-03-22T08:59:18.027Z</time></trkpt><trkpt lat="44.249900414268524" lon="12.097940766633084"><ele>13.0</ele><time>2026-03-22T08:59:19.027Z</time></trkpt><trkpt lat="44.24983138479488" lon="12.098177892021653"><ele>12.666666666666666</ele><time>2026-03-22T08:59:20.027Z</time></trkpt><trkpt lat="44.249762049039944" lon="12.098417999449003"><ele>12.333333333333332</ele><time>2026-03-22T08:59:21.027Z</time></trkpt><trkpt lat="44.249689796722976" lon="12.098665548411532"><ele>12.0</ele><time>2026-03-22T08:59:22.027Z</time></trkpt><trkpt lat="44.24961328874602" lon="12.098928484517163"><ele>13.333333333333332</ele><time>2026-03-22T08:59:23.027Z</time></trkpt><trkpt lat="44.249533867486896" lon="12.09920232654223"><ele>14.666666666666666</ele><time>2026-03-22T08:59:24.027Z</time></trkpt><trkpt lat="44.249454629952595" lon="12.099478427355566"><ele>16.0</ele><time>2026-03-22T08:59:25.027Z</time></trkpt><trkpt lat="44.249367790615125" lon="12.09976172108684"><ele>16.0</ele><time>2026-03-22T08:59:26.027Z</time></trkpt><trkpt lat="44.24928771391909" lon="12.100049360098897"><ele>16.0</ele><time>2026-03-22T08:59:27.027Z</time></trkpt><trkpt lat="44.24920154826215" lon="12.100345983047001"><ele>16.0</ele><time>2026-03-22T08:59:28.027Z</time></trkpt><trkpt lat="44.24911468070336" lon="12.100643496774563"><ele>16.0</ele><time>2026-03-22T08:59:29.027Z</time></trkpt><trkpt lat="44.249028859067074" lon="12.100935817223812"><ele>16.0</ele><time>2026-03-22T08:59:30.027Z</time></trkpt><trkpt lat="44.24894297356652" lon="12.101228638733941"><ele>16.0</ele><time>2026-03-22T08:59:31.027Z</time></trkpt><trkpt lat="44.248857642529806" lon="12.101526540918504"><ele>15.5</ele><time>2026-03-22T08:59:32.027Z</time></trkpt><trkpt lat="44.24876978202841" lon="12.101831378750283"><ele>15.0</ele><time>2026-03-22T08:59:33.027Z</time></trkpt><trkpt lat="44.248679212468716" lon="12.102142301393856"><ele>15.0</ele><time>2026-03-22T08:59:34.027Z</time></trkpt><trkpt lat="44.248590804169766" lon="12.102447568160038"><ele>15.0</ele><time>2026-03-22T08:59:35.027Z</time></trkpt><trkpt lat="44.2485037868434" lon="12.102750242148266"><ele>15.0</ele><time>2026-03-22T08:59:36.027Z</time></trkpt><trkpt lat="44.248413032504686" lon="12.103067227583926"><ele>15.0</ele><time>2026-03-22T08:59:37.027Z</time></trkpt><trkpt lat="44.248321456428144" lon="12.10338809643865"><ele>15.0</ele><time>2026-03-22T08:59:38.027Z</time></trkpt><trkpt lat="44.24822737033443" lon="12.103708119269367"><ele>15.0</ele><time>2026-03-22T08:59:39.027Z</time></trkpt><trkpt lat="44.248133895425774" lon="12.104026981322969"><ele>15.5</ele><time>2026-03-22T08:59:40.027Z</time></trkpt><trkpt lat="44.24804253660063" lon="12.104340398367363"><ele>16.0</ele><time>2026-03-22T08:59:41.027Z</time></trkpt><trkpt lat="44.247950718205836" lon="12.104658451353899"><ele>16.5</ele><time>2026-03-22T08:59:42.027Z</time></trkpt><trkpt lat="44.247860763754616" lon="12.104975205340292"><ele>17.0</ele><time>2026-03-22T08:59:43.027Z</time></trkpt><trkpt lat="44.24776635419725" lon="12.105293371899643"><ele>17.0</ele><time>2026-03-22T08:59:44.027Z</time></trkpt><trkpt lat="44.2476719799478" lon="12.105606391959125"><ele>17.0</ele><time>2026-03-22T08:59:45.027Z</time></trkpt><trkpt lat="44.2475846684939" lon="12.105903285772698"><ele>16.5</ele><time>2026-03-22T08:59:46.027Z</time></trkpt><trkpt lat="44.24750126073584" lon="12.10619774990555"><ele>16.0</ele><time>2026-03-22T08:59:47.027Z</time></trkpt><trkpt lat="44.247415736477336" lon="12.106490896914751"><ele>16.0</ele><time>2026-03-22T08:59:48.027Z</time></trkpt><trkpt lat="44.247326012767175" lon="12.106791156315087"><ele>16.0</ele><time>2026-03-22T08:59:49.027Z</time></trkpt><trkpt lat="44.24723912495473" lon="12.10708961449119"><ele>16.0</ele><time>2026-03-22T08:59:50.027Z</time></trkpt><trkpt lat="44.247151757047405" lon="12.107393985509479"><ele>16.0</ele><time>2026-03-22T08:59:51.027Z</time></trkpt><trkpt lat="44.24706459307657" lon="12.107701079996685"><ele>16.0</ele><time>2026-03-22T08:59:52.027Z</time></trkpt><trkpt lat="44.246975252075714" lon="12.108007471964923"><ele>16.0</ele><time>2026-03-22T08:59:53.027Z</time></trkpt><trkpt lat="44.246887613029934" lon="12.108314095749707"><ele>16.0</ele><time>2026-03-22T08:59:54.027Z</time></trkpt><trkpt lat="44.24679834194349" lon="12.108618052732094"><ele>16.0</ele><time>2026-03-22T08:59:55.027Z</time></trkpt><trkpt lat="44.246709040713775" lon="12.108925079706886"><ele>16.0</ele><time>2026-03-22T08:59:56.027Z</time></trkpt><trkpt lat="44.24662060126404" lon="12.109233822424113"><ele>16.0</ele><time>2026-03-22T08:59:57.027Z</time></trkpt><trkpt lat="44.24653269313119" lon="12.109543825938486"><ele>16.0</ele><time>2026-03-22T08:59:58.027Z</time></trkpt><trkpt lat="44.24644178279398" lon="12.109853374814621"><ele>16.0</ele><time>2026-03-22T08:59:59.027Z</time></trkpt><trkpt lat="44.246353909045624" lon="12.110157771636691"><ele>15.5</ele><time>2026-03-22T09:00:00.027Z</time></trkpt><trkpt lat="44.24626475850832" lon="12.110465609838377"><ele>15.0</ele><time>2026-03-22T09:00:01.027Z</time></trkpt><trkpt lat="44.24617572244736" lon="12.11077351048169"><ele>14.5</ele><time>2026-03-22T09:00:02.027Z</time></trkpt><trkpt lat="44.24608610760579" lon="12.111079992956638"><ele>14.0</ele><time>2026-03-22T09:00:03.027Z</time></trkpt><trkpt lat="44.245997802037195" lon="12.111387141409628"><ele>13.5</ele><time>2026-03-22T09:00:04.027Z</time></trkpt><trkpt lat="44.245908954837745" lon="12.111690741371397"><ele>13.0</ele><time>2026-03-22T09:00:05.027Z</time></trkpt><trkpt lat="44.24582081709103" lon="12.11199556921329"><ele>13.0</ele><time>2026-03-22T09:00:06.027Z</time></trkpt><trkpt lat="44.245730956281974" lon="12.11229932667438"><ele>13.0</ele><time>2026-03-22T09:00:07.027Z</time></trkpt><trkpt lat="44.24564329021297" lon="12.112602471352469"><ele>14.0</ele><time>2026-03-22T09:00:08.027Z</time></trkpt><trkpt lat="44.24555638408266" lon="12.112903968613184"><ele>15.0</ele><time>2026-03-22T09:00:09.027Z</time></trkpt><trkpt lat="44.245467539130516" lon="12.113207467754904"><ele>15.0</ele><time>2026-03-22T09:00:10.027Z</time></trkpt><trkpt lat="44.245378245892276" lon="12.113512295952628"><ele>15.0</ele><time>2026-03-22T09:00:11.027Z</time></trkpt><trkpt lat="44.24528978097633" lon="12.113816202319315"><ele>15.0</ele><time>2026-03-22T09:00:12.027Z</time></trkpt><trkpt lat="44.24520080460217" lon="12.114120574249961"><ele>15.0</ele><time>2026-03-22T09:00:13.027Z</time></trkpt><trkpt lat="44.245111801340855" lon="12.114426599879888"><ele>15.0</ele><time>2026-03-22T09:00:14.027Z</time></trkpt><trkpt lat="44.245024317227966" lon="12.114736148554535"><ele>15.0</ele><time>2026-03-22T09:00:15.027Z</time></trkpt><trkpt lat="44.24493612656643" lon="12.115041968151003"><ele>15.0</ele><time>2026-03-22T09:00:16.027Z</time></trkpt><trkpt lat="44.244846652331255" lon="12.115345313302559"><ele>15.0</ele><time>2026-03-22T09:00:17.027Z</time></trkpt><trkpt lat="44.24475680235653" lon="12.115653518064972"><ele>15.5</ele><time>2026-03-22T09:00:18.027Z</time></trkpt><trkpt lat="44.24466490799053" lon="12.115965779362442"><ele>16.0</ele><time>2026-03-22T09:00:19.027Z</time></trkpt><trkpt lat="44.24457271376444" lon="12.116276697793426"><ele>16.5</ele><time>2026-03-22T09:00:20.027Z</time></trkpt><trkpt lat="44.244481762898715" lon="12.116588849367277"><ele>17.0</ele><time>2026-03-22T09:00:21.027Z</time></trkpt><trkpt lat="44.24439351674157" lon="12.116900510894636"><ele>17.0</ele><time>2026-03-22T09:00:22.027Z</time></trkpt><trkpt lat="44.244306424241756" lon="12.117215122124326"><ele>17.0</ele><time>2026-03-22T09:00:23.027Z</time></trkpt><trkpt lat="44.24421471473104" lon="12.117527604582158"><ele>16.0</ele><time>2026-03-22T09:00:24.027Z</time></trkpt><trkpt lat="44.24412441866694" lon="12.117843491090452"><ele>15.0</ele><time>2026-03-22T09:00:25.027Z</time></trkpt><trkpt lat="44.24402985311978" lon="12.118152325128763"><ele>16.5</ele><time>2026-03-22T09:00:26.027Z</time></trkpt><trkpt lat="44.24393509130374" lon="12.11846188172425"><ele>18.0</ele><time>2026-03-22T09:00:27.027Z</time></trkpt><trkpt lat="44.24384584035439" lon="12.11877448567038"><ele>17.0</ele><time>2026-03-22T09:00:28.027Z</time></trkpt><trkpt lat="44.24375363908085" lon="12.119090598361142"><ele>16.0</ele><time>2026-03-22T09:00:29.027Z</time></trkpt><trkpt lat="44.24366380636375" lon="12.119398343838633"><ele>16.0</ele><time>2026-03-22T09:00:30.027Z</time></trkpt><trkpt lat="44.24357802228054" lon="12.119700081973795"><ele>16.0</ele><time>2026-03-22T09:00:31.027Z</time></trkpt><trkpt lat="44.24348917112488" lon="12.120003117001703"><ele>15.5</ele><time>2026-03-22T09:00:32.027Z</time></trkpt><trkpt lat="44.24340199013814" lon="12.120305876375639"><ele>15.0</ele><time>2026-03-22T09:00:33.027Z</time></trkpt><trkpt lat="44.243314008905664" lon="12.120612371492472"><ele>15.5</ele><time>2026-03-22T09:00:34.027Z</time></trkpt><trkpt lat="44.243224004144224" lon="12.120920143829261"><ele>16.0</ele><time>2026-03-22T09:00:35.027Z</time></trkpt><trkpt lat="44.24313324566371" lon="12.121232225884524"><ele>16.0</ele><time>2026-03-22T09:00:36.027Z</time></trkpt><trkpt lat="44.24304045786464" lon="12.121546730003102"><ele>16.0</ele><time>2026-03-22T09:00:37.027Z</time></trkpt><trkpt lat="44.24294722718596" lon="12.12186248786668"><ele>16.0</ele><time>2026-03-22T09:00:38.027Z</time></trkpt><trkpt lat="44.24285591361939" lon="12.122178437637718"><ele>16.0</ele><time>2026-03-22T09:00:39.027Z</time></trkpt><trkpt lat="44.24276469062741" lon="12.122493584612634"><ele>16.5</ele><time>2026-03-22T09:00:40.027Z</time></trkpt><trkpt lat="44.24267362777696" lon="12.122809764447911"><ele>17.0</ele><time>2026-03-22T09:00:41.027Z</time></trkpt><trkpt lat="44.24258482496427" lon="12.123107778680646"><ele>17.666666666666668</ele><time>2026-03-22T09:00:42.027Z</time></trkpt><trkpt lat="44.2425040297442" lon="12.123384810851569"><ele>18.333333333333332</ele><time>2026-03-22T09:00:43.027Z</time></trkpt><trkpt lat="44.24242947821251" lon="12.123644584933793"><ele>19.0</ele><time>2026-03-22T09:00:44.027Z</time></trkpt><trkpt lat="44.2423609959971" lon="12.1238851897314"><ele>19.0</ele><time>2026-03-22T09:00:45.027Z</time></trkpt><trkpt lat="44.24229010750757" lon="12.124120600297584"><ele>19.0</ele><time>2026-03-22T09:00:46.027Z</time></trkpt><trkpt lat="44.242217478310245" lon="12.124361699923206"><ele>19.0</ele><time>2026-03-22T09:00:47.027Z</time></trkpt><trkpt lat="44.24213692436257" lon="12.124611690077183"><ele>19.0</ele><time>2026-03-22T09:00:48.027Z</time></trkpt><trkpt lat="44.24204794346627" lon="12.124862252869038"><ele>19.0</ele><time>2026-03-22T09:00:49.027Z</time></trkpt><trkpt lat="44.24195361986437" lon="12.125112850630128"><ele>19.0</ele><time>2026-03-22T09:00:50.027Z</time></trkpt><trkpt lat="44.24185516422163" lon="12.125366266571078"><ele>18.666666666666664</ele><time>2026-03-22T09:00:51.027Z</time></trkpt><trkpt lat="44.2417499296854" lon="12.125617007088612"><ele>18.333333333333332</ele><time>2026-03-22T09:00:52.027Z</time></trkpt><trkpt lat="44.241637885289194" lon="12.125866475622038"><ele>18.0</ele><time>2026-03-22T09:00:53.027Z</time></trkpt><trkpt lat="44.241520863660185" lon="12.12612051425815"><ele>17.666666666666668</ele><time>2026-03-22T09:00:54.027Z</time></trkpt><trkpt lat="44.24140046900164" lon="12.126368473220507"><ele>17.333333333333336</ele><time>2026-03-22T09:00:55.027Z</time></trkpt><trkpt lat="44.241276433006625" lon="12.12661302565037"><ele>17.0</ele><time>2026-03-22T09:00:56.027Z</time></trkpt><trkpt lat="44.2411462634239" lon="12.126855133573185"><ele>17.0</ele><time>2026-03-22T09:00:57.027Z</time></trkpt><trkpt lat="44.24100874819484" lon="12.12709667647967"><ele>17.0</ele><time>2026-03-22T09:00:58.027Z</time></trkpt><trkpt lat="44.24086440339121" lon="12.127334783185367"><ele>17.0</ele><time>2026-03-22T09:00:59.027Z</time></trkpt><trkpt lat="44.24071981965673" lon="12.127570057749269"><ele>16.666666666666668</ele><time>2026-03-22T09:01:00.027Z</time></trkpt><trkpt lat="44.24057082014712" lon="12.12780581860324"><ele>16.333333333333332</ele><time>2026-03-22T09:01:01.027Z</time></trkpt><trkpt lat="44.24042359500011" lon="12.128039758062862"><ele>16.0</ele><time>2026-03-22T09:01:02.027Z</time></trkpt><trkpt lat="44.24028382494699" lon="12.12826904084099"><ele>16.0</ele><time>2026-03-22T09:01:03.027Z</time></trkpt><trkpt lat="44.24014572665343" lon="12.12849527646454"><ele>16.0</ele><time>2026-03-22T09:01:04.027Z</time></trkpt><trkpt lat="44.24000713654527" lon="12.128727072788948"><ele>16.0</ele><time>2026-03-22T09:01:05.027Z</time></trkpt><trkpt lat="44.23986652881529" lon="12.128966539982995"><ele>16.333333333333332</ele><time>2026-03-22T09:01:06.027Z</time></trkpt><trkpt lat="44.23972378606232" lon="12.1292029623625"><ele>16.666666666666668</ele><time>2026-03-22T09:01:07.027Z</time></trkpt><trkpt lat="44.23958216337551" lon="12.129440662938633"><ele>17.0</ele><time>2026-03-22T09:01:08.027Z</time></trkpt><trkpt lat="44.23943965847462" lon="12.129681198787386"><ele>17.0</ele><time>2026-03-22T09:01:09.027Z</time></trkpt><trkpt lat="44.23929686239572" lon="12.12991619058848"><ele>17.0</ele><time>2026-03-22T09:01:10.027Z</time></trkpt><trkpt lat="44.23915463861681" lon="12.130155926895428"><ele>17.0</ele><time>2026-03-22T09:01:11.027Z</time></trkpt><trkpt lat="44.239012196012055" lon="12.130393389641283"><ele>17.0</ele><time>2026-03-22T09:01:12.027Z</time></trkpt><trkpt lat="44.23886922136168" lon="12.1306277329968"><ele>17.0</ele><time>2026-03-22T09:01:13.027Z</time></trkpt><trkpt lat="44.23872760102667" lon="12.130860764341824"><ele>17.0</ele><time>2026-03-22T09:01:14.027Z</time></trkpt><trkpt lat="44.23858621985256" lon="12.131095765755987"><ele>17.0</ele><time>2026-03-22T09:01:15.027Z</time></trkpt><trkpt lat="44.238443143444464" lon="12.13133421496636"><ele>17.0</ele><time>2026-03-22T09:01:16.027Z</time></trkpt><trkpt lat="44.23829657016808" lon="12.131576988123228"><ele>17.5</ele><time>2026-03-22T09:01:17.027Z</time></trkpt><trkpt lat="44.238149777809824" lon="12.131820637322994"><ele>18.0</ele><time>2026-03-22T09:01:18.027Z</time></trkpt><trkpt lat="44.2380048188212" lon="12.132063505787045"><ele>18.0</ele><time>2026-03-22T09:01:19.027Z</time></trkpt><trkpt lat="44.2378583792816" lon="12.132306207946963"><ele>18.0</ele><time>2026-03-22T09:01:20.027Z</time></trkpt><trkpt lat="44.237712753925116" lon="12.132548260522455"><ele>19.0</ele><time>2026-03-22T09:01:21.027Z</time></trkpt><trkpt lat="44.237563979437006" lon="12.132794403630275"><ele>20.0</ele><time>2026-03-22T09:01:22.027Z</time></trkpt><trkpt lat="44.237413328212064" lon="12.133039011311238"><ele>18.5</ele><time>2026-03-22T09:01:23.027Z</time></trkpt><trkpt lat="44.23726239525295" lon="12.133284937168456"><ele>17.0</ele><time>2026-03-22T09:01:24.027Z</time></trkpt><trkpt lat="44.23711409254564" lon="12.133537446581897"><ele>17.0</ele><time>2026-03-22T09:01:25.027Z</time></trkpt><trkpt lat="44.23696776579041" lon="12.133778383189387"><ele>17.0</ele><time>2026-03-22T09:01:26.027Z</time></trkpt><trkpt lat="44.2368300062593" lon="12.134007919590736"><ele>17.0</ele><time>2026-03-22T09:01:27.027Z</time></trkpt><trkpt lat="44.23669015379774" lon="12.13424130605493"><ele>17.0</ele><time>2026-03-22T09:01:28.027Z</time></trkpt><trkpt lat="44.23654756737268" lon="12.134479117303886"><ele>17.0</ele><time>2026-03-22T09:01:29.027Z</time></trkpt><trkpt lat="44.23640322109782" lon="12.134718056328524"><ele>17.0</ele><time>2026-03-22T09:01:30.027Z</time></trkpt><trkpt lat="44.23625828973722" lon="12.134958604239044"><ele>17.0</ele><time>2026-03-22T09:01:31.027Z</time></trkpt><trkpt lat="44.236110657788494" lon="12.135201381231715"><ele>17.0</ele><time>2026-03-22T09:01:32.027Z</time></trkpt><trkpt lat="44.23596160453818" lon="12.135444553930121"><ele>17.0</ele><time>2026-03-22T09:01:33.027Z</time></trkpt><trkpt lat="44.23581069527389" lon="12.135693973879832"><ele>17.0</ele><time>2026-03-22T09:01:34.027Z</time></trkpt><trkpt lat="44.23565684597615" lon="12.135949583316958"><ele>17.5</ele><time>2026-03-22T09:01:35.027Z</time></trkpt><trkpt lat="44.2355014559202" lon="12.136208071619103"><ele>18.0</ele><time>2026-03-22T09:01:36.027Z</time></trkpt><trkpt lat="44.23534281813468" lon="12.136467116743454"><ele>18.0</ele><time>2026-03-22T09:01:37.027Z</time></trkpt><trkpt lat="44.2351850467348" lon="12.136724526585924"><ele>18.0</ele><time>2026-03-22T09:01:38.027Z</time></trkpt><trkpt lat="44.23503048288136" lon="12.136975483880885"><ele>18.0</ele><time>2026-03-22T09:01:39.027Z</time></trkpt><trkpt lat="44.234876540913376" lon="12.137231260542487"><ele>18.0</ele><time>2026-03-22T09:01:40.027Z</time></trkpt><trkpt lat="44.2347217791596" lon="12.137485717627989"><ele>17.5</ele><time>2026-03-22T09:01:41.027Z</time></trkpt><trkpt lat="44.23456817447801" lon="12.137743293577225"><ele>17.0</ele><time>2026-03-22T09:01:42.027Z</time></trkpt><trkpt lat="44.23441578687406" lon="12.138000732337503"><ele>17.0</ele><time>2026-03-22T09:01:43.027Z</time></trkpt><trkpt lat="44.234262447729954" lon="12.138256009624996"><ele>17.0</ele><time>2026-03-22T09:01:44.027Z</time></trkpt><trkpt lat="44.23410696424713" lon="12.138511247505914"><ele>17.0</ele><time>2026-03-22T09:01:45.027Z</time></trkpt><trkpt lat="44.23395172646455" lon="12.138766498523541"><ele>17.0</ele><time>2026-03-22T09:01:46.027Z</time></trkpt><trkpt lat="44.23379761646663" lon="12.13902073123058"><ele>17.0</ele><time>2026-03-22T09:01:47.027Z</time></trkpt><trkpt lat="44.233645116937424" lon="12.139272796574298"><ele>17.0</ele><time>2026-03-22T09:01:48.027Z</time></trkpt><trkpt lat="44.233493579149254" lon="12.139522798068972"><ele>17.0</ele><time>2026-03-22T09:01:49.027Z</time></trkpt><trkpt lat="44.233341302254274" lon="12.139775241570776"><ele>17.0</ele><time>2026-03-22T09:01:50.027Z</time></trkpt><trkpt lat="44.23318837532029" lon="12.140031431349573"><ele>17.5</ele><time>2026-03-22T09:01:51.027Z</time></trkpt><trkpt lat="44.233030996331145" lon="12.140288219852161"><ele>18.0</ele><time>2026-03-22T09:01:52.027Z</time></trkpt><trkpt lat="44.23287224089155" lon="12.140546227293559"><ele>18.0</ele><time>2026-03-22T09:01:53.027Z</time></trkpt><trkpt lat="44.23271232516605" lon="12.140810555784983"><ele>18.0</ele><time>2026-03-22T09:01:54.027Z</time></trkpt><trkpt lat="44.23255085005441" lon="12.141079668825512"><ele>18.0</ele><time>2026-03-22T09:01:55.027Z</time></trkpt><trkpt lat="44.232390797772176" lon="12.141348219036113"><ele>18.0</ele><time>2026-03-22T09:01:56.027Z</time></trkpt><trkpt lat="44.23223085239012" lon="12.141615538836243"><ele>17.5</ele><time>2026-03-22T09:01:57.027Z</time></trkpt><trkpt lat="44.232070380366636" lon="12.141884935585422"><ele>17.0</ele><time>2026-03-22T09:01:58.027Z</time></trkpt><trkpt lat="44.23190719459354" lon="12.14215461827932"><ele>17.0</ele><time>2026-03-22T09:01:59.027Z</time></trkpt><trkpt lat="44.23174544958411" lon="12.142422965288565"><ele>17.0</ele><time>2026-03-22T09:02:00.027Z</time></trkpt><trkpt lat="44.23158228910288" lon="12.142690304788768"><ele>16.5</ele><time>2026-03-22T09:02:01.027Z</time></trkpt><trkpt lat="44.23142261984637" lon="12.142953485905476"><ele>16.0</ele><time>2026-03-22T09:02:02.027Z</time></trkpt><trkpt lat="44.2312655053547" lon="12.143212095730815"><ele>17.0</ele><time>2026-03-22T09:02:03.027Z</time></trkpt><trkpt lat="44.23110874097757" lon="12.143471659106899"><ele>18.0</ele><time>2026-03-22T09:02:04.027Z</time></trkpt><trkpt lat="44.23095263365998" lon="12.143732802147309"><ele>18.0</ele><time>2026-03-22T09:02:05.027Z</time></trkpt><trkpt lat="44.23079658011461" lon="12.143990043193465"><ele>18.0</ele><time>2026-03-22T09:02:06.027Z</time></trkpt><trkpt lat="44.23063934751922" lon="12.144251713268773"><ele>17.5</ele><time>2026-03-22T09:02:07.027Z</time></trkpt><trkpt lat="44.230485174129" lon="12.144514354852944"><ele>17.0</ele><time>2026-03-22T09:02:08.027Z</time></trkpt><trkpt lat="44.23032823496235" lon="12.144771061646944"><ele>16.5</ele><time>2026-03-22T09:02:09.027Z</time></trkpt><trkpt lat="44.23017971260611" lon="12.145028435460237"><ele>16.0</ele><time>2026-03-22T09:02:10.027Z</time></trkpt><trkpt lat="44.230033247368226" lon="12.145287100468781"><ele>16.0</ele><time>2026-03-22T09:02:11.027Z</time></trkpt><trkpt lat="44.22989116681997" lon="12.145552655317715"><ele>16.0</ele><time>2026-03-22T09:02:12.027Z</time></trkpt><trkpt lat="44.22975777536233" lon="12.14583191333055"><ele>15.0</ele><time>2026-03-22T09:02:13.027Z</time></trkpt><trkpt lat="44.229626452309425" lon="12.146121504429148"><ele>14.0</ele><time>2026-03-22T09:02:14.027Z</time></trkpt><trkpt lat="44.229499120611514" lon="12.146415132291526"><ele>15.0</ele><time>2026-03-22T09:02:15.027Z</time></trkpt><trkpt lat="44.229376700853685" lon="12.146711783764419"><ele>16.0</ele><time>2026-03-22T09:02:16.027Z</time></trkpt><trkpt lat="44.22925952443853" lon="12.147014826948626"><ele>16.0</ele><time>2026-03-22T09:02:17.027Z</time></trkpt><trkpt lat="44.2291505010567" lon="12.147326461176062"><ele>16.0</ele><time>2026-03-22T09:02:18.027Z</time></trkpt><trkpt lat="44.229049283545024" lon="12.147641386626715"><ele>16.0</ele><time>2026-03-22T09:02:19.027Z</time></trkpt><trkpt lat="44.22895029834063" lon="12.147960199161528"><ele>16.0</ele><time>2026-03-22T09:02:20.027Z</time></trkpt><trkpt lat="44.228858581046445" lon="12.14828552966882"><ele>16.0</ele><time>2026-03-22T09:02:21.027Z</time></trkpt><trkpt lat="44.22877329569078" lon="12.148614544033615"><ele>16.0</ele><time>2026-03-22T09:02:22.027Z</time></trkpt><trkpt lat="44.22869509093514" lon="12.148945438914117"><ele>17.5</ele><time>2026-03-22T09:02:23.027Z</time></trkpt><trkpt lat="44.22862301181726" lon="12.149273945895786"><ele>19.0</ele><time>2026-03-22T09:02:24.027Z</time></trkpt><trkpt lat="44.22855444431864" lon="12.149601136866016"><ele>18.5</ele><time>2026-03-22T09:02:25.027Z</time></trkpt><trkpt lat="44.228483233488994" lon="12.149929459723397"><ele>18.0</ele><time>2026-03-22T09:02:26.027Z</time></trkpt><trkpt lat="44.22840927963563" lon="12.15024801395055"><ele>18.0</ele><time>2026-03-22T09:02:27.027Z</time></trkpt><trkpt lat="44.228338116659" lon="12.15056767871369"><ele>18.0</ele><time>2026-03-22T09:02:28.027Z</time></trkpt><trkpt lat="44.22826915989465" lon="12.150881940980875"><ele>17.0</ele><time>2026-03-22T09:02:29.027Z</time></trkpt><trkpt lat="44.22819788175152" lon="12.15119218235683"><ele>16.0</ele><time>2026-03-22T09:02:30.027Z</time></trkpt><trkpt lat="44.22812871070872" lon="12.151506141710442"><ele>16.0</ele><time>2026-03-22T09:02:31.027Z</time></trkpt><trkpt lat="44.228060505686074" lon="12.151819160559773"><ele>16.0</ele><time>2026-03-22T09:02:32.027Z</time></trkpt><trkpt lat="44.227991906484185" lon="12.152130471483233"><ele>16.0</ele><time>2026-03-22T09:02:33.027Z</time></trkpt><trkpt lat="44.227923475853544" lon="12.15243944695566"><ele>16.0</ele><time>2026-03-22T09:02:34.027Z</time></trkpt><trkpt lat="44.22785539443326" lon="12.15274540908922"><ele>16.0</ele><time>2026-03-22T09:02:35.027Z</time></trkpt><trkpt lat="44.22778783158592" lon="12.15305892621709"><ele>16.0</ele><time>2026-03-22T09:02:36.025Z</time></trkpt><trkpt lat="44.22771436153098" lon="12.153371798315558"><ele>16.0</ele><time>2026-03-22T09:02:37.024Z</time></trkpt><trkpt lat="44.22764290383308" lon="12.15368789551851"><ele>16.0</ele><time>2026-03-22T09:02:38.023Z</time></trkpt><trkpt lat="44.22757284826125" lon="12.15400283067037"><ele>15.0</ele><time>2026-03-22T09:02:39.022Z</time></trkpt><trkpt lat="44.2275024808516" lon="12.15431402795902"><ele>14.0</ele><time>2026-03-22T09:02:40.021Z</time></trkpt><trkpt lat="44.22743002140042" lon="12.15462812620349"><ele>14.5</ele><time>2026-03-22T09:02:41.02Z</time></trkpt><trkpt lat="44.227359171223235" lon="12.154946515863362"><ele>15.0</ele><time>2026-03-22T09:02:42.019Z</time></trkpt><trkpt lat="44.22728698088722" lon="12.155255142455541"><ele>15.0</ele><time>2026-03-22T09:02:43.018Z</time></trkpt><trkpt lat="44.22720644967095" lon="12.155565119772236"><ele>15.0</ele><time>2026-03-22T09:02:44.017Z</time></trkpt><trkpt lat="44.22712315518604" lon="12.155873657312505"><ele>15.0</ele><time>2026-03-22T09:02:45.016Z</time></trkpt><trkpt lat="44.2270337417339" lon="12.156183003676757"><ele>15.0</ele><time>2026-03-22T09:02:46.016Z</time></trkpt><trkpt lat="44.22694142167059" lon="12.156491467295096"><ele>14.5</ele><time>2026-03-22T09:02:47.015Z</time></trkpt><trkpt lat="44.22684625220884" lon="12.156794108820481"><ele>14.0</ele><time>2026-03-22T09:02:48.014Z</time></trkpt><trkpt lat="44.226746986080855" lon="12.157094092973159"><ele>14.0</ele><time>2026-03-22T09:02:49.014Z</time></trkpt><trkpt lat="44.22664372091599" lon="12.157388600026414"><ele>14.0</ele><time>2026-03-22T09:02:50.013Z</time></trkpt><trkpt lat="44.22653753460872" lon="12.157677671290964"><ele>14.5</ele><time>2026-03-22T09:02:51.013Z</time></trkpt><trkpt lat="44.226432036476034" lon="12.157963017680741"><ele>15.0</ele><time>2026-03-22T09:02:52.012Z</time></trkpt><trkpt lat="44.22631807088498" lon="12.158247939449561"><ele>15.0</ele><time>2026-03-22T09:02:53.012Z</time></trkpt><trkpt lat="44.22620038918264" lon="12.158532059167412"><ele>15.0</ele><time>2026-03-22T09:02:54.011Z</time></trkpt><trkpt lat="44.22608082079315" lon="12.158813851022746"><ele>15.0</ele><time>2026-03-22T09:02:55.011Z</time></trkpt><trkpt lat="44.22595955350285" lon="12.159099504915899"><ele>15.0</ele><time>2026-03-22T09:02:56.01Z</time></trkpt><trkpt lat="44.225836680941086" lon="12.159386174649761"><ele>15.0</ele><time>2026-03-22T09:02:57.011Z</time></trkpt><trkpt lat="44.22571474340591" lon="12.159673120399175"><ele>15.0</ele><time>2026-03-22T09:02:58.01Z</time></trkpt><trkpt lat="44.22559348987633" lon="12.15996107938664"><ele>13.5</ele><time>2026-03-22T09:02:59.01Z</time></trkpt><trkpt lat="44.22547558009487" lon="12.160250481715627"><ele>12.0</ele><time>2026-03-22T09:03:00.01Z</time></trkpt><trkpt lat="44.22535588245613" lon="12.160536776177633"><ele>12.0</ele><time>2026-03-22T09:03:01.01Z</time></trkpt><trkpt lat="44.22523626412077" lon="12.160819311749572"><ele>12.0</ele><time>2026-03-22T09:03:02.009Z</time></trkpt><trkpt lat="44.22511496171127" lon="12.161103833143422"><ele>12.0</ele><time>2026-03-22T09:03:03.009Z</time></trkpt><trkpt lat="44.22499358197184" lon="12.161389674823267"><ele>12.0</ele><time>2026-03-22T09:03:04.008Z</time></trkpt><trkpt lat="44.22487349016773" lon="12.161678605708989"><ele>12.5</ele><time>2026-03-22T09:03:05.008Z</time></trkpt><trkpt lat="44.2247528729735" lon="12.161966558430322"><ele>13.0</ele><time>2026-03-22T09:03:06.008Z</time></trkpt><trkpt lat="44.224630988530635" lon="12.162253840146787"><ele>13.0</ele><time>2026-03-22T09:03:07.007Z</time></trkpt><trkpt lat="44.22451126546101" lon="12.162538352303972"><ele>13.0</ele><time>2026-03-22T09:03:08.007Z</time></trkpt><trkpt lat="44.22439168718376" lon="12.162824101759306"><ele>13.0</ele><time>2026-03-22T09:03:09.007Z</time></trkpt><trkpt lat="44.224273209653084" lon="12.16311205769729"><ele>13.0</ele><time>2026-03-22T09:03:10.007Z</time></trkpt><trkpt lat="44.224152208962856" lon="12.163402409951978"><ele>13.5</ele><time>2026-03-22T09:03:11.007Z</time></trkpt><trkpt lat="44.22403297785466" lon="12.163692250710175"><ele>14.0</ele><time>2026-03-22T09:03:12.007Z</time></trkpt><trkpt lat="44.22391169775547" lon="12.163980808477199"><ele>13.5</ele><time>2026-03-22T09:03:13.007Z</time></trkpt><trkpt lat="44.223791264510986" lon="12.164265528849894"><ele>13.0</ele><time>2026-03-22T09:03:14.006Z</time></trkpt><trkpt lat="44.22366990078766" lon="12.164547777839097"><ele>13.0</ele><time>2026-03-22T09:03:15.006Z</time></trkpt><trkpt lat="44.22354959504607" lon="12.164833535489315"><ele>13.0</ele><time>2026-03-22T09:03:16.006Z</time></trkpt><trkpt lat="44.223430092795326" lon="12.165118828165825"><ele>13.0</ele><time>2026-03-22T09:03:17.006Z</time></trkpt><trkpt lat="44.22331014309329" lon="12.16540499731832"><ele>13.0</ele><time>2026-03-22T09:03:18.006Z</time></trkpt><trkpt lat="44.22319063443701" lon="12.165691440587453"><ele>12.5</ele><time>2026-03-22T09:03:19.006Z</time></trkpt><trkpt lat="44.223070634013446" lon="12.165976682985136"><ele>12.0</ele><time>2026-03-22T09:03:20.006Z</time></trkpt><trkpt lat="44.22295138708397" lon="12.166262387052875"><ele>12.5</ele><time>2026-03-22T09:03:21.006Z</time></trkpt><trkpt lat="44.2228326059275" lon="12.166549767061898"><ele>13.0</ele><time>2026-03-22T09:03:22.006Z</time></trkpt><trkpt lat="44.22271548770572" lon="12.166832827315572"><ele>13.0</ele><time>2026-03-22T09:03:23.006Z</time></trkpt><trkpt lat="44.22260023426518" lon="12.167112861513198"><ele>13.0</ele><time>2026-03-22T09:03:24.006Z</time></trkpt><trkpt lat="44.222483087214265" lon="12.167388383364868"><ele>14.0</ele><time>2026-03-22T09:03:25.006Z</time></trkpt><trkpt lat="44.22236575139405" lon="12.167664073704007"><ele>15.0</ele><time>2026-03-22T09:03:26.005Z</time></trkpt><trkpt lat="44.22224810145817" lon="12.167941820797134"><ele>16.0</ele><time>2026-03-22T09:03:27.005Z</time></trkpt><trkpt lat="44.22213017725089" lon="12.168221487323272"><ele>17.0</ele><time>2026-03-22T09:03:28.005Z</time></trkpt><trkpt lat="44.22200938731358" lon="12.168496322453102"><ele>17.0</ele><time>2026-03-22T09:03:29.005Z</time></trkpt><trkpt lat="44.22189103533655" lon="12.168773512313388"><ele>17.0</ele><time>2026-03-22T09:03:30.005Z</time></trkpt><trkpt lat="44.221769109424386" lon="12.16904512922727"><ele>16.5</ele><time>2026-03-22T09:03:31.005Z</time></trkpt><trkpt lat="44.22164512623975" lon="12.169314211182535"><ele>16.0</ele><time>2026-03-22T09:03:32.005Z</time></trkpt><trkpt lat="44.22152299666596" lon="12.169577235235312"><ele>16.0</ele><time>2026-03-22T09:03:33.005Z</time></trkpt><trkpt lat="44.22139759932334" lon="12.169837443949978"><ele>16.0</ele><time>2026-03-22T09:03:34.005Z</time></trkpt><trkpt lat="44.221267616123185" lon="12.170094658354682"><ele>15.5</ele><time>2026-03-22T09:03:35.005Z</time></trkpt><trkpt lat="44.221135700743524" lon="12.17035087173714"><ele>15.0</ele><time>2026-03-22T09:03:36.005Z</time></trkpt><trkpt lat="44.221000230501915" lon="12.170602122674548"><ele>15.0</ele><time>2026-03-22T09:03:37.005Z</time></trkpt><trkpt lat="44.220863002448354" lon="12.170853521753154"><ele>15.0</ele><time>2026-03-22T09:03:38.005Z</time></trkpt><trkpt lat="44.22073248523634" lon="12.171085627379988"><ele>15.0</ele><time>2026-03-22T09:03:39.005Z</time></trkpt><trkpt lat="44.22060733261556" lon="12.171306646823203"><ele>14.333333333333332</ele><time>2026-03-22T09:03:40.005Z</time></trkpt><trkpt lat="44.22048236979619" lon="12.171522726261832"><ele>13.666666666666666</ele><time>2026-03-22T09:03:41.005Z</time></trkpt><trkpt lat="44.22035244149411" lon="12.171740732769452"><ele>13.0</ele><time>2026-03-22T09:03:42.005Z</time></trkpt><trkpt lat="44.22021901862679" lon="12.171959154328823"><ele>13.0</ele><time>2026-03-22T09:03:43.005Z</time></trkpt><trkpt lat="44.220080623299495" lon="12.172180156120577"><ele>13.0</ele><time>2026-03-22T09:03:44.005Z</time></trkpt><trkpt lat="44.21994094466182" lon="12.172407409695012"><ele>13.0</ele><time>2026-03-22T09:03:45.005Z</time></trkpt><trkpt lat="44.21979764475739" lon="12.172635383597335"><ele>13.666666666666666</ele><time>2026-03-22T09:03:46.005Z</time></trkpt><trkpt lat="44.21965520295219" lon="12.172859138368874"><ele>14.333333333333332</ele><time>2026-03-22T09:03:47.005Z</time></trkpt><trkpt lat="44.21952018203713" lon="12.173075649463915"><ele>15.0</ele><time>2026-03-22T09:03:48.005Z</time></trkpt><trkpt lat="44.219386835728486" lon="12.173289071309624"><ele>15.0</ele><time>2026-03-22T09:03:49.005Z</time></trkpt><trkpt lat="44.2192578999021" lon="12.173500185285965"><ele>15.0</ele><time>2026-03-22T09:03:50.005Z</time></trkpt><trkpt lat="44.21912659687771" lon="12.173711623927703"><ele>15.0</ele><time>2026-03-22T09:03:51.005Z</time></trkpt><trkpt lat="44.2189954462538" lon="12.173922522756174"><ele>15.0</ele><time>2026-03-22T09:03:52.005Z</time></trkpt><trkpt lat="44.21886498776302" lon="12.17413545052438"><ele>15.0</ele><time>2026-03-22T09:03:53.005Z</time></trkpt><trkpt lat="44.21873209982334" lon="12.174346411747344"><ele>15.0</ele><time>2026-03-22T09:03:54.005Z</time></trkpt><trkpt lat="44.21859904438683" lon="12.174558724618173"><ele>15.0</ele><time>2026-03-22T09:03:55.005Z</time></trkpt><trkpt lat="44.21846654034327" lon="12.174776487187962"><ele>15.0</ele><time>2026-03-22T09:03:56.005Z</time></trkpt><trkpt lat="44.218330553983854" lon="12.174994215123624"><ele>15.0</ele><time>2026-03-22T09:03:57.005Z</time></trkpt><trkpt lat="44.21819483946519" lon="12.175213465402567"><ele>15.333333333333332</ele><time>2026-03-22T09:03:58.005Z</time></trkpt><trkpt lat="44.218061166544" lon="12.175432119412367"><ele>15.666666666666666</ele><time>2026-03-22T09:03:59.005Z</time></trkpt><trkpt lat="44.21792761654832" lon="12.17564792734132"><ele>16.0</ele><time>2026-03-22T09:04:00.005Z</time></trkpt><trkpt lat="44.217798085002904" lon="12.175857573141787"><ele>16.0</ele><time>2026-03-22T09:04:01.005Z</time></trkpt><trkpt lat="44.2176769274094" lon="12.176055367202297"><ele>16.0</ele><time>2026-03-22T09:04:02.005Z</time></trkpt><trkpt lat="44.21755501021972" lon="12.176253432995885"><ele>16.0</ele><time>2026-03-22T09:04:03.005Z</time></trkpt><trkpt lat="44.21743004047323" lon="12.176454588272756"><ele>16.0</ele><time>2026-03-22T09:04:04.005Z</time></trkpt><trkpt lat="44.21730355654788" lon="12.176661848479435"><ele>16.0</ele><time>2026-03-22T09:04:05.005Z</time></trkpt><trkpt lat="44.217175215125486" lon="12.176870518228606"><ele>16.0</ele><time>2026-03-22T09:04:06.005Z</time></trkpt><trkpt lat="44.217046997685834" lon="12.177081028165578"><ele>16.0</ele><time>2026-03-22T09:04:07.005Z</time></trkpt><trkpt lat="44.216917524566924" lon="12.177290308700893"><ele>16.0</ele><time>2026-03-22T09:04:08.005Z</time></trkpt><trkpt lat="44.216788106667096" lon="12.177498993157283"><ele>16.0</ele><time>2026-03-22T09:04:09.005Z</time></trkpt><trkpt lat="44.216660144179016" lon="12.177708315860711"><ele>16.0</ele><time>2026-03-22T09:04:10.005Z</time></trkpt><trkpt lat="44.21653083090254" lon="12.17791940002913"><ele>16.0</ele><time>2026-03-22T09:04:11.004Z</time></trkpt><trkpt lat="44.216399532284676" lon="12.178135107315589"><ele>16.0</ele><time>2026-03-22T09:04:12.004Z</time></trkpt><trkpt lat="44.21626413340441" lon="12.17835278642597"><ele>16.0</ele><time>2026-03-22T09:04:13.004Z</time></trkpt><trkpt lat="44.21612785746801" lon="12.178572233628499"><ele>16.0</ele><time>2026-03-22T09:04:14.004Z</time></trkpt><trkpt lat="44.215990623913456" lon="12.178793845231777"><ele>16.0</ele><time>2026-03-22T09:04:15.004Z</time></trkpt><trkpt lat="44.21585264128452" lon="12.179020319399193"><ele>15.666666666666666</ele><time>2026-03-22T09:04:16.004Z</time></trkpt><trkpt lat="44.21571323198462" lon="12.17924517429089"><ele>15.333333333333332</ele><time>2026-03-22T09:04:17.004Z</time></trkpt><trkpt lat="44.21557626598371" lon="12.17946815278165"><ele>15.0</ele><time>2026-03-22T09:04:18.004Z</time></trkpt><trkpt lat="44.21543460690054" lon="12.17969620293139"><ele>15.333333333333332</ele><time>2026-03-22T09:04:19.004Z</time></trkpt><trkpt lat="44.21529468124979" lon="12.179922180097535"><ele>15.666666666666666</ele><time>2026-03-22T09:04:20.004Z</time></trkpt><trkpt lat="44.21515222509938" lon="12.180153196601328"><ele>16.0</ele><time>2026-03-22T09:04:21.004Z</time></trkpt><trkpt lat="44.215006568992884" lon="12.180388076401682"><ele>16.0</ele><time>2026-03-22T09:04:22.004Z</time></trkpt><trkpt lat="44.214860284954405" lon="12.180621277188298"><ele>16.0</ele><time>2026-03-22T09:04:23.004Z</time></trkpt><trkpt lat="44.21471465570815" lon="12.180854224503134"><ele>16.0</ele><time>2026-03-22T09:04:24.004Z</time></trkpt><trkpt lat="44.21457049261485" lon="12.18108961800122"><ele>16.0</ele><time>2026-03-22T09:04:25.004Z</time></trkpt><trkpt lat="44.21442420992936" lon="12.181326700740883"><ele>16.0</ele><time>2026-03-22T09:04:26.004Z</time></trkpt><trkpt lat="44.2142773065548" lon="12.181563168406194"><ele>16.0</ele><time>2026-03-22T09:04:27.004Z</time></trkpt><trkpt lat="44.21412799400876" lon="12.181799954552055"><ele>15.5</ele><time>2026-03-22T09:04:28.004Z</time></trkpt><trkpt lat="44.21397842505415" lon="12.182035720779979"><ele>15.0</ele><time>2026-03-22T09:04:29.004Z</time></trkpt><trkpt lat="44.213829077035804" lon="12.182270220913171"><ele>15.333333333333332</ele><time>2026-03-22T09:04:30.004Z</time></trkpt><trkpt lat="44.21368315651479" lon="12.182509270427417"><ele>15.666666666666666</ele><time>2026-03-22T09:04:31.004Z</time></trkpt><trkpt lat="44.213537283332705" lon="12.182746209690913"><ele>16.0</ele><time>2026-03-22T09:04:32.004Z</time></trkpt><trkpt lat="44.2133955975839" lon="12.182980510267754"><ele>15.666666666666666</ele><time>2026-03-22T09:04:33.004Z</time></trkpt><trkpt lat="44.213256767398946" lon="12.18320933260121"><ele>15.333333333333332</ele><time>2026-03-22T09:04:34.004Z</time></trkpt><trkpt lat="44.213115722833656" lon="12.183438130407886"><ele>15.0</ele><time>2026-03-22T09:04:35.004Z</time></trkpt><trkpt lat="44.2129714974553" lon="12.183672021002941"><ele>15.666666666666668</ele><time>2026-03-22T09:04:36.004Z</time></trkpt><trkpt lat="44.212825249180355" lon="12.183908085206184"><ele>16.333333333333336</ele><time>2026-03-22T09:04:37.004Z</time></trkpt><trkpt lat="44.21267958909979" lon="12.184140035814512"><ele>17.0</ele><time>2026-03-22T09:04:38.004Z</time></trkpt><trkpt lat="44.21253478918517" lon="12.184375608145144"><ele>17.0</ele><time>2026-03-22T09:04:39.004Z</time></trkpt><trkpt lat="44.21239138018465" lon="12.184607532652167"><ele>17.0</ele><time>2026-03-22T09:04:40.004Z</time></trkpt><trkpt lat="44.212245152307005" lon="12.184843575302166"><ele>17.0</ele><time>2026-03-22T09:04:41.004Z</time></trkpt><trkpt lat="44.21210012480935" lon="12.185075023142138"><ele>17.0</ele><time>2026-03-22T09:04:42.004Z</time></trkpt><trkpt lat="44.21195407406012" lon="12.185308233677246"><ele>17.0</ele><time>2026-03-22T09:04:43.004Z</time></trkpt><trkpt lat="44.211807999627375" lon="12.185542296164813"><ele>17.0</ele><time>2026-03-22T09:04:44.004Z</time></trkpt><trkpt lat="44.21166136792319" lon="12.18577735843015"><ele>17.0</ele><time>2026-03-22T09:04:45.004Z</time></trkpt><trkpt lat="44.211516430818364" lon="12.186015681153252"><ele>17.0</ele><time>2026-03-22T09:04:46.004Z</time></trkpt><trkpt lat="44.21137076704177" lon="12.186254928114653"><ele>17.0</ele><time>2026-03-22T09:04:47.004Z</time></trkpt><trkpt lat="44.211224372091664" lon="12.186494096686607"><ele>16.666666666666668</ele><time>2026-03-22T09:04:48.004Z</time></trkpt><trkpt lat="44.211079933846236" lon="12.186731616610569"><ele>16.333333333333332</ele><time>2026-03-22T09:04:49.004Z</time></trkpt><trkpt lat="44.210931469367075" lon="12.186966047453874"><ele>16.0</ele><time>2026-03-22T09:04:50.004Z</time></trkpt><trkpt lat="44.21078502253" lon="12.187204466843522"><ele>17.0</ele><time>2026-03-22T09:04:51.004Z</time></trkpt><trkpt lat="44.21063796974136" lon="12.187441353716258"><ele>18.0</ele><time>2026-03-22T09:04:52.004Z</time></trkpt><trkpt lat="44.21049204507216" lon="12.187683989751184"><ele>18.0</ele><time>2026-03-22T09:04:53.004Z</time></trkpt><trkpt lat="44.21034749759217" lon="12.18792333527658"><ele>18.0</ele><time>2026-03-22T09:04:54.004Z</time></trkpt><trkpt lat="44.21020161246333" lon="12.188159286680078"><ele>18.0</ele><time>2026-03-22T09:04:55.004Z</time></trkpt><trkpt lat="44.21005633430317" lon="12.188394849514046"><ele>18.0</ele><time>2026-03-22T09:04:56.004Z</time></trkpt><trkpt lat="44.20991252746485" lon="12.188627705920377"><ele>18.0</ele><time>2026-03-22T09:04:57.005Z</time></trkpt><trkpt lat="44.20976806158189" lon="12.188858963706295"><ele>18.0</ele><time>2026-03-22T09:04:58.005Z</time></trkpt><trkpt lat="44.20962297587725" lon="12.189088790312674"><ele>18.0</ele><time>2026-03-22T09:04:59.005Z</time></trkpt><trkpt lat="44.20948211071088" lon="12.18932160241257"><ele>18.0</ele><time>2026-03-22T09:05:00.005Z</time></trkpt><trkpt lat="44.2093399850335" lon="12.18955853785141"><ele>18.0</ele><time>2026-03-22T09:05:01.005Z</time></trkpt><trkpt lat="44.20920309462445" lon="12.189800733337298"><ele>18.333333333333332</ele><time>2026-03-22T09:05:02.005Z</time></trkpt><trkpt lat="44.209065602628165" lon="12.190047081281485"><ele>18.666666666666664</ele><time>2026-03-22T09:05:03.005Z</time></trkpt><trkpt lat="44.20892939569371" lon="12.19029119745275"><ele>19.0</ele><time>2026-03-22T09:05:04.006Z</time></trkpt><trkpt lat="44.208797327933915" lon="12.190542915091346"><ele>18.666666666666664</ele><time>2026-03-22T09:05:05.006Z</time></trkpt><trkpt lat="44.20866474989867" lon="12.190794805727604"><ele>18.333333333333332</ele><time>2026-03-22T09:05:06.005Z</time></trkpt><trkpt lat="44.20853809351761" lon="12.191048917099097"><ele>18.0</ele><time>2026-03-22T09:05:07.006Z</time></trkpt><trkpt lat="44.2084112080834" lon="12.191300472650491"><ele>18.0</ele><time>2026-03-22T09:05:08.006Z</time></trkpt><trkpt lat="44.20828663008666" lon="12.191556724775527"><ele>18.0</ele><time>2026-03-22T09:05:09.005Z</time></trkpt><trkpt lat="44.208162075061196" lon="12.191816341626035"><ele>18.0</ele><time>2026-03-22T09:05:10.005Z</time></trkpt><trkpt lat="44.20804106317152" lon="12.19208063895069"><ele>18.0</ele><time>2026-03-22T09:05:11.005Z</time></trkpt><trkpt lat="44.207922566064475" lon="12.192348707943747"><ele>18.0</ele><time>2026-03-22T09:05:12.005Z</time></trkpt><trkpt lat="44.20780580269878" lon="12.192612016863821"><ele>18.0</ele><time>2026-03-22T09:05:13.005Z</time></trkpt><trkpt lat="44.207694394959375" lon="12.192880096052312"><ele>18.0</ele><time>2026-03-22T09:05:14.005Z</time></trkpt><trkpt lat="44.207588081605074" lon="12.193150285783162"><ele>18.0</ele><time>2026-03-22T09:05:15.005Z</time></trkpt><trkpt lat="44.20747993683878" lon="12.193422487449533"><ele>18.0</ele><time>2026-03-22T09:05:16.005Z</time></trkpt><trkpt lat="44.207372762067905" lon="12.193697895743902"><ele>18.5</ele><time>2026-03-22T09:05:17.005Z</time></trkpt><trkpt lat="44.207268744219505" lon="12.193981937539004"><ele>19.0</ele><time>2026-03-22T09:05:18.005Z</time></trkpt><trkpt lat="44.20715870755749" lon="12.194271995005357"><ele>19.0</ele><time>2026-03-22T09:05:19.005Z</time></trkpt><trkpt lat="44.20704424671854" lon="12.194565312979913"><ele>19.0</ele><time>2026-03-22T09:05:20.005Z</time></trkpt><trkpt lat="44.20692663544482" lon="12.19486288918809"><ele>19.5</ele><time>2026-03-22T09:05:21.005Z</time></trkpt><trkpt lat="44.20680864657741" lon="12.19515746334779"><ele>20.0</ele><time>2026-03-22T09:05:22.005Z</time></trkpt><trkpt lat="44.20669642125629" lon="12.195449094935068"><ele>20.0</ele><time>2026-03-22T09:05:23.005Z</time></trkpt><trkpt lat="44.20658471473009" lon="12.195734065272182"><ele>20.0</ele><time>2026-03-22T09:05:24.005Z</time></trkpt><trkpt lat="44.20647817445087" lon="12.19601726144269"><ele>19.0</ele><time>2026-03-22T09:05:25.005Z</time></trkpt><trkpt lat="44.206365180522106" lon="12.196305685691017"><ele>18.0</ele><time>2026-03-22T09:05:26.005Z</time></trkpt><trkpt lat="44.20625381893833" lon="12.196595769037922"><ele>18.0</ele><time>2026-03-22T09:05:27.005Z</time></trkpt><trkpt lat="44.20614422802972" lon="12.196886757343055"><ele>18.0</ele><time>2026-03-22T09:05:28.005Z</time></trkpt><trkpt lat="44.20603158759521" lon="12.197171588093926"><ele>18.0</ele><time>2026-03-22T09:05:29.005Z</time></trkpt><trkpt lat="44.20591999246006" lon="12.197463623774212"><ele>18.0</ele><time>2026-03-22T09:05:30.005Z</time></trkpt><trkpt lat="44.20580642233829" lon="12.19775400192019"><ele>18.0</ele><time>2026-03-22T09:05:31.005Z</time></trkpt><trkpt lat="44.205689323052965" lon="12.198042710017223"><ele>18.0</ele><time>2026-03-22T09:05:32.005Z</time></trkpt><trkpt lat="44.205577131171275" lon="12.198332067181333"><ele>17.0</ele><time>2026-03-22T09:05:33.005Z</time></trkpt><trkpt lat="44.20546591377488" lon="12.198621464407788"><ele>16.0</ele><time>2026-03-22T09:05:34.005Z</time></trkpt><trkpt lat="44.20535893953228" lon="12.198910201044278"><ele>17.0</ele><time>2026-03-22T09:05:35.005Z</time></trkpt><trkpt lat="44.205252069373266" lon="12.199195801501178"><ele>18.0</ele><time>2026-03-22T09:05:36.005Z</time></trkpt><trkpt lat="44.205144334254655" lon="12.199481586685339"><ele>18.0</ele><time>2026-03-22T09:05:37.005Z</time></trkpt><trkpt lat="44.20503314885266" lon="12.199761928970966"><ele>18.0</ele><time>2026-03-22T09:05:38.005Z</time></trkpt><trkpt lat="44.20492461260387" lon="12.2000402863291"><ele>18.0</ele><time>2026-03-22T09:05:39.005Z</time></trkpt><trkpt lat="44.204813400938356" lon="12.2003192274932"><ele>18.0</ele><time>2026-03-22T09:05:40.005Z</time></trkpt><trkpt lat="44.204707599783696" lon="12.200595316150974"><ele>17.0</ele><time>2026-03-22T09:05:41.005Z</time></trkpt><trkpt lat="44.20460119247189" lon="12.20087352484323"><ele>16.0</ele><time>2026-03-22T09:05:42.005Z</time></trkpt><trkpt lat="44.20449592937666" lon="12.201154571338362"><ele>16.0</ele><time>2026-03-22T09:05:43.005Z</time></trkpt><trkpt lat="44.20438971797175" lon="12.201435031167827"><ele>16.0</ele><time>2026-03-22T09:05:44.005Z</time></trkpt><trkpt lat="44.20428136592868" lon="12.201713824402894"><ele>16.666666666666664</ele><time>2026-03-22T09:05:45.005Z</time></trkpt><trkpt lat="44.20417742118034" lon="12.201991661043277"><ele>17.333333333333332</ele><time>2026-03-22T09:05:46.005Z</time></trkpt><trkpt lat="44.20407274313194" lon="12.202268740877383"><ele>18.0</ele><time>2026-03-22T09:05:47.005Z</time></trkpt><trkpt lat="44.20396427782683" lon="12.202548193424553"><ele>18.0</ele><time>2026-03-22T09:05:48.005Z</time></trkpt><trkpt lat="44.20385595862594" lon="12.202824775717989"><ele>18.0</ele><time>2026-03-22T09:05:49.005Z</time></trkpt><trkpt lat="44.20374657648747" lon="12.20310118608124"><ele>18.0</ele><time>2026-03-22T09:05:50.005Z</time></trkpt><trkpt lat="44.2036405341109" lon="12.203377762747905"><ele>18.0</ele><time>2026-03-22T09:05:51.005Z</time></trkpt><trkpt lat="44.20353447208789" lon="12.203652528442719"><ele>18.0</ele><time>2026-03-22T09:05:52.005Z</time></trkpt><trkpt lat="44.20342987552969" lon="12.203926339281006"><ele>18.0</ele><time>2026-03-22T09:05:53.005Z</time></trkpt><trkpt lat="44.2033256283796" lon="12.204197259300557"><ele>18.0</ele><time>2026-03-22T09:05:54.005Z</time></trkpt><trkpt lat="44.203219889615966" lon="12.204467043418097"><ele>18.0</ele><time>2026-03-22T09:05:55.005Z</time></trkpt><trkpt lat="44.203115564963056" lon="12.204734579162423"><ele>18.0</ele><time>2026-03-22T09:05:56.005Z</time></trkpt><trkpt lat="44.203011193187" lon="12.205004622558189"><ele>18.0</ele><time>2026-03-22T09:05:57.005Z</time></trkpt><trkpt lat="44.202906205677806" lon="12.205277700228658"><ele>18.0</ele><time>2026-03-22T09:05:58.005Z</time></trkpt><trkpt lat="44.20280382541056" lon="12.205549392211289"><ele>18.333333333333332</ele><time>2026-03-22T09:05:59.005Z</time></trkpt><trkpt lat="44.20269958535873" lon="12.205819082814825"><ele>18.666666666666664</ele><time>2026-03-22T09:06:00.005Z</time></trkpt><trkpt lat="44.2025939722994" lon="12.206093431995495"><ele>19.0</ele><time>2026-03-22T09:06:01.005Z</time></trkpt><trkpt lat="44.20248659109661" lon="12.206370358460607"><ele>19.5</ele><time>2026-03-22T09:06:02.005Z</time></trkpt><trkpt lat="44.202380406553324" lon="12.206645431195398"><ele>20.0</ele><time>2026-03-22T09:06:03.005Z</time></trkpt><trkpt lat="44.2022726991952" lon="12.206925610983392"><ele>20.0</ele><time>2026-03-22T09:06:04.005Z</time></trkpt><trkpt lat="44.20216665686883" lon="12.207202448178528"><ele>20.0</ele><time>2026-03-22T09:06:05.005Z</time></trkpt><trkpt lat="44.20206030769443" lon="12.207476668318442"><ele>20.0</ele><time>2026-03-22T09:06:06.005Z</time></trkpt><trkpt lat="44.201952984679714" lon="12.207751532019532"><ele>19.666666666666668</ele><time>2026-03-22T09:06:07.005Z</time></trkpt><trkpt lat="44.20184716023994" lon="12.208022796421854"><ele>19.333333333333332</ele><time>2026-03-22T09:06:08.005Z</time></trkpt><trkpt lat="44.20174325274402" lon="12.208295035296203"><ele>19.0</ele><time>2026-03-22T09:06:09.005Z</time></trkpt><trkpt lat="44.20164150615854" lon="12.208562836930227"><ele>19.0</ele><time>2026-03-22T09:06:10.005Z</time></trkpt><trkpt lat="44.20153844139232" lon="12.208828262894944"><ele>19.0</ele><time>2026-03-22T09:06:11.005Z</time></trkpt><trkpt lat="44.201434520883446" lon="12.209092899640419"><ele>19.0</ele><time>2026-03-22T09:06:12.005Z</time></trkpt><trkpt lat="44.20133065750912" lon="12.209355215186125"><ele>19.0</ele><time>2026-03-22T09:06:13.005Z</time></trkpt><trkpt lat="44.20123317257182" lon="12.209622331924313"><ele>19.0</ele><time>2026-03-22T09:06:14.005Z</time></trkpt><trkpt lat="44.201126185378605" lon="12.209886206210989"><ele>19.0</ele><time>2026-03-22T09:06:15.005Z</time></trkpt><trkpt lat="44.20102708831691" lon="12.210144819195882"><ele>19.333333333333332</ele><time>2026-03-22T09:06:16.005Z</time></trkpt><trkpt lat="44.20092651027232" lon="12.210408836239061"><ele>19.666666666666668</ele><time>2026-03-22T09:06:17.005Z</time></trkpt><trkpt lat="44.20082327073736" lon="12.210677114251975"><ele>20.0</ele><time>2026-03-22T09:06:18.005Z</time></trkpt><trkpt lat="44.2007172173463" lon="12.21095469371465"><ele>20.0</ele><time>2026-03-22T09:06:19.005Z</time></trkpt><trkpt lat="44.20061186744617" lon="12.211226283680142"><ele>20.0</ele><time>2026-03-22T09:06:20.005Z</time></trkpt><trkpt lat="44.20050081210341" lon="12.211504583558169"><ele>20.0</ele><time>2026-03-22T09:06:21.005Z</time></trkpt><trkpt lat="44.20038831924376" lon="12.211787330151589"><ele>20.0</ele><time>2026-03-22T09:06:22.005Z</time></trkpt><trkpt lat="44.20027705495429" lon="12.212075256049184"><ele>20.0</ele><time>2026-03-22T09:06:23.005Z</time></trkpt><trkpt lat="44.20016787330753" lon="12.212357790839233"><ele>20.0</ele><time>2026-03-22T09:06:24.005Z</time></trkpt><trkpt lat="44.20006257655761" lon="12.212632915162631"><ele>20.0</ele><time>2026-03-22T09:06:25.005Z</time></trkpt><trkpt lat="44.19995971349997" lon="12.21289954400767"><ele>20.0</ele><time>2026-03-22T09:06:26.005Z</time></trkpt><trkpt lat="44.19986064115668" lon="12.21316145294624"><ele>20.0</ele><time>2026-03-22T09:06:27.005Z</time></trkpt><trkpt lat="44.199759552355154" lon="12.213424451386919"><ele>19.666666666666668</ele><time>2026-03-22T09:06:28.005Z</time></trkpt><trkpt lat="44.199659040566196" lon="12.213687627161855"><ele>19.333333333333332</ele><time>2026-03-22T09:06:29.005Z</time></trkpt><trkpt lat="44.19955546792354" lon="12.213954426143854"><ele>19.0</ele><time>2026-03-22T09:06:30.005Z</time></trkpt><trkpt lat="44.1994529755202" lon="12.214228279917805"><ele>19.0</ele><time>2026-03-22T09:06:31.005Z</time></trkpt><trkpt lat="44.19934672709224" lon="12.214496382288027"><ele>19.0</ele><time>2026-03-22T09:06:32.005Z</time></trkpt><trkpt lat="44.19924207353029" lon="12.214764934475204"><ele>19.0</ele><time>2026-03-22T09:06:33.005Z</time></trkpt><trkpt lat="44.19913694641995" lon="12.215031794149503"><ele>19.0</ele><time>2026-03-22T09:06:34.005Z</time></trkpt><trkpt lat="44.19903338029691" lon="12.215300045661438"><ele>19.0</ele><time>2026-03-22T09:06:35.005Z</time></trkpt><trkpt lat="44.19893090966652" lon="12.215570030852925"><ele>19.0</ele><time>2026-03-22T09:06:36.005Z</time></trkpt><trkpt lat="44.19882411203383" lon="12.215847845967689"><ele>19.666666666666664</ele><time>2026-03-22T09:06:37.005Z</time></trkpt><trkpt lat="44.198717221432965" lon="12.21612294306811"><ele>20.333333333333332</ele><time>2026-03-22T09:06:38.005Z</time></trkpt><trkpt lat="44.198612333842654" lon="12.216391302986802"><ele>21.0</ele><time>2026-03-22T09:06:39.005Z</time></trkpt><trkpt lat="44.198505514012574" lon="12.216661635042298"><ele>21.333333333333332</ele><time>2026-03-22T09:06:40.005Z</time></trkpt><trkpt lat="44.1984005300295" lon="12.216936336906821"><ele>21.666666666666664</ele><time>2026-03-22T09:06:41.005Z</time></trkpt><trkpt lat="44.19829228736048" lon="12.217210355838859"><ele>22.0</ele><time>2026-03-22T09:06:42.005Z</time></trkpt><trkpt lat="44.198185625455004" lon="12.217484203837671"><ele>21.0</ele><time>2026-03-22T09:06:43.005Z</time></trkpt><trkpt lat="44.198076622285114" lon="12.217762105572863"><ele>20.0</ele><time>2026-03-22T09:06:44.005Z</time></trkpt><trkpt lat="44.197963901941606" lon="12.218041418841016"><ele>20.0</ele><time>2026-03-22T09:06:45.005Z</time></trkpt><trkpt lat="44.19785343410865" lon="12.218314776633308"><ele>20.0</ele><time>2026-03-22T09:06:46.005Z</time></trkpt><trkpt lat="44.197742620745764" lon="12.21858588091399"><ele>20.0</ele><time>2026-03-22T09:06:47.005Z</time></trkpt><trkpt lat="44.19763394657074" lon="12.218855030447214"><ele>20.333333333333336</ele><time>2026-03-22T09:06:48.005Z</time></trkpt><trkpt lat="44.197524497488885" lon="12.219119523164315"><ele>20.666666666666668</ele><time>2026-03-22T09:06:49.005Z</time></trkpt><trkpt lat="44.19741470807967" lon="12.219381574201833"><ele>21.0</ele><time>2026-03-22T09:06:50.005Z</time></trkpt><trkpt lat="44.19730876055743" lon="12.219643237632118"><ele>22.0</ele><time>2026-03-22T09:06:51.005Z</time></trkpt><trkpt lat="44.197201789192796" lon="12.21990628975889"><ele>23.0</ele><time>2026-03-22T09:06:52.005Z</time></trkpt><trkpt lat="44.19708909238244" lon="12.22017094663953"><ele>24.0</ele><time>2026-03-22T09:06:53.005Z</time></trkpt><trkpt lat="44.19698104956094" lon="12.220436474946462"><ele>23.666666666666668</ele><time>2026-03-22T09:06:54.005Z</time></trkpt><trkpt lat="44.196867564035756" lon="12.220702819714985"><ele>23.333333333333336</ele><time>2026-03-22T09:06:55.005Z</time></trkpt><trkpt lat="44.19675951194417" lon="12.220966745408736"><ele>23.0</ele><time>2026-03-22T09:06:56.005Z</time></trkpt><trkpt lat="44.1966495109553" lon="12.221235655703387"><ele>22.666666666666668</ele><time>2026-03-22T09:06:57.005Z</time></trkpt><trkpt lat="44.1965378018142" lon="12.221505622916563"><ele>22.333333333333332</ele><time>2026-03-22T09:06:58.005Z</time></trkpt><trkpt lat="44.1964240385547" lon="12.221771683710331"><ele>22.0</ele><time>2026-03-22T09:06:59.005Z</time></trkpt><trkpt lat="44.196313494224896" lon="12.22204103638451"><ele>21.666666666666664</ele><time>2026-03-22T09:07:00.005Z</time></trkpt><trkpt lat="44.196197931421274" lon="12.22230714400476"><ele>21.333333333333332</ele><time>2026-03-22T09:07:01.005Z</time></trkpt><trkpt lat="44.196083282446715" lon="12.222574297435699"><ele>21.0</ele><time>2026-03-22T09:07:02.005Z</time></trkpt><trkpt lat="44.19597151731281" lon="12.222848001534167"><ele>21.0</ele><time>2026-03-22T09:07:03.004Z</time></trkpt><trkpt lat="44.195851765225775" lon="12.223123453095777"><ele>21.0</ele><time>2026-03-22T09:07:04.005Z</time></trkpt><trkpt lat="44.19573878204367" lon="12.223400961958442"><ele>21.5</ele><time>2026-03-22T09:07:05.005Z</time></trkpt><trkpt lat="44.19562018826729" lon="12.223673888642553"><ele>22.0</ele><time>2026-03-22T09:07:06.005Z</time></trkpt><trkpt lat="44.19550491006985" lon="12.223953024987757"><ele>23.0</ele><time>2026-03-22T09:07:07.005Z</time></trkpt><trkpt lat="44.19539081910319" lon="12.224229743584985"><ele>24.0</ele><time>2026-03-22T09:07:08.005Z</time></trkpt><trkpt lat="44.195276774030134" lon="12.224506163424234"><ele>24.0</ele><time>2026-03-22T09:07:09.005Z</time></trkpt><trkpt lat="44.195161093674336" lon="12.22477763937303"><ele>24.0</ele><time>2026-03-22T09:07:10.005Z</time></trkpt><trkpt lat="44.19505363132669" lon="12.225049179837624"><ele>24.0</ele><time>2026-03-22T09:07:11.005Z</time></trkpt><trkpt lat="44.19493848722372" lon="12.225310803138004"><ele>23.0</ele><time>2026-03-22T09:07:12.005Z</time></trkpt><trkpt lat="44.194828106308734" lon="12.225575874811925"><ele>22.0</ele><time>2026-03-22T09:07:13.005Z</time></trkpt><trkpt lat="44.194717928934544" lon="12.225841898421239"><ele>21.0</ele><time>2026-03-22T09:07:14.005Z</time></trkpt><trkpt lat="44.19460439190205" lon="12.226109088737521"><ele>20.666666666666668</ele><time>2026-03-22T09:07:15.005Z</time></trkpt><trkpt lat="44.1944916754292" lon="12.226374195907205"><ele>20.333333333333336</ele><time>2026-03-22T09:07:16.005Z</time></trkpt><trkpt lat="44.19437838178728" lon="12.226642611951327"><ele>20.0</ele><time>2026-03-22T09:07:17.005Z</time></trkpt><trkpt lat="44.19426926771141" lon="12.226911932985558"><ele>20.0</ele><time>2026-03-22T09:07:18.005Z</time></trkpt><trkpt lat="44.19415934452804" lon="12.227182243463655"><ele>20.0</ele><time>2026-03-22T09:07:19.005Z</time></trkpt><trkpt lat="44.19404428657809" lon="12.227451077267123"><ele>20.0</ele><time>2026-03-22T09:07:20.005Z</time></trkpt><trkpt lat="44.19392767980357" lon="12.227720186049996"><ele>20.5</ele><time>2026-03-22T09:07:21.005Z</time></trkpt><trkpt lat="44.19381137844403" lon="12.227989995746466"><ele>21.0</ele><time>2026-03-22T09:07:22.005Z</time></trkpt><trkpt lat="44.193697735087746" lon="12.228259227987134"><ele>21.5</ele><time>2026-03-22T09:07:23.005Z</time></trkpt><trkpt lat="44.19358320736538" lon="12.228531223323683"><ele>22.0</ele><time>2026-03-22T09:07:24.005Z</time></trkpt><trkpt lat="44.19347075938806" lon="12.228802937508004"><ele>22.0</ele><time>2026-03-22T09:07:25.005Z</time></trkpt><trkpt lat="44.193360906736395" lon="12.229073917025454"><ele>22.0</ele><time>2026-03-22T09:07:26.005Z</time></trkpt><trkpt lat="44.19325234348798" lon="12.22934426679401"><ele>22.0</ele><time>2026-03-22T09:07:27.005Z</time></trkpt><trkpt lat="44.19314006714568" lon="12.229612783461908"><ele>22.0</ele><time>2026-03-22T09:07:28.005Z</time></trkpt><trkpt lat="44.19302408489865" lon="12.229880051349914"><ele>22.0</ele><time>2026-03-22T09:07:29.005Z</time></trkpt><trkpt lat="44.19291247933992" lon="12.23014637700942"><ele>22.0</ele><time>2026-03-22T09:07:30.005Z</time></trkpt><trkpt lat="44.1928001807963" lon="12.230415393121177"><ele>21.5</ele><time>2026-03-22T09:07:31.005Z</time></trkpt><trkpt lat="44.19268776714436" lon="12.23068630766257"><ele>21.0</ele><time>2026-03-22T09:07:32.005Z</time></trkpt><trkpt lat="44.192579667780365" lon="12.230961840339734"><ele>21.0</ele><time>2026-03-22T09:07:33.005Z</time></trkpt><trkpt lat="44.19246460973122" lon="12.231239085318101"><ele>21.0</ele><time>2026-03-22T09:07:34.005Z</time></trkpt><trkpt lat="44.19234639377878" lon="12.231518013609437"><ele>21.0</ele><time>2026-03-22T09:07:35.005Z</time></trkpt><trkpt lat="44.19223528284919" lon="12.231797003822217"><ele>21.0</ele><time>2026-03-22T09:07:36.005Z</time></trkpt><trkpt lat="44.192121146450184" lon="12.232082392979747"><ele>21.0</ele><time>2026-03-22T09:07:37.005Z</time></trkpt><trkpt lat="44.19200764772838" lon="12.23236300238962"><ele>21.0</ele><time>2026-03-22T09:07:38.005Z</time></trkpt><trkpt lat="44.19189432564624" lon="12.232641729671357"><ele>21.0</ele><time>2026-03-22T09:07:39.005Z</time></trkpt><trkpt lat="44.19178185408487" lon="12.23291367925698"><ele>21.0</ele><time>2026-03-22T09:07:40.005Z</time></trkpt><trkpt lat="44.19167116197689" lon="12.233185259078976"><ele>21.0</ele><time>2026-03-22T09:07:41.005Z</time></trkpt><trkpt lat="44.19156498857067" lon="12.233453709102234"><ele>20.0</ele><time>2026-03-22T09:07:42.005Z</time></trkpt><trkpt lat="44.19145515676765" lon="12.233725928222325"><ele>19.0</ele><time>2026-03-22T09:07:43.005Z</time></trkpt><trkpt lat="44.19134845031499" lon="12.23399626176073"><ele>18.0</ele><time>2026-03-22T09:07:44.005Z</time></trkpt><trkpt lat="44.191233691405756" lon="12.234280052438361"><ele>18.0</ele><time>2026-03-22T09:07:45.005Z</time></trkpt><trkpt lat="44.19111460828691" lon="12.234570370700167"><ele>18.0</ele><time>2026-03-22T09:07:46.005Z</time></trkpt><trkpt lat="44.190994333563125" lon="12.234862946434621"><ele>19.5</ele><time>2026-03-22T09:07:47.005Z</time></trkpt><trkpt lat="44.19087999481429" lon="12.23515265016113"><ele>21.0</ele><time>2026-03-22T09:07:48.005Z</time></trkpt><trkpt lat="44.19076622340684" lon="12.235438449500428"><ele>22.0</ele><time>2026-03-22T09:07:49.005Z</time></trkpt><trkpt lat="44.19065352572394" lon="12.235721180537608"><ele>23.0</ele><time>2026-03-22T09:07:50.005Z</time></trkpt><trkpt lat="44.190539443542235" lon="12.23600608379524"><ele>23.0</ele><time>2026-03-22T09:07:51.005Z</time></trkpt><trkpt lat="44.19042461439719" lon="12.23629129793524"><ele>23.0</ele><time>2026-03-22T09:07:52.005Z</time></trkpt><trkpt lat="44.19030831968083" lon="12.23657740389171"><ele>22.5</ele><time>2026-03-22T09:07:53.005Z</time></trkpt><trkpt lat="44.19019513192859" lon="12.236859934116868"><ele>22.0</ele><time>2026-03-22T09:07:54.005Z</time></trkpt><trkpt lat="44.190079955848574" lon="12.23714854643484"><ele>22.0</ele><time>2026-03-22T09:07:55.005Z</time></trkpt><trkpt lat="44.18996390112812" lon="12.237434741438776"><ele>22.0</ele><time>2026-03-22T09:07:56.005Z</time></trkpt><trkpt lat="44.18984580319506" lon="12.23772460605371"><ele>22.0</ele><time>2026-03-22T09:07:57.005Z</time></trkpt><trkpt lat="44.189731293952256" lon="12.238013997672594"><ele>22.0</ele><time>2026-03-22T09:07:58.005Z</time></trkpt><trkpt lat="44.189617524590915" lon="12.238300920014606"><ele>22.5</ele><time>2026-03-22T09:07:59.005Z</time></trkpt><trkpt lat="44.189502111912965" lon="12.238584764357768"><ele>23.0</ele><time>2026-03-22T09:08:00.005Z</time></trkpt><trkpt lat="44.18938929752261" lon="12.238868947802443"><ele>22.5</ele><time>2026-03-22T09:08:01.005Z</time></trkpt><trkpt lat="44.18927973208189" lon="12.239151436079148"><ele>22.0</ele><time>2026-03-22T09:08:02.005Z</time></trkpt><trkpt lat="44.18916847831385" lon="12.239433772712092"><ele>22.0</ele><time>2026-03-22T09:08:03.005Z</time></trkpt><trkpt lat="44.1890581562309" lon="12.239718853031363"><ele>22.0</ele><time>2026-03-22T09:08:04.005Z</time></trkpt><trkpt lat="44.188945569800254" lon="12.24000402508262"><ele>21.5</ele><time>2026-03-22T09:08:05.005Z</time></trkpt><trkpt lat="44.188829846850375" lon="12.240290048397851"><ele>21.0</ele><time>2026-03-22T09:08:06.005Z</time></trkpt><trkpt lat="44.18871507869725" lon="12.240577974265298"><ele>21.0</ele><time>2026-03-22T09:08:07.005Z</time></trkpt><trkpt lat="44.188599652865626" lon="12.24087029288077"><ele>21.0</ele><time>2026-03-22T09:08:08.005Z</time></trkpt><trkpt lat="44.188482526053285" lon="12.241158287414207"><ele>21.0</ele><time>2026-03-22T09:08:09.005Z</time></trkpt><trkpt lat="44.18836512808955" lon="12.241451563599481"><ele>21.0</ele><time>2026-03-22T09:08:10.005Z</time></trkpt><trkpt lat="44.18825030463583" lon="12.24174648473403"><ele>21.5</ele><time>2026-03-22T09:08:11.005Z</time></trkpt><trkpt lat="44.18813190080772" lon="12.24203685560866"><ele>22.0</ele><time>2026-03-22T09:08:12.005Z</time></trkpt><trkpt lat="44.18801667183498" lon="12.242326357033999"><ele>22.0</ele><time>2026-03-22T09:08:13.005Z</time></trkpt><trkpt lat="44.187904077659084" lon="12.242613742735431"><ele>22.0</ele><time>2026-03-22T09:08:14.005Z</time></trkpt><trkpt lat="44.18779077857783" lon="12.242899873878942"><ele>21.5</ele><time>2026-03-22T09:08:15.005Z</time></trkpt><trkpt lat="44.18767224736241" lon="12.243190490000492"><ele>21.0</ele><time>2026-03-22T09:08:16.005Z</time></trkpt><trkpt lat="44.18755205397211" lon="12.243483980610192"><ele>21.0</ele><time>2026-03-22T09:08:17.005Z</time></trkpt><trkpt lat="44.18743148596614" lon="12.243779289792524"><ele>21.0</ele><time>2026-03-22T09:08:18.005Z</time></trkpt><trkpt lat="44.18731204890777" lon="12.24407637261497"><ele>21.0</ele><time>2026-03-22T09:08:19.005Z</time></trkpt><trkpt lat="44.18719161078029" lon="12.24437350666009"><ele>21.0</ele><time>2026-03-22T09:08:20.005Z</time></trkpt><trkpt lat="44.187077289929356" lon="12.244669016828043"><ele>20.5</ele><time>2026-03-22T09:08:21.005Z</time></trkpt><trkpt lat="44.186958754571904" lon="12.244962865432186"><ele>20.0</ele><time>2026-03-22T09:08:22.005Z</time></trkpt><trkpt lat="44.18684231017195" lon="12.245253479704163"><ele>20.0</ele><time>2026-03-22T09:08:23.005Z</time></trkpt><trkpt lat="44.18672262807585" lon="12.245547516486905"><ele>20.0</ele><time>2026-03-22T09:08:24.005Z</time></trkpt><trkpt lat="44.186601212335304" lon="12.245843350633788"><ele>21.5</ele><time>2026-03-22T09:08:25.004Z</time></trkpt><trkpt lat="44.18648240978507" lon="12.24614101394593"><ele>23.0</ele><time>2026-03-22T09:08:26.004Z</time></trkpt><trkpt lat="44.186368823021326" lon="12.246431332678341"><ele>22.5</ele><time>2026-03-22T09:08:27.004Z</time></trkpt><trkpt lat="44.186251941586306" lon="12.246717068593156"><ele>22.0</ele><time>2026-03-22T09:08:28.004Z</time></trkpt><trkpt lat="44.18613459767796" lon="12.247008474293128"><ele>21.0</ele><time>2026-03-22T09:08:29.004Z</time></trkpt><trkpt lat="44.186016516361995" lon="12.247311182833014"><ele>20.0</ele><time>2026-03-22T09:08:30.004Z</time></trkpt><trkpt lat="44.18589157398737" lon="12.247613660838788"><ele>20.0</ele><time>2026-03-22T09:08:31.004Z</time></trkpt><trkpt lat="44.18575919880242" lon="12.247924464121047"><ele>20.0</ele><time>2026-03-22T09:08:32.004Z</time></trkpt><trkpt lat="44.18563022256113" lon="12.24824204576641"><ele>19.5</ele><time>2026-03-22T09:08:33.004Z</time></trkpt><trkpt lat="44.18550344199618" lon="12.248562428634088"><ele>19.0</ele><time>2026-03-22T09:08:34.004Z</time></trkpt><trkpt lat="44.18538023178916" lon="12.24887362642399"><ele>18.5</ele><time>2026-03-22T09:08:35.004Z</time></trkpt><trkpt lat="44.185258412508084" lon="12.249182142947035"><ele>18.0</ele><time>2026-03-22T09:08:36.004Z</time></trkpt><trkpt lat="44.18513383668398" lon="12.249483563049253"><ele>18.0</ele><time>2026-03-22T09:08:37.004Z</time></trkpt><trkpt lat="44.1850131402678" lon="12.24977681427966"><ele>18.0</ele><time>2026-03-22T09:08:38.004Z</time></trkpt><trkpt lat="44.184898053213026" lon="12.25006770284026"><ele>18.5</ele><time>2026-03-22T09:08:39.004Z</time></trkpt><trkpt lat="44.18477875736179" lon="12.250358604476078"><ele>19.0</ele><time>2026-03-22T09:08:40.004Z</time></trkpt><trkpt lat="44.18466284928486" lon="12.250647865342195"><ele>19.0</ele><time>2026-03-22T09:08:41.004Z</time></trkpt><trkpt lat="44.18454875342902" lon="12.250932164147846"><ele>19.0</ele><time>2026-03-22T09:08:42.004Z</time></trkpt><trkpt lat="44.1844377481587" lon="12.251219058058556"><ele>19.5</ele><time>2026-03-22T09:08:43.004Z</time></trkpt><trkpt lat="44.18432013105414" lon="12.251505101357472"><ele>20.0</ele><time>2026-03-22T09:08:44.004Z</time></trkpt><trkpt lat="44.18420345391964" lon="12.251797089120195"><ele>20.0</ele><time>2026-03-22T09:08:45.004Z</time></trkpt><trkpt lat="44.18408353446061" lon="12.252090212741313"><ele>20.0</ele><time>2026-03-22T09:08:46.004Z</time></trkpt><trkpt lat="44.18396107085606" lon="12.252386284506091"><ele>19.5</ele><time>2026-03-22T09:08:47.004Z</time></trkpt><trkpt lat="44.18384425924895" lon="12.252684135440926"><ele>19.0</ele><time>2026-03-22T09:08:48.004Z</time></trkpt><trkpt lat="44.183724388217094" lon="12.25298385394054"><ele>19.0</ele><time>2026-03-22T09:08:49.004Z</time></trkpt><trkpt lat="44.18360597146352" lon="12.253280180133084"><ele>19.0</ele><time>2026-03-22T09:08:50.004Z</time></trkpt><trkpt lat="44.18348833731095" lon="12.253571307669443"><ele>19.0</ele><time>2026-03-22T09:08:51.004Z</time></trkpt><trkpt lat="44.183366541979154" lon="12.253872116936051"><ele>19.0</ele><time>2026-03-22T09:08:52.004Z</time></trkpt><trkpt lat="44.18324121503952" lon="12.25419178678412"><ele>18.5</ele><time>2026-03-22T09:08:53.004Z</time></trkpt><trkpt lat="44.18311793179043" lon="12.254496587019574"><ele>18.0</ele><time>2026-03-22T09:08:54.004Z</time></trkpt><trkpt lat="44.18300287182417" lon="12.254780902460896"><ele>18.0</ele><time>2026-03-22T09:08:55.004Z</time></trkpt><trkpt lat="44.18289352404345" lon="12.255051668159373"><ele>18.0</ele><time>2026-03-22T09:08:56.004Z</time></trkpt><trkpt lat="44.1827804699551" lon="12.255339618543164"><ele>18.0</ele><time>2026-03-22T09:08:57.004Z</time></trkpt><trkpt lat="44.18265781886167" lon="12.255650897987051"><ele>18.0</ele><time>2026-03-22T09:08:58.004Z</time></trkpt><trkpt lat="44.182529284152075" lon="12.25597169376131"><ele>18.0</ele><time>2026-03-22T09:08:59.004Z</time></trkpt><trkpt lat="44.18239361097723" lon="12.256301967534997"><ele>18.0</ele><time>2026-03-22T09:09:00.004Z</time></trkpt><trkpt lat="44.182263468664836" lon="12.256632086097644"><ele>18.0</ele><time>2026-03-22T09:09:01.004Z</time></trkpt><trkpt lat="44.182140955095186" lon="12.25693726952659"><ele>18.0</ele><time>2026-03-22T09:09:02.004Z</time></trkpt><trkpt lat="44.18202633420964" lon="12.257233365838792"><ele>18.0</ele><time>2026-03-22T09:09:03.004Z</time></trkpt><trkpt lat="44.18190626778198" lon="12.25753160728338"><ele>18.0</ele><time>2026-03-22T09:09:04.004Z</time></trkpt><trkpt lat="44.181781503851475" lon="12.257832525804723"><ele>18.0</ele><time>2026-03-22T09:09:05.004Z</time></trkpt><trkpt lat="44.18165731600025" lon="12.25813132252825"><ele>18.0</ele><time>2026-03-22T09:09:06.004Z</time></trkpt><trkpt lat="44.18153371078942" lon="12.258438389603246"><ele>19.0</ele><time>2026-03-22T09:09:07.004Z</time></trkpt><trkpt lat="44.18140693764373" lon="12.258757108612576"><ele>20.0</ele><time>2026-03-22T09:09:08.004Z</time></trkpt><trkpt lat="44.181280029389605" lon="12.259073297552666"><ele>21.5</ele><time>2026-03-22T09:09:09.004Z</time></trkpt><trkpt lat="44.18115873767615" lon="12.259381596391409"><ele>23.0</ele><time>2026-03-22T09:09:10.004Z</time></trkpt><trkpt lat="44.18103577317816" lon="12.259687506919535"><ele>22.0</ele><time>2026-03-22T09:09:11.004Z</time></trkpt><trkpt lat="44.18092033793035" lon="12.259990976202095"><ele>21.0</ele><time>2026-03-22T09:09:12.004Z</time></trkpt><trkpt lat="44.180787680909155" lon="12.260289794718291"><ele>20.5</ele><time>2026-03-22T09:09:13.004Z</time></trkpt><trkpt lat="44.18065470310875" lon="12.260577553888492"><ele>20.0</ele><time>2026-03-22T09:09:14.004Z</time></trkpt><trkpt lat="44.18052428003839" lon="12.260869075594373"><ele>19.5</ele><time>2026-03-22T09:09:15.004Z</time></trkpt><trkpt lat="44.18038804460359" lon="12.261158609715325"><ele>19.0</ele><time>2026-03-22T09:09:16.004Z</time></trkpt><trkpt lat="44.18024908857182" lon="12.261458053021066"><ele>19.0</ele><time>2026-03-22T09:09:17.004Z</time></trkpt><trkpt lat="44.18010768560184" lon="12.261753330307751"><ele>19.0</ele><time>2026-03-22T09:09:18.004Z</time></trkpt><trkpt lat="44.17996128809901" lon="12.262049589246905"><ele>18.0</ele><time>2026-03-22T09:09:19.004Z</time></trkpt><trkpt lat="44.17980909755971" lon="12.26234620525619"><ele>17.0</ele><time>2026-03-22T09:09:20.004Z</time></trkpt><trkpt lat="44.17965477529441" lon="12.262640291120338"><ele>17.0</ele><time>2026-03-22T09:09:21.004Z</time></trkpt><trkpt lat="44.179498378409704" lon="12.262933462638523"><ele>17.0</ele><time>2026-03-22T09:09:22.004Z</time></trkpt><trkpt lat="44.17934079138019" lon="12.263225038080947"><ele>17.0</ele><time>2026-03-22T09:09:23.004Z</time></trkpt><trkpt lat="44.17918392382097" lon="12.263514507153122"><ele>17.0</ele><time>2026-03-22T09:09:24.004Z</time></trkpt><trkpt lat="44.17903004311243" lon="12.26379930022857"><ele>17.0</ele><time>2026-03-22T09:09:25.004Z</time></trkpt><trkpt lat="44.178874167249504" lon="12.264084470866266"><ele>17.0</ele><time>2026-03-22T09:09:26.004Z</time></trkpt><trkpt lat="44.17871867337471" lon="12.264370376881157"><ele>17.0</ele><time>2026-03-22T09:09:27.004Z</time></trkpt><trkpt lat="44.178563531267095" lon="12.264652611473792"><ele>17.0</ele><time>2026-03-22T09:09:28.004Z</time></trkpt><trkpt lat="44.178408535492714" lon="12.26494202133851"><ele>17.0</ele><time>2026-03-22T09:09:29.004Z</time></trkpt><trkpt lat="44.17825817916311" lon="12.265231512804418"><ele>17.0</ele><time>2026-03-22T09:09:30.004Z</time></trkpt><trkpt lat="44.17810439657168" lon="12.265521206879805"><ele>17.5</ele><time>2026-03-22T09:09:31.004Z</time></trkpt><trkpt lat="44.17795008329333" lon="12.265807584422719"><ele>18.0</ele><time>2026-03-22T09:09:32.004Z</time></trkpt><trkpt lat="44.17778774493375" lon="12.266106042389438"><ele>18.0</ele><time>2026-03-22T09:09:33.004Z</time></trkpt><trkpt lat="44.17762245285836" lon="12.266410693265835"><ele>18.0</ele><time>2026-03-22T09:09:34.004Z</time></trkpt><trkpt lat="44.17745390072349" lon="12.266723261418035"><ele>18.0</ele><time>2026-03-22T09:09:35.004Z</time></trkpt><trkpt lat="44.17728109672047" lon="12.267042012659966"><ele>18.0</ele><time>2026-03-22T09:09:36.004Z</time></trkpt><trkpt lat="44.1771090811543" lon="12.2673648043673"><ele>18.0</ele><time>2026-03-22T09:09:37.004Z</time></trkpt><trkpt lat="44.176928242715455" lon="12.267697032449869"><ele>18.0</ele><time>2026-03-22T09:09:38.004Z</time></trkpt><trkpt lat="44.1767418205864" lon="12.268040599138434"><ele>17.5</ele><time>2026-03-22T09:09:39.004Z</time></trkpt><trkpt lat="44.17655082283677" lon="12.268391407196495"><ele>17.0</ele><time>2026-03-22T09:09:40.004Z</time></trkpt><trkpt lat="44.17636354907933" lon="12.268745537234487"><ele>17.5</ele><time>2026-03-22T09:09:41.004Z</time></trkpt><trkpt lat="44.176170111692436" lon="12.269104557012183"><ele>18.0</ele><time>2026-03-22T09:09:42.004Z</time></trkpt><trkpt lat="44.175979420861275" lon="12.26945682599081"><ele>18.5</ele><time>2026-03-22T09:09:43.004Z</time></trkpt><trkpt lat="44.17579917485019" lon="12.269793086564071"><ele>19.0</ele><time>2026-03-22T09:09:44.004Z</time></trkpt><trkpt lat="44.175628766835615" lon="12.270131265824897"><ele>18.0</ele><time>2026-03-22T09:09:45.004Z</time></trkpt><trkpt lat="44.17545891325243" lon="12.270472489290118"><ele>17.0</ele><time>2026-03-22T09:09:46.004Z</time></trkpt><trkpt lat="44.175289645788524" lon="12.270814303667242"><ele>17.0</ele><time>2026-03-22T09:09:47.004Z</time></trkpt><trkpt lat="44.17512341193741" lon="12.271148734666209"><ele>17.0</ele><time>2026-03-22T09:09:48.004Z</time></trkpt><trkpt lat="44.17496032060156" lon="12.271488696149515"><ele>16.5</ele><time>2026-03-22T09:09:49.004Z</time></trkpt><trkpt lat="44.17479981823259" lon="12.271820482926808"><ele>16.0</ele><time>2026-03-22T09:09:50.004Z</time></trkpt><trkpt lat="44.174644729424266" lon="12.272148541149168"><ele>16.0</ele><time>2026-03-22T09:09:51.004Z</time></trkpt><trkpt lat="44.1744962228895" lon="12.272466349600839"><ele>16.0</ele><time>2026-03-22T09:09:52.004Z</time></trkpt><trkpt lat="44.17435390407438" lon="12.272783949246755"><ele>16.0</ele><time>2026-03-22T09:09:53.004Z</time></trkpt><trkpt lat="44.17420995122147" lon="12.273098158966029"><ele>16.0</ele><time>2026-03-22T09:09:54.004Z</time></trkpt><trkpt lat="44.17407015485598" lon="12.273413414571028"><ele>16.0</ele><time>2026-03-22T09:09:55.004Z</time></trkpt><trkpt lat="44.173932942222" lon="12.273729974840078"><ele>16.0</ele><time>2026-03-22T09:09:56.004Z</time></trkpt><trkpt lat="44.17379047677449" lon="12.274050496053965"><ele>15.5</ele><time>2026-03-22T09:09:57.004Z</time></trkpt><trkpt lat="44.17366044102779" lon="12.27435742199257"><ele>15.0</ele><time>2026-03-22T09:09:58.004Z</time></trkpt><trkpt lat="44.17353185576469" lon="12.274662999478942"><ele>15.5</ele><time>2026-03-22T09:09:59.004Z</time></trkpt><trkpt lat="44.17340133768355" lon="12.274972784169423"><ele>16.0</ele><time>2026-03-22T09:10:00.004Z</time></trkpt><trkpt lat="44.173272813827786" lon="12.275288523171652"><ele>16.5</ele><time>2026-03-22T09:10:01.004Z</time></trkpt><trkpt lat="44.17314287599966" lon="12.275606361116244"><ele>17.0</ele><time>2026-03-22T09:10:02.004Z</time></trkpt><trkpt lat="44.173012192932184" lon="12.275926877202231"><ele>17.0</ele><time>2026-03-22T09:10:03.004Z</time></trkpt><trkpt lat="44.17287910848879" lon="12.276245788829316"><ele>17.0</ele><time>2026-03-22T09:10:04.004Z</time></trkpt><trkpt lat="44.1727452783869" lon="12.276567571083227"><ele>17.5</ele><time>2026-03-22T09:10:05.004Z</time></trkpt><trkpt lat="44.17261532496466" lon="12.276877990466778"><ele>18.0</ele><time>2026-03-22T09:10:06.004Z</time></trkpt><trkpt lat="44.17249177252" lon="12.277179314959408"><ele>18.0</ele><time>2026-03-22T09:10:07.004Z</time></trkpt><trkpt lat="44.172366967248955" lon="12.277489665667106"><ele>18.0</ele><time>2026-03-22T09:10:08.004Z</time></trkpt><trkpt lat="44.172237387002944" lon="12.277796350753118"><ele>19.5</ele><time>2026-03-22T09:10:09.004Z</time></trkpt><trkpt lat="44.17211155019929" lon="12.278105629004736"><ele>21.0</ele><time>2026-03-22T09:10:10.004Z</time></trkpt><trkpt lat="44.171983795462914" lon="12.278407698779187"><ele>21.0</ele><time>2026-03-22T09:10:11.004Z</time></trkpt><trkpt lat="44.17185108785585" lon="12.278717179158322"><ele>21.0</ele><time>2026-03-22T09:10:12.004Z</time></trkpt><trkpt lat="44.1717239091518" lon="12.279033655742817"><ele>19.0</ele><time>2026-03-22T09:10:13.004Z</time></trkpt><trkpt lat="44.171597107359574" lon="12.279354483110964"><ele>17.0</ele><time>2026-03-22T09:10:14.004Z</time></trkpt><trkpt lat="44.171469474363235" lon="12.279669369803372"><ele>17.0</ele><time>2026-03-22T09:10:15.004Z</time></trkpt><trkpt lat="44.171342309048235" lon="12.279967716238543"><ele>17.0</ele><time>2026-03-22T09:10:16.004Z</time></trkpt><trkpt lat="44.171223667525524" lon="12.280264895956414"><ele>17.0</ele><time>2026-03-22T09:10:17.004Z</time></trkpt><trkpt lat="44.17110103188468" lon="12.280569084108707"><ele>17.0</ele><time>2026-03-22T09:10:18.004Z</time></trkpt><trkpt lat="44.170976748877415" lon="12.280874808733968"><ele>17.0</ele><time>2026-03-22T09:10:19.004Z</time></trkpt><trkpt lat="44.1708496914045" lon="12.281188069761809"><ele>17.0</ele><time>2026-03-22T09:10:20.004Z</time></trkpt><trkpt lat="44.17071954899604" lon="12.28150688173681"><ele>16.5</ele><time>2026-03-22T09:10:21.004Z</time></trkpt><trkpt lat="44.170590763050086" lon="12.281823553541722"><ele>16.0</ele><time>2026-03-22T09:10:22.004Z</time></trkpt><trkpt lat="44.170463820968116" lon="12.282135776068532"><ele>16.5</ele><time>2026-03-22T09:10:23.004Z</time></trkpt><trkpt lat="44.17033634705278" lon="12.282448471655409"><ele>17.0</ele><time>2026-03-22T09:10:24.004Z</time></trkpt><trkpt lat="44.17020997705105" lon="12.282761960516227"><ele>17.0</ele><time>2026-03-22T09:10:25.004Z</time></trkpt><trkpt lat="44.17008318975519" lon="12.283076282711578"><ele>17.0</ele><time>2026-03-22T09:10:26.004Z</time></trkpt><trkpt lat="44.16995501096992" lon="12.283402842839148"><ele>17.0</ele><time>2026-03-22T09:10:27.004Z</time></trkpt><trkpt lat="44.169824575360046" lon="12.28372790865886"><ele>17.0</ele><time>2026-03-22T09:10:28.004Z</time></trkpt><trkpt lat="44.16969103961435" lon="12.284057217440695"><ele>17.5</ele><time>2026-03-22T09:10:29.004Z</time></trkpt><trkpt lat="44.16955298569652" lon="12.28437771607991"><ele>18.0</ele><time>2026-03-22T09:10:30.004Z</time></trkpt><trkpt lat="44.16942326459612" lon="12.28469722163535"><ele>18.0</ele><time>2026-03-22T09:10:31.004Z</time></trkpt><trkpt lat="44.169300756343056" lon="12.285006281427737"><ele>18.0</ele><time>2026-03-22T09:10:32.004Z</time></trkpt><trkpt lat="44.16917155312183" lon="12.285322362033824"><ele>18.0</ele><time>2026-03-22T09:10:33.004Z</time></trkpt><trkpt lat="44.16903863449309" lon="12.285638688170003"><ele>18.0</ele><time>2026-03-22T09:10:34.004Z</time></trkpt><trkpt lat="44.168907709288355" lon="12.285953993782195"><ele>18.0</ele><time>2026-03-22T09:10:35.004Z</time></trkpt><trkpt lat="44.168778963690976" lon="12.286265716600012"><ele>18.0</ele><time>2026-03-22T09:10:36.004Z</time></trkpt><trkpt lat="44.168648824083405" lon="12.286579517408368"><ele>18.0</ele><time>2026-03-22T09:10:37.004Z</time></trkpt><trkpt lat="44.16852085625185" lon="12.28689136905719"><ele>18.0</ele><time>2026-03-22T09:10:38.004Z</time></trkpt><trkpt lat="44.16839118241295" lon="12.287203880023618"><ele>18.0</ele><time>2026-03-22T09:10:39.004Z</time></trkpt><trkpt lat="44.168262302359835" lon="12.287517812297752"><ele>18.0</ele><time>2026-03-22T09:10:40.004Z</time></trkpt><trkpt lat="44.168133275182306" lon="12.287832595748423"><ele>17.0</ele><time>2026-03-22T09:10:41.004Z</time></trkpt><trkpt lat="44.168001664304754" lon="12.28814560601322"><ele>16.0</ele><time>2026-03-22T09:10:42.004Z</time></trkpt><trkpt lat="44.16787572883403" lon="12.288453890015074"><ele>16.0</ele><time>2026-03-22T09:10:43.004Z</time></trkpt><trkpt lat="44.16775171778391" lon="12.288757191985127"><ele>16.0</ele><time>2026-03-22T09:10:44.004Z</time></trkpt><trkpt lat="44.1676268115404" lon="12.289061127221773"><ele>17.0</ele><time>2026-03-22T09:10:45.004Z</time></trkpt><trkpt lat="44.16750214866148" lon="12.289366599811999"><ele>18.0</ele><time>2026-03-22T09:10:46.004Z</time></trkpt><trkpt lat="44.1673758694202" lon="12.289677261968377"><ele>17.5</ele><time>2026-03-22T09:10:47.004Z</time></trkpt><trkpt lat="44.167249366000895" lon="12.28998373074769"><ele>17.0</ele><time>2026-03-22T09:10:48.004Z</time></trkpt><trkpt lat="44.16712352552568" lon="12.290292174174708"><ele>17.0</ele><time>2026-03-22T09:10:49.004Z</time></trkpt><trkpt lat="44.1669960650035" lon="12.290601058459334"><ele>17.0</ele><time>2026-03-22T09:10:50.004Z</time></trkpt><trkpt lat="44.166869310844454" lon="12.290916814416203"><ele>17.0</ele><time>2026-03-22T09:10:51.004Z</time></trkpt><trkpt lat="44.16674183227922" lon="12.291232285732935"><ele>17.0</ele><time>2026-03-22T09:10:52.004Z</time></trkpt><trkpt lat="44.16661323494725" lon="12.29155204287103"><ele>17.0</ele><time>2026-03-22T09:10:53.004Z</time></trkpt><trkpt lat="44.16648343530348" lon="12.291876640384535"><ele>17.0</ele><time>2026-03-22T09:10:54.004Z</time></trkpt><trkpt lat="44.16634415388427" lon="12.292208523068743"><ele>17.0</ele><time>2026-03-22T09:10:55.004Z</time></trkpt><trkpt lat="44.16620459190976" lon="12.292548054595803"><ele>17.0</ele><time>2026-03-22T09:10:56.004Z</time></trkpt><trkpt lat="44.166062179235844" lon="12.29289488508443"><ele>16.5</ele><time>2026-03-22T09:10:57.004Z</time></trkpt><trkpt lat="44.16592042776249" lon="12.293240332165363"><ele>16.0</ele><time>2026-03-22T09:10:58.004Z</time></trkpt><trkpt lat="44.165777090773666" lon="12.293585717693544"><ele>15.5</ele><time>2026-03-22T09:10:59.004Z</time></trkpt><trkpt lat="44.1656347046334" lon="12.293936327833178"><ele>15.0</ele><time>2026-03-22T09:11:00.004Z</time></trkpt><trkpt lat="44.16549204479631" lon="12.29428612111443"><ele>15.0</ele><time>2026-03-22T09:11:01.004Z</time></trkpt><trkpt lat="44.16535075449208" lon="12.294631016176794"><ele>15.0</ele><time>2026-03-22T09:11:02.004Z</time></trkpt><trkpt lat="44.16521175290497" lon="12.294969678431741"><ele>15.5</ele><time>2026-03-22T09:11:03.004Z</time></trkpt><trkpt lat="44.16507323889221" lon="12.295305284380657"><ele>16.0</ele><time>2026-03-22T09:11:04.004Z</time></trkpt><trkpt lat="44.16493563341638" lon="12.295637411570365"><ele>15.5</ele><time>2026-03-22T09:11:05.004Z</time></trkpt><trkpt lat="44.16480175945586" lon="12.295968403964677"><ele>15.0</ele><time>2026-03-22T09:11:06.004Z</time></trkpt><trkpt lat="44.16466653684419" lon="12.29629906628204"><ele>16.0</ele><time>2026-03-22T09:11:07.004Z</time></trkpt><trkpt lat="44.16453289570005" lon="12.296622126221768"><ele>17.0</ele><time>2026-03-22T09:11:08.004Z</time></trkpt><trkpt lat="44.16439891981521" lon="12.296949178362725"><ele>17.0</ele><time>2026-03-22T09:11:09.004Z</time></trkpt><trkpt lat="44.164266835543565" lon="12.29727873378424"><ele>17.0</ele><time>2026-03-22T09:11:10.004Z</time></trkpt><trkpt lat="44.16412829305563" lon="12.297609306119572"><ele>17.5</ele><time>2026-03-22T09:11:11.004Z</time></trkpt><trkpt lat="44.163992736451355" lon="12.297940262795885"><ele>18.0</ele><time>2026-03-22T09:11:12.004Z</time></trkpt><trkpt lat="44.16385712057382" lon="12.298275096438807"><ele>18.0</ele><time>2026-03-22T09:11:13.004Z</time></trkpt><trkpt lat="44.163718847267916" lon="12.298609675808365"><ele>18.0</ele><time>2026-03-22T09:11:14.004Z</time></trkpt><trkpt lat="44.16357822361609" lon="12.298937949641736"><ele>18.5</ele><time>2026-03-22T09:11:15.003Z</time></trkpt><trkpt lat="44.16344032071477" lon="12.299274170555817"><ele>19.0</ele><time>2026-03-22T09:11:16.003Z</time></trkpt><trkpt lat="44.1633021787029" lon="12.299600479611662"><ele>17.5</ele><time>2026-03-22T09:11:17.003Z</time></trkpt><trkpt lat="44.16316666784106" lon="12.299927211583494"><ele>16.0</ele><time>2026-03-22T09:11:18.003Z</time></trkpt><trkpt lat="44.163037649316635" lon="12.300242808078579"><ele>16.0</ele><time>2026-03-22T09:11:19.004Z</time></trkpt><trkpt lat="44.16291854775715" lon="12.300546047518894"><ele>16.0</ele><time>2026-03-22T09:11:20.004Z</time></trkpt><trkpt lat="44.16279221037818" lon="12.300853280579535"><ele>16.0</ele><time>2026-03-22T09:11:21.003Z</time></trkpt><trkpt lat="44.16266447951392" lon="12.301171790272502"><ele>16.0</ele><time>2026-03-22T09:11:22.003Z</time></trkpt><trkpt lat="44.162534990095466" lon="12.301495163702082"><ele>16.0</ele><time>2026-03-22T09:11:23.003Z</time></trkpt><trkpt lat="44.16240265070053" lon="12.301817650896085"><ele>16.0</ele><time>2026-03-22T09:11:24.003Z</time></trkpt><trkpt lat="44.162269726345585" lon="12.302140056024928"><ele>15.0</ele><time>2026-03-22T09:11:25.003Z</time></trkpt><trkpt lat="44.16214035207265" lon="12.302460367582226"><ele>14.0</ele><time>2026-03-22T09:11:26.003Z</time></trkpt><trkpt lat="44.16200623732108" lon="12.302785951948561"><ele>14.5</ele><time>2026-03-22T09:11:27.003Z</time></trkpt><trkpt lat="44.16186524822305" lon="12.303123416909711"><ele>15.0</ele><time>2026-03-22T09:11:28.003Z</time></trkpt><trkpt lat="44.161723871859046" lon="12.303472119488113"><ele>15.0</ele><time>2026-03-22T09:11:29.003Z</time></trkpt><trkpt lat="44.16158084307199" lon="12.303817769902844"><ele>15.0</ele><time>2026-03-22T09:11:30.003Z</time></trkpt><trkpt lat="44.1614379528524" lon="12.304168296508498"><ele>15.0</ele><time>2026-03-22T09:11:31.003Z</time></trkpt><trkpt lat="44.161293320379414" lon="12.304519286855491"><ele>15.0</ele><time>2026-03-22T09:11:32.003Z</time></trkpt><trkpt lat="44.161150262944325" lon="12.304861262834084"><ele>15.0</ele><time>2026-03-22T09:11:33.003Z</time></trkpt><trkpt lat="44.16100752852544" lon="12.305206285748538"><ele>15.0</ele><time>2026-03-22T09:11:34.003Z</time></trkpt><trkpt lat="44.1608684128984" lon="12.3055347889518"><ele>15.5</ele><time>2026-03-22T09:11:35.003Z</time></trkpt><trkpt lat="44.160734869111764" lon="12.305855491362232"><ele>16.0</ele><time>2026-03-22T09:11:36.003Z</time></trkpt><trkpt lat="44.16060595718814" lon="12.306165911107184"><ele>16.5</ele><time>2026-03-22T09:11:37.003Z</time></trkpt><trkpt lat="44.16047601549424" lon="12.306468945760328"><ele>17.0</ele><time>2026-03-22T09:11:38.003Z</time></trkpt><trkpt lat="44.16034765861504" lon="12.306764699826694"><ele>17.0</ele><time>2026-03-22T09:11:39.003Z</time></trkpt><trkpt lat="44.160217007698016" lon="12.307062997650021"><ele>17.0</ele><time>2026-03-22T09:11:40.003Z</time></trkpt><trkpt lat="44.16008277429202" lon="12.307357969761066"><ele>16.5</ele><time>2026-03-22T09:11:41.003Z</time></trkpt><trkpt lat="44.159944996298506" lon="12.307650235846683"><ele>16.0</ele><time>2026-03-22T09:11:42.003Z</time></trkpt><trkpt lat="44.159803071265756" lon="12.307938818310442"><ele>16.0</ele><time>2026-03-22T09:11:43.003Z</time></trkpt><trkpt lat="44.15966086886376" lon="12.308222225156985"><ele>16.0</ele><time>2026-03-22T09:11:44.003Z</time></trkpt><trkpt lat="44.159516027459965" lon="12.308505903807486"><ele>16.0</ele><time>2026-03-22T09:11:45.003Z</time></trkpt><trkpt lat="44.1593645077735" lon="12.308791969732516"><ele>16.0</ele><time>2026-03-22T09:11:46.003Z</time></trkpt><trkpt lat="44.159208867673605" lon="12.309075360708198"><ele>16.5</ele><time>2026-03-22T09:11:47.003Z</time></trkpt><trkpt lat="44.15905030706" lon="12.30936140139593"><ele>17.0</ele><time>2026-03-22T09:11:48.003Z</time></trkpt><trkpt lat="44.15888530883857" lon="12.309646840815715"><ele>17.0</ele><time>2026-03-22T09:11:49.003Z</time></trkpt><trkpt lat="44.158720632879714" lon="12.309930559891008"><ele>17.0</ele><time>2026-03-22T09:11:50.003Z</time></trkpt><trkpt lat="44.158543863432605" lon="12.310212934807586"><ele>17.0</ele><time>2026-03-22T09:11:51.003Z</time></trkpt><trkpt lat="44.15836305852112" lon="12.31049638693518"><ele>17.0</ele><time>2026-03-22T09:11:52.003Z</time></trkpt><trkpt lat="44.15818101678833" lon="12.310774023869868"><ele>17.0</ele><time>2026-03-22T09:11:53.003Z</time></trkpt><trkpt lat="44.15800368096626" lon="12.311052402004282"><ele>17.0</ele><time>2026-03-22T09:11:54.003Z</time></trkpt><trkpt lat="44.157826607190685" lon="12.311315181110139"><ele>17.5</ele><time>2026-03-22T09:11:55.003Z</time></trkpt><trkpt lat="44.1576386780111" lon="12.311573199775507"><ele>18.0</ele><time>2026-03-22T09:11:56.003Z</time></trkpt><trkpt lat="44.15745287622184" lon="12.31182036903095"><ele>17.5</ele><time>2026-03-22T09:11:57.003Z</time></trkpt><trkpt lat="44.15726558298614" lon="12.312064715364988"><ele>17.0</ele><time>2026-03-22T09:11:58.003Z</time></trkpt><trkpt lat="44.15707688004002" lon="12.31230639752843"><ele>18.0</ele><time>2026-03-22T09:11:59.002Z</time></trkpt><trkpt lat="44.15688868999425" lon="12.312544312962403"><ele>19.0</ele><time>2026-03-22T09:12:00.002Z</time></trkpt><trkpt lat="44.1567011759676" lon="12.31277697586566"><ele>18.0</ele><time>2026-03-22T09:12:01.002Z</time></trkpt><trkpt lat="44.15651269684408" lon="12.313013400621045"><ele>17.0</ele><time>2026-03-22T09:12:02.002Z</time></trkpt><trkpt lat="44.156324328829236" lon="12.313251146828883"><ele>17.0</ele><time>2026-03-22T09:12:03.002Z</time></trkpt><trkpt lat="44.15613852660629" lon="12.313491771945987"><ele>17.0</ele><time>2026-03-22T09:12:04.002Z</time></trkpt><trkpt lat="44.15594769854147" lon="12.31373525043812"><ele>17.0</ele><time>2026-03-22T09:12:05.002Z</time></trkpt><trkpt lat="44.15575880496791" lon="12.313980037009948"><ele>17.0</ele><time>2026-03-22T09:12:06.002Z</time></trkpt><trkpt lat="44.155569313905495" lon="12.314222584657672"><ele>17.0</ele><time>2026-03-22T09:12:07.002Z</time></trkpt><trkpt lat="44.15538028277816" lon="12.314463683436049"><ele>17.0</ele><time>2026-03-22T09:12:08.002Z</time></trkpt><trkpt lat="44.15519705516303" lon="12.314698199461352"><ele>17.0</ele><time>2026-03-22T09:12:09.002Z</time></trkpt><trkpt lat="44.155013985281606" lon="12.314932625830732"><ele>17.0</ele><time>2026-03-22T09:12:10.002Z</time></trkpt><trkpt lat="44.15483174978438" lon="12.315166325640583"><ele>17.0</ele><time>2026-03-22T09:12:11.002Z</time></trkpt><trkpt lat="44.154648891210975" lon="12.315400156666628"><ele>17.0</ele><time>2026-03-22T09:12:12.002Z</time></trkpt><trkpt lat="44.15446522179576" lon="12.315636343415516"><ele>18.0</ele><time>2026-03-22T09:12:13.002Z</time></trkpt><trkpt lat="44.15427557046276" lon="12.315874608210711"><ele>19.0</ele><time>2026-03-22T09:12:14.002Z</time></trkpt><trkpt lat="44.1540911586564" lon="12.316110640054738"><ele>19.0</ele><time>2026-03-22T09:12:15.002Z</time></trkpt><trkpt lat="44.153904947670505" lon="12.316349227797591"><ele>19.0</ele><time>2026-03-22T09:12:16.002Z</time></trkpt><trkpt lat="44.153716292409875" lon="12.316591667594482"><ele>19.0</ele><time>2026-03-22T09:12:17.002Z</time></trkpt><trkpt lat="44.15352717298614" lon="12.31683776999335"><ele>19.0</ele><time>2026-03-22T09:12:18.002Z</time></trkpt><trkpt lat="44.15333845769859" lon="12.317076500221955"><ele>19.0</ele><time>2026-03-22T09:12:19.002Z</time></trkpt><trkpt lat="44.153144130343854" lon="12.317327754760827"><ele>19.0</ele><time>2026-03-22T09:12:20.002Z</time></trkpt><trkpt lat="44.15294770378585" lon="12.317579724467699"><ele>19.0</ele><time>2026-03-22T09:12:21.002Z</time></trkpt><trkpt lat="44.152751775921146" lon="12.317832583335134"><ele>19.0</ele><time>2026-03-22T09:12:22.002Z</time></trkpt><trkpt lat="44.15255658549661" lon="12.318076735022327"><ele>19.0</ele><time>2026-03-22T09:12:23.002Z</time></trkpt><trkpt lat="44.15235726709244" lon="12.318329654128531"><ele>19.0</ele><time>2026-03-22T09:12:24.002Z</time></trkpt><trkpt lat="44.15215707191534" lon="12.318587422682462"><ele>19.0</ele><time>2026-03-22T09:12:25.002Z</time></trkpt><trkpt lat="44.15195772459649" lon="12.31884756076986"><ele>19.0</ele><time>2026-03-22T09:12:26.002Z</time></trkpt><trkpt lat="44.15175728560135" lon="12.319108534233525"><ele>19.5</ele><time>2026-03-22T09:12:27.002Z</time></trkpt><trkpt lat="44.15155112949073" lon="12.319372720316109"><ele>20.0</ele><time>2026-03-22T09:12:28.002Z</time></trkpt><trkpt lat="44.15134155319787" lon="12.319634684094199"><ele>19.0</ele><time>2026-03-22T09:12:29.002Z</time></trkpt><trkpt lat="44.151133527712155" lon="12.319899911991238"><ele>18.0</ele><time>2026-03-22T09:12:30.002Z</time></trkpt><trkpt lat="44.150926555965086" lon="12.320164450443734"><ele>18.0</ele><time>2026-03-22T09:12:31.002Z</time></trkpt><trkpt lat="44.15071865470082" lon="12.320428586609088"><ele>18.0</ele><time>2026-03-22T09:12:32.002Z</time></trkpt><trkpt lat="44.15051071843915" lon="12.320693995514066"><ele>18.5</ele><time>2026-03-22T09:12:33.002Z</time></trkpt><trkpt lat="44.150304907387984" lon="12.320959257215431"><ele>19.0</ele><time>2026-03-22T09:12:34.002Z</time></trkpt><trkpt lat="44.1500971531146" lon="12.321226172067202"><ele>18.5</ele><time>2026-03-22T09:12:35.002Z</time></trkpt><trkpt lat="44.149888742237586" lon="12.321494788602594"><ele>18.0</ele><time>2026-03-22T09:12:36.002Z</time></trkpt><trkpt lat="44.14968852104944" lon="12.321762253671384"><ele>17.5</ele><time>2026-03-22T09:12:37.002Z</time></trkpt><trkpt lat="44.149486102396565" lon="12.322029732739987"><ele>17.0</ele><time>2026-03-22T09:12:38.002Z</time></trkpt><trkpt lat="44.14928702129874" lon="12.322294088901339"><ele>17.0</ele><time>2026-03-22T09:12:39.002Z</time></trkpt><trkpt lat="44.14909405314114" lon="12.32255339449739"><ele>17.0</ele><time>2026-03-22T09:12:40.002Z</time></trkpt><trkpt lat="44.14891141330369" lon="12.322812350398518"><ele>17.5</ele><time>2026-03-22T09:12:41.002Z</time></trkpt><trkpt lat="44.14873483406278" lon="12.323073412749817"><ele>18.0</ele><time>2026-03-22T09:12:42.002Z</time></trkpt><trkpt lat="44.148554833403935" lon="12.323347475485274"><ele>18.0</ele><time>2026-03-22T09:12:43.002Z</time></trkpt><trkpt lat="44.14837596099354" lon="12.323622861454297"><ele>18.0</ele><time>2026-03-22T09:12:44.002Z</time></trkpt><trkpt lat="44.14819699363027" lon="12.323907780268721"><ele>18.0</ele><time>2026-03-22T09:12:45.002Z</time></trkpt><trkpt lat="44.148022065016576" lon="12.32419932127871"><ele>18.0</ele><time>2026-03-22T09:12:46.002Z</time></trkpt><trkpt lat="44.14785011550667" lon="12.324495153040507"><ele>17.0</ele><time>2026-03-22T09:12:47.002Z</time></trkpt><trkpt lat="44.14768272039329" lon="12.324784937786797"><ele>16.0</ele><time>2026-03-22T09:12:48.002Z</time></trkpt><trkpt lat="44.14752742425704" lon="12.325067588154328"><ele>16.0</ele><time>2026-03-22T09:12:49.002Z</time></trkpt><trkpt lat="44.14737919722506" lon="12.3253487762896"><ele>16.0</ele><time>2026-03-22T09:12:50.002Z</time></trkpt><trkpt lat="44.14723515113024" lon="12.325628334824156"><ele>16.5</ele><time>2026-03-22T09:12:51.002Z</time></trkpt><trkpt lat="44.14709677382561" lon="12.325915022035453"><ele>17.0</ele><time>2026-03-22T09:12:52.002Z</time></trkpt><trkpt lat="44.146952833705186" lon="12.326204601029842"><ele>16.5</ele><time>2026-03-22T09:12:53.002Z</time></trkpt><trkpt lat="44.146809943607266" lon="12.326502087951223"><ele>16.0</ele><time>2026-03-22T09:12:54.002Z</time></trkpt><trkpt lat="44.14666815950359" lon="12.326801088416014"><ele>16.5</ele><time>2026-03-22T09:12:55.002Z</time></trkpt><trkpt lat="44.146531975148285" lon="12.327103126390632"><ele>17.0</ele><time>2026-03-22T09:12:56.002Z</time></trkpt><trkpt lat="44.146398779625954" lon="12.32740934551884"><ele>17.0</ele><time>2026-03-22T09:12:57.002Z</time></trkpt><trkpt lat="44.14627094174272" lon="12.327719701870961"><ele>17.0</ele><time>2026-03-22T09:12:58.002Z</time></trkpt><trkpt lat="44.14614563105567" lon="12.328032350804294"><ele>17.5</ele><time>2026-03-22T09:12:59.002Z</time></trkpt><trkpt lat="44.146020025767115" lon="12.328353742333661"><ele>18.0</ele><time>2026-03-22T09:13:00.002Z</time></trkpt><trkpt lat="44.14589528907244" lon="12.328679165688857"><ele>18.5</ele><time>2026-03-22T09:13:01.002Z</time></trkpt><trkpt lat="44.145767403337146" lon="12.329012785143709"><ele>19.0</ele><time>2026-03-22T09:13:02.002Z</time></trkpt><trkpt lat="44.1456435724794" lon="12.329355627388265"><ele>18.5</ele><time>2026-03-22T09:13:03.002Z</time></trkpt><trkpt lat="44.145523793222196" lon="12.329702772018763"><ele>18.0</ele><time>2026-03-22T09:13:04.002Z</time></trkpt><trkpt lat="44.14541506583281" lon="12.33006113672025"><ele>18.0</ele><time>2026-03-22T09:13:05.002Z</time></trkpt><trkpt lat="44.14530979143334" lon="12.33041659035051"><ele>18.0</ele><time>2026-03-22T09:13:06.002Z</time></trkpt><trkpt lat="44.145205811107175" lon="12.330766812153852"><ele>17.5</ele><time>2026-03-22T09:13:07.002Z</time></trkpt><trkpt lat="44.14510020881826" lon="12.331115925661438"><ele>17.0</ele><time>2026-03-22T09:13:08.002Z</time></trkpt><trkpt lat="44.14499532778065" lon="12.331468590716566"><ele>17.0</ele><time>2026-03-22T09:13:09.002Z</time></trkpt><trkpt lat="44.14489071445316" lon="12.331820645689286"><ele>17.0</ele><time>2026-03-22T09:13:10.002Z</time></trkpt><trkpt lat="44.1447855982961" lon="12.332171855504583"><ele>17.0</ele><time>2026-03-22T09:13:11.002Z</time></trkpt><trkpt lat="44.144679036914425" lon="12.332515087263117"><ele>17.0</ele><time>2026-03-22T09:13:12.002Z</time></trkpt><trkpt lat="44.14457508693391" lon="12.332857338193552"><ele>18.0</ele><time>2026-03-22T09:13:13.002Z</time></trkpt><trkpt lat="44.144468530496425" lon="12.333197764692555"><ele>19.0</ele><time>2026-03-22T09:13:14.002Z</time></trkpt><trkpt lat="44.14436386926635" lon="12.33353658380528"><ele>19.0</ele><time>2026-03-22T09:13:15.002Z</time></trkpt><trkpt lat="44.1442595231262" lon="12.333882556276258"><ele>19.0</ele><time>2026-03-22T09:13:16.002Z</time></trkpt><trkpt lat="44.14415808571479" lon="12.334216974872545"><ele>19.0</ele><time>2026-03-22T09:13:17.002Z</time></trkpt><trkpt lat="44.144056503342746" lon="12.334544741322299"><ele>19.0</ele><time>2026-03-22T09:13:18.002Z</time></trkpt><trkpt lat="44.14395893076703" lon="12.334870577969914"><ele>17.5</ele><time>2026-03-22T09:13:19.002Z</time></trkpt><trkpt lat="44.1438556786911" lon="12.33520392277198"><ele>16.0</ele><time>2026-03-22T09:13:20.002Z</time></trkpt><trkpt lat="44.14375199566555" lon="12.335534718091942"><ele>16.5</ele><time>2026-03-22T09:13:21.002Z</time></trkpt><trkpt lat="44.143646936614985" lon="12.335864922479217"><ele>17.0</ele><time>2026-03-22T09:13:22.002Z</time></trkpt><trkpt lat="44.143547461765294" lon="12.336198260372475"><ele>17.5</ele><time>2026-03-22T09:13:23.002Z</time></trkpt><trkpt lat="44.14344593078933" lon="12.336527705487615"><ele>18.0</ele><time>2026-03-22T09:13:24.002Z</time></trkpt><trkpt lat="44.14334676545451" lon="12.336854625381466"><ele>18.0</ele><time>2026-03-22T09:13:25.002Z</time></trkpt><trkpt lat="44.14324828256132" lon="12.337183479754191"><ele>18.0</ele><time>2026-03-22T09:13:26.002Z</time></trkpt><trkpt lat="44.143151928119586" lon="12.33751270680076"><ele>17.5</ele><time>2026-03-22T09:13:27.002Z</time></trkpt><trkpt lat="44.143049383722015" lon="12.337840991229246"><ele>17.0</ele><time>2026-03-22T09:13:28.001Z</time></trkpt><trkpt lat="44.142954901111935" lon="12.338162366041578"><ele>16.0</ele><time>2026-03-22T09:13:29.001Z</time></trkpt><trkpt lat="44.142854509410945" lon="12.338485260233268"><ele>15.0</ele><time>2026-03-22T09:13:30.002Z</time></trkpt><trkpt lat="44.14275577846603" lon="12.338807930643465"><ele>14.5</ele><time>2026-03-22T09:13:31.002Z</time></trkpt><trkpt lat="44.1426566217713" lon="12.339128846162454"><ele>14.0</ele><time>2026-03-22T09:13:32.002Z</time></trkpt><trkpt lat="44.142553358114284" lon="12.339456469994216"><ele>14.5</ele><time>2026-03-22T09:13:33.001Z</time></trkpt><trkpt lat="44.14245231882425" lon="12.33978722912108"><ele>15.0</ele><time>2026-03-22T09:13:34.002Z</time></trkpt><trkpt lat="44.14234950569767" lon="12.340115969919351"><ele>15.5</ele><time>2026-03-22T09:13:35.002Z</time></trkpt><trkpt lat="44.14224694448125" lon="12.340445157275173"><ele>16.0</ele><time>2026-03-22T09:13:36.002Z</time></trkpt><trkpt lat="44.1421469712216" lon="12.340774827200706"><ele>16.0</ele><time>2026-03-22T09:13:37.002Z</time></trkpt><trkpt lat="44.142047854227265" lon="12.341101927243315"><ele>16.0</ele><time>2026-03-22T09:13:38.002Z</time></trkpt><trkpt lat="44.141948263688114" lon="12.34143420778137"><ele>16.5</ele><time>2026-03-22T09:13:39.002Z</time></trkpt><trkpt lat="44.14184842163122" lon="12.34176311485609"><ele>17.0</ele><time>2026-03-22T09:13:40.002Z</time></trkpt><trkpt lat="44.141748616299914" lon="12.342089509176965"><ele>17.0</ele><time>2026-03-22T09:13:41.002Z</time></trkpt><trkpt lat="44.141650945511756" lon="12.342416275639772"><ele>17.0</ele><time>2026-03-22T09:13:42.002Z</time></trkpt><trkpt lat="44.141552956003856" lon="12.34274220523089"><ele>15.5</ele><time>2026-03-22T09:13:43.002Z</time></trkpt><trkpt lat="44.141453705597435" lon="12.343064353125559"><ele>14.0</ele><time>2026-03-22T09:13:44.002Z</time></trkpt><trkpt lat="44.1413540919329" lon="12.343391702475278"><ele>14.0</ele><time>2026-03-22T09:13:45.002Z</time></trkpt><trkpt lat="44.14125640394285" lon="12.343718854673105"><ele>14.0</ele><time>2026-03-22T09:13:46.002Z</time></trkpt><trkpt lat="44.14115737674762" lon="12.344046144136982"><ele>14.0</ele><time>2026-03-22T09:13:47.002Z</time></trkpt><trkpt lat="44.141056590993834" lon="12.344364015254433"><ele>14.0</ele><time>2026-03-22T09:13:48.002Z</time></trkpt><trkpt lat="44.14095445787515" lon="12.344692260509182"><ele>13.5</ele><time>2026-03-22T09:13:49.002Z</time></trkpt><trkpt lat="44.140850292760504" lon="12.345034399303279"><ele>13.0</ele><time>2026-03-22T09:13:50.002Z</time></trkpt><trkpt lat="44.14074281313761" lon="12.345389154344524"><ele>14.5</ele><time>2026-03-22T09:13:51.002Z</time></trkpt><trkpt lat="44.14063542235828" lon="12.345748113807675"><ele>16.0</ele><time>2026-03-22T09:13:52.002Z</time></trkpt><trkpt lat="44.14052705898502" lon="12.346112890062285"><ele>16.5</ele><time>2026-03-22T09:13:53.002Z</time></trkpt><trkpt lat="44.14041757434187" lon="12.346489587964937"><ele>17.0</ele><time>2026-03-22T09:13:54.002Z</time></trkpt><trkpt lat="44.14030414702137" lon="12.346874713393879"><ele>16.5</ele><time>2026-03-22T09:13:55.002Z</time></trkpt><trkpt lat="44.14018995450239" lon="12.347267904317915"><ele>16.0</ele><time>2026-03-22T09:13:56.002Z</time></trkpt><trkpt lat="44.140071765199544" lon="12.347667152899053"><ele>15.5</ele><time>2026-03-22T09:13:57.002Z</time></trkpt><trkpt lat="44.13994970836575" lon="12.348066049564387"><ele>15.0</ele><time>2026-03-22T09:13:58.002Z</time></trkpt><trkpt lat="44.13982156262397" lon="12.348468054088753"><ele>14.0</ele><time>2026-03-22T09:13:59.002Z</time></trkpt><trkpt lat="44.13970136216359" lon="12.348881313116507"><ele>13.0</ele><time>2026-03-22T09:14:00.002Z</time></trkpt><trkpt lat="44.13957562480641" lon="12.34928639790295"><ele>13.0</ele><time>2026-03-22T09:14:01.002Z</time></trkpt><trkpt lat="44.13945106832631" lon="12.34968841989087"><ele>13.0</ele><time>2026-03-22T09:14:02.002Z</time></trkpt><trkpt lat="44.13933043224111" lon="12.350084379253081"><ele>13.0</ele><time>2026-03-22T09:14:03.002Z</time></trkpt><trkpt lat="44.13921803863847" lon="12.350472154200027"><ele>13.0</ele><time>2026-03-22T09:14:04.002Z</time></trkpt><trkpt lat="44.13910218147731" lon="12.35084851332933"><ele>13.0</ele><time>2026-03-22T09:14:05.002Z</time></trkpt><trkpt lat="44.13898533028216" lon="12.351225433645771"><ele>13.0</ele><time>2026-03-22T09:14:06.002Z</time></trkpt><trkpt lat="44.13886400334982" lon="12.351601716469103"><ele>12.5</ele><time>2026-03-22T09:14:07.001Z</time></trkpt><trkpt lat="44.138735835318826" lon="12.351978945793626"><ele>12.0</ele><time>2026-03-22T09:14:08.001Z</time></trkpt><trkpt lat="44.13861514427545" lon="12.35234748728087"><ele>13.0</ele><time>2026-03-22T09:14:09.001Z</time></trkpt><trkpt lat="44.13850464036302" lon="12.352707078277065"><ele>14.0</ele><time>2026-03-22T09:14:10.001Z</time></trkpt><trkpt lat="44.138401158065804" lon="12.353059474217359"><ele>14.0</ele><time>2026-03-22T09:14:11.001Z</time></trkpt><trkpt lat="44.138299599268656" lon="12.353389266940136"><ele>14.0</ele><time>2026-03-22T09:14:12.001Z</time></trkpt><trkpt lat="44.13820112115424" lon="12.353716740936482"><ele>13.5</ele><time>2026-03-22T09:14:13.001Z</time></trkpt><trkpt lat="44.138096205324246" lon="12.354047679384891"><ele>13.0</ele><time>2026-03-22T09:14:14.001Z</time></trkpt><trkpt lat="44.137994912294985" lon="12.35437352993408"><ele>13.0</ele><time>2026-03-22T09:14:15.001Z</time></trkpt><trkpt lat="44.13789255166254" lon="12.354699333930109"><ele>13.0</ele><time>2026-03-22T09:14:16.001Z</time></trkpt><trkpt lat="44.137794957445315" lon="12.355028581295768"><ele>12.0</ele><time>2026-03-22T09:14:17.001Z</time></trkpt><trkpt lat="44.13769501242413" lon="12.35535923529235"><ele>11.0</ele><time>2026-03-22T09:14:18.001Z</time></trkpt><trkpt lat="44.137592483279306" lon="12.355686643381668"><ele>11.0</ele><time>2026-03-22T09:14:19.001Z</time></trkpt><trkpt lat="44.13749336727493" lon="12.356012970103993"><ele>11.0</ele><time>2026-03-22T09:14:20.001Z</time></trkpt><trkpt lat="44.137394741370215" lon="12.356339904668362"><ele>12.0</ele><time>2026-03-22T09:14:21.001Z</time></trkpt><trkpt lat="44.13729584841744" lon="12.356670001273503"><ele>13.0</ele><time>2026-03-22T09:14:22.001Z</time></trkpt><trkpt lat="44.13719392456463" lon="12.35699944328654"><ele>12.5</ele><time>2026-03-22T09:14:23.001Z</time></trkpt><trkpt lat="44.13709080298917" lon="12.357326532571317"><ele>12.0</ele><time>2026-03-22T09:14:24.001Z</time></trkpt><trkpt lat="44.136988889452915" lon="12.35765868205512"><ele>12.0</ele><time>2026-03-22T09:14:25.001Z</time></trkpt><trkpt lat="44.136886643341796" lon="12.357987972066997"><ele>12.0</ele><time>2026-03-22T09:14:26.001Z</time></trkpt><trkpt lat="44.13678536503078" lon="12.358321937141037"><ele>12.0</ele><time>2026-03-22T09:14:27.001Z</time></trkpt><trkpt lat="44.13668550836024" lon="12.358657416570495"><ele>12.0</ele><time>2026-03-22T09:14:28.001Z</time></trkpt><trkpt lat="44.136580133934594" lon="12.358988706403753"><ele>11.5</ele><time>2026-03-22T09:14:29.001Z</time></trkpt><trkpt lat="44.13648029250069" lon="12.359319082835752"><ele>11.0</ele><time>2026-03-22T09:14:30.001Z</time></trkpt><trkpt lat="44.13638017372143" lon="12.359655888360841"><ele>11.0</ele><time>2026-03-22T09:14:31.001Z</time></trkpt><trkpt lat="44.136272658358514" lon="12.360007932836536"><ele>11.0</ele><time>2026-03-22T09:14:32.001Z</time></trkpt><trkpt lat="44.13616212819664" lon="12.36035572048206"><ele>10.0</ele><time>2026-03-22T09:14:33.001Z</time></trkpt><trkpt lat="44.136055437518735" lon="12.360699502140216"><ele>9.0</ele><time>2026-03-22T09:14:34.001Z</time></trkpt><trkpt lat="44.135955335006045" lon="12.36104320625913"><ele>10.0</ele><time>2026-03-22T09:14:35.001Z</time></trkpt><trkpt lat="44.135851182254015" lon="12.36139135043551"><ele>11.0</ele><time>2026-03-22T09:14:36.001Z</time></trkpt><trkpt lat="44.135741727467845" lon="12.36174045109405"><ele>12.0</ele><time>2026-03-22T09:14:37.001Z</time></trkpt><trkpt lat="44.13563553190273" lon="12.362084825830317"><ele>13.0</ele><time>2026-03-22T09:14:38.001Z</time></trkpt><trkpt lat="44.135528772290385" lon="12.362420999727512"><ele>13.5</ele><time>2026-03-22T09:14:39.001Z</time></trkpt><trkpt lat="44.13542652363807" lon="12.362763409136168"><ele>14.0</ele><time>2026-03-22T09:14:40.001Z</time></trkpt><trkpt lat="44.1353266820018" lon="12.363096843909613"><ele>12.5</ele><time>2026-03-22T09:14:41.001Z</time></trkpt><trkpt lat="44.13522450008547" lon="12.363433158148824"><ele>11.0</ele><time>2026-03-22T09:14:42.001Z</time></trkpt><trkpt lat="44.135122147460734" lon="12.363761902457105"><ele>10.5</ele><time>2026-03-22T09:14:43.001Z</time></trkpt><trkpt lat="44.13501992089838" lon="12.364087766584742"><ele>10.0</ele><time>2026-03-22T09:14:44.001Z</time></trkpt><trkpt lat="44.13491594276892" lon="12.364419437924912"><ele>11.0</ele><time>2026-03-22T09:14:45.001Z</time></trkpt><trkpt lat="44.134813222157355" lon="12.36475433209052"><ele>12.0</ele><time>2026-03-22T09:14:46.001Z</time></trkpt><trkpt lat="44.13471033363265" lon="12.365090204782309"><ele>12.0</ele><time>2026-03-22T09:14:47.001Z</time></trkpt><trkpt lat="44.1346071751378" lon="12.365430415609026"><ele>12.0</ele><time>2026-03-22T09:14:48.001Z</time></trkpt><trkpt lat="44.13450383117795" lon="12.365772437726763"><ele>11.5</ele><time>2026-03-22T09:14:49.001Z</time></trkpt><trkpt lat="44.13440419076386" lon="12.36611543808838"><ele>11.0</ele><time>2026-03-22T09:14:50.001Z</time></trkpt><trkpt lat="44.13429938986639" lon="12.366458920687135"><ele>11.0</ele><time>2026-03-22T09:14:51.001Z</time></trkpt><trkpt lat="44.13419298012915" lon="12.366799134415702"><ele>11.0</ele><time>2026-03-22T09:14:52.001Z</time></trkpt><trkpt lat="44.13408485786798" lon="12.36715207821744"><ele>11.5</ele><time>2026-03-22T09:14:53.001Z</time></trkpt><trkpt lat="44.133971957859494" lon="12.36750651681086"><ele>12.0</ele><time>2026-03-22T09:14:54.001Z</time></trkpt><trkpt lat="44.133857600639004" lon="12.367863373539992"><ele>13.0</ele><time>2026-03-22T09:14:55.001Z</time></trkpt><trkpt lat="44.133743335545425" lon="12.368218168628191"><ele>14.0</ele><time>2026-03-22T09:14:56.001Z</time></trkpt><trkpt lat="44.133620845734946" lon="12.368570496649143"><ele>14.5</ele><time>2026-03-22T09:14:57.001Z</time></trkpt><trkpt lat="44.133493318083616" lon="12.36891618336195"><ele>15.0</ele><time>2026-03-22T09:14:58.001Z</time></trkpt><trkpt lat="44.13336845189291" lon="12.369256594011386"><ele>15.0</ele><time>2026-03-22T09:14:59.001Z</time></trkpt><trkpt lat="44.13323532749449" lon="12.369597071444005"><ele>15.0</ele><time>2026-03-22T09:15:00.001Z</time></trkpt><trkpt lat="44.13309884225532" lon="12.369939993453427"><ele>13.0</ele><time>2026-03-22T09:15:01.001Z</time></trkpt><trkpt lat="44.1329593343707" lon="12.370274682705244"><ele>11.0</ele><time>2026-03-22T09:15:02.001Z</time></trkpt><trkpt lat="44.13281242609449" lon="12.370600748553377"><ele>11.0</ele><time>2026-03-22T09:15:03.001Z</time></trkpt><trkpt lat="44.13266269311135" lon="12.370927403547624"><ele>11.0</ele><time>2026-03-22T09:15:04.001Z</time></trkpt><trkpt lat="44.132509597283885" lon="12.371251420933614"><ele>11.5</ele><time>2026-03-22T09:15:05.001Z</time></trkpt><trkpt lat="44.13235507488751" lon="12.371578143751451"><ele>12.0</ele><time>2026-03-22T09:15:06.001Z</time></trkpt><trkpt lat="44.13219877444481" lon="12.371897888906618"><ele>11.5</ele><time>2026-03-22T09:15:07.001Z</time></trkpt><trkpt lat="44.13203658138096" lon="12.372212068196557"><ele>11.0</ele><time>2026-03-22T09:15:08.001Z</time></trkpt><trkpt lat="44.131870930952225" lon="12.372521248333918"><ele>11.0</ele><time>2026-03-22T09:15:09.001Z</time></trkpt><trkpt lat="44.13170067913102" lon="12.372826802251646"><ele>11.0</ele><time>2026-03-22T09:15:10.001Z</time></trkpt><trkpt lat="44.13152710613111" lon="12.373129935197861"><ele>11.5</ele><time>2026-03-22T09:15:11.001Z</time></trkpt><trkpt lat="44.13135124322387" lon="12.373428708971808"><ele>12.0</ele><time>2026-03-22T09:15:12.001Z</time></trkpt><trkpt lat="44.13117312502379" lon="12.373720933777474"><ele>12.0</ele><time>2026-03-22T09:15:13.001Z</time></trkpt><trkpt lat="44.1309935484343" lon="12.374007604878807"><ele>12.0</ele><time>2026-03-22T09:15:14.001Z</time></trkpt><trkpt lat="44.13081061004074" lon="12.374286814811612"><ele>12.5</ele><time>2026-03-22T09:15:15.001Z</time></trkpt><trkpt lat="44.13062902395005" lon="12.374562245492589"><ele>13.0</ele><time>2026-03-22T09:15:16.001Z</time></trkpt><trkpt lat="44.13044434029962" lon="12.374833137682366"><ele>13.5</ele><time>2026-03-22T09:15:17.001Z</time></trkpt><trkpt lat="44.13026192651931" lon="12.375097792574971"><ele>14.0</ele><time>2026-03-22T09:15:18.001Z</time></trkpt><trkpt lat="44.13007893504315" lon="12.375366113396582"><ele>14.0</ele><time>2026-03-22T09:15:19.001Z</time></trkpt><trkpt lat="44.12990071871698" lon="12.375629567049373"><ele>14.0</ele><time>2026-03-22T09:15:20.001Z</time></trkpt><trkpt lat="44.12972653470078" lon="12.375894578983752"><ele>14.0</ele><time>2026-03-22T09:15:21.001Z</time></trkpt><trkpt lat="44.12955060638626" lon="12.376157693909027"><ele>14.0</ele><time>2026-03-22T09:15:22.001Z</time></trkpt><trkpt lat="44.12936959726572" lon="12.3764204886369"><ele>14.0</ele><time>2026-03-22T09:15:23.001Z</time></trkpt><trkpt lat="44.12918916417206" lon="12.376689960849498"><ele>14.0</ele><time>2026-03-22T09:15:24.001Z</time></trkpt><trkpt lat="44.1290087070822" lon="12.376954701088316"><ele>13.0</ele><time>2026-03-22T09:15:25.001Z</time></trkpt><trkpt lat="44.128826538996954" lon="12.377224359152672"><ele>12.0</ele><time>2026-03-22T09:15:26.001Z</time></trkpt><trkpt lat="44.12864153974975" lon="12.377490555552077"><ele>12.0</ele><time>2026-03-22T09:15:27Z</time></trkpt><trkpt lat="44.12846213110839" lon="12.377758041927056"><ele>12.0</ele><time>2026-03-22T09:15:28Z</time></trkpt><trkpt lat="44.12828111013696" lon="12.37802290017298"><ele>12.5</ele><time>2026-03-22T09:15:29Z</time></trkpt><trkpt lat="44.12810149879877" lon="12.378286020294942"><ele>13.0</ele><time>2026-03-22T09:15:30Z</time></trkpt><trkpt lat="44.12792098202603" lon="12.378556061894251"><ele>13.0</ele><time>2026-03-22T09:15:31.001Z</time></trkpt><trkpt lat="44.1277427349199" lon="12.378824296556786"><ele>13.0</ele><time>2026-03-22T09:15:32.001Z</time></trkpt><trkpt lat="44.12756299746399" lon="12.379093471925826"><ele>12.5</ele><time>2026-03-22T09:15:33.001Z</time></trkpt><trkpt lat="44.12738445560255" lon="12.379362067571046"><ele>12.0</ele><time>2026-03-22T09:15:34Z</time></trkpt><trkpt lat="44.12719998281516" lon="12.379626797762011"><ele>11.5</ele><time>2026-03-22T09:15:35Z</time></trkpt><trkpt lat="44.12701480102454" lon="12.379897381542342"><ele>11.0</ele><time>2026-03-22T09:15:36Z</time></trkpt><trkpt lat="44.12682846706795" lon="12.380177862628559"><ele>11.0</ele><time>2026-03-22T09:15:37.001Z</time></trkpt><trkpt lat="44.126646321816374" lon="12.3804561298131"><ele>11.0</ele><time>2026-03-22T09:15:38.001Z</time></trkpt><trkpt lat="44.126462644472205" lon="12.380728887569218"><ele>11.0</ele><time>2026-03-22T09:15:39.001Z</time></trkpt><trkpt lat="44.12627768266401" lon="12.380999662093172"><ele>11.0</ele><time>2026-03-22T09:15:40Z</time></trkpt><trkpt lat="44.12609389823874" lon="12.38126779391049"><ele>11.0</ele><time>2026-03-22T09:15:41Z</time></trkpt><trkpt lat="44.125919258988425" lon="12.381523774019264"><ele>11.0</ele><time>2026-03-22T09:15:42Z</time></trkpt><trkpt lat="44.125761566949514" lon="12.381769051466712"><ele>11.5</ele><time>2026-03-22T09:15:43Z</time></trkpt><trkpt lat="44.12559640645582" lon="12.382023067288213"><ele>12.0</ele><time>2026-03-22T09:15:44Z</time></trkpt><trkpt lat="44.12542312036676" lon="12.382288575444353"><ele>12.0</ele><time>2026-03-22T09:15:45Z</time></trkpt><trkpt lat="44.125244503552715" lon="12.382561313045851"><ele>12.0</ele><time>2026-03-22T09:15:46Z</time></trkpt><trkpt lat="44.12507019883477" lon="12.382827180503508"><ele>11.0</ele><time>2026-03-22T09:15:47Z</time></trkpt><trkpt lat="44.12489821440224" lon="12.38309190403747"><ele>10.0</ele><time>2026-03-22T09:15:48Z</time></trkpt><trkpt lat="44.124725631252105" lon="12.383352147962217"><ele>10.0</ele><time>2026-03-22T09:15:49Z</time></trkpt><trkpt lat="44.12455161757323" lon="12.3836151885276"><ele>10.0</ele><time>2026-03-22T09:15:50Z</time></trkpt><trkpt lat="44.12437372072329" lon="12.38387983929115"><ele>10.0</ele><time>2026-03-22T09:15:51Z</time></trkpt><trkpt lat="44.124195037861156" lon="12.384143335404305"><ele>10.0</ele><time>2026-03-22T09:15:52Z</time></trkpt><trkpt lat="44.12401840330821" lon="12.384408351280458"><ele>10.5</ele><time>2026-03-22T09:15:53Z</time></trkpt><trkpt lat="44.12384034518586" lon="12.384671572886479"><ele>11.0</ele><time>2026-03-22T09:15:54Z</time></trkpt><trkpt lat="44.12366514659365" lon="12.38493800448796"><ele>11.0</ele><time>2026-03-22T09:15:55Z</time></trkpt><trkpt lat="44.123485943417194" lon="12.385200776185794"><ele>11.0</ele><time>2026-03-22T09:15:56Z</time></trkpt><trkpt lat="44.12330981200837" lon="12.385465424252134"><ele>11.0</ele><time>2026-03-22T09:15:57Z</time></trkpt><trkpt lat="44.123130828462386" lon="12.385737051020156"><ele>11.0</ele><time>2026-03-22T09:15:58Z</time></trkpt><trkpt lat="44.122954936106474" lon="12.38601191304598"><ele>11.0</ele><time>2026-03-22T09:15:59Z</time></trkpt><trkpt lat="44.12277370413289" lon="12.386298977964243"><ele>11.0</ele><time>2026-03-22T09:16:00Z</time></trkpt><trkpt lat="44.12259164616997" lon="12.386597044095957"><ele>11.0</ele><time>2026-03-22T09:16:01Z</time></trkpt><trkpt lat="44.122412139166585" lon="12.386901634123156"><ele>11.0</ele><time>2026-03-22T09:16:02Z</time></trkpt><trkpt lat="44.122237051522006" lon="12.387212356243449"><ele>11.0</ele><time>2026-03-22T09:16:03Z</time></trkpt><trkpt lat="44.12206583502084" lon="12.387522025134674"><ele>11.0</ele><time>2026-03-22T09:16:04Z</time></trkpt><trkpt lat="44.12189892299363" lon="12.387834731857465"><ele>11.5</ele><time>2026-03-22T09:16:05Z</time></trkpt><trkpt lat="44.121738037990575" lon="12.388153221517355"><ele>12.0</ele><time>2026-03-22T09:16:06Z</time></trkpt><trkpt lat="44.121577390677984" lon="12.388470977865042"><ele>12.0</ele><time>2026-03-22T09:16:07Z</time></trkpt><trkpt lat="44.121417550054666" lon="12.388791671197277"><ele>12.0</ele><time>2026-03-22T09:16:08Z</time></trkpt><trkpt lat="44.121263077680204" lon="12.38912493639822"><ele>12.0</ele><time>2026-03-22T09:16:09Z</time></trkpt><trkpt lat="44.12111356504722" lon="12.389450398244923"><ele>12.0</ele><time>2026-03-22T09:16:10Z</time></trkpt><trkpt lat="44.120964982781494" lon="12.38978187351964"><ele>12.0</ele><time>2026-03-22T09:16:11Z</time></trkpt><trkpt lat="44.12082812441948" lon="12.390114843079887"><ele>12.0</ele><time>2026-03-22T09:16:12Z</time></trkpt><trkpt lat="44.12069097382247" lon="12.390449584549993"><ele>13.5</ele><time>2026-03-22T09:16:13Z</time></trkpt><trkpt lat="44.12055587930134" lon="12.390780675927438"><ele>15.0</ele><time>2026-03-22T09:16:14Z</time></trkpt><trkpt lat="44.120423178151036" lon="12.39112054046405"><ele>14.0</ele><time>2026-03-22T09:16:15Z</time></trkpt><trkpt lat="44.12029957087829" lon="12.39146150731551"><ele>13.0</ele><time>2026-03-22T09:16:16Z</time></trkpt><trkpt lat="44.12017594731798" lon="12.391800841777258"><ele>13.0</ele><time>2026-03-22T09:16:17Z</time></trkpt><trkpt lat="44.12005747758554" lon="12.392144566228056"><ele>13.0</ele><time>2026-03-22T09:16:18Z</time></trkpt><trkpt lat="44.11994284919781" lon="12.392494680512156"><ele>13.0</ele><time>2026-03-22T09:16:19Z</time></trkpt><trkpt lat="44.119831639254656" lon="12.392844263655507"><ele>13.0</ele><time>2026-03-22T09:16:20Z</time></trkpt><trkpt lat="44.1197292604991" lon="12.393196863534811"><ele>13.0</ele><time>2026-03-22T09:16:21Z</time></trkpt><trkpt lat="44.119630612765924" lon="12.393545626901947"><ele>13.0</ele><time>2026-03-22T09:16:22Z</time></trkpt><trkpt lat="44.119533514238405" lon="12.393905412225722"><ele>13.0</ele><time>2026-03-22T09:16:23Z</time></trkpt><trkpt lat="44.11944068304163" lon="12.394263247705208"><ele>13.0</ele><time>2026-03-22T09:16:24Z</time></trkpt><trkpt lat="44.119354817501716" lon="12.394617606665934"><ele>13.0</ele><time>2026-03-22T09:16:25Z</time></trkpt><trkpt lat="44.11927619342379" lon="12.394971964742098"><ele>13.0</ele><time>2026-03-22T09:16:26Z</time></trkpt><trkpt lat="44.11919825061831" lon="12.395324618075039"><ele>13.0</ele><time>2026-03-22T09:16:27Z</time></trkpt><trkpt lat="44.11911896801374" lon="12.395682969295736"><ele>13.0</ele><time>2026-03-22T09:16:28Z</time></trkpt><trkpt lat="44.11904141189416" lon="12.396039482525726"><ele>12.5</ele><time>2026-03-22T09:16:29Z</time></trkpt><trkpt lat="44.118970332232294" lon="12.396392997899229"><ele>12.0</ele><time>2026-03-22T09:16:30Z</time></trkpt><trkpt lat="44.11890155588549" lon="12.396746616294312"><ele>12.0</ele><time>2026-03-22T09:16:31Z</time></trkpt><trkpt lat="44.118824868065765" lon="12.397093846327078"><ele>12.0</ele><time>2026-03-22T09:16:32Z</time></trkpt><trkpt lat="44.11874917284957" lon="12.39745633056006"><ele>12.5</ele><time>2026-03-22T09:16:33Z</time></trkpt><trkpt lat="44.11867763945392" lon="12.397822088389738"><ele>13.0</ele><time>2026-03-22T09:16:34Z</time></trkpt><trkpt lat="44.11860410476751" lon="12.398174493097255"><ele>13.5</ele><time>2026-03-22T09:16:35Z</time></trkpt><trkpt lat="44.11853535077934" lon="12.398534464979665"><ele>14.0</ele><time>2026-03-22T09:16:36Z</time></trkpt><trkpt lat="44.1184677223736" lon="12.398895783139835"><ele>14.5</ele><time>2026-03-22T09:16:37Z</time></trkpt><trkpt lat="44.11839429556886" lon="12.399257849472288"><ele>15.0</ele><time>2026-03-22T09:16:38Z</time></trkpt><trkpt lat="44.118318275861924" lon="12.399612547644693"><ele>14.5</ele><time>2026-03-22T09:16:39Z</time></trkpt><trkpt lat="44.118242101149185" lon="12.399970677095316"><ele>14.0</ele><time>2026-03-22T09:16:40Z</time></trkpt><trkpt lat="44.118162913559324" lon="12.400335246449249"><ele>14.0</ele><time>2026-03-22T09:16:41Z</time></trkpt><trkpt lat="44.118084773524465" lon="12.400701479765331"><ele>14.0</ele><time>2026-03-22T09:16:42Z</time></trkpt><trkpt lat="44.11800958269767" lon="12.401064793899826"><ele>14.0</ele><time>2026-03-22T09:16:43Z</time></trkpt><trkpt lat="44.11793151263294" lon="12.401424962427113"><ele>14.0</ele><time>2026-03-22T09:16:44Z</time></trkpt><trkpt lat="44.117855898775986" lon="12.401794194192863"><ele>14.0</ele><time>2026-03-22T09:16:45Z</time></trkpt><trkpt lat="44.11778193916125" lon="12.402159542538747"><ele>14.0</ele><time>2026-03-22T09:16:46Z</time></trkpt><trkpt lat="44.117708263634114" lon="12.402524044737346"><ele>14.5</ele><time>2026-03-22T09:16:47Z</time></trkpt><trkpt lat="44.11763150862257" lon="12.402886707569072"><ele>15.0</ele><time>2026-03-22T09:16:48Z</time></trkpt><trkpt lat="44.11755672988391" lon="12.403254055510008"><ele>15.0</ele><time>2026-03-22T09:16:49Z</time></trkpt><trkpt lat="44.11747917764262" lon="12.403620734033371"><ele>15.0</ele><time>2026-03-22T09:16:50Z</time></trkpt><trkpt lat="44.117402631634995" lon="12.403989891923084"><ele>14.5</ele><time>2026-03-22T09:16:51Z</time></trkpt><trkpt lat="44.117324942965354" lon="12.404363418982165"><ele>14.0</ele><time>2026-03-22T09:16:52Z</time></trkpt><trkpt lat="44.11724603119064" lon="12.40473491208614"><ele>13.5</ele><time>2026-03-22T09:16:53Z</time></trkpt><trkpt lat="44.11717049165512" lon="12.405110059804544"><ele>13.0</ele><time>2026-03-22T09:16:54Z</time></trkpt><trkpt lat="44.11709636319555" lon="12.405483661683403"><ele>13.0</ele><time>2026-03-22T09:16:55Z</time></trkpt><trkpt lat="44.11701696612186" lon="12.405852888722457"><ele>13.0</ele><time>2026-03-22T09:16:56Z</time></trkpt><trkpt lat="44.116944133762196" lon="12.40621631180158"><ele>13.0</ele><time>2026-03-22T09:16:57Z</time></trkpt><trkpt lat="44.116871050546635" lon="12.406564885862137"><ele>13.0</ele><time>2026-03-22T09:16:58Z</time></trkpt><trkpt lat="44.11680286643323" lon="12.406905882339142"><ele>14.0</ele><time>2026-03-22T09:16:59Z</time></trkpt><trkpt lat="44.116728111688715" lon="12.40725426300154"><ele>15.0</ele><time>2026-03-22T09:17:00Z</time></trkpt><trkpt lat="44.11665327943122" lon="12.407599297066346"><ele>15.0</ele><time>2026-03-22T09:17:01Z</time></trkpt><trkpt lat="44.11657995760776" lon="12.407943691419673"><ele>15.0</ele><time>2026-03-22T09:17:02Z</time></trkpt><trkpt lat="44.116507938699904" lon="12.408283649019246"><ele>14.5</ele><time>2026-03-22T09:17:03Z</time></trkpt><trkpt lat="44.11643856170567" lon="12.408620383132002"><ele>14.0</ele><time>2026-03-22T09:17:04Z</time></trkpt><trkpt lat="44.11636968776721" lon="12.408953990920711"><ele>13.5</ele><time>2026-03-22T09:17:05Z</time></trkpt><trkpt lat="44.11630119656558" lon="12.40929139140406"><ele>13.0</ele><time>2026-03-22T09:17:06Z</time></trkpt><trkpt lat="44.116233794108346" lon="12.409626476299165"><ele>12.5</ele><time>2026-03-22T09:17:07Z</time></trkpt><trkpt lat="44.11616662661141" lon="12.409957636518644"><ele>12.0</ele><time>2026-03-22T09:17:07.999Z</time></trkpt><trkpt lat="44.116098529160844" lon="12.410294194097611"><ele>13.0</ele><time>2026-03-22T09:17:08.999Z</time></trkpt><trkpt lat="44.11602836930154" lon="12.410632084407371"><ele>14.0</ele><time>2026-03-22T09:17:09.999Z</time></trkpt><trkpt lat="44.11595436245918" lon="12.410981974540828"><ele>13.5</ele><time>2026-03-22T09:17:10.999Z</time></trkpt><trkpt lat="44.11587615029037" lon="12.41133209401579"><ele>13.0</ele><time>2026-03-22T09:17:11.999Z</time></trkpt><trkpt lat="44.11579662474068" lon="12.411677354699984"><ele>13.5</ele><time>2026-03-22T09:17:12.999Z</time></trkpt><trkpt lat="44.11571155152756" lon="12.412018121155665"><ele>14.0</ele><time>2026-03-22T09:17:13.999Z</time></trkpt><trkpt lat="44.11561782845073" lon="12.412355136229168"><ele>14.0</ele><time>2026-03-22T09:17:14.999Z</time></trkpt><trkpt lat="44.11552049110539" lon="12.412688774027112"><ele>14.0</ele><time>2026-03-22T09:17:15.999Z</time></trkpt><trkpt lat="44.11542587191649" lon="12.413018947594878"><ele>14.0</ele><time>2026-03-22T09:17:16.999Z</time></trkpt><trkpt lat="44.11532032807733" lon="12.413347797724283"><ele>14.0</ele><time>2026-03-22T09:17:17.999Z</time></trkpt><trkpt lat="44.11521662541699" lon="12.413676812414872"><ele>14.0</ele><time>2026-03-22T09:17:18.999Z</time></trkpt><trkpt lat="44.115102812755666" lon="12.413998287364265"><ele>14.0</ele><time>2026-03-22T09:17:19.999Z</time></trkpt><trkpt lat="44.11498238548438" lon="12.4143166648107"><ele>13.5</ele><time>2026-03-22T09:17:20.999Z</time></trkpt><trkpt lat="44.11485315692905" lon="12.414627775197053"><ele>13.0</ele><time>2026-03-22T09:17:21.999Z</time></trkpt><trkpt lat="44.11472388680786" lon="12.41494353034509"><ele>13.0</ele><time>2026-03-22T09:17:22.999Z</time></trkpt><trkpt lat="44.114589913238206" lon="12.415263575573533"><ele>13.0</ele><time>2026-03-22T09:17:23.999Z</time></trkpt><trkpt lat="44.11445018341524" lon="12.415581493492684"><ele>14.0</ele><time>2026-03-22T09:17:24.999Z</time></trkpt><trkpt lat="44.114299806823745" lon="12.415896590920754"><ele>15.0</ele><time>2026-03-22T09:17:25.999Z</time></trkpt><trkpt lat="44.11415851955171" lon="12.416204473393101"><ele>14.0</ele><time>2026-03-22T09:17:26.999Z</time></trkpt><trkpt lat="44.11400498471537" lon="12.416509445565923"><ele>13.0</ele><time>2026-03-22T09:17:27.999Z</time></trkpt><trkpt lat="44.11384294466207" lon="12.41680538237607"><ele>13.0</ele><time>2026-03-22T09:17:28.999Z</time></trkpt><trkpt lat="44.11368255045181" lon="12.417095546321457"><ele>13.0</ele><time>2026-03-22T09:17:29.999Z</time></trkpt><trkpt lat="44.11352375615121" lon="12.417381651591946"><ele>14.0</ele><time>2026-03-22T09:17:30.999Z</time></trkpt><trkpt lat="44.11336002129823" lon="12.417657963717874"><ele>15.0</ele><time>2026-03-22T09:17:31.999Z</time></trkpt><trkpt lat="44.11317635547031" lon="12.41793767287566"><ele>15.0</ele><time>2026-03-22T09:17:32.999Z</time></trkpt><trkpt lat="44.11299121681886" lon="12.418212973841149"><ele>15.0</ele><time>2026-03-22T09:17:33.999Z</time></trkpt><trkpt lat="44.1128081826189" lon="12.418488855158737"><ele>15.0</ele><time>2026-03-22T09:17:34.999Z</time></trkpt><trkpt lat="44.112619472351064" lon="12.418767579953975"><ele>15.0</ele><time>2026-03-22T09:17:35.999Z</time></trkpt><trkpt lat="44.11243613859585" lon="12.419054224086008"><ele>15.0</ele><time>2026-03-22T09:17:36.999Z</time></trkpt><trkpt lat="44.112260793082726" lon="12.41933911636258"><ele>15.0</ele><time>2026-03-22T09:17:37.999Z</time></trkpt><trkpt lat="44.112074002040714" lon="12.419626764997837"><ele>15.0</ele><time>2026-03-22T09:17:38.999Z</time></trkpt><trkpt lat="44.11188806255226" lon="12.419910649854701"><ele>15.0</ele><time>2026-03-22T09:17:39.999Z</time></trkpt><trkpt lat="44.11170472726778" lon="12.42019721546493"><ele>15.0</ele><time>2026-03-22T09:17:40.999Z</time></trkpt><trkpt lat="44.11151948166887" lon="12.420483514068094"><ele>15.0</ele><time>2026-03-22T09:17:41.999Z</time></trkpt><trkpt lat="44.11133342970249" lon="12.420769561182345"><ele>15.0</ele><time>2026-03-22T09:17:42.999Z</time></trkpt><trkpt lat="44.11114698437363" lon="12.4210586996996"><ele>15.0</ele><time>2026-03-22T09:17:43.999Z</time></trkpt><trkpt lat="44.11096087743074" lon="12.421345785513763"><ele>15.5</ele><time>2026-03-22T09:17:44.999Z</time></trkpt><trkpt lat="44.110773791493365" lon="12.421634406695391"><ele>16.0</ele><time>2026-03-22T09:17:45.999Z</time></trkpt><trkpt lat="44.11058532532652" lon="12.421924809497126"><ele>16.5</ele><time>2026-03-22T09:17:46.999Z</time></trkpt><trkpt lat="44.11039902868085" lon="12.422214318928036"><ele>17.0</ele><time>2026-03-22T09:17:47.999Z</time></trkpt><trkpt lat="44.11021367972781" lon="12.422498166656034"><ele>17.0</ele><time>2026-03-22T09:17:48.999Z</time></trkpt><trkpt lat="44.110022953000204" lon="12.422785887227583"><ele>17.0</ele><time>2026-03-22T09:17:49.999Z</time></trkpt><trkpt lat="44.10983821675672" lon="12.423078517095956"><ele>16.0</ele><time>2026-03-22T09:17:50.999Z</time></trkpt><trkpt lat="44.109648159266044" lon="12.423370112366928"><ele>15.0</ele><time>2026-03-22T09:17:51.999Z</time></trkpt><trkpt lat="44.10945973426212" lon="12.423662324620327"><ele>15.5</ele><time>2026-03-22T09:17:52.999Z</time></trkpt><trkpt lat="44.10927061718765" lon="12.423955301788032"><ele>16.0</ele><time>2026-03-22T09:17:53.999Z</time></trkpt><trkpt lat="44.10907961908445" lon="12.424248690069836"><ele>16.0</ele><time>2026-03-22T09:17:54.999Z</time></trkpt><trkpt lat="44.108893956534295" lon="12.42453726966834"><ele>16.0</ele><time>2026-03-22T09:17:55.999Z</time></trkpt><trkpt lat="44.10872127717001" lon="12.424812755352615"><ele>16.0</ele><time>2026-03-22T09:17:56.999Z</time></trkpt><trkpt lat="44.108555685193856" lon="12.425073087298953"><ele>16.0</ele><time>2026-03-22T09:17:57.999Z</time></trkpt><trkpt lat="44.1083931999742" lon="12.425333465877777"><ele>16.0</ele><time>2026-03-22T09:17:58.999Z</time></trkpt><trkpt lat="44.108227893579524" lon="12.425605707973366"><ele>16.0</ele><time>2026-03-22T09:17:59.999Z</time></trkpt><trkpt lat="44.108068666459225" lon="12.425889727012235"><ele>16.0</ele><time>2026-03-22T09:18:00.999Z</time></trkpt><trkpt lat="44.107906231949485" lon="12.426183044692017"><ele>16.0</ele><time>2026-03-22T09:18:01.999Z</time></trkpt><trkpt lat="44.10774895154508" lon="12.426479088625015"><ele>17.0</ele><time>2026-03-22T09:18:02.999Z</time></trkpt><trkpt lat="44.1075874232284" lon="12.42678116846772"><ele>18.0</ele><time>2026-03-22T09:18:03.999Z</time></trkpt><trkpt lat="44.107427894372336" lon="12.427095906387477"><ele>17.5</ele><time>2026-03-22T09:18:04.999Z</time></trkpt><trkpt lat="44.1072718538779" lon="12.427413275431583"><ele>17.0</ele><time>2026-03-22T09:18:05.999Z</time></trkpt><trkpt lat="44.107116722972485" lon="12.427733005286939"><ele>17.0</ele><time>2026-03-22T09:18:06.999Z</time></trkpt><trkpt lat="44.10696816913971" lon="12.428052658753208"><ele>17.0</ele><time>2026-03-22T09:18:07.999Z</time></trkpt><trkpt lat="44.1068241823191" lon="12.428370027076694"><ele>17.0</ele><time>2026-03-22T09:18:08.999Z</time></trkpt><trkpt lat="44.106683049954576" lon="12.428685456457131"><ele>17.0</ele><time>2026-03-22T09:18:09.999Z</time></trkpt><trkpt lat="44.10654253640352" lon="12.42900333489032"><ele>17.0</ele><time>2026-03-22T09:18:10.999Z</time></trkpt><trkpt lat="44.106397783826814" lon="12.42931573439364"><ele>17.0</ele><time>2026-03-22T09:18:11.999Z</time></trkpt><trkpt lat="44.106254317850194" lon="12.429630520838314"><ele>16.0</ele><time>2026-03-22T09:18:12.999Z</time></trkpt><trkpt lat="44.106114595649686" lon="12.42993135435557"><ele>15.0</ele><time>2026-03-22T09:18:13.999Z</time></trkpt><trkpt lat="44.10598308015922" lon="12.430226000687599"><ele>15.0</ele><time>2026-03-22T09:18:14.999Z</time></trkpt><trkpt lat="44.10585087815844" lon="12.430517146192269"><ele>15.0</ele><time>2026-03-22T09:18:15.999Z</time></trkpt><trkpt lat="44.10571348909512" lon="12.430810961165847"><ele>15.5</ele><time>2026-03-22T09:18:16.999Z</time></trkpt><trkpt lat="44.10557869198252" lon="12.431111621763838"><ele>16.0</ele><time>2026-03-22T09:18:17.999Z</time></trkpt><trkpt lat="44.105438631690525" lon="12.43141416197724"><ele>16.0</ele><time>2026-03-22T09:18:18.999Z</time></trkpt><trkpt lat="44.105298539262286" lon="12.431722364643676"><ele>16.0</ele><time>2026-03-22T09:18:19.999Z</time></trkpt><trkpt lat="44.10515568381716" lon="12.432029632757528"><ele>16.0</ele><time>2026-03-22T09:18:20.999Z</time></trkpt><trkpt lat="44.10501505417852" lon="12.432337987212827"><ele>16.0</ele><time>2026-03-22T09:18:21.999Z</time></trkpt><trkpt lat="44.104880208401845" lon="12.432640294194625"><ele>16.5</ele><time>2026-03-22T09:18:22.999Z</time></trkpt><trkpt lat="44.10473828067636" lon="12.432943108319897"><ele>17.0</ele><time>2026-03-22T09:18:23.999Z</time></trkpt><trkpt lat="44.10460023884138" lon="12.433243974958996"><ele>17.0</ele><time>2026-03-22T09:18:24.999Z</time></trkpt><trkpt lat="44.1044631520876" lon="12.433542784269903"><ele>17.0</ele><time>2026-03-22T09:18:25.999Z</time></trkpt><trkpt lat="44.10433100365219" lon="12.433842826721197"><ele>17.0</ele><time>2026-03-22T09:18:26.999Z</time></trkpt><trkpt lat="44.10419480165872" lon="12.434146244125401"><ele>17.0</ele><time>2026-03-22T09:18:27.999Z</time></trkpt><trkpt lat="44.104058688902064" lon="12.434452015494688"><ele>17.0</ele><time>2026-03-22T09:18:28.999Z</time></trkpt><trkpt lat="44.10391977963276" lon="12.43475582703769"><ele>17.0</ele><time>2026-03-22T09:18:29.999Z</time></trkpt><trkpt lat="44.10378150963885" lon="12.435062281789094"><ele>17.0</ele><time>2026-03-22T09:18:30.999Z</time></trkpt><trkpt lat="44.103641544752534" lon="12.435363022830886"><ele>17.0</ele><time>2026-03-22T09:18:31.999Z</time></trkpt><trkpt lat="44.10350048786888" lon="12.435665753678643"><ele>17.0</ele><time>2026-03-22T09:18:32.999Z</time></trkpt><trkpt lat="44.10336110338978" lon="12.435970908494891"><ele>17.0</ele><time>2026-03-22T09:18:33.999Z</time></trkpt><trkpt lat="44.10322075459533" lon="12.436276914857638"><ele>17.0</ele><time>2026-03-22T09:18:34.999Z</time></trkpt><trkpt lat="44.10307882944463" lon="12.436586010621662"><ele>17.0</ele><time>2026-03-22T09:18:35.999Z</time></trkpt><trkpt lat="44.10293629487555" lon="12.43689295730578"><ele>17.0</ele><time>2026-03-22T09:18:36.999Z</time></trkpt><trkpt lat="44.10279430944097" lon="12.43720085489458"><ele>17.0</ele><time>2026-03-22T09:18:37.999Z</time></trkpt><trkpt lat="44.102651586742276" lon="12.437514209148155"><ele>17.0</ele><time>2026-03-22T09:18:38.999Z</time></trkpt><trkpt lat="44.10250625780047" lon="12.437831059665136"><ele>17.0</ele><time>2026-03-22T09:18:39.998Z</time></trkpt><trkpt lat="44.102355209418334" lon="12.438138370716269"><ele>18.0</ele><time>2026-03-22T09:18:40.998Z</time></trkpt><trkpt lat="44.10220695359292" lon="12.438445017307398"><ele>19.0</ele><time>2026-03-22T09:18:41.997Z</time></trkpt><trkpt lat="44.10205512939109" lon="12.438744834405695"><ele>19.0</ele><time>2026-03-22T09:18:42.997Z</time></trkpt><trkpt lat="44.101900315508885" lon="12.439049542529057"><ele>19.0</ele><time>2026-03-22T09:18:43.997Z</time></trkpt><trkpt lat="44.101747618892716" lon="12.439358873722785"><ele>19.0</ele><time>2026-03-22T09:18:44.996Z</time></trkpt><trkpt lat="44.1015913160662" lon="12.439665641722875"><ele>19.0</ele><time>2026-03-22T09:18:45.996Z</time></trkpt><trkpt lat="44.10143987189717" lon="12.439971876279428"><ele>19.0</ele><time>2026-03-22T09:18:46.996Z</time></trkpt><trkpt lat="44.101277882753216" lon="12.440279851562238"><ele>19.0</ele><time>2026-03-22T09:18:47.995Z</time></trkpt><trkpt lat="44.10111307644516" lon="12.440586711296634"><ele>19.0</ele><time>2026-03-22T09:18:48.995Z</time></trkpt><trkpt lat="44.100951921238035" lon="12.440892205802562"><ele>19.0</ele><time>2026-03-22T09:18:49.995Z</time></trkpt><trkpt lat="44.10078779638395" lon="12.441200893879415"><ele>19.0</ele><time>2026-03-22T09:18:50.995Z</time></trkpt><trkpt lat="44.1006209609328" lon="12.441501632441975"><ele>19.0</ele><time>2026-03-22T09:18:51.995Z</time></trkpt><trkpt lat="44.10046304656013" lon="12.441794536970342"><ele>19.0</ele><time>2026-03-22T09:18:52.994Z</time></trkpt><trkpt lat="44.10029668167077" lon="12.442081215506127"><ele>19.0</ele><time>2026-03-22T09:18:53.994Z</time></trkpt><trkpt lat="44.100123318411796" lon="12.4423751682856"><ele>18.5</ele><time>2026-03-22T09:18:54.994Z</time></trkpt><trkpt lat="44.09994717621052" lon="12.442674560346036"><ele>18.0</ele><time>2026-03-22T09:18:55.994Z</time></trkpt><trkpt lat="44.099768375729354" lon="12.442979359131234"><ele>18.0</ele><time>2026-03-22T09:18:56.994Z</time></trkpt><trkpt lat="44.09959176081325" lon="12.443282452547468"><ele>18.0</ele><time>2026-03-22T09:18:57.994Z</time></trkpt><trkpt lat="44.09941116159845" lon="12.443582678341235"><ele>18.0</ele><time>2026-03-22T09:18:58.993Z</time></trkpt><trkpt lat="44.09922763875212" lon="12.443882871202256"><ele>18.0</ele><time>2026-03-22T09:18:59.993Z</time></trkpt><trkpt lat="44.0990444700361" lon="12.444179409219121"><ele>18.5</ele><time>2026-03-22T09:19:00.993Z</time></trkpt><trkpt lat="44.0988603846832" lon="12.444471949406513"><ele>19.0</ele><time>2026-03-22T09:19:01.993Z</time></trkpt><trkpt lat="44.098674548472154" lon="12.444766666764334"><ele>19.0</ele><time>2026-03-22T09:19:02.993Z</time></trkpt><trkpt lat="44.09848444176715" lon="12.445055223625367"><ele>19.0</ele><time>2026-03-22T09:19:03.993Z</time></trkpt><trkpt lat="44.09829323943173" lon="12.445338203591707"><ele>19.5</ele><time>2026-03-22T09:19:04.993Z</time></trkpt><trkpt lat="44.09810037219686" lon="12.445622524959209"><ele>20.0</ele><time>2026-03-22T09:19:05.993Z</time></trkpt><trkpt lat="44.09790854174311" lon="12.445906638211035"><ele>20.0</ele><time>2026-03-22T09:19:06.993Z</time></trkpt><trkpt lat="44.09771607177419" lon="12.446192751931475"><ele>20.0</ele><time>2026-03-22T09:19:07.992Z</time></trkpt><trkpt lat="44.09751957205908" lon="12.446475048143192"><ele>20.5</ele><time>2026-03-22T09:19:08.992Z</time></trkpt><trkpt lat="44.09732561852011" lon="12.446758345863122"><ele>21.0</ele><time>2026-03-22T09:19:09.992Z</time></trkpt><trkpt lat="44.09713066922154" lon="12.447038463691474"><ele>20.5</ele><time>2026-03-22T09:19:10.992Z</time></trkpt><trkpt lat="44.096941210425236" lon="12.44730896883869"><ele>20.0</ele><time>2026-03-22T09:19:11.992Z</time></trkpt><trkpt lat="44.096755260532234" lon="12.44758044498874"><ele>20.0</ele><time>2026-03-22T09:19:12.992Z</time></trkpt><trkpt lat="44.09656850565248" lon="12.44785059400984"><ele>20.0</ele><time>2026-03-22T09:19:13.992Z</time></trkpt><trkpt lat="44.09638016591567" lon="12.448120390916802"><ele>20.5</ele><time>2026-03-22T09:19:14.992Z</time></trkpt><trkpt lat="44.0961919489148" lon="12.448392147408256"><ele>21.0</ele><time>2026-03-22T09:19:15.992Z</time></trkpt><trkpt lat="44.09600049439954" lon="12.448664949101552"><ele>20.0</ele><time>2026-03-22T09:19:16.992Z</time></trkpt><trkpt lat="44.09581034554129" lon="12.448938244546795"><ele>19.0</ele><time>2026-03-22T09:19:17.992Z</time></trkpt><trkpt lat="44.09562030034243" lon="12.44921136056587"><ele>19.0</ele><time>2026-03-22T09:19:18.992Z</time></trkpt><trkpt lat="44.09543126999528" lon="12.449484840476188"><ele>19.0</ele><time>2026-03-22T09:19:19.992Z</time></trkpt><trkpt lat="44.09524363432949" lon="12.449751608203961"><ele>19.0</ele><time>2026-03-22T09:19:20.992Z</time></trkpt><trkpt lat="44.095068540989345" lon="12.450003962344152"><ele>19.0</ele><time>2026-03-22T09:19:21.992Z</time></trkpt><trkpt lat="44.09489348975285" lon="12.450256684009815"><ele>19.0</ele><time>2026-03-22T09:19:22.992Z</time></trkpt><trkpt lat="44.09471627192263" lon="12.450508573705703"><ele>19.0</ele><time>2026-03-22T09:19:23.992Z</time></trkpt><trkpt lat="44.09453520485255" lon="12.450760996812525"><ele>19.0</ele><time>2026-03-22T09:19:24.992Z</time></trkpt><trkpt lat="44.094355146608436" lon="12.451012624653472"><ele>19.0</ele><time>2026-03-22T09:19:25.992Z</time></trkpt><trkpt lat="44.09417977083404" lon="12.451262343646738"><ele>20.0</ele><time>2026-03-22T09:19:26.992Z</time></trkpt><trkpt lat="44.09400258628618" lon="12.451513540804768"><ele>21.0</ele><time>2026-03-22T09:19:27.992Z</time></trkpt><trkpt lat="44.09382269449693" lon="12.451770188821621"><ele>21.0</ele><time>2026-03-22T09:19:28.992Z</time></trkpt><trkpt lat="44.09363908017415" lon="12.452033763521337"><ele>21.0</ele><time>2026-03-22T09:19:29.992Z</time></trkpt><trkpt lat="44.093449785023324" lon="12.452306319050813"><ele>21.0</ele><time>2026-03-22T09:19:30.992Z</time></trkpt><trkpt lat="44.09325919697302" lon="12.452578922118397"><ele>21.0</ele><time>2026-03-22T09:19:31.991Z</time></trkpt><trkpt lat="44.093065288055584" lon="12.452853545299837"><ele>21.0</ele><time>2026-03-22T09:19:32.991Z</time></trkpt><trkpt lat="44.092871697193004" lon="12.453129491904152"><ele>21.0</ele><time>2026-03-22T09:19:33.991Z</time></trkpt><trkpt lat="44.092678698401734" lon="12.45340912977987"><ele>21.0</ele><time>2026-03-22T09:19:34.991Z</time></trkpt><trkpt lat="44.09248606180219" lon="12.45368810815099"><ele>21.0</ele><time>2026-03-22T09:19:35.991Z</time></trkpt><trkpt lat="44.09229186459057" lon="12.453967010192367"><ele>21.0</ele><time>2026-03-22T09:19:36.991Z</time></trkpt><trkpt lat="44.09209430558551" lon="12.454250144681914"><ele>21.0</ele><time>2026-03-22T09:19:37.991Z</time></trkpt><trkpt lat="44.0918981856053" lon="12.454533100196553"><ele>21.0</ele><time>2026-03-22T09:19:38.99Z</time></trkpt><trkpt lat="44.09170356626765" lon="12.454814433590741"><ele>21.0</ele><time>2026-03-22T09:19:39.99Z</time></trkpt><trkpt lat="44.09151042748213" lon="12.455094500890507"><ele>20.0</ele><time>2026-03-22T09:19:40.99Z</time></trkpt><trkpt lat="44.09132056537744" lon="12.455372435136928"><ele>19.0</ele><time>2026-03-22T09:19:41.99Z</time></trkpt><trkpt lat="44.09113224284838" lon="12.455644454693962"><ele>19.0</ele><time>2026-03-22T09:19:42.99Z</time></trkpt><trkpt lat="44.09093894004424" lon="12.45591864711769"><ele>19.0</ele><time>2026-03-22T09:19:43.99Z</time></trkpt><trkpt lat="44.09074580504757" lon="12.45619195385524"><ele>19.5</ele><time>2026-03-22T09:19:44.99Z</time></trkpt><trkpt lat="44.09055305800313" lon="12.45646236212771"><ele>20.0</ele><time>2026-03-22T09:19:45.99Z</time></trkpt><trkpt lat="44.09036552666352" lon="12.456731300804064"><ele>20.0</ele><time>2026-03-22T09:19:46.99Z</time></trkpt><trkpt lat="44.090176498623144" lon="12.457001041404922"><ele>20.0</ele><time>2026-03-22T09:19:47.99Z</time></trkpt><trkpt lat="44.0899878384209" lon="12.45727113798881"><ele>20.0</ele><time>2026-03-22T09:19:48.99Z</time></trkpt><trkpt lat="44.0898003274932" lon="12.457540587988003"><ele>20.0</ele><time>2026-03-22T09:19:49.99Z</time></trkpt><trkpt lat="44.08960989850758" lon="12.457814610863572"><ele>20.0</ele><time>2026-03-22T09:19:50.99Z</time></trkpt><trkpt lat="44.08942059721624" lon="12.458079878829167"><ele>20.0</ele><time>2026-03-22T09:19:51.99Z</time></trkpt><trkpt lat="44.08922982902949" lon="12.458351437774052"><ele>20.5</ele><time>2026-03-22T09:19:52.99Z</time></trkpt><trkpt lat="44.089040432756484" lon="12.458624238263459"><ele>21.0</ele><time>2026-03-22T09:19:53.99Z</time></trkpt><trkpt lat="44.08884564524221" lon="12.458899206687915"><ele>22.0</ele><time>2026-03-22T09:19:54.99Z</time></trkpt><trkpt lat="44.088652534897115" lon="12.459176002229073"><ele>23.0</ele><time>2026-03-22T09:19:55.99Z</time></trkpt><trkpt lat="44.088462537807345" lon="12.459452775013885"><ele>23.0</ele><time>2026-03-22T09:19:56.99Z</time></trkpt><trkpt lat="44.08826982959099" lon="12.459727874226166"><ele>23.0</ele><time>2026-03-22T09:19:57.99Z</time></trkpt><trkpt lat="44.0880791660008" lon="12.460004731042304"><ele>23.0</ele><time>2026-03-22T09:19:58.99Z</time></trkpt><trkpt lat="44.08788354274935" lon="12.460275302571485"><ele>23.0</ele><time>2026-03-22T09:19:59.99Z</time></trkpt><trkpt lat="44.08769203485082" lon="12.46054650283821"><ele>23.0</ele><time>2026-03-22T09:20:00.99Z</time></trkpt><trkpt lat="44.08749656997844" lon="12.460812753742376"><ele>23.0</ele><time>2026-03-22T09:20:01.99Z</time></trkpt><trkpt lat="44.08730869524032" lon="12.46108258216348"><ele>24.0</ele><time>2026-03-22T09:20:02.99Z</time></trkpt><trkpt lat="44.08712019663011" lon="12.461348588294884"><ele>25.0</ele><time>2026-03-22T09:20:03.99Z</time></trkpt><trkpt lat="44.08693211571305" lon="12.461617932839044"><ele>25.0</ele><time>2026-03-22T09:20:04.99Z</time></trkpt><trkpt lat="44.086746299428846" lon="12.461884653116472"><ele>25.0</ele><time>2026-03-22T09:20:05.99Z</time></trkpt><trkpt lat="44.08656467100901" lon="12.462153466337947"><ele>24.5</ele><time>2026-03-22T09:20:06.99Z</time></trkpt><trkpt lat="44.08638479026112" lon="12.462420469386787"><ele>24.0</ele><time>2026-03-22T09:20:07.99Z</time></trkpt><trkpt lat="44.08620620065252" lon="12.462703030240272"><ele>23.5</ele><time>2026-03-22T09:20:08.99Z</time></trkpt><trkpt lat="44.08602300911504" lon="12.462975958228334"><ele>23.0</ele><time>2026-03-22T09:20:09.99Z</time></trkpt><trkpt lat="44.08583987006319" lon="12.463254625337465"><ele>22.0</ele><time>2026-03-22T09:20:10.99Z</time></trkpt><trkpt lat="44.085664540276575" lon="12.46354864852387"><ele>21.0</ele><time>2026-03-22T09:20:11.99Z</time></trkpt><trkpt lat="44.08549205134142" lon="12.463844292005804"><ele>21.0</ele><time>2026-03-22T09:20:12.99Z</time></trkpt><trkpt lat="44.085325171413366" lon="12.4641480501891"><ele>21.0</ele><time>2026-03-22T09:20:13.99Z</time></trkpt><trkpt lat="44.08515627656193" lon="12.46444927808532"><ele>21.0</ele><time>2026-03-22T09:20:14.99Z</time></trkpt><trkpt lat="44.08499064793282" lon="12.464749345841735"><ele>21.0</ele><time>2026-03-22T09:20:15.99Z</time></trkpt><trkpt lat="44.08482575570678" lon="12.465055457304198"><ele>21.0</ele><time>2026-03-22T09:20:16.99Z</time></trkpt><trkpt lat="44.08467029977974" lon="12.465364146742765"><ele>21.0</ele><time>2026-03-22T09:20:17.99Z</time></trkpt><trkpt lat="44.084516157460364" lon="12.465686599066288"><ele>21.5</ele><time>2026-03-22T09:20:18.99Z</time></trkpt><trkpt lat="44.08436437405764" lon="12.46600868377644"><ele>22.0</ele><time>2026-03-22T09:20:19.99Z</time></trkpt><trkpt lat="44.08421739047519" lon="12.46633647643034"><ele>22.0</ele><time>2026-03-22T09:20:20.99Z</time></trkpt><trkpt lat="44.084073742207416" lon="12.466669304098515"><ele>22.0</ele><time>2026-03-22T09:20:21.99Z</time></trkpt><trkpt lat="44.08394483181313" lon="12.466997729801646"><ele>22.5</ele><time>2026-03-22T09:20:22.99Z</time></trkpt><trkpt lat="44.08381015875118" lon="12.467328944114614"><ele>23.0</ele><time>2026-03-22T09:20:23.99Z</time></trkpt><trkpt lat="44.0836755538889" lon="12.467659725357796"><ele>22.5</ele><time>2026-03-22T09:20:24.99Z</time></trkpt><trkpt lat="44.0835537510839" lon="12.467995026406832"><ele>22.0</ele><time>2026-03-22T09:20:25.99Z</time></trkpt><trkpt lat="44.08343912829637" lon="12.468329395201883"><ele>22.0</ele><time>2026-03-22T09:20:26.99Z</time></trkpt><trkpt lat="44.0833225741085" lon="12.468656764865708"><ele>22.0</ele><time>2026-03-22T09:20:27.99Z</time></trkpt><trkpt lat="44.08320661410961" lon="12.468984301185966"><ele>21.5</ele><time>2026-03-22T09:20:28.99Z</time></trkpt><trkpt lat="44.08309143515404" lon="12.469325191579982"><ele>21.0</ele><time>2026-03-22T09:20:29.99Z</time></trkpt><trkpt lat="44.082982832523925" lon="12.469665962142983"><ele>22.0</ele><time>2026-03-22T09:20:30.99Z</time></trkpt><trkpt lat="44.082871072089375" lon="12.469997778768"><ele>23.0</ele><time>2026-03-22T09:20:31.99Z</time></trkpt><trkpt lat="44.082758109319805" lon="12.470334120236824"><ele>24.5</ele><time>2026-03-22T09:20:32.99Z</time></trkpt><trkpt lat="44.08264537667859" lon="12.470668638314915"><ele>26.0</ele><time>2026-03-22T09:20:33.99Z</time></trkpt><trkpt lat="44.08253144221646" lon="12.470997909525787"><ele>23.5</ele><time>2026-03-22T09:20:34.99Z</time></trkpt><trkpt lat="44.08240919251751" lon="12.471340145439356"><ele>21.0</ele><time>2026-03-22T09:20:35.99Z</time></trkpt><trkpt lat="44.08229532349141" lon="12.471690217604884"><ele>21.0</ele><time>2026-03-22T09:20:36.99Z</time></trkpt><trkpt lat="44.08218803465719" lon="12.472041195697635"><ele>21.0</ele><time>2026-03-22T09:20:37.99Z</time></trkpt><trkpt lat="44.08207728708835" lon="12.472382776186466"><ele>21.0</ele><time>2026-03-22T09:20:38.99Z</time></trkpt><trkpt lat="44.08196130821835" lon="12.47272663179332"><ele>21.0</ele><time>2026-03-22T09:20:39.99Z</time></trkpt><trkpt lat="44.0818480931491" lon="12.473081975239955"><ele>21.0</ele><time>2026-03-22T09:20:40.99Z</time></trkpt><trkpt lat="44.081733055923976" lon="12.473436832185646"><ele>21.0</ele><time>2026-03-22T09:20:41.99Z</time></trkpt><trkpt lat="44.08161143464894" lon="12.4737871973447"><ele>22.5</ele><time>2026-03-22T09:20:42.99Z</time></trkpt><trkpt lat="44.081493484489386" lon="12.474132908141966"><ele>24.0</ele><time>2026-03-22T09:20:43.99Z</time></trkpt><trkpt lat="44.08137383177396" lon="12.47448170088363"><ele>23.0</ele><time>2026-03-22T09:20:44.99Z</time></trkpt><trkpt lat="44.081259773528295" lon="12.474824315394923"><ele>22.0</ele><time>2026-03-22T09:20:45.99Z</time></trkpt><trkpt lat="44.08114746812141" lon="12.475160962800711"><ele>22.0</ele><time>2026-03-22T09:20:46.99Z</time></trkpt><trkpt lat="44.08103624176887" lon="12.475495853795325"><ele>22.0</ele><time>2026-03-22T09:20:47.99Z</time></trkpt><trkpt lat="44.080923990784996" lon="12.475831777556204"><ele>22.0</ele><time>2026-03-22T09:20:48.99Z</time></trkpt><trkpt lat="44.08080990398686" lon="12.476170146004012"><ele>22.0</ele><time>2026-03-22T09:20:49.99Z</time></trkpt><trkpt lat="44.080698126507556" lon="12.476505993590413"><ele>21.5</ele><time>2026-03-22T09:20:50.99Z</time></trkpt><trkpt lat="44.08059125793733" lon="12.476838752693112"><ele>21.0</ele><time>2026-03-22T09:20:51.99Z</time></trkpt><trkpt lat="44.08047617405636" lon="12.477166714155723"><ele>20.5</ele><time>2026-03-22T09:20:52.99Z</time></trkpt><trkpt lat="44.08036063691249" lon="12.47750048843044"><ele>20.0</ele><time>2026-03-22T09:20:53.99Z</time></trkpt><trkpt lat="44.0802423646444" lon="12.477833952162722"><ele>20.5</ele><time>2026-03-22T09:20:54.99Z</time></trkpt><trkpt lat="44.08012407954205" lon="12.47817542838809"><ele>21.0</ele><time>2026-03-22T09:20:55.99Z</time></trkpt><trkpt lat="44.08000912011113" lon="12.478519413626772"><ele>21.5</ele><time>2026-03-22T09:20:56.99Z</time></trkpt><trkpt lat="44.079891871513006" lon="12.478860520897173"><ele>22.0</ele><time>2026-03-22T09:20:57.99Z</time></trkpt><trkpt lat="44.07977703119644" lon="12.479205595314436"><ele>22.0</ele><time>2026-03-22T09:20:58.989Z</time></trkpt><trkpt lat="44.079658022388784" lon="12.479549859958949"><ele>22.0</ele><time>2026-03-22T09:20:59.989Z</time></trkpt><trkpt lat="44.07953930933037" lon="12.479894296122142"><ele>22.0</ele><time>2026-03-22T09:21:00.989Z</time></trkpt><trkpt lat="44.07942305671433" lon="12.480241776722664"><ele>22.0</ele><time>2026-03-22T09:21:01.989Z</time></trkpt><trkpt lat="44.07930714658521" lon="12.480585268458373"><ele>22.0</ele><time>2026-03-22T09:21:02.989Z</time></trkpt><trkpt lat="44.07919256095444" lon="12.480924277976122"><ele>22.0</ele><time>2026-03-22T09:21:03.989Z</time></trkpt><trkpt lat="44.07907466343219" lon="12.481270482168638"><ele>22.0</ele><time>2026-03-22T09:21:04.989Z</time></trkpt><trkpt lat="44.07895662652262" lon="12.481605691829827"><ele>22.0</ele><time>2026-03-22T09:21:05.989Z</time></trkpt><trkpt lat="44.078837619752875" lon="12.481945184895043"><ele>22.5</ele><time>2026-03-22T09:21:06.989Z</time></trkpt><trkpt lat="44.078722354862926" lon="12.482290396487464"><ele>23.0</ele><time>2026-03-22T09:21:07.989Z</time></trkpt><trkpt lat="44.07860283884498" lon="12.482639944483239"><ele>23.5</ele><time>2026-03-22T09:21:08.989Z</time></trkpt><trkpt lat="44.07847823600314" lon="12.482991974943248"><ele>24.0</ele><time>2026-03-22T09:21:09.989Z</time></trkpt><trkpt lat="44.078359233525156" lon="12.483350633974881"><ele>23.0</ele><time>2026-03-22T09:21:10.989Z</time></trkpt><trkpt lat="44.078236825453025" lon="12.483705604236624"><ele>22.0</ele><time>2026-03-22T09:21:11.989Z</time></trkpt><trkpt lat="44.07810363663423" lon="12.484053384133944"><ele>22.0</ele><time>2026-03-22T09:21:12.989Z</time></trkpt><trkpt lat="44.07797390567903" lon="12.484387545031037"><ele>22.0</ele><time>2026-03-22T09:21:13.989Z</time></trkpt><trkpt lat="44.07783969589369" lon="12.484720457046407"><ele>22.0</ele><time>2026-03-22T09:21:14.989Z</time></trkpt><trkpt lat="44.07770765515126" lon="12.485044209990313"><ele>22.0</ele><time>2026-03-22T09:21:15.989Z</time></trkpt><trkpt lat="44.07757118177209" lon="12.485364388509899"><ele>23.0</ele><time>2026-03-22T09:21:16.989Z</time></trkpt><trkpt lat="44.07743157305331" lon="12.485682192296444"><ele>24.0</ele><time>2026-03-22T09:21:17.989Z</time></trkpt><trkpt lat="44.07728806943044" lon="12.485992929167006"><ele>24.0</ele><time>2026-03-22T09:21:18.989Z</time></trkpt><trkpt lat="44.077135576241794" lon="12.486301598803674"><ele>24.0</ele><time>2026-03-22T09:21:19.989Z</time></trkpt><trkpt lat="44.0769787027087" lon="12.486603725267475"><ele>24.0</ele><time>2026-03-22T09:21:20.989Z</time></trkpt><trkpt lat="44.07681660910793" lon="12.486902781228952"><ele>24.0</ele><time>2026-03-22T09:21:21.989Z</time></trkpt><trkpt lat="44.07664935244722" lon="12.48719740620383"><ele>23.5</ele><time>2026-03-22T09:21:22.989Z</time></trkpt><trkpt lat="44.076475273725165" lon="12.48749352468188"><ele>23.0</ele><time>2026-03-22T09:21:23.989Z</time></trkpt><trkpt lat="44.076297371920546" lon="12.487773408024228"><ele>23.0</ele><time>2026-03-22T09:21:24.989Z</time></trkpt><trkpt lat="44.076113216051446" lon="12.488051999695562"><ele>23.0</ele><time>2026-03-22T09:21:25.989Z</time></trkpt><trkpt lat="44.07592467153981" lon="12.488325273722385"><ele>23.0</ele><time>2026-03-22T09:21:26.989Z</time></trkpt><trkpt lat="44.07573049196512" lon="12.488594203966116"><ele>23.0</ele><time>2026-03-22T09:21:27.989Z</time></trkpt><trkpt lat="44.07553051712733" lon="12.488857667844114"><ele>22.0</ele><time>2026-03-22T09:21:28.989Z</time></trkpt><trkpt lat="44.07532603679452" lon="12.48911562158921"><ele>21.0</ele><time>2026-03-22T09:21:29.989Z</time></trkpt><trkpt lat="44.075118625972316" lon="12.489364056794571"><ele>21.0</ele><time>2026-03-22T09:21:30.989Z</time></trkpt><trkpt lat="44.07490850436602" lon="12.489607573746106"><ele>21.0</ele><time>2026-03-22T09:21:31.989Z</time></trkpt><trkpt lat="44.074694995575825" lon="12.489847437624398"><ele>21.0</ele><time>2026-03-22T09:21:32.989Z</time></trkpt><trkpt lat="44.07447833244663" lon="12.490084500319613"><ele>21.0</ele><time>2026-03-22T09:21:33.989Z</time></trkpt><trkpt lat="44.07425438672631" lon="12.490313538751007"><ele>20.0</ele><time>2026-03-22T09:21:34.989Z</time></trkpt><trkpt lat="44.074026973204" lon="12.490534543709781"><ele>19.0</ele><time>2026-03-22T09:21:35.989Z</time></trkpt><trkpt lat="44.07379331385217" lon="12.490745533941839"><ele>19.0</ele><time>2026-03-22T09:21:36.989Z</time></trkpt><trkpt lat="44.073554460064095" lon="12.490946140171081"><ele>19.0</ele><time>2026-03-22T09:21:37.989Z</time></trkpt><trkpt lat="44.07330750555983" lon="12.491138240399334"><ele>20.0</ele><time>2026-03-22T09:21:38.989Z</time></trkpt><trkpt lat="44.07305888990507" lon="12.491321116829841"><ele>21.0</ele><time>2026-03-22T09:21:39.989Z</time></trkpt><trkpt lat="44.072805398666965" lon="12.491499255765628"><ele>21.0</ele><time>2026-03-22T09:21:40.989Z</time></trkpt><trkpt lat="44.072552358365414" lon="12.491668217851947"><ele>21.0</ele><time>2026-03-22T09:21:41.989Z</time></trkpt><trkpt lat="44.07229613206992" lon="12.491831284413784"><ele>21.0</ele><time>2026-03-22T09:21:42.989Z</time></trkpt><trkpt lat="44.07203924373207" lon="12.491974733197813"><ele>21.0</ele><time>2026-03-22T09:21:43.989Z</time></trkpt><trkpt lat="44.071784903429894" lon="12.492115655696987"><ele>21.0</ele><time>2026-03-22T09:21:44.988Z</time></trkpt><trkpt lat="44.071531700221186" lon="12.492246046160608"><ele>21.0</ele><time>2026-03-22T09:21:45.988Z</time></trkpt><trkpt lat="44.071274823145885" lon="12.49236348270582"><ele>21.0</ele><time>2026-03-22T09:21:46.988Z</time></trkpt><trkpt lat="44.07101507728837" lon="12.492483086922192"><ele>21.0</ele><time>2026-03-22T09:21:47.988Z</time></trkpt><trkpt lat="44.07075637097714" lon="12.492597226429062"><ele>21.0</ele><time>2026-03-22T09:21:48.987Z</time></trkpt><trkpt lat="44.07049888074964" lon="12.492711089002645"><ele>21.0</ele><time>2026-03-22T09:21:49.987Z</time></trkpt><trkpt lat="44.07024473766844" lon="12.492819124419563"><ele>21.5</ele><time>2026-03-22T09:21:50.988Z</time></trkpt><trkpt lat="44.06999135571874" lon="12.492926683558897"><ele>22.0</ele><time>2026-03-22T09:21:51.988Z</time></trkpt><trkpt lat="44.06974166053363" lon="12.493029040419128"><ele>22.5</ele><time>2026-03-22T09:21:52.988Z</time></trkpt><trkpt lat="44.06948937311005" lon="12.493125288682506"><ele>23.0</ele><time>2026-03-22T09:21:53.987Z</time></trkpt><trkpt lat="44.06924044618732" lon="12.493220931853939"><ele>23.5</ele><time>2026-03-22T09:21:54.987Z</time></trkpt><trkpt lat="44.06899741264443" lon="12.493321028602884"><ele>24.0</ele><time>2026-03-22T09:21:55.987Z</time></trkpt><trkpt lat="44.068754446188905" lon="12.493421670996343"><ele>24.0</ele><time>2026-03-22T09:21:56.987Z</time></trkpt><trkpt lat="44.068506783912255" lon="12.493509670145334"><ele>24.0</ele><time>2026-03-22T09:21:57.987Z</time></trkpt><trkpt lat="44.068264577777626" lon="12.49360670950981"><ele>22.5</ele><time>2026-03-22T09:21:58.987Z</time></trkpt><trkpt lat="44.06801548917061" lon="12.49370867990572"><ele>21.0</ele><time>2026-03-22T09:21:59.987Z</time></trkpt><trkpt lat="44.06775846804762" lon="12.493819338118433"><ele>21.0</ele><time>2026-03-22T09:22:00.987Z</time></trkpt><trkpt lat="44.067501773988546" lon="12.493938915568114"><ele>21.0</ele><time>2026-03-22T09:22:01.987Z</time></trkpt><trkpt lat="44.06723773539197" lon="12.494068592155177"><ele>21.0</ele><time>2026-03-22T09:22:02.987Z</time></trkpt><trkpt lat="44.066975084678816" lon="12.494208357771818"><ele>21.0</ele><time>2026-03-22T09:22:03.987Z</time></trkpt><trkpt lat="44.06671334920478" lon="12.49434893794941"><ele>21.0</ele><time>2026-03-22T09:22:04.987Z</time></trkpt><trkpt lat="44.06645803456437" lon="12.49449818364187"><ele>21.0</ele><time>2026-03-22T09:22:05.987Z</time></trkpt><trkpt lat="44.06620613725395" lon="12.494661093522087"><ele>21.0</ele><time>2026-03-22T09:22:06.987Z</time></trkpt><trkpt lat="44.065954571601544" lon="12.494833534157879"><ele>21.0</ele><time>2026-03-22T09:22:07.987Z</time></trkpt><trkpt lat="44.06570373954843" lon="12.495018882366427"><ele>20.5</ele><time>2026-03-22T09:22:08.987Z</time></trkpt><trkpt lat="44.06546362550813" lon="12.495216469316402"><ele>20.0</ele><time>2026-03-22T09:22:09.987Z</time></trkpt><trkpt lat="44.06522875480686" lon="12.495422852466964"><ele>20.5</ele><time>2026-03-22T09:22:10.987Z</time></trkpt><trkpt lat="44.06499994457574" lon="12.495643955742082"><ele>21.0</ele><time>2026-03-22T09:22:11.987Z</time></trkpt><trkpt lat="44.06477184468925" lon="12.495872658142954"><ele>21.0</ele><time>2026-03-22T09:22:12.987Z</time></trkpt><trkpt lat="44.06455685567423" lon="12.496110612530186"><ele>21.0</ele><time>2026-03-22T09:22:13.987Z</time></trkpt><trkpt lat="44.06434108604501" lon="12.49634903149695"><ele>21.5</ele><time>2026-03-22T09:22:14.987Z</time></trkpt><trkpt lat="44.064134417938554" lon="12.496599542171207"><ele>22.0</ele><time>2026-03-22T09:22:15.987Z</time></trkpt><trkpt lat="44.06393629269416" lon="12.49685244579963"><ele>21.0</ele><time>2026-03-22T09:22:16.987Z</time></trkpt><trkpt lat="44.06374489090292" lon="12.497117558016123"><ele>20.0</ele><time>2026-03-22T09:22:17.987Z</time></trkpt><trkpt lat="44.06356177400892" lon="12.497393153813938"><ele>20.0</ele><time>2026-03-22T09:22:18.987Z</time></trkpt><trkpt lat="44.06338483097402" lon="12.497672527724632"><ele>20.0</ele><time>2026-03-22T09:22:19.987Z</time></trkpt><trkpt lat="44.06321396111759" lon="12.497961833193871"><ele>21.0</ele><time>2026-03-22T09:22:20.987Z</time></trkpt><trkpt lat="44.063049009094826" lon="12.498261352038295"><ele>22.0</ele><time>2026-03-22T09:22:21.987Z</time></trkpt><trkpt lat="44.062887197050436" lon="12.498564371976595"><ele>22.0</ele><time>2026-03-22T09:22:22.987Z</time></trkpt><trkpt lat="44.06273107397665" lon="12.49887764876053"><ele>22.0</ele><time>2026-03-22T09:22:23.987Z</time></trkpt><trkpt lat="44.062578816520464" lon="12.499190498701616"><ele>21.5</ele><time>2026-03-22T09:22:24.987Z</time></trkpt><trkpt lat="44.062434438814556" lon="12.499505287918218"><ele>21.0</ele><time>2026-03-22T09:22:25.987Z</time></trkpt><trkpt lat="44.06229274685634" lon="12.499827195496334"><ele>21.0</ele><time>2026-03-22T09:22:26.987Z</time></trkpt><trkpt lat="44.06215344802048" lon="12.500154969119032"><ele>21.0</ele><time>2026-03-22T09:22:27.987Z</time></trkpt><trkpt lat="44.06201086043015" lon="12.500482963102144"><ele>20.0</ele><time>2026-03-22T09:22:28.987Z</time></trkpt><trkpt lat="44.0618721584576" lon="12.500826338110686"><ele>19.0</ele><time>2026-03-22T09:22:29.987Z</time></trkpt><trkpt lat="44.06173282941218" lon="12.5011696887229"><ele>17.5</ele><time>2026-03-22T09:22:30.987Z</time></trkpt><trkpt lat="44.06159687698239" lon="12.501511908211551"><ele>16.0</ele><time>2026-03-22T09:22:31.987Z</time></trkpt><trkpt lat="44.06146016663588" lon="12.501853596479435"><ele>16.0</ele><time>2026-03-22T09:22:32.987Z</time></trkpt><trkpt lat="44.06132478732159" lon="12.502189874522543"><ele>16.0</ele><time>2026-03-22T09:22:33.987Z</time></trkpt><trkpt lat="44.06119112516723" lon="12.502530287804126"><ele>16.0</ele><time>2026-03-22T09:22:34.987Z</time></trkpt><trkpt lat="44.061056223545286" lon="12.502867024897505"><ele>16.0</ele><time>2026-03-22T09:22:35.987Z</time></trkpt><trkpt lat="44.060920813578434" lon="12.503197678086128"><ele>16.5</ele><time>2026-03-22T09:22:36.987Z</time></trkpt><trkpt lat="44.06078959791101" lon="12.503536136365414"><ele>17.0</ele><time>2026-03-22T09:22:37.987Z</time></trkpt><trkpt lat="44.06065668044184" lon="12.503878729371122"><ele>19.5</ele><time>2026-03-22T09:22:38.987Z</time></trkpt><trkpt lat="44.06052396557464" lon="12.504216319468322"><ele>22.0</ele><time>2026-03-22T09:22:39.987Z</time></trkpt><trkpt lat="44.06039161453395" lon="12.504551638604864"><ele>21.0</ele><time>2026-03-22T09:22:40.987Z</time></trkpt><trkpt lat="44.06026122920631" lon="12.504876403521227"><ele>20.0</ele><time>2026-03-22T09:22:41.987Z</time></trkpt><trkpt lat="44.06013701951024" lon="12.505197707796075"><ele>20.0</ele><time>2026-03-22T09:22:42.987Z</time></trkpt><trkpt lat="44.06000921855622" lon="12.505512544487344"><ele>20.0</ele><time>2026-03-22T09:22:43.987Z</time></trkpt><trkpt lat="44.05988096279156" lon="12.505831688599454"><ele>20.0</ele><time>2026-03-22T09:22:44.987Z</time></trkpt><trkpt lat="44.059745777288775" lon="12.506147679193608"><ele>20.0</ele><time>2026-03-22T09:22:45.987Z</time></trkpt><trkpt lat="44.05961214041522" lon="12.50647499665272"><ele>21.5</ele><time>2026-03-22T09:22:46.987Z</time></trkpt><trkpt lat="44.05948231149699" lon="12.506804917500506"><ele>23.0</ele><time>2026-03-22T09:22:47.987Z</time></trkpt><trkpt lat="44.059356991629365" lon="12.507130467691702"><ele>23.0</ele><time>2026-03-22T09:22:48.987Z</time></trkpt><trkpt lat="44.059225947826924" lon="12.50745958447816"><ele>23.0</ele><time>2026-03-22T09:22:49.987Z</time></trkpt><trkpt lat="44.05909414713299" lon="12.507789060516153"><ele>21.0</ele><time>2026-03-22T09:22:50.987Z</time></trkpt><trkpt lat="44.05896390039986" lon="12.50811964327512"><ele>19.0</ele><time>2026-03-22T09:22:51.987Z</time></trkpt><trkpt lat="44.05883217429166" lon="12.508457054328538"><ele>19.0</ele><time>2026-03-22T09:22:52.987Z</time></trkpt><trkpt lat="44.058694340961345" lon="12.508801349200713"><ele>19.0</ele><time>2026-03-22T09:22:53.987Z</time></trkpt><trkpt lat="44.058554560263474" lon="12.509145397157146"><ele>19.0</ele><time>2026-03-22T09:22:54.987Z</time></trkpt><trkpt lat="44.058416695007324" lon="12.5094958798101"><ele>19.0</ele><time>2026-03-22T09:22:55.987Z</time></trkpt><trkpt lat="44.0582747331476" lon="12.509851014546198"><ele>19.0</ele><time>2026-03-22T09:22:56.987Z</time></trkpt><trkpt lat="44.058134135973305" lon="12.510208524175123"><ele>19.0</ele><time>2026-03-22T09:22:57.987Z</time></trkpt><trkpt lat="44.05799159395844" lon="12.510565584680586"><ele>19.0</ele><time>2026-03-22T09:22:58.987Z</time></trkpt><trkpt lat="44.057849050726965" lon="12.510924964330453"><ele>19.0</ele><time>2026-03-22T09:22:59.987Z</time></trkpt><trkpt lat="44.057709771555935" lon="12.511276003568419"><ele>18.5</ele><time>2026-03-22T09:23:00.987Z</time></trkpt><trkpt lat="44.0575700801634" lon="12.511632525608261"><ele>18.0</ele><time>2026-03-22T09:23:01.987Z</time></trkpt><trkpt lat="44.057430767888505" lon="12.51197510082466"><ele>18.0</ele><time>2026-03-22T09:23:02.987Z</time></trkpt><trkpt lat="44.05729423233497" lon="12.512319715439805"><ele>18.0</ele><time>2026-03-22T09:23:03.987Z</time></trkpt><trkpt lat="44.05715746804104" lon="12.512665144009762"><ele>19.0</ele><time>2026-03-22T09:23:04.987Z</time></trkpt><trkpt lat="44.057022488077095" lon="12.513012776551866"><ele>20.0</ele><time>2026-03-22T09:23:05.987Z</time></trkpt><trkpt lat="44.056885928028635" lon="12.513361038043715"><ele>20.0</ele><time>2026-03-22T09:23:06.987Z</time></trkpt><trkpt lat="44.056749577492745" lon="12.513701680425537"><ele>20.0</ele><time>2026-03-22T09:23:07.987Z</time></trkpt><trkpt lat="44.05661638837822" lon="12.514039513019553"><ele>19.0</ele><time>2026-03-22T09:23:08.987Z</time></trkpt><trkpt lat="44.05647923567341" lon="12.514381529512226"><ele>18.0</ele><time>2026-03-22T09:23:09.987Z</time></trkpt><trkpt lat="44.05634492097726" lon="12.514720194210899"><ele>18.0</ele><time>2026-03-22T09:23:10.987Z</time></trkpt><trkpt lat="44.05621140876663" lon="12.515055610373992"><ele>18.0</ele><time>2026-03-22T09:23:11.987Z</time></trkpt><trkpt lat="44.05607742771778" lon="12.515391614021894"><ele>18.5</ele><time>2026-03-22T09:23:12.987Z</time></trkpt><trkpt lat="44.05594238057191" lon="12.515727229097706"><ele>19.0</ele><time>2026-03-22T09:23:13.987Z</time></trkpt><trkpt lat="44.055805174706876" lon="12.51606925271286"><ele>18.5</ele><time>2026-03-22T09:23:14.987Z</time></trkpt><trkpt lat="44.05566476886156" lon="12.516413774559338"><ele>18.0</ele><time>2026-03-22T09:23:15.987Z</time></trkpt><trkpt lat="44.055524103542965" lon="12.516762324153186"><ele>18.0</ele><time>2026-03-22T09:23:16.987Z</time></trkpt><trkpt lat="44.055385467476846" lon="12.517105864021355"><ele>18.0</ele><time>2026-03-22T09:23:17.987Z</time></trkpt><trkpt lat="44.05524318077983" lon="12.517446014989316"><ele>18.0</ele><time>2026-03-22T09:23:18.987Z</time></trkpt><trkpt lat="44.05510649055012" lon="12.517775530693095"><ele>18.0</ele><time>2026-03-22T09:23:19.987Z</time></trkpt><trkpt lat="44.05497198264473" lon="12.518097558682058"><ele>17.5</ele><time>2026-03-22T09:23:20.987Z</time></trkpt><trkpt lat="44.054838918402766" lon="12.518420044253922"><ele>17.0</ele><time>2026-03-22T09:23:21.987Z</time></trkpt><trkpt lat="44.054700373034905" lon="12.518745732935539"><ele>17.0</ele><time>2026-03-22T09:23:22.987Z</time></trkpt><trkpt lat="44.05456525018366" lon="12.519066592975669"><ele>17.0</ele><time>2026-03-22T09:23:23.987Z</time></trkpt><trkpt lat="44.0544234345587" lon="12.519387314987785"><ele>17.5</ele><time>2026-03-22T09:23:24.987Z</time></trkpt><trkpt lat="44.054280708790316" lon="12.519708383025982"><ele>18.0</ele><time>2026-03-22T09:23:25.987Z</time></trkpt><trkpt lat="44.054136727153164" lon="12.520036216144565"><ele>17.0</ele><time>2026-03-22T09:23:26.987Z</time></trkpt><trkpt lat="44.05398705165156" lon="12.520367501636583"><ele>16.0</ele><time>2026-03-22T09:23:27.987Z</time></trkpt><trkpt lat="44.05383866637547" lon="12.520696448883006"><ele>16.0</ele><time>2026-03-22T09:23:28.987Z</time></trkpt><trkpt lat="44.05369306503406" lon="12.521021813849755"><ele>16.0</ele><time>2026-03-22T09:23:29.987Z</time></trkpt><trkpt lat="44.05354781034116" lon="12.521342210490943"><ele>15.5</ele><time>2026-03-22T09:23:30.987Z</time></trkpt><trkpt lat="44.053403066744096" lon="12.521660347976836"><ele>15.0</ele><time>2026-03-22T09:23:31.987Z</time></trkpt><trkpt lat="44.05325739616945" lon="12.521977237213365"><ele>14.5</ele><time>2026-03-22T09:23:32.987Z</time></trkpt><trkpt lat="44.05310727698055" lon="12.52229427862196"><ele>14.0</ele><time>2026-03-22T09:23:33.987Z</time></trkpt><trkpt lat="44.05295491886604" lon="12.522613239286008"><ele>15.5</ele><time>2026-03-22T09:23:34.987Z</time></trkpt><trkpt lat="44.05280375520076" lon="12.522928421656344"><ele>17.0</ele><time>2026-03-22T09:23:35.986Z</time></trkpt><trkpt lat="44.05264966705767" lon="12.523245054228573"><ele>17.0</ele><time>2026-03-22T09:23:36.986Z</time></trkpt><trkpt lat="44.05249484375826" lon="12.523560777545852"><ele>17.0</ele><time>2026-03-22T09:23:37.986Z</time></trkpt><trkpt lat="44.052341911870414" lon="12.523873429315811"><ele>16.0</ele><time>2026-03-22T09:23:38.986Z</time></trkpt><trkpt lat="44.052190478874444" lon="12.524183427671957"><ele>15.0</ele><time>2026-03-22T09:23:39.986Z</time></trkpt><trkpt lat="44.052034542140525" lon="12.524498353754423"><ele>15.5</ele><time>2026-03-22T09:23:40.986Z</time></trkpt><trkpt lat="44.05187754868335" lon="12.524809401561528"><ele>16.0</ele><time>2026-03-22T09:23:41.986Z</time></trkpt><trkpt lat="44.05171780085614" lon="12.525121861248627"><ele>15.0</ele><time>2026-03-22T09:23:42.986Z</time></trkpt><trkpt lat="44.05156238126265" lon="12.525433866567186"><ele>14.0</ele><time>2026-03-22T09:23:43.986Z</time></trkpt><trkpt lat="44.05140532023227" lon="12.525742493998239"><ele>14.0</ele><time>2026-03-22T09:23:44.986Z</time></trkpt><trkpt lat="44.051246655730004" lon="12.526052893559438"><ele>14.0</ele><time>2026-03-22T09:23:45.986Z</time></trkpt><trkpt lat="44.0510898628301" lon="12.526372859933513"><ele>13.5</ele><time>2026-03-22T09:23:46.986Z</time></trkpt><trkpt lat="44.05092931051429" lon="12.526695680211134"><ele>13.0</ele><time>2026-03-22T09:23:47.986Z</time></trkpt><trkpt lat="44.05076804306413" lon="12.527004644441506"><ele>12.0</ele><time>2026-03-22T09:23:48.986Z</time></trkpt><trkpt lat="44.05061145379233" lon="12.527313719635028"><ele>11.0</ele><time>2026-03-22T09:23:49.986Z</time></trkpt><trkpt lat="44.05045117896622" lon="12.527631846571563"><ele>11.5</ele><time>2026-03-22T09:23:50.985Z</time></trkpt><trkpt lat="44.05029087137878" lon="12.527950159736884"><ele>12.0</ele><time>2026-03-22T09:23:51.985Z</time></trkpt><trkpt lat="44.05013406633241" lon="12.528268674291464"><ele>12.0</ele><time>2026-03-22T09:23:52.985Z</time></trkpt><trkpt lat="44.04997642566972" lon="12.528587703978916"><ele>12.0</ele><time>2026-03-22T09:23:53.985Z</time></trkpt><trkpt lat="44.04982227737355" lon="12.52890156027463"><ele>12.0</ele><time>2026-03-22T09:23:54.985Z</time></trkpt><trkpt lat="44.04966509786992" lon="12.52921292812167"><ele>12.0</ele><time>2026-03-22T09:23:55.985Z</time></trkpt><trkpt lat="44.04951069260543" lon="12.529525750558024"><ele>12.0</ele><time>2026-03-22T09:23:56.986Z</time></trkpt><trkpt lat="44.049354435388516" lon="12.529834076841482"><ele>12.0</ele><time>2026-03-22T09:23:57.985Z</time></trkpt><trkpt lat="44.0492025321198" lon="12.530147754727244"><ele>12.0</ele><time>2026-03-22T09:23:58.985Z</time></trkpt><trkpt lat="44.049057243084505" lon="12.530454957901314"><ele>12.0</ele><time>2026-03-22T09:23:59.986Z</time></trkpt><trkpt lat="44.048915218469844" lon="12.530760300427685"><ele>12.0</ele><time>2026-03-22T09:24:00.985Z</time></trkpt><trkpt lat="44.04877225308389" lon="12.531068132906658"><ele>12.0</ele><time>2026-03-22T09:24:01.985Z</time></trkpt><trkpt lat="44.048633221278735" lon="12.53138830534332"><ele>11.5</ele><time>2026-03-22T09:24:02.986Z</time></trkpt><trkpt lat="44.04850273543339" lon="12.531711837119508"><ele>11.0</ele><time>2026-03-22T09:24:03.985Z</time></trkpt><trkpt lat="44.04837484643628" lon="12.532045936972239"><ele>9.5</ele><time>2026-03-22T09:24:04.985Z</time></trkpt><trkpt lat="44.04824390839588" lon="12.532380315935125"><ele>8.0</ele><time>2026-03-22T09:24:05.985Z</time></trkpt><trkpt lat="44.04812493774479" lon="12.532723295272758"><ele>7.5</ele><time>2026-03-22T09:24:06.985Z</time></trkpt><trkpt lat="44.04800871108072" lon="12.53306639432229"><ele>7.0</ele><time>2026-03-22T09:24:07.985Z</time></trkpt><trkpt lat="44.04789785376164" lon="12.533414810797902"><ele>7.0</ele><time>2026-03-22T09:24:08.985Z</time></trkpt><trkpt lat="44.04779282083695" lon="12.53376340726895"><ele>7.0</ele><time>2026-03-22T09:24:09.985Z</time></trkpt><trkpt lat="44.04769235614321" lon="12.534119190059291"><ele>7.0</ele><time>2026-03-22T09:24:10.985Z</time></trkpt><trkpt lat="44.04759723977571" lon="12.534478766685266"><ele>7.0</ele><time>2026-03-22T09:24:11.985Z</time></trkpt><trkpt lat="44.047504642366405" lon="12.534840898040189"><ele>8.0</ele><time>2026-03-22T09:24:12.985Z</time></trkpt><trkpt lat="44.04741614481796" lon="12.53520759591727"><ele>9.0</ele><time>2026-03-22T09:24:13.985Z</time></trkpt><trkpt lat="44.04733198783949" lon="12.535579474952277"><ele>9.0</ele><time>2026-03-22T09:24:14.985Z</time></trkpt><trkpt lat="44.04725521821282" lon="12.535951883706545"><ele>9.0</ele><time>2026-03-22T09:24:15.985Z</time></trkpt><trkpt lat="44.04718551044352" lon="12.536313906698371"><ele>8.0</ele><time>2026-03-22T09:24:16.985Z</time></trkpt><trkpt lat="44.047122529366355" lon="12.536664919658742"><ele>7.0</ele><time>2026-03-22T09:24:17.985Z</time></trkpt><trkpt lat="44.04706712822845" lon="12.537026491546978"><ele>5.5</ele><time>2026-03-22T09:24:18.985Z</time></trkpt><trkpt lat="44.04701011879606" lon="12.537396079698274"><ele>4.0</ele><time>2026-03-22T09:24:19.985Z</time></trkpt><trkpt lat="44.046952864178934" lon="12.537770099959682"><ele>4.5</ele><time>2026-03-22T09:24:20.985Z</time></trkpt><trkpt lat="44.0468954214787" lon="12.538149197962728"><ele>5.0</ele><time>2026-03-22T09:24:21.985Z</time></trkpt><trkpt lat="44.0468380204311" lon="12.538524501020454"><ele>5.5</ele><time>2026-03-22T09:24:22.985Z</time></trkpt><trkpt lat="44.0467788887427" lon="12.538908695706715"><ele>6.0</ele><time>2026-03-22T09:24:23.985Z</time></trkpt><trkpt lat="44.046715633228565" lon="12.539290965138173"><ele>6.0</ele><time>2026-03-22T09:24:24.985Z</time></trkpt><trkpt lat="44.04665403882534" lon="12.539672867978437"><ele>6.0</ele><time>2026-03-22T09:24:25.985Z</time></trkpt><trkpt lat="44.04659619340964" lon="12.540053559992538"><ele>5.0</ele><time>2026-03-22T09:24:26.985Z</time></trkpt><trkpt lat="44.04653950460632" lon="12.540432815253471"><ele>4.0</ele><time>2026-03-22T09:24:27.985Z</time></trkpt><trkpt lat="44.04648343597799" lon="12.540814390580072"><ele>4.0</ele><time>2026-03-22T09:24:28.985Z</time></trkpt><trkpt lat="44.04642464698193" lon="12.54119425261436"><ele>4.0</ele><time>2026-03-22T09:24:29.985Z</time></trkpt><trkpt lat="44.0463659190264" lon="12.541573247187024"><ele>4.5</ele><time>2026-03-22T09:24:30.985Z</time></trkpt><trkpt lat="44.046309707898864" lon="12.541947492081599"><ele>5.0</ele><time>2026-03-22T09:24:31.985Z</time></trkpt><trkpt lat="44.04624866847935" lon="12.542324704510296"><ele>5.5</ele><time>2026-03-22T09:24:32.985Z</time></trkpt><trkpt lat="44.04618682153479" lon="12.542701315301303"><ele>6.0</ele><time>2026-03-22T09:24:33.985Z</time></trkpt><trkpt lat="44.046128896685914" lon="12.543076653629388"><ele>7.0</ele><time>2026-03-22T09:24:34.985Z</time></trkpt><trkpt lat="44.046071415707615" lon="12.543447005889837"><ele>8.0</ele><time>2026-03-22T09:24:35.985Z</time></trkpt><trkpt lat="44.046015415266204" lon="12.54382236535355"><ele>8.0</ele><time>2026-03-22T09:24:36.985Z</time></trkpt><trkpt lat="44.04595512268521" lon="12.544199736769755"><ele>8.0</ele><time>2026-03-22T09:24:37.985Z</time></trkpt><trkpt lat="44.04589454111444" lon="12.544576892798059"><ele>8.0</ele><time>2026-03-22T09:24:38.985Z</time></trkpt><trkpt lat="44.045836287022915" lon="12.544954819223042"><ele>8.0</ele><time>2026-03-22T09:24:39.985Z</time></trkpt><trkpt lat="44.045776860314504" lon="12.545333215712963"><ele>9.5</ele><time>2026-03-22T09:24:40.985Z</time></trkpt><trkpt lat="44.04571543763824" lon="12.54570830901823"><ele>11.0</ele><time>2026-03-22T09:24:41.985Z</time></trkpt><trkpt lat="44.045656796544854" lon="12.54608772332571"><ele>11.0</ele><time>2026-03-22T09:24:42.985Z</time></trkpt><trkpt lat="44.045597731185886" lon="12.546465175106317"><ele>11.0</ele><time>2026-03-22T09:24:43.985Z</time></trkpt><trkpt lat="44.04553837543163" lon="12.54684317132243"><ele>11.5</ele><time>2026-03-22T09:24:44.985Z</time></trkpt><trkpt lat="44.0454824780678" lon="12.547223658284057"><ele>12.0</ele><time>2026-03-22T09:24:45.985Z</time></trkpt><trkpt lat="44.04542436439811" lon="12.54760545763609"><ele>12.0</ele><time>2026-03-22T09:24:46.985Z</time></trkpt><trkpt lat="44.04536646409408" lon="12.547976700806611"><ele>12.0</ele><time>2026-03-22T09:24:47.985Z</time></trkpt><trkpt lat="44.04530906375106" lon="12.548349072262189"><ele>13.0</ele><time>2026-03-22T09:24:48.985Z</time></trkpt><trkpt lat="44.0452481346694" lon="12.548718866659769"><ele>14.0</ele><time>2026-03-22T09:24:49.985Z</time></trkpt><trkpt lat="44.04518857786046" lon="12.549090905136309"><ele>14.0</ele><time>2026-03-22T09:24:50.985Z</time></trkpt><trkpt lat="44.04513123224472" lon="12.54946307324274"><ele>14.0</ele><time>2026-03-22T09:24:51.985Z</time></trkpt><trkpt lat="44.04506756412457" lon="12.549833421917608"><ele>17.5</ele><time>2026-03-22T09:24:52.985Z</time></trkpt><trkpt lat="44.04500698322744" lon="12.550203933927827"><ele>21.0</ele><time>2026-03-22T09:24:53.985Z</time></trkpt><trkpt lat="44.04495058739133" lon="12.550576840460431"><ele>23.0</ele><time>2026-03-22T09:24:54.985Z</time></trkpt><trkpt lat="44.04490349582434" lon="12.55095861777483"><ele>25.0</ele><time>2026-03-22T09:24:55.985Z</time></trkpt><trkpt lat="44.04485659921933" lon="12.551335125143485"><ele>25.5</ele><time>2026-03-22T09:24:56.985Z</time></trkpt><trkpt lat="44.04480198974568" lon="12.55169555275976"><ele>26.0</ele><time>2026-03-22T09:24:57.985Z</time></trkpt><trkpt lat="44.04473630373273" lon="12.552033656731536"><ele>22.5</ele><time>2026-03-22T09:24:58.985Z</time></trkpt><trkpt lat="44.04466901826501" lon="12.552379422431398"><ele>19.0</ele><time>2026-03-22T09:24:59.985Z</time></trkpt><trkpt lat="44.044600780838195" lon="12.552790102299918"><ele>16.5</ele><time>2026-03-22T09:25:01.121Z</time></trkpt><trkpt lat="44.04451613015249" lon="12.553215481013472"><ele>14.0</ele><time>2026-03-22T09:25:01.985Z</time></trkpt><trkpt lat="44.044471161792046" lon="12.553509122121774"><ele>12.0</ele><time>2026-03-22T09:25:02.985Z</time></trkpt><trkpt lat="44.04434189407613" lon="12.553742333213465"><ele>10.0</ele><time>2026-03-22T09:25:03.985Z</time></trkpt><trkpt lat="44.044261931967306" lon="12.554079322318948"><ele>10.0</ele><time>2026-03-22T09:25:04.985Z</time></trkpt><trkpt lat="44.04416997823094" lon="12.554422557733504"><ele>10.0</ele><time>2026-03-22T09:25:05.985Z</time></trkpt><trkpt lat="44.044068738105935" lon="12.554761186521901"><ele>10.0</ele><time>2026-03-22T09:25:06.985Z</time></trkpt><trkpt lat="44.04396157515159" lon="12.555107363681413"><ele>10.0</ele><time>2026-03-22T09:25:07.985Z</time></trkpt><trkpt lat="44.04384394791983" lon="12.55544805972629"><ele>10.0</ele><time>2026-03-22T09:25:08.985Z</time></trkpt><trkpt lat="44.04371178398513" lon="12.555780316145533"><ele>10.0</ele><time>2026-03-22T09:25:09.985Z</time></trkpt><trkpt lat="44.043573525991455" lon="12.556106085037031"><ele>8.5</ele><time>2026-03-22T09:25:10.985Z</time></trkpt><trkpt lat="44.043420930509534" lon="12.556423979602787"><ele>7.0</ele><time>2026-03-22T09:25:11.985Z</time></trkpt><trkpt lat="44.04326103315158" lon="12.556738857886891"><ele>8.5</ele><time>2026-03-22T09:25:12.985Z</time></trkpt><trkpt lat="44.04309528239827" lon="12.55704734999531"><ele>10.0</ele><time>2026-03-22T09:25:13.985Z</time></trkpt><trkpt lat="44.04293021939676" lon="12.55735410515252"><ele>10.0</ele><time>2026-03-22T09:25:14.985Z</time></trkpt><trkpt lat="44.04276089758353" lon="12.557654990807736"><ele>10.0</ele><time>2026-03-22T09:25:15.985Z</time></trkpt><trkpt lat="44.04259039233272" lon="12.557955284115774"><ele>10.0</ele><time>2026-03-22T09:25:16.985Z</time></trkpt><trkpt lat="44.04241491963667" lon="12.55825637262856"><ele>10.0</ele><time>2026-03-22T09:25:17.985Z</time></trkpt><trkpt lat="44.042244112267184" lon="12.55855285635151"><ele>9.5</ele><time>2026-03-22T09:25:18.985Z</time></trkpt><trkpt lat="44.042067945726586" lon="12.558852773147976"><ele>9.0</ele><time>2026-03-22T09:25:19.985Z</time></trkpt><trkpt lat="44.04189144456334" lon="12.559147940048076"><ele>9.0</ele><time>2026-03-22T09:25:20.985Z</time></trkpt><trkpt lat="44.041716756592244" lon="12.559442135264264"><ele>9.0</ele><time>2026-03-22T09:25:21.985Z</time></trkpt><trkpt lat="44.0415422122319" lon="12.559735171595445"><ele>9.5</ele><time>2026-03-22T09:25:22.985Z</time></trkpt><trkpt lat="44.04137253128388" lon="12.560025069859515"><ele>10.0</ele><time>2026-03-22T09:25:23.985Z</time></trkpt><trkpt lat="44.041202129134916" lon="12.560306825922439"><ele>10.5</ele><time>2026-03-22T09:25:24.985Z</time></trkpt><trkpt lat="44.04103230594323" lon="12.560586907573958"><ele>11.0</ele><time>2026-03-22T09:25:25.985Z</time></trkpt><trkpt lat="44.04086838629295" lon="12.560864299908856"><ele>10.0</ele><time>2026-03-22T09:25:26.985Z</time></trkpt><trkpt lat="44.04069969593971" lon="12.56114691721032"><ele>9.0</ele><time>2026-03-22T09:25:27.985Z</time></trkpt><trkpt lat="44.040535324752504" lon="12.561432992184017"><ele>8.0</ele><time>2026-03-22T09:25:28.985Z</time></trkpt><trkpt lat="44.04037386017869" lon="12.561717081507357"><ele>7.0</ele><time>2026-03-22T09:25:29.985Z</time></trkpt><trkpt lat="44.0402041699735" lon="12.561985325847228"><ele>9.0</ele><time>2026-03-22T09:25:30.985Z</time></trkpt><trkpt lat="44.04004858005363" lon="12.562250717842877"><ele>11.0</ele><time>2026-03-22T09:25:31.985Z</time></trkpt><trkpt lat="44.03988784118275" lon="12.562523710663775"><ele>11.0</ele><time>2026-03-22T09:25:32.985Z</time></trkpt><trkpt lat="44.03972948675185" lon="12.562799409514245"><ele>11.0</ele><time>2026-03-22T09:25:33.985Z</time></trkpt><trkpt lat="44.03955931874489" lon="12.563075886746695"><ele>11.0</ele><time>2026-03-22T09:25:34.985Z</time></trkpt><trkpt lat="44.039390136767" lon="12.563361215935554"><ele>11.0</ele><time>2026-03-22T09:25:35.985Z</time></trkpt><trkpt lat="44.039221354385624" lon="12.563657540778577"><ele>11.0</ele><time>2026-03-22T09:25:36.985Z</time></trkpt><trkpt lat="44.039049449225985" lon="12.563951370868503"><ele>11.0</ele><time>2026-03-22T09:25:37.985Z</time></trkpt><trkpt lat="44.03888257737949" lon="12.564235296663307"><ele>11.0</ele><time>2026-03-22T09:25:38.985Z</time></trkpt><trkpt lat="44.03871676527735" lon="12.56452144700235"><ele>11.0</ele><time>2026-03-22T09:25:39.985Z</time></trkpt><trkpt lat="44.038547920592535" lon="12.564809226274445"><ele>11.5</ele><time>2026-03-22T09:25:40.985Z</time></trkpt><trkpt lat="44.03838656347648" lon="12.565088343227593"><ele>12.0</ele><time>2026-03-22T09:25:41.985Z</time></trkpt><trkpt lat="44.038224689494506" lon="12.565369935259422"><ele>12.5</ele><time>2026-03-22T09:25:42.985Z</time></trkpt><trkpt lat="44.03805562654567" lon="12.565650581973781"><ele>13.0</ele><time>2026-03-22T09:25:43.985Z</time></trkpt><trkpt lat="44.037887691239895" lon="12.565941352319504"><ele>14.0</ele><time>2026-03-22T09:25:44.985Z</time></trkpt><trkpt lat="44.03772076211804" lon="12.566231584744092"><ele>15.0</ele><time>2026-03-22T09:25:45.985Z</time></trkpt><trkpt lat="44.03755198370474" lon="12.566522882464149"><ele>15.0</ele><time>2026-03-22T09:25:46.985Z</time></trkpt><trkpt lat="44.03738312879201" lon="12.566814818983056"><ele>15.0</ele><time>2026-03-22T09:25:47.985Z</time></trkpt><trkpt lat="44.03721590078152" lon="12.567095103457833"><ele>15.0</ele><time>2026-03-22T09:25:48.985Z</time></trkpt><trkpt lat="44.03704622267801" lon="12.56737790665863"><ele>15.0</ele><time>2026-03-22T09:25:49.985Z</time></trkpt><trkpt lat="44.03687466660836" lon="12.567661453163009"><ele>14.0</ele><time>2026-03-22T09:25:50.985Z</time></trkpt><trkpt lat="44.036705181435586" lon="12.567933480645708"><ele>13.0</ele><time>2026-03-22T09:25:51.985Z</time></trkpt><trkpt lat="44.03652966998373" lon="12.568207571248294"><ele>13.0</ele><time>2026-03-22T09:25:52.985Z</time></trkpt><trkpt lat="44.036347843740806" lon="12.568480243842652"><ele>13.0</ele><time>2026-03-22T09:25:53.985Z</time></trkpt><trkpt lat="44.03616532360091" lon="12.568740463707215"><ele>14.0</ele><time>2026-03-22T09:25:54.985Z</time></trkpt><trkpt lat="44.03597623782124" lon="12.568997289212344"><ele>15.0</ele><time>2026-03-22T09:25:55.985Z</time></trkpt><trkpt lat="44.03577911864883" lon="12.569250562406305"><ele>15.0</ele><time>2026-03-22T09:25:56.984Z</time></trkpt><trkpt lat="44.03558535106076" lon="12.569502029741665"><ele>15.0</ele><time>2026-03-22T09:25:57.984Z</time></trkpt><trkpt lat="44.035387066733804" lon="12.569743882570279"><ele>14.5</ele><time>2026-03-22T09:25:58.984Z</time></trkpt><trkpt lat="44.03519711623925" lon="12.569982165263136"><ele>14.0</ele><time>2026-03-22T09:25:59.984Z</time></trkpt><trkpt lat="44.035002621854694" lon="12.570215788359695"><ele>14.5</ele><time>2026-03-22T09:26:00.983Z</time></trkpt><trkpt lat="44.03480626992164" lon="12.570450272441283"><ele>15.0</ele><time>2026-03-22T09:26:01.983Z</time></trkpt><trkpt lat="44.03460522158548" lon="12.570678862884973"><ele>15.0</ele><time>2026-03-22T09:26:02.983Z</time></trkpt><trkpt lat="44.03439993480473" lon="12.570903497115067"><ele>15.0</ele><time>2026-03-22T09:26:03.984Z</time></trkpt><trkpt lat="44.03419513674837" lon="12.571126681862065"><ele>14.0</ele><time>2026-03-22T09:26:04.984Z</time></trkpt><trkpt lat="44.03398993637692" lon="12.57135510221548"><ele>13.0</ele><time>2026-03-22T09:26:05.984Z</time></trkpt><trkpt lat="44.0337850086911" lon="12.571581042678622"><ele>13.0</ele><time>2026-03-22T09:26:06.983Z</time></trkpt><trkpt lat="44.03358109881068" lon="12.57181084320015"><ele>13.0</ele><time>2026-03-22T09:26:07.983Z</time></trkpt><trkpt lat="44.03337438193135" lon="12.572030093809119"><ele>13.5</ele><time>2026-03-22T09:26:08.983Z</time></trkpt><trkpt lat="44.03317147167735" lon="12.572260432813563"><ele>14.0</ele><time>2026-03-22T09:26:09.984Z</time></trkpt><trkpt lat="44.03296161746284" lon="12.572495671018391"><ele>14.0</ele><time>2026-03-22T09:26:10.984Z</time></trkpt><trkpt lat="44.03275124336593" lon="12.572731614001942"><ele>14.0</ele><time>2026-03-22T09:26:11.984Z</time></trkpt><trkpt lat="44.03254679719466" lon="12.572966669073418"><ele>13.5</ele><time>2026-03-22T09:26:12.984Z</time></trkpt><trkpt lat="44.03235069932845" lon="12.573202417390648"><ele>13.0</ele><time>2026-03-22T09:26:13.984Z</time></trkpt><trkpt lat="44.03213777145368" lon="12.573429774587552"><ele>13.0</ele><time>2026-03-22T09:26:14.984Z</time></trkpt><trkpt lat="44.031931577256415" lon="12.57366373904383"><ele>13.0</ele><time>2026-03-22T09:26:15.984Z</time></trkpt><trkpt lat="44.031726994572374" lon="12.573896300297653"><ele>13.0</ele><time>2026-03-22T09:26:16.984Z</time></trkpt><trkpt lat="44.03152210828209" lon="12.574125232709825"><ele>13.0</ele><time>2026-03-22T09:26:17.984Z</time></trkpt><trkpt lat="44.03131327800492" lon="12.574351997595874"><ele>13.0</ele><time>2026-03-22T09:26:18.984Z</time></trkpt><trkpt lat="44.0311060780135" lon="12.574583759357003"><ele>13.0</ele><time>2026-03-22T09:26:19.984Z</time></trkpt><trkpt lat="44.0308987545722" lon="12.574823751203972"><ele>13.5</ele><time>2026-03-22T09:26:20.984Z</time></trkpt><trkpt lat="44.03069263967276" lon="12.575060573444855"><ele>14.0</ele><time>2026-03-22T09:26:21.984Z</time></trkpt><trkpt lat="44.03047747049518" lon="12.575291649306259"><ele>13.5</ele><time>2026-03-22T09:26:22.984Z</time></trkpt><trkpt lat="44.03026523103807" lon="12.575531946841638"><ele>13.0</ele><time>2026-03-22T09:26:23.984Z</time></trkpt><trkpt lat="44.030047259811" lon="12.575766168196019"><ele>13.0</ele><time>2026-03-22T09:26:24.984Z</time></trkpt><trkpt lat="44.02983990874255" lon="12.576011343214674"><ele>13.0</ele><time>2026-03-22T09:26:25.984Z</time></trkpt><trkpt lat="44.02962539353512" lon="12.576252588611386"><ele>13.0</ele><time>2026-03-22T09:26:26.984Z</time></trkpt><trkpt lat="44.02941519371734" lon="12.576493258907275"><ele>13.0</ele><time>2026-03-22T09:26:27.984Z</time></trkpt><trkpt lat="44.02920157791578" lon="12.576738253171289"><ele>13.5</ele><time>2026-03-22T09:26:28.984Z</time></trkpt><trkpt lat="44.02898963636897" lon="12.576982226668417"><ele>14.0</ele><time>2026-03-22T09:26:29.984Z</time></trkpt><trkpt lat="44.0287767387981" lon="12.577218130704058"><ele>14.0</ele><time>2026-03-22T09:26:30.984Z</time></trkpt><trkpt lat="44.02856944368067" lon="12.577453955990125"><ele>14.0</ele><time>2026-03-22T09:26:31.984Z</time></trkpt><trkpt lat="44.02836308077055" lon="12.577695488197815"><ele>13.0</ele><time>2026-03-22T09:26:32.984Z</time></trkpt><trkpt lat="44.02816213938182" lon="12.577924237320147"><ele>12.0</ele><time>2026-03-22T09:26:33.984Z</time></trkpt><trkpt lat="44.02795979271488" lon="12.578152800888512"><ele>12.0</ele><time>2026-03-22T09:26:34.984Z</time></trkpt><trkpt lat="44.027750900930926" lon="12.578383025647222"><ele>12.0</ele><time>2026-03-22T09:26:35.984Z</time></trkpt><trkpt lat="44.027542553855724" lon="12.578626048538858"><ele>12.0</ele><time>2026-03-22T09:26:36.984Z</time></trkpt><trkpt lat="44.027335161441115" lon="12.578867184986088"><ele>12.0</ele><time>2026-03-22T09:26:37.984Z</time></trkpt><trkpt lat="44.027135476513386" lon="12.579102484723839"><ele>12.0</ele><time>2026-03-22T09:26:38.984Z</time></trkpt><trkpt lat="44.02693663063784" lon="12.57932705697458"><ele>12.0</ele><time>2026-03-22T09:26:39.984Z</time></trkpt><trkpt lat="44.0267351626489" lon="12.579552651037773"><ele>13.0</ele><time>2026-03-22T09:26:40.984Z</time></trkpt><trkpt lat="44.026528805388516" lon="12.579784187184252"><ele>14.0</ele><time>2026-03-22T09:26:41.984Z</time></trkpt><trkpt lat="44.026319553116274" lon="12.580011486082673"><ele>14.0</ele><time>2026-03-22T09:26:42.984Z</time></trkpt><trkpt lat="44.02610493349759" lon="12.580243459907694"><ele>14.0</ele><time>2026-03-22T09:26:43.984Z</time></trkpt><trkpt lat="44.025885000576714" lon="12.58046827128534"><ele>17.0</ele><time>2026-03-22T09:26:44.984Z</time></trkpt><trkpt lat="44.02566593636647" lon="12.580683062160011"><ele>20.0</ele><time>2026-03-22T09:26:45.984Z</time></trkpt><trkpt lat="44.025451585452394" lon="12.580890622529534"><ele>20.0</ele><time>2026-03-22T09:26:46.984Z</time></trkpt><trkpt lat="44.02523450927464" lon="12.581087722593452"><ele>20.0</ele><time>2026-03-22T09:26:47.984Z</time></trkpt><trkpt lat="44.02501135485667" lon="12.58128491442522"><ele>23.0</ele><time>2026-03-22T09:26:48.984Z</time></trkpt><trkpt lat="44.0247830436295" lon="12.581473739500522"><ele>26.0</ele><time>2026-03-22T09:26:49.984Z</time></trkpt><trkpt lat="44.02455538331004" lon="12.581659516224438"><ele>26.0</ele><time>2026-03-22T09:26:50.984Z</time></trkpt><trkpt lat="44.02432681994853" lon="12.581839464305036"><ele>26.0</ele><time>2026-03-22T09:26:51.984Z</time></trkpt><trkpt lat="44.024095283948505" lon="12.582017031870075"><ele>24.5</ele><time>2026-03-22T09:26:52.984Z</time></trkpt><trkpt lat="44.02385841106762" lon="12.58219289733435"><ele>23.0</ele><time>2026-03-22T09:26:53.984Z</time></trkpt><trkpt lat="44.023616635912916" lon="12.58235365946304"><ele>23.0</ele><time>2026-03-22T09:26:54.984Z</time></trkpt><trkpt lat="44.023367519766104" lon="12.58250212424207"><ele>23.0</ele><time>2026-03-22T09:26:55.984Z</time></trkpt><trkpt lat="44.02313016517334" lon="12.58265112175285"><ele>23.0</ele><time>2026-03-22T09:26:56.984Z</time></trkpt><trkpt lat="44.022900108871205" lon="12.582803843354325"><ele>23.0</ele><time>2026-03-22T09:26:57.984Z</time></trkpt><trkpt lat="44.02266624516057" lon="12.58295567510811"><ele>28.5</ele><time>2026-03-22T09:26:58.984Z</time></trkpt><trkpt lat="44.02242899517206" lon="12.583110419233241"><ele>34.0</ele><time>2026-03-22T09:26:59.984Z</time></trkpt><trkpt lat="44.02219870997369" lon="12.583265555426092"><ele>34.0</ele><time>2026-03-22T09:27:00.984Z</time></trkpt><trkpt lat="44.02196364753598" lon="12.583419466909987"><ele>34.0</ele><time>2026-03-22T09:27:01.984Z</time></trkpt><trkpt lat="44.021730724932326" lon="12.583569296978974"><ele>36.0</ele><time>2026-03-22T09:27:02.984Z</time></trkpt><trkpt lat="44.02149655786164" lon="12.583710880871811"><ele>38.0</ele><time>2026-03-22T09:27:03.984Z</time></trkpt><trkpt lat="44.02126310416088" lon="12.583853661457603"><ele>38.0</ele><time>2026-03-22T09:27:04.984Z</time></trkpt><trkpt lat="44.02103123851561" lon="12.583997656202342"><ele>38.0</ele><time>2026-03-22T09:27:05.984Z</time></trkpt><trkpt lat="44.020801693773265" lon="12.584144081867613"><ele>42.5</ele><time>2026-03-22T09:27:06.984Z</time></trkpt><trkpt lat="44.02056965429559" lon="12.584294536874125"><ele>47.0</ele><time>2026-03-22T09:27:07.984Z</time></trkpt><trkpt lat="44.02033812727488" lon="12.58444922826092"><ele>44.0</ele><time>2026-03-22T09:27:08.984Z</time></trkpt><trkpt lat="44.020108375385796" lon="12.584606890072875"><ele>41.0</ele><time>2026-03-22T09:27:09.984Z</time></trkpt><trkpt lat="44.01987757106231" lon="12.584760286663675"><ele>41.0</ele><time>2026-03-22T09:27:10.984Z</time></trkpt><trkpt lat="44.01964461916939" lon="12.584924990006877"><ele>41.0</ele><time>2026-03-22T09:27:11.984Z</time></trkpt><trkpt lat="44.01940804688386" lon="12.585089818935314"><ele>41.0</ele><time>2026-03-22T09:27:12.984Z</time></trkpt><trkpt lat="44.019168766911356" lon="12.585258933854405"><ele>41.0</ele><time>2026-03-22T09:27:13.984Z</time></trkpt><trkpt lat="44.018930165856716" lon="12.585422419420864"><ele>38.0</ele><time>2026-03-22T09:27:14.984Z</time></trkpt><trkpt lat="44.01869656030004" lon="12.585590550508915"><ele>35.0</ele><time>2026-03-22T09:27:15.983Z</time></trkpt><trkpt lat="44.01846272807252" lon="12.585771673252188"><ele>33.0</ele><time>2026-03-22T09:27:16.983Z</time></trkpt><trkpt lat="44.018229499886154" lon="12.585960089366308"><ele>31.0</ele><time>2026-03-22T09:27:17.983Z</time></trkpt><trkpt lat="44.01799159305003" lon="12.5861417610335"><ele>31.5</ele><time>2026-03-22T09:27:18.983Z</time></trkpt><trkpt lat="44.017755553073" lon="12.586323443146412"><ele>32.0</ele><time>2026-03-22T09:27:19.983Z</time></trkpt><trkpt lat="44.01751602358657" lon="12.58649971339146"><ele>29.5</ele><time>2026-03-22T09:27:20.983Z</time></trkpt><trkpt lat="44.01727330591473" lon="12.586671151980015"><ele>27.0</ele><time>2026-03-22T09:27:21.983Z</time></trkpt><trkpt lat="44.01702573020504" lon="12.58683793393231"><ele>25.0</ele><time>2026-03-22T09:27:22.983Z</time></trkpt><trkpt lat="44.01679334328376" lon="12.587014354042797"><ele>23.0</ele><time>2026-03-22T09:27:23.983Z</time></trkpt><trkpt lat="44.01656595603122" lon="12.587216559489168"><ele>22.0</ele><time>2026-03-22T09:27:24.983Z</time></trkpt><trkpt lat="44.01633588191343" lon="12.587420476657417"><ele>21.0</ele><time>2026-03-22T09:27:25.983Z</time></trkpt><trkpt lat="44.01610584487285" lon="12.587631210895177"><ele>19.5</ele><time>2026-03-22T09:27:26.983Z</time></trkpt><trkpt lat="44.01587706027555" lon="12.587850133233271"><ele>18.0</ele><time>2026-03-22T09:27:27.983Z</time></trkpt><trkpt lat="44.0156521511761" lon="12.588077402786713"><ele>16.5</ele><time>2026-03-22T09:27:28.983Z</time></trkpt><trkpt lat="44.01543004806401" lon="12.588316666274512"><ele>15.0</ele><time>2026-03-22T09:27:29.983Z</time></trkpt><trkpt lat="44.01520689685669" lon="12.588567810479596"><ele>14.0</ele><time>2026-03-22T09:27:30.983Z</time></trkpt><trkpt lat="44.01498964785748" lon="12.588820636244185"><ele>13.0</ele><time>2026-03-22T09:27:31.983Z</time></trkpt><trkpt lat="44.014778495391596" lon="12.589077590278746"><ele>13.0</ele><time>2026-03-22T09:27:32.983Z</time></trkpt><trkpt lat="44.014578481145456" lon="12.589324356698546"><ele>13.0</ele><time>2026-03-22T09:27:33.983Z</time></trkpt><trkpt lat="44.01438225767591" lon="12.589568319961867"><ele>13.0</ele><time>2026-03-22T09:27:34.983Z</time></trkpt><trkpt lat="44.01417875106358" lon="12.589822524137508"><ele>13.0</ele><time>2026-03-22T09:27:35.983Z</time></trkpt><trkpt lat="44.0139709642672" lon="12.590072775680094"><ele>12.5</ele><time>2026-03-22T09:27:36.983Z</time></trkpt><trkpt lat="44.013766045024035" lon="12.590317566780353"><ele>12.0</ele><time>2026-03-22T09:27:37.983Z</time></trkpt><trkpt lat="44.01357354668642" lon="12.590554619099128"><ele>12.0</ele><time>2026-03-22T09:27:38.983Z</time></trkpt><trkpt lat="44.01338114599073" lon="12.590791747879285"><ele>12.0</ele><time>2026-03-22T09:27:39.983Z</time></trkpt><trkpt lat="44.0131858829935" lon="12.591027904307472"><ele>12.0</ele><time>2026-03-22T09:27:40.983Z</time></trkpt><trkpt lat="44.01298907152841" lon="12.591263572910396"><ele>12.0</ele><time>2026-03-22T09:27:41.983Z</time></trkpt><trkpt lat="44.01279206461842" lon="12.591501519035816"><ele>12.0</ele><time>2026-03-22T09:27:42.983Z</time></trkpt><trkpt lat="44.01259499221073" lon="12.591740254929043"><ele>12.0</ele><time>2026-03-22T09:27:43.983Z</time></trkpt><trkpt lat="44.01240231709043" lon="12.591974281203614"><ele>13.0</ele><time>2026-03-22T09:27:44.983Z</time></trkpt><trkpt lat="44.012210228600466" lon="12.592207560025663"><ele>14.0</ele><time>2026-03-22T09:27:45.983Z</time></trkpt><trkpt lat="44.01201808727769" lon="12.592441722248056"><ele>14.0</ele><time>2026-03-22T09:27:46.983Z</time></trkpt><trkpt lat="44.01182581736543" lon="12.592676204099778"><ele>14.0</ele><time>2026-03-22T09:27:47.983Z</time></trkpt><trkpt lat="44.01162910033934" lon="12.592907390316444"><ele>13.5</ele><time>2026-03-22T09:27:48.983Z</time></trkpt><trkpt lat="44.01143690112619" lon="12.593143805076437"><ele>13.0</ele><time>2026-03-22T09:27:49.983Z</time></trkpt><trkpt lat="44.01124640596266" lon="12.593389924119712"><ele>13.0</ele><time>2026-03-22T09:27:50.983Z</time></trkpt><trkpt lat="44.01105083325781" lon="12.593634817637698"><ele>13.0</ele><time>2026-03-22T09:27:51.983Z</time></trkpt><trkpt lat="44.0108494011678" lon="12.59387142093651"><ele>15.0</ele><time>2026-03-22T09:27:52.983Z</time></trkpt><trkpt lat="44.010653899744035" lon="12.59411493125524"><ele>17.0</ele><time>2026-03-22T09:27:53.983Z</time></trkpt><trkpt lat="44.01046329710202" lon="12.594346637310409"><ele>17.5</ele><time>2026-03-22T09:27:54.983Z</time></trkpt><trkpt lat="44.01027924534993" lon="12.594575901615457"><ele>18.0</ele><time>2026-03-22T09:27:55.983Z</time></trkpt><trkpt lat="44.01009191555761" lon="12.594804401029727"><ele>21.0</ele><time>2026-03-22T09:27:56.983Z</time></trkpt><trkpt lat="44.00990591406362" lon="12.595036659663032"><ele>24.0</ele><time>2026-03-22T09:27:57.983Z</time></trkpt><trkpt lat="44.00971887641239" lon="12.595269950102"><ele>23.0</ele><time>2026-03-22T09:27:58.983Z</time></trkpt><trkpt lat="44.00952860670099" lon="12.595504413144916"><ele>22.0</ele><time>2026-03-22T09:27:59.983Z</time></trkpt><trkpt lat="44.00933895449516" lon="12.595733208889381"><ele>23.0</ele><time>2026-03-22T09:28:00.983Z</time></trkpt><trkpt lat="44.00915135873833" lon="12.59596980393561"><ele>24.0</ele><time>2026-03-22T09:28:01.983Z</time></trkpt><trkpt lat="44.00896044066944" lon="12.596200194312477"><ele>24.0</ele><time>2026-03-22T09:28:02.981Z</time></trkpt><trkpt lat="44.00876824010554" lon="12.596438538862026"><ele>24.0</ele><time>2026-03-22T09:28:03.981Z</time></trkpt><trkpt lat="44.008575877813634" lon="12.596677814327201"><ele>24.0</ele><time>2026-03-22T09:28:04.981Z</time></trkpt><trkpt lat="44.008377297685385" lon="12.596912866420997"><ele>24.0</ele><time>2026-03-22T09:28:05.982Z</time></trkpt><trkpt lat="44.008180280865716" lon="12.597151811326093"><ele>22.5</ele><time>2026-03-22T09:28:06.981Z</time></trkpt><trkpt lat="44.007980377735066" lon="12.59739389448654"><ele>21.0</ele><time>2026-03-22T09:28:07.981Z</time></trkpt><trkpt lat="44.007783040202504" lon="12.597640844889016"><ele>21.0</ele><time>2026-03-22T09:28:08.981Z</time></trkpt><trkpt lat="44.007586805203175" lon="12.597886447025445"><ele>21.0</ele><time>2026-03-22T09:28:09.981Z</time></trkpt><trkpt lat="44.00738950596399" lon="12.598132778858488"><ele>21.0</ele><time>2026-03-22T09:28:10.981Z</time></trkpt><trkpt lat="44.00719517684894" lon="12.59837624876115"><ele>21.0</ele><time>2026-03-22T09:28:11.981Z</time></trkpt><trkpt lat="44.00699194344275" lon="12.59862192023896"><ele>21.5</ele><time>2026-03-22T09:28:12.981Z</time></trkpt><trkpt lat="44.00678590310437" lon="12.598867470746113"><ele>22.0</ele><time>2026-03-22T09:28:13.981Z</time></trkpt><trkpt lat="44.00658412161845" lon="12.599109001016073"><ele>22.0</ele><time>2026-03-22T09:28:14.981Z</time></trkpt><trkpt lat="44.00638070729091" lon="12.599359246210224"><ele>22.0</ele><time>2026-03-22T09:28:15.981Z</time></trkpt><trkpt lat="44.006182864849315" lon="12.599607923653927"><ele>22.0</ele><time>2026-03-22T09:28:16.981Z</time></trkpt><trkpt lat="44.00598220956585" lon="12.599860382119994"><ele>22.0</ele><time>2026-03-22T09:28:17.981Z</time></trkpt><trkpt lat="44.0057811726869" lon="12.600109249760974"><ele>21.0</ele><time>2026-03-22T09:28:18.981Z</time></trkpt><trkpt lat="44.00557732965201" lon="12.600354288894781"><ele>20.0</ele><time>2026-03-22T09:28:19.981Z</time></trkpt><trkpt lat="44.00536467430268" lon="12.600597303606033"><ele>20.0</ele><time>2026-03-22T09:28:20.981Z</time></trkpt><trkpt lat="44.00515567293237" lon="12.600842122501072"><ele>20.0</ele><time>2026-03-22T09:28:21.981Z</time></trkpt><trkpt lat="44.00494988655111" lon="12.601092216725206"><ele>20.5</ele><time>2026-03-22T09:28:22.981Z</time></trkpt><trkpt lat="44.00474425919766" lon="12.60134170373857"><ele>21.0</ele><time>2026-03-22T09:28:23.981Z</time></trkpt><trkpt lat="44.00454117243899" lon="12.60159193702027"><ele>21.0</ele><time>2026-03-22T09:28:24.981Z</time></trkpt><trkpt lat="44.0043357078422" lon="12.60184623955267"><ele>21.0</ele><time>2026-03-22T09:28:25.981Z</time></trkpt><trkpt lat="44.0041203363672" lon="12.602094866496884"><ele>21.0</ele><time>2026-03-22T09:28:26.981Z</time></trkpt><trkpt lat="44.00391006665581" lon="12.602357246216085"><ele>21.0</ele><time>2026-03-22T09:28:27.981Z</time></trkpt><trkpt lat="44.003696847269595" lon="12.602619546310468"><ele>21.5</ele><time>2026-03-22T09:28:28.981Z</time></trkpt><trkpt lat="44.003484111276904" lon="12.60287542526547"><ele>22.0</ele><time>2026-03-22T09:28:29.981Z</time></trkpt><trkpt lat="44.00327598011118" lon="12.603134229096831"><ele>22.0</ele><time>2026-03-22T09:28:30.981Z</time></trkpt><trkpt lat="44.00306922599506" lon="12.603397479874273"><ele>22.0</ele><time>2026-03-22T09:28:31.981Z</time></trkpt><trkpt lat="44.002862057965615" lon="12.603665041488895"><ele>22.5</ele><time>2026-03-22T09:28:32.981Z</time></trkpt><trkpt lat="44.00265505850945" lon="12.603934158000396"><ele>23.0</ele><time>2026-03-22T09:28:33.981Z</time></trkpt><trkpt lat="44.00244863560208" lon="12.604203008573611"><ele>23.0</ele><time>2026-03-22T09:28:34.981Z</time></trkpt><trkpt lat="44.002246483728264" lon="12.604474220088013"><ele>23.0</ele><time>2026-03-22T09:28:35.981Z</time></trkpt><trkpt lat="44.00204611334179" lon="12.604745657403218"><ele>23.0</ele><time>2026-03-22T09:28:36.981Z</time></trkpt><trkpt lat="44.001850072187295" lon="12.605018120662866"><ele>23.0</ele><time>2026-03-22T09:28:37.981Z</time></trkpt><trkpt lat="44.00166647297132" lon="12.605296533274126"><ele>23.0</ele><time>2026-03-22T09:28:38.981Z</time></trkpt><trkpt lat="44.00148398505841" lon="12.605578833756663"><ele>23.0</ele><time>2026-03-22T09:28:39.981Z</time></trkpt><trkpt lat="44.00130253646772" lon="12.605868163131815"><ele>23.0</ele><time>2026-03-22T09:28:40.981Z</time></trkpt><trkpt lat="44.00112441282249" lon="12.606160484806336"><ele>23.0</ele><time>2026-03-22T09:28:41.981Z</time></trkpt><trkpt lat="44.000950536766176" lon="12.606452581037797"><ele>23.0</ele><time>2026-03-22T09:28:42.981Z</time></trkpt><trkpt lat="44.000781539834115" lon="12.606748472943906"><ele>23.0</ele><time>2026-03-22T09:28:43.981Z</time></trkpt><trkpt lat="44.0006160503102" lon="12.607050396308722"><ele>22.5</ele><time>2026-03-22T09:28:44.981Z</time></trkpt><trkpt lat="44.000451791851646" lon="12.6073531548293"><ele>22.0</ele><time>2026-03-22T09:28:45.981Z</time></trkpt><trkpt lat="44.000291797320074" lon="12.607658561837516"><ele>22.0</ele><time>2026-03-22T09:28:46.981Z</time></trkpt><trkpt lat="44.00013363983912" lon="12.607965688295577"><ele>22.0</ele><time>2026-03-22T09:28:47.981Z</time></trkpt><trkpt lat="43.99997804883652" lon="12.608274547907024"><ele>22.0</ele><time>2026-03-22T09:28:48.981Z</time></trkpt><trkpt lat="43.999823515841456" lon="12.608586626660651"><ele>22.0</ele><time>2026-03-22T09:28:49.981Z</time></trkpt><trkpt lat="43.99966817711814" lon="12.608901223528399"><ele>22.0</ele><time>2026-03-22T09:28:50.981Z</time></trkpt><trkpt lat="43.999510213705875" lon="12.60921375663141"><ele>22.0</ele><time>2026-03-22T09:28:51.981Z</time></trkpt><trkpt lat="43.99934970650462" lon="12.609525246232987"><ele>22.0</ele><time>2026-03-22T09:28:52.981Z</time></trkpt><trkpt lat="43.99918974845321" lon="12.609832522265929"><ele>22.0</ele><time>2026-03-22T09:28:53.981Z</time></trkpt><trkpt lat="43.99903262815896" lon="12.610141366274227"><ele>22.5</ele><time>2026-03-22T09:28:54.981Z</time></trkpt><trkpt lat="43.998874894214325" lon="12.610454627376482"><ele>23.0</ele><time>2026-03-22T09:28:55.981Z</time></trkpt><trkpt lat="43.998715626828236" lon="12.610766625557762"><ele>23.0</ele><time>2026-03-22T09:28:56.981Z</time></trkpt><trkpt lat="43.99855922215984" lon="12.611071978272557"><ele>23.0</ele><time>2026-03-22T09:28:57.981Z</time></trkpt><trkpt lat="43.998400293154475" lon="12.611381344201845"><ele>22.5</ele><time>2026-03-22T09:28:58.981Z</time></trkpt><trkpt lat="43.998246313659585" lon="12.611685121266634"><ele>22.0</ele><time>2026-03-22T09:28:59.981Z</time></trkpt><trkpt lat="43.998093437878765" lon="12.61199052076187"><ele>21.5</ele><time>2026-03-22T09:29:00.981Z</time></trkpt><trkpt lat="43.99793971506144" lon="12.61229945910598"><ele>21.0</ele><time>2026-03-22T09:29:01.981Z</time></trkpt><trkpt lat="43.997785550244906" lon="12.61260804882022"><ele>19.5</ele><time>2026-03-22T09:29:02.981Z</time></trkpt><trkpt lat="43.99762999812639" lon="12.612915296128774"><ele>18.0</ele><time>2026-03-22T09:29:03.981Z</time></trkpt><trkpt lat="43.997476794490154" lon="12.613225623558586"><ele>17.0</ele><time>2026-03-22T09:29:04.981Z</time></trkpt><trkpt lat="43.99732175602699" lon="12.613530288681963"><ele>16.0</ele><time>2026-03-22T09:29:05.981Z</time></trkpt><trkpt lat="43.99716504025479" lon="12.613841058515696"><ele>16.0</ele><time>2026-03-22T09:29:06.981Z</time></trkpt><trkpt lat="43.99701024945044" lon="12.614154469969044"><ele>16.0</ele><time>2026-03-22T09:29:07.981Z</time></trkpt><trkpt lat="43.9968576042273" lon="12.614465073099913"><ele>16.0</ele><time>2026-03-22T09:29:08.981Z</time></trkpt><trkpt lat="43.99670561525476" lon="12.614775576385693"><ele>16.0</ele><time>2026-03-22T09:29:09.981Z</time></trkpt><trkpt lat="43.996553135022886" lon="12.615084213529942"><ele>18.5</ele><time>2026-03-22T09:29:10.981Z</time></trkpt><trkpt lat="43.99640215843163" lon="12.615381637929554"><ele>21.0</ele><time>2026-03-22T09:29:11.981Z</time></trkpt><trkpt lat="43.99624955714304" lon="12.61567828807203"><ele>21.0</ele><time>2026-03-22T09:29:12.981Z</time></trkpt><trkpt lat="43.99609825781434" lon="12.615978014473608"><ele>21.0</ele><time>2026-03-22T09:29:13.981Z</time></trkpt><trkpt lat="43.99594477186181" lon="12.616277947636227"><ele>20.5</ele><time>2026-03-22T09:29:14.981Z</time></trkpt><trkpt lat="43.99578953367457" lon="12.616582608773815"><ele>20.0</ele><time>2026-03-22T09:29:15.981Z</time></trkpt><trkpt lat="43.9956358750486" lon="12.616893849581086"><ele>19.5</ele><time>2026-03-22T09:29:16.981Z</time></trkpt><trkpt lat="43.99548354887476" lon="12.61720371260839"><ele>19.0</ele><time>2026-03-22T09:29:17.981Z</time></trkpt><trkpt lat="43.995332781885715" lon="12.617498625871667"><ele>19.0</ele><time>2026-03-22T09:29:18.981Z</time></trkpt><trkpt lat="43.99518724695176" lon="12.617794495396645"><ele>19.0</ele><time>2026-03-22T09:29:19.981Z</time></trkpt><trkpt lat="43.99503981074954" lon="12.618085945916617"><ele>19.5</ele><time>2026-03-22T09:29:20.981Z</time></trkpt><trkpt lat="43.994892454402006" lon="12.61839361348946"><ele>20.0</ele><time>2026-03-22T09:29:21.981Z</time></trkpt><trkpt lat="43.99474439371127" lon="12.61869386742261"><ele>20.5</ele><time>2026-03-22T09:29:22.981Z</time></trkpt><trkpt lat="43.99458974264809" lon="12.619001769656698"><ele>21.0</ele><time>2026-03-22T09:29:23.981Z</time></trkpt><trkpt lat="43.9944356776244" lon="12.619298622955487"><ele>20.5</ele><time>2026-03-22T09:29:24.981Z</time></trkpt><trkpt lat="43.994281045582966" lon="12.619597291355445"><ele>20.0</ele><time>2026-03-22T09:29:25.981Z</time></trkpt><trkpt lat="43.994129956488656" lon="12.619902135477888"><ele>20.0</ele><time>2026-03-22T09:29:26.981Z</time></trkpt><trkpt lat="43.99397875778521" lon="12.620207775804639"><ele>20.0</ele><time>2026-03-22T09:29:27.981Z</time></trkpt><trkpt lat="43.9938303076438" lon="12.620514879440735"><ele>19.5</ele><time>2026-03-22T09:29:28.981Z</time></trkpt><trkpt lat="43.99368771095799" lon="12.620817051440323"><ele>19.0</ele><time>2026-03-22T09:29:29.981Z</time></trkpt><trkpt lat="43.9935415951875" lon="12.621110279065242"><ele>19.0</ele><time>2026-03-22T09:29:30.981Z</time></trkpt><trkpt lat="43.993398520997275" lon="12.621400922810546"><ele>19.0</ele><time>2026-03-22T09:29:31.981Z</time></trkpt><trkpt lat="43.99324693373547" lon="12.621690524818039"><ele>19.5</ele><time>2026-03-22T09:29:32.981Z</time></trkpt><trkpt lat="43.99309850166353" lon="12.621986516170713"><ele>20.0</ele><time>2026-03-22T09:29:33.981Z</time></trkpt><trkpt lat="43.99294735300889" lon="12.622285776051056"><ele>20.0</ele><time>2026-03-22T09:29:34.981Z</time></trkpt><trkpt lat="43.992796606550044" lon="12.622593402186844"><ele>20.0</ele><time>2026-03-22T09:29:35.981Z</time></trkpt><trkpt lat="43.99264591306285" lon="12.622899801825177"><ele>20.5</ele><time>2026-03-22T09:29:36.981Z</time></trkpt><trkpt lat="43.99249461103442" lon="12.62320489968298"><ele>21.0</ele><time>2026-03-22T09:29:37.981Z</time></trkpt><trkpt lat="43.99234447422867" lon="12.623520505769296"><ele>20.0</ele><time>2026-03-22T09:29:38.981Z</time></trkpt><trkpt lat="43.99218276999915" lon="12.623835607902196"><ele>19.0</ele><time>2026-03-22T09:29:39.981Z</time></trkpt><trkpt lat="43.99202273994395" lon="12.624138706943368"><ele>19.0</ele><time>2026-03-22T09:29:40.981Z</time></trkpt><trkpt lat="43.99187797540479" lon="12.624439655744126"><ele>19.0</ele><time>2026-03-22T09:29:41.981Z</time></trkpt><trkpt lat="43.99173081766362" lon="12.624750133618392"><ele>18.5</ele><time>2026-03-22T09:29:42.981Z</time></trkpt><trkpt lat="43.991586338504284" lon="12.625058987088195"><ele>18.0</ele><time>2026-03-22T09:29:43.981Z</time></trkpt><trkpt lat="43.991450052270615" lon="12.625359161786214"><ele>18.0</ele><time>2026-03-22T09:29:44.981Z</time></trkpt><trkpt lat="43.99130679261475" lon="12.62566234210354"><ele>18.0</ele><time>2026-03-22T09:29:45.981Z</time></trkpt><trkpt lat="43.99117661052025" lon="12.625958046118084"><ele>18.0</ele><time>2026-03-22T09:29:46.981Z</time></trkpt><trkpt lat="43.991051721059804" lon="12.626238733913896"><ele>18.0</ele><time>2026-03-22T09:29:47.981Z</time></trkpt><trkpt lat="43.99092117066106" lon="12.626532947033704"><ele>18.5</ele><time>2026-03-22T09:29:48.981Z</time></trkpt><trkpt lat="43.99078710845028" lon="12.626836549002297"><ele>19.0</ele><time>2026-03-22T09:29:49.981Z</time></trkpt><trkpt lat="43.990649946808524" lon="12.627149715933218"><ele>19.0</ele><time>2026-03-22T09:29:50.981Z</time></trkpt><trkpt lat="43.9905188217121" lon="12.627467511502854"><ele>19.0</ele><time>2026-03-22T09:29:51.981Z</time></trkpt><trkpt lat="43.990385963151084" lon="12.627798843365804"><ele>18.5</ele><time>2026-03-22T09:29:52.981Z</time></trkpt><trkpt lat="43.99025013953017" lon="12.628124809336951"><ele>18.0</ele><time>2026-03-22T09:29:53.981Z</time></trkpt><trkpt lat="43.99011914652917" lon="12.628456499219768"><ele>17.5</ele><time>2026-03-22T09:29:54.981Z</time></trkpt><trkpt lat="43.9899848447416" lon="12.628788462397216"><ele>17.0</ele><time>2026-03-22T09:29:55.981Z</time></trkpt><trkpt lat="43.98986079999941" lon="12.629114867746623"><ele>17.0</ele><time>2026-03-22T09:29:56.981Z</time></trkpt><trkpt lat="43.98973490769401" lon="12.629439978601836"><ele>17.0</ele><time>2026-03-22T09:29:57.981Z</time></trkpt><trkpt lat="43.9896079410004" lon="12.629768966687642"><ele>15.5</ele><time>2026-03-22T09:29:58.981Z</time></trkpt><trkpt lat="43.98947438919225" lon="12.630097379120649"><ele>14.0</ele><time>2026-03-22T09:29:59.981Z</time></trkpt><trkpt lat="43.98934225281733" lon="12.630428718234896"><ele>13.5</ele><time>2026-03-22T09:30:00.981Z</time></trkpt><trkpt lat="43.989206532332126" lon="12.630764888727645"><ele>13.0</ele><time>2026-03-22T09:30:01.981Z</time></trkpt><trkpt lat="43.98907459063551" lon="12.631104329425915"><ele>14.0</ele><time>2026-03-22T09:30:02.981Z</time></trkpt><trkpt lat="43.988941956816305" lon="12.631442000716092"><ele>15.0</ele><time>2026-03-22T09:30:03.981Z</time></trkpt><trkpt lat="43.98880862434642" lon="12.631772228158239"><ele>15.5</ele><time>2026-03-22T09:30:04.981Z</time></trkpt><trkpt lat="43.9886737551495" lon="12.632107811616635"><ele>16.0</ele><time>2026-03-22T09:30:05.981Z</time></trkpt><trkpt lat="43.988541000297495" lon="12.632444451316472"><ele>16.0</ele><time>2026-03-22T09:30:06.981Z</time></trkpt><trkpt lat="43.988409541035644" lon="12.632781627471335"><ele>16.0</ele><time>2026-03-22T09:30:07.981Z</time></trkpt><trkpt lat="43.988277593293034" lon="12.633115949822619"><ele>15.5</ele><time>2026-03-22T09:30:08.979Z</time></trkpt><trkpt lat="43.98814544362286" lon="12.63345102261273"><ele>15.0</ele><time>2026-03-22T09:30:09.979Z</time></trkpt><trkpt lat="43.98801308369412" lon="12.633781370681627"><ele>15.0</ele><time>2026-03-22T09:30:10.979Z</time></trkpt><trkpt lat="43.987881687953426" lon="12.634111873133397"><ele>15.0</ele><time>2026-03-22T09:30:11.979Z</time></trkpt><trkpt lat="43.98774854773246" lon="12.634446205677225"><ele>15.0</ele><time>2026-03-22T09:30:12.979Z</time></trkpt><trkpt lat="43.98762060210915" lon="12.634780979601773"><ele>15.0</ele><time>2026-03-22T09:30:13.979Z</time></trkpt><trkpt lat="43.98748705879792" lon="12.63511514411181"><ele>16.0</ele><time>2026-03-22T09:30:14.979Z</time></trkpt><trkpt lat="43.987355643283294" lon="12.635449421458178"><ele>17.0</ele><time>2026-03-22T09:30:15.979Z</time></trkpt><trkpt lat="43.9872240847908" lon="12.635775976602185"><ele>17.0</ele><time>2026-03-22T09:30:16.979Z</time></trkpt><trkpt lat="43.987092775760786" lon="12.636108105533962"><ele>17.0</ele><time>2026-03-22T09:30:17.979Z</time></trkpt><trkpt lat="43.986956866863856" lon="12.636438507541513"><ele>17.0</ele><time>2026-03-22T09:30:18.979Z</time></trkpt><trkpt lat="43.98683012048187" lon="12.636765754529867"><ele>17.0</ele><time>2026-03-22T09:30:19.979Z</time></trkpt><trkpt lat="43.98669502986483" lon="12.637094749316818"><ele>17.0</ele><time>2026-03-22T09:30:20.979Z</time></trkpt><trkpt lat="43.986557554011505" lon="12.637423084701416"><ele>17.0</ele><time>2026-03-22T09:30:21.979Z</time></trkpt><trkpt lat="43.98642718546452" lon="12.637751347257161"><ele>17.5</ele><time>2026-03-22T09:30:22.979Z</time></trkpt><trkpt lat="43.98629841074871" lon="12.638079255277836"><ele>18.0</ele><time>2026-03-22T09:30:23.979Z</time></trkpt><trkpt lat="43.98616659768712" lon="12.638409419361652"><ele>18.0</ele><time>2026-03-22T09:30:24.979Z</time></trkpt><trkpt lat="43.986038308871315" lon="12.638733034282518"><ele>18.0</ele><time>2026-03-22T09:30:25.979Z</time></trkpt><trkpt lat="43.9859143605622" lon="12.63905610543468"><ele>18.0</ele><time>2026-03-22T09:30:26.979Z</time></trkpt><trkpt lat="43.98579222459118" lon="12.639381338729208"><ele>18.0</ele><time>2026-03-22T09:30:27.979Z</time></trkpt><trkpt lat="43.985663480472645" lon="12.639703176206586"><ele>18.0</ele><time>2026-03-22T09:30:28.979Z</time></trkpt><trkpt lat="43.985533088106344" lon="12.640029968906015"><ele>18.0</ele><time>2026-03-22T09:30:29.979Z</time></trkpt><trkpt lat="43.985400556398574" lon="12.640345768997244"><ele>17.0</ele><time>2026-03-22T09:30:30.979Z</time></trkpt><trkpt lat="43.98527202051171" lon="12.6406675408904"><ele>16.0</ele><time>2026-03-22T09:30:31.979Z</time></trkpt><trkpt lat="43.985149227240875" lon="12.640993308293606"><ele>17.0</ele><time>2026-03-22T09:30:32.979Z</time></trkpt><trkpt lat="43.98502188931821" lon="12.641328030251731"><ele>18.0</ele><time>2026-03-22T09:30:33.979Z</time></trkpt><trkpt lat="43.98489333978844" lon="12.64165977575051"><ele>17.5</ele><time>2026-03-22T09:30:34.979Z</time></trkpt><trkpt lat="43.984758452027435" lon="12.641984344807206"><ele>17.0</ele><time>2026-03-22T09:30:35.979Z</time></trkpt><trkpt lat="43.98462446019556" lon="12.642307872275524"><ele>17.0</ele><time>2026-03-22T09:30:36.979Z</time></trkpt><trkpt lat="43.98450154345664" lon="12.64263668093714"><ele>17.0</ele><time>2026-03-22T09:30:37.979Z</time></trkpt><trkpt lat="43.98438073880655" lon="12.642965028263678"><ele>18.5</ele><time>2026-03-22T09:30:38.979Z</time></trkpt><trkpt lat="43.98424296122638" lon="12.643283097412317"><ele>20.0</ele><time>2026-03-22T09:30:39.979Z</time></trkpt><trkpt lat="43.98411331655208" lon="12.643601297404015"><ele>20.5</ele><time>2026-03-22T09:30:40.979Z</time></trkpt><trkpt lat="43.98398675150366" lon="12.643919108528506"><ele>21.0</ele><time>2026-03-22T09:30:41.979Z</time></trkpt><trkpt lat="43.983863296777294" lon="12.644241246523785"><ele>22.0</ele><time>2026-03-22T09:30:42.979Z</time></trkpt><trkpt lat="43.98373791916979" lon="12.644559725226667"><ele>23.0</ele><time>2026-03-22T09:30:43.979Z</time></trkpt><trkpt lat="43.98361035956457" lon="12.644877990105435"><ele>23.0</ele><time>2026-03-22T09:30:44.979Z</time></trkpt><trkpt lat="43.98348193198772" lon="12.64520355969279"><ele>23.0</ele><time>2026-03-22T09:30:45.979Z</time></trkpt><trkpt lat="43.983352026226726" lon="12.645520960951224"><ele>23.5</ele><time>2026-03-22T09:30:46.979Z</time></trkpt><trkpt lat="43.983217391284484" lon="12.645850028190871"><ele>24.0</ele><time>2026-03-22T09:30:47.979Z</time></trkpt><trkpt lat="43.98308304965836" lon="12.646188061964724"><ele>25.0</ele><time>2026-03-22T09:30:48.979Z</time></trkpt><trkpt lat="43.98295342807538" lon="12.64651928220863"><ele>26.0</ele><time>2026-03-22T09:30:49.979Z</time></trkpt><trkpt lat="43.982816407499406" lon="12.646848594529716"><ele>28.0</ele><time>2026-03-22T09:30:50.979Z</time></trkpt><trkpt lat="43.98269274575334" lon="12.647175424352813"><ele>30.0</ele><time>2026-03-22T09:30:51.979Z</time></trkpt><trkpt lat="43.982563165519394" lon="12.647498894658577"><ele>33.5</ele><time>2026-03-22T09:30:52.979Z</time></trkpt><trkpt lat="43.98243539731347" lon="12.647821447796025"><ele>37.0</ele><time>2026-03-22T09:30:53.979Z</time></trkpt><trkpt lat="43.982300166359934" lon="12.648151034698138"><ele>37.0</ele><time>2026-03-22T09:30:54.979Z</time></trkpt><trkpt lat="43.98217362978709" lon="12.64847524443649"><ele>37.0</ele><time>2026-03-22T09:30:55.979Z</time></trkpt><trkpt lat="43.98205274970578" lon="12.648793221093541"><ele>38.5</ele><time>2026-03-22T09:30:56.979Z</time></trkpt><trkpt lat="43.9819221722492" lon="12.649115103985885"><ele>40.0</ele><time>2026-03-22T09:30:57.979Z</time></trkpt><trkpt lat="43.981795255503734" lon="12.649432390149853"><ele>36.0</ele><time>2026-03-22T09:30:58.979Z</time></trkpt><trkpt lat="43.981666860843575" lon="12.649744615580214"><ele>32.0</ele><time>2026-03-22T09:30:59.979Z</time></trkpt><trkpt lat="43.98154240990467" lon="12.650062498480189"><ele>31.5</ele><time>2026-03-22T09:31:00.979Z</time></trkpt><trkpt lat="43.98141702405229" lon="12.650387126815136"><ele>31.0</ele><time>2026-03-22T09:31:01.979Z</time></trkpt><trkpt lat="43.9812849507468" lon="12.6507112887298"><ele>31.0</ele><time>2026-03-22T09:31:02.979Z</time></trkpt><trkpt lat="43.981156637517905" lon="12.6510387134873"><ele>31.0</ele><time>2026-03-22T09:31:03.979Z</time></trkpt><trkpt lat="43.98102851633348" lon="12.651373636096857"><ele>31.0</ele><time>2026-03-22T09:31:04.979Z</time></trkpt><trkpt lat="43.98089789032367" lon="12.651710702882786"><ele>31.0</ele><time>2026-03-22T09:31:05.979Z</time></trkpt><trkpt lat="43.98076276199312" lon="12.652040546049852"><ele>33.0</ele><time>2026-03-22T09:31:06.979Z</time></trkpt><trkpt lat="43.9806293886162" lon="12.652364893548832"><ele>35.0</ele><time>2026-03-22T09:31:07.979Z</time></trkpt><trkpt lat="43.98049132183376" lon="12.652684209233264"><ele>36.0</ele><time>2026-03-22T09:31:08.979Z</time></trkpt><trkpt lat="43.980352221798775" lon="12.65299555733817"><ele>37.0</ele><time>2026-03-22T09:31:09.979Z</time></trkpt><trkpt lat="43.98021328729968" lon="12.653309474284857"><ele>39.5</ele><time>2026-03-22T09:31:10.979Z</time></trkpt><trkpt lat="43.98007072728946" lon="12.65362209014413"><ele>42.0</ele><time>2026-03-22T09:31:11.979Z</time></trkpt><trkpt lat="43.97993235572559" lon="12.653937086840827"><ele>43.0</ele><time>2026-03-22T09:31:12.979Z</time></trkpt><trkpt lat="43.97979634005421" lon="12.654251521486506"><ele>44.0</ele><time>2026-03-22T09:31:13.979Z</time></trkpt><trkpt lat="43.97966145261903" lon="12.654561594043889"><ele>47.0</ele><time>2026-03-22T09:31:14.979Z</time></trkpt><trkpt lat="43.9795263735564" lon="12.654873123576131"><ele>50.0</ele><time>2026-03-22T09:31:15.979Z</time></trkpt><trkpt lat="43.97939354982653" lon="12.655180750346526"><ele>54.0</ele><time>2026-03-22T09:31:16.979Z</time></trkpt><trkpt lat="43.9792757217244" lon="12.655476506043621"><ele>58.0</ele><time>2026-03-22T09:31:17.979Z</time></trkpt><trkpt lat="43.979149715344725" lon="12.655764491126305"><ele>59.5</ele><time>2026-03-22T09:31:18.979Z</time></trkpt><trkpt lat="43.97902593695869" lon="12.656055618172738"><ele>61.0</ele><time>2026-03-22T09:31:19.979Z</time></trkpt><trkpt lat="43.97890244529709" lon="12.656346430231523"><ele>64.5</ele><time>2026-03-22T09:31:20.979Z</time></trkpt><trkpt lat="43.978776138193695" lon="12.656635484449936"><ele>68.0</ele><time>2026-03-22T09:31:21.979Z</time></trkpt><trkpt lat="43.97864454878949" lon="12.656921136602804"><ele>70.5</ele><time>2026-03-22T09:31:22.979Z</time></trkpt><trkpt lat="43.97851463667776" lon="12.657205528937556"><ele>73.0</ele><time>2026-03-22T09:31:23.979Z</time></trkpt><trkpt lat="43.97841117060201" lon="12.65750854544944"><ele>66.0</ele><time>2026-03-22T09:31:24.979Z</time></trkpt><trkpt lat="43.978276055580146" lon="12.657837311118065"><ele>59.0</ele><time>2026-03-22T09:31:26.118Z</time></trkpt><trkpt lat="43.97815318741011" lon="12.658124737747908"><ele>59.0</ele><time>2026-03-22T09:31:27.115Z</time></trkpt><trkpt lat="43.978027277665504" lon="12.658409629142318"><ele>59.0</ele><time>2026-03-22T09:31:28.116Z</time></trkpt><trkpt lat="43.9778996907448" lon="12.658678209962726"><ele>57.0</ele><time>2026-03-22T09:31:29.115Z</time></trkpt><trkpt lat="43.977709847285446" lon="12.659185810478471"><ele>55.0</ele><time>2026-03-22T09:31:30.978Z</time></trkpt><trkpt lat="43.97756789234645" lon="12.659456343846404"><ele>51.5</ele><time>2026-03-22T09:31:31.978Z</time></trkpt><trkpt lat="43.97743621486811" lon="12.659744522072332"><ele>48.0</ele><time>2026-03-22T09:31:32.978Z</time></trkpt><trkpt lat="43.977261823606014" lon="12.659995290396163"><ele>48.0</ele><time>2026-03-22T09:31:33.978Z</time></trkpt><trkpt lat="43.97704156623967" lon="12.660265635584587"><ele>48.0</ele><time>2026-03-22T09:31:34.978Z</time></trkpt><trkpt lat="43.97685509855939" lon="12.660517287154104"><ele>46.5</ele><time>2026-03-22T09:31:35.978Z</time></trkpt><trkpt lat="43.97666807151847" lon="12.660771747375865"><ele>45.0</ele><time>2026-03-22T09:31:36.978Z</time></trkpt><trkpt lat="43.97646037361428" lon="12.661017349898346"><ele>46.0</ele><time>2026-03-22T09:31:37.978Z</time></trkpt><trkpt lat="43.97624735646565" lon="12.661255360813184"><ele>47.0</ele><time>2026-03-22T09:31:38.978Z</time></trkpt><trkpt lat="43.97602428086963" lon="12.661488419138959"><ele>45.5</ele><time>2026-03-22T09:31:39.978Z</time></trkpt><trkpt lat="43.97579553677561" lon="12.661713813978343"><ele>44.0</ele><time>2026-03-22T09:31:40.978Z</time></trkpt><trkpt lat="43.97556570337627" lon="12.66193885927188"><ele>46.5</ele><time>2026-03-22T09:31:41.978Z</time></trkpt><trkpt lat="43.975334022123214" lon="12.662161472357207"><ele>49.0</ele><time>2026-03-22T09:31:42.978Z</time></trkpt><trkpt lat="43.97509740600012" lon="12.662378256253731"><ele>47.5</ele><time>2026-03-22T09:31:43.978Z</time></trkpt><trkpt lat="43.97486258461036" lon="12.66258792594373"><ele>46.0</ele><time>2026-03-22T09:31:44.978Z</time></trkpt><trkpt lat="43.97462757272142" lon="12.662808883084057"><ele>44.5</ele><time>2026-03-22T09:31:45.978Z</time></trkpt><trkpt lat="43.97439616925831" lon="12.663035824768922"><ele>43.0</ele><time>2026-03-22T09:31:46.978Z</time></trkpt><trkpt lat="43.974168387116315" lon="12.663256906130508"><ele>43.0</ele><time>2026-03-22T09:31:47.978Z</time></trkpt><trkpt lat="43.97394434938032" lon="12.663472621910286"><ele>43.0</ele><time>2026-03-22T09:31:48.978Z</time></trkpt><trkpt lat="43.97372880378888" lon="12.663680541997099"><ele>45.5</ele><time>2026-03-22T09:31:49.978Z</time></trkpt><trkpt lat="43.97351035708507" lon="12.663893819638782"><ele>48.0</ele><time>2026-03-22T09:31:50.978Z</time></trkpt><trkpt lat="43.97328995278746" lon="12.664101271771619"><ele>44.0</ele><time>2026-03-22T09:31:51.978Z</time></trkpt><trkpt lat="43.9730796966365" lon="12.664303416717724"><ele>40.0</ele><time>2026-03-22T09:31:52.978Z</time></trkpt><trkpt lat="43.972877530021655" lon="12.664501119569778"><ele>40.0</ele><time>2026-03-22T09:31:53.978Z</time></trkpt><trkpt lat="43.97267042739005" lon="12.664698851652545"><ele>40.0</ele><time>2026-03-22T09:31:54.978Z</time></trkpt><trkpt lat="43.97246519977078" lon="12.664903987040487"><ele>36.5</ele><time>2026-03-22T09:31:55.978Z</time></trkpt><trkpt lat="43.9722647732274" lon="12.665113423022781"><ele>33.0</ele><time>2026-03-22T09:31:56.978Z</time></trkpt><trkpt lat="43.97206312173658" lon="12.665324636135031"><ele>33.0</ele><time>2026-03-22T09:31:57.978Z</time></trkpt><trkpt lat="43.97186094738273" lon="12.665541193166689"><ele>33.0</ele><time>2026-03-22T09:31:58.978Z</time></trkpt><trkpt lat="43.97166339578291" lon="12.6657637824738"><ele>31.5</ele><time>2026-03-22T09:31:59.978Z</time></trkpt><trkpt lat="43.97147024422155" lon="12.665995313495037"><ele>30.0</ele><time>2026-03-22T09:32:00.978Z</time></trkpt><trkpt lat="43.97128274832643" lon="12.666241482118805"><ele>29.0</ele><time>2026-03-22T09:32:01.978Z</time></trkpt><trkpt lat="43.97109938518528" lon="12.666496380737545"><ele>28.0</ele><time>2026-03-22T09:32:02.978Z</time></trkpt><trkpt lat="43.97092345203803" lon="12.666758055278342"><ele>27.5</ele><time>2026-03-22T09:32:03.978Z</time></trkpt><trkpt lat="43.970756048187496" lon="12.66703610202182"><ele>27.0</ele><time>2026-03-22T09:32:04.978Z</time></trkpt><trkpt lat="43.97059332410672" lon="12.667319275775798"><ele>27.0</ele><time>2026-03-22T09:32:05.978Z</time></trkpt><trkpt lat="43.970438049108495" lon="12.66761037732221"><ele>27.0</ele><time>2026-03-22T09:32:06.978Z</time></trkpt><trkpt lat="43.97029344525955" lon="12.667904872909297"><ele>27.5</ele><time>2026-03-22T09:32:07.978Z</time></trkpt><trkpt lat="43.970155838798846" lon="12.668206658348028"><ele>28.0</ele><time>2026-03-22T09:32:08.978Z</time></trkpt><trkpt lat="43.97002403431619" lon="12.668512617909586"><ele>28.0</ele><time>2026-03-22T09:32:09.978Z</time></trkpt><trkpt lat="43.96989792416436" lon="12.668829152463692"><ele>28.0</ele><time>2026-03-22T09:32:10.978Z</time></trkpt><trkpt lat="43.969781265869265" lon="12.669154900921013"><ele>26.5</ele><time>2026-03-22T09:32:11.978Z</time></trkpt><trkpt lat="43.96967183847249" lon="12.669484776165172"><ele>25.0</ele><time>2026-03-22T09:32:12.978Z</time></trkpt><trkpt lat="43.969570569927136" lon="12.66982400730087"><ele>25.0</ele><time>2026-03-22T09:32:13.978Z</time></trkpt><trkpt lat="43.96948079779502" lon="12.670165017208271"><ele>25.0</ele><time>2026-03-22T09:32:14.976Z</time></trkpt><trkpt lat="43.96939734072948" lon="12.670518330224837"><ele>24.0</ele><time>2026-03-22T09:32:15.977Z</time></trkpt><trkpt lat="43.96932449783155" lon="12.670870819665556"><ele>23.0</ele><time>2026-03-22T09:32:16.977Z</time></trkpt><trkpt lat="43.969259997609754" lon="12.671226549511193"><ele>21.5</ele><time>2026-03-22T09:32:17.977Z</time></trkpt><trkpt lat="43.96920392407472" lon="12.671586833604351"><ele>20.0</ele><time>2026-03-22T09:32:18.977Z</time></trkpt><trkpt lat="43.96915494776073" lon="12.671960397629896"><ele>20.0</ele><time>2026-03-22T09:32:19.977Z</time></trkpt><trkpt lat="43.96909861292623" lon="12.672331251584547"><ele>20.0</ele><time>2026-03-22T09:32:20.977Z</time></trkpt><trkpt lat="43.96903799521718" lon="12.672706860008248"><ele>20.5</ele><time>2026-03-22T09:32:21.976Z</time></trkpt><trkpt lat="43.9689893569771" lon="12.67307802962187"><ele>21.0</ele><time>2026-03-22T09:32:22.976Z</time></trkpt><trkpt lat="43.96893921202139" lon="12.673451023252197"><ele>19.5</ele><time>2026-03-22T09:32:23.976Z</time></trkpt><trkpt lat="43.968891513433185" lon="12.673824748237694"><ele>18.0</ele><time>2026-03-22T09:32:24.976Z</time></trkpt><trkpt lat="43.96884640263686" lon="12.674191357054521"><ele>17.5</ele><time>2026-03-22T09:32:25.976Z</time></trkpt><trkpt lat="43.96880298650423" lon="12.674557851042612"><ele>17.0</ele><time>2026-03-22T09:32:26.976Z</time></trkpt><trkpt lat="43.968761914012546" lon="12.674935427477706"><ele>17.5</ele><time>2026-03-22T09:32:27.976Z</time></trkpt><trkpt lat="43.96871879226383" lon="12.675316279678627"><ele>18.0</ele><time>2026-03-22T09:32:28.976Z</time></trkpt><trkpt lat="43.96867223316693" lon="12.675700265697998"><ele>18.0</ele><time>2026-03-22T09:32:29.976Z</time></trkpt><trkpt lat="43.96863067067431" lon="12.676089937284722"><ele>18.0</ele><time>2026-03-22T09:32:30.976Z</time></trkpt><trkpt lat="43.96858189640543" lon="12.676467312162524"><ele>19.0</ele><time>2026-03-22T09:32:31.976Z</time></trkpt><trkpt lat="43.968541917680255" lon="12.676832743313172"><ele>20.0</ele><time>2026-03-22T09:32:32.976Z</time></trkpt><trkpt lat="43.96849720205966" lon="12.677207267254534"><ele>20.0</ele><time>2026-03-22T09:32:33.976Z</time></trkpt><trkpt lat="43.96845268465537" lon="12.677585881699503"><ele>20.0</ele><time>2026-03-22T09:32:34.976Z</time></trkpt><trkpt lat="43.968399925478785" lon="12.677963110410714"><ele>21.0</ele><time>2026-03-22T09:32:35.976Z</time></trkpt><trkpt lat="43.96834964760971" lon="12.678347383139863"><ele>22.0</ele><time>2026-03-22T09:32:36.976Z</time></trkpt><trkpt lat="43.9682984135988" lon="12.678732227747897"><ele>22.0</ele><time>2026-03-22T09:32:37.976Z</time></trkpt><trkpt lat="43.96824868899655" lon="12.679116479508494"><ele>22.0</ele><time>2026-03-22T09:32:38.976Z</time></trkpt><trkpt lat="43.96819779142697" lon="12.679500083877574"><ele>21.5</ele><time>2026-03-22T09:32:39.976Z</time></trkpt><trkpt lat="43.968151098306286" lon="12.679886222351163"><ele>21.0</ele><time>2026-03-22T09:32:40.976Z</time></trkpt><trkpt lat="43.968102429965185" lon="12.680270179831782"><ele>20.0</ele><time>2026-03-22T09:32:41.976Z</time></trkpt><trkpt lat="43.9680515115843" lon="12.680654952108576"><ele>19.0</ele><time>2026-03-22T09:32:42.976Z</time></trkpt><trkpt lat="43.96800202068375" lon="12.68103799731097"><ele>18.5</ele><time>2026-03-22T09:32:43.976Z</time></trkpt><trkpt lat="43.96795343668261" lon="12.681419338487704"><ele>18.0</ele><time>2026-03-22T09:32:44.976Z</time></trkpt><trkpt lat="43.96790444548494" lon="12.681796669312956"><ele>19.0</ele><time>2026-03-22T09:32:45.976Z</time></trkpt><trkpt lat="43.96785552737778" lon="12.682171742013779"><ele>20.0</ele><time>2026-03-22T09:32:46.976Z</time></trkpt><trkpt lat="43.96780379485827" lon="12.682552119856195"><ele>19.0</ele><time>2026-03-22T09:32:47.976Z</time></trkpt><trkpt lat="43.96774090378273" lon="12.682940407502441"><ele>18.0</ele><time>2026-03-22T09:32:48.976Z</time></trkpt><trkpt lat="43.96767031111536" lon="12.683324408917168"><ele>17.5</ele><time>2026-03-22T09:32:49.976Z</time></trkpt><trkpt lat="43.96759639286486" lon="12.683699082645282"><ele>17.0</ele><time>2026-03-22T09:32:50.976Z</time></trkpt><trkpt lat="43.96751406781049" lon="12.684063811084622"><ele>17.5</ele><time>2026-03-22T09:32:51.976Z</time></trkpt><trkpt lat="43.96742530569223" lon="12.684428159047476"><ele>18.0</ele><time>2026-03-22T09:32:52.976Z</time></trkpt><trkpt lat="43.967332363564964" lon="12.684778467146202"><ele>18.0</ele><time>2026-03-22T09:32:53.976Z</time></trkpt><trkpt lat="43.96723238058233" lon="12.68510607154946"><ele>18.0</ele><time>2026-03-22T09:32:54.976Z</time></trkpt><trkpt lat="43.96712663586213" lon="12.685439034964514"><ele>18.0</ele><time>2026-03-22T09:32:55.976Z</time></trkpt><trkpt lat="43.9670192769643" lon="12.685763067643634"><ele>18.0</ele><time>2026-03-22T09:32:56.976Z</time></trkpt><trkpt lat="43.96690967792123" lon="12.686071109699647"><ele>18.0</ele><time>2026-03-22T09:32:57.976Z</time></trkpt><trkpt lat="43.96679736340452" lon="12.686375691136778"><ele>18.0</ele><time>2026-03-22T09:32:58.976Z</time></trkpt><trkpt lat="43.966675964001375" lon="12.686670812381186"><ele>16.5</ele><time>2026-03-22T09:32:59.976Z</time></trkpt><trkpt lat="43.966550037187496" lon="12.686961776863008"><ele>15.0</ele><time>2026-03-22T09:33:00.976Z</time></trkpt><trkpt lat="43.96641827715065" lon="12.687245452509694"><ele>15.0</ele><time>2026-03-22T09:33:01.976Z</time></trkpt><trkpt lat="43.9662838146382" lon="12.687524445727552"><ele>15.0</ele><time>2026-03-22T09:33:02.976Z</time></trkpt><trkpt lat="43.966141537831064" lon="12.687799402850551"><ele>15.5</ele><time>2026-03-22T09:33:03.976Z</time></trkpt><trkpt lat="43.96599350413283" lon="12.688073130888942"><ele>16.0</ele><time>2026-03-22T09:33:04.976Z</time></trkpt><trkpt lat="43.96584274900873" lon="12.68834359292401"><ele>17.0</ele><time>2026-03-22T09:33:05.976Z</time></trkpt><trkpt lat="43.9656897723017" lon="12.688618620055053"><ele>18.0</ele><time>2026-03-22T09:33:06.976Z</time></trkpt><trkpt lat="43.965534670306" lon="12.688892392599643"><ele>18.0</ele><time>2026-03-22T09:33:07.976Z</time></trkpt><trkpt lat="43.96537867469855" lon="12.68916859006724"><ele>18.0</ele><time>2026-03-22T09:33:08.976Z</time></trkpt><trkpt lat="43.965219704566216" lon="12.689443803135966"><ele>18.5</ele><time>2026-03-22T09:33:09.976Z</time></trkpt><trkpt lat="43.965061359373415" lon="12.689716150872584"><ele>19.0</ele><time>2026-03-22T09:33:10.976Z</time></trkpt><trkpt lat="43.96490081138057" lon="12.689987421871589"><ele>18.0</ele><time>2026-03-22T09:33:11.976Z</time></trkpt><trkpt lat="43.96474277907024" lon="12.69026072626044"><ele>17.0</ele><time>2026-03-22T09:33:12.976Z</time></trkpt><trkpt lat="43.9645860350659" lon="12.690536440346282"><ele>17.0</ele><time>2026-03-22T09:33:13.976Z</time></trkpt><trkpt lat="43.96441956155358" lon="12.69080623465232"><ele>17.0</ele><time>2026-03-22T09:33:14.976Z</time></trkpt><trkpt lat="43.96425605142797" lon="12.691088609575482"><ele>18.0</ele><time>2026-03-22T09:33:15.976Z</time></trkpt><trkpt lat="43.96409419171467" lon="12.691375019126493"><ele>19.0</ele><time>2026-03-22T09:33:16.976Z</time></trkpt><trkpt lat="43.96393261950701" lon="12.691659166500852"><ele>19.0</ele><time>2026-03-22T09:33:17.976Z</time></trkpt><trkpt lat="43.96376466759868" lon="12.691945389330776"><ele>19.0</ele><time>2026-03-22T09:33:18.976Z</time></trkpt><trkpt lat="43.96359928167598" lon="12.692236850884074"><ele>19.0</ele><time>2026-03-22T09:33:19.976Z</time></trkpt><trkpt lat="43.96342491899295" lon="12.692523242955334"><ele>19.0</ele><time>2026-03-22T09:33:20.976Z</time></trkpt><trkpt lat="43.96324647525202" lon="12.692811996750583"><ele>18.5</ele><time>2026-03-22T09:33:21.976Z</time></trkpt><trkpt lat="43.96308510896485" lon="12.69312071073454"><ele>18.0</ele><time>2026-03-22T09:33:22.976Z</time></trkpt><trkpt lat="43.962917316630744" lon="12.69342685164184"><ele>19.0</ele><time>2026-03-22T09:33:23.976Z</time></trkpt><trkpt lat="43.962745623326306" lon="12.693735942861053"><ele>20.0</ele><time>2026-03-22T09:33:24.976Z</time></trkpt><trkpt lat="43.962571349676445" lon="12.69404449918968"><ele>20.0</ele><time>2026-03-22T09:33:25.976Z</time></trkpt><trkpt lat="43.96239788986389" lon="12.694342684587214"><ele>20.0</ele><time>2026-03-22T09:33:26.976Z</time></trkpt><trkpt lat="43.962224625954306" lon="12.694631979495682"><ele>19.0</ele><time>2026-03-22T09:33:27.976Z</time></trkpt><trkpt lat="43.962058790178986" lon="12.694921352406972"><ele>18.0</ele><time>2026-03-22T09:33:28.976Z</time></trkpt><trkpt lat="43.96189539259413" lon="12.695212162250352"><ele>17.5</ele><time>2026-03-22T09:33:29.976Z</time></trkpt><trkpt lat="43.961736807884215" lon="12.695499191421684"><ele>17.0</ele><time>2026-03-22T09:33:30.976Z</time></trkpt><trkpt lat="43.961575539406" lon="12.695785909040488"><ele>17.0</ele><time>2026-03-22T09:33:31.976Z</time></trkpt><trkpt lat="43.961408879314114" lon="12.696072120147265"><ele>17.0</ele><time>2026-03-22T09:33:32.976Z</time></trkpt><trkpt lat="43.961242326074334" lon="12.69636393072852"><ele>14.5</ele><time>2026-03-22T09:33:33.976Z</time></trkpt><trkpt lat="43.96107249281178" lon="12.696654470709657"><ele>12.0</ele><time>2026-03-22T09:33:34.976Z</time></trkpt><trkpt lat="43.96090505343295" lon="12.696952865281595"><ele>13.0</ele><time>2026-03-22T09:33:35.976Z</time></trkpt><trkpt lat="43.96073444406283" lon="12.697253395311916"><ele>14.0</ele><time>2026-03-22T09:33:36.976Z</time></trkpt><trkpt lat="43.96056857396789" lon="12.69755566839461"><ele>13.0</ele><time>2026-03-22T09:33:37.976Z</time></trkpt><trkpt lat="43.96040224886618" lon="12.697844724840406"><ele>12.0</ele><time>2026-03-22T09:33:38.976Z</time></trkpt><trkpt lat="43.96023711804436" lon="12.69812996186348"><ele>12.0</ele><time>2026-03-22T09:33:39.976Z</time></trkpt><trkpt lat="43.96007683720714" lon="12.69841572430483"><ele>12.0</ele><time>2026-03-22T09:33:40.976Z</time></trkpt><trkpt lat="43.95991182163756" lon="12.698701502924056"><ele>13.5</ele><time>2026-03-22T09:33:41.976Z</time></trkpt><trkpt lat="43.959741626761456" lon="12.69899395626341"><ele>15.0</ele><time>2026-03-22T09:33:42.976Z</time></trkpt><trkpt lat="43.959573371761294" lon="12.699293415496133"><ele>14.0</ele><time>2026-03-22T09:33:43.976Z</time></trkpt><trkpt lat="43.95940161051755" lon="12.699587039091984"><ele>13.0</ele><time>2026-03-22T09:33:44.976Z</time></trkpt><trkpt lat="43.95923501256636" lon="12.699876960945693"><ele>12.0</ele><time>2026-03-22T09:33:45.976Z</time></trkpt><trkpt lat="43.95906997886378" lon="12.700161295584078"><ele>11.0</ele><time>2026-03-22T09:33:46.976Z</time></trkpt><trkpt lat="43.95890504870324" lon="12.7004502201635"><ele>9.5</ele><time>2026-03-22T09:33:47.976Z</time></trkpt><trkpt lat="43.95874059251795" lon="12.700732311003957"><ele>8.0</ele><time>2026-03-22T09:33:48.976Z</time></trkpt><trkpt lat="43.95857705505437" lon="12.701021318994433"><ele>9.5</ele><time>2026-03-22T09:33:49.976Z</time></trkpt><trkpt lat="43.958417041809646" lon="12.701310023404526"><ele>11.0</ele><time>2026-03-22T09:33:50.976Z</time></trkpt><trkpt lat="43.958251833946555" lon="12.70159665650421"><ele>12.5</ele><time>2026-03-22T09:33:51.976Z</time></trkpt><trkpt lat="43.95809057943429" lon="12.701881206775534"><ele>14.0</ele><time>2026-03-22T09:33:52.976Z</time></trkpt><trkpt lat="43.95792061491069" lon="12.702157360743366"><ele>15.0</ele><time>2026-03-22T09:33:53.976Z</time></trkpt><trkpt lat="43.95775715861699" lon="12.70245033206242"><ele>16.0</ele><time>2026-03-22T09:33:54.976Z</time></trkpt><trkpt lat="43.95759658577016" lon="12.70274176410046"><ele>17.5</ele><time>2026-03-22T09:33:55.976Z</time></trkpt><trkpt lat="43.957430334050606" lon="12.703028714256822"><ele>19.0</ele><time>2026-03-22T09:33:56.976Z</time></trkpt><trkpt lat="43.957262960064206" lon="12.703325412850013"><ele>21.5</ele><time>2026-03-22T09:33:57.976Z</time></trkpt><trkpt lat="43.95709422179828" lon="12.703622835339267"><ele>24.0</ele><time>2026-03-22T09:33:58.976Z</time></trkpt><trkpt lat="43.95693079892166" lon="12.703916089454179"><ele>24.0</ele><time>2026-03-22T09:33:59.976Z</time></trkpt><trkpt lat="43.956766372630945" lon="12.704201079616066"><ele>24.0</ele><time>2026-03-22T09:34:00.976Z</time></trkpt><trkpt lat="43.95660205438719" lon="12.704485616107746"><ele>23.0</ele><time>2026-03-22T09:34:01.976Z</time></trkpt><trkpt lat="43.95643859589706" lon="12.704773500494568"><ele>22.0</ele><time>2026-03-22T09:34:02.976Z</time></trkpt><trkpt lat="43.956275051712254" lon="12.705058444480903"><ele>21.5</ele><time>2026-03-22T09:34:03.976Z</time></trkpt><trkpt lat="43.95610800911282" lon="12.705342846436528"><ele>21.0</ele><time>2026-03-22T09:34:04.976Z</time></trkpt><trkpt lat="43.95594563133602" lon="12.705628906314827"><ele>21.0</ele><time>2026-03-22T09:34:05.976Z</time></trkpt><trkpt lat="43.95579094224999" lon="12.705923645030778"><ele>21.0</ele><time>2026-03-22T09:34:06.976Z</time></trkpt><trkpt lat="43.955627729406" lon="12.706217016185375"><ele>21.5</ele><time>2026-03-22T09:34:07.976Z</time></trkpt><trkpt lat="43.95546993326193" lon="12.706517869491039"><ele>22.0</ele><time>2026-03-22T09:34:08.976Z</time></trkpt><trkpt lat="43.955321627416296" lon="12.70682971246614"><ele>21.5</ele><time>2026-03-22T09:34:09.976Z</time></trkpt><trkpt lat="43.95517518215022" lon="12.707145445278087"><ele>21.0</ele><time>2026-03-22T09:34:10.976Z</time></trkpt><trkpt lat="43.95503991645975" lon="12.707472029657794"><ele>21.0</ele><time>2026-03-22T09:34:11.976Z</time></trkpt><trkpt lat="43.95490708381874" lon="12.707810425551447"><ele>21.0</ele><time>2026-03-22T09:34:12.976Z</time></trkpt><trkpt lat="43.95478137197323" lon="12.708156076545677"><ele>21.0</ele><time>2026-03-22T09:34:13.976Z</time></trkpt><trkpt lat="43.95465826375649" lon="12.708505382180824"><ele>21.0</ele><time>2026-03-22T09:34:14.976Z</time></trkpt><trkpt lat="43.954541345679274" lon="12.70886431214139"><ele>21.5</ele><time>2026-03-22T09:34:15.976Z</time></trkpt><trkpt lat="43.95443630735235" lon="12.70923214088979"><ele>22.0</ele><time>2026-03-22T09:34:16.976Z</time></trkpt><trkpt lat="43.9543394103634" lon="12.709605796683118"><ele>22.5</ele><time>2026-03-22T09:34:17.976Z</time></trkpt><trkpt lat="43.95424384588086" lon="12.709984413648492"><ele>23.0</ele><time>2026-03-22T09:34:18.976Z</time></trkpt><trkpt lat="43.954163457167525" lon="12.71036839215902"><ele>23.0</ele><time>2026-03-22T09:34:19.976Z</time></trkpt><trkpt lat="43.954094385680605" lon="12.710747024501165"><ele>23.0</ele><time>2026-03-22T09:34:20.974Z</time></trkpt><trkpt lat="43.95403018393733" lon="12.711122990648603"><ele>22.5</ele><time>2026-03-22T09:34:21.974Z</time></trkpt><trkpt lat="43.95397876793657" lon="12.711503770054811"><ele>22.0</ele><time>2026-03-22T09:34:22.974Z</time></trkpt><trkpt lat="43.953936006806444" lon="12.711884342714876"><ele>21.5</ele><time>2026-03-22T09:34:23.974Z</time></trkpt><trkpt lat="43.953897986468384" lon="12.712266440218105"><ele>21.0</ele><time>2026-03-22T09:34:24.974Z</time></trkpt><trkpt lat="43.95385997387457" lon="12.712643641854717"><ele>21.0</ele><time>2026-03-22T09:34:25.974Z</time></trkpt><trkpt lat="43.95382300822634" lon="12.713023910008408"><ele>21.0</ele><time>2026-03-22T09:34:26.974Z</time></trkpt><trkpt lat="43.95378795780558" lon="12.713397739154486"><ele>19.5</ele><time>2026-03-22T09:34:27.974Z</time></trkpt><trkpt lat="43.953757985711334" lon="12.713775008170645"><ele>18.0</ele><time>2026-03-22T09:34:28.974Z</time></trkpt><trkpt lat="43.953724345849665" lon="12.714144665918418"><ele>18.0</ele><time>2026-03-22T09:34:29.974Z</time></trkpt><trkpt lat="43.95369140448509" lon="12.714517368581063"><ele>18.0</ele><time>2026-03-22T09:34:30.974Z</time></trkpt><trkpt lat="43.95365740112444" lon="12.71488889637982"><ele>19.5</ele><time>2026-03-22T09:34:31.974Z</time></trkpt><trkpt lat="43.953623275361544" lon="12.715260652424451"><ele>21.0</ele><time>2026-03-22T09:34:32.974Z</time></trkpt><trkpt lat="43.95358807117821" lon="12.71562911313143"><ele>21.0</ele><time>2026-03-22T09:34:33.974Z</time></trkpt><trkpt lat="43.95355542220301" lon="12.71599759372994"><ele>21.0</ele><time>2026-03-22T09:34:34.974Z</time></trkpt><trkpt lat="43.953524188960216" lon="12.71635525407854"><ele>19.5</ele><time>2026-03-22T09:34:35.975Z</time></trkpt><trkpt lat="43.95349190404782" lon="12.716712291181231"><ele>18.0</ele><time>2026-03-22T09:34:36.975Z</time></trkpt><trkpt lat="43.9534565908237" lon="12.71706746979995"><ele>17.0</ele><time>2026-03-22T09:34:37.975Z</time></trkpt><trkpt lat="43.953426858510156" lon="12.71742142780593"><ele>16.0</ele><time>2026-03-22T09:34:38.975Z</time></trkpt><trkpt lat="43.95339514234079" lon="12.71777405061664"><ele>16.0</ele><time>2026-03-22T09:34:39.975Z</time></trkpt><trkpt lat="43.95335991441653" lon="12.718126288328817"><ele>16.0</ele><time>2026-03-22T09:34:40.975Z</time></trkpt><trkpt lat="43.95332408023825" lon="12.718481094410395"><ele>16.5</ele><time>2026-03-22T09:34:41.976Z</time></trkpt><trkpt lat="43.95329340173667" lon="12.71883324996474"><ele>17.0</ele><time>2026-03-22T09:34:42.976Z</time></trkpt><trkpt lat="43.95326016860248" lon="12.719186241838454"><ele>17.0</ele><time>2026-03-22T09:34:43.976Z</time></trkpt><trkpt lat="43.95323069617042" lon="12.71954395900479"><ele>17.0</ele><time>2026-03-22T09:34:44.976Z</time></trkpt><trkpt lat="43.95319316727956" lon="12.719902943136614"><ele>15.5</ele><time>2026-03-22T09:34:45.976Z</time></trkpt><trkpt lat="43.95316040702625" lon="12.72026356199887"><ele>14.0</ele><time>2026-03-22T09:34:46.976Z</time></trkpt><trkpt lat="43.95312608823249" lon="12.72062611890905"><ele>14.0</ele><time>2026-03-22T09:34:47.976Z</time></trkpt><trkpt lat="43.953090913468614" lon="12.720996789442111"><ele>14.0</ele><time>2026-03-22T09:34:48.976Z</time></trkpt><trkpt lat="43.953049694523216" lon="12.721367192137103"><ele>14.0</ele><time>2026-03-22T09:34:49.976Z</time></trkpt><trkpt lat="43.953005678844356" lon="12.721730080024386"><ele>14.0</ele><time>2026-03-22T09:34:50.976Z</time></trkpt><trkpt lat="43.95295568116374" lon="12.722076396994723"><ele>14.0</ele><time>2026-03-22T09:34:51.977Z</time></trkpt><trkpt lat="43.952908798686046" lon="12.7224212868361"><ele>14.0</ele><time>2026-03-22T09:34:52.977Z</time></trkpt><trkpt lat="43.95285995081539" lon="12.7227629424734"><ele>14.5</ele><time>2026-03-22T09:34:53.977Z</time></trkpt><trkpt lat="43.95280716483509" lon="12.723107634801822"><ele>15.0</ele><time>2026-03-22T09:34:54.977Z</time></trkpt><trkpt lat="43.95275418055537" lon="12.723450363206922"><ele>16.5</ele><time>2026-03-22T09:34:55.977Z</time></trkpt><trkpt lat="43.95269173036633" lon="12.723787121570803"><ele>18.0</ele><time>2026-03-22T09:34:56.977Z</time></trkpt><trkpt lat="43.952631507445915" lon="12.724114974210359"><ele>18.0</ele><time>2026-03-22T09:34:57.977Z</time></trkpt><trkpt lat="43.952568342736605" lon="12.724441700064713"><ele>18.0</ele><time>2026-03-22T09:34:58.977Z</time></trkpt><trkpt lat="43.95250042939341" lon="12.72477160071568"><ele>18.0</ele><time>2026-03-22T09:34:59.977Z</time></trkpt><trkpt lat="43.95243142960682" lon="12.725110036624043"><ele>18.0</ele><time>2026-03-22T09:35:00.977Z</time></trkpt><trkpt lat="43.952360035451505" lon="12.725438294025999"><ele>18.0</ele><time>2026-03-22T09:35:01.977Z</time></trkpt><trkpt lat="43.95228518989393" lon="12.725768727856412"><ele>18.0</ele><time>2026-03-22T09:35:02.977Z</time></trkpt><trkpt lat="43.95221336676345" lon="12.726099092201697"><ele>18.0</ele><time>2026-03-22T09:35:03.977Z</time></trkpt><trkpt lat="43.95214592002218" lon="12.726432611442142"><ele>18.0</ele><time>2026-03-22T09:35:04.977Z</time></trkpt><trkpt lat="43.95207294291583" lon="12.726767614120657"><ele>19.0</ele><time>2026-03-22T09:35:05.977Z</time></trkpt><trkpt lat="43.95200119298574" lon="12.72711329017511"><ele>20.0</ele><time>2026-03-22T09:35:06.977Z</time></trkpt><trkpt lat="43.95192825307733" lon="12.727462304403916"><ele>19.0</ele><time>2026-03-22T09:35:07.977Z</time></trkpt><trkpt lat="43.95184564414262" lon="12.727817862199052"><ele>18.0</ele><time>2026-03-22T09:35:08.977Z</time></trkpt><trkpt lat="43.95177014831845" lon="12.72818165616073"><ele>18.0</ele><time>2026-03-22T09:35:09.977Z</time></trkpt><trkpt lat="43.95169347428444" lon="12.728543038018376"><ele>18.0</ele><time>2026-03-22T09:35:10.977Z</time></trkpt><trkpt lat="43.95161723258262" lon="12.728894747730457"><ele>18.0</ele><time>2026-03-22T09:35:11.977Z</time></trkpt><trkpt lat="43.951472683669245" lon="12.729601520332283"><ele>18.0</ele><time>2026-03-22T09:35:13.977Z</time></trkpt><trkpt lat="43.95140146999374" lon="12.729942596324172"><ele>18.0</ele><time>2026-03-22T09:35:14.977Z</time></trkpt><trkpt lat="43.95132816601508" lon="12.730278188496316"><ele>16.5</ele><time>2026-03-22T09:35:15.977Z</time></trkpt><trkpt lat="43.95125920880115" lon="12.73061089522734"><ele>15.0</ele><time>2026-03-22T09:35:16.977Z</time></trkpt><trkpt lat="43.951190369243065" lon="12.730944749401802"><ele>15.0</ele><time>2026-03-22T09:35:17.977Z</time></trkpt><trkpt lat="43.95111927666113" lon="12.731279361796679"><ele>15.0</ele><time>2026-03-22T09:35:18.977Z</time></trkpt><trkpt lat="43.95104374332953" lon="12.731614100959986"><ele>15.0</ele><time>2026-03-22T09:35:19.977Z</time></trkpt><trkpt lat="43.95096406308679" lon="12.73195118469255"><ele>15.0</ele><time>2026-03-22T09:35:20.977Z</time></trkpt><trkpt lat="43.95089411738619" lon="12.732288483991569"><ele>15.0</ele><time>2026-03-22T09:35:21.977Z</time></trkpt><trkpt lat="43.95082894094702" lon="12.7326240673294"><ele>15.0</ele><time>2026-03-22T09:35:22.977Z</time></trkpt><trkpt lat="43.950770249635056" lon="12.732970735684829"><ele>15.0</ele><time>2026-03-22T09:35:23.977Z</time></trkpt><trkpt lat="43.95070933959397" lon="12.733313096450052"><ele>15.0</ele><time>2026-03-22T09:35:24.977Z</time></trkpt><trkpt lat="43.95065722371576" lon="12.733657429509023"><ele>14.5</ele><time>2026-03-22T09:35:25.977Z</time></trkpt><trkpt lat="43.95061425215882" lon="12.734005322916175"><ele>14.0</ele><time>2026-03-22T09:35:26.977Z</time></trkpt><trkpt lat="43.95057845232546" lon="12.734360550562807"><ele>13.5</ele><time>2026-03-22T09:35:27.977Z</time></trkpt><trkpt lat="43.95054245076379" lon="12.734717070139475"><ele>13.0</ele><time>2026-03-22T09:35:28.977Z</time></trkpt><trkpt lat="43.95051499248158" lon="12.73507986091998"><ele>13.0</ele><time>2026-03-22T09:35:29.977Z</time></trkpt><trkpt lat="43.95049954895707" lon="12.73545405922157"><ele>13.0</ele><time>2026-03-22T09:35:30.977Z</time></trkpt><trkpt lat="43.95049041437367" lon="12.735831544767796"><ele>13.5</ele><time>2026-03-22T09:35:31.977Z</time></trkpt><trkpt lat="43.95048768005334" lon="12.7362066841044"><ele>14.0</ele><time>2026-03-22T09:35:32.977Z</time></trkpt><trkpt lat="43.95049340682398" lon="12.736585056640038"><ele>14.5</ele><time>2026-03-22T09:35:33.977Z</time></trkpt><trkpt lat="43.950504348347394" lon="12.736965173779355"><ele>15.0</ele><time>2026-03-22T09:35:34.977Z</time></trkpt><trkpt lat="43.95052566011353" lon="12.737346280345065"><ele>15.5</ele><time>2026-03-22T09:35:35.977Z</time></trkpt><trkpt lat="43.95055759414943" lon="12.737728914834632"><ele>16.0</ele><time>2026-03-22T09:35:36.977Z</time></trkpt><trkpt lat="43.95059886324027" lon="12.738111790728293"><ele>16.0</ele><time>2026-03-22T09:35:37.977Z</time></trkpt><trkpt lat="43.950649110837944" lon="12.738493357843508"><ele>16.0</ele><time>2026-03-22T09:35:38.977Z</time></trkpt><trkpt lat="43.95071025402625" lon="12.738874240204515"><ele>16.5</ele><time>2026-03-22T09:35:39.977Z</time></trkpt><trkpt lat="43.95077409761165" lon="12.739251725772597"><ele>17.0</ele><time>2026-03-22T09:35:40.977Z</time></trkpt><trkpt lat="43.95084614962644" lon="12.73962460555983"><ele>15.5</ele><time>2026-03-22T09:35:41.977Z</time></trkpt><trkpt lat="43.950922190199805" lon="12.739990056331594"><ele>14.0</ele><time>2026-03-22T09:35:42.977Z</time></trkpt><trkpt lat="43.95100855742987" lon="12.740356850457355"><ele>14.0</ele><time>2026-03-22T09:35:43.977Z</time></trkpt><trkpt lat="43.9511038690264" lon="12.740721082087733"><ele>14.0</ele><time>2026-03-22T09:35:44.977Z</time></trkpt><trkpt lat="43.951210950537" lon="12.74108699123077"><ele>14.0</ele><time>2026-03-22T09:35:45.977Z</time></trkpt><trkpt lat="43.951321217075076" lon="12.741446014137642"><ele>14.0</ele><time>2026-03-22T09:35:46.977Z</time></trkpt><trkpt lat="43.95143844181181" lon="12.741801143436705"><ele>13.0</ele><time>2026-03-22T09:35:47.977Z</time></trkpt><trkpt lat="43.95155330953961" lon="12.742156112537465"><ele>12.0</ele><time>2026-03-22T09:35:48.977Z</time></trkpt><trkpt lat="43.95166828290369" lon="12.742507043009503"><ele>12.0</ele><time>2026-03-22T09:35:49.977Z</time></trkpt><trkpt lat="43.95178556041851" lon="12.742855694153853"><ele>12.0</ele><time>2026-03-22T09:35:50.977Z</time></trkpt><trkpt lat="43.95190292025097" lon="12.743194570698902"><ele>12.0</ele><time>2026-03-22T09:35:51.977Z</time></trkpt><trkpt lat="43.95200534587944" lon="12.74353484015315"><ele>12.0</ele><time>2026-03-22T09:35:52.977Z</time></trkpt><trkpt lat="43.95210300309498" lon="12.743869772047027"><ele>12.0</ele><time>2026-03-22T09:35:53.977Z</time></trkpt><trkpt lat="43.95219852093804" lon="12.74420704577276"><ele>12.0</ele><time>2026-03-22T09:35:54.977Z</time></trkpt><trkpt lat="43.95229520579408" lon="12.744548031436437"><ele>12.5</ele><time>2026-03-22T09:35:55.977Z</time></trkpt><trkpt lat="43.95238335964161" lon="12.744892520788351"><ele>13.0</ele><time>2026-03-22T09:35:56.977Z</time></trkpt><trkpt lat="43.952464821178026" lon="12.745240312562041"><ele>13.0</ele><time>2026-03-22T09:35:57.977Z</time></trkpt><trkpt lat="43.95253559364544" lon="12.745593847673575"><ele>13.0</ele><time>2026-03-22T09:35:58.977Z</time></trkpt><trkpt lat="43.95260598145205" lon="12.745957632880852"><ele>13.0</ele><time>2026-03-22T09:35:59.977Z</time></trkpt><trkpt lat="43.95266364181735" lon="12.746322641576242"><ele>13.0</ele><time>2026-03-22T09:36:00.977Z</time></trkpt><trkpt lat="43.9527127677052" lon="12.746690743451792"><ele>12.0</ele><time>2026-03-22T09:36:01.977Z</time></trkpt><trkpt lat="43.952753489465415" lon="12.747060682451648"><ele>11.0</ele><time>2026-03-22T09:36:02.977Z</time></trkpt><trkpt lat="43.952787698297335" lon="12.747436112976237"><ele>10.5</ele><time>2026-03-22T09:36:03.977Z</time></trkpt><trkpt lat="43.952814385202586" lon="12.747811827214417"><ele>10.0</ele><time>2026-03-22T09:36:04.977Z</time></trkpt><trkpt lat="43.95283375216787" lon="12.748189741401925"><ele>9.5</ele><time>2026-03-22T09:36:05.977Z</time></trkpt><trkpt lat="43.95284447870917" lon="12.748572937833671"><ele>9.0</ele><time>2026-03-22T09:36:06.977Z</time></trkpt><trkpt lat="43.95285161008538" lon="12.748956850004886"><ele>9.0</ele><time>2026-03-22T09:36:07.977Z</time></trkpt><trkpt lat="43.95284051832783" lon="12.749329028049955"><ele>9.0</ele><time>2026-03-22T09:36:08.977Z</time></trkpt><trkpt lat="43.95283221714103" lon="12.749705677176898"><ele>9.5</ele><time>2026-03-22T09:36:09.977Z</time></trkpt><trkpt lat="43.952811102592975" lon="12.750079214403454"><ele>10.0</ele><time>2026-03-22T09:36:10.977Z</time></trkpt><trkpt lat="43.95278110481494" lon="12.750451970225898"><ele>11.0</ele><time>2026-03-22T09:36:11.977Z</time></trkpt><trkpt lat="43.95274248768029" lon="12.750825104262184"><ele>12.0</ele><time>2026-03-22T09:36:12.977Z</time></trkpt><trkpt lat="43.95269996172087" lon="12.751191969613908"><ele>12.0</ele><time>2026-03-22T09:36:13.977Z</time></trkpt><trkpt lat="43.952647953919524" lon="12.751565175257115"><ele>12.0</ele><time>2026-03-22T09:36:14.977Z</time></trkpt><trkpt lat="43.95259330073086" lon="12.751944005173165"><ele>12.0</ele><time>2026-03-22T09:36:15.977Z</time></trkpt><trkpt lat="43.95252322394655" lon="12.752320831198569"><ele>12.0</ele><time>2026-03-22T09:36:16.977Z</time></trkpt><trkpt lat="43.95245076164904" lon="12.752707881021193"><ele>12.0</ele><time>2026-03-22T09:36:17.977Z</time></trkpt><trkpt lat="43.952374773560855" lon="12.75309674910826"><ele>12.0</ele><time>2026-03-22T09:36:18.977Z</time></trkpt><trkpt lat="43.95229705993124" lon="12.75348237020608"><ele>10.5</ele><time>2026-03-22T09:36:19.977Z</time></trkpt><trkpt lat="43.95222015281398" lon="12.753860810520742"><ele>9.0</ele><time>2026-03-22T09:36:20.977Z</time></trkpt><trkpt lat="43.952144732837255" lon="12.754233432893496"><ele>8.5</ele><time>2026-03-22T09:36:21.977Z</time></trkpt><trkpt lat="43.95207276186248" lon="12.754602248482003"><ele>8.0</ele><time>2026-03-22T09:36:22.977Z</time></trkpt><trkpt lat="43.952004280794064" lon="12.75496629306119"><ele>9.0</ele><time>2026-03-22T09:36:23.977Z</time></trkpt><trkpt lat="43.95193509957528" lon="12.755329811523746"><ele>10.0</ele><time>2026-03-22T09:36:24.977Z</time></trkpt><trkpt lat="43.951867643997005" lon="12.755684431824127"><ele>10.0</ele><time>2026-03-22T09:36:25.977Z</time></trkpt><trkpt lat="43.95179700289559" lon="12.756041769702497"><ele>10.0</ele><time>2026-03-22T09:36:26.975Z</time></trkpt><trkpt lat="43.9517335295133" lon="12.756400635258677"><ele>9.0</ele><time>2026-03-22T09:36:27.975Z</time></trkpt><trkpt lat="43.95166136248427" lon="12.756763128676216"><ele>8.0</ele><time>2026-03-22T09:36:28.975Z</time></trkpt><trkpt lat="43.95158909077775" lon="12.757129350707103"><ele>8.0</ele><time>2026-03-22T09:36:29.975Z</time></trkpt><trkpt lat="43.95151357978268" lon="12.75749349366674"><ele>8.0</ele><time>2026-03-22T09:36:30.974Z</time></trkpt><trkpt lat="43.951442013797504" lon="12.757855623043424"><ele>8.5</ele><time>2026-03-22T09:36:31.974Z</time></trkpt><trkpt lat="43.951373912390736" lon="12.758214448474725"><ele>9.0</ele><time>2026-03-22T09:36:32.975Z</time></trkpt><trkpt lat="43.95130562595054" lon="12.758573972056219"><ele>9.0</ele><time>2026-03-22T09:36:33.974Z</time></trkpt><trkpt lat="43.95123819914339" lon="12.758931533886022"><ele>9.0</ele><time>2026-03-22T09:36:34.974Z</time></trkpt><trkpt lat="43.95116469971361" lon="12.759294596289191"><ele>8.5</ele><time>2026-03-22T09:36:35.975Z</time></trkpt><trkpt lat="43.951091559335936" lon="12.759656273892471"><ele>8.0</ele><time>2026-03-22T09:36:36.974Z</time></trkpt><trkpt lat="43.951019506291935" lon="12.760016239471792"><ele>7.5</ele><time>2026-03-22T09:36:37.974Z</time></trkpt><trkpt lat="43.95095516902901" lon="12.760374814932161"><ele>7.0</ele><time>2026-03-22T09:36:38.975Z</time></trkpt><trkpt lat="43.95089178111135" lon="12.760737958036229"><ele>8.0</ele><time>2026-03-22T09:36:39.975Z</time></trkpt><trkpt lat="43.95082028520155" lon="12.761094756442757"><ele>9.0</ele><time>2026-03-22T09:36:40.975Z</time></trkpt><trkpt lat="43.95074738445043" lon="12.761445891484744"><ele>9.0</ele><time>2026-03-22T09:36:41.975Z</time></trkpt><trkpt lat="43.95067848361345" lon="12.761805894358202"><ele>9.0</ele><time>2026-03-22T09:36:42.975Z</time></trkpt><trkpt lat="43.95060697331716" lon="12.762168433242673"><ele>9.0</ele><time>2026-03-22T09:36:43.975Z</time></trkpt><trkpt lat="43.950537758996425" lon="12.762538989503636"><ele>9.0</ele><time>2026-03-22T09:36:44.975Z</time></trkpt><trkpt lat="43.95046470909631" lon="12.762912837367749"><ele>9.0</ele><time>2026-03-22T09:36:45.975Z</time></trkpt><trkpt lat="43.95038946975355" lon="12.763302038338132"><ele>9.0</ele><time>2026-03-22T09:36:46.975Z</time></trkpt><trkpt lat="43.95031304299974" lon="12.76368180430737"><ele>9.0</ele><time>2026-03-22T09:36:47.975Z</time></trkpt><trkpt lat="43.95024322803807" lon="12.764045481662594"><ele>9.0</ele><time>2026-03-22T09:36:48.975Z</time></trkpt><trkpt lat="43.95017792376296" lon="12.764395333669668"><ele>9.0</ele><time>2026-03-22T09:36:49.975Z</time></trkpt><trkpt lat="43.95011302689557" lon="12.764749911456363"><ele>9.0</ele><time>2026-03-22T09:36:50.975Z</time></trkpt><trkpt lat="43.95004695434177" lon="12.765104931112607"><ele>9.5</ele><time>2026-03-22T09:36:51.975Z</time></trkpt><trkpt lat="43.94997827283322" lon="12.765448960004171"><ele>10.0</ele><time>2026-03-22T09:36:52.975Z</time></trkpt><trkpt lat="43.949910420334426" lon="12.765792325728057"><ele>10.5</ele><time>2026-03-22T09:36:53.975Z</time></trkpt><trkpt lat="43.94984479848346" lon="12.766132020224832"><ele>11.0</ele><time>2026-03-22T09:36:54.975Z</time></trkpt><trkpt lat="43.94978013057326" lon="12.76646572338282"><ele>11.0</ele><time>2026-03-22T09:36:55.975Z</time></trkpt><trkpt lat="43.949720001809375" lon="12.766789381430684"><ele>11.0</ele><time>2026-03-22T09:36:56.975Z</time></trkpt><trkpt lat="43.94965843929976" lon="12.767111763538168"><ele>11.5</ele><time>2026-03-22T09:36:57.975Z</time></trkpt><trkpt lat="43.94959734073047" lon="12.767432207435169"><ele>12.0</ele><time>2026-03-22T09:36:58.975Z</time></trkpt><trkpt lat="43.949533387274386" lon="12.767754823773771"><ele>11.0</ele><time>2026-03-22T09:36:59.975Z</time></trkpt><trkpt lat="43.94947010845329" lon="12.76808455892489"><ele>10.0</ele><time>2026-03-22T09:37:00.975Z</time></trkpt><trkpt lat="43.94940430848138" lon="12.768411605762624"><ele>10.5</ele><time>2026-03-22T09:37:01.975Z</time></trkpt><trkpt lat="43.94933909052907" lon="12.76873179311211"><ele>11.0</ele><time>2026-03-22T09:37:02.975Z</time></trkpt><trkpt lat="43.94927459799041" lon="12.769052521444905"><ele>11.5</ele><time>2026-03-22T09:37:03.975Z</time></trkpt><trkpt lat="43.94920713527541" lon="12.769360750948334"><ele>12.0</ele><time>2026-03-22T09:37:04.975Z</time></trkpt><trkpt lat="43.949139740706975" lon="12.76967070501422"><ele>12.0</ele><time>2026-03-22T09:37:05.975Z</time></trkpt><trkpt lat="43.94906555940007" lon="12.769992395163223"><ele>12.0</ele><time>2026-03-22T09:37:06.975Z</time></trkpt><trkpt lat="43.94898425626545" lon="12.770323955783166"><ele>12.0</ele><time>2026-03-22T09:37:07.975Z</time></trkpt><trkpt lat="43.948902180593805" lon="12.77064695791347"><ele>12.0</ele><time>2026-03-22T09:37:08.975Z</time></trkpt><trkpt lat="43.94881470078847" lon="12.77097214527328"><ele>12.0</ele><time>2026-03-22T09:37:09.975Z</time></trkpt><trkpt lat="43.948722118291386" lon="12.771298300222789"><ele>12.0</ele><time>2026-03-22T09:37:10.975Z</time></trkpt><trkpt lat="43.9486198589569" lon="12.77161799377973"><ele>11.5</ele><time>2026-03-22T09:37:11.975Z</time></trkpt><trkpt lat="43.948516895213096" lon="12.771941524854741"><ele>11.0</ele><time>2026-03-22T09:37:12.975Z</time></trkpt><trkpt lat="43.948408146325015" lon="12.772260887114944"><ele>12.0</ele><time>2026-03-22T09:37:13.975Z</time></trkpt><trkpt lat="43.94829281722694" lon="12.77258106169381"><ele>13.0</ele><time>2026-03-22T09:37:14.975Z</time></trkpt><trkpt lat="43.9481730421354" lon="12.772899823898413"><ele>13.0</ele><time>2026-03-22T09:37:15.975Z</time></trkpt><trkpt lat="43.94805197570409" lon="12.773220318141558"><ele>13.0</ele><time>2026-03-22T09:37:16.975Z</time></trkpt><trkpt lat="43.94792608460505" lon="12.77353392360193"><ele>13.0</ele><time>2026-03-22T09:37:17.975Z</time></trkpt><trkpt lat="43.947793858569256" lon="12.77384707754437"><ele>13.0</ele><time>2026-03-22T09:37:18.975Z</time></trkpt><trkpt lat="43.94765383314618" lon="12.774159033652086"><ele>13.0</ele><time>2026-03-22T09:37:19.975Z</time></trkpt><trkpt lat="43.947506841108755" lon="12.77447198283631"><ele>13.0</ele><time>2026-03-22T09:37:20.975Z</time></trkpt><trkpt lat="43.94735450710902" lon="12.7747837305744"><ele>13.0</ele><time>2026-03-22T09:37:21.975Z</time></trkpt><trkpt lat="43.9472035703953" lon="12.775091084268722"><ele>13.0</ele><time>2026-03-22T09:37:22.975Z</time></trkpt><trkpt lat="43.947045188241916" lon="12.775392678995585"><ele>12.5</ele><time>2026-03-22T09:37:23.975Z</time></trkpt><trkpt lat="43.9468817391077" lon="12.775688070678662"><ele>12.0</ele><time>2026-03-22T09:37:24.975Z</time></trkpt><trkpt lat="43.946715226158126" lon="12.775977717173722"><ele>13.0</ele><time>2026-03-22T09:37:25.975Z</time></trkpt><trkpt lat="43.9465453605131" lon="12.7762582366425"><ele>14.0</ele><time>2026-03-22T09:37:26.975Z</time></trkpt><trkpt lat="43.946375640227245" lon="12.776538229901341"><ele>14.0</ele><time>2026-03-22T09:37:27.975Z</time></trkpt><trkpt lat="43.94619779429178" lon="12.776819333349323"><ele>14.0</ele><time>2026-03-22T09:37:28.975Z</time></trkpt><trkpt lat="43.946012025950786" lon="12.777093296922544"><ele>15.0</ele><time>2026-03-22T09:37:29.975Z</time></trkpt><trkpt lat="43.94582223521397" lon="12.777356226422123"><ele>16.0</ele><time>2026-03-22T09:37:30.975Z</time></trkpt><trkpt lat="43.94563462745713" lon="12.777614190615553"><ele>15.0</ele><time>2026-03-22T09:37:31.975Z</time></trkpt><trkpt lat="43.94544765617762" lon="12.7778657428011"><ele>14.0</ele><time>2026-03-22T09:37:32.975Z</time></trkpt><trkpt lat="43.94525076603124" lon="12.778111755409455"><ele>14.0</ele><time>2026-03-22T09:37:33.975Z</time></trkpt><trkpt lat="43.945051877387385" lon="12.77834630387721"><ele>14.0</ele><time>2026-03-22T09:37:34.975Z</time></trkpt><trkpt lat="43.94484958970366" lon="12.77858257608702"><ele>14.5</ele><time>2026-03-22T09:37:35.975Z</time></trkpt><trkpt lat="43.94464201680375" lon="12.778813985814752"><ele>15.0</ele><time>2026-03-22T09:37:36.975Z</time></trkpt><trkpt lat="43.94443184989796" lon="12.779036389742089"><ele>15.0</ele><time>2026-03-22T09:37:37.975Z</time></trkpt><trkpt lat="43.94422289661446" lon="12.77924872558896"><ele>15.0</ele><time>2026-03-22T09:37:38.975Z</time></trkpt><trkpt lat="43.944012438825084" lon="12.779459806097401"><ele>16.0</ele><time>2026-03-22T09:37:39.975Z</time></trkpt><trkpt lat="43.943798488063806" lon="12.779665447040069"><ele>17.0</ele><time>2026-03-22T09:37:40.975Z</time></trkpt><trkpt lat="43.9435762518299" lon="12.779866733979215"><ele>17.0</ele><time>2026-03-22T09:37:41.975Z</time></trkpt><trkpt lat="43.943351460748914" lon="12.780064623969906"><ele>17.0</ele><time>2026-03-22T09:37:42.975Z</time></trkpt><trkpt lat="43.94312419306635" lon="12.780253740722278"><ele>17.5</ele><time>2026-03-22T09:37:43.975Z</time></trkpt><trkpt lat="43.942894071655154" lon="12.780437334907747"><ele>18.0</ele><time>2026-03-22T09:37:44.975Z</time></trkpt><trkpt lat="43.94266132452728" lon="12.780618076331423"><ele>18.0</ele><time>2026-03-22T09:37:45.975Z</time></trkpt><trkpt lat="43.94242258754977" lon="12.78079301315947"><ele>18.0</ele><time>2026-03-22T09:37:46.975Z</time></trkpt><trkpt lat="43.94219868689818" lon="12.780986047837443"><ele>18.0</ele><time>2026-03-22T09:37:47.975Z</time></trkpt><trkpt lat="43.941973416799236" lon="12.781172165271284"><ele>18.0</ele><time>2026-03-22T09:37:48.975Z</time></trkpt><trkpt lat="43.941745288213475" lon="12.781354657140012"><ele>19.0</ele><time>2026-03-22T09:37:49.975Z</time></trkpt><trkpt lat="43.94151589311714" lon="12.781534084947499"><ele>20.0</ele><time>2026-03-22T09:37:50.975Z</time></trkpt><trkpt lat="43.94129109612938" lon="12.781722580700606"><ele>21.5</ele><time>2026-03-22T09:37:51.975Z</time></trkpt><trkpt lat="43.94105962788933" lon="12.781903166776837"><ele>23.0</ele><time>2026-03-22T09:37:52.975Z</time></trkpt><trkpt lat="43.940837325907594" lon="12.782077999514929"><ele>23.0</ele><time>2026-03-22T09:37:53.975Z</time></trkpt><trkpt lat="43.94060860322916" lon="12.782261208975067"><ele>23.0</ele><time>2026-03-22T09:37:54.975Z</time></trkpt><trkpt lat="43.94037834501519" lon="12.782442165261472"><ele>23.0</ele><time>2026-03-22T09:37:55.975Z</time></trkpt><trkpt lat="43.94015093567974" lon="12.782621807022892"><ele>23.0</ele><time>2026-03-22T09:37:56.975Z</time></trkpt><trkpt lat="43.939926475917254" lon="12.782800467601648"><ele>23.0</ele><time>2026-03-22T09:37:57.975Z</time></trkpt><trkpt lat="43.93970022737732" lon="12.78298623766912"><ele>23.0</ele><time>2026-03-22T09:37:58.975Z</time></trkpt><trkpt lat="43.939473695545516" lon="12.783168012183568"><ele>23.0</ele><time>2026-03-22T09:37:59.975Z</time></trkpt><trkpt lat="43.939247148301966" lon="12.783349858046622"><ele>23.0</ele><time>2026-03-22T09:38:00.975Z</time></trkpt><trkpt lat="43.9390170284462" lon="12.783522636211826"><ele>23.5</ele><time>2026-03-22T09:38:01.975Z</time></trkpt><trkpt lat="43.9387918699129" lon="12.783705658772455"><ele>24.0</ele><time>2026-03-22T09:38:02.974Z</time></trkpt><trkpt lat="43.93856459212749" lon="12.783885140033972"><ele>23.5</ele><time>2026-03-22T09:38:03.974Z</time></trkpt><trkpt lat="43.93833503136926" lon="12.784069691217313"><ele>23.0</ele><time>2026-03-22T09:38:04.974Z</time></trkpt><trkpt lat="43.93810919312138" lon="12.78424901628711"><ele>24.0</ele><time>2026-03-22T09:38:05.974Z</time></trkpt><trkpt lat="43.93788478216679" lon="12.784431309929026"><ele>25.0</ele><time>2026-03-22T09:38:06.974Z</time></trkpt><trkpt lat="43.93765988051754" lon="12.784609523617075"><ele>25.5</ele><time>2026-03-22T09:38:07.974Z</time></trkpt><trkpt lat="43.937441186968556" lon="12.784790246222284"><ele>26.0</ele><time>2026-03-22T09:38:08.974Z</time></trkpt><trkpt lat="43.9372201805081" lon="12.784971252095195"><ele>26.0</ele><time>2026-03-22T09:38:09.974Z</time></trkpt><trkpt lat="43.93699613483149" lon="12.78515282225759"><ele>26.0</ele><time>2026-03-22T09:38:10.974Z</time></trkpt><trkpt lat="43.936765402462505" lon="12.785341098588399"><ele>25.0</ele><time>2026-03-22T09:38:11.974Z</time></trkpt><trkpt lat="43.936531940791305" lon="12.785525270852588"><ele>24.0</ele><time>2026-03-22T09:38:12.974Z</time></trkpt><trkpt lat="43.93628967877679" lon="12.785716621978077"><ele>24.0</ele><time>2026-03-22T09:38:13.974Z</time></trkpt><trkpt lat="43.93605425228944" lon="12.785907417213563"><ele>24.0</ele><time>2026-03-22T09:38:14.974Z</time></trkpt><trkpt lat="43.93582332805008" lon="12.786095488010467"><ele>23.5</ele><time>2026-03-22T09:38:15.974Z</time></trkpt><trkpt lat="43.93559338626588" lon="12.786280024211894"><ele>23.0</ele><time>2026-03-22T09:38:16.974Z</time></trkpt><trkpt lat="43.9353610572438" lon="12.78646032425131"><ele>23.0</ele><time>2026-03-22T09:38:17.974Z</time></trkpt><trkpt lat="43.935132616909726" lon="12.786648734644215"><ele>23.0</ele><time>2026-03-22T09:38:18.974Z</time></trkpt><trkpt lat="43.93490514221443" lon="12.78682988982949"><ele>22.5</ele><time>2026-03-22T09:38:19.974Z</time></trkpt><trkpt lat="43.93468482241041" lon="12.787002131131777"><ele>22.0</ele><time>2026-03-22T09:38:20.974Z</time></trkpt><trkpt lat="43.93447079182232" lon="12.7871775679662"><ele>22.0</ele><time>2026-03-22T09:38:21.974Z</time></trkpt><trkpt lat="43.93425295173353" lon="12.787355627035328"><ele>22.0</ele><time>2026-03-22T09:38:22.974Z</time></trkpt><trkpt lat="43.93402643910948" lon="12.787539903720138"><ele>22.5</ele><time>2026-03-22T09:38:23.974Z</time></trkpt><trkpt lat="43.933797997829735" lon="12.787728431175893"><ele>23.0</ele><time>2026-03-22T09:38:24.974Z</time></trkpt><trkpt lat="43.93357183031123" lon="12.787915542818672"><ele>23.0</ele><time>2026-03-22T09:38:25.974Z</time></trkpt><trkpt lat="43.93335062777501" lon="12.788109455372847"><ele>23.0</ele><time>2026-03-22T09:38:26.974Z</time></trkpt><trkpt lat="43.9331294755387" lon="12.788309326194552"><ele>23.0</ele><time>2026-03-22T09:38:27.974Z</time></trkpt><trkpt lat="43.932909740365346" lon="12.788512366708341"><ele>23.0</ele><time>2026-03-22T09:38:28.974Z</time></trkpt><trkpt lat="43.93269294691602" lon="12.788716956031136"><ele>23.0</ele><time>2026-03-22T09:38:29.974Z</time></trkpt><trkpt lat="43.932482432071374" lon="12.78892524582"><ele>23.0</ele><time>2026-03-22T09:38:30.974Z</time></trkpt><trkpt lat="43.93227819542187" lon="12.789137339010274"><ele>23.5</ele><time>2026-03-22T09:38:31.974Z</time></trkpt><trkpt lat="43.932072540126434" lon="12.789356966750695"><ele>24.0</ele><time>2026-03-22T09:38:32.971Z</time></trkpt><trkpt lat="43.93186316020837" lon="12.789574369883722"><ele>24.0</ele><time>2026-03-22T09:38:33.972Z</time></trkpt><trkpt lat="43.93166135886871" lon="12.789798864905494"><ele>24.0</ele><time>2026-03-22T09:38:34.972Z</time></trkpt><trkpt lat="43.93146251880102" lon="12.790030502239901"><ele>24.0</ele><time>2026-03-22T09:38:35.972Z</time></trkpt><trkpt lat="43.93126528420696" lon="12.790267755062075"><ele>24.0</ele><time>2026-03-22T09:38:36.971Z</time></trkpt><trkpt lat="43.931069216363255" lon="12.790508068284735"><ele>25.0</ele><time>2026-03-22T09:38:37.971Z</time></trkpt><trkpt lat="43.93087493167346" lon="12.790754851111426"><ele>26.0</ele><time>2026-03-22T09:38:38.971Z</time></trkpt><trkpt lat="43.93068641110965" lon="12.791010096788188"><ele>26.0</ele><time>2026-03-22T09:38:39.971Z</time></trkpt><trkpt lat="43.930498733659824" lon="12.791264691703159"><ele>26.0</ele><time>2026-03-22T09:38:40.971Z</time></trkpt><trkpt lat="43.93031565315986" lon="12.79152489405781"><ele>26.0</ele><time>2026-03-22T09:38:41.971Z</time></trkpt><trkpt lat="43.93013644163913" lon="12.791786984831976"><ele>26.0</ele><time>2026-03-22T09:38:42.971Z</time></trkpt><trkpt lat="43.929960590375444" lon="12.792049956737193"><ele>27.0</ele><time>2026-03-22T09:38:43.971Z</time></trkpt><trkpt lat="43.92979008688347" lon="12.792319664141205"><ele>28.0</ele><time>2026-03-22T09:38:44.971Z</time></trkpt><trkpt lat="43.92962235781002" lon="12.792592524309649"><ele>27.5</ele><time>2026-03-22T09:38:45.971Z</time></trkpt><trkpt lat="43.9294562148429" lon="12.79286827744624"><ele>27.0</ele><time>2026-03-22T09:38:46.971Z</time></trkpt><trkpt lat="43.929295021574966" lon="12.793151222104735"><ele>28.5</ele><time>2026-03-22T09:38:47.971Z</time></trkpt><trkpt lat="43.92913310894047" lon="12.79343470556039"><ele>30.0</ele><time>2026-03-22T09:38:48.971Z</time></trkpt><trkpt lat="43.92897346917095" lon="12.793727056138875"><ele>30.0</ele><time>2026-03-22T09:38:49.971Z</time></trkpt><trkpt lat="43.928818475245556" lon="12.794021295933884"><ele>30.0</ele><time>2026-03-22T09:38:50.971Z</time></trkpt><trkpt lat="43.92866742121529" lon="12.794320418811049"><ele>29.5</ele><time>2026-03-22T09:38:51.971Z</time></trkpt><trkpt lat="43.92852074449082" lon="12.794631056619297"><ele>29.0</ele><time>2026-03-22T09:38:52.971Z</time></trkpt><trkpt lat="43.92837979618132" lon="12.794938298302576"><ele>30.5</ele><time>2026-03-22T09:38:53.971Z</time></trkpt><trkpt lat="43.928231908815796" lon="12.79524354237256"><ele>32.0</ele><time>2026-03-22T09:38:54.971Z</time></trkpt><trkpt lat="43.928093861743676" lon="12.795564342659587"><ele>32.0</ele><time>2026-03-22T09:38:55.971Z</time></trkpt><trkpt lat="43.92796206172694" lon="12.795891597057206"><ele>32.0</ele><time>2026-03-22T09:38:56.971Z</time></trkpt><trkpt lat="43.927829139271935" lon="12.79621907012903"><ele>31.0</ele><time>2026-03-22T09:38:57.971Z</time></trkpt><trkpt lat="43.927702284139706" lon="12.796542484087947"><ele>30.0</ele><time>2026-03-22T09:38:58.971Z</time></trkpt><trkpt lat="43.927585674652136" lon="12.796865619516444"><ele>32.0</ele><time>2026-03-22T09:38:59.971Z</time></trkpt><trkpt lat="43.927470184266085" lon="12.79719315320898"><ele>34.0</ele><time>2026-03-22T09:39:00.971Z</time></trkpt><trkpt lat="43.92735379726638" lon="12.797526180903569"><ele>32.5</ele><time>2026-03-22T09:39:01.971Z</time></trkpt><trkpt lat="43.92724350409064" lon="12.797860972042217"><ele>31.0</ele><time>2026-03-22T09:39:02.971Z</time></trkpt><trkpt lat="43.92713288250796" lon="12.798207531409549"><ele>30.5</ele><time>2026-03-22T09:39:03.971Z</time></trkpt><trkpt lat="43.927020815360315" lon="12.798559530968195"><ele>30.0</ele><time>2026-03-22T09:39:04.971Z</time></trkpt><trkpt lat="43.92691702629386" lon="12.798907088404299"><ele>30.0</ele><time>2026-03-22T09:39:05.971Z</time></trkpt><trkpt lat="43.92682168212296" lon="12.79925503920811"><ele>30.0</ele><time>2026-03-22T09:39:06.971Z</time></trkpt><trkpt lat="43.92673396224124" lon="12.799606808136122"><ele>31.5</ele><time>2026-03-22T09:39:07.971Z</time></trkpt><trkpt lat="43.92664842118631" lon="12.799949568048913"><ele>33.0</ele><time>2026-03-22T09:39:08.971Z</time></trkpt><trkpt lat="43.92656588577105" lon="12.800287882182904"><ele>33.5</ele><time>2026-03-22T09:39:09.971Z</time></trkpt><trkpt lat="43.92648811475624" lon="12.800625313326277"><ele>34.0</ele><time>2026-03-22T09:39:10.971Z</time></trkpt><trkpt lat="43.92640540665643" lon="12.800965505459216"><ele>34.0</ele><time>2026-03-22T09:39:11.971Z</time></trkpt><trkpt lat="43.926326537451516" lon="12.801307525407536"><ele>34.0</ele><time>2026-03-22T09:39:12.971Z</time></trkpt><trkpt lat="43.926251595162114" lon="12.801648559290719"><ele>36.5</ele><time>2026-03-22T09:39:13.971Z</time></trkpt><trkpt lat="43.92617180845217" lon="12.801987698922789"><ele>39.0</ele><time>2026-03-22T09:39:14.971Z</time></trkpt><trkpt lat="43.92609205784223" lon="12.80232807636549"><ele>40.0</ele><time>2026-03-22T09:39:15.971Z</time></trkpt><trkpt lat="43.92601279550902" lon="12.802667732934635"><ele>41.0</ele><time>2026-03-22T09:39:16.971Z</time></trkpt><trkpt lat="43.92593631315134" lon="12.80301067514786"><ele>43.5</ele><time>2026-03-22T09:39:17.971Z</time></trkpt><trkpt lat="43.925858499892946" lon="12.803357733012676"><ele>46.0</ele><time>2026-03-22T09:39:18.971Z</time></trkpt><trkpt lat="43.92577526750763" lon="12.803708290321534"><ele>48.0</ele><time>2026-03-22T09:39:19.971Z</time></trkpt><trkpt lat="43.92568959201931" lon="12.804058428224238"><ele>50.0</ele><time>2026-03-22T09:39:20.971Z</time></trkpt><trkpt lat="43.9255956034926" lon="12.804404900364677"><ele>51.5</ele><time>2026-03-22T09:39:21.971Z</time></trkpt><trkpt lat="43.925510651884316" lon="12.804740092329958"><ele>53.0</ele><time>2026-03-22T09:39:22.971Z</time></trkpt><trkpt lat="43.92542232466506" lon="12.805071843152643"><ele>53.5</ele><time>2026-03-22T09:39:23.971Z</time></trkpt><trkpt lat="43.92533370657806" lon="12.805405487934236"><ele>54.0</ele><time>2026-03-22T09:39:24.971Z</time></trkpt><trkpt lat="43.925232964175414" lon="12.805738737797173"><ele>52.5</ele><time>2026-03-22T09:39:25.971Z</time></trkpt><trkpt lat="43.92513167469109" lon="12.806072603068571"><ele>51.0</ele><time>2026-03-22T09:39:26.971Z</time></trkpt><trkpt lat="43.9250281510227" lon="12.806404935265112"><ele>54.0</ele><time>2026-03-22T09:39:27.971Z</time></trkpt><trkpt lat="43.92491150479998" lon="12.806736576912757"><ele>57.0</ele><time>2026-03-22T09:39:28.971Z</time></trkpt><trkpt lat="43.92478947584039" lon="12.807071908280731"><ele>57.0</ele><time>2026-03-22T09:39:29.971Z</time></trkpt><trkpt lat="43.92466621410567" lon="12.807398679749374"><ele>57.0</ele><time>2026-03-22T09:39:30.971Z</time></trkpt><trkpt lat="43.92453166917928" lon="12.807717226485318"><ele>57.0</ele><time>2026-03-22T09:39:31.971Z</time></trkpt><trkpt lat="43.92439237898642" lon="12.808031265558549"><ele>57.0</ele><time>2026-03-22T09:39:32.971Z</time></trkpt><trkpt lat="43.92425304468106" lon="12.808355043713673"><ele>60.5</ele><time>2026-03-22T09:39:33.971Z</time></trkpt><trkpt lat="43.92410058006067" lon="12.808675865030894"><ele>64.0</ele><time>2026-03-22T09:39:34.971Z</time></trkpt><trkpt lat="43.923947524293794" lon="12.808990721835134"><ele>64.0</ele><time>2026-03-22T09:39:35.971Z</time></trkpt><trkpt lat="43.923785548625276" lon="12.809296801502704"><ele>64.0</ele><time>2026-03-22T09:39:36.971Z</time></trkpt><trkpt lat="43.92362126586172" lon="12.809595280714484"><ele>65.0</ele><time>2026-03-22T09:39:37.971Z</time></trkpt><trkpt lat="43.923454403865655" lon="12.809891481432707"><ele>66.0</ele><time>2026-03-22T09:39:38.971Z</time></trkpt><trkpt lat="43.92328859346755" lon="12.810178545148847"><ele>71.5</ele><time>2026-03-22T09:39:39.971Z</time></trkpt><trkpt lat="43.92311509166478" lon="12.810465938310845"><ele>77.0</ele><time>2026-03-22T09:39:40.971Z</time></trkpt><trkpt lat="43.92295870936473" lon="12.810755380460238"><ele>78.5</ele><time>2026-03-22T09:39:41.971Z</time></trkpt><trkpt lat="43.922792699955316" lon="12.811041802235076"><ele>80.0</ele><time>2026-03-22T09:39:42.971Z</time></trkpt><trkpt lat="43.922627614458705" lon="12.811329209554602"><ele>77.5</ele><time>2026-03-22T09:39:43.971Z</time></trkpt><trkpt lat="43.92244822215457" lon="12.811648704608087"><ele>75.0</ele><time>2026-03-22T09:39:44.971Z</time></trkpt><trkpt lat="43.92222663542292" lon="12.811907003435"><ele>74.0</ele><time>2026-03-22T09:39:45.971Z</time></trkpt><trkpt lat="43.92191963569676" lon="12.812109899407274"><ele>73.0</ele><time>2026-03-22T09:39:46.971Z</time></trkpt><trkpt lat="43.921687585409266" lon="12.812345554181695"><ele>72.0</ele><time>2026-03-22T09:39:47.971Z</time></trkpt><trkpt lat="43.92147442983077" lon="12.81258471887083"><ele>71.0</ele><time>2026-03-22T09:39:48.971Z</time></trkpt><trkpt lat="43.92125478030251" lon="12.812820174181583"><ele>71.0</ele><time>2026-03-22T09:39:49.971Z</time></trkpt><trkpt lat="43.9210312229232" lon="12.813038928880989"><ele>71.0</ele><time>2026-03-22T09:39:50.971Z</time></trkpt><trkpt lat="43.920799338398396" lon="12.813257096400214"><ele>71.5</ele><time>2026-03-22T09:39:51.971Z</time></trkpt><trkpt lat="43.920561627627585" lon="12.81347591828642"><ele>72.0</ele><time>2026-03-22T09:39:52.971Z</time></trkpt><trkpt lat="43.92031237811147" lon="12.813686922717674"><ele>67.5</ele><time>2026-03-22T09:39:53.971Z</time></trkpt><trkpt lat="43.920057687820396" lon="12.813892573590708"><ele>63.0</ele><time>2026-03-22T09:39:54.971Z</time></trkpt><trkpt lat="43.91979717290136" lon="12.814083875878417"><ele>63.0</ele><time>2026-03-22T09:39:55.971Z</time></trkpt><trkpt lat="43.919546360897115" lon="12.81427181568587"><ele>63.0</ele><time>2026-03-22T09:39:56.971Z</time></trkpt><trkpt lat="43.919291941339715" lon="12.814456793543497"><ele>63.5</ele><time>2026-03-22T09:39:57.971Z</time></trkpt><trkpt lat="43.919032098590556" lon="12.814636728199655"><ele>64.0</ele><time>2026-03-22T09:39:58.971Z</time></trkpt><trkpt lat="43.918766824842024" lon="12.81481351924435"><ele>64.0</ele><time>2026-03-22T09:39:59.971Z</time></trkpt><trkpt lat="43.91849434887129" lon="12.814988093293437"><ele>64.0</ele><time>2026-03-22T09:40:00.971Z</time></trkpt><trkpt lat="43.91822528882635" lon="12.815165765028873"><ele>61.5</ele><time>2026-03-22T09:40:01.971Z</time></trkpt><trkpt lat="43.917952748526204" lon="12.815341229353026"><ele>59.0</ele><time>2026-03-22T09:40:02.971Z</time></trkpt><trkpt lat="43.91768875902614" lon="12.815511731477418"><ele>56.0</ele><time>2026-03-22T09:40:03.971Z</time></trkpt><trkpt lat="43.91742300008714" lon="12.815683084451859"><ele>53.0</ele><time>2026-03-22T09:40:04.971Z</time></trkpt><trkpt lat="43.917156745514376" lon="12.815858102406219"><ele>52.5</ele><time>2026-03-22T09:40:05.971Z</time></trkpt><trkpt lat="43.916896512656685" lon="12.816033325773915"><ele>52.0</ele><time>2026-03-22T09:40:06.971Z</time></trkpt><trkpt lat="43.916635480626205" lon="12.816206750696626"><ele>50.0</ele><time>2026-03-22T09:40:07.971Z</time></trkpt><trkpt lat="43.9163795907723" lon="12.816383128765438"><ele>48.0</ele><time>2026-03-22T09:40:08.971Z</time></trkpt><trkpt lat="43.91612422163655" lon="12.816562406547458"><ele>47.0</ele><time>2026-03-22T09:40:09.971Z</time></trkpt><trkpt lat="43.91586914627695" lon="12.81674716696528"><ele>46.0</ele><time>2026-03-22T09:40:10.971Z</time></trkpt><trkpt lat="43.91560972165686" lon="12.81693078048797"><ele>44.5</ele><time>2026-03-22T09:40:11.971Z</time></trkpt><trkpt lat="43.91534881827035" lon="12.817123793633298"><ele>43.0</ele><time>2026-03-22T09:40:12.971Z</time></trkpt><trkpt lat="43.91508621078489" lon="12.817316679633436"><ele>43.5</ele><time>2026-03-22T09:40:13.971Z</time></trkpt><trkpt lat="43.91483483998925" lon="12.817503104167114"><ele>44.0</ele><time>2026-03-22T09:40:14.971Z</time></trkpt><trkpt lat="43.914588702956586" lon="12.817690402564542"><ele>41.5</ele><time>2026-03-22T09:40:15.971Z</time></trkpt><trkpt lat="43.914340311738854" lon="12.81787098748079"><ele>39.0</ele><time>2026-03-22T09:40:16.971Z</time></trkpt><trkpt lat="43.914093067727315" lon="12.818063648744586"><ele>39.0</ele><time>2026-03-22T09:40:17.971Z</time></trkpt><trkpt lat="43.91383910158684" lon="12.818259680437713"><ele>39.0</ele><time>2026-03-22T09:40:18.971Z</time></trkpt><trkpt lat="43.91358225199238" lon="12.818460725466412"><ele>37.5</ele><time>2026-03-22T09:40:19.971Z</time></trkpt><trkpt lat="43.91332531600846" lon="12.81865913280502"><ele>36.0</ele><time>2026-03-22T09:40:20.971Z</time></trkpt><trkpt lat="43.91307215454377" lon="12.818858077782782"><ele>36.0</ele><time>2026-03-22T09:40:21.971Z</time></trkpt><trkpt lat="43.91282490582436" lon="12.819054751322716"><ele>36.0</ele><time>2026-03-22T09:40:22.971Z</time></trkpt><trkpt lat="43.91258257179434" lon="12.819246151347798"><ele>34.5</ele><time>2026-03-22T09:40:23.971Z</time></trkpt><trkpt lat="43.912346845175094" lon="12.819431721994693"><ele>33.0</ele><time>2026-03-22T09:40:24.971Z</time></trkpt><trkpt lat="43.9121191544236" lon="12.81961092023344"><ele>33.0</ele><time>2026-03-22T09:40:25.971Z</time></trkpt><trkpt lat="43.91188715676727" lon="12.819788296499121"><ele>33.0</ele><time>2026-03-22T09:40:26.971Z</time></trkpt><trkpt lat="43.91165888129769" lon="12.819965621508105"><ele>33.0</ele><time>2026-03-22T09:40:27.971Z</time></trkpt><trkpt lat="43.91143042252299" lon="12.820138206952794"><ele>33.0</ele><time>2026-03-22T09:40:28.971Z</time></trkpt><trkpt lat="43.91120580005807" lon="12.82031576031014"><ele>33.0</ele><time>2026-03-22T09:40:29.971Z</time></trkpt><trkpt lat="43.910975799585856" lon="12.820500152141214"><ele>33.0</ele><time>2026-03-22T09:40:30.971Z</time></trkpt><trkpt lat="43.91074734758646" lon="12.82068386693035"><ele>33.0</ele><time>2026-03-22T09:40:31.971Z</time></trkpt><trkpt lat="43.91052207792512" lon="12.820860797803766"><ele>33.0</ele><time>2026-03-22T09:40:32.971Z</time></trkpt><trkpt lat="43.91030109608103" lon="12.821033580868553"><ele>32.5</ele><time>2026-03-22T09:40:33.971Z</time></trkpt><trkpt lat="43.91008119302305" lon="12.821204491898198"><ele>32.0</ele><time>2026-03-22T09:40:34.971Z</time></trkpt><trkpt lat="43.90986332932039" lon="12.821375603340693"><ele>32.0</ele><time>2026-03-22T09:40:35.971Z</time></trkpt><trkpt lat="43.90964369669385" lon="12.82154617750502"><ele>32.0</ele><time>2026-03-22T09:40:36.971Z</time></trkpt><trkpt lat="43.9094282101104" lon="12.821723638613284"><ele>30.0</ele><time>2026-03-22T09:40:37.971Z</time></trkpt><trkpt lat="43.90921315385286" lon="12.821910252546546"><ele>28.0</ele><time>2026-03-22T09:40:38.968Z</time></trkpt><trkpt lat="43.90898918699947" lon="12.82208410834903"><ele>28.0</ele><time>2026-03-22T09:40:39.969Z</time></trkpt><trkpt lat="43.90878431386693" lon="12.822259932971361"><ele>28.0</ele><time>2026-03-22T09:40:40.969Z</time></trkpt><trkpt lat="43.90858071354618" lon="12.822438648031866"><ele>28.5</ele><time>2026-03-22T09:40:41.968Z</time></trkpt><trkpt lat="43.90838954249386" lon="12.82262000122792"><ele>29.0</ele><time>2026-03-22T09:40:42.968Z</time></trkpt><trkpt lat="43.90819730850477" lon="12.822796750811333"><ele>28.0</ele><time>2026-03-22T09:40:43.968Z</time></trkpt><trkpt lat="43.90801432534345" lon="12.822986899042933"><ele>27.0</ele><time>2026-03-22T09:40:44.968Z</time></trkpt><trkpt lat="43.907831003566685" lon="12.823180680117561"><ele>27.0</ele><time>2026-03-22T09:40:45.968Z</time></trkpt><trkpt lat="43.907643622436346" lon="12.8233814146937"><ele>27.0</ele><time>2026-03-22T09:40:46.968Z</time></trkpt><trkpt lat="43.907463187678964" lon="12.82358950650059"><ele>26.5</ele><time>2026-03-22T09:40:47.969Z</time></trkpt><trkpt lat="43.90728072780368" lon="12.8238043909685"><ele>26.0</ele><time>2026-03-22T09:40:48.968Z</time></trkpt><trkpt lat="43.90709349104216" lon="12.824023012857218"><ele>26.0</ele><time>2026-03-22T09:40:49.968Z</time></trkpt><trkpt lat="43.906906025706874" lon="12.824246437470437"><ele>26.0</ele><time>2026-03-22T09:40:50.968Z</time></trkpt><trkpt lat="43.90672039619085" lon="12.824474633296347"><ele>25.5</ele><time>2026-03-22T09:40:51.968Z</time></trkpt><trkpt lat="43.906531294247436" lon="12.824706836196366"><ele>25.0</ele><time>2026-03-22T09:40:52.968Z</time></trkpt><trkpt lat="43.906341462093984" lon="12.82493934139807"><ele>24.5</ele><time>2026-03-22T09:40:53.968Z</time></trkpt><trkpt lat="43.90616012949655" lon="12.825166000536512"><ele>24.0</ele><time>2026-03-22T09:40:54.968Z</time></trkpt><trkpt lat="43.90597538332233" lon="12.825385923106763"><ele>23.5</ele><time>2026-03-22T09:40:55.968Z</time></trkpt><trkpt lat="43.905786867982826" lon="12.825614312100866"><ele>23.0</ele><time>2026-03-22T09:40:56.968Z</time></trkpt><trkpt lat="43.90560038012274" lon="12.825843392187908"><ele>24.0</ele><time>2026-03-22T09:40:57.968Z</time></trkpt><trkpt lat="43.905406695499025" lon="12.826074246435644"><ele>25.0</ele><time>2026-03-22T09:40:58.968Z</time></trkpt><trkpt lat="43.90520894159992" lon="12.826311147899998"><ele>25.0</ele><time>2026-03-22T09:40:59.968Z</time></trkpt><trkpt lat="43.90501646502527" lon="12.82654890098643"><ele>25.0</ele><time>2026-03-22T09:41:00.968Z</time></trkpt><trkpt lat="43.904814147964416" lon="12.826782554399827"><ele>25.0</ele><time>2026-03-22T09:41:01.968Z</time></trkpt><trkpt lat="43.904622983243634" lon="12.827008528496346"><ele>25.0</ele><time>2026-03-22T09:41:02.968Z</time></trkpt><trkpt lat="43.90443039801753" lon="12.827233280154628"><ele>25.0</ele><time>2026-03-22T09:41:03.968Z</time></trkpt><trkpt lat="43.904240814336895" lon="12.827464965890677"><ele>25.0</ele><time>2026-03-22T09:41:04.968Z</time></trkpt><trkpt lat="43.90405239909655" lon="12.827701053794218"><ele>25.0</ele><time>2026-03-22T09:41:05.968Z</time></trkpt><trkpt lat="43.90386155981171" lon="12.827934032698872"><ele>25.0</ele><time>2026-03-22T09:41:06.968Z</time></trkpt><trkpt lat="43.90367669749971" lon="12.828161695921006"><ele>25.0</ele><time>2026-03-22T09:41:07.968Z</time></trkpt><trkpt lat="43.90348259764398" lon="12.828392312743901"><ele>25.0</ele><time>2026-03-22T09:41:08.968Z</time></trkpt><trkpt lat="43.903279933781555" lon="12.828630610672736"><ele>24.5</ele><time>2026-03-22T09:41:09.968Z</time></trkpt><trkpt lat="43.9030838042406" lon="12.828877843715631"><ele>24.0</ele><time>2026-03-22T09:41:10.968Z</time></trkpt><trkpt lat="43.90288564224338" lon="12.829122343381743"><ele>25.0</ele><time>2026-03-22T09:41:11.968Z</time></trkpt><trkpt lat="43.90268532256309" lon="12.82936708831077"><ele>26.0</ele><time>2026-03-22T09:41:12.968Z</time></trkpt><trkpt lat="43.90248465888621" lon="12.829607476121517"><ele>26.0</ele><time>2026-03-22T09:41:13.968Z</time></trkpt><trkpt lat="43.9022835109178" lon="12.829852580291865"><ele>26.0</ele><time>2026-03-22T09:41:14.968Z</time></trkpt><trkpt lat="43.90208358574024" lon="12.830107199449584"><ele>28.0</ele><time>2026-03-22T09:41:15.967Z</time></trkpt><trkpt lat="43.901889194601495" lon="12.830362320161449"><ele>30.0</ele><time>2026-03-22T09:41:16.967Z</time></trkpt><trkpt lat="43.90169389605196" lon="12.830609151197411"><ele>30.0</ele><time>2026-03-22T09:41:17.967Z</time></trkpt><trkpt lat="43.90150792034618" lon="12.830862036391075"><ele>30.0</ele><time>2026-03-22T09:41:18.967Z</time></trkpt><trkpt lat="43.90133844954034" lon="12.831122440022964"><ele>34.0</ele><time>2026-03-22T09:41:19.967Z</time></trkpt><trkpt lat="43.90117944425245" lon="12.831391378032166"><ele>38.0</ele><time>2026-03-22T09:41:20.967Z</time></trkpt><trkpt lat="43.901022671048196" lon="12.831677678351143"><ele>35.5</ele><time>2026-03-22T09:41:21.967Z</time></trkpt><trkpt lat="43.900868419564716" lon="12.831962077218956"><ele>33.0</ele><time>2026-03-22T09:41:22.967Z</time></trkpt><trkpt lat="43.90072057648372" lon="12.832244563691471"><ele>33.0</ele><time>2026-03-22T09:41:23.967Z</time></trkpt><trkpt lat="43.90058055920954" lon="12.83253330761665"><ele>33.0</ele><time>2026-03-22T09:41:24.967Z</time></trkpt><trkpt lat="43.90044440702571" lon="12.83282341767737"><ele>34.0</ele><time>2026-03-22T09:41:25.967Z</time></trkpt><trkpt lat="43.900321552392626" lon="12.833106295484047"><ele>35.0</ele><time>2026-03-22T09:41:26.967Z</time></trkpt><trkpt lat="43.900212866433776" lon="12.833382418445218"><ele>35.0</ele><time>2026-03-22T09:41:27.967Z</time></trkpt><trkpt lat="43.900106997304675" lon="12.833662219669764"><ele>35.0</ele><time>2026-03-22T09:41:28.967Z</time></trkpt><trkpt lat="43.900006186056245" lon="12.833942738690352"><ele>35.0</ele><time>2026-03-22T09:41:29.967Z</time></trkpt><trkpt lat="43.8999086532122" lon="12.83422445644414"><ele>35.0</ele><time>2026-03-22T09:41:30.967Z</time></trkpt><trkpt lat="43.89981767634655" lon="12.834512764717452"><ele>37.0</ele><time>2026-03-22T09:41:31.967Z</time></trkpt><trkpt lat="43.89973387676481" lon="12.834801145525145"><ele>39.0</ele><time>2026-03-22T09:41:32.967Z</time></trkpt><trkpt lat="43.8996557958784" lon="12.8350774929111"><ele>41.0</ele><time>2026-03-22T09:41:33.967Z</time></trkpt><trkpt lat="43.89957701891312" lon="12.835366964536222"><ele>40.666666666666664</ele><time>2026-03-22T09:41:34.967Z</time></trkpt><trkpt lat="43.89949892973364" lon="12.835650236308517"><ele>40.333333333333336</ele><time>2026-03-22T09:41:35.967Z</time></trkpt><trkpt lat="43.89941452007441" lon="12.835937954640016"><ele>40.0</ele><time>2026-03-22T09:41:36.967Z</time></trkpt><trkpt lat="43.89932574568597" lon="12.836235198940507"><ele>37.5</ele><time>2026-03-22T09:41:37.967Z</time></trkpt><trkpt lat="43.899234876123096" lon="12.836564477336966"><ele>35.0</ele><time>2026-03-22T09:41:38.967Z</time></trkpt><trkpt lat="43.89922753101742" lon="12.836940984206151"><ele>32.0</ele><time>2026-03-22T09:41:39.967Z</time></trkpt><trkpt lat="43.899219654100406" lon="12.83730460522822"><ele>29.0</ele><time>2026-03-22T09:41:40.967Z</time></trkpt><trkpt lat="43.899183866187684" lon="12.837628315825883"><ele>27.0</ele><time>2026-03-22T09:41:41.967Z</time></trkpt><trkpt lat="43.89915171678194" lon="12.837950187571764"><ele>25.0</ele><time>2026-03-22T09:41:42.967Z</time></trkpt><trkpt lat="43.89912758975326" lon="12.838271768572659"><ele>23.5</ele><time>2026-03-22T09:41:43.967Z</time></trkpt><trkpt lat="43.89910989031236" lon="12.838603855098057"><ele>22.0</ele><time>2026-03-22T09:41:44.967Z</time></trkpt><trkpt lat="43.89909906709043" lon="12.838938974077989"><ele>22.0</ele><time>2026-03-22T09:41:45.967Z</time></trkpt><trkpt lat="43.899088945232734" lon="12.839262302751305"><ele>22.0</ele><time>2026-03-22T09:41:46.967Z</time></trkpt><trkpt lat="43.8990844606092" lon="12.839577558070374"><ele>20.0</ele><time>2026-03-22T09:41:47.967Z</time></trkpt><trkpt lat="43.89908028989259" lon="12.839891069433886"><ele>18.0</ele><time>2026-03-22T09:41:48.967Z</time></trkpt><trkpt lat="43.899077893968396" lon="12.840215813600196"><ele>17.666666666666668</ele><time>2026-03-22T09:41:49.967Z</time></trkpt><trkpt lat="43.89907136248348" lon="12.840529429050264"><ele>17.333333333333336</ele><time>2026-03-22T09:41:50.967Z</time></trkpt><trkpt lat="43.89907221267934" lon="12.840835617221448"><ele>17.0</ele><time>2026-03-22T09:41:51.967Z</time></trkpt><trkpt lat="43.89906541705422" lon="12.84114816294896"><ele>17.0</ele><time>2026-03-22T09:41:52.967Z</time></trkpt><trkpt lat="43.89905860450223" lon="12.841456185230555"><ele>17.0</ele><time>2026-03-22T09:41:53.967Z</time></trkpt><trkpt lat="43.89905748687302" lon="12.841737628133894"><ele>17.0</ele><time>2026-03-22T09:41:54.967Z</time></trkpt><trkpt lat="43.89905834648419" lon="12.8419870115642"><ele>17.333333333333336</ele><time>2026-03-22T09:41:55.967Z</time></trkpt><trkpt lat="43.899057641520464" lon="12.842218100906877"><ele>17.666666666666668</ele><time>2026-03-22T09:41:56.967Z</time></trkpt><trkpt lat="43.899057743913225" lon="12.842437187149898"><ele>18.0</ele><time>2026-03-22T09:41:57.967Z</time></trkpt><trkpt lat="43.89906086046797" lon="12.842629378933859"><ele>17.8</ele><time>2026-03-22T09:41:58.967Z</time></trkpt><trkpt lat="43.899060920482725" lon="12.842807837828461"><ele>17.6</ele><time>2026-03-22T09:41:59.967Z</time></trkpt><trkpt lat="43.899053301478716" lon="12.84296827391014"><ele>17.4</ele><time>2026-03-22T09:42:00.967Z</time></trkpt><trkpt lat="43.89904391000655" lon="12.843110017937612"><ele>17.2</ele><time>2026-03-22T09:42:01.967Z</time></trkpt><trkpt lat="43.89901948606934" lon="12.843242062594191"><ele>17.0</ele><time>2026-03-22T09:42:02.967Z</time></trkpt><trkpt lat="43.89899105662883" lon="12.843364603823213"><ele>16.4</ele><time>2026-03-22T09:42:03.967Z</time></trkpt><trkpt lat="43.898946029866636" lon="12.843471123119024"><ele>15.799999999999999</ele><time>2026-03-22T09:42:04.967Z</time></trkpt><trkpt lat="43.898885332986374" lon="12.843566073327933"><ele>15.2</ele><time>2026-03-22T09:42:05.967Z</time></trkpt><trkpt lat="43.89881395371212" lon="12.843644839830805"><ele>14.6</ele><time>2026-03-22T09:42:06.967Z</time></trkpt><trkpt lat="43.89873275249761" lon="12.843704463303691"><ele>14.0</ele><time>2026-03-22T09:42:07.967Z</time></trkpt><trkpt lat="43.89864275943004" lon="12.843743087513783"><ele>14.000000000000002</ele><time>2026-03-22T09:42:08.967Z</time></trkpt><trkpt lat="43.89856020415192" lon="12.843764563440361"><ele>14.0</ele><time>2026-03-22T09:42:09.967Z</time></trkpt><trkpt lat="43.89846941083985" lon="12.843759920243505"><ele>14.0</ele><time>2026-03-22T09:42:10.967Z</time></trkpt><trkpt lat="43.89837997568313" lon="12.843746332941292"><ele>14.0</ele><time>2026-03-22T09:42:11.967Z</time></trkpt><trkpt lat="43.89830514489047" lon="12.843706507210033"><ele>14.000000000000002</ele><time>2026-03-22T09:42:12.967Z</time></trkpt><trkpt lat="43.89823239249115" lon="12.843647302256992"><ele>14.0</ele><time>2026-03-22T09:42:13.967Z</time></trkpt><trkpt lat="43.89816407581235" lon="12.843578784512477"><ele>14.0</ele><time>2026-03-22T09:42:14.967Z</time></trkpt><trkpt lat="43.8981021871471" lon="12.843485918524374"><ele>13.999999999999998</ele><time>2026-03-22T09:42:15.967Z</time></trkpt><trkpt lat="43.89805316693547" lon="12.84337763671025"><ele>13.999999999999998</ele><time>2026-03-22T09:42:16.967Z</time></trkpt><trkpt lat="43.89801635806654" lon="12.843262083521429"><ele>14.0</ele><time>2026-03-22T09:42:17.967Z</time></trkpt><trkpt lat="43.89797321343302" lon="12.84313690560037"><ele>14.0</ele><time>2026-03-22T09:42:18.967Z</time></trkpt><trkpt lat="43.89793325961346" lon="12.843013158301964"><ele>14.000000000000002</ele><time>2026-03-22T09:42:19.967Z</time></trkpt><trkpt lat="43.89789557318054" lon="12.842908778451953"><ele>14.0</ele><time>2026-03-22T09:42:20.967Z</time></trkpt><trkpt lat="43.89786218405165" lon="12.842814112112764"><ele>14.0</ele><time>2026-03-22T09:42:21.967Z</time></trkpt><trkpt lat="43.89782618747652" lon="12.842707207248083"><ele>14.0</ele><time>2026-03-22T09:42:22.967Z</time></trkpt><trkpt lat="43.89779334238959" lon="12.842611089605914"><ele>14.000000000000002</ele><time>2026-03-22T09:42:23.967Z</time></trkpt><trkpt lat="43.89775570900165" lon="12.8425018485489"><ele>14.0</ele><time>2026-03-22T09:42:24.967Z</time></trkpt><trkpt lat="43.89771477083509" lon="12.842380622379697"><ele>14.0</ele><time>2026-03-22T09:42:25.967Z</time></trkpt><trkpt lat="43.89767432563389" lon="12.842252410532167"><ele>13.999999999999998</ele><time>2026-03-22T09:42:26.967Z</time></trkpt><trkpt lat="43.897641267804715" lon="12.842134822059926"><ele>13.999999999999998</ele><time>2026-03-22T09:42:27.967Z</time></trkpt><trkpt lat="43.89761179758441" lon="12.842029695277882"><ele>14.0</ele><time>2026-03-22T09:42:28.967Z</time></trkpt><trkpt lat="43.89757360330514" lon="12.841879949033732"><ele>14.0</ele><time>2026-03-22T09:42:30.967Z</time></trkpt><trkpt lat="43.8975414036644" lon="12.841744162845728"><ele>13.6</ele><time>2026-03-22T09:42:32.967Z</time></trkpt><trkpt lat="43.897503917328905" lon="12.841611759638573"><ele>13.2</ele><time>2026-03-22T09:42:34.967Z</time></trkpt><trkpt lat="43.89746757077514" lon="12.841461019671135"><ele>12.799999999999999</ele><time>2026-03-22T09:42:36.967Z</time></trkpt><trkpt lat="43.89744743021007" lon="12.841363760245136"><ele>12.399999999999999</ele><time>2026-03-22T09:42:37.967Z</time></trkpt><trkpt lat="43.897389340935334" lon="12.841214923229437"><ele>12.0</ele><time>2026-03-22T09:42:39.967Z</time></trkpt><trkpt lat="43.89736471041426" lon="12.841109385306641"><ele>12.0</ele><time>2026-03-22T09:42:40.967Z</time></trkpt><trkpt lat="43.8973459519951" lon="12.840997195847851"><ele>12.0</ele><time>2026-03-22T09:42:41.967Z</time></trkpt><trkpt lat="43.89732607940323" lon="12.84089595725816"><ele>12.0</ele><time>2026-03-22T09:42:42.967Z</time></trkpt><trkpt lat="43.897294715704135" lon="12.84080335541869"><ele>12.0</ele><time>2026-03-22T09:42:43.967Z</time></trkpt><trkpt lat="43.897275166358355" lon="12.840712774743889"><ele>12.0</ele><time>2026-03-22T09:42:44.966Z</time></trkpt><trkpt lat="43.897248175601476" lon="12.840567180914567"><ele>12.0</ele><time>2026-03-22T09:42:46.966Z</time></trkpt><trkpt lat="43.897224711865114" lon="12.840440643647659"><ele>12.2</ele><time>2026-03-22T09:42:48.965Z</time></trkpt><trkpt lat="43.89719855497632" lon="12.840305152410725"><ele>12.399999999999999</ele><time>2026-03-22T09:42:50.966Z</time></trkpt><trkpt lat="43.89716862495845" lon="12.840167515365179"><ele>12.600000000000001</ele><time>2026-03-22T09:42:52.966Z</time></trkpt><trkpt lat="43.89713544822785" lon="12.840018844205442"><ele>12.8</ele><time>2026-03-22T09:42:54.965Z</time></trkpt><trkpt lat="43.89710605811789" lon="12.83986435052897"><ele>13.0</ele><time>2026-03-22T09:42:56.966Z</time></trkpt><trkpt lat="43.897069695213766" lon="12.83972193631149"><ele>13.166666666666666</ele><time>2026-03-22T09:42:58.966Z</time></trkpt><trkpt lat="43.897037688641085" lon="12.839592953646344"><ele>13.333333333333332</ele><time>2026-03-22T09:43:00.966Z</time></trkpt><trkpt lat="43.897010625579334" lon="12.839473531507963"><ele>13.5</ele><time>2026-03-22T09:43:02.966Z</time></trkpt><trkpt lat="43.896987785332826" lon="12.839367270014177"><ele>13.666666666666668</ele><time>2026-03-22T09:43:04.966Z</time></trkpt><trkpt lat="43.89695231552464" lon="12.839280348257974"><ele>13.833333333333334</ele><time>2026-03-22T09:43:06.966Z</time></trkpt><trkpt lat="43.89693748043204" lon="12.839175634845946"><ele>14.0</ele><time>2026-03-22T09:43:10.966Z</time></trkpt><trkpt lat="43.896904209571865" lon="12.839086575292956"><ele>14.0</ele><time>2026-03-22T09:43:14.966Z</time></trkpt><trkpt lat="43.89688245034876" lon="12.838951139576004"><ele>13.999999999999998</ele><time>2026-03-22T09:46:23.964Z</time></trkpt><trkpt lat="43.89681878151112" lon="12.838783107917237"><ele>13.999999999999998</ele><time>2026-03-22T09:46:25.964Z</time></trkpt><trkpt lat="43.89679669541232" lon="12.83869748311209"><ele>14.0</ele><time>2026-03-22T09:46:26.964Z</time></trkpt><trkpt lat="43.896756194309724" lon="12.838551343777947"><ele>14.0</ele><time>2026-03-22T09:46:28.964Z</time></trkpt><trkpt lat="43.89673226547014" lon="12.838410820360268"><ele>14.000000000000002</ele><time>2026-03-22T09:46:30.964Z</time></trkpt><trkpt lat="43.89673185045101" lon="12.838256771750657"><ele>14.0</ele><time>2026-03-22T09:46:32.964Z</time></trkpt><trkpt lat="43.89677729933013" lon="12.838112430558223"><ele>14.0</ele><time>2026-03-22T09:46:34.964Z</time></trkpt><trkpt lat="43.896818287996595" lon="12.838045640791824"><ele>14.0</ele><time>2026-03-22T09:46:35.964Z</time></trkpt><trkpt lat="43.89687757190908" lon="12.838003902317608"><ele>14.000000000000002</ele><time>2026-03-22T09:46:36.964Z</time></trkpt><trkpt lat="43.896946677743244" lon="12.83798334614972"><ele>14.0</ele><time>2026-03-22T09:46:37.964Z</time></trkpt><trkpt lat="43.89703052336776" lon="12.837985788810332"><ele>14.666666666666668</ele><time>2026-03-22T09:46:38.964Z</time></trkpt><trkpt lat="43.897100195679045" lon="12.8380021712159"><ele>15.333333333333334</ele><time>2026-03-22T09:46:39.964Z</time></trkpt><trkpt lat="43.89718272067512" lon="12.83802479983623"><ele>16.0</ele><time>2026-03-22T09:46:40.964Z</time></trkpt><trkpt lat="43.89726863372662" lon="12.838069535110403"><ele>16.666666666666668</ele><time>2026-03-22T09:46:41.964Z</time></trkpt><trkpt lat="43.89735573185826" lon="12.838133521956255"><ele>17.333333333333332</ele><time>2026-03-22T09:46:42.964Z</time></trkpt><trkpt lat="43.89744247575594" lon="12.838206985881518"><ele>18.0</ele><time>2026-03-22T09:46:43.964Z</time></trkpt><trkpt lat="43.89753435712193" lon="12.838222988089834"><ele>17.8</ele><time>2026-03-22T09:46:44.964Z</time></trkpt><trkpt lat="43.89760685043631" lon="12.838361444011268"><ele>17.6</ele><time>2026-03-22T09:46:45.964Z</time></trkpt><trkpt lat="43.897692709098735" lon="12.838445034849359"><ele>17.4</ele><time>2026-03-22T09:46:46.964Z</time></trkpt><trkpt lat="43.897778483454424" lon="12.838535517276078"><ele>17.2</ele><time>2026-03-22T09:46:47.964Z</time></trkpt><trkpt lat="43.89786599383681" lon="12.838628206119937"><ele>17.0</ele><time>2026-03-22T09:46:48.964Z</time></trkpt><trkpt lat="43.897944060603905" lon="12.838727232338918"><ele>17.0</ele><time>2026-03-22T09:46:49.964Z</time></trkpt><trkpt lat="43.898008936843986" lon="12.838811404900689"><ele>17.0</ele><time>2026-03-22T09:46:50.964Z</time></trkpt><trkpt lat="43.89807719418318" lon="12.838893979956927"><ele>17.0</ele><time>2026-03-22T09:46:51.963Z</time></trkpt><trkpt lat="43.89814326060326" lon="12.838977598181556"><ele>17.0</ele><time>2026-03-22T09:46:52.963Z</time></trkpt><trkpt lat="43.89820501342972" lon="12.839060293673175"><ele>17.0</ele><time>2026-03-22T09:46:53.963Z</time></trkpt><trkpt lat="43.89826918118791" lon="12.839136942054813"><ele>17.0</ele><time>2026-03-22T09:46:54.963Z</time></trkpt><trkpt lat="43.898332024135925" lon="12.83921303455628"><ele>17.0</ele><time>2026-03-22T09:46:55.963Z</time></trkpt><trkpt lat="43.89839016575249" lon="12.839291465107044"><ele>17.0</ele><time>2026-03-22T09:46:56.961Z</time></trkpt><trkpt lat="43.898453103834676" lon="12.839373623693769"><ele>17.0</ele><time>2026-03-22T09:46:57.961Z</time></trkpt><trkpt lat="43.89851841172729" lon="12.839463722992875"><ele>17.0</ele><time>2026-03-22T09:46:58.961Z</time></trkpt><trkpt lat="43.898588995717255" lon="12.839559648582087"><ele>17.0</ele><time>2026-03-22T09:46:59.961Z</time></trkpt><trkpt lat="43.898661443341915" lon="12.839662804773448"><ele>17.25</ele><time>2026-03-22T09:47:00.961Z</time></trkpt><trkpt lat="43.89873556619113" lon="12.839770655790858"><ele>17.5</ele><time>2026-03-22T09:47:01.961Z</time></trkpt><trkpt lat="43.898821354850305" lon="12.839886596307615"><ele>17.75</ele><time>2026-03-22T09:47:02.962Z</time></trkpt><trkpt lat="43.89891717372858" lon="12.84001743283986"><ele>18.0</ele><time>2026-03-22T09:47:03.961Z</time></trkpt><trkpt lat="43.89902074009987" lon="12.84014477468084"><ele>17.5</ele><time>2026-03-22T09:47:04.961Z</time></trkpt><trkpt lat="43.89912387425112" lon="12.8402710114056"><ele>17.0</ele><time>2026-03-22T09:47:05.961Z</time></trkpt><trkpt lat="43.89922786414972" lon="12.840400876860892"><ele>16.5</ele><time>2026-03-22T09:47:06.961Z</time></trkpt><trkpt lat="43.8993312838113" lon="12.840537834041417"><ele>16.0</ele><time>2026-03-22T09:47:07.961Z</time></trkpt><trkpt lat="43.8994188864368" lon="12.840701360899965"><ele>17.25</ele><time>2026-03-22T09:47:08.961Z</time></trkpt><trkpt lat="43.89950593446698" lon="12.840875403607464"><ele>18.5</ele><time>2026-03-22T09:47:09.961Z</time></trkpt><trkpt lat="43.899593391905015" lon="12.841039953180324"><ele>19.75</ele><time>2026-03-22T09:47:10.961Z</time></trkpt><trkpt lat="43.89965048322387" lon="12.841211748338369"><ele>21.0</ele><time>2026-03-22T09:47:11.961Z</time></trkpt><trkpt lat="43.899708653163785" lon="12.841379731265276"><ele>21.0</ele><time>2026-03-22T09:47:12.961Z</time></trkpt><trkpt lat="43.899761995305425" lon="12.84154407448268"><ele>21.0</ele><time>2026-03-22T09:47:13.961Z</time></trkpt><trkpt lat="43.89981663834021" lon="12.841718531735706"><ele>21.0</ele><time>2026-03-22T09:47:14.961Z</time></trkpt><trkpt lat="43.89986954088925" lon="12.841924377476246"><ele>21.0</ele><time>2026-03-22T09:47:15.961Z</time></trkpt><trkpt lat="43.8999234678185" lon="12.842153823206438"><ele>21.0</ele><time>2026-03-22T09:47:16.961Z</time></trkpt><trkpt lat="43.89997961850666" lon="12.842412880995392"><ele>21.0</ele><time>2026-03-22T09:47:17.961Z</time></trkpt><trkpt lat="43.900047441391045" lon="12.842685647674625"><ele>21.0</ele><time>2026-03-22T09:47:18.961Z</time></trkpt><trkpt lat="43.90013332532402" lon="12.842977095142906"><ele>21.0</ele><time>2026-03-22T09:47:19.961Z</time></trkpt><trkpt lat="43.90019266357611" lon="12.843288096353373"><ele>21.0</ele><time>2026-03-22T09:47:20.961Z</time></trkpt><trkpt lat="43.900261833618636" lon="12.843590509141038"><ele>21.0</ele><time>2026-03-22T09:47:21.961Z</time></trkpt><trkpt lat="43.900319613720704" lon="12.843877265235212"><ele>21.0</ele><time>2026-03-22T09:47:22.961Z</time></trkpt><trkpt lat="43.90036397649135" lon="12.844145672831312"><ele>21.0</ele><time>2026-03-22T09:47:23.961Z</time></trkpt><trkpt lat="43.900402789041124" lon="12.84439933846631"><ele>20.333333333333332</ele><time>2026-03-22T09:47:24.961Z</time></trkpt><trkpt lat="43.900460270543434" lon="12.84464008916846"><ele>19.666666666666664</ele><time>2026-03-22T09:47:25.961Z</time></trkpt><trkpt lat="43.900488723021915" lon="12.84486742736997"><ele>19.0</ele><time>2026-03-22T09:47:26.961Z</time></trkpt><trkpt lat="43.90051776580708" lon="12.845097394811171"><ele>18.666666666666664</ele><time>2026-03-22T09:47:27.961Z</time></trkpt><trkpt lat="43.90054713708725" lon="12.845328162615385"><ele>18.333333333333332</ele><time>2026-03-22T09:47:28.961Z</time></trkpt><trkpt lat="43.90058045737951" lon="12.845550740178343"><ele>18.0</ele><time>2026-03-22T09:47:29.961Z</time></trkpt><trkpt lat="43.90061399036939" lon="12.845770332681482"><ele>18.0</ele><time>2026-03-22T09:47:30.961Z</time></trkpt><trkpt lat="43.90064840369724" lon="12.845992000786564"><ele>18.0</ele><time>2026-03-22T09:47:31.961Z</time></trkpt><trkpt lat="43.90068481622322" lon="12.846226270701495"><ele>18.0</ele><time>2026-03-22T09:47:32.961Z</time></trkpt><trkpt lat="43.90072460638233" lon="12.84648197825522"><ele>18.0</ele><time>2026-03-22T09:47:33.961Z</time></trkpt><trkpt lat="43.90076834687253" lon="12.846741525700601"><ele>18.0</ele><time>2026-03-22T09:47:34.961Z</time></trkpt><trkpt lat="43.900821341430714" lon="12.84699309578733"><ele>18.0</ele><time>2026-03-22T09:47:35.961Z</time></trkpt><trkpt lat="43.90087707798307" lon="12.847232545837619"><ele>20.0</ele><time>2026-03-22T09:47:36.961Z</time></trkpt><trkpt lat="43.900932895871904" lon="12.847458330802917"><ele>22.0</ele><time>2026-03-22T09:47:37.961Z</time></trkpt><trkpt lat="43.900991411253386" lon="12.847684730687458"><ele>24.0</ele><time>2026-03-22T09:47:38.961Z</time></trkpt><trkpt lat="43.901051725384306" lon="12.847917396795797"><ele>24.0</ele><time>2026-03-22T09:47:39.961Z</time></trkpt><trkpt lat="43.9011100899364" lon="12.848140038772112"><ele>24.0</ele><time>2026-03-22T09:47:40.961Z</time></trkpt><trkpt lat="43.901167362924014" lon="12.848355781820093"><ele>24.0</ele><time>2026-03-22T09:47:41.961Z</time></trkpt><trkpt lat="43.90122426972934" lon="12.848562048888654"><ele>22.666666666666668</ele><time>2026-03-22T09:47:42.961Z</time></trkpt><trkpt lat="43.90128035703899" lon="12.848761653905296"><ele>21.333333333333336</ele><time>2026-03-22T09:47:43.961Z</time></trkpt><trkpt lat="43.90133291090473" lon="12.848960611494453"><ele>20.0</ele><time>2026-03-22T09:47:44.961Z</time></trkpt><trkpt lat="43.90138134252802" lon="12.849156304164127"><ele>20.0</ele><time>2026-03-22T09:47:45.961Z</time></trkpt><trkpt lat="43.901427095765115" lon="12.849340859737042"><ele>20.0</ele><time>2026-03-22T09:47:46.961Z</time></trkpt><trkpt lat="43.901473139128136" lon="12.84951268394625"><ele>20.0</ele><time>2026-03-22T09:47:47.961Z</time></trkpt><trkpt lat="43.901519509689585" lon="12.849678067347034"><ele>20.0</ele><time>2026-03-22T09:47:48.961Z</time></trkpt><trkpt lat="43.90155801303594" lon="12.849841054665648"><ele>20.0</ele><time>2026-03-22T09:47:49.961Z</time></trkpt><trkpt lat="43.901601564402306" lon="12.849992118145712"><ele>20.0</ele><time>2026-03-22T09:47:50.961Z</time></trkpt><trkpt lat="43.90164408328619" lon="12.850128278700444"><ele>20.0</ele><time>2026-03-22T09:47:51.961Z</time></trkpt><trkpt lat="43.901689084621715" lon="12.850249287270715"><ele>20.0</ele><time>2026-03-22T09:47:52.961Z</time></trkpt><trkpt lat="43.901730981995726" lon="12.850342463313979"><ele>20.0</ele><time>2026-03-22T09:47:53.961Z</time></trkpt><trkpt lat="43.901790333990434" lon="12.850452254753991"><ele>21.8</ele><time>2026-03-22T09:47:55.961Z</time></trkpt><trkpt lat="43.901821331960434" lon="12.850616223482579"><ele>23.6</ele><time>2026-03-22T09:47:57.961Z</time></trkpt><trkpt lat="43.90182837004498" lon="12.85072690323725"><ele>25.4</ele><time>2026-03-22T09:47:58.961Z</time></trkpt><trkpt lat="43.90184243802079" lon="12.850850155380677"><ele>27.2</ele><time>2026-03-22T09:47:59.961Z</time></trkpt><trkpt lat="43.90187946625784" lon="12.850983671794888"><ele>29.0</ele><time>2026-03-22T09:48:00.961Z</time></trkpt><trkpt lat="43.901930560024226" lon="12.85113133544694"><ele>29.0</ele><time>2026-03-22T09:48:01.961Z</time></trkpt><trkpt lat="43.901964790451615" lon="12.85127841807611"><ele>29.0</ele><time>2026-03-22T09:48:02.961Z</time></trkpt><trkpt lat="43.9020099251217" lon="12.851409896185874"><ele>29.0</ele><time>2026-03-22T09:48:03.961Z</time></trkpt><trkpt lat="43.902025172187386" lon="12.851556041551017"><ele>29.0</ele><time>2026-03-22T09:48:04.961Z</time></trkpt><trkpt lat="43.902062846943366" lon="12.85170377758716"><ele>29.0</ele><time>2026-03-22T09:48:05.961Z</time></trkpt><trkpt lat="43.902099884531715" lon="12.851839775942777"><ele>27.6</ele><time>2026-03-22T09:48:06.961Z</time></trkpt><trkpt lat="43.902134140603955" lon="12.851982302240966"><ele>26.2</ele><time>2026-03-22T09:48:07.961Z</time></trkpt><trkpt lat="43.90216761740687" lon="12.852116958677057"><ele>24.8</ele><time>2026-03-22T09:48:08.961Z</time></trkpt><trkpt lat="43.90219887862935" lon="12.85225543894636"><ele>23.400000000000002</ele><time>2026-03-22T09:48:09.961Z</time></trkpt><trkpt lat="43.90223391048492" lon="12.852397994623374"><ele>22.0</ele><time>2026-03-22T09:48:10.961Z</time></trkpt><trkpt lat="43.90226602992246" lon="12.852545216330583"><ele>21.0</ele><time>2026-03-22T09:48:11.961Z</time></trkpt><trkpt lat="43.9023022492233" lon="12.852684739970437"><ele>20.0</ele><time>2026-03-22T09:48:12.961Z</time></trkpt><trkpt lat="43.902336386929164" lon="12.852811186473183"><ele>19.0</ele><time>2026-03-22T09:48:13.961Z</time></trkpt><trkpt lat="43.902370642262404" lon="12.852942039335304"><ele>18.0</ele><time>2026-03-22T09:48:14.961Z</time></trkpt><trkpt lat="43.90240023852627" lon="12.853059834136538"><ele>17.0</ele><time>2026-03-22T09:48:15.961Z</time></trkpt><trkpt lat="43.902422884456556" lon="12.853146876805761"><ele>17.0</ele><time>2026-03-22T09:48:16.961Z</time></trkpt><trkpt lat="43.902461707331526" lon="12.853303249855253"><ele>17.0</ele><time>2026-03-22T09:48:18.961Z</time></trkpt><trkpt lat="43.902495733675885" lon="12.853460250322101"><ele>17.0</ele><time>2026-03-22T09:48:20.961Z</time></trkpt><trkpt lat="43.90246392798193" lon="12.853580465541375"><ele>17.0</ele><time>2026-03-22T09:48:22.961Z</time></trkpt><trkpt lat="43.90234463901341" lon="12.853626935683073"><ele>16.6</ele><time>2026-03-22T09:48:24.961Z</time></trkpt><trkpt lat="43.90222918362717" lon="12.853712461033979"><ele>16.2</ele><time>2026-03-22T09:48:26.961Z</time></trkpt><trkpt lat="43.90215853382725" lon="12.853770558455526"><ele>15.8</ele><time>2026-03-22T09:48:27.961Z</time></trkpt><trkpt lat="43.902092835565576" lon="12.853824980970481"><ele>15.4</ele><time>2026-03-22T09:48:28.961Z</time></trkpt><trkpt lat="43.90203700254604" lon="12.8538721021235"><ele>15.0</ele><time>2026-03-22T09:48:29.961Z</time></trkpt><trkpt lat="43.9019368267475" lon="12.85395664710951"><ele>15.0</ele><time>2026-03-22T09:48:31.961Z</time></trkpt><trkpt lat="43.90183453906876" lon="12.854042160331527"><ele>15.0</ele><time>2026-03-22T09:48:33.961Z</time></trkpt><trkpt lat="43.90177033341363" lon="12.854093014477305"><ele>15.0</ele><time>2026-03-22T09:48:34.961Z</time></trkpt><trkpt lat="43.901707018999105" lon="12.854143800251634"><ele>15.0</ele><time>2026-03-22T09:48:35.961Z</time></trkpt><trkpt lat="43.90165083514087" lon="12.85418886690296"><ele>15.0</ele><time>2026-03-22T09:48:36.961Z</time></trkpt><trkpt lat="43.90158967393061" lon="12.85423816243492"><ele>15.0</ele><time>2026-03-22T09:48:37.961Z</time></trkpt><trkpt lat="43.90153330513251" lon="12.854284471916865"><ele>14.666666666666666</ele><time>2026-03-22T09:48:38.961Z</time></trkpt><trkpt lat="43.901472606492526" lon="12.854334335827028"><ele>14.333333333333332</ele><time>2026-03-22T09:48:39.961Z</time></trkpt><trkpt lat="43.90140291491663" lon="12.854391211555113"><ele>14.0</ele><time>2026-03-22T09:48:40.961Z</time></trkpt><trkpt lat="43.90133474595221" lon="12.854479927493582"><ele>13.666666666666666</ele><time>2026-03-22T09:48:41.961Z</time></trkpt><trkpt lat="43.901278268528436" lon="12.854579965185518"><ele>13.333333333333332</ele><time>2026-03-22T09:48:42.961Z</time></trkpt><trkpt lat="43.901233352476225" lon="12.854675557844127"><ele>13.0</ele><time>2026-03-22T09:48:43.961Z</time></trkpt><trkpt lat="43.90119430180288" lon="12.854754047181121"><ele>12.999999999999998</ele><time>2026-03-22T09:48:44.961Z</time></trkpt><trkpt lat="43.90114487065381" lon="12.854889039478786"><ele>13.0</ele><time>2026-03-22T09:48:46.961Z</time></trkpt><trkpt lat="43.90109253336111" lon="12.85499136127881"><ele>13.0</ele><time>2026-03-22T09:48:48.961Z</time></trkpt><trkpt lat="43.90104637145765" lon="12.855074835155913"><ele>13.0</ele><time>2026-03-22T09:48:50.961Z</time></trkpt><trkpt lat="43.901003132643694" lon="12.85514483752564"><ele>12.999999999999998</ele><time>2026-03-22T09:48:52.961Z</time></trkpt><trkpt lat="43.900941903134786" lon="12.855260542361838"><ele>13.0</ele><time>2026-03-22T09:48:55.961Z</time></trkpt><trkpt lat="43.900899452218354" lon="12.855332900445516"><ele>12.999999999999998</ele><time>2026-03-22T09:48:57.961Z</time></trkpt><trkpt lat="43.90085110169745" lon="12.85538959529871"><ele>13.0</ele><time>2026-03-22T09:49:02.958Z</time></trkpt><trkpt lat="43.90082703877192" lon="12.85554617846912"><ele>13.0</ele><time>2026-03-22T09:49:07.958Z</time></trkpt><trkpt lat="43.90086690480327" lon="12.855642275342786"><ele>13.0</ele><time>2026-03-22T09:49:08.958Z</time></trkpt><trkpt lat="43.90091645532078" lon="12.85573603561295"><ele>12.999999999999998</ele><time>2026-03-22T09:49:09.958Z</time></trkpt><trkpt lat="43.900984747899166" lon="12.85584223998474"><ele>13.0</ele><time>2026-03-22T09:49:10.958Z</time></trkpt><trkpt lat="43.90105409194136" lon="12.855959894063515"><ele>13.0</ele><time>2026-03-22T09:49:11.957Z</time></trkpt><trkpt lat="43.9011155940148" lon="12.856061405450008"><ele>13.0</ele><time>2026-03-22T09:49:12.958Z</time></trkpt><trkpt lat="43.9011776960631" lon="12.856166636020879"><ele>13.0</ele><time>2026-03-22T09:49:13.958Z</time></trkpt><trkpt lat="43.901242974841594" lon="12.856277912527071"><ele>13.0</ele><time>2026-03-22T09:49:14.958Z</time></trkpt><trkpt lat="43.90131024339158" lon="12.856387354868573"><ele>13.0</ele><time>2026-03-22T09:49:15.957Z</time></trkpt><trkpt lat="43.90138025430486" lon="12.856495372583096"><ele>13.0</ele><time>2026-03-22T09:49:16.957Z</time></trkpt><trkpt lat="43.90144170953395" lon="12.856599718151928"><ele>13.0</ele><time>2026-03-22T09:49:17.957Z</time></trkpt><trkpt lat="43.90150242017583" lon="12.8566896927241"><ele>13.0</ele><time>2026-03-22T09:49:18.957Z</time></trkpt><trkpt lat="43.90156357728558" lon="12.856778213870504"><ele>13.0</ele><time>2026-03-22T09:49:19.957Z</time></trkpt><trkpt lat="43.90162179394371" lon="12.856872653727555"><ele>13.0</ele><time>2026-03-22T09:49:20.957Z</time></trkpt><trkpt lat="43.9016745585192" lon="12.856967599924177"><ele>13.2</ele><time>2026-03-22T09:49:21.957Z</time></trkpt><trkpt lat="43.90172390998911" lon="12.857047159324068"><ele>13.4</ele><time>2026-03-22T09:49:22.957Z</time></trkpt><trkpt lat="43.90182036040956" lon="12.857149335659622"><ele>13.599999999999998</ele><time>2026-03-22T09:49:23.957Z</time></trkpt><trkpt lat="43.901830889154446" lon="12.857253872189093"><ele>13.799999999999999</ele><time>2026-03-22T09:49:24.957Z</time></trkpt><trkpt lat="43.90168787970694" lon="12.857356277801761"><ele>14.0</ele><time>2026-03-22T09:49:25.957Z</time></trkpt><trkpt lat="43.901630063556716" lon="12.857453507090211"><ele>14.0</ele><time>2026-03-22T09:49:26.957Z</time></trkpt><trkpt lat="43.90156987526698" lon="12.857561220582044"><ele>13.999999999999998</ele><time>2026-03-22T09:49:27.957Z</time></trkpt><trkpt lat="43.9015094559149" lon="12.857670538374318"><ele>13.999999999999998</ele><time>2026-03-22T09:49:28.957Z</time></trkpt><trkpt lat="43.90141019071242" lon="12.857743401678913"><ele>14.0</ele><time>2026-03-22T09:49:29.957Z</time></trkpt><trkpt lat="43.90134774492726" lon="12.857861364941886"><ele>14.0</ele><time>2026-03-22T09:49:30.957Z</time></trkpt><trkpt lat="43.90129594967485" lon="12.857973959261333"><ele>13.6</ele><time>2026-03-22T09:49:31.957Z</time></trkpt><trkpt lat="43.90127158686751" lon="12.858100304386321"><ele>13.2</ele><time>2026-03-22T09:49:32.957Z</time></trkpt><trkpt lat="43.9012218757914" lon="12.858199956500094"><ele>12.799999999999999</ele><time>2026-03-22T09:49:33.957Z</time></trkpt><trkpt lat="43.901173503670734" lon="12.85829562418702"><ele>12.399999999999999</ele><time>2026-03-22T09:49:34.957Z</time></trkpt><trkpt lat="43.901111894197264" lon="12.858374076289868"><ele>12.0</ele><time>2026-03-22T09:49:35.957Z</time></trkpt><trkpt lat="43.901050159733394" lon="12.858500296212021"><ele>11.999999999999998</ele><time>2026-03-22T09:49:37.957Z</time></trkpt><trkpt lat="43.90100155012827" lon="12.858578032652717"><ele>12.0</ele><time>2026-03-22T09:49:39.957Z</time></trkpt><trkpt lat="43.90093074133131" lon="12.8585526822978"><ele>12.0</ele><time>2026-03-22T09:49:40.957Z</time></trkpt><trkpt lat="43.90086471263429" lon="12.858532303010076"><ele>12.0</ele><time>2026-03-22T09:49:42.957Z</time></trkpt><trkpt lat="43.90079005430446" lon="12.858472767809586"><ele>12.0</ele><time>2026-03-22T09:49:45.957Z</time></trkpt><trkpt lat="43.900737308507054" lon="12.858407477440506"><ele>11.999999999999998</ele><time>2026-03-22T09:49:48.957Z</time></trkpt><trkpt lat="43.90068100141774" lon="12.858346917314327"><ele>12.0</ele><time>2026-03-22T09:49:50.957Z</time></trkpt><trkpt lat="43.90062214672541" lon="12.858294342958933"><ele>12.0</ele><time>2026-03-22T09:49:52.957Z</time></trkpt><trkpt lat="43.900550853959096" lon="12.858233095410617"><ele>12.0</ele><time>2026-03-22T09:49:55.957Z</time></trkpt><trkpt lat="43.90048732126219" lon="12.858172109750177"><ele>12.0</ele><time>2026-03-22T09:49:58.957Z</time></trkpt><trkpt lat="43.90044222792097" lon="12.858106944001168"><ele>12.0</ele><time>2026-03-22T09:50:01.957Z</time></trkpt><trkpt lat="43.900466673701466" lon="12.857980396189536"><ele>12.0</ele><time>2026-03-22T09:50:05.957Z</time></trkpt><trkpt lat="43.90049183773266" lon="12.857889911748586"><ele>12.0</ele><time>2026-03-22T09:50:08.957Z</time></trkpt><trkpt lat="43.90053930466747" lon="12.857811885578792"><ele>12.0</ele><time>2026-03-22T09:50:12.957Z</time></trkpt><trkpt lat="43.90057277401478" lon="12.857712620324902"><ele>12.0</ele><time>2026-03-22T09:50:16.957Z</time></trkpt><trkpt lat="43.900618534796635" lon="12.857624666881813"><ele>12.0</ele><time>2026-03-22T09:50:19.957Z</time></trkpt><trkpt lat="43.9005477261412" lon="12.857587911810514"><ele>12.0</ele><time>2026-03-22T09:53:04.96Z</time></trkpt><trkpt lat="43.90061260453288" lon="12.857571469126869"><ele>12.0</ele><time>2026-03-22T09:53:59.958Z</time></trkpt><trkpt lat="43.90062193210733" lon="12.857481952430637"><ele>12.0</ele><time>2026-03-22T09:54:51.958Z</time></trkpt><trkpt lat="43.90065429542947" lon="12.857604433142104"><ele>11.999999999999998</ele><time>2026-03-22T09:55:09.958Z</time></trkpt><trkpt lat="43.90065902596771" lon="12.85769502742889"><ele>12.0</ele><time>2026-03-22T09:55:46.955Z</time></trkpt><trkpt lat="43.900599186527764" lon="12.857740993369944"><ele>12.0</ele><time>2026-03-22T09:55:57.955Z</time></trkpt><trkpt lat="43.90050634668544" lon="12.85778848146007"><ele>12.0</ele><time>2026-03-22T09:56:58.954Z</time></trkpt><trkpt lat="43.900479320788854" lon="12.857867482970123"><ele>12.0</ele><time>2026-03-22T09:57:08.954Z</time></trkpt><trkpt lat="43.90044037045054" lon="12.857938955964954"><ele>11.999999999999998</ele><time>2026-03-22T09:57:15.954Z</time></trkpt><trkpt lat="43.900432275855835" lon="12.85804951840066"><ele>12.0</ele><time>2026-03-22T09:57:32.952Z</time></trkpt><trkpt lat="43.90038473556973" lon="12.858114241449755"><ele>11.999999999999998</ele><time>2026-03-22T09:58:16.952Z</time></trkpt><trkpt lat="43.90045067816028" lon="12.858160592979955"><ele>12.0</ele><time>2026-03-22T09:58:56.951Z</time></trkpt><trkpt lat="43.90041843868254" lon="12.858239154782726"><ele>12.0</ele><time>2026-03-22T09:59:37.949Z</time></trkpt><trkpt lat="43.900364180120356" lon="12.858313198283167"><ele>12.0</ele><time>2026-03-22T10:00:29.948Z</time></trkpt><trkpt lat="43.90030894234433" lon="12.858358541771596"><ele>12.0</ele><time>2026-03-22T10:01:35.947Z</time></trkpt><trkpt lat="43.90030697496959" lon="12.858496597977753"><ele>11.999999999999998</ele><time>2026-03-22T10:02:28.945Z</time></trkpt><trkpt lat="43.90029746423116" lon="12.85858388023545"><ele>12.0</ele><time>2026-03-22T10:03:02.945Z</time></trkpt><trkpt lat="43.90034239123519" lon="12.858484797413393"><ele>12.0</ele><time>2026-03-22T10:03:18.945Z</time></trkpt><trkpt lat="43.90034399166773" lon="12.858584673046886"><ele>12.0</ele><time>2026-03-22T10:04:02.94Z</time></trkpt><trkpt lat="43.900291140495476" lon="12.85869846410877"><ele>12.0</ele><time>2026-03-22T10:05:01.94Z</time></trkpt></trkseg><trkseg><trkpt lat="43.900530554595036" lon="12.857584137840059"><ele>13.666666666666668</ele><time>2026-03-22T10:56:30.955Z</time></trkpt><trkpt lat="43.90050662339308" lon="12.857698077648905"><ele>13.333333333333334</ele><time>2026-03-22T10:56:33.955Z</time></trkpt><trkpt lat="43.90047891072504" lon="12.857784820569444"><ele>13.0</ele><time>2026-03-22T10:56:37.955Z</time></trkpt><trkpt lat="43.900471631440006" lon="12.85788146837619"><ele>12.666666666666668</ele><time>2026-03-22T10:57:23.953Z</time></trkpt><trkpt lat="43.900403486045" lon="12.85799619762015"><ele>12.333333333333334</ele><time>2026-03-22T10:58:14.953Z</time></trkpt><trkpt lat="43.90041730392787" lon="12.85808985729362"><ele>12.0</ele><time>2026-03-22T10:58:18.953Z</time></trkpt><trkpt lat="43.90048435321224" lon="12.858169521984722"><ele>12.0</ele><time>2026-03-22T10:58:21.953Z</time></trkpt><trkpt lat="43.90055567198229" lon="12.85821894529892"><ele>12.0</ele><time>2026-03-22T10:58:24.953Z</time></trkpt><trkpt lat="43.900615148899526" lon="12.858264357601248"><ele>12.0</ele><time>2026-03-22T10:58:28.953Z</time></trkpt><trkpt lat="43.90068749143267" lon="12.858357906293687"><ele>12.0</ele><time>2026-03-22T10:58:38.953Z</time></trkpt><trkpt lat="43.90076474839476" lon="12.858435283073455"><ele>12.0</ele><time>2026-03-22T10:58:40.953Z</time></trkpt><trkpt lat="43.90081443848829" lon="12.85851567373408"><ele>12.0</ele><time>2026-03-22T10:58:42.953Z</time></trkpt><trkpt lat="43.900887014349145" lon="12.858606417553842"><ele>12.0</ele><time>2026-03-22T10:58:44.953Z</time></trkpt><trkpt lat="43.90088470883843" lon="12.858766223942705"><ele>12.0</ele><time>2026-03-22T10:58:46.953Z</time></trkpt><trkpt lat="43.90085068237511" lon="12.858878798677544"><ele>12.0</ele><time>2026-03-22T10:58:47.953Z</time></trkpt><trkpt lat="43.90078986893076" lon="12.859012862004397"><ele>12.0</ele><time>2026-03-22T10:58:48.953Z</time></trkpt><trkpt lat="43.90072441717951" lon="12.859135997122104"><ele>12.0</ele><time>2026-03-22T10:58:49.953Z</time></trkpt><trkpt lat="43.9006674737357" lon="12.859248746446859"><ele>12.0</ele><time>2026-03-22T10:58:50.953Z</time></trkpt><trkpt lat="43.90061750131548" lon="12.859345034918194"><ele>12.0</ele><time>2026-03-22T10:58:51.953Z</time></trkpt><trkpt lat="43.900573001924776" lon="12.859447335295252"><ele>12.0</ele><time>2026-03-22T10:58:52.953Z</time></trkpt><trkpt lat="43.90052330609542" lon="12.859563462301805"><ele>12.0</ele><time>2026-03-22T10:58:53.953Z</time></trkpt><trkpt lat="43.900476730836914" lon="12.859665829858592"><ele>12.0</ele><time>2026-03-22T10:58:54.953Z</time></trkpt><trkpt lat="43.90043177713786" lon="12.859753990369041"><ele>12.0</ele><time>2026-03-22T10:58:55.953Z</time></trkpt><trkpt lat="43.90039202792935" lon="12.8598440497047"><ele>12.0</ele><time>2026-03-22T10:58:56.953Z</time></trkpt><trkpt lat="43.90036293264735" lon="12.859924326242094"><ele>12.0</ele><time>2026-03-22T10:58:57.953Z</time></trkpt><trkpt lat="43.900335982556044" lon="12.860057075997043"><ele>12.0</ele><time>2026-03-22T10:58:59.953Z</time></trkpt><trkpt lat="43.900399904002796" lon="12.860182785958681"><ele>12.0</ele><time>2026-03-22T10:59:01.953Z</time></trkpt><trkpt lat="43.90050379804739" lon="12.860184029996866"><ele>12.0</ele><time>2026-03-22T10:59:03.953Z</time></trkpt><trkpt lat="43.90057890231058" lon="12.860055696930942"><ele>12.0</ele><time>2026-03-22T10:59:05.953Z</time></trkpt><trkpt lat="43.90060743398246" lon="12.859929384496702"><ele>12.0</ele><time>2026-03-22T10:59:06.953Z</time></trkpt><trkpt lat="43.9006451134991" lon="12.859788701116074"><ele>12.0</ele><time>2026-03-22T10:59:07.953Z</time></trkpt><trkpt lat="43.90069480491313" lon="12.859670014579404"><ele>12.0</ele><time>2026-03-22T10:59:08.953Z</time></trkpt><trkpt lat="43.90074050871998" lon="12.859567549202476"><ele>12.0</ele><time>2026-03-22T10:59:09.953Z</time></trkpt><trkpt lat="43.90078923321653" lon="12.859469569489878"><ele>12.0</ele><time>2026-03-22T10:59:10.953Z</time></trkpt><trkpt lat="43.90083918563248" lon="12.859365437052979"><ele>12.0</ele><time>2026-03-22T10:59:11.953Z</time></trkpt><trkpt lat="43.90088835462516" lon="12.859264084288961"><ele>12.0</ele><time>2026-03-22T10:59:12.95Z</time></trkpt><trkpt lat="43.90093437862016" lon="12.859162951676922"><ele>12.0</ele><time>2026-03-22T10:59:13.95Z</time></trkpt><trkpt lat="43.90097839165827" lon="12.859074593590258"><ele>12.0</ele><time>2026-03-22T10:59:14.95Z</time></trkpt><trkpt lat="43.90102807434612" lon="12.858986724698783"><ele>12.0</ele><time>2026-03-22T10:59:15.95Z</time></trkpt><trkpt lat="43.90107012053597" lon="12.858881778587865"><ele>12.0</ele><time>2026-03-22T10:59:16.949Z</time></trkpt><trkpt lat="43.90111703546842" lon="12.858777609530355"><ele>12.0</ele><time>2026-03-22T10:59:17.949Z</time></trkpt><trkpt lat="43.90116889017174" lon="12.858668550714787"><ele>12.0</ele><time>2026-03-22T10:59:18.95Z</time></trkpt><trkpt lat="43.901219060731904" lon="12.858563934519431"><ele>12.0</ele><time>2026-03-22T10:59:19.949Z</time></trkpt><trkpt lat="43.901268832004355" lon="12.858455158103505"><ele>12.0</ele><time>2026-03-22T10:59:20.949Z</time></trkpt><trkpt lat="43.901320741535486" lon="12.85835429869979"><ele>12.0</ele><time>2026-03-22T10:59:21.95Z</time></trkpt><trkpt lat="43.901368447006796" lon="12.858269366712719"><ele>12.0</ele><time>2026-03-22T10:59:22.949Z</time></trkpt><trkpt lat="43.901412075361115" lon="12.858193260416645"><ele>12.0</ele><time>2026-03-22T10:59:23.949Z</time></trkpt><trkpt lat="43.90150615420474" lon="12.858057506075143"><ele>12.0</ele><time>2026-03-22T10:59:25.949Z</time></trkpt><trkpt lat="43.90156936058419" lon="12.857998976334022"><ele>12.0</ele><time>2026-03-22T10:59:26.949Z</time></trkpt><trkpt lat="43.90163019665401" lon="12.85795643743805"><ele>12.0</ele><time>2026-03-22T10:59:27.949Z</time></trkpt><trkpt lat="43.90173242498224" lon="12.857913493159856"><ele>12.399999999999999</ele><time>2026-03-22T10:59:29.949Z</time></trkpt><trkpt lat="43.901858250080515" lon="12.857928917530717"><ele>12.799999999999999</ele><time>2026-03-22T10:59:31.949Z</time></trkpt><trkpt lat="43.90192850878659" lon="12.85795928875323"><ele>13.2</ele><time>2026-03-22T10:59:32.949Z</time></trkpt><trkpt lat="43.90199494876544" lon="12.857981881112005"><ele>13.6</ele><time>2026-03-22T10:59:33.949Z</time></trkpt><trkpt lat="43.902079193861894" lon="12.857977809022605"><ele>14.0</ele><time>2026-03-22T10:59:34.949Z</time></trkpt><trkpt lat="43.902177431173094" lon="12.85796404867516"><ele>14.0</ele><time>2026-03-22T10:59:35.949Z</time></trkpt><trkpt lat="43.90227504457948" lon="12.857969541651096"><ele>13.999999999999998</ele><time>2026-03-22T10:59:36.949Z</time></trkpt><trkpt lat="43.902376277488806" lon="12.85799812350612"><ele>13.999999999999998</ele><time>2026-03-22T10:59:37.949Z</time></trkpt><trkpt lat="43.90247712176212" lon="12.858048169636833"><ele>14.0</ele><time>2026-03-22T10:59:38.949Z</time></trkpt><trkpt lat="43.902568823186506" lon="12.858104428905973"><ele>14.0</ele><time>2026-03-22T10:59:39.949Z</time></trkpt><trkpt lat="43.902647872618545" lon="12.85816678127694"><ele>14.0</ele><time>2026-03-22T10:59:40.949Z</time></trkpt><trkpt lat="43.902714178117" lon="12.858225570094048"><ele>13.999999999999998</ele><time>2026-03-22T10:59:41.949Z</time></trkpt><trkpt lat="43.90276586201253" lon="12.85828622433718"><ele>13.999999999999998</ele><time>2026-03-22T10:59:42.949Z</time></trkpt><trkpt lat="43.902841981132376" lon="12.858389542567425"><ele>14.0</ele><time>2026-03-22T10:59:44.949Z</time></trkpt><trkpt lat="43.90291919948583" lon="12.858504210484712"><ele>14.0</ele><time>2026-03-22T10:59:46.949Z</time></trkpt><trkpt lat="43.90298221189038" lon="12.858605775527783"><ele>14.000000000000002</ele><time>2026-03-22T10:59:48.949Z</time></trkpt><trkpt lat="43.90304984355449" lon="12.85873967988025"><ele>14.0</ele><time>2026-03-22T10:59:50.949Z</time></trkpt><trkpt lat="43.90309040937315" lon="12.85883048488968"><ele>14.0</ele><time>2026-03-22T10:59:51.949Z</time></trkpt><trkpt lat="43.90312910426587" lon="12.858932348569054"><ele>14.0</ele><time>2026-03-22T10:59:52.949Z</time></trkpt><trkpt lat="43.90316303112076" lon="12.859022002773546"><ele>14.000000000000002</ele><time>2026-03-22T10:59:53.949Z</time></trkpt><trkpt lat="43.903201122430794" lon="12.85910514419664"><ele>14.0</ele><time>2026-03-22T10:59:54.949Z</time></trkpt><trkpt lat="43.903241964338065" lon="12.859196298463223"><ele>14.2</ele><time>2026-03-22T10:59:55.949Z</time></trkpt><trkpt lat="43.903279417856396" lon="12.859308069120639"><ele>14.399999999999999</ele><time>2026-03-22T10:59:56.949Z</time></trkpt><trkpt lat="43.903324498460435" lon="12.859423245693518"><ele>14.6</ele><time>2026-03-22T10:59:57.949Z</time></trkpt><trkpt lat="43.90336588519362" lon="12.859546467215832"><ele>14.8</ele><time>2026-03-22T10:59:58.949Z</time></trkpt><trkpt lat="43.90341528918378" lon="12.859670475529398"><ele>15.0</ele><time>2026-03-22T10:59:59.949Z</time></trkpt><trkpt lat="43.90345324031375" lon="12.85976760678876"><ele>15.0</ele><time>2026-03-22T11:00:00.949Z</time></trkpt><trkpt lat="43.903489357346345" lon="12.859868212478014"><ele>15.0</ele><time>2026-03-22T11:00:01.949Z</time></trkpt><trkpt lat="43.90353208895602" lon="12.859976233444433"><ele>15.0</ele><time>2026-03-22T11:00:02.949Z</time></trkpt><trkpt lat="43.90357645523441" lon="12.860088314406097"><ele>15.0</ele><time>2026-03-22T11:00:03.949Z</time></trkpt><trkpt lat="43.90362787112256" lon="12.860209455611521"><ele>15.0</ele><time>2026-03-22T11:00:04.949Z</time></trkpt><trkpt lat="43.90367541513746" lon="12.860325885465814"><ele>14.833333333333334</ele><time>2026-03-22T11:00:05.949Z</time></trkpt><trkpt lat="43.90371475755427" lon="12.860435349708293"><ele>14.666666666666668</ele><time>2026-03-22T11:00:06.949Z</time></trkpt><trkpt lat="43.90375139983352" lon="12.860532649473006"><ele>14.5</ele><time>2026-03-22T11:00:07.949Z</time></trkpt><trkpt lat="43.9037893782573" lon="12.860628156829291"><ele>14.333333333333334</ele><time>2026-03-22T11:00:08.949Z</time></trkpt><trkpt lat="43.90382687899204" lon="12.860739183753115"><ele>14.166666666666668</ele><time>2026-03-22T11:00:09.949Z</time></trkpt><trkpt lat="43.903868839491565" lon="12.860849238137884"><ele>14.0</ele><time>2026-03-22T11:00:10.949Z</time></trkpt><trkpt lat="43.903915376427" lon="12.860964466758658"><ele>13.6</ele><time>2026-03-22T11:00:11.949Z</time></trkpt><trkpt lat="43.90396137237575" lon="12.86108264989093"><ele>13.2</ele><time>2026-03-22T11:00:12.949Z</time></trkpt><trkpt lat="43.90401036014659" lon="12.861201797544544"><ele>12.799999999999999</ele><time>2026-03-22T11:00:13.949Z</time></trkpt><trkpt lat="43.90405341466062" lon="12.861324106171383"><ele>12.399999999999999</ele><time>2026-03-22T11:00:14.949Z</time></trkpt><trkpt lat="43.90410102607306" lon="12.861449688219272"><ele>12.0</ele><time>2026-03-22T11:00:15.949Z</time></trkpt><trkpt lat="43.904127439718046" lon="12.861582836767768"><ele>12.0</ele><time>2026-03-22T11:00:16.949Z</time></trkpt><trkpt lat="43.904169355548824" lon="12.86169216167822"><ele>12.0</ele><time>2026-03-22T11:00:17.949Z</time></trkpt><trkpt lat="43.90421030118784" lon="12.861798661168194"><ele>12.0</ele><time>2026-03-22T11:00:18.949Z</time></trkpt><trkpt lat="43.90424938542895" lon="12.861900318976991"><ele>12.0</ele><time>2026-03-22T11:00:19.949Z</time></trkpt><trkpt lat="43.90428188127409" lon="12.861984840441455"><ele>12.0</ele><time>2026-03-22T11:00:20.949Z</time></trkpt><trkpt lat="43.904317149755116" lon="12.862061004805069"><ele>12.0</ele><time>2026-03-22T11:00:21.949Z</time></trkpt><trkpt lat="43.904370485968236" lon="12.862206357549995"><ele>12.166666666666666</ele><time>2026-03-22T11:00:23.949Z</time></trkpt><trkpt lat="43.90442996153216" lon="12.86235907634174"><ele>12.333333333333332</ele><time>2026-03-22T11:00:25.949Z</time></trkpt><trkpt lat="43.90446143288077" lon="12.862436860436048"><ele>12.5</ele><time>2026-03-22T11:00:26.949Z</time></trkpt><trkpt lat="43.90449881578149" lon="12.862520766812603"><ele>12.666666666666666</ele><time>2026-03-22T11:00:27.949Z</time></trkpt><trkpt lat="43.90452920767869" lon="12.862603927459263"><ele>12.833333333333332</ele><time>2026-03-22T11:00:28.949Z</time></trkpt><trkpt lat="43.904564693965966" lon="12.862699147801957"><ele>13.0</ele><time>2026-03-22T11:00:29.949Z</time></trkpt><trkpt lat="43.90460073888873" lon="12.862797361673618"><ele>12.666666666666666</ele><time>2026-03-22T11:00:30.949Z</time></trkpt><trkpt lat="43.90463918775194" lon="12.862887747806905"><ele>12.333333333333332</ele><time>2026-03-22T11:00:31.949Z</time></trkpt><trkpt lat="43.90467426686376" lon="12.862983093268692"><ele>12.0</ele><time>2026-03-22T11:00:32.949Z</time></trkpt><trkpt lat="43.904705577344586" lon="12.86305989037829"><ele>11.666666666666666</ele><time>2026-03-22T11:00:33.949Z</time></trkpt><trkpt lat="43.904772075808154" lon="12.863215107357252"><ele>11.333333333333332</ele><time>2026-03-22T11:00:35.949Z</time></trkpt><trkpt lat="43.90480452891921" lon="12.863299147808732"><ele>11.0</ele><time>2026-03-22T11:00:36.949Z</time></trkpt><trkpt lat="43.90483809377385" lon="12.863393524257274"><ele>10.833333333333332</ele><time>2026-03-22T11:00:37.949Z</time></trkpt><trkpt lat="43.90487144407109" lon="12.863485074377673"><ele>10.666666666666666</ele><time>2026-03-22T11:00:38.949Z</time></trkpt><trkpt lat="43.904912470565385" lon="12.863582735033773"><ele>10.5</ele><time>2026-03-22T11:00:39.949Z</time></trkpt><trkpt lat="43.90494874724911" lon="12.863680032530176"><ele>10.333333333333334</ele><time>2026-03-22T11:00:40.949Z</time></trkpt><trkpt lat="43.9049932441122" lon="12.863774403865396"><ele>10.166666666666668</ele><time>2026-03-22T11:00:41.949Z</time></trkpt><trkpt lat="43.90502739524345" lon="12.863872314654305"><ele>10.0</ele><time>2026-03-22T11:00:42.949Z</time></trkpt><trkpt lat="43.90506815302734" lon="12.863976018069906"><ele>10.0</ele><time>2026-03-22T11:00:43.949Z</time></trkpt><trkpt lat="43.90510482788084" lon="12.86407990152825"><ele>10.0</ele><time>2026-03-22T11:00:44.949Z</time></trkpt><trkpt lat="43.90514694708224" lon="12.86418457586863"><ele>10.0</ele><time>2026-03-22T11:00:45.949Z</time></trkpt><trkpt lat="43.90519012516014" lon="12.864297859177777"><ele>10.0</ele><time>2026-03-22T11:00:46.949Z</time></trkpt><trkpt lat="43.905234366927004" lon="12.864415395338296"><ele>10.0</ele><time>2026-03-22T11:00:47.949Z</time></trkpt><trkpt lat="43.905276196129016" lon="12.864524013995885"><ele>10.0</ele><time>2026-03-22T11:00:48.949Z</time></trkpt><trkpt lat="43.90532172334948" lon="12.864637971439082"><ele>10.166666666666668</ele><time>2026-03-22T11:00:49.949Z</time></trkpt><trkpt lat="43.90536504014335" lon="12.864746050550377"><ele>10.333333333333334</ele><time>2026-03-22T11:00:50.949Z</time></trkpt><trkpt lat="43.90540890691536" lon="12.864853160359939"><ele>10.5</ele><time>2026-03-22T11:00:51.949Z</time></trkpt><trkpt lat="43.90544556018864" lon="12.864968512642202"><ele>10.666666666666666</ele><time>2026-03-22T11:00:52.949Z</time></trkpt><trkpt lat="43.90546392135877" lon="12.865076206272041"><ele>10.833333333333332</ele><time>2026-03-22T11:00:53.949Z</time></trkpt><trkpt lat="43.905459786260046" lon="12.865176147871331"><ele>11.0</ele><time>2026-03-22T11:00:54.949Z</time></trkpt><trkpt lat="43.90543552518243" lon="12.865272126269815"><ele>11.0</ele><time>2026-03-22T11:00:55.949Z</time></trkpt><trkpt lat="43.90540083072616" lon="12.865378916863193"><ele>11.0</ele><time>2026-03-22T11:00:56.949Z</time></trkpt><trkpt lat="43.90536393063548" lon="12.865488903833832"><ele>11.0</ele><time>2026-03-22T11:00:57.949Z</time></trkpt><trkpt lat="43.905338484804" lon="12.865603459678383"><ele>11.0</ele><time>2026-03-22T11:00:58.949Z</time></trkpt><trkpt lat="43.90534158836284" lon="12.865730561326478"><ele>11.0</ele><time>2026-03-22T11:00:59.949Z</time></trkpt><trkpt lat="43.90537822386854" lon="12.865845950251416"><ele>11.0</ele><time>2026-03-22T11:01:00.949Z</time></trkpt><trkpt lat="43.90543616375972" lon="12.865942870277388"><ele>11.0</ele><time>2026-03-22T11:01:01.949Z</time></trkpt><trkpt lat="43.905501076334474" lon="12.86600862207376"><ele>11.0</ele><time>2026-03-22T11:01:02.949Z</time></trkpt><trkpt lat="43.90556833024147" lon="12.8660310366916"><ele>11.0</ele><time>2026-03-22T11:01:03.949Z</time></trkpt><trkpt lat="43.90568842063405" lon="12.866022198713777"><ele>11.0</ele><time>2026-03-22T11:01:05.949Z</time></trkpt><trkpt lat="43.905788105381085" lon="12.865966996273112"><ele>11.0</ele><time>2026-03-22T11:01:07.949Z</time></trkpt><trkpt lat="43.90584167818251" lon="12.865911384370342"><ele>11.0</ele><time>2026-03-22T11:01:08.95Z</time></trkpt><trkpt lat="43.90588821164114" lon="12.865831810545433"><ele>11.0</ele><time>2026-03-22T11:01:09.95Z</time></trkpt><trkpt lat="43.905919589175646" lon="12.865728843270709"><ele>11.0</ele><time>2026-03-22T11:01:10.95Z</time></trkpt><trkpt lat="43.90593508937386" lon="12.865616639387488"><ele>11.0</ele><time>2026-03-22T11:01:11.95Z</time></trkpt><trkpt lat="43.905938766933666" lon="12.86549207740971"><ele>11.0</ele><time>2026-03-22T11:01:12.95Z</time></trkpt><trkpt lat="43.905926914572" lon="12.865356748330145"><ele>11.0</ele><time>2026-03-22T11:01:13.95Z</time></trkpt><trkpt lat="43.90592310148395" lon="12.86524153656655"><ele>11.0</ele><time>2026-03-22T11:01:14.95Z</time></trkpt><trkpt lat="43.90593186141005" lon="12.865106597310575"><ele>11.0</ele><time>2026-03-22T11:01:15.95Z</time></trkpt><trkpt lat="43.90594959207548" lon="12.86498346099872"><ele>11.0</ele><time>2026-03-22T11:01:16.95Z</time></trkpt><trkpt lat="43.90596004806603" lon="12.864847431734955"><ele>11.0</ele><time>2026-03-22T11:01:17.95Z</time></trkpt><trkpt lat="43.90596870010292" lon="12.864706994292924"><ele>11.0</ele><time>2026-03-22T11:01:18.947Z</time></trkpt><trkpt lat="43.90597897968867" lon="12.864572503456596"><ele>11.0</ele><time>2026-03-22T11:01:19.946Z</time></trkpt><trkpt lat="43.905986614130896" lon="12.86444086712254"><ele>11.0</ele><time>2026-03-22T11:01:20.946Z</time></trkpt><trkpt lat="43.90600020443689" lon="12.864306883616543"><ele>11.0</ele><time>2026-03-22T11:01:21.947Z</time></trkpt><trkpt lat="43.90601681378283" lon="12.864179128935305"><ele>11.0</ele><time>2026-03-22T11:01:22.947Z</time></trkpt><trkpt lat="43.90602834087981" lon="12.864046840343672"><ele>11.0</ele><time>2026-03-22T11:01:23.947Z</time></trkpt><trkpt lat="43.906039266521404" lon="12.863927060645342"><ele>11.0</ele><time>2026-03-22T11:01:24.947Z</time></trkpt><trkpt lat="43.906050385032835" lon="12.863790435745603"><ele>11.200000000000001</ele><time>2026-03-22T11:01:25.946Z</time></trkpt><trkpt lat="43.90606884452367" lon="12.863646271155641"><ele>11.4</ele><time>2026-03-22T11:01:26.946Z</time></trkpt><trkpt lat="43.90608605729201" lon="12.863501823239647"><ele>11.6</ele><time>2026-03-22T11:01:27.946Z</time></trkpt><trkpt lat="43.90610182638772" lon="12.863343944961308"><ele>11.8</ele><time>2026-03-22T11:01:28.946Z</time></trkpt><trkpt lat="43.9061195098375" lon="12.863197554551817"><ele>12.0</ele><time>2026-03-22T11:01:29.946Z</time></trkpt><trkpt lat="43.906131382337705" lon="12.863049968053753"><ele>12.399999999999999</ele><time>2026-03-22T11:01:30.947Z</time></trkpt><trkpt lat="43.9061326937112" lon="12.862921303363395"><ele>12.799999999999999</ele><time>2026-03-22T11:01:31.946Z</time></trkpt><trkpt lat="43.90614498420272" lon="12.862816681281723"><ele>13.2</ele><time>2026-03-22T11:01:32.946Z</time></trkpt><trkpt lat="43.90615672198451" lon="12.862689887398043"><ele>13.6</ele><time>2026-03-22T11:01:33.946Z</time></trkpt><trkpt lat="43.90617356175289" lon="12.86255349037955"><ele>14.0</ele><time>2026-03-22T11:01:34.946Z</time></trkpt><trkpt lat="43.90618703202103" lon="12.862415200695585"><ele>14.0</ele><time>2026-03-22T11:01:35.946Z</time></trkpt><trkpt lat="43.90620645972503" lon="12.862290145263646"><ele>14.0</ele><time>2026-03-22T11:01:36.946Z</time></trkpt><trkpt lat="43.9062219851859" lon="12.862180438093631"><ele>14.0</ele><time>2026-03-22T11:01:37.946Z</time></trkpt><trkpt lat="43.906232983355245" lon="12.862087115672406"><ele>14.0</ele><time>2026-03-22T11:01:38.946Z</time></trkpt><trkpt lat="43.906239370790445" lon="12.861996135287315"><ele>14.0</ele><time>2026-03-22T11:01:39.946Z</time></trkpt><trkpt lat="43.9062540702235" lon="12.861901063349773"><ele>14.0</ele><time>2026-03-22T11:01:40.946Z</time></trkpt><trkpt lat="43.90627684460956" lon="12.861809584573383"><ele>14.0</ele><time>2026-03-22T11:01:41.946Z</time></trkpt><trkpt lat="43.9063008728766" lon="12.861720875191267"><ele>14.142857142857142</ele><time>2026-03-22T11:01:42.946Z</time></trkpt><trkpt lat="43.90633056795099" lon="12.861643247132147"><ele>14.285714285714285</ele><time>2026-03-22T11:01:43.946Z</time></trkpt><trkpt lat="43.90637399206347" lon="12.861571198348365"><ele>14.428571428571429</ele><time>2026-03-22T11:01:44.946Z</time></trkpt><trkpt lat="43.90642980062558" lon="12.861513658526148"><ele>14.571428571428571</ele><time>2026-03-22T11:01:45.946Z</time></trkpt><trkpt lat="43.9064953623811" lon="12.86147068918469"><ele>14.714285714285714</ele><time>2026-03-22T11:01:46.946Z</time></trkpt><trkpt lat="43.90657180508469" lon="12.861448450825256"><ele>14.857142857142858</ele><time>2026-03-22T11:01:47.946Z</time></trkpt><trkpt lat="43.90665513038907" lon="12.861451908353365"><ele>15.0</ele><time>2026-03-22T11:01:48.946Z</time></trkpt><trkpt lat="43.9067384632623" lon="12.86150873865714"><ele>16.5</ele><time>2026-03-22T11:01:49.946Z</time></trkpt><trkpt lat="43.90681781481161" lon="12.861597150308324"><ele>18.0</ele><time>2026-03-22T11:01:50.946Z</time></trkpt><trkpt lat="43.90690171001787" lon="12.861712940864514"><ele>19.5</ele><time>2026-03-22T11:01:51.946Z</time></trkpt><trkpt lat="43.90698929729558" lon="12.861854651730745"><ele>21.0</ele><time>2026-03-22T11:01:52.946Z</time></trkpt><trkpt lat="43.907068239866874" lon="12.86199617112229"><ele>21.0</ele><time>2026-03-22T11:01:53.946Z</time></trkpt><trkpt lat="43.907144253934334" lon="12.862132813561763"><ele>21.0</ele><time>2026-03-22T11:01:54.946Z</time></trkpt><trkpt lat="43.9072114859247" lon="12.862262909498444"><ele>21.0</ele><time>2026-03-22T11:01:55.946Z</time></trkpt><trkpt lat="43.907273420798475" lon="12.862410306051078"><ele>21.0</ele><time>2026-03-22T11:01:56.946Z</time></trkpt><trkpt lat="43.90733469170633" lon="12.86256633915387"><ele>20.0</ele><time>2026-03-22T11:01:57.946Z</time></trkpt><trkpt lat="43.9073906142776" lon="12.862718824145018"><ele>19.0</ele><time>2026-03-22T11:01:58.946Z</time></trkpt><trkpt lat="43.907443734875045" lon="12.862869571011432"><ele>18.0</ele><time>2026-03-22T11:01:59.946Z</time></trkpt><trkpt lat="43.907496464364044" lon="12.863031803672877"><ele>17.0</ele><time>2026-03-22T11:02:00.946Z</time></trkpt><trkpt lat="43.90754502206698" lon="12.863200689595287"><ele>21.5</ele><time>2026-03-22T11:02:01.946Z</time></trkpt><trkpt lat="43.907600287680985" lon="12.863365270449183"><ele>26.0</ele><time>2026-03-22T11:02:02.946Z</time></trkpt><trkpt lat="43.907648744724725" lon="12.863527658907998"><ele>30.5</ele><time>2026-03-22T11:02:03.946Z</time></trkpt><trkpt lat="43.90770163560904" lon="12.863668918334987"><ele>35.0</ele><time>2026-03-22T11:02:04.946Z</time></trkpt><trkpt lat="43.907749548985905" lon="12.863802607202524"><ele>35.0</ele><time>2026-03-22T11:02:05.946Z</time></trkpt><trkpt lat="43.907789602398076" lon="12.863930973852824"><ele>35.0</ele><time>2026-03-22T11:02:06.946Z</time></trkpt><trkpt lat="43.907830543671885" lon="12.864057621748593"><ele>35.0</ele><time>2026-03-22T11:02:07.946Z</time></trkpt><trkpt lat="43.907872452573024" lon="12.864193441378223"><ele>35.0</ele><time>2026-03-22T11:02:08.946Z</time></trkpt><trkpt lat="43.907916948161535" lon="12.864336780492918"><ele>35.0</ele><time>2026-03-22T11:02:09.946Z</time></trkpt><trkpt lat="43.907964894275075" lon="12.864481503678762"><ele>33.4</ele><time>2026-03-22T11:02:10.946Z</time></trkpt><trkpt lat="43.90800980988874" lon="12.864625893139793"><ele>31.8</ele><time>2026-03-22T11:02:11.946Z</time></trkpt><trkpt lat="43.90805143544001" lon="12.864768697045815"><ele>30.200000000000003</ele><time>2026-03-22T11:02:12.946Z</time></trkpt><trkpt lat="43.90806239082624" lon="12.864926513261398"><ele>28.6</ele><time>2026-03-22T11:02:13.946Z</time></trkpt><trkpt lat="43.9080984179395" lon="12.865069781541258"><ele>27.0</ele><time>2026-03-22T11:02:14.946Z</time></trkpt><trkpt lat="43.908125627473595" lon="12.865223241893046"><ele>26.75</ele><time>2026-03-22T11:02:15.946Z</time></trkpt><trkpt lat="43.90814637984521" lon="12.865384572605667"><ele>26.5</ele><time>2026-03-22T11:02:16.946Z</time></trkpt><trkpt lat="43.90815810739603" lon="12.86554423822917"><ele>26.25</ele><time>2026-03-22T11:02:17.946Z</time></trkpt><trkpt lat="43.90816024993997" lon="12.865703972574368"><ele>26.0</ele><time>2026-03-22T11:02:18.946Z</time></trkpt><trkpt lat="43.90815804553424" lon="12.865875487829237"><ele>26.5</ele><time>2026-03-22T11:02:19.946Z</time></trkpt><trkpt lat="43.90815499254502" lon="12.866042411542393"><ele>27.0</ele><time>2026-03-22T11:02:20.946Z</time></trkpt><trkpt lat="43.908151595060495" lon="12.866192347761446"><ele>27.5</ele><time>2026-03-22T11:02:21.946Z</time></trkpt><trkpt lat="43.908147327778536" lon="12.866357524275683"><ele>28.0</ele><time>2026-03-22T11:02:22.946Z</time></trkpt><trkpt lat="43.90814301530722" lon="12.866524252116795"><ele>28.0</ele><time>2026-03-22T11:02:23.946Z</time></trkpt><trkpt lat="43.908138287956454" lon="12.866707019828821"><ele>28.0</ele><time>2026-03-22T11:02:24.946Z</time></trkpt><trkpt lat="43.908133525647685" lon="12.866882735993501"><ele>28.0</ele><time>2026-03-22T11:02:25.946Z</time></trkpt><trkpt lat="43.908128910999345" lon="12.867052404027103"><ele>28.0</ele><time>2026-03-22T11:02:26.946Z</time></trkpt><trkpt lat="43.908125726846166" lon="12.86721837892221"><ele>27.4</ele><time>2026-03-22T11:02:27.946Z</time></trkpt><trkpt lat="43.90812435250292" lon="12.867376121229533"><ele>26.799999999999997</ele><time>2026-03-22T11:02:28.946Z</time></trkpt><trkpt lat="43.90813647807471" lon="12.867540870473789"><ele>26.2</ele><time>2026-03-22T11:02:29.946Z</time></trkpt><trkpt lat="43.90814958926085" lon="12.86767860873033"><ele>25.6</ele><time>2026-03-22T11:02:30.946Z</time></trkpt><trkpt lat="43.90816183405787" lon="12.867775424304998"><ele>25.0</ele><time>2026-03-22T11:02:31.946Z</time></trkpt><trkpt lat="43.908181259702346" lon="12.867900805544936"><ele>24.000000000000004</ele><time>2026-03-22T11:02:33.946Z</time></trkpt><trkpt lat="43.90819955482753" lon="12.867991949952806"><ele>23.0</ele><time>2026-03-22T11:02:35.946Z</time></trkpt><trkpt lat="43.908222921362565" lon="12.868091895704364"><ele>22.0</ele><time>2026-03-22T11:02:37.946Z</time></trkpt><trkpt lat="43.90828261463751" lon="12.868148749345195"><ele>21.0</ele><time>2026-03-22T11:02:39.946Z</time></trkpt><trkpt lat="43.90832091369137" lon="12.868265457344926"><ele>20.0</ele><time>2026-03-22T11:02:42.946Z</time></trkpt><trkpt lat="43.90835474353639" lon="12.868362838554829"><ele>19.0</ele><time>2026-03-22T11:02:44.946Z</time></trkpt><trkpt lat="43.908388717136255" lon="12.868480009671284"><ele>18.2</ele><time>2026-03-22T11:02:46.946Z</time></trkpt><trkpt lat="43.908427654728804" lon="12.868559978075954"><ele>17.4</ele><time>2026-03-22T11:02:48.946Z</time></trkpt><trkpt lat="43.90846025605888" lon="12.86866102772844"><ele>16.6</ele><time>2026-03-22T11:02:50.946Z</time></trkpt><trkpt lat="43.90849913823824" lon="12.868796641567886"><ele>15.8</ele><time>2026-03-22T11:02:52.946Z</time></trkpt><trkpt lat="43.90855820653366" lon="12.868947066213407"><ele>15.0</ele><time>2026-03-22T11:02:54.946Z</time></trkpt><trkpt lat="43.908608508169884" lon="12.869039301064156"><ele>15.0</ele><time>2026-03-22T11:02:55.946Z</time></trkpt><trkpt lat="43.908668180658914" lon="12.869135420114144"><ele>15.0</ele><time>2026-03-22T11:02:56.946Z</time></trkpt><trkpt lat="43.90871891547635" lon="12.869234792981956"><ele>15.0</ele><time>2026-03-22T11:02:57.946Z</time></trkpt><trkpt lat="43.90876598991208" lon="12.869341050900601"><ele>15.0</ele><time>2026-03-22T11:02:58.946Z</time></trkpt><trkpt lat="43.908805608464284" lon="12.869455348645218"><ele>15.0</ele><time>2026-03-22T11:02:59.946Z</time></trkpt><trkpt lat="43.908841723797075" lon="12.869568300261365"><ele>15.0</ele><time>2026-03-22T11:03:00.946Z</time></trkpt><trkpt lat="43.908874978581835" lon="12.869670591023409"><ele>15.0</ele><time>2026-03-22T11:03:01.946Z</time></trkpt><trkpt lat="43.90890336286855" lon="12.869765532033492"><ele>15.0</ele><time>2026-03-22T11:03:02.946Z</time></trkpt><trkpt lat="43.908926549690065" lon="12.869853975043911"><ele>15.0</ele><time>2026-03-22T11:03:03.946Z</time></trkpt><trkpt lat="43.9089792774921" lon="12.870006147666055"><ele>15.0</ele><time>2026-03-22T11:03:05.946Z</time></trkpt><trkpt lat="43.909008357082925" lon="12.87010450221898"><ele>15.0</ele><time>2026-03-22T11:03:06.946Z</time></trkpt><trkpt lat="43.909037196325066" lon="12.87021052331904"><ele>15.0</ele><time>2026-03-22T11:03:07.946Z</time></trkpt><trkpt lat="43.90907061871939" lon="12.870314772894158"><ele>15.4</ele><time>2026-03-22T11:03:08.946Z</time></trkpt><trkpt lat="43.909106644828874" lon="12.870431083662664"><ele>15.8</ele><time>2026-03-22T11:03:09.946Z</time></trkpt><trkpt lat="43.90913880837602" lon="12.87054973057957"><ele>16.2</ele><time>2026-03-22T11:03:10.946Z</time></trkpt><trkpt lat="43.90917685713355" lon="12.870692243484795"><ele>16.6</ele><time>2026-03-22T11:03:11.946Z</time></trkpt><trkpt lat="43.90922159877157" lon="12.87084941962509"><ele>17.0</ele><time>2026-03-22T11:03:12.946Z</time></trkpt><trkpt lat="43.9092691644092" lon="12.871009113227942"><ele>16.0</ele><time>2026-03-22T11:03:13.946Z</time></trkpt><trkpt lat="43.9093184249979" lon="12.87117134081995"><ele>15.0</ele><time>2026-03-22T11:03:14.946Z</time></trkpt><trkpt lat="43.90937058170823" lon="12.871332228197893"><ele>14.0</ele><time>2026-03-22T11:03:15.946Z</time></trkpt><trkpt lat="43.90942793747663" lon="12.871468476022757"><ele>13.0</ele><time>2026-03-22T11:03:16.946Z</time></trkpt><trkpt lat="43.90949877812736" lon="12.87158633970212"><ele>13.0</ele><time>2026-03-22T11:03:17.946Z</time></trkpt><trkpt lat="43.909576251286985" lon="12.871686145829441"><ele>13.0</ele><time>2026-03-22T11:03:18.946Z</time></trkpt><trkpt lat="43.9096491513121" lon="12.871785725038908"><ele>13.0</ele><time>2026-03-22T11:03:19.947Z</time></trkpt><trkpt lat="43.90972452643982" lon="12.871879857666535"><ele>13.0</ele><time>2026-03-22T11:03:20.947Z</time></trkpt><trkpt lat="43.90977714229004" lon="12.87199313662878"><ele>13.0</ele><time>2026-03-22T11:03:21.947Z</time></trkpt><trkpt lat="43.90983278083965" lon="12.872115933835031"><ele>13.0</ele><time>2026-03-22T11:03:22.947Z</time></trkpt><trkpt lat="43.90987747561611" lon="12.872251162700763"><ele>13.0</ele><time>2026-03-22T11:03:23.947Z</time></trkpt><trkpt lat="43.909909135063685" lon="12.872395144221992"><ele>13.0</ele><time>2026-03-22T11:03:24.944Z</time></trkpt><trkpt lat="43.909928147768284" lon="12.872556658389566"><ele>13.0</ele><time>2026-03-22T11:03:25.944Z</time></trkpt><trkpt lat="43.909956159433094" lon="12.872709896390708"><ele>13.0</ele><time>2026-03-22T11:03:26.944Z</time></trkpt><trkpt lat="43.90995247899058" lon="12.872860178825974"><ele>13.0</ele><time>2026-03-22T11:03:27.944Z</time></trkpt><trkpt lat="43.90997457220681" lon="12.872995687906613"><ele>13.0</ele><time>2026-03-22T11:03:28.944Z</time></trkpt><trkpt lat="43.909981516719434" lon="12.87312627265879"><ele>13.0</ele><time>2026-03-22T11:03:29.944Z</time></trkpt><trkpt lat="43.90999070785075" lon="12.873254869411928"><ele>13.0</ele><time>2026-03-22T11:03:30.944Z</time></trkpt><trkpt lat="43.91000306650411" lon="12.873380584314882"><ele>13.0</ele><time>2026-03-22T11:03:31.944Z</time></trkpt><trkpt lat="43.91001317963545" lon="12.8735039853552"><ele>12.666666666666666</ele><time>2026-03-22T11:03:32.944Z</time></trkpt><trkpt lat="43.90999836286769" lon="12.873627128033142"><ele>12.333333333333332</ele><time>2026-03-22T11:03:33.943Z</time></trkpt><trkpt lat="43.91001489631059" lon="12.8737472456326"><ele>12.0</ele><time>2026-03-22T11:03:34.944Z</time></trkpt><trkpt lat="43.91000899726212" lon="12.873870515968182"><ele>11.666666666666666</ele><time>2026-03-22T11:03:35.944Z</time></trkpt><trkpt lat="43.91003060128369" lon="12.873988455691961"><ele>11.333333333333332</ele><time>2026-03-22T11:03:36.943Z</time></trkpt><trkpt lat="43.910040507166926" lon="12.874113109098639"><ele>11.0</ele><time>2026-03-22T11:03:37.944Z</time></trkpt><trkpt lat="43.91005247177294" lon="12.874237728042818"><ele>10.833333333333332</ele><time>2026-03-22T11:03:38.944Z</time></trkpt><trkpt lat="43.91006352181443" lon="12.874379277832418"><ele>10.666666666666666</ele><time>2026-03-22T11:03:39.944Z</time></trkpt><trkpt lat="43.9100740763305" lon="12.874505353689521"><ele>10.5</ele><time>2026-03-22T11:03:40.944Z</time></trkpt><trkpt lat="43.910088486553796" lon="12.874611558138302"><ele>10.333333333333334</ele><time>2026-03-22T11:03:41.944Z</time></trkpt><trkpt lat="43.91010298742285" lon="12.874715512446109"><ele>10.166666666666668</ele><time>2026-03-22T11:03:42.944Z</time></trkpt><trkpt lat="43.91012764614378" lon="12.874814115492239"><ele>10.0</ele><time>2026-03-22T11:03:43.944Z</time></trkpt><trkpt lat="43.91014603116353" lon="12.87492210807302"><ele>10.666666666666668</ele><time>2026-03-22T11:03:44.944Z</time></trkpt><trkpt lat="43.91016767839342" lon="12.87501677813234"><ele>11.333333333333334</ele><time>2026-03-22T11:03:45.944Z</time></trkpt><trkpt lat="43.91020799195525" lon="12.875093236065792"><ele>12.0</ele><time>2026-03-22T11:03:46.944Z</time></trkpt><trkpt lat="43.91029805566275" lon="12.875213158377612"><ele>12.666666666666668</ele><time>2026-03-22T11:03:48.944Z</time></trkpt><trkpt lat="43.91036423681567" lon="12.87531043046288"><ele>13.333333333333334</ele><time>2026-03-22T11:03:50.944Z</time></trkpt><trkpt lat="43.91039067470014" lon="12.87539445562989"><ele>14.0</ele><time>2026-03-22T11:03:51.944Z</time></trkpt><trkpt lat="43.91042428732435" lon="12.875468890841091"><ele>14.166666666666668</ele><time>2026-03-22T11:03:52.944Z</time></trkpt><trkpt lat="43.91046127975445" lon="12.875544927115472"><ele>14.333333333333334</ele><time>2026-03-22T11:03:53.944Z</time></trkpt><trkpt lat="43.910495959923985" lon="12.875628941641228"><ele>14.5</ele><time>2026-03-22T11:03:54.944Z</time></trkpt><trkpt lat="43.9105188862588" lon="12.875718724690113"><ele>14.666666666666668</ele><time>2026-03-22T11:03:55.944Z</time></trkpt><trkpt lat="43.91054834670711" lon="12.875817582345414"><ele>14.833333333333334</ele><time>2026-03-22T11:03:56.944Z</time></trkpt><trkpt lat="43.910562029045" lon="12.875930802842502"><ele>15.0</ele><time>2026-03-22T11:03:57.944Z</time></trkpt><trkpt lat="43.910575425012645" lon="12.87605061441556"><ele>15.2</ele><time>2026-03-22T11:03:58.944Z</time></trkpt><trkpt lat="43.91057411128872" lon="12.876181066612183"><ele>15.4</ele><time>2026-03-22T11:03:59.944Z</time></trkpt><trkpt lat="43.91057130394806" lon="12.87631311332188"><ele>15.600000000000001</ele><time>2026-03-22T11:04:00.944Z</time></trkpt><trkpt lat="43.91058006441042" lon="12.876444589736616"><ele>15.8</ele><time>2026-03-22T11:04:01.944Z</time></trkpt><trkpt lat="43.91059442434039" lon="12.876581636328448"><ele>16.0</ele><time>2026-03-22T11:04:02.944Z</time></trkpt><trkpt lat="43.91060848396252" lon="12.876720149101677"><ele>16.400000000000002</ele><time>2026-03-22T11:04:03.944Z</time></trkpt><trkpt lat="43.910622591021266" lon="12.876868383813504"><ele>16.8</ele><time>2026-03-22T11:04:04.944Z</time></trkpt><trkpt lat="43.91063951388339" lon="12.877010331351157"><ele>17.200000000000003</ele><time>2026-03-22T11:04:05.944Z</time></trkpt><trkpt lat="43.91065377845398" lon="12.877147429059805"><ele>17.6</ele><time>2026-03-22T11:04:06.944Z</time></trkpt><trkpt lat="43.91066854058551" lon="12.877285340148351"><ele>18.0</ele><time>2026-03-22T11:04:07.944Z</time></trkpt><trkpt lat="43.91068872705401" lon="12.877420644868183"><ele>18.0</ele><time>2026-03-22T11:04:08.944Z</time></trkpt><trkpt lat="43.91069411293126" lon="12.877568262321233"><ele>18.0</ele><time>2026-03-22T11:04:09.944Z</time></trkpt><trkpt lat="43.9107113500037" lon="12.877704200196773"><ele>18.0</ele><time>2026-03-22T11:04:10.944Z</time></trkpt><trkpt lat="43.91071507519123" lon="12.877839974747527"><ele>18.0</ele><time>2026-03-22T11:04:11.944Z</time></trkpt><trkpt lat="43.910713173090464" lon="12.877969264671766"><ele>18.0</ele><time>2026-03-22T11:04:12.944Z</time></trkpt><trkpt lat="43.9107109433748" lon="12.878093654047"><ele>18.166666666666668</ele><time>2026-03-22T11:04:13.944Z</time></trkpt><trkpt lat="43.910648307470325" lon="12.87821509865854"><ele>18.333333333333332</ele><time>2026-03-22T11:04:14.944Z</time></trkpt><trkpt lat="43.91064968330961" lon="12.878331261708558"><ele>18.5</ele><time>2026-03-22T11:04:15.944Z</time></trkpt><trkpt lat="43.91065161477352" lon="12.878450634078263"><ele>18.666666666666664</ele><time>2026-03-22T11:04:16.944Z</time></trkpt><trkpt lat="43.91065348995734" lon="12.878566528169241"><ele>18.833333333333332</ele><time>2026-03-22T11:04:17.944Z</time></trkpt><trkpt lat="43.910655422936635" lon="12.878685994425256"><ele>19.0</ele><time>2026-03-22T11:04:18.944Z</time></trkpt><trkpt lat="43.91065745874882" lon="12.878811816040082"><ele>19.2</ele><time>2026-03-22T11:04:19.944Z</time></trkpt><trkpt lat="43.9106470789465" lon="12.878973378208654"><ele>19.4</ele><time>2026-03-22T11:04:20.944Z</time></trkpt><trkpt lat="43.91065494256408" lon="12.879111789079026"><ele>19.6</ele><time>2026-03-22T11:04:21.944Z</time></trkpt><trkpt lat="43.910666107302696" lon="12.879249576379761"><ele>19.8</ele><time>2026-03-22T11:04:22.944Z</time></trkpt><trkpt lat="43.910670633769726" lon="12.879391050444662"><ele>20.0</ele><time>2026-03-22T11:04:23.944Z</time></trkpt><trkpt lat="43.91067430205278" lon="12.87953312574741"><ele>19.6</ele><time>2026-03-22T11:04:24.944Z</time></trkpt><trkpt lat="43.91067925626109" lon="12.879677117450589"><ele>19.2</ele><time>2026-03-22T11:04:25.944Z</time></trkpt><trkpt lat="43.910688718432596" lon="12.8798215695427"><ele>18.8</ele><time>2026-03-22T11:04:26.944Z</time></trkpt><trkpt lat="43.910677860031385" lon="12.879978946791184"><ele>18.4</ele><time>2026-03-22T11:04:27.944Z</time></trkpt><trkpt lat="43.91069140211714" lon="12.880127963056133"><ele>18.0</ele><time>2026-03-22T11:04:28.944Z</time></trkpt><trkpt lat="43.91071362997988" lon="12.880282967110212"><ele>16.75</ele><time>2026-03-22T11:04:29.944Z</time></trkpt><trkpt lat="43.91073428785385" lon="12.880453654546212"><ele>15.5</ele><time>2026-03-22T11:04:30.944Z</time></trkpt><trkpt lat="43.910754193060704" lon="12.880617628849542"><ele>14.25</ele><time>2026-03-22T11:04:31.944Z</time></trkpt><trkpt lat="43.9107753050525" lon="12.880780592397961"><ele>13.0</ele><time>2026-03-22T11:04:32.944Z</time></trkpt><trkpt lat="43.91079872628292" lon="12.880944693126912"><ele>12.5</ele><time>2026-03-22T11:04:33.944Z</time></trkpt><trkpt lat="43.91081571017257" lon="12.881117319922174"><ele>12.0</ele><time>2026-03-22T11:04:34.944Z</time></trkpt><trkpt lat="43.91083262727649" lon="12.881285649291517"><ele>11.5</ele><time>2026-03-22T11:04:35.944Z</time></trkpt><trkpt lat="43.91085106371319" lon="12.881458027059992"><ele>11.0</ele><time>2026-03-22T11:04:36.944Z</time></trkpt><trkpt lat="43.91086646980886" lon="12.881628462907662"><ele>10.5</ele><time>2026-03-22T11:04:37.944Z</time></trkpt><trkpt lat="43.91086276555794" lon="12.881801439944896"><ele>10.0</ele><time>2026-03-22T11:04:38.944Z</time></trkpt><trkpt lat="43.91087124628268" lon="12.881972120691485"><ele>9.5</ele><time>2026-03-22T11:04:39.944Z</time></trkpt><trkpt lat="43.91087507144918" lon="12.882146106573972"><ele>9.0</ele><time>2026-03-22T11:04:40.944Z</time></trkpt><trkpt lat="43.91087003978578" lon="12.882322485888762"><ele>9.0</ele><time>2026-03-22T11:04:41.944Z</time></trkpt><trkpt lat="43.91087035337688" lon="12.882492920707174"><ele>9.0</ele><time>2026-03-22T11:04:42.944Z</time></trkpt><trkpt lat="43.91087046241021" lon="12.882651715648763"><ele>9.0</ele><time>2026-03-22T11:04:43.944Z</time></trkpt><trkpt lat="43.91086822144973" lon="12.882803371230308"><ele>9.0</ele><time>2026-03-22T11:04:44.944Z</time></trkpt><trkpt lat="43.9108613873145" lon="12.882960756645064"><ele>8.75</ele><time>2026-03-22T11:04:45.944Z</time></trkpt><trkpt lat="43.91085127366912" lon="12.883118476327978"><ele>8.5</ele><time>2026-03-22T11:04:46.944Z</time></trkpt><trkpt lat="43.91083562522328" lon="12.88327643644531"><ele>8.25</ele><time>2026-03-22T11:04:47.944Z</time></trkpt><trkpt lat="43.91081742557829" lon="12.883436055533991"><ele>8.0</ele><time>2026-03-22T11:04:48.944Z</time></trkpt><trkpt lat="43.910780428461564" lon="12.883588061401516"><ele>8.200000000000001</ele><time>2026-03-22T11:04:49.944Z</time></trkpt><trkpt lat="43.91077334729257" lon="12.883743616378256"><ele>8.4</ele><time>2026-03-22T11:04:50.944Z</time></trkpt><trkpt lat="43.91075280285244" lon="12.883895193815095"><ele>8.600000000000001</ele><time>2026-03-22T11:04:51.944Z</time></trkpt><trkpt lat="43.91072732759445" lon="12.8840453189635"><ele>8.8</ele><time>2026-03-22T11:04:52.944Z</time></trkpt><trkpt lat="43.91070173559983" lon="12.884198786174723"><ele>9.0</ele><time>2026-03-22T11:04:53.944Z</time></trkpt><trkpt lat="43.910681156800294" lon="12.88434543301332"><ele>9.0</ele><time>2026-03-22T11:04:54.944Z</time></trkpt><trkpt lat="43.91066518118978" lon="12.884493458319389"><ele>9.0</ele><time>2026-03-22T11:04:55.944Z</time></trkpt><trkpt lat="43.91064592469452" lon="12.884626895217112"><ele>9.0</ele><time>2026-03-22T11:04:56.944Z</time></trkpt><trkpt lat="43.91063145483638" lon="12.884751185674965"><ele>9.0</ele><time>2026-03-22T11:04:57.944Z</time></trkpt><trkpt lat="43.91061213978098" lon="12.884887135347594"><ele>9.0</ele><time>2026-03-22T11:04:58.944Z</time></trkpt><trkpt lat="43.91056784410353" lon="12.885015389530475"><ele>9.833333333333334</ele><time>2026-03-22T11:04:59.944Z</time></trkpt><trkpt lat="43.91055722602252" lon="12.885145568557975"><ele>10.666666666666668</ele><time>2026-03-22T11:05:00.944Z</time></trkpt><trkpt lat="43.910536051310295" lon="12.885254658934699"><ele>11.5</ele><time>2026-03-22T11:05:01.944Z</time></trkpt><trkpt lat="43.910519808229814" lon="12.885353904274863"><ele>12.333333333333334</ele><time>2026-03-22T11:05:02.944Z</time></trkpt><trkpt lat="43.91050848190686" lon="12.885456426711784"><ele>13.166666666666668</ele><time>2026-03-22T11:05:03.944Z</time></trkpt><trkpt lat="43.910493131566746" lon="12.885573771628424"><ele>14.0</ele><time>2026-03-22T11:05:04.944Z</time></trkpt><trkpt lat="43.910471190870425" lon="12.885705525986"><ele>14.0</ele><time>2026-03-22T11:05:05.944Z</time></trkpt><trkpt lat="43.91045223947023" lon="12.885850244221189"><ele>14.0</ele><time>2026-03-22T11:05:06.944Z</time></trkpt><trkpt lat="43.91044467278747" lon="12.886013049668191"><ele>14.0</ele><time>2026-03-22T11:05:07.944Z</time></trkpt><trkpt lat="43.91040748432675" lon="12.886188630655578"><ele>14.0</ele><time>2026-03-22T11:05:08.944Z</time></trkpt><trkpt lat="43.91039831499302" lon="12.886396001373072"><ele>14.333333333333334</ele><time>2026-03-22T11:05:09.944Z</time></trkpt><trkpt lat="43.91039318300579" lon="12.8866036468552"><ele>14.666666666666668</ele><time>2026-03-22T11:05:10.944Z</time></trkpt><trkpt lat="43.9103913604137" lon="12.886812338571936"><ele>15.0</ele><time>2026-03-22T11:05:11.944Z</time></trkpt><trkpt lat="43.91038487243654" lon="12.887028198465698"><ele>15.25</ele><time>2026-03-22T11:05:12.944Z</time></trkpt><trkpt lat="43.91038300761606" lon="12.887213534841845"><ele>15.5</ele><time>2026-03-22T11:05:13.944Z</time></trkpt><trkpt lat="43.91038251931601" lon="12.887384484582636"><ele>15.75</ele><time>2026-03-22T11:05:14.944Z</time></trkpt><trkpt lat="43.91038168895126" lon="12.887547816339016"><ele>16.0</ele><time>2026-03-22T11:05:15.944Z</time></trkpt><trkpt lat="43.9103884436276" lon="12.887699474464135"><ele>16.0</ele><time>2026-03-22T11:05:16.944Z</time></trkpt><trkpt lat="43.91040415437369" lon="12.88784180814747"><ele>16.0</ele><time>2026-03-22T11:05:17.944Z</time></trkpt><trkpt lat="43.910415639773994" lon="12.887993041588672"><ele>16.0</ele><time>2026-03-22T11:05:18.944Z</time></trkpt><trkpt lat="43.91043193138781" lon="12.88815017859641"><ele>16.0</ele><time>2026-03-22T11:05:19.944Z</time></trkpt><trkpt lat="43.91044676650063" lon="12.888312067342945"><ele>16.0</ele><time>2026-03-22T11:05:20.944Z</time></trkpt><trkpt lat="43.9104620404203" lon="12.888455082718899"><ele>15.600000000000001</ele><time>2026-03-22T11:05:21.944Z</time></trkpt><trkpt lat="43.91045066471931" lon="12.888593692927238"><ele>15.200000000000001</ele><time>2026-03-22T11:05:22.944Z</time></trkpt><trkpt lat="43.91050954266219" lon="12.888718244751816"><ele>14.799999999999999</ele><time>2026-03-22T11:05:23.944Z</time></trkpt><trkpt lat="43.910531267121506" lon="12.888852366525116"><ele>14.399999999999999</ele><time>2026-03-22T11:05:24.944Z</time></trkpt><trkpt lat="43.910536693992825" lon="12.889002410787633"><ele>14.0</ele><time>2026-03-22T11:05:25.944Z</time></trkpt><trkpt lat="43.91054518371981" lon="12.889140229744761"><ele>13.799999999999999</ele><time>2026-03-22T11:05:26.944Z</time></trkpt><trkpt lat="43.910483887054056" lon="12.88927658549351"><ele>13.599999999999998</ele><time>2026-03-22T11:05:27.944Z</time></trkpt><trkpt lat="43.910484657851114" lon="12.889420503642938"><ele>13.4</ele><time>2026-03-22T11:05:28.944Z</time></trkpt><trkpt lat="43.91048533684268" lon="12.889564381154113"><ele>13.2</ele><time>2026-03-22T11:05:29.944Z</time></trkpt><trkpt lat="43.9104871699957" lon="12.889731448944726"><ele>13.0</ele><time>2026-03-22T11:05:30.941Z</time></trkpt><trkpt lat="43.91048879212485" lon="12.889897345433216"><ele>13.0</ele><time>2026-03-22T11:05:31.941Z</time></trkpt><trkpt lat="43.91049038592176" lon="12.890060343354499"><ele>13.0</ele><time>2026-03-22T11:05:32.941Z</time></trkpt><trkpt lat="43.910493235408445" lon="12.890231663418113"><ele>13.0</ele><time>2026-03-22T11:05:33.942Z</time></trkpt><trkpt lat="43.910495971639676" lon="12.890405227928234"><ele>13.0</ele><time>2026-03-22T11:05:34.941Z</time></trkpt><trkpt lat="43.910498650927714" lon="12.890575920176618"><ele>13.25</ele><time>2026-03-22T11:05:35.941Z</time></trkpt><trkpt lat="43.910501358097164" lon="12.890743659136923"><ele>13.5</ele><time>2026-03-22T11:05:36.942Z</time></trkpt><trkpt lat="43.91053774926124" lon="12.89091048316328"><ele>13.75</ele><time>2026-03-22T11:05:37.942Z</time></trkpt><trkpt lat="43.91054413387756" lon="12.891071485459332"><ele>14.0</ele><time>2026-03-22T11:05:38.942Z</time></trkpt><trkpt lat="43.91054720311524" lon="12.891230091839534"><ele>13.5</ele><time>2026-03-22T11:05:39.942Z</time></trkpt><trkpt lat="43.910548436397804" lon="12.891395382816508"><ele>13.0</ele><time>2026-03-22T11:05:40.941Z</time></trkpt><trkpt lat="43.910516197146016" lon="12.891555590135098"><ele>12.5</ele><time>2026-03-22T11:05:41.941Z</time></trkpt><trkpt lat="43.910557887599325" lon="12.891708034612094"><ele>12.0</ele><time>2026-03-22T11:05:42.941Z</time></trkpt><trkpt lat="43.91056254497693" lon="12.891855537186164"><ele>11.4</ele><time>2026-03-22T11:05:43.942Z</time></trkpt><trkpt lat="43.91056952548961" lon="12.891998238179044"><ele>10.799999999999999</ele><time>2026-03-22T11:05:44.942Z</time></trkpt><trkpt lat="43.91057687089221" lon="12.892140818214662"><ele>10.2</ele><time>2026-03-22T11:05:45.942Z</time></trkpt><trkpt lat="43.91058687097575" lon="12.892284575351567"><ele>9.6</ele><time>2026-03-22T11:05:46.942Z</time></trkpt><trkpt lat="43.91059203219434" lon="12.892439092264105"><ele>9.0</ele><time>2026-03-22T11:05:47.942Z</time></trkpt><trkpt lat="43.910597887203" lon="12.892593068230303"><ele>9.0</ele><time>2026-03-22T11:05:48.942Z</time></trkpt><trkpt lat="43.91060261103702" lon="12.892750580223842"><ele>9.0</ele><time>2026-03-22T11:05:49.942Z</time></trkpt><trkpt lat="43.910608723172466" lon="12.892909949062124"><ele>9.0</ele><time>2026-03-22T11:05:50.942Z</time></trkpt><trkpt lat="43.910552405272924" lon="12.893062939193003"><ele>9.0</ele><time>2026-03-22T11:05:51.942Z</time></trkpt><trkpt lat="43.91055573565035" lon="12.893202676422199"><ele>9.0</ele><time>2026-03-22T11:05:52.942Z</time></trkpt><trkpt lat="43.910560944583004" lon="12.893336210371544"><ele>9.0</ele><time>2026-03-22T11:05:53.942Z</time></trkpt><trkpt lat="43.91056493067855" lon="12.893475172089406"><ele>9.0</ele><time>2026-03-22T11:05:54.942Z</time></trkpt><trkpt lat="43.910568865735605" lon="12.893609455902075"><ele>9.0</ele><time>2026-03-22T11:05:55.942Z</time></trkpt><trkpt lat="43.910572593281145" lon="12.893736658499943"><ele>9.0</ele><time>2026-03-22T11:05:56.942Z</time></trkpt><trkpt lat="43.910576243354114" lon="12.89386121623621"><ele>9.0</ele><time>2026-03-22T11:05:57.942Z</time></trkpt><trkpt lat="43.910577687517026" lon="12.893994095905999"><ele>9.0</ele><time>2026-03-22T11:05:58.942Z</time></trkpt><trkpt lat="43.91057977046653" lon="12.894130439462609"><ele>9.0</ele><time>2026-03-22T11:05:59.942Z</time></trkpt><trkpt lat="43.91058201188971" lon="12.894277136687398"><ele>9.0</ele><time>2026-03-22T11:06:00.942Z</time></trkpt><trkpt lat="43.910592027550585" lon="12.894432637199696"><ele>9.0</ele><time>2026-03-22T11:06:01.942Z</time></trkpt><trkpt lat="43.910581534418895" lon="12.894562999488361"><ele>8.666666666666666</ele><time>2026-03-22T11:06:02.942Z</time></trkpt><trkpt lat="43.91059275644592" lon="12.89469930379287"><ele>8.333333333333334</ele><time>2026-03-22T11:06:03.942Z</time></trkpt><trkpt lat="43.91059994542337" lon="12.894835842956462"><ele>8.0</ele><time>2026-03-22T11:06:04.942Z</time></trkpt><trkpt lat="43.91060391872436" lon="12.894967780682249"><ele>7.666666666666667</ele><time>2026-03-22T11:06:05.942Z</time></trkpt><trkpt lat="43.910610116634714" lon="12.895064412104423"><ele>7.333333333333334</ele><time>2026-03-22T11:06:06.942Z</time></trkpt><trkpt lat="43.91061356880957" lon="12.895153060913836"><ele>7.0</ele><time>2026-03-22T11:06:07.942Z</time></trkpt><trkpt lat="43.910623112864194" lon="12.895312331865664"><ele>6.8</ele><time>2026-03-22T11:06:09.942Z</time></trkpt><trkpt lat="43.91061043574298" lon="12.895475509825127"><ele>6.6</ele><time>2026-03-22T11:06:11.942Z</time></trkpt><trkpt lat="43.910615375251275" lon="12.895655695052586"><ele>6.3999999999999995</ele><time>2026-03-22T11:06:13.942Z</time></trkpt><trkpt lat="43.91064020766158" lon="12.895738469350182"><ele>6.199999999999999</ele><time>2026-03-22T11:06:14.942Z</time></trkpt><trkpt lat="43.91064549588597" lon="12.895910327931704"><ele>6.0</ele><time>2026-03-22T11:06:16.942Z</time></trkpt><trkpt lat="43.91064899189112" lon="12.896076406962088"><ele>6.0</ele><time>2026-03-22T11:06:18.942Z</time></trkpt><trkpt lat="43.91064712233012" lon="12.89616738920158"><ele>6.0</ele><time>2026-03-22T11:06:19.942Z</time></trkpt><trkpt lat="43.91065305604542" lon="12.89627287365661"><ele>6.0</ele><time>2026-03-22T11:06:20.942Z</time></trkpt><trkpt lat="43.91065312278875" lon="12.89640280191649"><ele>6.0</ele><time>2026-03-22T11:06:21.942Z</time></trkpt><trkpt lat="43.910655566143866" lon="12.896537381712973"><ele>6.0</ele><time>2026-03-22T11:06:22.942Z</time></trkpt><trkpt lat="43.91066357451379" lon="12.89669749607663"><ele>6.0</ele><time>2026-03-22T11:06:23.942Z</time></trkpt><trkpt lat="43.91066494991189" lon="12.896851623154483"><ele>6.199999999999999</ele><time>2026-03-22T11:06:24.942Z</time></trkpt><trkpt lat="43.9106694712441" lon="12.8969915455758"><ele>6.3999999999999995</ele><time>2026-03-22T11:06:25.942Z</time></trkpt><trkpt lat="43.91067731017153" lon="12.897143274378802"><ele>6.6</ele><time>2026-03-22T11:06:26.942Z</time></trkpt><trkpt lat="43.91068471353566" lon="12.89730010124283"><ele>6.8</ele><time>2026-03-22T11:06:27.942Z</time></trkpt><trkpt lat="43.91068882414004" lon="12.897446050597585"><ele>7.0</ele><time>2026-03-22T11:06:28.942Z</time></trkpt><trkpt lat="43.910692077755876" lon="12.89757989711579"><ele>6.666666666666667</ele><time>2026-03-22T11:06:29.942Z</time></trkpt><trkpt lat="43.91069432566041" lon="12.89771041980068"><ele>6.333333333333334</ele><time>2026-03-22T11:06:30.942Z</time></trkpt><trkpt lat="43.91069997748813" lon="12.897821514691357"><ele>6.0</ele><time>2026-03-22T11:06:31.942Z</time></trkpt><trkpt lat="43.910701459555" lon="12.897925600963934"><ele>5.666666666666667</ele><time>2026-03-22T11:06:32.942Z</time></trkpt><trkpt lat="43.91070431153135" lon="12.898031422349463"><ele>5.333333333333334</ele><time>2026-03-22T11:06:33.942Z</time></trkpt><trkpt lat="43.91071371110669" lon="12.898139293247354"><ele>5.0</ele><time>2026-03-22T11:06:34.942Z</time></trkpt><trkpt lat="43.91071374496713" lon="12.898247961861802"><ele>5.0</ele><time>2026-03-22T11:06:35.942Z</time></trkpt><trkpt lat="43.91068138294888" lon="12.898365982787217"><ele>5.0</ele><time>2026-03-22T11:06:36.942Z</time></trkpt><trkpt lat="43.91071993362542" lon="12.898478681410152"><ele>5.0</ele><time>2026-03-22T11:06:37.942Z</time></trkpt><trkpt lat="43.910722498191355" lon="12.898610403446535"><ele>5.0</ele><time>2026-03-22T11:06:38.942Z</time></trkpt><trkpt lat="43.91072397962429" lon="12.898735887053746"><ele>5.0</ele><time>2026-03-22T11:06:39.942Z</time></trkpt><trkpt lat="43.91073577698198" lon="12.89885824626138"><ele>4.833333333333334</ele><time>2026-03-22T11:06:40.942Z</time></trkpt><trkpt lat="43.91074659454053" lon="12.898983183587399"><ele>4.666666666666667</ele><time>2026-03-22T11:06:41.942Z</time></trkpt><trkpt lat="43.910760276540266" lon="12.899108674366829"><ele>4.5</ele><time>2026-03-22T11:06:42.942Z</time></trkpt><trkpt lat="43.91077922008299" lon="12.899221900328746"><ele>4.333333333333333</ele><time>2026-03-22T11:06:43.942Z</time></trkpt><trkpt lat="43.91079415464573" lon="12.899333202858948"><ele>4.166666666666666</ele><time>2026-03-22T11:06:44.942Z</time></trkpt><trkpt lat="43.91080876666581" lon="12.899440578659888"><ele>4.0</ele><time>2026-03-22T11:06:45.942Z</time></trkpt><trkpt lat="43.91082744550698" lon="12.899560065034608"><ele>4.428571428571429</ele><time>2026-03-22T11:06:46.942Z</time></trkpt><trkpt lat="43.91085382004949" lon="12.899674540501328"><ele>4.857142857142857</ele><time>2026-03-22T11:06:47.942Z</time></trkpt><trkpt lat="43.910883871417106" lon="12.899782192249752"><ele>5.285714285714286</ele><time>2026-03-22T11:06:48.942Z</time></trkpt><trkpt lat="43.91090715643821" lon="12.899883729584348"><ele>5.714285714285714</ele><time>2026-03-22T11:06:49.942Z</time></trkpt><trkpt lat="43.91092747680242" lon="12.899977116432186"><ele>6.142857142857142</ele><time>2026-03-22T11:06:50.942Z</time></trkpt><trkpt lat="43.91095314700252" lon="12.900062605900674"><ele>6.571428571428571</ele><time>2026-03-22T11:06:51.942Z</time></trkpt><trkpt lat="43.91097337150643" lon="12.90014962479643"><ele>7.0</ele><time>2026-03-22T11:06:52.942Z</time></trkpt><trkpt lat="43.91099823533962" lon="12.900233122848423"><ele>7.199999999999999</ele><time>2026-03-22T11:06:53.942Z</time></trkpt><trkpt lat="43.911050583321014" lon="12.90039460035708"><ele>7.3999999999999995</ele><time>2026-03-22T11:06:55.942Z</time></trkpt><trkpt lat="43.91109158510616" lon="12.900528837352518"><ele>7.6000000000000005</ele><time>2026-03-22T11:06:57.942Z</time></trkpt><trkpt lat="43.91111927848116" lon="12.900621053794588"><ele>7.800000000000001</ele><time>2026-03-22T11:06:59.942Z</time></trkpt><trkpt lat="43.911153338700494" lon="12.900722867622315"><ele>8.0</ele><time>2026-03-22T11:07:01.942Z</time></trkpt><trkpt lat="43.911185577309475" lon="12.900853500157634"><ele>7.6000000000000005</ele><time>2026-03-22T11:07:03.942Z</time></trkpt><trkpt lat="43.91121457791804" lon="12.900973645813597"><ele>7.200000000000001</ele><time>2026-03-22T11:07:05.942Z</time></trkpt><trkpt lat="43.91125246672102" lon="12.901093601502586"><ele>6.8</ele><time>2026-03-22T11:07:07.942Z</time></trkpt><trkpt lat="43.91129044605652" lon="12.901210320565374"><ele>6.4</ele><time>2026-03-22T11:07:09.942Z</time></trkpt><trkpt lat="43.91132423162176" lon="12.901319655476764"><ele>6.0</ele><time>2026-03-22T11:07:11.942Z</time></trkpt><trkpt lat="43.91136296380404" lon="12.901433770136961"><ele>6.0</ele><time>2026-03-22T11:07:13.942Z</time></trkpt><trkpt lat="43.911414312726784" lon="12.901525428604852"><ele>6.0</ele><time>2026-03-22T11:07:15.942Z</time></trkpt><trkpt lat="43.911525840545686" lon="12.901553871673043"><ele>6.0</ele><time>2026-03-22T11:07:17.942Z</time></trkpt><trkpt lat="43.91158761059101" lon="12.901585182939751"><ele>6.0</ele><time>2026-03-22T11:07:18.942Z</time></trkpt><trkpt lat="43.911650336860795" lon="12.901627863901842"><ele>6.0</ele><time>2026-03-22T11:07:19.942Z</time></trkpt><trkpt lat="43.91171622334793" lon="12.901680175009309"><ele>6.0</ele><time>2026-03-22T11:07:20.942Z</time></trkpt><trkpt lat="43.911789497862614" lon="12.901731416847682"><ele>5.5</ele><time>2026-03-22T11:07:21.942Z</time></trkpt><trkpt lat="43.91185740709049" lon="12.901771674465044"><ele>5.0</ele><time>2026-03-22T11:07:22.942Z</time></trkpt><trkpt lat="43.91192491737371" lon="12.90181280821965"><ele>4.5</ele><time>2026-03-22T11:07:23.942Z</time></trkpt><trkpt lat="43.911987892867266" lon="12.901857391944462"><ele>4.0</ele><time>2026-03-22T11:07:24.942Z</time></trkpt><trkpt lat="43.91205822395381" lon="12.901907864814818"><ele>3.5</ele><time>2026-03-22T11:07:25.942Z</time></trkpt><trkpt lat="43.912131308438525" lon="12.90195438085532"><ele>3.0</ele><time>2026-03-22T11:07:26.942Z</time></trkpt><trkpt lat="43.912201938314425" lon="12.901999610155391"><ele>3.0</ele><time>2026-03-22T11:07:27.942Z</time></trkpt><trkpt lat="43.912260943104" lon="12.902042980778376"><ele>3.0</ele><time>2026-03-22T11:07:28.942Z</time></trkpt><trkpt lat="43.912375576815094" lon="12.902127410137991"><ele>3.0</ele><time>2026-03-22T11:07:30.942Z</time></trkpt><trkpt lat="43.91245354510102" lon="12.902178625011288"><ele>3.0</ele><time>2026-03-22T11:07:31.942Z</time></trkpt><trkpt lat="43.912529007260325" lon="12.902231383721029"><ele>3.0</ele><time>2026-03-22T11:07:32.942Z</time></trkpt><trkpt lat="43.91260280352063" lon="12.902284137136963"><ele>3.0</ele><time>2026-03-22T11:07:33.942Z</time></trkpt><trkpt lat="43.912680603361835" lon="12.902330419473763"><ele>3.0</ele><time>2026-03-22T11:07:34.942Z</time></trkpt><trkpt lat="43.91275673201083" lon="12.902378364694"><ele>3.0</ele><time>2026-03-22T11:07:35.942Z</time></trkpt><trkpt lat="43.91283902958889" lon="12.902421194365168"><ele>3.0</ele><time>2026-03-22T11:07:36.939Z</time></trkpt><trkpt lat="43.91292656676439" lon="12.902453303139486"><ele>3.0</ele><time>2026-03-22T11:07:37.939Z</time></trkpt><trkpt lat="43.913017133888765" lon="12.902491394491157"><ele>3.0</ele><time>2026-03-22T11:07:38.939Z</time></trkpt><trkpt lat="43.91311081242717" lon="12.902519713721151"><ele>3.0</ele><time>2026-03-22T11:07:39.939Z</time></trkpt><trkpt lat="43.91321895171676" lon="12.902543503160622"><ele>3.0</ele><time>2026-03-22T11:07:40.939Z</time></trkpt><trkpt lat="43.91333316051915" lon="12.902564680659443"><ele>3.0</ele><time>2026-03-22T11:07:41.939Z</time></trkpt><trkpt lat="43.91343953610713" lon="12.90257912343982"><ele>3.0</ele><time>2026-03-22T11:07:42.939Z</time></trkpt><trkpt lat="43.91355107158398" lon="12.90258874659228"><ele>3.0</ele><time>2026-03-22T11:07:43.938Z</time></trkpt><trkpt lat="43.913653284939045" lon="12.902599635689812"><ele>3.0</ele><time>2026-03-22T11:07:44.938Z</time></trkpt><trkpt lat="43.91375381468715" lon="12.902613093986526"><ele>3.0</ele><time>2026-03-22T11:07:45.939Z</time></trkpt><trkpt lat="43.91385575257421" lon="12.902633611386763"><ele>3.0</ele><time>2026-03-22T11:07:46.939Z</time></trkpt><trkpt lat="43.9139518402262" lon="12.902650009582072"><ele>3.0</ele><time>2026-03-22T11:07:47.939Z</time></trkpt><trkpt lat="43.91405443654479" lon="12.902665548185526"><ele>3.0</ele><time>2026-03-22T11:07:48.939Z</time></trkpt><trkpt lat="43.91416153473566" lon="12.90267692935957"><ele>2.6</ele><time>2026-03-22T11:07:49.938Z</time></trkpt><trkpt lat="43.91427024731636" lon="12.90268613576691"><ele>2.1999999999999997</ele><time>2026-03-22T11:07:50.938Z</time></trkpt><trkpt lat="43.91437839599472" lon="12.902690304682748"><ele>1.8</ele><time>2026-03-22T11:07:51.938Z</time></trkpt><trkpt lat="43.9144856931192" lon="12.90268714054996"><ele>1.4</ele><time>2026-03-22T11:07:52.938Z</time></trkpt><trkpt lat="43.91458874251398" lon="12.902692659973438"><ele>1.0</ele><time>2026-03-22T11:07:53.938Z</time></trkpt><trkpt lat="43.91469586362704" lon="12.90269244044804"><ele>1.0</ele><time>2026-03-22T11:07:54.938Z</time></trkpt><trkpt lat="43.914803641954336" lon="12.902702429390914"><ele>1.0</ele><time>2026-03-22T11:07:55.938Z</time></trkpt><trkpt lat="43.91491000457945" lon="12.902709541425256"><ele>1.0</ele><time>2026-03-22T11:07:56.938Z</time></trkpt><trkpt lat="43.91501131046682" lon="12.902713779571434"><ele>1.0</ele><time>2026-03-22T11:07:57.938Z</time></trkpt><trkpt lat="43.915124388855816" lon="12.902713195143232"><ele>1.0</ele><time>2026-03-22T11:07:58.938Z</time></trkpt><trkpt lat="43.915232862389885" lon="12.90271788549686"><ele>1.2000000000000002</ele><time>2026-03-22T11:07:59.938Z</time></trkpt><trkpt lat="43.91533928278082" lon="12.90271750904367"><ele>1.4000000000000001</ele><time>2026-03-22T11:08:00.938Z</time></trkpt><trkpt lat="43.915447720446984" lon="12.902724613494993"><ele>1.6</ele><time>2026-03-22T11:08:01.938Z</time></trkpt><trkpt lat="43.9155407261668" lon="12.90273193410217"><ele>1.8</ele><time>2026-03-22T11:08:02.939Z</time></trkpt><trkpt lat="43.91562286216475" lon="12.902729410555258"><ele>2.0</ele><time>2026-03-22T11:08:03.939Z</time></trkpt><trkpt lat="43.91569396929845" lon="12.902728872978551"><ele>2.0</ele><time>2026-03-22T11:08:04.939Z</time></trkpt><trkpt lat="43.9158048224521" lon="12.90271848482958"><ele>2.0</ele><time>2026-03-22T11:08:06.939Z</time></trkpt><trkpt lat="43.91589664639137" lon="12.902722701079087"><ele>2.0</ele><time>2026-03-22T11:08:08.939Z</time></trkpt><trkpt lat="43.91601052227489" lon="12.90274160950627"><ele>2.0</ele><time>2026-03-22T11:08:10.939Z</time></trkpt><trkpt lat="43.916099437497785" lon="12.902755449727236"><ele>2.0</ele><time>2026-03-22T11:08:12.939Z</time></trkpt><trkpt lat="43.91619144183243" lon="12.90279449411119"><ele>1.6666666666666665</ele><time>2026-03-22T11:08:14.939Z</time></trkpt><trkpt lat="43.91627510969726" lon="12.902741121855412"><ele>1.3333333333333333</ele><time>2026-03-22T11:08:16.939Z</time></trkpt><trkpt lat="43.916306590256546" lon="12.90259129196729"><ele>1.0</ele><time>2026-03-22T11:08:18.939Z</time></trkpt><trkpt lat="43.9163336301017" lon="12.90250687748921"><ele>0.6666666666666666</ele><time>2026-03-22T11:08:19.939Z</time></trkpt><trkpt lat="43.916367817652485" lon="12.90242484016646"><ele>0.3333333333333333</ele><time>2026-03-22T11:08:20.939Z</time></trkpt><trkpt lat="43.91640682791506" lon="12.90234982936286"><ele>0.0</ele><time>2026-03-22T11:08:21.939Z</time></trkpt><trkpt lat="43.91645595693365" lon="12.90221465785405"><ele>0.6666666666666666</ele><time>2026-03-22T11:08:23.939Z</time></trkpt><trkpt lat="43.91650137398204" lon="12.902117434817127"><ele>1.3333333333333333</ele><time>2026-03-22T11:08:25.939Z</time></trkpt><trkpt lat="43.916548663078906" lon="12.901995562981691"><ele>2.0</ele><time>2026-03-22T11:08:28.939Z</time></trkpt><trkpt lat="43.91659342666961" lon="12.901910546533504"><ele>2.6666666666666665</ele><time>2026-03-22T11:08:30.939Z</time></trkpt><trkpt lat="43.91663308791871" lon="12.901834115390834"><ele>3.333333333333333</ele><time>2026-03-22T11:08:33.939Z</time></trkpt><trkpt lat="43.91666325341995" lon="12.90173004695883"><ele>4.0</ele><time>2026-03-22T11:08:36.939Z</time></trkpt><trkpt lat="43.9167226557246" lon="12.901638784890313"><ele>3.833333333333333</ele><time>2026-03-22T11:09:00.939Z</time></trkpt><trkpt lat="43.9167748632344" lon="12.901524746550631"><ele>3.6666666666666665</ele><time>2026-03-22T11:09:02.939Z</time></trkpt><trkpt lat="43.91681480515924" lon="12.901450079204782"><ele>3.5</ele><time>2026-03-22T11:09:03.939Z</time></trkpt><trkpt lat="43.916843898686864" lon="12.901337192294369"><ele>3.333333333333333</ele><time>2026-03-22T11:09:04.939Z</time></trkpt><trkpt lat="43.91689383814995" lon="12.901223089253985"><ele>3.1666666666666665</ele><time>2026-03-22T11:09:05.939Z</time></trkpt><trkpt lat="43.916932394594845" lon="12.901132396267318"><ele>3.0</ele><time>2026-03-22T11:09:06.939Z</time></trkpt><trkpt lat="43.916969682371615" lon="12.90104035725443"><ele>3.5</ele><time>2026-03-22T11:09:07.939Z</time></trkpt><trkpt lat="43.91702693235132" lon="12.900902708014911"><ele>4.0</ele><time>2026-03-22T11:09:09.939Z</time></trkpt><trkpt lat="43.917076577722604" lon="12.900747952561693"><ele>4.5</ele><time>2026-03-22T11:09:11.939Z</time></trkpt><trkpt lat="43.91713629397997" lon="12.90059873787437"><ele>5.0</ele><time>2026-03-22T11:09:13.939Z</time></trkpt><trkpt lat="43.91718219822819" lon="12.90046622613447"><ele>5.0</ele><time>2026-03-22T11:09:15.939Z</time></trkpt><trkpt lat="43.91724295439148" lon="12.900319591039363"><ele>5.0</ele><time>2026-03-22T11:09:17.939Z</time></trkpt><trkpt lat="43.91730222762169" lon="12.900173546180998"><ele>5.0</ele><time>2026-03-22T11:09:19.939Z</time></trkpt><trkpt lat="43.91733719805552" lon="12.900082683178015"><ele>5.0</ele><time>2026-03-22T11:09:20.939Z</time></trkpt><trkpt lat="43.91737233494461" lon="12.900000311263762"><ele>5.0</ele><time>2026-03-22T11:09:21.939Z</time></trkpt><trkpt lat="43.917404816570965" lon="12.89991941806376"><ele>5.0</ele><time>2026-03-22T11:09:22.939Z</time></trkpt><trkpt lat="43.91743540106918" lon="12.899841904913467"><ele>5.0</ele><time>2026-03-22T11:09:23.939Z</time></trkpt><trkpt lat="43.91747059933033" lon="12.899761083480497"><ele>5.0</ele><time>2026-03-22T11:09:24.939Z</time></trkpt><trkpt lat="43.917515423085796" lon="12.899676996470282"><ele>5.0</ele><time>2026-03-22T11:09:25.939Z</time></trkpt><trkpt lat="43.917545063556894" lon="12.899586588868718"><ele>5.0</ele><time>2026-03-22T11:09:26.939Z</time></trkpt><trkpt lat="43.91758988713039" lon="12.899483291103339"><ele>5.0</ele><time>2026-03-22T11:09:27.939Z</time></trkpt><trkpt lat="43.91764305372038" lon="12.899361815901234"><ele>5.6</ele><time>2026-03-22T11:09:28.939Z</time></trkpt><trkpt lat="43.91769675212331" lon="12.899228099221435"><ele>6.2</ele><time>2026-03-22T11:09:29.939Z</time></trkpt><trkpt lat="43.917749542280944" lon="12.89910051701134"><ele>6.800000000000001</ele><time>2026-03-22T11:09:30.939Z</time></trkpt><trkpt lat="43.91779573162367" lon="12.898980373561121"><ele>7.4</ele><time>2026-03-22T11:09:31.939Z</time></trkpt><trkpt lat="43.91784681389092" lon="12.898878710335582"><ele>8.0</ele><time>2026-03-22T11:09:32.939Z</time></trkpt><trkpt lat="43.91789599135755" lon="12.898773757263978"><ele>8.0</ele><time>2026-03-22T11:09:33.939Z</time></trkpt><trkpt lat="43.91794537263046" lon="12.898654708831026"><ele>8.0</ele><time>2026-03-22T11:09:34.939Z</time></trkpt><trkpt lat="43.91800497590186" lon="12.898546732521476"><ele>8.0</ele><time>2026-03-22T11:09:35.939Z</time></trkpt><trkpt lat="43.91808271522012" lon="12.898447180031516"><ele>8.0</ele><time>2026-03-22T11:09:36.939Z</time></trkpt><trkpt lat="43.91817316644019" lon="12.898367302252328"><ele>8.0</ele><time>2026-03-22T11:09:37.939Z</time></trkpt><trkpt lat="43.9182631726391" lon="12.898282060866537"><ele>8.200000000000001</ele><time>2026-03-22T11:09:38.939Z</time></trkpt><trkpt lat="43.91834566426196" lon="12.898192910627492"><ele>8.4</ele><time>2026-03-22T11:09:39.939Z</time></trkpt><trkpt lat="43.918416158941575" lon="12.898097569717214"><ele>8.600000000000001</ele><time>2026-03-22T11:09:40.939Z</time></trkpt><trkpt lat="43.918493516187596" lon="12.89801277343715"><ele>8.8</ele><time>2026-03-22T11:09:41.939Z</time></trkpt><trkpt lat="43.91856265616117" lon="12.897946704223326"><ele>9.0</ele><time>2026-03-22T11:09:42.936Z</time></trkpt><trkpt lat="43.91861533654645" lon="12.897877333090477"><ele>9.0</ele><time>2026-03-22T11:09:43.935Z</time></trkpt><trkpt lat="43.918669696381926" lon="12.897815484263596"><ele>9.0</ele><time>2026-03-22T11:09:44.935Z</time></trkpt><trkpt lat="43.91872110380344" lon="12.897744815388181"><ele>9.0</ele><time>2026-03-22T11:09:45.935Z</time></trkpt><trkpt lat="43.918779570252156" lon="12.897664962230365"><ele>9.0</ele><time>2026-03-22T11:09:46.936Z</time></trkpt><trkpt lat="43.918853702243965" lon="12.897586692439639"><ele>9.0</ele><time>2026-03-22T11:09:47.936Z</time></trkpt><trkpt lat="43.918931519150085" lon="12.897500724685338"><ele>9.0</ele><time>2026-03-22T11:09:48.936Z</time></trkpt><trkpt lat="43.91901046034618" lon="12.897424984987527"><ele>9.833333333333334</ele><time>2026-03-22T11:09:49.936Z</time></trkpt><trkpt lat="43.91908472281382" lon="12.897341689111489"><ele>10.666666666666668</ele><time>2026-03-22T11:09:50.936Z</time></trkpt><trkpt lat="43.91913747563601" lon="12.897246060439002"><ele>11.5</ele><time>2026-03-22T11:09:51.935Z</time></trkpt><trkpt lat="43.919212808673045" lon="12.897175742094385"><ele>12.333333333333334</ele><time>2026-03-22T11:09:52.935Z</time></trkpt><trkpt lat="43.91927373590672" lon="12.897096845825066"><ele>13.166666666666668</ele><time>2026-03-22T11:09:53.935Z</time></trkpt><trkpt lat="43.91932571711776" lon="12.897021770355652"><ele>14.0</ele><time>2026-03-22T11:09:54.936Z</time></trkpt><trkpt lat="43.91932887502794" lon="12.89690019859351"><ele>14.000000000000002</ele><time>2026-03-22T11:09:55.935Z</time></trkpt><trkpt lat="43.91930397565679" lon="12.89679521188353"><ele>14.0</ele><time>2026-03-22T11:09:56.935Z</time></trkpt><trkpt lat="43.91924485550681" lon="12.896711814391765"><ele>14.0</ele><time>2026-03-22T11:09:57.935Z</time></trkpt><trkpt lat="43.91916556310849" lon="12.896658679664379"><ele>14.0</ele><time>2026-03-22T11:09:58.935Z</time></trkpt><trkpt lat="43.91907539844436" lon="12.896651728121773"><ele>14.000000000000002</ele><time>2026-03-22T11:09:59.935Z</time></trkpt><trkpt lat="43.91898826070664" lon="12.896696411094528"><ele>14.0</ele><time>2026-03-22T11:10:00.935Z</time></trkpt><trkpt lat="43.91890350109014" lon="12.896788000820596"><ele>14.0</ele><time>2026-03-22T11:10:01.935Z</time></trkpt><trkpt lat="43.91880907035424" lon="12.896898792924429"><ele>13.999999999999998</ele><time>2026-03-22T11:10:02.935Z</time></trkpt><trkpt lat="43.91871758190216" lon="12.896986832961606"><ele>13.999999999999998</ele><time>2026-03-22T11:10:03.935Z</time></trkpt><trkpt lat="43.91864152111694" lon="12.89703312131917"><ele>14.0</ele><time>2026-03-22T11:10:04.935Z</time></trkpt><trkpt lat="43.91856794692203" lon="12.89706440141961"><ele>14.0</ele><time>2026-03-22T11:10:05.935Z</time></trkpt><trkpt lat="43.91846412518731" lon="12.897093797767612"><ele>15.399999999999999</ele><time>2026-03-22T11:10:07.935Z</time></trkpt><trkpt lat="43.918390136673054" lon="12.897114433897201"><ele>16.799999999999997</ele><time>2026-03-22T11:10:09.935Z</time></trkpt><trkpt lat="43.91828787949591" lon="12.897152773646663"><ele>18.200000000000003</ele><time>2026-03-22T11:10:11.935Z</time></trkpt><trkpt lat="43.91818296515509" lon="12.897192981731619"><ele>19.6</ele><time>2026-03-22T11:10:13.935Z</time></trkpt><trkpt lat="43.91805301991498" lon="12.897224009160901"><ele>21.0</ele><time>2026-03-22T11:10:15.935Z</time></trkpt><trkpt lat="43.91796700439681" lon="12.897240411052607"><ele>21.0</ele><time>2026-03-22T11:10:16.935Z</time></trkpt><trkpt lat="43.91788277248491" lon="12.897251869112011"><ele>21.0</ele><time>2026-03-22T11:10:17.935Z</time></trkpt><trkpt lat="43.91780809958227" lon="12.897256289298973"><ele>21.0</ele><time>2026-03-22T11:10:18.935Z</time></trkpt><trkpt lat="43.91772491520809" lon="12.89728170659061"><ele>21.0</ele><time>2026-03-22T11:10:19.935Z</time></trkpt><trkpt lat="43.91765692254336" lon="12.897305118179228"><ele>21.0</ele><time>2026-03-22T11:10:20.935Z</time></trkpt><trkpt lat="43.91758667601238" lon="12.897312978343141"><ele>21.0</ele><time>2026-03-22T11:10:21.935Z</time></trkpt><trkpt lat="43.91751066195787" lon="12.897329684337503"><ele>21.833333333333332</ele><time>2026-03-22T11:10:22.935Z</time></trkpt><trkpt lat="43.917430572576436" lon="12.897337172285509"><ele>22.666666666666664</ele><time>2026-03-22T11:10:23.936Z</time></trkpt><trkpt lat="43.917353983068615" lon="12.897336109132416"><ele>23.5</ele><time>2026-03-22T11:10:24.936Z</time></trkpt><trkpt lat="43.91727503702452" lon="12.897329098731824"><ele>24.333333333333332</ele><time>2026-03-22T11:10:25.936Z</time></trkpt><trkpt lat="43.91719370359804" lon="12.89731912392099"><ele>25.166666666666664</ele><time>2026-03-22T11:10:26.936Z</time></trkpt><trkpt lat="43.91713128762193" lon="12.897284662976483"><ele>26.0</ele><time>2026-03-22T11:10:27.936Z</time></trkpt><trkpt lat="43.917093142732504" lon="12.897128835791834"><ele>26.0</ele><time>2026-03-22T11:10:29.936Z</time></trkpt><trkpt lat="43.9171322606106" lon="12.897047230114214"><ele>26.0</ele><time>2026-03-22T11:10:30.936Z</time></trkpt><trkpt lat="43.9172146165045" lon="12.896976136131961"><ele>26.0</ele><time>2026-03-22T11:10:31.936Z</time></trkpt><trkpt lat="43.917323838773534" lon="12.896929719476953"><ele>26.0</ele><time>2026-03-22T11:10:32.936Z</time></trkpt><trkpt lat="43.91744042423837" lon="12.896897549334941"><ele>26.0</ele><time>2026-03-22T11:10:33.936Z</time></trkpt><trkpt lat="43.91754161565532" lon="12.896846601698163"><ele>24.75</ele><time>2026-03-22T11:10:34.936Z</time></trkpt><trkpt lat="43.91763805849927" lon="12.896793894032895"><ele>23.5</ele><time>2026-03-22T11:10:35.937Z</time></trkpt><trkpt lat="43.91775036111475" lon="12.89671803136243"><ele>22.25</ele><time>2026-03-22T11:10:36.938Z</time></trkpt><trkpt lat="43.91787125430992" lon="12.896611097582975"><ele>21.0</ele><time>2026-03-22T11:10:37.939Z</time></trkpt><trkpt lat="43.91798324308796" lon="12.8964739405883"><ele>25.333333333333336</ele><time>2026-03-22T11:10:38.94Z</time></trkpt><trkpt lat="43.91808776310535" lon="12.896306455809183"><ele>29.666666666666668</ele><time>2026-03-22T11:10:39.94Z</time></trkpt><trkpt lat="43.91819652702998" lon="12.896132264157979"><ele>34.0</ele><time>2026-03-22T11:10:40.941Z</time></trkpt><trkpt lat="43.91832508023985" lon="12.895986107729705"><ele>32.333333333333336</ele><time>2026-03-22T11:10:41.942Z</time></trkpt><trkpt lat="43.918457917734905" lon="12.895858148891783"><ele>30.666666666666664</ele><time>2026-03-22T11:10:42.943Z</time></trkpt><trkpt lat="43.918579549247816" lon="12.89572870104292"><ele>29.0</ele><time>2026-03-22T11:10:43.943Z</time></trkpt><trkpt lat="43.91869709934746" lon="12.89560387530898"><ele>29.0</ele><time>2026-03-22T11:10:44.944Z</time></trkpt><trkpt lat="43.918809916465435" lon="12.895471249448189"><ele>29.0</ele><time>2026-03-22T11:10:45.944Z</time></trkpt><trkpt lat="43.918926250953795" lon="12.89533228605151"><ele>29.0</ele><time>2026-03-22T11:10:46.945Z</time></trkpt><trkpt lat="43.91902143718758" lon="12.895192078629552"><ele>29.0</ele><time>2026-03-22T11:10:47.945Z</time></trkpt><trkpt lat="43.91911371769843" lon="12.8950706742437"><ele>28.999999999999996</ele><time>2026-03-22T11:10:48.946Z</time></trkpt><trkpt lat="43.91920511511096" lon="12.894972501616069"><ele>29.0</ele><time>2026-03-22T11:10:49.946Z</time></trkpt><trkpt lat="43.919286921863524" lon="12.894894839951224"><ele>29.0</ele><time>2026-03-22T11:10:50.947Z</time></trkpt><trkpt lat="43.919350061818484" lon="12.894812646965306"><ele>29.0</ele><time>2026-03-22T11:10:51.947Z</time></trkpt><trkpt lat="43.91939789188727" lon="12.894734215973847"><ele>28.999999999999996</ele><time>2026-03-22T11:10:52.947Z</time></trkpt><trkpt lat="43.91943155144873" lon="12.89465033654568"><ele>29.0</ele><time>2026-03-22T11:10:53.948Z</time></trkpt><trkpt lat="43.9194244739719" lon="12.89455235363974"><ele>29.0</ele><time>2026-03-22T11:10:54.948Z</time></trkpt><trkpt lat="43.919387500788424" lon="12.894454659414418"><ele>29.0</ele><time>2026-03-22T11:10:55.948Z</time></trkpt><trkpt lat="43.919312461289685" lon="12.89437948691951"><ele>29.0</ele><time>2026-03-22T11:10:56.948Z</time></trkpt><trkpt lat="43.91922754686679" lon="12.894347664970677"><ele>29.0</ele><time>2026-03-22T11:10:57.949Z</time></trkpt><trkpt lat="43.91912810918389" lon="12.8943874468387"><ele>29.0</ele><time>2026-03-22T11:10:58.949Z</time></trkpt><trkpt lat="43.91902004380674" lon="12.89446595342584"><ele>36.0</ele><time>2026-03-22T11:10:59.949Z</time></trkpt><trkpt lat="43.91889668936637" lon="12.89458607802973"><ele>43.0</ele><time>2026-03-22T11:11:00.949Z</time></trkpt><trkpt lat="43.91876049853222" lon="12.894682101441324"><ele>50.0</ele><time>2026-03-22T11:11:01.949Z</time></trkpt><trkpt lat="43.918628614706144" lon="12.894832042045163"><ele>50.0</ele><time>2026-03-22T11:11:02.95Z</time></trkpt><trkpt lat="43.91848899591845" lon="12.894974428873343"><ele>50.0</ele><time>2026-03-22T11:11:03.95Z</time></trkpt><trkpt lat="43.91835996862553" lon="12.895102217839229"><ele>50.0</ele><time>2026-03-22T11:11:04.95Z</time></trkpt><trkpt lat="43.918236796053904" lon="12.895216640122158"><ele>50.0</ele><time>2026-03-22T11:11:05.95Z</time></trkpt><trkpt lat="43.91812197367948" lon="12.895318263349806"><ele>50.0</ele><time>2026-03-22T11:11:06.95Z</time></trkpt><trkpt lat="43.91800924318136" lon="12.895410468865544"><ele>50.0</ele><time>2026-03-22T11:11:07.95Z</time></trkpt><trkpt lat="43.91792737334462" lon="12.895493771339037"><ele>50.0</ele><time>2026-03-22T11:11:08.951Z</time></trkpt><trkpt lat="43.917874098992606" lon="12.895576275570644"><ele>50.0</ele><time>2026-03-22T11:11:09.951Z</time></trkpt><trkpt lat="43.91775734015874" lon="12.895641865062256"><ele>50.00000000000001</ele><time>2026-03-22T11:11:11.951Z</time></trkpt><trkpt lat="43.91769488433681" lon="12.895629213367672"><ele>50.0</ele><time>2026-03-22T11:11:12.951Z</time></trkpt><trkpt lat="43.91763606139972" lon="12.895555493229578"><ele>50.0</ele><time>2026-03-22T11:11:13.951Z</time></trkpt><trkpt lat="43.91761380488029" lon="12.895440106008223"><ele>50.0</ele><time>2026-03-22T11:11:14.951Z</time></trkpt><trkpt lat="43.917634333587756" lon="12.895331079228878"><ele>50.00000000000001</ele><time>2026-03-22T11:11:15.951Z</time></trkpt><trkpt lat="43.917690529953" lon="12.895247086554106"><ele>50.0</ele><time>2026-03-22T11:11:16.951Z</time></trkpt><trkpt lat="43.91779192590092" lon="12.895224553537489"><ele>50.0</ele><time>2026-03-22T11:11:17.951Z</time></trkpt><trkpt lat="43.91788643556892" lon="12.895148388123562"><ele>50.0</ele><time>2026-03-22T11:11:18.951Z</time></trkpt><trkpt lat="43.91798834639962" lon="12.895084844457285"><ele>50.0</ele><time>2026-03-22T11:11:19.952Z</time></trkpt><trkpt lat="43.91807611127038" lon="12.894976016072025"><ele>50.0</ele><time>2026-03-22T11:11:20.952Z</time></trkpt><trkpt lat="43.918164265732976" lon="12.894824872372608"><ele>53.75</ele><time>2026-03-22T11:11:21.952Z</time></trkpt><trkpt lat="43.91823976025597" lon="12.894664658059584"><ele>57.5</ele><time>2026-03-22T11:11:22.952Z</time></trkpt><trkpt lat="43.91830896651954" lon="12.894489529760362"><ele>61.25</ele><time>2026-03-22T11:11:23.952Z</time></trkpt><trkpt lat="43.918373100006015" lon="12.894313937115047"><ele>65.0</ele><time>2026-03-22T11:11:24.952Z</time></trkpt><trkpt lat="43.91847264110542" lon="12.894151546462426"><ele>65.33333333333334</ele><time>2026-03-22T11:11:25.952Z</time></trkpt><trkpt lat="43.91859781538994" lon="12.894002394429897"><ele>65.66666666666667</ele><time>2026-03-22T11:11:26.952Z</time></trkpt><trkpt lat="43.91873865919663" lon="12.893864641140253"><ele>66.0</ele><time>2026-03-22T11:11:27.952Z</time></trkpt><trkpt lat="43.91888992380426" lon="12.893734840305845"><ele>66.0</ele><time>2026-03-22T11:11:28.952Z</time></trkpt><trkpt lat="43.919052967663184" lon="12.893607073362755"><ele>66.0</ele><time>2026-03-22T11:11:29.952Z</time></trkpt><trkpt lat="43.91921868854659" lon="12.893495477159018"><ele>66.0</ele><time>2026-03-22T11:11:30.952Z</time></trkpt><trkpt lat="43.919379007498506" lon="12.893390813595174"><ele>67.33333333333333</ele><time>2026-03-22T11:11:31.952Z</time></trkpt><trkpt lat="43.91953810688187" lon="12.893286411001203"><ele>68.66666666666666</ele><time>2026-03-22T11:11:32.952Z</time></trkpt><trkpt lat="43.91967886151654" lon="12.893188516384999"><ele>70.0</ele><time>2026-03-22T11:11:33.952Z</time></trkpt><trkpt lat="43.91980405181842" lon="12.893095670482815"><ele>70.0</ele><time>2026-03-22T11:11:34.952Z</time></trkpt><trkpt lat="43.91991379237478" lon="12.893008547994414"><ele>70.0</ele><time>2026-03-22T11:11:35.952Z</time></trkpt><trkpt lat="43.920005772924405" lon="12.892940179838536"><ele>70.0</ele><time>2026-03-22T11:11:36.952Z</time></trkpt><trkpt lat="43.920082564905286" lon="12.892879849938426"><ele>70.0</ele><time>2026-03-22T11:11:37.952Z</time></trkpt><trkpt lat="43.92014988309117" lon="12.892813023221882"><ele>70.0</ele><time>2026-03-22T11:11:38.952Z</time></trkpt><trkpt lat="43.92020973983714" lon="12.89272429650161"><ele>70.8</ele><time>2026-03-22T11:11:39.952Z</time></trkpt><trkpt lat="43.920243472369876" lon="12.892615019071059"><ele>71.6</ele><time>2026-03-22T11:11:40.952Z</time></trkpt><trkpt lat="43.92023476120145" lon="12.892517701846208"><ele>72.4</ele><time>2026-03-22T11:11:41.952Z</time></trkpt><trkpt lat="43.92020174640609" lon="12.892420856640713"><ele>73.2</ele><time>2026-03-22T11:11:42.952Z</time></trkpt><trkpt lat="43.92012730571283" lon="12.892350624337794"><ele>74.0</ele><time>2026-03-22T11:11:43.952Z</time></trkpt><trkpt lat="43.91999780942879" lon="12.892322320182943"><ele>76.75</ele><time>2026-03-22T11:11:44.952Z</time></trkpt><trkpt lat="43.91987934156603" lon="12.89236552946927"><ele>79.5</ele><time>2026-03-22T11:11:45.952Z</time></trkpt><trkpt lat="43.919741547599486" lon="12.892445963872502"><ele>82.25</ele><time>2026-03-22T11:11:46.952Z</time></trkpt><trkpt lat="43.91959452911973" lon="12.892497135023234"><ele>85.0</ele><time>2026-03-22T11:11:47.952Z</time></trkpt><trkpt lat="43.9194649286474" lon="12.8925668038622"><ele>83.5</ele><time>2026-03-22T11:11:48.949Z</time></trkpt><trkpt lat="43.91933890751609" lon="12.892616728701965"><ele>82.0</ele><time>2026-03-22T11:11:49.949Z</time></trkpt><trkpt lat="43.91921198143983" lon="12.892668447026223"><ele>80.5</ele><time>2026-03-22T11:11:50.949Z</time></trkpt><trkpt lat="43.91909033062841" lon="12.89273526439307"><ele>79.0</ele><time>2026-03-22T11:11:51.949Z</time></trkpt><trkpt lat="43.91895373849773" lon="12.892809134823729"><ele>79.0</ele><time>2026-03-22T11:11:52.949Z</time></trkpt><trkpt lat="43.91881231816675" lon="12.892883040161191"><ele>79.0</ele><time>2026-03-22T11:11:53.949Z</time></trkpt><trkpt lat="43.91867753403102" lon="12.892932719978335"><ele>79.0</ele><time>2026-03-22T11:11:54.949Z</time></trkpt><trkpt lat="43.9185376650338" lon="12.893028238816377"><ele>79.0</ele><time>2026-03-22T11:11:55.949Z</time></trkpt><trkpt lat="43.91840240104412" lon="12.893120951129669"><ele>78.0</ele><time>2026-03-22T11:11:56.949Z</time></trkpt><trkpt lat="43.918256935543276" lon="12.893219910753265"><ele>77.0</ele><time>2026-03-22T11:11:57.949Z</time></trkpt><trkpt lat="43.9181099271596" lon="12.89333412596282"><ele>76.0</ele><time>2026-03-22T11:11:58.949Z</time></trkpt><trkpt lat="43.91794855741406" lon="12.893455477412363"><ele>76.0</ele><time>2026-03-22T11:11:59.949Z</time></trkpt><trkpt lat="43.917786595514876" lon="12.893573190816252"><ele>76.0</ele><time>2026-03-22T11:12:00.949Z</time></trkpt><trkpt lat="43.91764739232644" lon="12.893678385059252"><ele>76.0</ele><time>2026-03-22T11:12:01.949Z</time></trkpt><trkpt lat="43.91752919251915" lon="12.893744552085362"><ele>80.19999999999999</ele><time>2026-03-22T11:12:02.949Z</time></trkpt><trkpt lat="43.917438176055605" lon="12.893807106039125"><ele>84.39999999999999</ele><time>2026-03-22T11:12:03.949Z</time></trkpt><trkpt lat="43.917363711278924" lon="12.893856583933276"><ele>88.6</ele><time>2026-03-22T11:12:04.949Z</time></trkpt><trkpt lat="43.91724356933203" lon="12.893887151136049"><ele>92.8</ele><time>2026-03-22T11:12:06.949Z</time></trkpt><trkpt lat="43.917160365752146" lon="12.893762028907696"><ele>97.0</ele><time>2026-03-22T11:12:08.949Z</time></trkpt><trkpt lat="43.91715674730432" lon="12.893634737703227"><ele>97.0</ele><time>2026-03-22T11:12:09.949Z</time></trkpt><trkpt lat="43.917199793063205" lon="12.893490923502112"><ele>97.0</ele><time>2026-03-22T11:12:10.949Z</time></trkpt><trkpt lat="43.91726559422344" lon="12.893339544840568"><ele>97.0</ele><time>2026-03-22T11:12:11.949Z</time></trkpt><trkpt lat="43.917328571572455" lon="12.89315382380171"><ele>97.0</ele><time>2026-03-22T11:12:12.949Z</time></trkpt><trkpt lat="43.91739357848547" lon="12.892943324368506"><ele>98.0</ele><time>2026-03-22T11:12:13.949Z</time></trkpt><trkpt lat="43.91746531675904" lon="12.892727253900059"><ele>99.0</ele><time>2026-03-22T11:12:14.949Z</time></trkpt><trkpt lat="43.9175598197007" lon="12.892479763718491"><ele>100.0</ele><time>2026-03-22T11:12:15.949Z</time></trkpt><trkpt lat="43.917658927885576" lon="12.892233326941668"><ele>101.33333333333334</ele><time>2026-03-22T11:12:16.949Z</time></trkpt><trkpt lat="43.917755425077374" lon="12.891991443897032"><ele>102.66666666666666</ele><time>2026-03-22T11:12:17.949Z</time></trkpt><trkpt lat="43.917831281979154" lon="12.891745694949705"><ele>104.0</ele><time>2026-03-22T11:12:18.949Z</time></trkpt><trkpt lat="43.91790553038718" lon="12.891509313142828"><ele>108.33333333333333</ele><time>2026-03-22T11:12:19.949Z</time></trkpt><trkpt lat="43.917962890900206" lon="12.891295469483389"><ele>112.66666666666666</ele><time>2026-03-22T11:12:20.949Z</time></trkpt><trkpt lat="43.91799048036998" lon="12.89109612722372"><ele>117.0</ele><time>2026-03-22T11:12:21.949Z</time></trkpt><trkpt lat="43.91799004215742" lon="12.890867822197677"><ele>119.0</ele><time>2026-03-22T11:12:22.949Z</time></trkpt><trkpt lat="43.917964667914724" lon="12.890633247200425"><ele>121.0</ele><time>2026-03-22T11:12:23.949Z</time></trkpt><trkpt lat="43.91794155262298" lon="12.890372179651417"><ele>123.0</ele><time>2026-03-22T11:12:24.949Z</time></trkpt><trkpt lat="43.91792318980141" lon="12.890121869016161"><ele>123.66666666666666</ele><time>2026-03-22T11:12:25.949Z</time></trkpt><trkpt lat="43.91792389248034" lon="12.889882582797616"><ele>124.33333333333333</ele><time>2026-03-22T11:12:26.949Z</time></trkpt><trkpt lat="43.91795375375015" lon="12.889657530455159"><ele>125.0</ele><time>2026-03-22T11:12:27.949Z</time></trkpt><trkpt lat="43.91798570752142" lon="12.88947480568911"><ele>125.0</ele><time>2026-03-22T11:12:28.949Z</time></trkpt><trkpt lat="43.91800937441271" lon="12.889353005207491"><ele>125.0</ele><time>2026-03-22T11:12:29.949Z</time></trkpt><trkpt lat="43.91806983294244" lon="12.889224815624024"><ele>125.0</ele><time>2026-03-22T11:12:31.949Z</time></trkpt><trkpt lat="43.91814935837115" lon="12.88919417818942"><ele>125.0</ele><time>2026-03-22T11:12:32.949Z</time></trkpt><trkpt lat="43.91823641889566" lon="12.889230546554323"><ele>125.0</ele><time>2026-03-22T11:12:33.949Z</time></trkpt><trkpt lat="43.918300076206236" lon="12.88933512902883"><ele>125.0</ele><time>2026-03-22T11:12:34.949Z</time></trkpt><trkpt lat="43.91834600940873" lon="12.889500199783777"><ele>125.0</ele><time>2026-03-22T11:12:35.949Z</time></trkpt><trkpt lat="43.918438113698414" lon="12.889689797611148"><ele>125.0</ele><time>2026-03-22T11:12:36.949Z</time></trkpt><trkpt lat="43.91850843395708" lon="12.889883025292955"><ele>125.0</ele><time>2026-03-22T11:12:37.949Z</time></trkpt><trkpt lat="43.91858689546143" lon="12.89006505389316"><ele>125.25</ele><time>2026-03-22T11:12:38.949Z</time></trkpt><trkpt lat="43.9186588610201" lon="12.890218457342973"><ele>125.5</ele><time>2026-03-22T11:12:39.949Z</time></trkpt><trkpt lat="43.91874865030533" lon="12.890341082171878"><ele>125.75</ele><time>2026-03-22T11:12:40.949Z</time></trkpt><trkpt lat="43.918854451453015" lon="12.890441450763205"><ele>126.0</ele><time>2026-03-22T11:12:41.949Z</time></trkpt><trkpt lat="43.9189793371325" lon="12.890507165393615"><ele>126.0</ele><time>2026-03-22T11:12:42.949Z</time></trkpt><trkpt lat="43.91911370496963" lon="12.89053376584399"><ele>126.0</ele><time>2026-03-22T11:12:43.949Z</time></trkpt><trkpt lat="43.91926322279472" lon="12.890518492956216"><ele>126.0</ele><time>2026-03-22T11:12:44.949Z</time></trkpt><trkpt lat="43.919414522467456" lon="12.890458741279685"><ele>126.0</ele><time>2026-03-22T11:12:45.949Z</time></trkpt><trkpt lat="43.91956759094469" lon="12.89038240663999"><ele>127.19999999999999</ele><time>2026-03-22T11:12:46.949Z</time></trkpt><trkpt lat="43.91969169055362" lon="12.890314380421245"><ele>128.39999999999998</ele><time>2026-03-22T11:12:47.949Z</time></trkpt><trkpt lat="43.91977791005189" lon="12.890240473357071"><ele>129.6</ele><time>2026-03-22T11:12:48.949Z</time></trkpt><trkpt lat="43.91983576777975" lon="12.890128937004112"><ele>130.79999999999998</ele><time>2026-03-22T11:12:49.949Z</time></trkpt><trkpt lat="43.91985473564774" lon="12.889989234397788"><ele>132.0</ele><time>2026-03-22T11:12:50.949Z</time></trkpt><trkpt lat="43.91983841325244" lon="12.88981039568536"><ele>132.0</ele><time>2026-03-22T11:12:51.949Z</time></trkpt><trkpt lat="43.91979498079613" lon="12.88962870392398"><ele>132.0</ele><time>2026-03-22T11:12:52.949Z</time></trkpt><trkpt lat="43.91971028448012" lon="12.88941153196168"><ele>132.0</ele><time>2026-03-22T11:12:53.949Z</time></trkpt><trkpt lat="43.91962226675744" lon="12.889165634660708"><ele>133.66666666666666</ele><time>2026-03-22T11:12:54.949Z</time></trkpt><trkpt lat="43.91953957476992" lon="12.888922157094038"><ele>135.33333333333331</ele><time>2026-03-22T11:12:55.949Z</time></trkpt><trkpt lat="43.91946419537307" lon="12.888682300072361"><ele>137.0</ele><time>2026-03-22T11:12:56.949Z</time></trkpt><trkpt lat="43.9194258793319" lon="12.888454707504392"><ele>138.4</ele><time>2026-03-22T11:12:57.949Z</time></trkpt><trkpt lat="43.91941549656843" lon="12.888281696597794"><ele>139.79999999999998</ele><time>2026-03-22T11:12:58.949Z</time></trkpt><trkpt lat="43.919422826709614" lon="12.888142659632972"><ele>141.2</ele><time>2026-03-22T11:12:59.949Z</time></trkpt><trkpt lat="43.919460671656864" lon="12.888032751536718"><ele>142.6</ele><time>2026-03-22T11:13:00.949Z</time></trkpt><trkpt lat="43.919527260753604" lon="12.887955507917578"><ele>144.0</ele><time>2026-03-22T11:13:01.949Z</time></trkpt><trkpt lat="43.91962213750362" lon="12.887928304650995"><ele>144.0</ele><time>2026-03-22T11:13:02.949Z</time></trkpt><trkpt lat="43.91972603902646" lon="12.887989548321567"><ele>144.0</ele><time>2026-03-22T11:13:03.949Z</time></trkpt><trkpt lat="43.91987263545055" lon="12.888015468786826"><ele>144.0</ele><time>2026-03-22T11:13:04.949Z</time></trkpt><trkpt lat="43.920007787202145" lon="12.888033765420404"><ele>144.0</ele><time>2026-03-22T11:13:05.949Z</time></trkpt><trkpt lat="43.92015402229565" lon="12.888065169466415"><ele>140.33333333333334</ele><time>2026-03-22T11:13:06.949Z</time></trkpt><trkpt lat="43.92031099782262" lon="12.88803385195556"><ele>136.66666666666669</ele><time>2026-03-22T11:13:07.949Z</time></trkpt><trkpt lat="43.92044307719873" lon="12.887961669525257"><ele>133.0</ele><time>2026-03-22T11:13:08.949Z</time></trkpt><trkpt lat="43.92057215513759" lon="12.887855931407895"><ele>133.0</ele><time>2026-03-22T11:13:09.949Z</time></trkpt><trkpt lat="43.92070844067918" lon="12.887752466645727"><ele>133.0</ele><time>2026-03-22T11:13:10.949Z</time></trkpt><trkpt lat="43.92085729472151" lon="12.887653326439008"><ele>133.0</ele><time>2026-03-22T11:13:11.949Z</time></trkpt><trkpt lat="43.92098021564088" lon="12.887566424176843"><ele>132.6</ele><time>2026-03-22T11:13:12.949Z</time></trkpt><trkpt lat="43.9210879827424" lon="12.887493378071644"><ele>132.20000000000002</ele><time>2026-03-22T11:13:13.949Z</time></trkpt><trkpt lat="43.92115573290561" lon="12.887421068652877"><ele>131.8</ele><time>2026-03-22T11:13:14.949Z</time></trkpt><trkpt lat="43.9211954457202" lon="12.88732331936736"><ele>131.4</ele><time>2026-03-22T11:13:15.949Z</time></trkpt><trkpt lat="43.92120092548082" lon="12.887210308315172"><ele>131.0</ele><time>2026-03-22T11:13:16.949Z</time></trkpt><trkpt lat="43.92117005625677" lon="12.887104733572594"><ele>131.0</ele><time>2026-03-22T11:13:17.949Z</time></trkpt><trkpt lat="43.92109903285733" lon="12.887029020454092"><ele>131.0</ele><time>2026-03-22T11:13:18.949Z</time></trkpt><trkpt lat="43.921014546935936" lon="12.886996512459488"><ele>131.0</ele><time>2026-03-22T11:13:19.949Z</time></trkpt><trkpt lat="43.92091449487691" lon="12.88703024694995"><ele>131.0</ele><time>2026-03-22T11:13:20.949Z</time></trkpt><trkpt lat="43.92081771158406" lon="12.887117160632263"><ele>131.0</ele><time>2026-03-22T11:13:21.949Z</time></trkpt><trkpt lat="43.92070866522619" lon="12.887214316047078"><ele>135.16666666666666</ele><time>2026-03-22T11:13:22.949Z</time></trkpt><trkpt lat="43.92060416156921" lon="12.887286219305091"><ele>139.33333333333331</ele><time>2026-03-22T11:13:23.949Z</time></trkpt><trkpt lat="43.9205214876323" lon="12.88731477727516"><ele>143.5</ele><time>2026-03-22T11:13:24.949Z</time></trkpt><trkpt lat="43.92045946077956" lon="12.887279380007957"><ele>147.66666666666666</ele><time>2026-03-22T11:13:25.949Z</time></trkpt><trkpt lat="43.920404365421575" lon="12.88722738055794"><ele>151.83333333333334</ele><time>2026-03-22T11:13:26.949Z</time></trkpt><trkpt lat="43.92036885717148" lon="12.887106406875418"><ele>156.0</ele><time>2026-03-22T11:13:27.949Z</time></trkpt><trkpt lat="43.920397161425" lon="12.886958806192867"><ele>156.0</ele><time>2026-03-22T11:13:28.949Z</time></trkpt><trkpt lat="43.92049517366847" lon="12.886812141601833"><ele>156.0</ele><time>2026-03-22T11:13:29.949Z</time></trkpt><trkpt lat="43.92060535048705" lon="12.886695073383455"><ele>156.0</ele><time>2026-03-22T11:13:30.949Z</time></trkpt><trkpt lat="43.92070530033919" lon="12.886564954632743"><ele>156.0</ele><time>2026-03-22T11:13:31.949Z</time></trkpt><trkpt lat="43.92080894003931" lon="12.886429910616144"><ele>159.66666666666666</ele><time>2026-03-22T11:13:32.949Z</time></trkpt><trkpt lat="43.92089246923865" lon="12.886277923103588"><ele>163.33333333333331</ele><time>2026-03-22T11:13:33.949Z</time></trkpt><trkpt lat="43.92094625106397" lon="12.886071516706254"><ele>167.0</ele><time>2026-03-22T11:13:34.949Z</time></trkpt><trkpt lat="43.920957735345205" lon="12.885802038280064"><ele>162.0</ele><time>2026-03-22T11:13:35.949Z</time></trkpt><trkpt lat="43.92098684301895" lon="12.88555228119394"><ele>157.0</ele><time>2026-03-22T11:13:36.949Z</time></trkpt><trkpt lat="43.92102235594375" lon="12.885289763594088"><ele>152.0</ele><time>2026-03-22T11:13:37.949Z</time></trkpt><trkpt lat="43.921085102962785" lon="12.885036131580126"><ele>152.0</ele><time>2026-03-22T11:13:38.949Z</time></trkpt><trkpt lat="43.92129210162214" lon="12.88458265664212"><ele>152.0</ele><time>2026-03-22T11:13:40.95Z</time></trkpt><trkpt lat="43.92142248514444" lon="12.88438343357699"><ele>153.0</ele><time>2026-03-22T11:13:41.95Z</time></trkpt><trkpt lat="43.921587564525645" lon="12.884203962643229"><ele>154.0</ele><time>2026-03-22T11:13:42.95Z</time></trkpt><trkpt lat="43.9217469542346" lon="12.88403629967631"><ele>155.0</ele><time>2026-03-22T11:13:43.95Z</time></trkpt><trkpt lat="43.92192108444795" lon="12.883882507288996"><ele>155.0</ele><time>2026-03-22T11:13:44.95Z</time></trkpt><trkpt lat="43.922099434906315" lon="12.883752145995029"><ele>155.0</ele><time>2026-03-22T11:13:45.95Z</time></trkpt><trkpt lat="43.92229637946876" lon="12.883644902980157"><ele>155.0</ele><time>2026-03-22T11:13:46.95Z</time></trkpt><trkpt lat="43.922504694153204" lon="12.883540614035962"><ele>156.66666666666666</ele><time>2026-03-22T11:13:47.95Z</time></trkpt><trkpt lat="43.92270831783647" lon="12.883420420587912"><ele>158.33333333333334</ele><time>2026-03-22T11:13:48.95Z</time></trkpt><trkpt lat="43.92288741896411" lon="12.883278298233396"><ele>160.0</ele><time>2026-03-22T11:13:49.95Z</time></trkpt><trkpt lat="43.92306775082989" lon="12.88312991198458"><ele>160.0</ele><time>2026-03-22T11:13:50.95Z</time></trkpt><trkpt lat="43.92324556073086" lon="12.882932005194084"><ele>160.0</ele><time>2026-03-22T11:13:51.95Z</time></trkpt><trkpt lat="43.92340998826504" lon="12.882708497549025"><ele>157.0</ele><time>2026-03-22T11:13:52.95Z</time></trkpt><trkpt lat="43.92355581096648" lon="12.88248790547795"><ele>154.0</ele><time>2026-03-22T11:13:53.95Z</time></trkpt><trkpt lat="43.923704520518214" lon="12.882275981203975"><ele>151.0</ele><time>2026-03-22T11:13:54.947Z</time></trkpt><trkpt lat="43.923834989083076" lon="12.882086968302774"><ele>151.0</ele><time>2026-03-22T11:13:55.946Z</time></trkpt><trkpt lat="43.923979193868774" lon="12.881910201840562"><ele>151.0</ele><time>2026-03-22T11:13:56.946Z</time></trkpt><trkpt lat="43.9241137770248" lon="12.881750542595784"><ele>151.0</ele><time>2026-03-22T11:13:57.946Z</time></trkpt><trkpt lat="43.92425484943794" lon="12.881590332573278"><ele>151.33333333333334</ele><time>2026-03-22T11:13:58.947Z</time></trkpt><trkpt lat="43.924380026832964" lon="12.88142615805167"><ele>151.66666666666666</ele><time>2026-03-22T11:13:59.947Z</time></trkpt><trkpt lat="43.92448619835607" lon="12.881253853904498"><ele>152.0</ele><time>2026-03-22T11:14:00.946Z</time></trkpt><trkpt lat="43.924567287449214" lon="12.881064963432646"><ele>156.66666666666666</ele><time>2026-03-22T11:14:01.946Z</time></trkpt><trkpt lat="43.924652924373994" lon="12.880901161116933"><ele>161.33333333333334</ele><time>2026-03-22T11:14:02.946Z</time></trkpt><trkpt lat="43.9247623353831" lon="12.880765169752479"><ele>166.0</ele><time>2026-03-22T11:14:03.946Z</time></trkpt><trkpt lat="43.92490102427918" lon="12.880646643847"><ele>166.0</ele><time>2026-03-22T11:14:04.946Z</time></trkpt><trkpt lat="43.925060895777996" lon="12.880556743288839"><ele>166.0</ele><time>2026-03-22T11:14:05.946Z</time></trkpt><trkpt lat="43.925203477568964" lon="12.880478982835479"><ele>166.0</ele><time>2026-03-22T11:14:06.946Z</time></trkpt><trkpt lat="43.92531797492093" lon="12.88037598700759"><ele>165.5</ele><time>2026-03-22T11:14:07.945Z</time></trkpt><trkpt lat="43.92539609922733" lon="12.880218025990105"><ele>165.0</ele><time>2026-03-22T11:14:08.946Z</time></trkpt><trkpt lat="43.92546138127845" lon="12.880051209975116"><ele>164.5</ele><time>2026-03-22T11:14:09.946Z</time></trkpt><trkpt lat="43.925512829952744" lon="12.879843218251008"><ele>164.0</ele><time>2026-03-22T11:14:10.946Z</time></trkpt><trkpt lat="43.925552109051814" lon="12.879607366131115"><ele>164.0</ele><time>2026-03-22T11:14:11.946Z</time></trkpt><trkpt lat="43.92558949840247" lon="12.87934519764533"><ele>164.0</ele><time>2026-03-22T11:14:12.946Z</time></trkpt><trkpt lat="43.92562279545002" lon="12.879080547387936"><ele>164.0</ele><time>2026-03-22T11:14:13.946Z</time></trkpt><trkpt lat="43.92566633644252" lon="12.878823151396515"><ele>165.33333333333331</ele><time>2026-03-22T11:14:14.946Z</time></trkpt><trkpt lat="43.92570505889216" lon="12.878563979229165"><ele>166.66666666666666</ele><time>2026-03-22T11:14:15.946Z</time></trkpt><trkpt lat="43.92572074162371" lon="12.878307998075135"><ele>168.0</ele><time>2026-03-22T11:14:16.946Z</time></trkpt><trkpt lat="43.9257285337092" lon="12.878053108233795"><ele>168.0</ele><time>2026-03-22T11:14:17.946Z</time></trkpt><trkpt lat="43.925739143288816" lon="12.877810056574516"><ele>168.0</ele><time>2026-03-22T11:14:18.946Z</time></trkpt><trkpt lat="43.92576097720225" lon="12.877581249905319"><ele>168.0</ele><time>2026-03-22T11:14:19.946Z</time></trkpt><trkpt lat="43.925785451121016" lon="12.877372683553853"><ele>166.5</ele><time>2026-03-22T11:14:20.946Z</time></trkpt><trkpt lat="43.92582879350104" lon="12.877192660918174"><ele>165.0</ele><time>2026-03-22T11:14:21.946Z</time></trkpt><trkpt lat="43.92587835987156" lon="12.877035130536845"><ele>163.5</ele><time>2026-03-22T11:14:22.946Z</time></trkpt><trkpt lat="43.92593713533249" lon="12.87691687468931"><ele>162.0</ele><time>2026-03-22T11:14:23.946Z</time></trkpt><trkpt lat="43.92602312415894" lon="12.87684167164735"><ele>161.5</ele><time>2026-03-22T11:14:24.946Z</time></trkpt><trkpt lat="43.92612705151383" lon="12.876819114119401"><ele>161.0</ele><time>2026-03-22T11:14:25.946Z</time></trkpt><trkpt lat="43.926250448183644" lon="12.876850860045613"><ele>160.5</ele><time>2026-03-22T11:14:26.946Z</time></trkpt><trkpt lat="43.926378403623794" lon="12.876887748600929"><ele>160.0</ele><time>2026-03-22T11:14:27.946Z</time></trkpt><trkpt lat="43.92651412705719" lon="12.876948567526568"><ele>160.0</ele><time>2026-03-22T11:14:28.946Z</time></trkpt><trkpt lat="43.92662259006822" lon="12.876981243498612"><ele>160.0</ele><time>2026-03-22T11:14:29.946Z</time></trkpt><trkpt lat="43.926727767787135" lon="12.877008276067867"><ele>160.0</ele><time>2026-03-22T11:14:30.946Z</time></trkpt><trkpt lat="43.926820577961195" lon="12.877035462081476"><ele>160.0</ele><time>2026-03-22T11:14:31.946Z</time></trkpt><trkpt lat="43.926898155821924" lon="12.877059208615567"><ele>160.0</ele><time>2026-03-22T11:14:32.946Z</time></trkpt><trkpt lat="43.92696120277891" lon="12.877072691386553"><ele>155.83333333333334</ele><time>2026-03-22T11:14:33.946Z</time></trkpt><trkpt lat="43.927056808495585" lon="12.877087594841472"><ele>151.66666666666669</ele><time>2026-03-22T11:14:35.946Z</time></trkpt><trkpt lat="43.92712642992905" lon="12.87707394222779"><ele>147.5</ele><time>2026-03-22T11:14:37.946Z</time></trkpt><trkpt lat="43.92719689321576" lon="12.87704879454279"><ele>143.33333333333334</ele><time>2026-03-22T11:14:39.946Z</time></trkpt><trkpt lat="43.927265185038316" lon="12.877021279966385"><ele>139.16666666666666</ele><time>2026-03-22T11:14:42.946Z</time></trkpt><trkpt lat="43.927338227010715" lon="12.87702037260743"><ele>135.0</ele><time>2026-03-22T11:14:45.946Z</time></trkpt><trkpt lat="43.927421177090466" lon="12.877000726145749"><ele>135.0</ele><time>2026-03-22T11:14:48.946Z</time></trkpt><trkpt lat="43.92748048917738" lon="12.876931056566242"><ele>135.0</ele><time>2026-03-22T11:14:51.946Z</time></trkpt><trkpt lat="43.92751823125383" lon="12.876829742947189"><ele>135.0</ele><time>2026-03-22T11:14:54.946Z</time></trkpt><trkpt lat="43.927555298097936" lon="12.876738442692181"><ele>135.0</ele><time>2026-03-22T11:15:00.946Z</time></trkpt><trkpt lat="43.92760733817099" lon="12.876684699759139"><ele>135.0</ele><time>2026-03-22T11:18:24.944Z</time></trkpt><trkpt lat="43.92764733991049" lon="12.876606174559917"><ele>135.0</ele><time>2026-03-22T11:20:21.941Z</time></trkpt><trkpt lat="43.92760247057418" lon="12.876670482587674"><ele>135.0</ele><time>2026-03-22T11:28:04.95Z</time></trkpt><trkpt lat="43.92761835428004" lon="12.876583006621367"><ele>133.33333333333334</ele><time>2026-03-22T11:30:11.946Z</time></trkpt><trkpt lat="43.92762576520361" lon="12.87648873617873"><ele>131.66666666666666</ele><time>2026-03-22T11:30:25.946Z</time></trkpt><trkpt lat="43.92757946190499" lon="12.876415831471308"><ele>130.0</ele><time>2026-03-22T11:30:32.947Z</time></trkpt><trkpt lat="43.92760762068226" lon="12.876288615712706"><ele>128.33333333333331</ele><time>2026-03-22T11:30:34.947Z</time></trkpt><trkpt lat="43.92764114290186" lon="12.87611815796103"><ele>126.66666666666666</ele><time>2026-03-22T11:30:36.947Z</time></trkpt><trkpt lat="43.92765827434762" lon="12.876014557896049"><ele>125.0</ele><time>2026-03-22T11:30:37.947Z</time></trkpt><trkpt lat="43.92767949753154" lon="12.875900469383481"><ele>125.0</ele><time>2026-03-22T11:30:38.947Z</time></trkpt><trkpt lat="43.927694543434015" lon="12.875768399085585"><ele>125.0</ele><time>2026-03-22T11:30:39.947Z</time></trkpt><trkpt lat="43.927715061746746" lon="12.875621180401343"><ele>125.0</ele><time>2026-03-22T11:30:40.947Z</time></trkpt><trkpt lat="43.92774278510613" lon="12.87544500276683"><ele>125.0</ele><time>2026-03-22T11:30:41.947Z</time></trkpt><trkpt lat="43.9277706949807" lon="12.875273531134226"><ele>125.0</ele><time>2026-03-22T11:30:42.944Z</time></trkpt><trkpt lat="43.92779009797142" lon="12.875107460928964"><ele>125.0</ele><time>2026-03-22T11:30:43.944Z</time></trkpt><trkpt lat="43.92781233894322" lon="12.874955791070812"><ele>125.0</ele><time>2026-03-22T11:30:44.944Z</time></trkpt><trkpt lat="43.927827000615906" lon="12.874815001813435"><ele>125.0</ele><time>2026-03-22T11:30:45.944Z</time></trkpt><trkpt lat="43.927838467056176" lon="12.8746996899429"><ele>125.0</ele><time>2026-03-22T11:30:46.945Z</time></trkpt><trkpt lat="43.927854684619206" lon="12.874571153509288"><ele>130.6</ele><time>2026-03-22T11:30:47.945Z</time></trkpt><trkpt lat="43.927869798424695" lon="12.874430213143505"><ele>136.2</ele><time>2026-03-22T11:30:48.944Z</time></trkpt><trkpt lat="43.92789002724048" lon="12.87428501347715"><ele>141.8</ele><time>2026-03-22T11:30:49.944Z</time></trkpt><trkpt lat="43.92791135306823" lon="12.87413251688288"><ele>147.4</ele><time>2026-03-22T11:30:50.944Z</time></trkpt><trkpt lat="43.92793370509365" lon="12.8739720125518"><ele>153.0</ele><time>2026-03-22T11:30:51.944Z</time></trkpt><trkpt lat="43.92795601702852" lon="12.873810530781622"><ele>155.5</ele><time>2026-03-22T11:30:52.944Z</time></trkpt><trkpt lat="43.927970687215776" lon="12.873654197888483"><ele>158.0</ele><time>2026-03-22T11:30:53.944Z</time></trkpt><trkpt lat="43.92798962746076" lon="12.873504136947242"><ele>160.5</ele><time>2026-03-22T11:30:54.944Z</time></trkpt><trkpt lat="43.92801094085401" lon="12.873333781849587"><ele>163.0</ele><time>2026-03-22T11:30:55.944Z</time></trkpt><trkpt lat="43.92803004079462" lon="12.873158559780938"><ele>164.5</ele><time>2026-03-22T11:30:56.944Z</time></trkpt><trkpt lat="43.92804851186395" lon="12.872970008242191"><ele>166.0</ele><time>2026-03-22T11:30:57.944Z</time></trkpt><trkpt lat="43.92807312074659" lon="12.87277619947032"><ele>167.5</ele><time>2026-03-22T11:30:58.944Z</time></trkpt><trkpt lat="43.928100391018155" lon="12.872565040411175"><ele>169.0</ele><time>2026-03-22T11:30:59.944Z</time></trkpt><trkpt lat="43.928122067118466" lon="12.872370458273892"><ele>169.5</ele><time>2026-03-22T11:31:00.944Z</time></trkpt><trkpt lat="43.928144033247484" lon="12.872182913084105"><ele>170.0</ele><time>2026-03-22T11:31:01.944Z</time></trkpt><trkpt lat="43.92816854235965" lon="12.87198899629752"><ele>170.5</ele><time>2026-03-22T11:31:02.944Z</time></trkpt><trkpt lat="43.928190383940276" lon="12.871801564395671"><ele>171.0</ele><time>2026-03-22T11:31:03.944Z</time></trkpt><trkpt lat="43.92820605514234" lon="12.871621675027589"><ele>171.0</ele><time>2026-03-22T11:31:04.944Z</time></trkpt><trkpt lat="43.92819043928406" lon="12.871434663833842"><ele>171.0</ele><time>2026-03-22T11:31:05.944Z</time></trkpt><trkpt lat="43.9281473075738" lon="12.871250799410383"><ele>171.0</ele><time>2026-03-22T11:31:06.944Z</time></trkpt><trkpt lat="43.92808940469706" lon="12.871074461824373"><ele>171.0</ele><time>2026-03-22T11:31:07.944Z</time></trkpt><trkpt lat="43.92802212845689" lon="12.87089163038396"><ele>171.25</ele><time>2026-03-22T11:31:08.944Z</time></trkpt><trkpt lat="43.92796577387628" lon="12.870711967794172"><ele>171.5</ele><time>2026-03-22T11:31:09.944Z</time></trkpt><trkpt lat="43.927908629336805" lon="12.870526662209656"><ele>171.75</ele><time>2026-03-22T11:31:10.944Z</time></trkpt><trkpt lat="43.92785420691044" lon="12.870364545931674"><ele>172.0</ele><time>2026-03-22T11:31:11.944Z</time></trkpt><trkpt lat="43.92781004625032" lon="12.870204730493478"><ele>171.2</ele><time>2026-03-22T11:31:12.944Z</time></trkpt><trkpt lat="43.92777277090046" lon="12.870062311246974"><ele>170.39999999999998</ele><time>2026-03-22T11:31:13.944Z</time></trkpt><trkpt lat="43.92774911945051" lon="12.869918181599612"><ele>169.60000000000002</ele><time>2026-03-22T11:31:14.944Z</time></trkpt><trkpt lat="43.927732224369315" lon="12.869768713146533"><ele>168.8</ele><time>2026-03-22T11:31:15.944Z</time></trkpt><trkpt lat="43.92774986755024" lon="12.869618257347433"><ele>168.0</ele><time>2026-03-22T11:31:16.944Z</time></trkpt><trkpt lat="43.927771282867425" lon="12.869495865275988"><ele>168.0</ele><time>2026-03-22T11:31:17.944Z</time></trkpt><trkpt lat="43.927815863029394" lon="12.869398216847765"><ele>168.0</ele><time>2026-03-22T11:31:18.944Z</time></trkpt><trkpt lat="43.92788785865647" lon="12.86932069060729"><ele>168.0</ele><time>2026-03-22T11:31:19.944Z</time></trkpt><trkpt lat="43.927980064646555" lon="12.869283890157323"><ele>168.0</ele><time>2026-03-22T11:31:20.944Z</time></trkpt><trkpt lat="43.92810328215602" lon="12.869256393801633"><ele>168.0</ele><time>2026-03-22T11:31:21.944Z</time></trkpt><trkpt lat="43.92824227383503" lon="12.869188270687863"><ele>166.8</ele><time>2026-03-22T11:31:22.944Z</time></trkpt><trkpt lat="43.928354252437614" lon="12.869131785370486"><ele>165.60000000000002</ele><time>2026-03-22T11:31:23.944Z</time></trkpt><trkpt lat="43.92844917816788" lon="12.86909476441946"><ele>164.39999999999998</ele><time>2026-03-22T11:31:24.944Z</time></trkpt><trkpt lat="43.928533485552094" lon="12.869114660408101"><ele>163.2</ele><time>2026-03-22T11:31:25.944Z</time></trkpt><trkpt lat="43.928626696877515" lon="12.869180361736342"><ele>162.0</ele><time>2026-03-22T11:31:26.944Z</time></trkpt><trkpt lat="43.92869395965315" lon="12.869329004605431"><ele>162.0</ele><time>2026-03-22T11:31:27.944Z</time></trkpt><trkpt lat="43.928709364698626" lon="12.869495331818515"><ele>162.0</ele><time>2026-03-22T11:31:28.944Z</time></trkpt><trkpt lat="43.92877312694798" lon="12.869669431748488"><ele>162.0</ele><time>2026-03-22T11:31:29.945Z</time></trkpt><trkpt lat="43.92883300347284" lon="12.869792153352082"><ele>162.0</ele><time>2026-03-22T11:31:30.945Z</time></trkpt><trkpt lat="43.928908337063795" lon="12.869882459015349"><ele>162.0</ele><time>2026-03-22T11:31:31.945Z</time></trkpt><trkpt lat="43.928997114088176" lon="12.869921894569188"><ele>162.0</ele><time>2026-03-22T11:31:32.945Z</time></trkpt><trkpt lat="43.929097191072366" lon="12.869910600232826"><ele>162.0</ele><time>2026-03-22T11:31:33.945Z</time></trkpt><trkpt lat="43.929205911094314" lon="12.869835770085192"><ele>162.0</ele><time>2026-03-22T11:31:34.945Z</time></trkpt><trkpt lat="43.92932764183286" lon="12.869720772790098"><ele>160.75</ele><time>2026-03-22T11:31:35.945Z</time></trkpt><trkpt lat="43.929448794065" lon="12.869593190513067"><ele>159.5</ele><time>2026-03-22T11:31:36.945Z</time></trkpt><trkpt lat="43.929565906513645" lon="12.869466223612882"><ele>158.25</ele><time>2026-03-22T11:31:37.945Z</time></trkpt><trkpt lat="43.92968264195765" lon="12.869386567431269"><ele>157.0</ele><time>2026-03-22T11:31:38.945Z</time></trkpt><trkpt lat="43.929815918128526" lon="12.869389153172504"><ele>157.0</ele><time>2026-03-22T11:31:39.945Z</time></trkpt><trkpt lat="43.92995201317417" lon="12.869411483212552"><ele>157.0</ele><time>2026-03-22T11:31:40.945Z</time></trkpt><trkpt lat="43.93011299379015" lon="12.86949146519632"><ele>157.0</ele><time>2026-03-22T11:31:41.945Z</time></trkpt><trkpt lat="43.93027773061279" lon="12.869539526582239"><ele>153.75</ele><time>2026-03-22T11:31:42.945Z</time></trkpt><trkpt lat="43.93042056774304" lon="12.869614791789"><ele>150.5</ele><time>2026-03-22T11:31:43.945Z</time></trkpt><trkpt lat="43.930556392895305" lon="12.869663713713553"><ele>147.25</ele><time>2026-03-22T11:31:44.945Z</time></trkpt><trkpt lat="43.93068450872802" lon="12.869682151634665"><ele>144.0</ele><time>2026-03-22T11:31:45.945Z</time></trkpt><trkpt lat="43.93080545655653" lon="12.869661032503547"><ele>143.0</ele><time>2026-03-22T11:31:46.945Z</time></trkpt><trkpt lat="43.930921398308314" lon="12.869609220340786"><ele>142.0</ele><time>2026-03-22T11:31:47.945Z</time></trkpt><trkpt lat="43.9310280470403" lon="12.869513990822723"><ele>141.0</ele><time>2026-03-22T11:31:48.945Z</time></trkpt><trkpt lat="43.93111967049242" lon="12.86938564757149"><ele>140.0</ele><time>2026-03-22T11:31:49.945Z</time></trkpt><trkpt lat="43.93119777442369" lon="12.869225557179913"><ele>140.0</ele><time>2026-03-22T11:31:50.945Z</time></trkpt><trkpt lat="43.93127654230469" lon="12.86906841142194"><ele>140.0</ele><time>2026-03-22T11:31:51.945Z</time></trkpt><trkpt lat="43.931354478331855" lon="12.868920484587543"><ele>140.0</ele><time>2026-03-22T11:31:52.945Z</time></trkpt><trkpt lat="43.931432307575506" lon="12.868775509562175"><ele>140.0</ele><time>2026-03-22T11:31:53.945Z</time></trkpt><trkpt lat="43.931505314767925" lon="12.868647916074112"><ele>140.0</ele><time>2026-03-22T11:31:54.945Z</time></trkpt><trkpt lat="43.931574665634" lon="12.8685248090685"><ele>140.0</ele><time>2026-03-22T11:31:55.945Z</time></trkpt><trkpt lat="43.931640212738074" lon="12.868409628490685"><ele>140.0</ele><time>2026-03-22T11:31:56.945Z</time></trkpt><trkpt lat="43.93170280983519" lon="12.868297278300854"><ele>140.0</ele><time>2026-03-22T11:31:57.945Z</time></trkpt><trkpt lat="43.931759181767035" lon="12.868193890453401"><ele>140.0</ele><time>2026-03-22T11:31:58.945Z</time></trkpt><trkpt lat="43.93181292252406" lon="12.86809141668933"><ele>140.0</ele><time>2026-03-22T11:31:59.945Z</time></trkpt><trkpt lat="43.931867218397265" lon="12.867995300625838"><ele>140.0</ele><time>2026-03-22T11:32:00.945Z</time></trkpt><trkpt lat="43.93192402928459" lon="12.86790159179228"><ele>140.0</ele><time>2026-03-22T11:32:01.945Z</time></trkpt><trkpt lat="43.93198087913683" lon="12.867796841234687"><ele>140.0</ele><time>2026-03-22T11:32:02.945Z</time></trkpt><trkpt lat="43.932039870256055" lon="12.867688137181068"><ele>140.0</ele><time>2026-03-22T11:32:03.945Z</time></trkpt><trkpt lat="43.932103849008705" lon="12.86757460309279"><ele>140.0</ele><time>2026-03-22T11:32:04.945Z</time></trkpt><trkpt lat="43.932165175462266" lon="12.86745941249645"><ele>140.0</ele><time>2026-03-22T11:32:05.945Z</time></trkpt><trkpt lat="43.93222912289754" lon="12.86735067216504"><ele>140.0</ele><time>2026-03-22T11:32:06.945Z</time></trkpt><trkpt lat="43.93229035713423" lon="12.867251265260196"><ele>140.0</ele><time>2026-03-22T11:32:07.945Z</time></trkpt><trkpt lat="43.93234809457076" lon="12.867160284481683"><ele>140.0</ele><time>2026-03-22T11:32:08.945Z</time></trkpt><trkpt lat="43.93240724261386" lon="12.86706998537134"><ele>140.0</ele><time>2026-03-22T11:32:09.945Z</time></trkpt><trkpt lat="43.932466500319016" lon="12.866978916059796"><ele>140.0</ele><time>2026-03-22T11:32:10.945Z</time></trkpt><trkpt lat="43.932527561588735" lon="12.86690359351898"><ele>140.0</ele><time>2026-03-22T11:32:11.945Z</time></trkpt><trkpt lat="43.93259768040932" lon="12.866844934819342"><ele>140.0</ele><time>2026-03-22T11:32:12.945Z</time></trkpt><trkpt lat="43.932673319456775" lon="12.866803669818061"><ele>140.0</ele><time>2026-03-22T11:32:13.945Z</time></trkpt><trkpt lat="43.932750672165696" lon="12.866766447706365"><ele>140.0</ele><time>2026-03-22T11:32:14.945Z</time></trkpt><trkpt lat="43.932823609154035" lon="12.866729497403023"><ele>140.0</ele><time>2026-03-22T11:32:15.945Z</time></trkpt><trkpt lat="43.93289634742336" lon="12.86669167345742"><ele>140.0</ele><time>2026-03-22T11:32:16.945Z</time></trkpt><trkpt lat="43.93296445562686" lon="12.866644694500447"><ele>140.0</ele><time>2026-03-22T11:32:17.945Z</time></trkpt><trkpt lat="43.933031454854145" lon="12.866584003387471"><ele>140.0</ele><time>2026-03-22T11:32:18.945Z</time></trkpt><trkpt lat="43.933094327132416" lon="12.866497372745076"><ele>140.0</ele><time>2026-03-22T11:32:19.945Z</time></trkpt><trkpt lat="43.933137267146634" lon="12.86640864258263"><ele>140.0</ele><time>2026-03-22T11:32:20.945Z</time></trkpt><trkpt lat="43.933169317892" lon="12.866295661308822"><ele>140.0</ele><time>2026-03-22T11:32:21.945Z</time></trkpt><trkpt lat="43.93318185869477" lon="12.86616222135388"><ele>140.0</ele><time>2026-03-22T11:32:22.945Z</time></trkpt><trkpt lat="43.93318582244309" lon="12.866025328690473"><ele>140.0</ele><time>2026-03-22T11:32:23.945Z</time></trkpt><trkpt lat="43.93318782800918" lon="12.865889664052013"><ele>140.0</ele><time>2026-03-22T11:32:24.945Z</time></trkpt><trkpt lat="43.933189028758804" lon="12.86574830762542"><ele>140.0</ele><time>2026-03-22T11:32:25.945Z</time></trkpt><trkpt lat="43.93319373736479" lon="12.865609086054187"><ele>141.5</ele><time>2026-03-22T11:32:26.945Z</time></trkpt><trkpt lat="43.933199737967016" lon="12.865480925543809"><ele>143.0</ele><time>2026-03-22T11:32:27.945Z</time></trkpt><trkpt lat="43.93320333957718" lon="12.865360629016404"><ele>144.5</ele><time>2026-03-22T11:32:28.945Z</time></trkpt><trkpt lat="43.933204212882764" lon="12.86524578658427"><ele>146.0</ele><time>2026-03-22T11:32:29.945Z</time></trkpt><trkpt lat="43.9331956516982" lon="12.86513240712149"><ele>147.5</ele><time>2026-03-22T11:32:30.945Z</time></trkpt><trkpt lat="43.933152054071435" lon="12.865017532155871"><ele>149.0</ele><time>2026-03-22T11:32:31.945Z</time></trkpt><trkpt lat="43.93308003516286" lon="12.864912851750368"><ele>149.0</ele><time>2026-03-22T11:32:32.945Z</time></trkpt><trkpt lat="43.93298665917647" lon="12.86482076586517"><ele>149.0</ele><time>2026-03-22T11:32:33.945Z</time></trkpt><trkpt lat="43.93289568375826" lon="12.86473798779486"><ele>149.0</ele><time>2026-03-22T11:32:34.945Z</time></trkpt><trkpt lat="43.932808116832824" lon="12.864648731958823"><ele>149.0</ele><time>2026-03-22T11:32:35.945Z</time></trkpt><trkpt lat="43.93272277621238" lon="12.864538731323519"><ele>149.0</ele><time>2026-03-22T11:32:36.945Z</time></trkpt><trkpt lat="43.932646022212786" lon="12.864412975150854"><ele>149.25</ele><time>2026-03-22T11:32:37.945Z</time></trkpt><trkpt lat="43.93257790922169" lon="12.864270004182524"><ele>149.5</ele><time>2026-03-22T11:32:38.945Z</time></trkpt><trkpt lat="43.93251049866313" lon="12.864112676333757"><ele>149.75</ele><time>2026-03-22T11:32:39.945Z</time></trkpt><trkpt lat="43.93243937771965" lon="12.863973031417688"><ele>150.0</ele><time>2026-03-22T11:32:40.945Z</time></trkpt><trkpt lat="43.93238252207457" lon="12.863837472536192"><ele>150.0</ele><time>2026-03-22T11:32:41.945Z</time></trkpt><trkpt lat="43.932324960203196" lon="12.863723895509267"><ele>150.0</ele><time>2026-03-22T11:32:42.945Z</time></trkpt><trkpt lat="43.9322807934915" lon="12.863613456625684"><ele>150.0</ele><time>2026-03-22T11:32:43.945Z</time></trkpt><trkpt lat="43.9322279180372" lon="12.863524572633231"><ele>150.0</ele><time>2026-03-22T11:32:44.945Z</time></trkpt><trkpt lat="43.93218944569261" lon="12.863436203698042"><ele>150.0</ele><time>2026-03-22T11:32:45.945Z</time></trkpt><trkpt lat="43.93215142085598" lon="12.863355525554706"><ele>150.0</ele><time>2026-03-22T11:32:46.945Z</time></trkpt><trkpt lat="43.93212768346799" lon="12.863189141761083"><ele>149.16666666666666</ele><time>2026-03-22T11:32:48.941Z</time></trkpt><trkpt lat="43.93216304267344" lon="12.86310793178997"><ele>148.33333333333334</ele><time>2026-03-22T11:32:49.941Z</time></trkpt><trkpt lat="43.932222890330195" lon="12.863049895432804"><ele>147.5</ele><time>2026-03-22T11:32:50.942Z</time></trkpt><trkpt lat="43.93229573341422" lon="12.863032638846086"><ele>146.66666666666669</ele><time>2026-03-22T11:32:51.941Z</time></trkpt><trkpt lat="43.932363629242424" lon="12.863120272580483"><ele>145.83333333333334</ele><time>2026-03-22T11:32:52.941Z</time></trkpt><trkpt lat="43.932413178109805" lon="12.863223565226592"><ele>145.0</ele><time>2026-03-22T11:32:53.941Z</time></trkpt><trkpt lat="43.93248140881628" lon="12.863351898179697"><ele>143.25</ele><time>2026-03-22T11:32:54.942Z</time></trkpt><trkpt lat="43.9325602938083" lon="12.863479367255119"><ele>141.5</ele><time>2026-03-22T11:32:55.942Z</time></trkpt><trkpt lat="43.9326562520602" lon="12.86365003457568"><ele>139.75</ele><time>2026-03-22T11:32:56.941Z</time></trkpt><trkpt lat="43.93275428200336" lon="12.863829549803096"><ele>138.0</ele><time>2026-03-22T11:32:57.941Z</time></trkpt><trkpt lat="43.93285660936543" lon="12.86400584296439"><ele>138.0</ele><time>2026-03-22T11:32:58.941Z</time></trkpt><trkpt lat="43.932961912587565" lon="12.864184894845792"><ele>138.0</ele><time>2026-03-22T11:32:59.941Z</time></trkpt><trkpt lat="43.93306073184776" lon="12.864358009995719"><ele>138.0</ele><time>2026-03-22T11:33:00.941Z</time></trkpt><trkpt lat="43.93313934154248" lon="12.864522989543461"><ele>140.20000000000002</ele><time>2026-03-22T11:33:01.941Z</time></trkpt><trkpt lat="43.93321367059176" lon="12.864652030769"><ele>142.4</ele><time>2026-03-22T11:33:02.941Z</time></trkpt><trkpt lat="43.93327421954791" lon="12.864767707142464"><ele>144.60000000000002</ele><time>2026-03-22T11:33:03.941Z</time></trkpt><trkpt lat="43.93333954735261" lon="12.864869065522683"><ele>146.8</ele><time>2026-03-22T11:33:04.941Z</time></trkpt><trkpt lat="43.93339876592313" lon="12.86494576133074"><ele>149.0</ele><time>2026-03-22T11:33:05.942Z</time></trkpt><trkpt lat="43.933458247815274" lon="12.864987664863458"><ele>144.6</ele><time>2026-03-22T11:33:06.942Z</time></trkpt><trkpt lat="43.93358058258765" lon="12.864945518534558"><ele>140.2</ele><time>2026-03-22T11:33:08.942Z</time></trkpt><trkpt lat="43.93362940169057" lon="12.864865040619762"><ele>135.79999999999998</ele><time>2026-03-22T11:33:09.942Z</time></trkpt><trkpt lat="43.93365207738973" lon="12.864748541309005"><ele>131.4</ele><time>2026-03-22T11:33:10.942Z</time></trkpt><trkpt lat="43.93364142485543" lon="12.864631603011555"><ele>127.0</ele><time>2026-03-22T11:33:11.942Z</time></trkpt><trkpt lat="43.933596093149234" lon="12.864522046704414"><ele>127.0</ele><time>2026-03-22T11:33:12.942Z</time></trkpt><trkpt lat="43.93349287896386" lon="12.864343166541754"><ele>127.0</ele><time>2026-03-22T11:33:13.942Z</time></trkpt><trkpt lat="43.933367738572784" lon="12.864151389668221"><ele>127.0</ele><time>2026-03-22T11:33:14.942Z</time></trkpt><trkpt lat="43.9332461215979" lon="12.863965757723356"><ele>128.0</ele><time>2026-03-22T11:33:15.942Z</time></trkpt><trkpt lat="43.93312084465862" lon="12.863763741809503"><ele>129.0</ele><time>2026-03-22T11:33:16.942Z</time></trkpt><trkpt lat="43.932997150805996" lon="12.863563055350726"><ele>130.0</ele><time>2026-03-22T11:33:17.942Z</time></trkpt><trkpt lat="43.932866567234825" lon="12.863346785291968"><ele>130.0</ele><time>2026-03-22T11:33:18.942Z</time></trkpt><trkpt lat="43.93273930408832" lon="12.86311225618359"><ele>130.0</ele><time>2026-03-22T11:33:19.942Z</time></trkpt><trkpt lat="43.932624007699665" lon="12.862900293492386"><ele>130.0</ele><time>2026-03-22T11:33:20.942Z</time></trkpt><trkpt lat="43.93251130139241" lon="12.862699542004906"><ele>131.33333333333334</ele><time>2026-03-22T11:33:21.942Z</time></trkpt><trkpt lat="43.93240026672742" lon="12.86251189141746"><ele>132.66666666666666</ele><time>2026-03-22T11:33:22.942Z</time></trkpt><trkpt lat="43.932284759169704" lon="12.862321562054635"><ele>134.0</ele><time>2026-03-22T11:33:23.942Z</time></trkpt><trkpt lat="43.932172794882405" lon="12.86212491732155"><ele>134.0</ele><time>2026-03-22T11:33:24.942Z</time></trkpt><trkpt lat="43.932065742763456" lon="12.861938354554562"><ele>134.0</ele><time>2026-03-22T11:33:25.942Z</time></trkpt><trkpt lat="43.93196250983245" lon="12.861765591197756"><ele>134.0</ele><time>2026-03-22T11:33:26.942Z</time></trkpt><trkpt lat="43.931880242429244" lon="12.861608471507756"><ele>135.0</ele><time>2026-03-22T11:33:27.942Z</time></trkpt><trkpt lat="43.93181342102111" lon="12.861486491568865"><ele>136.0</ele><time>2026-03-22T11:33:28.942Z</time></trkpt><trkpt lat="43.93175606551653" lon="12.861385872028631"><ele>137.0</ele><time>2026-03-22T11:33:29.942Z</time></trkpt><trkpt lat="43.93170093421902" lon="12.861304394881728"><ele>138.0</ele><time>2026-03-22T11:33:30.942Z</time></trkpt><trkpt lat="43.93166375162371" lon="12.86122044085533"><ele>139.0</ele><time>2026-03-22T11:33:31.942Z</time></trkpt><trkpt lat="43.93168000766478" lon="12.861070213359133"><ele>134.75</ele><time>2026-03-22T11:33:33.942Z</time></trkpt><trkpt lat="43.9317826538708" lon="12.861001616870729"><ele>130.5</ele><time>2026-03-22T11:33:35.942Z</time></trkpt><trkpt lat="43.93185512008241" lon="12.86105618396433"><ele>126.25</ele><time>2026-03-22T11:33:36.942Z</time></trkpt><trkpt lat="43.93194432904516" lon="12.861171099017945"><ele>122.0</ele><time>2026-03-22T11:33:37.942Z</time></trkpt><trkpt lat="43.93203168185593" lon="12.861327332477588"><ele>122.0</ele><time>2026-03-22T11:33:38.942Z</time></trkpt><trkpt lat="43.93213288751449" lon="12.86151564211764"><ele>122.0</ele><time>2026-03-22T11:33:39.942Z</time></trkpt><trkpt lat="43.93225346337925" lon="12.861714561313956"><ele>122.0</ele><time>2026-03-22T11:33:40.942Z</time></trkpt><trkpt lat="43.932375010124325" lon="12.861915227587664"><ele>120.33333333333333</ele><time>2026-03-22T11:33:41.942Z</time></trkpt><trkpt lat="43.93247936903664" lon="12.862103649716826"><ele>118.66666666666666</ele><time>2026-03-22T11:33:42.942Z</time></trkpt><trkpt lat="43.93258465754215" lon="12.862271338593832"><ele>117.0</ele><time>2026-03-22T11:33:43.942Z</time></trkpt><trkpt lat="43.93273080806434" lon="12.862427030758493"><ele>117.0</ele><time>2026-03-22T11:33:44.942Z</time></trkpt><trkpt lat="43.93287534030554" lon="12.862566428092808"><ele>117.0</ele><time>2026-03-22T11:33:45.942Z</time></trkpt><trkpt lat="43.933015282311416" lon="12.86270721411231"><ele>117.0</ele><time>2026-03-22T11:33:46.942Z</time></trkpt><trkpt lat="43.933166782576954" lon="12.862836585864208"><ele>116.0</ele><time>2026-03-22T11:33:47.942Z</time></trkpt><trkpt lat="43.93330125175779" lon="12.862964385279092"><ele>115.0</ele><time>2026-03-22T11:33:48.942Z</time></trkpt><trkpt lat="43.9334340913635" lon="12.863092555002252"><ele>114.0</ele><time>2026-03-22T11:33:49.942Z</time></trkpt><trkpt lat="43.93355025475325" lon="12.863232785113249"><ele>114.0</ele><time>2026-03-22T11:33:50.942Z</time></trkpt><trkpt lat="43.93366119317995" lon="12.863385083434197"><ele>114.0</ele><time>2026-03-22T11:33:51.942Z</time></trkpt><trkpt lat="43.933739487705395" lon="12.863548871475762"><ele>114.0</ele><time>2026-03-22T11:33:52.942Z</time></trkpt><trkpt lat="43.93382803249726" lon="12.863678158519399"><ele>114.0</ele><time>2026-03-22T11:33:53.942Z</time></trkpt><trkpt lat="43.93393153676112" lon="12.863786312077982"><ele>115.2</ele><time>2026-03-22T11:33:54.942Z</time></trkpt><trkpt lat="43.93404005795705" lon="12.863877752533947"><ele>116.4</ele><time>2026-03-22T11:33:55.942Z</time></trkpt><trkpt lat="43.93412624135747" lon="12.863943181117502"><ele>117.6</ele><time>2026-03-22T11:33:56.942Z</time></trkpt><trkpt lat="43.93420769817167" lon="12.863996441600216"><ele>118.8</ele><time>2026-03-22T11:33:57.942Z</time></trkpt><trkpt lat="43.93427987817428" lon="12.864012940330056"><ele>120.0</ele><time>2026-03-22T11:33:58.942Z</time></trkpt><trkpt lat="43.934359117853525" lon="12.863958947399901"><ele>120.0</ele><time>2026-03-22T11:33:59.942Z</time></trkpt><trkpt lat="43.93443612479272" lon="12.863855870288972"><ele>120.0</ele><time>2026-03-22T11:34:00.942Z</time></trkpt><trkpt lat="43.93448622187899" lon="12.863726684373177"><ele>120.0</ele><time>2026-03-22T11:34:01.942Z</time></trkpt><trkpt lat="43.93452727232301" lon="12.863548623964922"><ele>120.0</ele><time>2026-03-22T11:34:02.942Z</time></trkpt><trkpt lat="43.93451957716052" lon="12.863263777996885"><ele>118.0</ele><time>2026-03-22T11:34:03.942Z</time></trkpt><trkpt lat="43.93453424824488" lon="12.863003570218524"><ele>116.0</ele><time>2026-03-22T11:34:04.942Z</time></trkpt><trkpt lat="43.9345765575907" lon="12.862739651071388"><ele>114.0</ele><time>2026-03-22T11:34:05.942Z</time></trkpt><trkpt lat="43.93462459149582" lon="12.862482766538113"><ele>111.66666666666666</ele><time>2026-03-22T11:34:06.942Z</time></trkpt><trkpt lat="43.93467659507062" lon="12.862246815294599"><ele>109.33333333333333</ele><time>2026-03-22T11:34:07.942Z</time></trkpt><trkpt lat="43.934742683003044" lon="12.862024315766101"><ele>107.0</ele><time>2026-03-22T11:34:08.942Z</time></trkpt><trkpt lat="43.93482772109101" lon="12.861791829575349"><ele>106.33333333333333</ele><time>2026-03-22T11:34:09.942Z</time></trkpt><trkpt lat="43.934932239125125" lon="12.86156654779221"><ele>105.66666666666666</ele><time>2026-03-22T11:34:10.942Z</time></trkpt><trkpt lat="43.93503758800961" lon="12.861355157933101"><ele>105.0</ele><time>2026-03-22T11:34:11.942Z</time></trkpt><trkpt lat="43.93514280979094" lon="12.861163198790825"><ele>105.0</ele><time>2026-03-22T11:34:12.942Z</time></trkpt><trkpt lat="43.935239240762066" lon="12.861001884457426"><ele>105.0</ele><time>2026-03-22T11:34:13.942Z</time></trkpt><trkpt lat="43.93532655959163" lon="12.860858749233907"><ele>105.0</ele><time>2026-03-22T11:34:14.942Z</time></trkpt><trkpt lat="43.93538101826" lon="12.860710523364371"><ele>105.0</ele><time>2026-03-22T11:34:15.942Z</time></trkpt><trkpt lat="43.93541281273224" lon="12.8605458698215"><ele>104.5</ele><time>2026-03-22T11:34:16.942Z</time></trkpt><trkpt lat="43.93542864102512" lon="12.860357812851564"><ele>104.0</ele><time>2026-03-22T11:34:17.942Z</time></trkpt><trkpt lat="43.93542241775367" lon="12.860150953086684"><ele>103.5</ele><time>2026-03-22T11:34:18.942Z</time></trkpt><trkpt lat="43.93540864427224" lon="12.859938517810795"><ele>103.0</ele><time>2026-03-22T11:34:19.942Z</time></trkpt><trkpt lat="43.935395617881774" lon="12.859734231926513"><ele>103.0</ele><time>2026-03-22T11:34:20.942Z</time></trkpt><trkpt lat="43.935367737318565" lon="12.85955007802506"><ele>103.0</ele><time>2026-03-22T11:34:21.942Z</time></trkpt><trkpt lat="43.93530864830819" lon="12.859365270286602"><ele>103.0</ele><time>2026-03-22T11:34:22.942Z</time></trkpt><trkpt lat="43.93521871058914" lon="12.85916555526151"><ele>101.33333333333334</ele><time>2026-03-22T11:34:23.942Z</time></trkpt><trkpt lat="43.935129419535194" lon="12.858945226398454"><ele>99.66666666666666</ele><time>2026-03-22T11:34:24.942Z</time></trkpt><trkpt lat="43.935036377288824" lon="12.858718353476046"><ele>98.0</ele><time>2026-03-22T11:34:25.942Z</time></trkpt><trkpt lat="43.93493495450174" lon="12.858526105088108"><ele>100.25</ele><time>2026-03-22T11:34:26.942Z</time></trkpt><trkpt lat="43.93484971352205" lon="12.858365296006696"><ele>102.5</ele><time>2026-03-22T11:34:27.942Z</time></trkpt><trkpt lat="43.93476443860215" lon="12.858240791241425"><ele>104.75</ele><time>2026-03-22T11:34:28.942Z</time></trkpt><trkpt lat="43.934700560810974" lon="12.858117641426633"><ele>107.0</ele><time>2026-03-22T11:34:29.942Z</time></trkpt><trkpt lat="43.934663486072" lon="12.857982504257482"><ele>107.0</ele><time>2026-03-22T11:34:30.942Z</time></trkpt><trkpt lat="43.93465928045304" lon="12.85782836764772"><ele>107.0</ele><time>2026-03-22T11:34:31.942Z</time></trkpt><trkpt lat="43.93470099418257" lon="12.85763197417989"><ele>107.0</ele><time>2026-03-22T11:34:32.942Z</time></trkpt><trkpt lat="43.934732305015785" lon="12.857437251559"><ele>107.0</ele><time>2026-03-22T11:34:33.942Z</time></trkpt><trkpt lat="43.934706201381836" lon="12.857281309916216"><ele>108.5</ele><time>2026-03-22T11:34:34.942Z</time></trkpt><trkpt lat="43.93463350700947" lon="12.857151287545836"><ele>110.0</ele><time>2026-03-22T11:34:35.942Z</time></trkpt><trkpt lat="43.93454084427479" lon="12.85700320917484"><ele>111.5</ele><time>2026-03-22T11:34:36.942Z</time></trkpt><trkpt lat="43.93441367109813" lon="12.85686685891696"><ele>113.0</ele><time>2026-03-22T11:34:37.942Z</time></trkpt><trkpt lat="43.93428286721137" lon="12.85672269389786"><ele>111.0</ele><time>2026-03-22T11:34:38.942Z</time></trkpt><trkpt lat="43.934153493054666" lon="12.856578521635209"><ele>109.0</ele><time>2026-03-22T11:34:39.942Z</time></trkpt><trkpt lat="43.934034438622525" lon="12.856437822699363"><ele>107.0</ele><time>2026-03-22T11:34:40.942Z</time></trkpt><trkpt lat="43.93394323905653" lon="12.856305937073358"><ele>107.0</ele><time>2026-03-22T11:34:41.942Z</time></trkpt><trkpt lat="43.93385593779663" lon="12.856183560209413"><ele>107.0</ele><time>2026-03-22T11:34:42.942Z</time></trkpt><trkpt lat="43.933795075823824" lon="12.856030666728737"><ele>107.0</ele><time>2026-03-22T11:34:43.942Z</time></trkpt><trkpt lat="43.93374409457501" lon="12.855873793931528"><ele>107.0</ele><time>2026-03-22T11:34:44.942Z</time></trkpt><trkpt lat="43.933695790647285" lon="12.85569239177058"><ele>108.66666666666666</ele><time>2026-03-22T11:34:45.942Z</time></trkpt><trkpt lat="43.93364642661051" lon="12.855534041976968"><ele>110.33333333333333</ele><time>2026-03-22T11:34:46.942Z</time></trkpt><trkpt lat="43.93360036948607" lon="12.855423413783837"><ele>112.0</ele><time>2026-03-22T11:34:47.942Z</time></trkpt><trkpt lat="43.9335757875694" lon="12.855326547022983"><ele>113.66666666666666</ele><time>2026-03-22T11:34:48.942Z</time></trkpt><trkpt lat="43.93358631271098" lon="12.855238163062184"><ele>115.33333333333333</ele><time>2026-03-22T11:34:49.942Z</time></trkpt><trkpt lat="43.93363265900614" lon="12.855166121409603"><ele>117.0</ele><time>2026-03-22T11:34:50.942Z</time></trkpt><trkpt lat="43.933712986366736" lon="12.855124872867872"><ele>116.25</ele><time>2026-03-22T11:34:51.942Z</time></trkpt><trkpt lat="43.93384219173692" lon="12.855117827561363"><ele>115.5</ele><time>2026-03-22T11:34:52.942Z</time></trkpt><trkpt lat="43.93399902700417" lon="12.855117885992014"><ele>114.75</ele><time>2026-03-22T11:34:53.94Z</time></trkpt><trkpt lat="43.934150994653365" lon="12.855091321302629"><ele>114.0</ele><time>2026-03-22T11:34:54.939Z</time></trkpt><trkpt lat="43.93429046784551" lon="12.855013730989732"><ele>116.33333333333334</ele><time>2026-03-22T11:34:55.939Z</time></trkpt><trkpt lat="43.93442881495263" lon="12.854901883344237"><ele>118.66666666666667</ele><time>2026-03-22T11:34:56.939Z</time></trkpt><trkpt lat="43.93456342951479" lon="12.85473059687539"><ele>121.0</ele><time>2026-03-22T11:34:57.939Z</time></trkpt><trkpt lat="43.93469916288874" lon="12.854554211003057"><ele>121.0</ele><time>2026-03-22T11:34:58.939Z</time></trkpt><trkpt lat="43.934835947183636" lon="12.854379034848218"><ele>121.0</ele><time>2026-03-22T11:34:59.939Z</time></trkpt><trkpt lat="43.934972105274014" lon="12.854217018002618"><ele>121.0</ele><time>2026-03-22T11:35:00.939Z</time></trkpt><trkpt lat="43.93509963300894" lon="12.854059649878582"><ele>122.0</ele><time>2026-03-22T11:35:01.939Z</time></trkpt><trkpt lat="43.93522296567456" lon="12.853913228302611"><ele>123.0</ele><time>2026-03-22T11:35:02.939Z</time></trkpt><trkpt lat="43.935340079213546" lon="12.853782476432775"><ele>124.0</ele><time>2026-03-22T11:35:03.938Z</time></trkpt><trkpt lat="43.935442823261845" lon="12.853638874967812"><ele>124.0</ele><time>2026-03-22T11:35:04.938Z</time></trkpt><trkpt lat="43.93553734087751" lon="12.853470189599518"><ele>124.0</ele><time>2026-03-22T11:35:05.939Z</time></trkpt><trkpt lat="43.93561638245659" lon="12.85327532370108"><ele>124.0</ele><time>2026-03-22T11:35:06.939Z</time></trkpt><trkpt lat="43.93569213653521" lon="12.853060808156759"><ele>123.25</ele><time>2026-03-22T11:35:07.939Z</time></trkpt><trkpt lat="43.93576155828357" lon="12.852841610999134"><ele>122.5</ele><time>2026-03-22T11:35:08.939Z</time></trkpt><trkpt lat="43.935814443135705" lon="12.85266313033158"><ele>121.75</ele><time>2026-03-22T11:35:09.939Z</time></trkpt><trkpt lat="43.93588249140399" lon="12.852502014432586"><ele>121.0</ele><time>2026-03-22T11:35:10.939Z</time></trkpt><trkpt lat="43.93597038142522" lon="12.852350588396702"><ele>121.0</ele><time>2026-03-22T11:35:11.939Z</time></trkpt><trkpt lat="43.93605551238234" lon="12.852222060472378"><ele>121.0</ele><time>2026-03-22T11:35:12.939Z</time></trkpt><trkpt lat="43.93613746700383" lon="12.852105848367557"><ele>121.0</ele><time>2026-03-22T11:35:13.939Z</time></trkpt><trkpt lat="43.93621875808577" lon="12.852010229067584"><ele>121.0</ele><time>2026-03-22T11:35:14.939Z</time></trkpt><trkpt lat="43.936312735840374" lon="12.851948206849645"><ele>121.0</ele><time>2026-03-22T11:35:15.939Z</time></trkpt><trkpt lat="43.936409412255095" lon="12.851919705496412"><ele>121.0</ele><time>2026-03-22T11:35:16.939Z</time></trkpt><trkpt lat="43.93651352417691" lon="12.851918484043205"><ele>121.0</ele><time>2026-03-22T11:35:17.939Z</time></trkpt><trkpt lat="43.93660229193763" lon="12.85197662428786"><ele>121.0</ele><time>2026-03-22T11:35:18.939Z</time></trkpt><trkpt lat="43.936690000206376" lon="12.852061151930048"><ele>121.0</ele><time>2026-03-22T11:35:19.939Z</time></trkpt><trkpt lat="43.93676754579477" lon="12.852158661591394"><ele>121.75</ele><time>2026-03-22T11:35:20.939Z</time></trkpt><trkpt lat="43.93688232631614" lon="12.852303744603075"><ele>122.5</ele><time>2026-03-22T11:35:21.939Z</time></trkpt><trkpt lat="43.936996665140555" lon="12.852425330859623"><ele>123.25</ele><time>2026-03-22T11:35:22.939Z</time></trkpt><trkpt lat="43.93710481644091" lon="12.85254166285924"><ele>124.0</ele><time>2026-03-22T11:35:23.939Z</time></trkpt><trkpt lat="43.937227455871636" lon="12.852643519519706"><ele>124.0</ele><time>2026-03-22T11:35:24.939Z</time></trkpt><trkpt lat="43.93738485518277" lon="12.852712729129522"><ele>124.0</ele><time>2026-03-22T11:35:25.939Z</time></trkpt><trkpt lat="43.93755119244846" lon="12.852774238457783"><ele>124.0</ele><time>2026-03-22T11:35:26.939Z</time></trkpt><trkpt lat="43.93770727922411" lon="12.852844867217915"><ele>118.0</ele><time>2026-03-22T11:35:27.939Z</time></trkpt><trkpt lat="43.937837357161875" lon="12.852960130724506"><ele>112.0</ele><time>2026-03-22T11:35:28.939Z</time></trkpt><trkpt lat="43.937962130560905" lon="12.853087834682722"><ele>106.0</ele><time>2026-03-22T11:35:29.939Z</time></trkpt><trkpt lat="43.93811086296309" lon="12.853238687608274"><ele>106.0</ele><time>2026-03-22T11:35:30.939Z</time></trkpt><trkpt lat="43.93826697015728" lon="12.853377655088504"><ele>106.0</ele><time>2026-03-22T11:35:31.939Z</time></trkpt><trkpt lat="43.93840621025619" lon="12.853498238035654"><ele>106.0</ele><time>2026-03-22T11:35:32.939Z</time></trkpt><trkpt lat="43.93855268980396" lon="12.853597512894293"><ele>103.5</ele><time>2026-03-22T11:35:33.939Z</time></trkpt><trkpt lat="43.938686419744144" lon="12.853684063799246"><ele>101.0</ele><time>2026-03-22T11:35:34.939Z</time></trkpt><trkpt lat="43.93880529944824" lon="12.85374086158107"><ele>98.5</ele><time>2026-03-22T11:35:35.939Z</time></trkpt><trkpt lat="43.938901546610616" lon="12.853815957471017"><ele>96.0</ele><time>2026-03-22T11:35:36.939Z</time></trkpt><trkpt lat="43.938989467542136" lon="12.853840894623058"><ele>96.0</ele><time>2026-03-22T11:35:37.939Z</time></trkpt><trkpt lat="43.93907870638679" lon="12.853808762164157"><ele>96.0</ele><time>2026-03-22T11:35:38.939Z</time></trkpt><trkpt lat="43.93914606309766" lon="12.85376785352678"><ele>96.0</ele><time>2026-03-22T11:35:39.939Z</time></trkpt><trkpt lat="43.93921542085139" lon="12.853664547585025"><ele>96.0</ele><time>2026-03-22T11:35:40.939Z</time></trkpt><trkpt lat="43.93927594465421" lon="12.853484979257853"><ele>96.0</ele><time>2026-03-22T11:35:41.939Z</time></trkpt><trkpt lat="43.9393261148671" lon="12.853280101168872"><ele>91.33333333333333</ele><time>2026-03-22T11:35:42.939Z</time></trkpt><trkpt lat="43.93937744935925" lon="12.853054782265863"><ele>86.66666666666666</ele><time>2026-03-22T11:35:43.939Z</time></trkpt><trkpt lat="43.939438620504696" lon="12.85280817985145"><ele>82.0</ele><time>2026-03-22T11:35:44.939Z</time></trkpt><trkpt lat="43.93947869554364" lon="12.8525511491065"><ele>82.0</ele><time>2026-03-22T11:35:45.939Z</time></trkpt><trkpt lat="43.93951075607846" lon="12.852272945444009"><ele>82.0</ele><time>2026-03-22T11:35:46.939Z</time></trkpt><trkpt lat="43.93954572766868" lon="12.8520226312981"><ele>82.0</ele><time>2026-03-22T11:35:47.939Z</time></trkpt><trkpt lat="43.939566375283455" lon="12.851807981780215"><ele>88.0</ele><time>2026-03-22T11:35:48.939Z</time></trkpt><trkpt lat="43.93958291248663" lon="12.851600022330706"><ele>94.0</ele><time>2026-03-22T11:35:49.939Z</time></trkpt><trkpt lat="43.9395821599174" lon="12.851393821813687"><ele>100.0</ele><time>2026-03-22T11:35:50.939Z</time></trkpt><trkpt lat="43.9395613765933" lon="12.851186815679412"><ele>100.0</ele><time>2026-03-22T11:35:51.939Z</time></trkpt><trkpt lat="43.93953276243358" lon="12.850983655433296"><ele>100.0</ele><time>2026-03-22T11:35:52.939Z</time></trkpt><trkpt lat="43.93949875163111" lon="12.850767914547713"><ele>100.0</ele><time>2026-03-22T11:35:53.939Z</time></trkpt><trkpt lat="43.93947224119212" lon="12.850561809475673"><ele>103.75</ele><time>2026-03-22T11:35:54.939Z</time></trkpt><trkpt lat="43.939435287745056" lon="12.850360669513936"><ele>107.5</ele><time>2026-03-22T11:35:55.939Z</time></trkpt><trkpt lat="43.93940806803903" lon="12.850182517497492"><ele>111.25</ele><time>2026-03-22T11:35:56.939Z</time></trkpt><trkpt lat="43.939387069679135" lon="12.850012582543927"><ele>115.0</ele><time>2026-03-22T11:35:57.939Z</time></trkpt><trkpt lat="43.93935645428051" lon="12.849838914421701"><ele>115.75</ele><time>2026-03-22T11:35:58.939Z</time></trkpt><trkpt lat="43.93933711762493" lon="12.849668714353973"><ele>116.5</ele><time>2026-03-22T11:35:59.939Z</time></trkpt><trkpt lat="43.93931616135177" lon="12.849500917730978"><ele>117.25</ele><time>2026-03-22T11:36:00.939Z</time></trkpt><trkpt lat="43.939293771005204" lon="12.849321936320873"><ele>118.0</ele><time>2026-03-22T11:36:01.939Z</time></trkpt><trkpt lat="43.939268907720106" lon="12.849137450268062"><ele>116.0</ele><time>2026-03-22T11:36:02.939Z</time></trkpt><trkpt lat="43.939221998602356" lon="12.848949708174784"><ele>114.0</ele><time>2026-03-22T11:36:03.939Z</time></trkpt><trkpt lat="43.939154797301256" lon="12.848757725271048"><ele>112.0</ele><time>2026-03-22T11:36:04.939Z</time></trkpt><trkpt lat="43.93907820115382" lon="12.84856198309233"><ele>109.5</ele><time>2026-03-22T11:36:05.939Z</time></trkpt><trkpt lat="43.93900484258183" lon="12.848355064040058"><ele>107.0</ele><time>2026-03-22T11:36:06.939Z</time></trkpt><trkpt lat="43.938937661835915" lon="12.848170061968034"><ele>104.5</ele><time>2026-03-22T11:36:07.939Z</time></trkpt><trkpt lat="43.93887433745001" lon="12.848023897553631"><ele>102.0</ele><time>2026-03-22T11:36:08.939Z</time></trkpt><trkpt lat="43.93882687457096" lon="12.84790891974807"><ele>102.0</ele><time>2026-03-22T11:36:09.939Z</time></trkpt><trkpt lat="43.93881124149413" lon="12.847802458204859"><ele>102.0</ele><time>2026-03-22T11:36:10.939Z</time></trkpt><trkpt lat="43.938831610903705" lon="12.847703649911281"><ele>102.0</ele><time>2026-03-22T11:36:11.939Z</time></trkpt><trkpt lat="43.938886347986376" lon="12.84763034192887"><ele>102.0</ele><time>2026-03-22T11:36:12.939Z</time></trkpt><trkpt lat="43.93896437937511" lon="12.847583490241389"><ele>102.0</ele><time>2026-03-22T11:36:13.939Z</time></trkpt><trkpt lat="43.93904901828946" lon="12.847596770614322"><ele>102.0</ele><time>2026-03-22T11:36:14.939Z</time></trkpt><trkpt lat="43.9391299322905" lon="12.847729917883987"><ele>102.25</ele><time>2026-03-22T11:36:15.939Z</time></trkpt><trkpt lat="43.93925631746355" lon="12.847802257424993"><ele>102.5</ele><time>2026-03-22T11:36:16.939Z</time></trkpt><trkpt lat="43.93937853640412" lon="12.847889911761476"><ele>102.75</ele><time>2026-03-22T11:36:17.939Z</time></trkpt><trkpt lat="43.93955003525462" lon="12.847924642077079"><ele>103.0</ele><time>2026-03-22T11:36:18.939Z</time></trkpt><trkpt lat="43.939721138628855" lon="12.847951645048118"><ele>103.0</ele><time>2026-03-22T11:36:19.939Z</time></trkpt><trkpt lat="43.93988072698941" lon="12.847965399170654"><ele>103.0</ele><time>2026-03-22T11:36:20.939Z</time></trkpt><trkpt lat="43.940038132664014" lon="12.847951598601448"><ele>103.0</ele><time>2026-03-22T11:36:21.939Z</time></trkpt><trkpt lat="43.94018696215419" lon="12.847908672007229"><ele>102.25</ele><time>2026-03-22T11:36:22.939Z</time></trkpt><trkpt lat="43.940327953970325" lon="12.847886169672936"><ele>101.5</ele><time>2026-03-22T11:36:23.939Z</time></trkpt><trkpt lat="43.94045964704384" lon="12.847905949619879"><ele>100.75</ele><time>2026-03-22T11:36:24.939Z</time></trkpt><trkpt lat="43.9405865294616" lon="12.847968156424308"><ele>100.0</ele><time>2026-03-22T11:36:25.939Z</time></trkpt><trkpt lat="43.94071423785663" lon="12.84811973386861"><ele>100.0</ele><time>2026-03-22T11:36:26.939Z</time></trkpt><trkpt lat="43.94085259660412" lon="12.848197738270219"><ele>100.0</ele><time>2026-03-22T11:36:27.939Z</time></trkpt><trkpt lat="43.94098121561569" lon="12.84829080801851"><ele>100.0</ele><time>2026-03-22T11:36:28.939Z</time></trkpt><trkpt lat="43.94111675410159" lon="12.848326749888738"><ele>100.0</ele><time>2026-03-22T11:36:29.939Z</time></trkpt><trkpt lat="43.9412610816704" lon="12.84832329107959"><ele>97.0</ele><time>2026-03-22T11:36:30.939Z</time></trkpt><trkpt lat="43.94141812128856" lon="12.84828486237357"><ele>94.0</ele><time>2026-03-22T11:36:31.939Z</time></trkpt><trkpt lat="43.94155679909995" lon="12.848247313490884"><ele>91.0</ele><time>2026-03-22T11:36:32.939Z</time></trkpt><trkpt lat="43.94168586749426" lon="12.848194006095637"><ele>88.0</ele><time>2026-03-22T11:36:33.939Z</time></trkpt><trkpt lat="43.941804250225566" lon="12.848083727451758"><ele>79.33333333333333</ele><time>2026-03-22T11:36:34.94Z</time></trkpt><trkpt lat="43.941908712377696" lon="12.847939921328578"><ele>70.66666666666667</ele><time>2026-03-22T11:36:35.94Z</time></trkpt><trkpt lat="43.94199235168589" lon="12.847754038956133"><ele>62.0</ele><time>2026-03-22T11:36:36.94Z</time></trkpt><trkpt lat="43.94205832369677" lon="12.84755575053403"><ele>62.0</ele><time>2026-03-22T11:36:37.94Z</time></trkpt><trkpt lat="43.94210321271347" lon="12.847352669999553"><ele>62.0</ele><time>2026-03-22T11:36:38.94Z</time></trkpt><trkpt lat="43.94212507474008" lon="12.84715680670727"><ele>62.0</ele><time>2026-03-22T11:36:39.94Z</time></trkpt><trkpt lat="43.94211585173335" lon="12.846962254837555"><ele>62.0</ele><time>2026-03-22T11:36:40.94Z</time></trkpt><trkpt lat="43.94206997888589" lon="12.846747632928945"><ele>69.66666666666667</ele><time>2026-03-22T11:36:41.94Z</time></trkpt><trkpt lat="43.942004026800845" lon="12.84652179235808"><ele>77.33333333333333</ele><time>2026-03-22T11:36:42.94Z</time></trkpt><trkpt lat="43.94192400059869" lon="12.846284344907101"><ele>85.0</ele><time>2026-03-22T11:36:43.94Z</time></trkpt><trkpt lat="43.94184372319765" lon="12.84604805892212"><ele>90.66666666666666</ele><time>2026-03-22T11:36:44.94Z</time></trkpt><trkpt lat="43.94175666853239" lon="12.84580765297364"><ele>96.33333333333333</ele><time>2026-03-22T11:36:45.94Z</time></trkpt><trkpt lat="43.94166905536535" lon="12.845550945211619"><ele>102.0</ele><time>2026-03-22T11:36:46.94Z</time></trkpt><trkpt lat="43.94158009580569" lon="12.845289971056678"><ele>105.66666666666666</ele><time>2026-03-22T11:36:47.94Z</time></trkpt><trkpt lat="43.94149800761435" lon="12.845025836679824"><ele>109.33333333333333</ele><time>2026-03-22T11:36:48.94Z</time></trkpt><trkpt lat="43.9414460368223" lon="12.844790370294485"><ele>113.0</ele><time>2026-03-22T11:36:49.94Z</time></trkpt><trkpt lat="43.94141173936056" lon="12.844582407703706"><ele>113.0</ele><time>2026-03-22T11:36:50.94Z</time></trkpt><trkpt lat="43.941401495281966" lon="12.844374330714878"><ele>113.0</ele><time>2026-03-22T11:36:51.94Z</time></trkpt><trkpt lat="43.94139826826772" lon="12.844202432423192"><ele>113.0</ele><time>2026-03-22T11:36:52.94Z</time></trkpt><trkpt lat="43.94137825210811" lon="12.84408510459531"><ele>113.0</ele><time>2026-03-22T11:36:53.94Z</time></trkpt><trkpt lat="43.94131202172375" lon="12.843992554724991"><ele>111.75</ele><time>2026-03-22T11:36:54.94Z</time></trkpt><trkpt lat="43.94120288919534" lon="12.843921177532673"><ele>110.5</ele><time>2026-03-22T11:36:55.94Z</time></trkpt><trkpt lat="43.9410733443315" lon="12.84390076772569"><ele>109.25</ele><time>2026-03-22T11:36:56.94Z</time></trkpt><trkpt lat="43.940917446202846" lon="12.843919359615818"><ele>108.0</ele><time>2026-03-22T11:36:57.94Z</time></trkpt><trkpt lat="43.94077115447763" lon="12.843880760869787"><ele>108.0</ele><time>2026-03-22T11:36:58.94Z</time></trkpt><trkpt lat="43.94062144649727" lon="12.843803600677015"><ele>108.0</ele><time>2026-03-22T11:36:59.937Z</time></trkpt><trkpt lat="43.94047742100669" lon="12.843715088562595"><ele>108.0</ele><time>2026-03-22T11:37:00.938Z</time></trkpt><trkpt lat="43.940354319472725" lon="12.843626894901242"><ele>108.0</ele><time>2026-03-22T11:37:01.938Z</time></trkpt><trkpt lat="43.94023939160488" lon="12.843537962936873"><ele>108.0</ele><time>2026-03-22T11:37:02.938Z</time></trkpt><trkpt lat="43.940158159385604" lon="12.843417773483703"><ele>108.0</ele><time>2026-03-22T11:37:03.937Z</time></trkpt><trkpt lat="43.940063086927644" lon="12.843276215231736"><ele>108.0</ele><time>2026-03-22T11:37:04.937Z</time></trkpt><trkpt lat="43.93999416227809" lon="12.843095711641267"><ele>109.80000000000001</ele><time>2026-03-22T11:37:05.937Z</time></trkpt><trkpt lat="43.93993235159908" lon="12.842914692318582"><ele>111.60000000000001</ele><time>2026-03-22T11:37:06.937Z</time></trkpt><trkpt lat="43.93987557520481" lon="12.84278209779341"><ele>113.39999999999999</ele><time>2026-03-22T11:37:07.937Z</time></trkpt><trkpt lat="43.93981792553919" lon="12.842668351754824"><ele>115.19999999999999</ele><time>2026-03-22T11:37:08.938Z</time></trkpt><trkpt lat="43.939775236376576" lon="12.842574598340901"><ele>117.0</ele><time>2026-03-22T11:37:09.937Z</time></trkpt><trkpt lat="43.939731590433226" lon="12.842480996773258"><ele>119.39999999999999</ele><time>2026-03-22T11:37:10.937Z</time></trkpt><trkpt lat="43.939689185953014" lon="12.842357909832954"><ele>121.79999999999998</ele><time>2026-03-22T11:37:11.938Z</time></trkpt><trkpt lat="43.939661639196366" lon="12.842227315742482"><ele>124.2</ele><time>2026-03-22T11:37:12.938Z</time></trkpt><trkpt lat="43.939666820775756" lon="12.842084553954928"><ele>126.6</ele><time>2026-03-22T11:37:13.938Z</time></trkpt><trkpt lat="43.93970327966714" lon="12.841930881393683"><ele>129.0</ele><time>2026-03-22T11:37:14.938Z</time></trkpt><trkpt lat="43.93976149207794" lon="12.841761457699342"><ele>129.0</ele><time>2026-03-22T11:37:15.938Z</time></trkpt><trkpt lat="43.939848648211886" lon="12.841582979631449"><ele>129.0</ele><time>2026-03-22T11:37:16.938Z</time></trkpt><trkpt lat="43.939914789265515" lon="12.841382523500016"><ele>129.0</ele><time>2026-03-22T11:37:17.938Z</time></trkpt><trkpt lat="43.93998114054404" lon="12.841192983432453"><ele>129.0</ele><time>2026-03-22T11:37:18.938Z</time></trkpt><trkpt lat="43.940029497055136" lon="12.841003349174366"><ele>129.0</ele><time>2026-03-22T11:37:19.938Z</time></trkpt><trkpt lat="43.94004586751508" lon="12.840813948489036"><ele>129.0</ele><time>2026-03-22T11:37:20.938Z</time></trkpt><trkpt lat="43.94003718788714" lon="12.840600265399946"><ele>129.0</ele><time>2026-03-22T11:37:21.938Z</time></trkpt><trkpt lat="43.940026979589966" lon="12.840383918416128"><ele>129.25</ele><time>2026-03-22T11:37:22.938Z</time></trkpt><trkpt lat="43.940016480693636" lon="12.840173319975085"><ele>129.5</ele><time>2026-03-22T11:37:23.938Z</time></trkpt><trkpt lat="43.93999582816245" lon="12.840006458642197"><ele>129.75</ele><time>2026-03-22T11:37:24.938Z</time></trkpt><trkpt lat="43.939999183997756" lon="12.839866767903803"><ele>130.0</ele><time>2026-03-22T11:37:25.938Z</time></trkpt><trkpt lat="43.94002810042556" lon="12.839734220917107"><ele>134.0</ele><time>2026-03-22T11:37:26.938Z</time></trkpt><trkpt lat="43.940096766766786" lon="12.839598142768208"><ele>138.0</ele><time>2026-03-22T11:37:27.938Z</time></trkpt><trkpt lat="43.940181814268875" lon="12.83948865162159"><ele>142.0</ele><time>2026-03-22T11:37:28.938Z</time></trkpt><trkpt lat="43.94031120794027" lon="12.839411083767201"><ele>146.0</ele><time>2026-03-22T11:37:29.938Z</time></trkpt><trkpt lat="43.94046069980246" lon="12.839318312921652"><ele>142.0</ele><time>2026-03-22T11:37:30.938Z</time></trkpt><trkpt lat="43.940628525353794" lon="12.839215504134701"><ele>138.0</ele><time>2026-03-22T11:37:31.938Z</time></trkpt><trkpt lat="43.94077118974934" lon="12.83911702306496"><ele>134.0</ele><time>2026-03-22T11:37:32.938Z</time></trkpt><trkpt lat="43.940879449667946" lon="12.83904450139626"><ele>132.6</ele><time>2026-03-22T11:37:33.938Z</time></trkpt><trkpt lat="43.9409524527001" lon="12.838997486630944"><ele>131.2</ele><time>2026-03-22T11:37:34.938Z</time></trkpt><trkpt lat="43.9410794786042" lon="12.838950650576686"><ele>129.79999999999998</ele><time>2026-03-22T11:37:36.938Z</time></trkpt><trkpt lat="43.941158325749846" lon="12.838988591392226"><ele>128.4</ele><time>2026-03-22T11:37:37.938Z</time></trkpt><trkpt lat="43.94120652408288" lon="12.839118562543005"><ele>127.0</ele><time>2026-03-22T11:37:38.938Z</time></trkpt><trkpt lat="43.9412837714854" lon="12.839249369393936"><ele>130.0</ele><time>2026-03-22T11:37:39.938Z</time></trkpt><trkpt lat="43.94137839152621" lon="12.83940829010371"><ele>133.0</ele><time>2026-03-22T11:37:40.938Z</time></trkpt><trkpt lat="43.941463536052176" lon="12.839550476604625"><ele>136.0</ele><time>2026-03-22T11:37:41.938Z</time></trkpt><trkpt lat="43.94153181045078" lon="12.839631784620739"><ele>139.0</ele><time>2026-03-22T11:37:42.938Z</time></trkpt><trkpt lat="43.94156557671391" lon="12.839709462572277"><ele>142.0</ele><time>2026-03-22T11:37:43.938Z</time></trkpt><trkpt lat="43.94162595075179" lon="12.839738640585253"><ele>142.2</ele><time>2026-03-22T11:37:44.938Z</time></trkpt><trkpt lat="43.941729483111565" lon="12.839779799309705"><ele>142.39999999999998</ele><time>2026-03-22T11:37:46.938Z</time></trkpt><trkpt lat="43.94182065000388" lon="12.839762891169347"><ele>142.60000000000002</ele><time>2026-03-22T11:37:48.938Z</time></trkpt><trkpt lat="43.9419077517945" lon="12.839712109689348"><ele>142.8</ele><time>2026-03-22T11:37:50.938Z</time></trkpt><trkpt lat="43.94196711789172" lon="12.839639880574184"><ele>143.0</ele><time>2026-03-22T11:37:52.938Z</time></trkpt><trkpt lat="43.94203632258576" lon="12.839573708133427"><ele>142.99999999999997</ele><time>2026-03-22T11:37:54.938Z</time></trkpt><trkpt lat="43.942096346713036" lon="12.839523255296347"><ele>143.0</ele><time>2026-03-22T11:37:56.938Z</time></trkpt><trkpt lat="43.942152514564285" lon="12.839464455791052"><ele>143.0</ele><time>2026-03-22T11:37:58.938Z</time></trkpt><trkpt lat="43.9422208080041" lon="12.839410979649298"><ele>143.0</ele><time>2026-03-22T11:38:00.938Z</time></trkpt><trkpt lat="43.94229555008266" lon="12.839351888652672"><ele>143.0</ele><time>2026-03-22T11:38:02.938Z</time></trkpt><trkpt lat="43.94235992157609" lon="12.83931055156504"><ele>142.99999999999997</ele><time>2026-03-22T11:38:04.938Z</time></trkpt><trkpt lat="43.942418902321435" lon="12.839249806896445"><ele>143.0</ele><time>2026-03-22T11:38:06.938Z</time></trkpt><trkpt lat="43.94247393111286" lon="12.839204883381715"><ele>140.8</ele><time>2026-03-22T11:38:08.938Z</time></trkpt><trkpt lat="43.942550146803036" lon="12.839140876466367"><ele>138.60000000000002</ele><time>2026-03-22T11:38:11.938Z</time></trkpt><trkpt lat="43.94263991203612" lon="12.839147589569937"><ele>136.39999999999998</ele><time>2026-03-22T11:38:13.938Z</time></trkpt><trkpt lat="43.94274796011682" lon="12.8392611997131"><ele>134.2</ele><time>2026-03-22T11:38:15.938Z</time></trkpt><trkpt lat="43.94279330369871" lon="12.839353173979871"><ele>132.0</ele><time>2026-03-22T11:38:16.938Z</time></trkpt><trkpt lat="43.94282971453009" lon="12.839447183039518"><ele>132.0</ele><time>2026-03-22T11:38:17.938Z</time></trkpt><trkpt lat="43.94286290232633" lon="12.839533101302614"><ele>132.0</ele><time>2026-03-22T11:38:18.938Z</time></trkpt><trkpt lat="43.94289717887548" lon="12.839622820100336"><ele>132.0</ele><time>2026-03-22T11:38:19.938Z</time></trkpt><trkpt lat="43.94293440517034" lon="12.839701230859042"><ele>132.0</ele><time>2026-03-22T11:38:20.938Z</time></trkpt><trkpt lat="43.94297437816294" lon="12.839803544856709"><ele>132.0</ele><time>2026-03-22T11:38:21.938Z</time></trkpt><trkpt lat="43.94303615219353" lon="12.83989349985871"><ele>132.0</ele><time>2026-03-22T11:38:22.938Z</time></trkpt><trkpt lat="43.94310143992162" lon="12.839976229015386"><ele>132.0</ele><time>2026-03-22T11:38:23.938Z</time></trkpt><trkpt lat="43.94317526727844" lon="12.840069125606334"><ele>132.0</ele><time>2026-03-22T11:38:24.938Z</time></trkpt><trkpt lat="43.94326412474322" lon="12.840121452082698"><ele>132.0</ele><time>2026-03-22T11:38:25.938Z</time></trkpt><trkpt lat="43.94336057600731" lon="12.840138494359117"><ele>132.0</ele><time>2026-03-22T11:38:26.938Z</time></trkpt><trkpt lat="43.943459500362856" lon="12.840120899425063"><ele>132.0</ele><time>2026-03-22T11:38:27.938Z</time></trkpt><trkpt lat="43.94354832582885" lon="12.840036301614212"><ele>132.66666666666666</ele><time>2026-03-22T11:38:28.938Z</time></trkpt><trkpt lat="43.94365273602241" lon="12.839917400622783"><ele>133.33333333333331</ele><time>2026-03-22T11:38:29.938Z</time></trkpt><trkpt lat="43.94374737925106" lon="12.839762312667341"><ele>134.0</ele><time>2026-03-22T11:38:30.938Z</time></trkpt><trkpt lat="43.94384926865249" lon="12.839564494066668"><ele>134.0</ele><time>2026-03-22T11:38:31.938Z</time></trkpt><trkpt lat="43.94394081660771" lon="12.839346720088086"><ele>134.0</ele><time>2026-03-22T11:38:32.938Z</time></trkpt><trkpt lat="43.94403635367988" lon="12.839152603980349"><ele>134.0</ele><time>2026-03-22T11:38:33.938Z</time></trkpt><trkpt lat="43.944120863523175" lon="12.838973879301218"><ele>133.25</ele><time>2026-03-22T11:38:34.939Z</time></trkpt><trkpt lat="43.94420442786752" lon="12.838803493502802"><ele>132.5</ele><time>2026-03-22T11:38:35.939Z</time></trkpt><trkpt lat="43.94427947646534" lon="12.838645863099337"><ele>131.75</ele><time>2026-03-22T11:38:36.939Z</time></trkpt><trkpt lat="43.94435939971088" lon="12.838494740861547"><ele>131.0</ele><time>2026-03-22T11:38:37.939Z</time></trkpt><trkpt lat="43.94443434615732" lon="12.838339623298927"><ele>131.0</ele><time>2026-03-22T11:38:38.939Z</time></trkpt><trkpt lat="43.944497375816" lon="12.838174742941439"><ele>131.0</ele><time>2026-03-22T11:38:39.939Z</time></trkpt><trkpt lat="43.94454511556351" lon="12.837973158560292"><ele>131.0</ele><time>2026-03-22T11:38:40.939Z</time></trkpt><trkpt lat="43.94458757690866" lon="12.83776620075021"><ele>131.0</ele><time>2026-03-22T11:38:41.939Z</time></trkpt><trkpt lat="43.944627356594914" lon="12.83755883615946"><ele>132.33333333333331</ele><time>2026-03-22T11:38:42.939Z</time></trkpt><trkpt lat="43.9446792863318" lon="12.837349891366761"><ele>133.66666666666666</ele><time>2026-03-22T11:38:43.939Z</time></trkpt><trkpt lat="43.94472592648598" lon="12.837134733640658"><ele>135.0</ele><time>2026-03-22T11:38:44.939Z</time></trkpt><trkpt lat="43.94477786892262" lon="12.836910216252733"><ele>135.0</ele><time>2026-03-22T11:38:45.939Z</time></trkpt><trkpt lat="43.94483251857858" lon="12.83669301516666"><ele>135.0</ele><time>2026-03-22T11:38:46.939Z</time></trkpt><trkpt lat="43.944885268809756" lon="12.836479932988196"><ele>135.0</ele><time>2026-03-22T11:38:47.939Z</time></trkpt><trkpt lat="43.94494126540411" lon="12.83626754874313"><ele>135.0</ele><time>2026-03-22T11:38:48.939Z</time></trkpt><trkpt lat="43.94499454409391" lon="12.83606028822465"><ele>135.0</ele><time>2026-03-22T11:38:49.939Z</time></trkpt><trkpt lat="43.94504733781237" lon="12.835853876553859"><ele>135.0</ele><time>2026-03-22T11:38:50.939Z</time></trkpt><trkpt lat="43.94511621897334" lon="12.835653721694896"><ele>130.33333333333334</ele><time>2026-03-22T11:38:51.939Z</time></trkpt><trkpt lat="43.94519626019777" lon="12.835462080025549"><ele>125.66666666666667</ele><time>2026-03-22T11:38:52.939Z</time></trkpt><trkpt lat="43.94527702910184" lon="12.83526094452769"><ele>121.0</ele><time>2026-03-22T11:38:53.939Z</time></trkpt><trkpt lat="43.94535770624702" lon="12.835062066053414"><ele>121.0</ele><time>2026-03-22T11:38:54.939Z</time></trkpt><trkpt lat="43.945440083863964" lon="12.834872809028989"><ele>121.0</ele><time>2026-03-22T11:38:55.939Z</time></trkpt><trkpt lat="43.945528692480686" lon="12.834699852118955"><ele>121.0</ele><time>2026-03-22T11:38:56.939Z</time></trkpt><trkpt lat="43.94561744067669" lon="12.834554489985129"><ele>121.0</ele><time>2026-03-22T11:38:57.939Z</time></trkpt><trkpt lat="43.945685185406255" lon="12.834390807146104"><ele>124.25</ele><time>2026-03-22T11:38:58.939Z</time></trkpt><trkpt lat="43.94571259185705" lon="12.83420972181388"><ele>127.5</ele><time>2026-03-22T11:38:59.939Z</time></trkpt><trkpt lat="43.94572164667675" lon="12.834035455267847"><ele>130.75</ele><time>2026-03-22T11:39:00.939Z</time></trkpt><trkpt lat="43.94573043663673" lon="12.833883444160193"><ele>134.0</ele><time>2026-03-22T11:39:01.939Z</time></trkpt><trkpt lat="43.945771761579685" lon="12.83376920461755"><ele>134.0</ele><time>2026-03-22T11:39:02.939Z</time></trkpt><trkpt lat="43.9458573719281" lon="12.833664198775024"><ele>134.0</ele><time>2026-03-22T11:39:03.939Z</time></trkpt><trkpt lat="43.945996549471936" lon="12.833581558866056"><ele>134.0</ele><time>2026-03-22T11:39:04.939Z</time></trkpt><trkpt lat="43.94613955847085" lon="12.833501740106684"><ele>134.0</ele><time>2026-03-22T11:39:05.936Z</time></trkpt><trkpt lat="43.946296118369325" lon="12.833411666121712"><ele>133.5</ele><time>2026-03-22T11:39:06.936Z</time></trkpt><trkpt lat="43.94644189152682" lon="12.833315794039029"><ele>133.0</ele><time>2026-03-22T11:39:07.936Z</time></trkpt><trkpt lat="43.94657120015147" lon="12.833222347578245"><ele>132.5</ele><time>2026-03-22T11:39:08.936Z</time></trkpt><trkpt lat="43.9466842838343" lon="12.83312480984978"><ele>132.0</ele><time>2026-03-22T11:39:09.936Z</time></trkpt><trkpt lat="43.946775134373176" lon="12.833020517947173"><ele>128.6</ele><time>2026-03-22T11:39:10.936Z</time></trkpt><trkpt lat="43.946849463027895" lon="12.832910131180721"><ele>125.19999999999999</ele><time>2026-03-22T11:39:11.936Z</time></trkpt><trkpt lat="43.94690345343076" lon="12.832803211042888"><ele>121.8</ele><time>2026-03-22T11:39:12.936Z</time></trkpt><trkpt lat="43.9469208105256" lon="12.832685629085146"><ele>118.4</ele><time>2026-03-22T11:39:13.936Z</time></trkpt><trkpt lat="43.946907985449215" lon="12.832557747195711"><ele>115.0</ele><time>2026-03-22T11:39:14.935Z</time></trkpt><trkpt lat="43.94686730258529" lon="12.832413360839583"><ele>115.0</ele><time>2026-03-22T11:39:15.935Z</time></trkpt><trkpt lat="43.94683436886495" lon="12.832255042523602"><ele>115.0</ele><time>2026-03-22T11:39:16.935Z</time></trkpt><trkpt lat="43.94681104899781" lon="12.832091508026815"><ele>115.0</ele><time>2026-03-22T11:39:17.936Z</time></trkpt><trkpt lat="43.946809256336905" lon="12.831932314892747"><ele>115.0</ele><time>2026-03-22T11:39:18.936Z</time></trkpt><trkpt lat="43.946815651436324" lon="12.8317931295272"><ele>116.66666666666667</ele><time>2026-03-22T11:39:19.936Z</time></trkpt><trkpt lat="43.94681518730904" lon="12.831680767646922"><ele>118.33333333333334</ele><time>2026-03-22T11:39:20.936Z</time></trkpt><trkpt lat="43.946792976866" lon="12.83157311228376"><ele>120.0</ele><time>2026-03-22T11:39:21.936Z</time></trkpt><trkpt lat="43.946765282202904" lon="12.831490174807534"><ele>121.66666666666666</ele><time>2026-03-22T11:39:22.936Z</time></trkpt><trkpt lat="43.94672117729535" lon="12.831389811329204"><ele>123.33333333333333</ele><time>2026-03-22T11:39:24.936Z</time></trkpt><trkpt lat="43.94671823873681" lon="12.831263687265142"><ele>125.0</ele><time>2026-03-22T11:39:27.936Z</time></trkpt><trkpt lat="43.94678326190373" lon="12.831148456590745"><ele>124.99999999999999</ele><time>2026-03-22T11:39:29.936Z</time></trkpt><trkpt lat="43.946859235714435" lon="12.831114483523756"><ele>125.0</ele><time>2026-03-22T11:39:30.936Z</time></trkpt><trkpt lat="43.94694843874124" lon="12.831096566446327"><ele>125.0</ele><time>2026-03-22T11:39:31.936Z</time></trkpt><trkpt lat="43.94702923282104" lon="12.831081947812464"><ele>125.0</ele><time>2026-03-22T11:39:32.936Z</time></trkpt><trkpt lat="43.94709866106283" lon="12.831053828986722"><ele>124.99999999999999</ele><time>2026-03-22T11:39:33.936Z</time></trkpt><trkpt lat="43.94716425363497" lon="12.831003790399908"><ele>125.0</ele><time>2026-03-22T11:39:34.936Z</time></trkpt><trkpt lat="43.94721842908518" lon="12.830954069657835"><ele>123.0</ele><time>2026-03-22T11:39:35.936Z</time></trkpt><trkpt lat="43.94731522604844" lon="12.830869667826473"><ele>121.0</ele><time>2026-03-22T11:39:37.936Z</time></trkpt><trkpt lat="43.94742253506714" lon="12.830792878779118"><ele>119.0</ele><time>2026-03-22T11:39:39.936Z</time></trkpt><trkpt lat="43.94753394311773" lon="12.830711365778603"><ele>117.0</ele><time>2026-03-22T11:39:41.936Z</time></trkpt><trkpt lat="43.947586544469054" lon="12.830646819656518"><ele>115.0</ele><time>2026-03-22T11:39:42.936Z</time></trkpt><trkpt lat="43.94763744200882" lon="12.830573342866703"><ele>115.0</ele><time>2026-03-22T11:39:43.936Z</time></trkpt><trkpt lat="43.947682839965495" lon="12.830486371001403"><ele>115.0</ele><time>2026-03-22T11:39:44.936Z</time></trkpt><trkpt lat="43.947713344601226" lon="12.830393182716788"><ele>115.0</ele><time>2026-03-22T11:39:45.936Z</time></trkpt><trkpt lat="43.94774549583717" lon="12.83030682800213"><ele>115.0</ele><time>2026-03-22T11:39:46.936Z</time></trkpt><trkpt lat="43.947804960233654" lon="12.830152775624947"><ele>115.0</ele><time>2026-03-22T11:39:48.936Z</time></trkpt><trkpt lat="43.9478984757346" lon="12.83004245306023"><ele>118.50000000000001</ele><time>2026-03-22T11:39:50.936Z</time></trkpt><trkpt lat="43.947947098660606" lon="12.829972163164896"><ele>122.0</ele><time>2026-03-22T11:39:51.936Z</time></trkpt><trkpt lat="43.94799848234211" lon="12.829900336426457"><ele>125.5</ele><time>2026-03-22T11:39:52.936Z</time></trkpt><trkpt lat="43.948055974660015" lon="12.829828316648197"><ele>129.0</ele><time>2026-03-22T11:39:53.936Z</time></trkpt><trkpt lat="43.94810289849608" lon="12.829749065551805"><ele>132.5</ele><time>2026-03-22T11:39:54.936Z</time></trkpt><trkpt lat="43.94813042284903" lon="12.829644200340109"><ele>136.0</ele><time>2026-03-22T11:39:55.936Z</time></trkpt><trkpt lat="43.94814189193823" lon="12.829527637888184"><ele>136.0</ele><time>2026-03-22T11:39:56.936Z</time></trkpt><trkpt lat="43.948146621887126" lon="12.82940205619318"><ele>136.0</ele><time>2026-03-22T11:39:57.936Z</time></trkpt><trkpt lat="43.948150169074125" lon="12.829282356217734"><ele>136.0</ele><time>2026-03-22T11:39:58.936Z</time></trkpt><trkpt lat="43.94817308743074" lon="12.829166523820483"><ele>136.0</ele><time>2026-03-22T11:39:59.936Z</time></trkpt><trkpt lat="43.948197808426336" lon="12.829053228026124"><ele>136.0</ele><time>2026-03-22T11:40:00.936Z</time></trkpt><trkpt lat="43.948220820610786" lon="12.828930180707633"><ele>136.0</ele><time>2026-03-22T11:40:01.936Z</time></trkpt><trkpt lat="43.948224687490224" lon="12.828788451134367"><ele>139.4</ele><time>2026-03-22T11:40:02.936Z</time></trkpt><trkpt lat="43.94821017926734" lon="12.828637868722216"><ele>142.8</ele><time>2026-03-22T11:40:03.936Z</time></trkpt><trkpt lat="43.948189225506496" lon="12.82848778272418"><ele>146.20000000000002</ele><time>2026-03-22T11:40:04.936Z</time></trkpt><trkpt lat="43.94816138880142" lon="12.82834080730635"><ele>149.6</ele><time>2026-03-22T11:40:05.936Z</time></trkpt><trkpt lat="43.948130591423215" lon="12.828195931822064"><ele>153.0</ele><time>2026-03-22T11:40:06.936Z</time></trkpt><trkpt lat="43.948103349786955" lon="12.828068670947454"><ele>153.0</ele><time>2026-03-22T11:40:07.936Z</time></trkpt><trkpt lat="43.948079861548834" lon="12.827936668013548"><ele>153.0</ele><time>2026-03-22T11:40:08.936Z</time></trkpt><trkpt lat="43.94805059529634" lon="12.827798097338194"><ele>153.0</ele><time>2026-03-22T11:40:09.936Z</time></trkpt><trkpt lat="43.94802446526817" lon="12.827647183263467"><ele>153.0</ele><time>2026-03-22T11:40:10.936Z</time></trkpt><trkpt lat="43.94800275019481" lon="12.827501748313512"><ele>153.0</ele><time>2026-03-22T11:40:11.936Z</time></trkpt><trkpt lat="43.94798120860145" lon="12.827361997961397"><ele>153.0</ele><time>2026-03-22T11:40:12.936Z</time></trkpt><trkpt lat="43.947956036294535" lon="12.827227573237602"><ele>153.0</ele><time>2026-03-22T11:40:13.936Z</time></trkpt><trkpt lat="43.94793030585761" lon="12.827096744647928"><ele>153.0</ele><time>2026-03-22T11:40:14.936Z</time></trkpt><trkpt lat="43.94788769230551" lon="12.826967751091598"><ele>153.0</ele><time>2026-03-22T11:40:15.936Z</time></trkpt><trkpt lat="43.94783554545021" lon="12.826829073684689"><ele>153.0</ele><time>2026-03-22T11:40:16.936Z</time></trkpt><trkpt lat="43.947772516272046" lon="12.826691567889679"><ele>153.0</ele><time>2026-03-22T11:40:17.936Z</time></trkpt><trkpt lat="43.947700386803355" lon="12.826560294985585"><ele>153.0</ele><time>2026-03-22T11:40:18.936Z</time></trkpt><trkpt lat="43.94762422039022" lon="12.826443677023494"><ele>153.0</ele><time>2026-03-22T11:40:19.936Z</time></trkpt><trkpt lat="43.94753699262829" lon="12.826345874226483"><ele>153.0</ele><time>2026-03-22T11:40:20.936Z</time></trkpt><trkpt lat="43.94744254394842" lon="12.826249855229614"><ele>154.0</ele><time>2026-03-22T11:40:21.936Z</time></trkpt><trkpt lat="43.94733985231999" lon="12.826142882172407"><ele>155.0</ele><time>2026-03-22T11:40:22.936Z</time></trkpt><trkpt lat="43.94722749944188" lon="12.826026728682008"><ele>156.0</ele><time>2026-03-22T11:40:23.936Z</time></trkpt><trkpt lat="43.94711004518704" lon="12.825904582921298"><ele>157.0</ele><time>2026-03-22T11:40:24.936Z</time></trkpt><trkpt lat="43.946967590589" lon="12.825770136711359"><ele>156.0</ele><time>2026-03-22T11:40:25.936Z</time></trkpt><trkpt lat="43.946826311491876" lon="12.825652826032819"><ele>155.0</ele><time>2026-03-22T11:40:26.936Z</time></trkpt><trkpt lat="43.94670218643896" lon="12.82554895935184"><ele>154.0</ele><time>2026-03-22T11:40:27.936Z</time></trkpt><trkpt lat="43.94659641652198" lon="12.825452885288787"><ele>153.0</ele><time>2026-03-22T11:40:28.936Z</time></trkpt><trkpt lat="43.946518745854185" lon="12.825353450245196"><ele>153.0</ele><time>2026-03-22T11:40:29.936Z</time></trkpt><trkpt lat="43.94646537936748" lon="12.825248765669091"><ele>153.0</ele><time>2026-03-22T11:40:30.936Z</time></trkpt><trkpt lat="43.946454328025375" lon="12.825135896204872"><ele>153.0</ele><time>2026-03-22T11:40:31.936Z</time></trkpt><trkpt lat="43.94646535010704" lon="12.825011233932168"><ele>153.0</ele><time>2026-03-22T11:40:32.936Z</time></trkpt><trkpt lat="43.946511265514395" lon="12.824877124417137"><ele>153.0</ele><time>2026-03-22T11:40:33.936Z</time></trkpt><trkpt lat="43.94659752654192" lon="12.824754902098888"><ele>155.75</ele><time>2026-03-22T11:40:34.936Z</time></trkpt><trkpt lat="43.94670567599982" lon="12.824628536145829"><ele>158.5</ele><time>2026-03-22T11:40:35.936Z</time></trkpt><trkpt lat="43.94681602843371" lon="12.82447760681519"><ele>161.25</ele><time>2026-03-22T11:40:36.936Z</time></trkpt><trkpt lat="43.94688250474593" lon="12.82430430198725"><ele>164.0</ele><time>2026-03-22T11:40:37.936Z</time></trkpt><trkpt lat="43.94693609372755" lon="12.824111747966475"><ele>166.0</ele><time>2026-03-22T11:40:38.936Z</time></trkpt><trkpt lat="43.946969899649716" lon="12.823944840723057"><ele>168.0</ele><time>2026-03-22T11:40:39.936Z</time></trkpt><trkpt lat="43.947005512283326" lon="12.823801593514327"><ele>170.0</ele><time>2026-03-22T11:40:40.936Z</time></trkpt><trkpt lat="43.947066096839656" lon="12.823715108071514"><ele>172.0</ele><time>2026-03-22T11:40:41.937Z</time></trkpt><trkpt lat="43.947123858858134" lon="12.823674887950114"><ele>174.0</ele><time>2026-03-22T11:40:42.937Z</time></trkpt><trkpt lat="43.94722322294846" lon="12.823707612672493"><ele>174.0</ele><time>2026-03-22T11:40:43.937Z</time></trkpt><trkpt lat="43.947339837906135" lon="12.823743249469088"><ele>174.0</ele><time>2026-03-22T11:40:44.937Z</time></trkpt><trkpt lat="43.947464176310305" lon="12.82377689463046"><ele>174.0</ele><time>2026-03-22T11:40:45.937Z</time></trkpt><trkpt lat="43.94759473603826" lon="12.823811374981668"><ele>174.0</ele><time>2026-03-22T11:40:46.937Z</time></trkpt><trkpt lat="43.947725758802726" lon="12.823845952941776"><ele>174.39999999999998</ele><time>2026-03-22T11:40:47.937Z</time></trkpt><trkpt lat="43.94785347151457" lon="12.823873655659304"><ele>174.8</ele><time>2026-03-22T11:40:48.937Z</time></trkpt><trkpt lat="43.947970530608295" lon="12.82389696994165"><ele>175.2</ele><time>2026-03-22T11:40:49.937Z</time></trkpt><trkpt lat="43.94807266212775" lon="12.823914195231083"><ele>175.60000000000002</ele><time>2026-03-22T11:40:50.937Z</time></trkpt><trkpt lat="43.94816828140603" lon="12.823929973092595"><ele>176.0</ele><time>2026-03-22T11:40:51.937Z</time></trkpt><trkpt lat="43.94826732185643" lon="12.823934318872375"><ele>176.0</ele><time>2026-03-22T11:40:52.937Z</time></trkpt><trkpt lat="43.94836559599411" lon="12.823931606188443"><ele>176.0</ele><time>2026-03-22T11:40:53.937Z</time></trkpt><trkpt lat="43.94845537552196" lon="12.823908607956449"><ele>176.0</ele><time>2026-03-22T11:40:54.937Z</time></trkpt><trkpt lat="43.94856330286743" lon="12.823850992149021"><ele>176.0</ele><time>2026-03-22T11:40:56.937Z</time></trkpt><trkpt lat="43.948632172539604" lon="12.82380568462351"><ele>176.0</ele><time>2026-03-22T11:40:58.937Z</time></trkpt><trkpt lat="43.94869485446451" lon="12.823786317894848"><ele>176.0</ele><time>2026-03-22T11:41:01.937Z</time></trkpt><trkpt lat="43.94874394507184" lon="12.823710679913665"><ele>175.16666666666666</ele><time>2026-03-22T11:41:36.934Z</time></trkpt><trkpt lat="43.948768695873234" lon="12.823623318045678"><ele>174.33333333333331</ele><time>2026-03-22T11:41:41.935Z</time></trkpt><trkpt lat="43.94878854942328" lon="12.823531611481737"><ele>173.5</ele><time>2026-03-22T11:41:46.935Z</time></trkpt><trkpt lat="43.94883308211403" lon="12.823433372897764"><ele>172.66666666666666</ele><time>2026-03-22T11:42:03.935Z</time></trkpt><trkpt lat="43.94885158328739" lon="12.823330641423237"><ele>171.83333333333334</ele><time>2026-03-22T11:42:05.935Z</time></trkpt><trkpt lat="43.948866647310815" lon="12.823230424483047"><ele>171.0</ele><time>2026-03-22T11:42:08.935Z</time></trkpt><trkpt lat="43.948876064889795" lon="12.823118737633283"><ele>171.0</ele><time>2026-03-22T11:42:11.935Z</time></trkpt><trkpt lat="43.94890216429221" lon="12.822996550879395"><ele>171.0</ele><time>2026-03-22T11:42:13.935Z</time></trkpt><trkpt lat="43.94892242315684" lon="12.822822671847298"><ele>171.0</ele><time>2026-03-22T11:42:15.935Z</time></trkpt><trkpt lat="43.94897316538667" lon="12.822669572964621"><ele>171.0</ele><time>2026-03-22T11:42:17.935Z</time></trkpt><trkpt lat="43.949032922853675" lon="12.822534946738127"><ele>171.4</ele><time>2026-03-22T11:42:19.935Z</time></trkpt><trkpt lat="43.94909808762935" lon="12.822381676489451"><ele>171.8</ele><time>2026-03-22T11:42:21.935Z</time></trkpt><trkpt lat="43.94913912573824" lon="12.822292415577317"><ele>172.20000000000002</ele><time>2026-03-22T11:42:22.935Z</time></trkpt><trkpt lat="43.949221988445395" lon="12.822177860777941"><ele>172.60000000000002</ele><time>2026-03-22T11:42:24.935Z</time></trkpt><trkpt lat="43.94929354289986" lon="12.822161907172656"><ele>173.0</ele><time>2026-03-22T11:42:25.935Z</time></trkpt><trkpt lat="43.94937213344231" lon="12.822154622786163"><ele>172.33333333333331</ele><time>2026-03-22T11:42:26.935Z</time></trkpt><trkpt lat="43.94946744687961" lon="12.822202386737496"><ele>171.66666666666666</ele><time>2026-03-22T11:42:27.935Z</time></trkpt><trkpt lat="43.94955592134785" lon="12.822237258352269"><ele>171.0</ele><time>2026-03-22T11:42:28.935Z</time></trkpt><trkpt lat="43.94963855725228" lon="12.822262105234449"><ele>170.33333333333334</ele><time>2026-03-22T11:42:29.935Z</time></trkpt><trkpt lat="43.94971635472348" lon="12.822284428273118"><ele>169.66666666666669</ele><time>2026-03-22T11:42:30.935Z</time></trkpt><trkpt lat="43.949792992986346" lon="12.82230434467493"><ele>169.0</ele><time>2026-03-22T11:42:31.935Z</time></trkpt><trkpt lat="43.94986712840446" lon="12.822318674522682"><ele>169.0</ele><time>2026-03-22T11:42:32.935Z</time></trkpt><trkpt lat="43.94993566500317" lon="12.822333972709158"><ele>169.0</ele><time>2026-03-22T11:42:33.935Z</time></trkpt><trkpt lat="43.950002321003836" lon="12.82235956680806"><ele>169.0</ele><time>2026-03-22T11:42:34.935Z</time></trkpt><trkpt lat="43.950071323787405" lon="12.82236508975679"><ele>169.0</ele><time>2026-03-22T11:42:35.935Z</time></trkpt><trkpt lat="43.950134089709394" lon="12.822383254212516"><ele>169.0</ele><time>2026-03-22T11:42:36.935Z</time></trkpt><trkpt lat="43.950245308673686" lon="12.82240973267549"><ele>169.0</ele><time>2026-03-22T11:42:38.935Z</time></trkpt><trkpt lat="43.950309197075434" lon="12.822422569570623"><ele>169.0</ele><time>2026-03-22T11:42:39.935Z</time></trkpt><trkpt lat="43.95042143701441" lon="12.822452172681915"><ele>168.16666666666669</ele><time>2026-03-22T11:42:41.935Z</time></trkpt><trkpt lat="43.950488296644636" lon="12.822453445441413"><ele>167.33333333333334</ele><time>2026-03-22T11:42:43.935Z</time></trkpt><trkpt lat="43.950558884046046" lon="12.822479036923744"><ele>166.5</ele><time>2026-03-22T11:42:45.935Z</time></trkpt><trkpt lat="43.9506445845689" lon="12.822505251386783"><ele>165.66666666666666</ele><time>2026-03-22T11:42:47.935Z</time></trkpt><trkpt lat="43.950729191783324" lon="12.822438478753668"><ele>164.83333333333331</ele><time>2026-03-22T11:42:49.935Z</time></trkpt><trkpt lat="43.95080266907828" lon="12.822351539523249"><ele>164.0</ele><time>2026-03-22T11:42:51.935Z</time></trkpt><trkpt lat="43.950863976125135" lon="12.822298389248635"><ele>164.66666666666666</ele><time>2026-03-22T11:42:53.935Z</time></trkpt><trkpt lat="43.950916092527834" lon="12.822230087383538"><ele>165.33333333333331</ele><time>2026-03-22T11:42:55.935Z</time></trkpt><trkpt lat="43.950970077058436" lon="12.822161857645504"><ele>166.0</ele><time>2026-03-22T11:42:57.935Z</time></trkpt><trkpt lat="43.95104479558154" lon="12.822079820795725"><ele>166.66666666666666</ele><time>2026-03-22T11:42:59.935Z</time></trkpt><trkpt lat="43.951089223527525" lon="12.821966461900246"><ele>167.33333333333334</ele><time>2026-03-22T11:43:01.935Z</time></trkpt><trkpt lat="43.95103636812858" lon="12.82183006321897"><ele>168.0</ele><time>2026-03-22T11:43:03.935Z</time></trkpt><trkpt lat="43.95103184622495" lon="12.821704754654908"><ele>168.0</ele><time>2026-03-22T11:43:05.935Z</time></trkpt><trkpt lat="43.95104468725108" lon="12.82157834442802"><ele>168.0</ele><time>2026-03-22T11:43:07.935Z</time></trkpt><trkpt lat="43.95107543179676" lon="12.821404878186764"><ele>168.0</ele><time>2026-03-22T11:43:09.935Z</time></trkpt><trkpt lat="43.951103904495604" lon="12.821308504185025"><ele>168.0</ele><time>2026-03-22T11:43:10.935Z</time></trkpt><trkpt lat="43.95113150332128" lon="12.821206580597698"><ele>168.0</ele><time>2026-03-22T11:43:11.935Z</time></trkpt><trkpt lat="43.951162735471485" lon="12.821105566899838"><ele>168.0</ele><time>2026-03-22T11:43:12.935Z</time></trkpt><trkpt lat="43.95121850370555" lon="12.820987598572993"><ele>168.0</ele><time>2026-03-22T11:43:13.935Z</time></trkpt><trkpt lat="43.95131645022624" lon="12.820869217864498"><ele>168.0</ele><time>2026-03-22T11:43:14.935Z</time></trkpt><trkpt lat="43.951423810136" lon="12.820738783896672"><ele>168.0</ele><time>2026-03-22T11:43:15.935Z</time></trkpt><trkpt lat="43.95153032391642" lon="12.820625375932439"><ele>168.25</ele><time>2026-03-22T11:43:16.935Z</time></trkpt><trkpt lat="43.95163977723001" lon="12.820541178961625"><ele>168.5</ele><time>2026-03-22T11:43:17.935Z</time></trkpt><trkpt lat="43.951728246942544" lon="12.820441613536056"><ele>168.75</ele><time>2026-03-22T11:43:18.935Z</time></trkpt><trkpt lat="43.95182075853085" lon="12.820359216738174"><ele>169.0</ele><time>2026-03-22T11:43:19.935Z</time></trkpt><trkpt lat="43.951915463914155" lon="12.820294603119779"><ele>166.39999999999998</ele><time>2026-03-22T11:43:20.934Z</time></trkpt><trkpt lat="43.9520113661441" lon="12.820227175406895"><ele>163.79999999999998</ele><time>2026-03-22T11:43:21.935Z</time></trkpt><trkpt lat="43.95209015608933" lon="12.820137402995297"><ele>161.2</ele><time>2026-03-22T11:43:22.935Z</time></trkpt><trkpt lat="43.952143384189064" lon="12.820028266464213"><ele>158.6</ele><time>2026-03-22T11:43:23.935Z</time></trkpt><trkpt lat="43.95217829716352" lon="12.81991420021513"><ele>156.0</ele><time>2026-03-22T11:43:24.935Z</time></trkpt><trkpt lat="43.95219103106996" lon="12.819803344248145"><ele>156.0</ele><time>2026-03-22T11:43:25.935Z</time></trkpt><trkpt lat="43.95215226681336" lon="12.819678460876359"><ele>156.0</ele><time>2026-03-22T11:43:26.935Z</time></trkpt><trkpt lat="43.952106034980304" lon="12.81954091918883"><ele>156.0</ele><time>2026-03-22T11:43:27.935Z</time></trkpt><trkpt lat="43.95207046177812" lon="12.819401855893933"><ele>156.0</ele><time>2026-03-22T11:43:28.935Z</time></trkpt><trkpt lat="43.9520336832282" lon="12.81924658422448"><ele>156.0</ele><time>2026-03-22T11:43:29.934Z</time></trkpt><trkpt lat="43.95198728877804" lon="12.81909306500502"><ele>155.8</ele><time>2026-03-22T11:43:30.935Z</time></trkpt><trkpt lat="43.951941245769255" lon="12.818950419100869"><ele>155.6</ele><time>2026-03-22T11:43:31.935Z</time></trkpt><trkpt lat="43.95189778697572" lon="12.818822223149356"><ele>155.4</ele><time>2026-03-22T11:43:32.935Z</time></trkpt><trkpt lat="43.95186603229003" lon="12.818694782840412"><ele>155.2</ele><time>2026-03-22T11:43:33.935Z</time></trkpt><trkpt lat="43.951860047842885" lon="12.81856499394221"><ele>155.0</ele><time>2026-03-22T11:43:34.935Z</time></trkpt><trkpt lat="43.95187166284751" lon="12.818428393990827"><ele>152.0</ele><time>2026-03-22T11:43:35.935Z</time></trkpt><trkpt lat="43.95190517260729" lon="12.81831199778941"><ele>149.0</ele><time>2026-03-22T11:43:36.935Z</time></trkpt><trkpt lat="43.951945711154856" lon="12.818227836695138"><ele>146.0</ele><time>2026-03-22T11:43:37.935Z</time></trkpt><trkpt lat="43.952068718906695" lon="12.818185909466642"><ele>143.0</ele><time>2026-03-22T11:43:39.935Z</time></trkpt><trkpt lat="43.95215133390008" lon="12.818267887423803"><ele>140.0</ele><time>2026-03-22T11:43:40.935Z</time></trkpt><trkpt lat="43.95222908391688" lon="12.818396307030145"><ele>138.25</ele><time>2026-03-22T11:43:41.935Z</time></trkpt><trkpt lat="43.952317139144306" lon="12.818533207441417"><ele>136.5</ele><time>2026-03-22T11:43:42.935Z</time></trkpt><trkpt lat="43.95241299370211" lon="12.81867037649018"><ele>134.75</ele><time>2026-03-22T11:43:43.935Z</time></trkpt><trkpt lat="43.95251306542755" lon="12.818802553561769"><ele>133.0</ele><time>2026-03-22T11:43:44.935Z</time></trkpt><trkpt lat="43.952610300334385" lon="12.818929975103675"><ele>133.0</ele><time>2026-03-22T11:43:45.935Z</time></trkpt><trkpt lat="43.95271523621392" lon="12.819013121513448"><ele>133.0</ele><time>2026-03-22T11:43:46.935Z</time></trkpt><trkpt lat="43.95282573791898" lon="12.819042206749996"><ele>133.0</ele><time>2026-03-22T11:43:47.935Z</time></trkpt><trkpt lat="43.952940012623785" lon="12.8190406512718"><ele>133.0</ele><time>2026-03-22T11:43:48.935Z</time></trkpt><trkpt lat="43.95306049323141" lon="12.819024167090852"><ele>133.0</ele><time>2026-03-22T11:43:49.935Z</time></trkpt><trkpt lat="43.95316835035651" lon="12.818987138599862"><ele>133.0</ele><time>2026-03-22T11:43:50.935Z</time></trkpt><trkpt lat="43.95327393062293" lon="12.818894183567128"><ele>133.0</ele><time>2026-03-22T11:43:51.935Z</time></trkpt><trkpt lat="43.95337272327843" lon="12.818773174778928"><ele>133.0</ele><time>2026-03-22T11:43:52.935Z</time></trkpt><trkpt lat="43.9534907022695" lon="12.818661740137088"><ele>129.25</ele><time>2026-03-22T11:43:53.935Z</time></trkpt><trkpt lat="43.953634948426114" lon="12.818559609062714"><ele>125.5</ele><time>2026-03-22T11:43:54.935Z</time></trkpt><trkpt lat="43.95377235469804" lon="12.818458784180548"><ele>121.75</ele><time>2026-03-22T11:43:55.935Z</time></trkpt><trkpt lat="43.953875242178256" lon="12.818353051114444"><ele>118.0</ele><time>2026-03-22T11:43:56.935Z</time></trkpt><trkpt lat="43.953942553257676" lon="12.818242613537032"><ele>118.00000000000001</ele><time>2026-03-22T11:43:57.935Z</time></trkpt><trkpt lat="43.95398130804758" lon="12.818134123891097"><ele>118.0</ele><time>2026-03-22T11:43:58.935Z</time></trkpt><trkpt lat="43.954010462015994" lon="12.818045080074302"><ele>118.0</ele><time>2026-03-22T11:43:59.935Z</time></trkpt><trkpt lat="43.95404033794487" lon="12.817938829275041"><ele>118.0</ele><time>2026-03-22T11:44:01.935Z</time></trkpt><trkpt lat="43.95406576040589" lon="12.817851093646741"><ele>118.00000000000001</ele><time>2026-03-22T11:44:04.935Z</time></trkpt><trkpt lat="43.95408348887204" lon="12.817759807251013"><ele>118.0</ele><time>2026-03-22T11:44:08.935Z</time></trkpt><trkpt lat="43.95411311729281" lon="12.817666082769037"><ele>120.33333333333334</ele><time>2026-03-22T11:44:11.935Z</time></trkpt><trkpt lat="43.9541419017637" lon="12.817569883525024"><ele>122.66666666666667</ele><time>2026-03-22T11:44:13.935Z</time></trkpt><trkpt lat="43.95418084036597" lon="12.817465080620295"><ele>125.0</ele><time>2026-03-22T11:44:16.936Z</time></trkpt><trkpt lat="43.95421400688297" lon="12.817342818123526"><ele>127.33333333333334</ele><time>2026-03-22T11:44:18.936Z</time></trkpt><trkpt lat="43.95425380794841" lon="12.817226696938159"><ele>129.66666666666666</ele><time>2026-03-22T11:44:20.936Z</time></trkpt><trkpt lat="43.95429020553288" lon="12.817117240655337"><ele>132.0</ele><time>2026-03-22T11:44:22.936Z</time></trkpt><trkpt lat="43.95432376840831" lon="12.8170258227421"><ele>126.16666666666667</ele><time>2026-03-22T11:44:24.936Z</time></trkpt><trkpt lat="43.954350092289545" lon="12.81689164030683"><ele>120.33333333333334</ele><time>2026-03-22T11:44:26.936Z</time></trkpt><trkpt lat="43.954411318197096" lon="12.8167343897965"><ele>114.5</ele><time>2026-03-22T11:44:28.936Z</time></trkpt><trkpt lat="43.954426107372974" lon="12.816645787967069"><ele>108.66666666666667</ele><time>2026-03-22T11:44:29.936Z</time></trkpt><trkpt lat="43.95443879051958" lon="12.816549397292086"><ele>102.83333333333334</ele><time>2026-03-22T11:44:30.936Z</time></trkpt><trkpt lat="43.954437405804335" lon="12.816447541851531"><ele>97.0</ele><time>2026-03-22T11:44:31.936Z</time></trkpt><trkpt lat="43.95442872344444" lon="12.816330440699783"><ele>97.00000000000001</ele><time>2026-03-22T11:44:32.936Z</time></trkpt><trkpt lat="43.95441426767361" lon="12.816215791102287"><ele>97.0</ele><time>2026-03-22T11:44:33.936Z</time></trkpt><trkpt lat="43.95437715549747" lon="12.816116765330793"><ele>97.0</ele><time>2026-03-22T11:44:34.936Z</time></trkpt><trkpt lat="43.95434130284586" lon="12.816020290456375"><ele>97.0</ele><time>2026-03-22T11:44:35.936Z</time></trkpt><trkpt lat="43.95429280908169" lon="12.815934881783873"><ele>97.00000000000001</ele><time>2026-03-22T11:44:36.936Z</time></trkpt><trkpt lat="43.95424129134159" lon="12.815846897213797"><ele>97.0</ele><time>2026-03-22T11:44:37.936Z</time></trkpt><trkpt lat="43.954181472910875" lon="12.815774907384583"><ele>106.33333333333334</ele><time>2026-03-22T11:44:38.936Z</time></trkpt><trkpt lat="43.954113819470905" lon="12.81570131755783"><ele>115.66666666666667</ele><time>2026-03-22T11:44:39.936Z</time></trkpt><trkpt lat="43.95404701399599" lon="12.815635443435177"><ele>125.0</ele><time>2026-03-22T11:44:40.936Z</time></trkpt><trkpt lat="43.953989820545594" lon="12.8155731638225"><ele>134.33333333333334</ele><time>2026-03-22T11:44:41.936Z</time></trkpt><trkpt lat="43.953932465760204" lon="12.815512897414683"><ele>143.66666666666666</ele><time>2026-03-22T11:44:42.936Z</time></trkpt><trkpt lat="43.95387304692035" lon="12.815446596915946"><ele>153.0</ele><time>2026-03-22T11:44:43.936Z</time></trkpt><trkpt lat="43.95381835062437" lon="12.815389665915314"><ele>153.0</ele><time>2026-03-22T11:44:44.936Z</time></trkpt><trkpt lat="43.953765003813444" lon="12.815336098065174"><ele>153.0</ele><time>2026-03-22T11:44:45.936Z</time></trkpt><trkpt lat="43.95371238263473" lon="12.815282441761731"><ele>153.0</ele><time>2026-03-22T11:44:46.936Z</time></trkpt><trkpt lat="43.95361857357974" lon="12.815168393364292"><ele>153.0</ele><time>2026-03-22T11:44:48.936Z</time></trkpt><trkpt lat="43.95358381220642" lon="12.815081767170518"><ele>153.0</ele><time>2026-03-22T11:44:49.936Z</time></trkpt><trkpt lat="43.95356322073117" lon="12.814976332700656"><ele>153.0</ele><time>2026-03-22T11:44:50.936Z</time></trkpt><trkpt lat="43.95353956724451" lon="12.814875982934861"><ele>157.75</ele><time>2026-03-22T11:44:51.936Z</time></trkpt><trkpt lat="43.953523101531495" lon="12.81471903677811"><ele>162.5</ele><time>2026-03-22T11:44:52.936Z</time></trkpt><trkpt lat="43.953491284803526" lon="12.814564108384468"><ele>167.25</ele><time>2026-03-22T11:44:53.936Z</time></trkpt><trkpt lat="43.95345005494774" lon="12.814409664555946"><ele>172.0</ele><time>2026-03-22T11:44:54.936Z</time></trkpt><trkpt lat="43.95341168047835" lon="12.814248034788893"><ele>171.8</ele><time>2026-03-22T11:44:55.936Z</time></trkpt><trkpt lat="43.95337561764136" lon="12.814097389609264"><ele>171.6</ele><time>2026-03-22T11:44:56.936Z</time></trkpt><trkpt lat="43.95334813204567" lon="12.813954476051322"><ele>171.4</ele><time>2026-03-22T11:44:57.936Z</time></trkpt><trkpt lat="43.953307483244295" lon="12.813816576146895"><ele>171.20000000000002</ele><time>2026-03-22T11:44:58.936Z</time></trkpt><trkpt lat="43.953269744913065" lon="12.81369636835106"><ele>171.0</ele><time>2026-03-22T11:44:59.936Z</time></trkpt><trkpt lat="43.95325061655948" lon="12.813576103389405"><ele>172.33333333333334</ele><time>2026-03-22T11:45:00.936Z</time></trkpt><trkpt lat="43.953243464895024" lon="12.813462143622495"><ele>173.66666666666666</ele><time>2026-03-22T11:45:01.936Z</time></trkpt><trkpt lat="43.953240080995634" lon="12.813344824211224"><ele>175.0</ele><time>2026-03-22T11:45:02.936Z</time></trkpt><trkpt lat="43.953248169935385" lon="12.81321734375626"><ele>176.33333333333331</ele><time>2026-03-22T11:45:03.936Z</time></trkpt><trkpt lat="43.95326887138678" lon="12.813106653128527"><ele>177.66666666666666</ele><time>2026-03-22T11:45:04.936Z</time></trkpt><trkpt lat="43.9532998512745" lon="12.8130084868594"><ele>179.0</ele><time>2026-03-22T11:45:05.936Z</time></trkpt><trkpt lat="43.95333660821058" lon="12.812911117942239"><ele>179.83333333333331</ele><time>2026-03-22T11:45:06.936Z</time></trkpt><trkpt lat="43.953379956674546" lon="12.81282251801497"><ele>180.66666666666666</ele><time>2026-03-22T11:45:07.936Z</time></trkpt><trkpt lat="43.95344329352715" lon="12.812747494056325"><ele>181.5</ele><time>2026-03-22T11:45:08.936Z</time></trkpt><trkpt lat="43.95350863012653" lon="12.812691254415016"><ele>182.33333333333334</ele><time>2026-03-22T11:45:09.936Z</time></trkpt><trkpt lat="43.953589324559594" lon="12.812654380868146"><ele>183.16666666666669</ele><time>2026-03-22T11:45:10.936Z</time></trkpt><trkpt lat="43.95367846554898" lon="12.81263755135792"><ele>184.0</ele><time>2026-03-22T11:45:11.936Z</time></trkpt><trkpt lat="43.95376948122193" lon="12.812612016221316"><ele>184.0</ele><time>2026-03-22T11:45:12.936Z</time></trkpt><trkpt lat="43.9538680879439" lon="12.812591337421832"><ele>184.0</ele><time>2026-03-22T11:45:13.936Z</time></trkpt><trkpt lat="43.95396162506333" lon="12.812564225320767"><ele>184.0</ele><time>2026-03-22T11:45:14.936Z</time></trkpt><trkpt lat="43.95405057098882" lon="12.812544498269562"><ele>184.0</ele><time>2026-03-22T11:45:15.936Z</time></trkpt><trkpt lat="43.95413154984409" lon="12.81252790177834"><ele>184.0</ele><time>2026-03-22T11:45:16.936Z</time></trkpt><trkpt lat="43.95420762174149" lon="12.812510623142925"><ele>184.0</ele><time>2026-03-22T11:45:17.936Z</time></trkpt><trkpt lat="43.954289970650485" lon="12.812492286862145"><ele>181.6</ele><time>2026-03-22T11:45:18.936Z</time></trkpt><trkpt lat="43.95437523490705" lon="12.812469503787932"><ele>179.2</ele><time>2026-03-22T11:45:19.936Z</time></trkpt><trkpt lat="43.95446315026962" lon="12.81240954414574"><ele>176.79999999999998</ele><time>2026-03-22T11:45:20.936Z</time></trkpt><trkpt lat="43.954543736960325" lon="12.8123502073281"><ele>174.39999999999998</ele><time>2026-03-22T11:45:21.936Z</time></trkpt><trkpt lat="43.95461998456853" lon="12.812286350603767"><ele>172.0</ele><time>2026-03-22T11:45:22.936Z</time></trkpt><trkpt lat="43.954692257573186" lon="12.812204212803625"><ele>172.0</ele><time>2026-03-22T11:45:23.935Z</time></trkpt><trkpt lat="43.95476256953692" lon="12.812120087257613"><ele>172.0</ele><time>2026-03-22T11:45:24.935Z</time></trkpt><trkpt lat="43.954829666980785" lon="12.812024757115243"><ele>172.0</ele><time>2026-03-22T11:45:25.935Z</time></trkpt><trkpt lat="43.9549033683231" lon="12.811929569539503"><ele>172.0</ele><time>2026-03-22T11:45:26.935Z</time></trkpt><trkpt lat="43.95497700031332" lon="12.811835307308899"><ele>172.0</ele><time>2026-03-22T11:45:27.935Z</time></trkpt><trkpt lat="43.9550568194359" lon="12.811757756979134"><ele>172.5</ele><time>2026-03-22T11:45:28.935Z</time></trkpt><trkpt lat="43.95513313692293" lon="12.81169818075989"><ele>173.0</ele><time>2026-03-22T11:45:29.935Z</time></trkpt><trkpt lat="43.95521117518277" lon="12.811642869736549"><ele>173.5</ele><time>2026-03-22T11:45:30.935Z</time></trkpt><trkpt lat="43.95527702381362" lon="12.811583704288909"><ele>174.0</ele><time>2026-03-22T11:45:31.935Z</time></trkpt><trkpt lat="43.95535317030726" lon="12.81153853992681"><ele>174.5</ele><time>2026-03-22T11:45:32.935Z</time></trkpt><trkpt lat="43.95542643890158" lon="12.811484022322526"><ele>175.0</ele><time>2026-03-22T11:45:33.935Z</time></trkpt><trkpt lat="43.9555068990901" lon="12.811421270514764"><ele>175.0</ele><time>2026-03-22T11:45:34.935Z</time></trkpt><trkpt lat="43.95558275178067" lon="12.811352069326064"><ele>175.0</ele><time>2026-03-22T11:45:35.935Z</time></trkpt><trkpt lat="43.95565857978543" lon="12.811284207290502"><ele>175.0</ele><time>2026-03-22T11:45:36.934Z</time></trkpt><trkpt lat="43.95572694008382" lon="12.811199488025705"><ele>175.0</ele><time>2026-03-22T11:45:37.934Z</time></trkpt><trkpt lat="43.95578416603824" lon="12.811103985080976"><ele>175.0</ele><time>2026-03-22T11:45:38.934Z</time></trkpt><trkpt lat="43.95582696615028" lon="12.81098983532381"><ele>177.0</ele><time>2026-03-22T11:45:39.934Z</time></trkpt><trkpt lat="43.95586502701382" lon="12.810857169105319"><ele>179.0</ele><time>2026-03-22T11:45:40.934Z</time></trkpt><trkpt lat="43.95589861634402" lon="12.810733456795965"><ele>181.0</ele><time>2026-03-22T11:45:41.934Z</time></trkpt><trkpt lat="43.95593486422721" lon="12.810608927577492"><ele>183.0</ele><time>2026-03-22T11:45:42.934Z</time></trkpt><trkpt lat="43.95597200953269" lon="12.810476123279543"><ele>185.0</ele><time>2026-03-22T11:45:43.934Z</time></trkpt><trkpt lat="43.956008030313754" lon="12.810341997534838"><ele>178.4</ele><time>2026-03-22T11:45:44.934Z</time></trkpt><trkpt lat="43.95603514973698" lon="12.810217215415713"><ele>171.8</ele><time>2026-03-22T11:45:45.934Z</time></trkpt><trkpt lat="43.95606534348957" lon="12.8100894064246"><ele>165.2</ele><time>2026-03-22T11:45:46.934Z</time></trkpt><trkpt lat="43.9560870086108" lon="12.809958481328264"><ele>158.6</ele><time>2026-03-22T11:45:47.934Z</time></trkpt><trkpt lat="43.95610541594049" lon="12.809827289146316"><ele>152.0</ele><time>2026-03-22T11:45:48.934Z</time></trkpt><trkpt lat="43.95611593002594" lon="12.809689200166574"><ele>152.0</ele><time>2026-03-22T11:45:49.934Z</time></trkpt><trkpt lat="43.956122203898424" lon="12.809545932738656"><ele>152.0</ele><time>2026-03-22T11:45:50.934Z</time></trkpt><trkpt lat="43.956123908499755" lon="12.809406107458974"><ele>152.0</ele><time>2026-03-22T11:45:51.934Z</time></trkpt><trkpt lat="43.95613410340315" lon="12.809261213991345"><ele>152.0</ele><time>2026-03-22T11:45:52.934Z</time></trkpt><trkpt lat="43.95614642832209" lon="12.80914231635864"><ele>152.0</ele><time>2026-03-22T11:45:53.934Z</time></trkpt><trkpt lat="43.9561648682244" lon="12.809032024994867"><ele>155.66666666666666</ele><time>2026-03-22T11:45:54.935Z</time></trkpt><trkpt lat="43.956183502104224" lon="12.808920207452772"><ele>159.33333333333331</ele><time>2026-03-22T11:45:55.935Z</time></trkpt><trkpt lat="43.956203622662485" lon="12.808807650304471"><ele>163.0</ele><time>2026-03-22T11:45:56.935Z</time></trkpt><trkpt lat="43.95622207106636" lon="12.808716274988104"><ele>166.66666666666666</ele><time>2026-03-22T11:45:57.935Z</time></trkpt><trkpt lat="43.95626055838926" lon="12.80855563944639"><ele>170.33333333333334</ele><time>2026-03-22T11:45:59.935Z</time></trkpt><trkpt lat="43.95630092808613" lon="12.80846553127674"><ele>174.0</ele><time>2026-03-22T11:46:00.935Z</time></trkpt><trkpt lat="43.95634473132596" lon="12.808368981678841"><ele>177.39999999999998</ele><time>2026-03-22T11:46:01.935Z</time></trkpt><trkpt lat="43.95640005803052" lon="12.808257144097363"><ele>180.8</ele><time>2026-03-22T11:46:02.935Z</time></trkpt><trkpt lat="43.95646296143681" lon="12.808146023548465"><ele>184.2</ele><time>2026-03-22T11:46:03.935Z</time></trkpt><trkpt lat="43.95651586029081" lon="12.808040233583673"><ele>187.60000000000002</ele><time>2026-03-22T11:46:04.935Z</time></trkpt><trkpt lat="43.95657641044259" lon="12.807931967775838"><ele>191.0</ele><time>2026-03-22T11:46:05.935Z</time></trkpt><trkpt lat="43.95664479565549" lon="12.807823817163625"><ele>186.8</ele><time>2026-03-22T11:46:06.935Z</time></trkpt><trkpt lat="43.956720704302775" lon="12.807727402402753"><ele>182.60000000000002</ele><time>2026-03-22T11:46:07.935Z</time></trkpt><trkpt lat="43.956807748088245" lon="12.807657866991704"><ele>178.4</ele><time>2026-03-22T11:46:08.935Z</time></trkpt><trkpt lat="43.956893036620464" lon="12.807599797662386"><ele>174.2</ele><time>2026-03-22T11:46:09.935Z</time></trkpt><trkpt lat="43.95697477647812" lon="12.807542387041526"><ele>170.0</ele><time>2026-03-22T11:46:10.935Z</time></trkpt><trkpt lat="43.957040660227555" lon="12.807483553927536"><ele>170.0</ele><time>2026-03-22T11:46:11.935Z</time></trkpt><trkpt lat="43.95708939945291" lon="12.807407156594943"><ele>170.0</ele><time>2026-03-22T11:46:12.935Z</time></trkpt><trkpt lat="43.95716744687354" lon="12.807289427912458"><ele>170.0</ele><time>2026-03-22T11:46:14.935Z</time></trkpt><trkpt lat="43.95724746706885" lon="12.807178011535653"><ele>170.0</ele><time>2026-03-22T11:46:16.935Z</time></trkpt><trkpt lat="43.95731174982747" lon="12.807096701564701"><ele>170.0</ele><time>2026-03-22T11:46:19.935Z</time></trkpt><trkpt lat="43.957354258115835" lon="12.807028001128984"><ele>170.0</ele><time>2026-03-22T11:46:21.935Z</time></trkpt><trkpt lat="43.95741294568353" lon="12.806942237889293"><ele>170.0</ele><time>2026-03-22T11:46:23.935Z</time></trkpt><trkpt lat="43.95748466385442" lon="12.80686118067969"><ele>170.0</ele><time>2026-03-22T11:46:25.935Z</time></trkpt><trkpt lat="43.95758721596153" lon="12.806779092946607"><ele>170.0</ele><time>2026-03-22T11:46:27.935Z</time></trkpt><trkpt lat="43.957694415412064" lon="12.806720028381699"><ele>170.0</ele><time>2026-03-22T11:46:29.935Z</time></trkpt><trkpt lat="43.95778995865518" lon="12.80664660671507"><ele>165.8</ele><time>2026-03-22T11:46:31.935Z</time></trkpt><trkpt lat="43.957827519851435" lon="12.806561319276499"><ele>161.6</ele><time>2026-03-22T11:46:32.935Z</time></trkpt><trkpt lat="43.95786527303102" lon="12.806420014006699"><ele>157.4</ele><time>2026-03-22T11:46:34.935Z</time></trkpt><trkpt lat="43.95790571085369" lon="12.806293270643982"><ele>153.2</ele><time>2026-03-22T11:46:36.935Z</time></trkpt><trkpt lat="43.95795358153668" lon="12.8061807121229"><ele>149.0</ele><time>2026-03-22T11:46:38.935Z</time></trkpt><trkpt lat="43.957993502349595" lon="12.806057718407644"><ele>152.33333333333331</ele><time>2026-03-22T11:46:40.935Z</time></trkpt><trkpt lat="43.95799432025061" lon="12.805937205962612"><ele>155.66666666666666</ele><time>2026-03-22T11:46:42.935Z</time></trkpt><trkpt lat="43.957922025014454" lon="12.805857713503093"><ele>159.0</ele><time>2026-03-22T11:46:44.935Z</time></trkpt><trkpt lat="43.957842809221276" lon="12.805852751623746"><ele>162.33333333333334</ele><time>2026-03-22T11:46:46.935Z</time></trkpt><trkpt lat="43.957777986782155" lon="12.805843289359954"><ele>165.66666666666669</ele><time>2026-03-22T11:46:49.935Z</time></trkpt><trkpt lat="43.95770289805356" lon="12.805827325676963"><ele>169.0</ele><time>2026-03-22T11:46:52.935Z</time></trkpt><trkpt lat="43.95763269890996" lon="12.80588720437974"><ele>169.0</ele><time>2026-03-22T11:46:55.935Z</time></trkpt><trkpt lat="43.95757935775737" lon="12.805973298419334"><ele>169.0</ele><time>2026-03-22T11:46:57.935Z</time></trkpt><trkpt lat="43.957554091368856" lon="12.806085623791704"><ele>169.0</ele><time>2026-03-22T11:47:00.935Z</time></trkpt><trkpt lat="43.957540379444545" lon="12.806191557868358"><ele>169.0</ele><time>2026-03-22T11:47:02.935Z</time></trkpt><trkpt lat="43.95754751847759" lon="12.806292767961018"><ele>169.0</ele><time>2026-03-22T11:47:06.935Z</time></trkpt><trkpt lat="43.95753623661012" lon="12.806384897552094"><ele>169.0</ele><time>2026-03-22T11:47:11.935Z</time></trkpt><trkpt lat="43.9575136430536" lon="12.80646714871447"><ele>169.0</ele><time>2026-03-22T11:47:25.935Z</time></trkpt><trkpt lat="43.95752748979547" lon="12.80657504890001"><ele>169.2</ele><time>2026-03-22T11:47:28.935Z</time></trkpt><trkpt lat="43.95751894235877" lon="12.80670323903774"><ele>169.39999999999998</ele><time>2026-03-22T11:47:30.934Z</time></trkpt><trkpt lat="43.95746979825172" lon="12.806844027744477"><ele>169.6</ele><time>2026-03-22T11:47:32.934Z</time></trkpt><trkpt lat="43.95740118815931" lon="12.806965907155304"><ele>169.8</ele><time>2026-03-22T11:47:34.935Z</time></trkpt><trkpt lat="43.95735498258045" lon="12.807033744136728"><ele>170.0</ele><time>2026-03-22T11:47:35.934Z</time></trkpt><trkpt lat="43.95730791247934" lon="12.807104618344965"><ele>170.0</ele><time>2026-03-22T11:47:36.934Z</time></trkpt><trkpt lat="43.95724970736692" lon="12.807181386552838"><ele>170.0</ele><time>2026-03-22T11:47:37.934Z</time></trkpt><trkpt lat="43.95718187394483" lon="12.807257043219826"><ele>170.0</ele><time>2026-03-22T11:47:38.935Z</time></trkpt><trkpt lat="43.957127006158615" lon="12.807330288804705"><ele>170.0</ele><time>2026-03-22T11:47:39.935Z</time></trkpt><trkpt lat="43.957063815299335" lon="12.807402435996789"><ele>170.0</ele><time>2026-03-22T11:47:40.935Z</time></trkpt><trkpt lat="43.95699474614018" lon="12.807479649405625"><ele>170.0</ele><time>2026-03-22T11:47:41.935Z</time></trkpt><trkpt lat="43.956923877243845" lon="12.80755526056175"><ele>170.0</ele><time>2026-03-22T11:47:42.934Z</time></trkpt><trkpt lat="43.95684851132984" lon="12.807614792028735"><ele>170.0</ele><time>2026-03-22T11:47:43.934Z</time></trkpt><trkpt lat="43.95677096693732" lon="12.80765730425165"><ele>170.0</ele><time>2026-03-22T11:47:44.934Z</time></trkpt><trkpt lat="43.95669333977225" lon="12.807715328101235"><ele>170.0</ele><time>2026-03-22T11:47:45.934Z</time></trkpt><trkpt lat="43.95663420474925" lon="12.80779147343536"><ele>170.0</ele><time>2026-03-22T11:47:46.934Z</time></trkpt><trkpt lat="43.956579472925235" lon="12.807889082350098"><ele>170.0</ele><time>2026-03-22T11:47:47.934Z</time></trkpt><trkpt lat="43.956524032034174" lon="12.807991734997703"><ele>170.66666666666666</ele><time>2026-03-22T11:47:48.934Z</time></trkpt><trkpt lat="43.95647354044867" lon="12.8080989183666"><ele>171.33333333333331</ele><time>2026-03-22T11:47:49.934Z</time></trkpt><trkpt lat="43.95642710163119" lon="12.80820511705506"><ele>172.0</ele><time>2026-03-22T11:47:50.934Z</time></trkpt><trkpt lat="43.9563865498935" lon="12.808291883833412"><ele>172.66666666666666</ele><time>2026-03-22T11:47:51.934Z</time></trkpt><trkpt lat="43.95634624180281" lon="12.808375333847549"><ele>173.33333333333334</ele><time>2026-03-22T11:47:52.934Z</time></trkpt><trkpt lat="43.95630629872709" lon="12.80845877085891"><ele>174.0</ele><time>2026-03-22T11:47:53.934Z</time></trkpt><trkpt lat="43.95626738248109" lon="12.808551497084794"><ele>174.0</ele><time>2026-03-22T11:47:54.934Z</time></trkpt><trkpt lat="43.95623088268055" lon="12.808650575461126"><ele>174.0</ele><time>2026-03-22T11:47:55.934Z</time></trkpt><trkpt lat="43.95620154534675" lon="12.808774643048112"><ele>174.0</ele><time>2026-03-22T11:47:56.934Z</time></trkpt><trkpt lat="43.95617745026501" lon="12.808893409516314"><ele>174.0</ele><time>2026-03-22T11:47:57.934Z</time></trkpt><trkpt lat="43.95616232472741" lon="12.809020556708628"><ele>174.0</ele><time>2026-03-22T11:47:58.934Z</time></trkpt><trkpt lat="43.956154517392996" lon="12.809167085353613"><ele>174.0</ele><time>2026-03-22T11:47:59.934Z</time></trkpt><trkpt lat="43.95612889070102" lon="12.809317997058256"><ele>174.0</ele><time>2026-03-22T11:48:00.934Z</time></trkpt><trkpt lat="43.95611778062902" lon="12.809476770334705"><ele>174.0</ele><time>2026-03-22T11:48:01.934Z</time></trkpt><trkpt lat="43.95610731973469" lon="12.809648926903517"><ele>174.0</ele><time>2026-03-22T11:48:02.934Z</time></trkpt><trkpt lat="43.95609873662165" lon="12.809827310499141"><ele>168.5</ele><time>2026-03-22T11:48:03.934Z</time></trkpt><trkpt lat="43.956081400841974" lon="12.81001221985113"><ele>163.0</ele><time>2026-03-22T11:48:04.935Z</time></trkpt><trkpt lat="43.95605524987172" lon="12.810184191318472"><ele>157.5</ele><time>2026-03-22T11:48:05.935Z</time></trkpt><trkpt lat="43.9560239960625" lon="12.810333414434755"><ele>152.0</ele><time>2026-03-22T11:48:06.935Z</time></trkpt><trkpt lat="43.95599165945077" lon="12.810451050837187"><ele>155.83333333333331</ele><time>2026-03-22T11:48:07.935Z</time></trkpt><trkpt lat="43.95596172695446" lon="12.810551713411707"><ele>159.66666666666666</ele><time>2026-03-22T11:48:08.935Z</time></trkpt><trkpt lat="43.955935123663345" lon="12.81064267550867"><ele>163.5</ele><time>2026-03-22T11:48:09.935Z</time></trkpt><trkpt lat="43.95590577171516" lon="12.810742888978208"><ele>167.33333333333334</ele><time>2026-03-22T11:48:10.935Z</time></trkpt><trkpt lat="43.95587643456482" lon="12.810845454079463"><ele>171.16666666666669</ele><time>2026-03-22T11:48:11.935Z</time></trkpt><trkpt lat="43.95585021900925" lon="12.810941969463224"><ele>175.0</ele><time>2026-03-22T11:48:12.935Z</time></trkpt><trkpt lat="43.95581778130337" lon="12.811041184760672"><ele>175.0</ele><time>2026-03-22T11:48:13.935Z</time></trkpt><trkpt lat="43.95577232349061" lon="12.8111442118503"><ele>175.0</ele><time>2026-03-22T11:48:14.935Z</time></trkpt><trkpt lat="43.95569968938055" lon="12.811247454433765"><ele>175.0</ele><time>2026-03-22T11:48:15.935Z</time></trkpt><trkpt lat="43.955614285229686" lon="12.811341528705306"><ele>175.0</ele><time>2026-03-22T11:48:16.935Z</time></trkpt><trkpt lat="43.95551823012352" lon="12.811408843362011"><ele>175.0</ele><time>2026-03-22T11:48:17.935Z</time></trkpt><trkpt lat="43.95543383016968" lon="12.811465752006937"><ele>175.0</ele><time>2026-03-22T11:48:18.935Z</time></trkpt><trkpt lat="43.95535217366927" lon="12.811530036118537"><ele>175.0</ele><time>2026-03-22T11:48:19.935Z</time></trkpt><trkpt lat="43.95526866644265" lon="12.811593313490773"><ele>175.0</ele><time>2026-03-22T11:48:20.935Z</time></trkpt><trkpt lat="43.9551848685124" lon="12.811656181148487"><ele>175.0</ele><time>2026-03-22T11:48:21.935Z</time></trkpt><trkpt lat="43.955094859697766" lon="12.811724688800641"><ele>175.0</ele><time>2026-03-22T11:48:22.935Z</time></trkpt><trkpt lat="43.95500015504598" lon="12.811814072497167"><ele>174.25</ele><time>2026-03-22T11:48:23.935Z</time></trkpt><trkpt lat="43.9549039589376" lon="12.811928378508904"><ele>173.5</ele><time>2026-03-22T11:48:24.935Z</time></trkpt><trkpt lat="43.95480303873513" lon="12.812067129010247"><ele>172.75</ele><time>2026-03-22T11:48:25.935Z</time></trkpt><trkpt lat="43.954706109288495" lon="12.812203258823986"><ele>172.0</ele><time>2026-03-22T11:48:26.935Z</time></trkpt><trkpt lat="43.95462115616573" lon="12.812318346980517"><ele>172.0</ele><time>2026-03-22T11:48:27.935Z</time></trkpt><trkpt lat="43.954521692409415" lon="12.8123998429732"><ele>172.0</ele><time>2026-03-22T11:48:28.935Z</time></trkpt><trkpt lat="43.954404181423094" lon="12.812456439155811"><ele>172.0</ele><time>2026-03-22T11:48:29.935Z</time></trkpt><trkpt lat="43.95429329229299" lon="12.812496842175284"><ele>172.0</ele><time>2026-03-22T11:48:30.935Z</time></trkpt><trkpt lat="43.95417528192932" lon="12.81252378979927"><ele>174.39999999999998</ele><time>2026-03-22T11:48:31.935Z</time></trkpt><trkpt lat="43.95406135381186" lon="12.812540687785084"><ele>176.79999999999998</ele><time>2026-03-22T11:48:32.935Z</time></trkpt><trkpt lat="43.953953053953455" lon="12.812553014923632"><ele>179.2</ele><time>2026-03-22T11:48:33.935Z</time></trkpt><trkpt lat="43.95384722858941" lon="12.812576010000688"><ele>181.6</ele><time>2026-03-22T11:48:34.935Z</time></trkpt><trkpt lat="43.95374096383542" lon="12.812607245623322"><ele>184.0</ele><time>2026-03-22T11:48:35.935Z</time></trkpt><trkpt lat="43.95364730627249" lon="12.812634886026556"><ele>183.16666666666669</ele><time>2026-03-22T11:48:36.935Z</time></trkpt><trkpt lat="43.95356455414405" lon="12.81266661267297"><ele>182.33333333333334</ele><time>2026-03-22T11:48:37.935Z</time></trkpt><trkpt lat="43.95348459047178" lon="12.812688958680305"><ele>181.5</ele><time>2026-03-22T11:48:38.935Z</time></trkpt><trkpt lat="43.95342263266319" lon="12.81271984495573"><ele>180.66666666666666</ele><time>2026-03-22T11:48:39.935Z</time></trkpt><trkpt lat="43.95336244151458" lon="12.812775485347483"><ele>179.83333333333331</ele><time>2026-03-22T11:48:40.935Z</time></trkpt><trkpt lat="43.95331244406618" lon="12.812860715893793"><ele>179.0</ele><time>2026-03-22T11:48:41.935Z</time></trkpt><trkpt lat="43.95327083252407" lon="12.812964851359903"><ele>179.0</ele><time>2026-03-22T11:48:42.935Z</time></trkpt><trkpt lat="43.95323515950714" lon="12.813085863444304"><ele>179.0</ele><time>2026-03-22T11:48:43.935Z</time></trkpt><trkpt lat="43.9532131001601" lon="12.813212826286678"><ele>179.0</ele><time>2026-03-22T11:48:44.935Z</time></trkpt><trkpt lat="43.953211159062455" lon="12.81334677313701"><ele>179.0</ele><time>2026-03-22T11:48:45.935Z</time></trkpt><trkpt lat="43.95321187375656" lon="12.813490809291752"><ele>179.0</ele><time>2026-03-22T11:48:46.935Z</time></trkpt><trkpt lat="43.95323536841743" lon="12.813638968337331"><ele>177.25</ele><time>2026-03-22T11:48:47.935Z</time></trkpt><trkpt lat="43.953269803832576" lon="12.81380592475391"><ele>175.5</ele><time>2026-03-22T11:48:48.935Z</time></trkpt><trkpt lat="43.95332570303698" lon="12.814003513326043"><ele>173.75</ele><time>2026-03-22T11:48:49.935Z</time></trkpt><trkpt lat="43.953377933040784" lon="12.814204277609063"><ele>172.0</ele><time>2026-03-22T11:48:50.935Z</time></trkpt><trkpt lat="43.95342303116456" lon="12.814411426314791"><ele>172.0</ele><time>2026-03-22T11:48:51.935Z</time></trkpt><trkpt lat="43.9534690587699" lon="12.814600976896823"><ele>172.0</ele><time>2026-03-22T11:48:52.935Z</time></trkpt><trkpt lat="43.95350835436821" lon="12.814773572795783"><ele>172.0</ele><time>2026-03-22T11:48:53.935Z</time></trkpt><trkpt lat="43.95353559668133" lon="12.814922872381144"><ele>172.0</ele><time>2026-03-22T11:48:54.935Z</time></trkpt><trkpt lat="43.95356002604625" lon="12.815053184202524"><ele>168.2</ele><time>2026-03-22T11:48:55.935Z</time></trkpt><trkpt lat="43.95360202898156" lon="12.815167107080155"><ele>164.39999999999998</ele><time>2026-03-22T11:48:56.935Z</time></trkpt><trkpt lat="43.95366768622071" lon="12.815260659693685"><ele>160.60000000000002</ele><time>2026-03-22T11:48:57.935Z</time></trkpt><trkpt lat="43.9537636915857" lon="12.81536428237904"><ele>156.8</ele><time>2026-03-22T11:48:58.935Z</time></trkpt><trkpt lat="43.95386937903131" lon="12.815459033446098"><ele>153.0</ele><time>2026-03-22T11:48:59.935Z</time></trkpt><trkpt lat="43.953969256756935" lon="12.815552969081018"><ele>153.0</ele><time>2026-03-22T11:49:00.935Z</time></trkpt><trkpt lat="43.95406532876509" lon="12.815647499885099"><ele>153.0</ele><time>2026-03-22T11:49:01.935Z</time></trkpt><trkpt lat="43.95415882870388" lon="12.81574158190484"><ele>153.0</ele><time>2026-03-22T11:49:02.935Z</time></trkpt><trkpt lat="43.954239514145215" lon="12.815830773963738"><ele>153.0</ele><time>2026-03-22T11:49:03.935Z</time></trkpt><trkpt lat="43.954306176915246" lon="12.81593868174333"><ele>153.0</ele><time>2026-03-22T11:49:04.935Z</time></trkpt><trkpt lat="43.95435568809825" lon="12.816046767354605"><ele>143.66666666666666</ele><time>2026-03-22T11:49:05.935Z</time></trkpt><trkpt lat="43.95439854898979" lon="12.816149635287406"><ele>134.33333333333334</ele><time>2026-03-22T11:49:06.935Z</time></trkpt><trkpt lat="43.954429376852474" lon="12.816259221871679"><ele>125.0</ele><time>2026-03-22T11:49:07.935Z</time></trkpt><trkpt lat="43.954440111603994" lon="12.816373449645118"><ele>115.66666666666667</ele><time>2026-03-22T11:49:08.935Z</time></trkpt><trkpt lat="43.95443103754302" lon="12.816487894153363"><ele>106.33333333333334</ele><time>2026-03-22T11:49:09.935Z</time></trkpt><trkpt lat="43.95442649223108" lon="12.816599464784279"><ele>97.0</ele><time>2026-03-22T11:49:10.935Z</time></trkpt><trkpt lat="43.95441585492709" lon="12.816705178769821"><ele>97.00000000000001</ele><time>2026-03-22T11:49:11.935Z</time></trkpt><trkpt lat="43.954385185270716" lon="12.816788946600958"><ele>97.0</ele><time>2026-03-22T11:49:12.935Z</time></trkpt><trkpt lat="43.954342180205565" lon="12.816909239629414"><ele>97.0</ele><time>2026-03-22T11:49:14.935Z</time></trkpt><trkpt lat="43.954313834334314" lon="12.817003492626952"><ele>97.0</ele><time>2026-03-22T11:49:16.935Z</time></trkpt><trkpt lat="43.95427721369295" lon="12.817104577665711"><ele>97.00000000000001</ele><time>2026-03-22T11:49:19.935Z</time></trkpt><trkpt lat="43.95425807218072" lon="12.817200852442303"><ele>97.0</ele><time>2026-03-22T11:49:22.935Z</time></trkpt><trkpt lat="43.95422544923061" lon="12.81731222932121"><ele>102.83333333333334</ele><time>2026-03-22T11:49:25.935Z</time></trkpt><trkpt lat="43.95418431362995" lon="12.817393914252957"><ele>108.66666666666667</ele><time>2026-03-22T11:49:27.935Z</time></trkpt><trkpt lat="43.954132511208336" lon="12.817307334985493"><ele>114.5</ele><time>2026-03-22T11:49:31.935Z</time></trkpt><trkpt lat="43.95413755524091" lon="12.817208850508207"><ele>120.33333333333334</ele><time>2026-03-22T11:49:32.935Z</time></trkpt><trkpt lat="43.95414326311207" lon="12.817086429322478"><ele>126.16666666666667</ele><time>2026-03-22T11:49:33.935Z</time></trkpt><trkpt lat="43.954126275067715" lon="12.816921417792175"><ele>132.0</ele><time>2026-03-22T11:49:34.935Z</time></trkpt><trkpt lat="43.95408230303633" lon="12.816739173943512"><ele>134.25</ele><time>2026-03-22T11:49:35.934Z</time></trkpt><trkpt lat="43.954037394608285" lon="12.81653659185938"><ele>136.5</ele><time>2026-03-22T11:49:36.934Z</time></trkpt><trkpt lat="43.95400069147407" lon="12.816349331724375"><ele>138.75</ele><time>2026-03-22T11:49:37.934Z</time></trkpt><trkpt lat="43.95397827127314" lon="12.816194700346504"><ele>141.0</ele><time>2026-03-22T11:49:38.935Z</time></trkpt><trkpt lat="43.95393300596186" lon="12.816076640743677"><ele>144.0</ele><time>2026-03-22T11:49:39.934Z</time></trkpt><trkpt lat="43.95386258710763" lon="12.815962923010908"><ele>147.0</ele><time>2026-03-22T11:49:40.934Z</time></trkpt><trkpt lat="43.953769891043876" lon="12.815829675001117"><ele>150.0</ele><time>2026-03-22T11:49:41.934Z</time></trkpt><trkpt lat="43.95363854995001" lon="12.81572298721486"><ele>153.0</ele><time>2026-03-22T11:49:42.934Z</time></trkpt><trkpt lat="43.95349859315771" lon="12.815618370016999"><ele>153.0</ele><time>2026-03-22T11:49:43.934Z</time></trkpt><trkpt lat="43.95337230978955" lon="12.815518003749302"><ele>153.0</ele><time>2026-03-22T11:49:44.935Z</time></trkpt><trkpt lat="43.9532711412563" lon="12.815425550934876"><ele>153.0</ele><time>2026-03-22T11:49:45.934Z</time></trkpt><trkpt lat="43.95320487246397" lon="12.815299725481694"><ele>153.0</ele><time>2026-03-22T11:49:46.934Z</time></trkpt><trkpt lat="43.95317029919389" lon="12.815174721257558"><ele>154.25</ele><time>2026-03-22T11:49:47.934Z</time></trkpt><trkpt lat="43.95315108065973" lon="12.815040346918364"><ele>155.5</ele><time>2026-03-22T11:49:48.934Z</time></trkpt><trkpt lat="43.95312766954445" lon="12.814898321255306"><ele>156.75</ele><time>2026-03-22T11:49:49.934Z</time></trkpt><trkpt lat="43.953081734564904" lon="12.814733235374119"><ele>158.0</ele><time>2026-03-22T11:49:50.934Z</time></trkpt><trkpt lat="43.95302609374166" lon="12.814545400609557"><ele>158.0</ele><time>2026-03-22T11:49:51.934Z</time></trkpt><trkpt lat="43.9529487985672" lon="12.814333673653493"><ele>158.0</ele><time>2026-03-22T11:49:52.934Z</time></trkpt><trkpt lat="43.952860626310795" lon="12.814121414682663"><ele>158.0</ele><time>2026-03-22T11:49:53.934Z</time></trkpt><trkpt lat="43.95276237377056" lon="12.813931319767562"><ele>161.25</ele><time>2026-03-22T11:49:54.934Z</time></trkpt><trkpt lat="43.95266915152027" lon="12.813772096219541"><ele>164.5</ele><time>2026-03-22T11:49:55.934Z</time></trkpt><trkpt lat="43.952604418206086" lon="12.813638372137444"><ele>167.75</ele><time>2026-03-22T11:49:56.934Z</time></trkpt><trkpt lat="43.952561307213855" lon="12.813505254425648"><ele>171.0</ele><time>2026-03-22T11:49:57.934Z</time></trkpt><trkpt lat="43.95255053882608" lon="12.813362154808654"><ele>171.5</ele><time>2026-03-22T11:49:58.934Z</time></trkpt><trkpt lat="43.95256133975827" lon="12.813195253958957"><ele>172.0</ele><time>2026-03-22T11:49:59.934Z</time></trkpt><trkpt lat="43.95260274946913" lon="12.813015520878098"><ele>172.5</ele><time>2026-03-22T11:50:00.934Z</time></trkpt><trkpt lat="43.95265884291082" lon="12.812811952174107"><ele>173.0</ele><time>2026-03-22T11:50:01.934Z</time></trkpt><trkpt lat="43.95271765181737" lon="12.812593465533869"><ele>173.0</ele><time>2026-03-22T11:50:02.934Z</time></trkpt><trkpt lat="43.95277344871292" lon="12.812376930660983"><ele>173.0</ele><time>2026-03-22T11:50:03.934Z</time></trkpt><trkpt lat="43.952844204500536" lon="12.812193148645362"><ele>173.0</ele><time>2026-03-22T11:50:04.934Z</time></trkpt><trkpt lat="43.95291677574904" lon="12.81206558893397"><ele>173.0</ele><time>2026-03-22T11:50:05.934Z</time></trkpt><trkpt lat="43.95301071458037" lon="12.811956016085073"><ele>173.0</ele><time>2026-03-22T11:50:06.934Z</time></trkpt><trkpt lat="43.95312067981177" lon="12.811882027500557"><ele>173.0</ele><time>2026-03-22T11:50:07.934Z</time></trkpt><trkpt lat="43.9532320917609" lon="12.811852383563892"><ele>173.0</ele><time>2026-03-22T11:50:08.934Z</time></trkpt><trkpt lat="43.953334668010825" lon="12.811861522211315"><ele>173.0</ele><time>2026-03-22T11:50:09.934Z</time></trkpt><trkpt lat="43.95343369390652" lon="12.811896069886913"><ele>173.0</ele><time>2026-03-22T11:50:10.934Z</time></trkpt><trkpt lat="43.95350120665071" lon="12.811952435183132"><ele>175.2</ele><time>2026-03-22T11:50:11.934Z</time></trkpt><trkpt lat="43.953549267646785" lon="12.812052779437849"><ele>177.4</ele><time>2026-03-22T11:50:12.934Z</time></trkpt><trkpt lat="43.953623968147916" lon="12.81211262958928"><ele>179.6</ele><time>2026-03-22T11:50:13.934Z</time></trkpt><trkpt lat="43.953706285122074" lon="12.812122301173757"><ele>181.79999999999998</ele><time>2026-03-22T11:50:14.934Z</time></trkpt><trkpt lat="43.95380709915518" lon="12.812098837851384"><ele>184.0</ele><time>2026-03-22T11:50:15.934Z</time></trkpt><trkpt lat="43.95390788072408" lon="12.81205897231912"><ele>184.0</ele><time>2026-03-22T11:50:16.934Z</time></trkpt><trkpt lat="43.95401481724975" lon="12.81202507196816"><ele>184.0</ele><time>2026-03-22T11:50:17.934Z</time></trkpt><trkpt lat="43.95413386033163" lon="12.811985274088135"><ele>184.0</ele><time>2026-03-22T11:50:18.934Z</time></trkpt><trkpt lat="43.95421983858466" lon="12.811910695567523"><ele>184.0</ele><time>2026-03-22T11:50:19.934Z</time></trkpt><trkpt lat="43.954292065174734" lon="12.811817682786488"><ele>184.0</ele><time>2026-03-22T11:50:20.934Z</time></trkpt><trkpt lat="43.954352610720356" lon="12.811701289924484"><ele>184.5</ele><time>2026-03-22T11:50:21.934Z</time></trkpt><trkpt lat="43.95437181997516" lon="12.811548215265102"><ele>185.0</ele><time>2026-03-22T11:50:22.934Z</time></trkpt><trkpt lat="43.954363901523195" lon="12.811376892011788"><ele>185.5</ele><time>2026-03-22T11:50:23.934Z</time></trkpt><trkpt lat="43.95433510926266" lon="12.811218209857607"><ele>186.0</ele><time>2026-03-22T11:50:24.934Z</time></trkpt><trkpt lat="43.954302562752055" lon="12.811059348211312"><ele>185.5</ele><time>2026-03-22T11:50:25.934Z</time></trkpt><trkpt lat="43.954320103294926" lon="12.81091026103278"><ele>185.0</ele><time>2026-03-22T11:50:26.934Z</time></trkpt><trkpt lat="43.95437223509967" lon="12.810785697277918"><ele>184.5</ele><time>2026-03-22T11:50:27.934Z</time></trkpt><trkpt lat="43.9544677668766" lon="12.810689872473471"><ele>184.0</ele><time>2026-03-22T11:50:28.934Z</time></trkpt><trkpt lat="43.95458300359972" lon="12.81061083120709"><ele>184.0</ele><time>2026-03-22T11:50:29.934Z</time></trkpt><trkpt lat="43.95471812424235" lon="12.810547282376884"><ele>184.0</ele><time>2026-03-22T11:50:30.934Z</time></trkpt><trkpt lat="43.95485436594262" lon="12.81049617040719"><ele>184.0</ele><time>2026-03-22T11:50:31.934Z</time></trkpt><trkpt lat="43.954962154255234" lon="12.810437912518553"><ele>184.0</ele><time>2026-03-22T11:50:32.934Z</time></trkpt><trkpt lat="43.955047961922745" lon="12.810367900905257"><ele>184.2</ele><time>2026-03-22T11:50:33.934Z</time></trkpt><trkpt lat="43.955122891135595" lon="12.810275676136676"><ele>184.39999999999998</ele><time>2026-03-22T11:50:34.934Z</time></trkpt><trkpt lat="43.95518048025806" lon="12.810146027729386"><ele>184.6</ele><time>2026-03-22T11:50:35.934Z</time></trkpt><trkpt lat="43.95521451204078" lon="12.810009718349084"><ele>184.8</ele><time>2026-03-22T11:50:36.934Z</time></trkpt><trkpt lat="43.95522777642705" lon="12.809854703296383"><ele>185.0</ele><time>2026-03-22T11:50:37.934Z</time></trkpt><trkpt lat="43.95521419331833" lon="12.80970066482744"><ele>186.75</ele><time>2026-03-22T11:50:38.934Z</time></trkpt><trkpt lat="43.955175177141435" lon="12.809570777453127"><ele>188.5</ele><time>2026-03-22T11:50:39.934Z</time></trkpt><trkpt lat="43.95508225385019" lon="12.809441650169349"><ele>190.25</ele><time>2026-03-22T11:50:40.934Z</time></trkpt><trkpt lat="43.954988137495505" lon="12.809289490126721"><ele>192.0</ele><time>2026-03-22T11:50:41.934Z</time></trkpt><trkpt lat="43.95487966360878" lon="12.809142038759168"><ele>188.25</ele><time>2026-03-22T11:50:42.934Z</time></trkpt><trkpt lat="43.954798383404665" lon="12.808994867177779"><ele>184.5</ele><time>2026-03-22T11:50:43.934Z</time></trkpt><trkpt lat="43.9547322083186" lon="12.808842500124443"><ele>180.75</ele><time>2026-03-22T11:50:44.934Z</time></trkpt><trkpt lat="43.9546972566155" lon="12.808675691100085"><ele>177.0</ele><time>2026-03-22T11:50:45.934Z</time></trkpt><trkpt lat="43.954663595596024" lon="12.808520758136977"><ele>180.0</ele><time>2026-03-22T11:50:46.934Z</time></trkpt><trkpt lat="43.954589428155856" lon="12.808402785598831"><ele>183.0</ele><time>2026-03-22T11:50:47.934Z</time></trkpt><trkpt lat="43.954493795455" lon="12.808299876859998"><ele>186.0</ele><time>2026-03-22T11:50:48.934Z</time></trkpt><trkpt lat="43.95437303410307" lon="12.808219807758542"><ele>189.0</ele><time>2026-03-22T11:50:49.934Z</time></trkpt><trkpt lat="43.954252189458224" lon="12.808143936152916"><ele>184.0</ele><time>2026-03-22T11:50:50.934Z</time></trkpt><trkpt lat="43.954131204122014" lon="12.808068573860522"><ele>179.0</ele><time>2026-03-22T11:50:51.934Z</time></trkpt><trkpt lat="43.95401390880101" lon="12.808011699802247"><ele>174.0</ele><time>2026-03-22T11:50:52.934Z</time></trkpt><trkpt lat="43.95392015929565" lon="12.80795613090904"><ele>169.0</ele><time>2026-03-22T11:50:53.934Z</time></trkpt><trkpt lat="43.95383555249557" lon="12.807923059101492"><ele>164.0</ele><time>2026-03-22T11:50:54.934Z</time></trkpt><trkpt lat="43.95376563468534" lon="12.807881237846017"><ele>164.0</ele><time>2026-03-22T11:50:55.934Z</time></trkpt><trkpt lat="43.95370115909355" lon="12.807819638896165"><ele>164.0</ele><time>2026-03-22T11:50:56.935Z</time></trkpt><trkpt lat="43.95366201205047" lon="12.807721204207134"><ele>164.0</ele><time>2026-03-22T11:50:57.935Z</time></trkpt><trkpt lat="43.953645691277565" lon="12.807575968441782"><ele>164.0</ele><time>2026-03-22T11:50:58.935Z</time></trkpt><trkpt lat="43.953656956819664" lon="12.807396137316996"><ele>164.0</ele><time>2026-03-22T11:50:59.935Z</time></trkpt><trkpt lat="43.95370047049543" lon="12.807186679453855"><ele>166.0</ele><time>2026-03-22T11:51:00.935Z</time></trkpt><trkpt lat="43.95373983178877" lon="12.806964196261491"><ele>168.0</ele><time>2026-03-22T11:51:01.935Z</time></trkpt><trkpt lat="43.95377981126454" lon="12.806749797115671"><ele>170.0</ele><time>2026-03-22T11:51:02.935Z</time></trkpt><trkpt lat="43.95379413078882" lon="12.806555432008343"><ele>170.0</ele><time>2026-03-22T11:51:03.935Z</time></trkpt><trkpt lat="43.95379453859036" lon="12.806366768950285"><ele>170.0</ele><time>2026-03-22T11:51:04.935Z</time></trkpt><trkpt lat="43.953779971912454" lon="12.806173689018912"><ele>170.0</ele><time>2026-03-22T11:51:05.935Z</time></trkpt><trkpt lat="43.953761823040935" lon="12.805981405492343"><ele>170.0</ele><time>2026-03-22T11:51:06.935Z</time></trkpt><trkpt lat="43.95374827397917" lon="12.805801017122398"><ele>169.2</ele><time>2026-03-22T11:51:07.935Z</time></trkpt><trkpt lat="43.95372842202081" lon="12.805639738562263"><ele>168.4</ele><time>2026-03-22T11:51:08.935Z</time></trkpt><trkpt lat="43.953712906007326" lon="12.805486111638553"><ele>167.60000000000002</ele><time>2026-03-22T11:51:09.935Z</time></trkpt><trkpt lat="43.95370596903825" lon="12.805352628087993"><ele>166.8</ele><time>2026-03-22T11:51:10.935Z</time></trkpt><trkpt lat="43.953702425226915" lon="12.805236876195059"><ele>166.0</ele><time>2026-03-22T11:51:11.935Z</time></trkpt><trkpt lat="43.953710213430405" lon="12.805125474976753"><ele>164.66666666666669</ele><time>2026-03-22T11:51:12.935Z</time></trkpt><trkpt lat="43.953703442128415" lon="12.805018577495664"><ele>163.33333333333334</ele><time>2026-03-22T11:51:13.935Z</time></trkpt><trkpt lat="43.953691717794435" lon="12.80491707964685"><ele>162.0</ele><time>2026-03-22T11:51:14.935Z</time></trkpt><trkpt lat="43.95368554577185" lon="12.804795751167159"><ele>160.66666666666666</ele><time>2026-03-22T11:51:15.935Z</time></trkpt><trkpt lat="43.95371786041635" lon="12.804685313261418"><ele>159.33333333333331</ele><time>2026-03-22T11:51:16.935Z</time></trkpt><trkpt lat="43.95378641260029" lon="12.804610700136973"><ele>158.0</ele><time>2026-03-22T11:51:17.935Z</time></trkpt><trkpt lat="43.9538913198443" lon="12.80457655561286"><ele>158.0</ele><time>2026-03-22T11:51:18.935Z</time></trkpt><trkpt lat="43.95402670704617" lon="12.804554106747633"><ele>158.0</ele><time>2026-03-22T11:51:19.935Z</time></trkpt><trkpt lat="43.95415856570892" lon="12.804520595086826"><ele>158.0</ele><time>2026-03-22T11:51:20.935Z</time></trkpt><trkpt lat="43.9542739893762" lon="12.804495561338898"><ele>158.0</ele><time>2026-03-22T11:51:21.935Z</time></trkpt><trkpt lat="43.954368189053696" lon="12.804505721427322"><ele>155.75</ele><time>2026-03-22T11:51:22.935Z</time></trkpt><trkpt lat="43.954451642617855" lon="12.804544986502451"><ele>153.5</ele><time>2026-03-22T11:51:23.935Z</time></trkpt><trkpt lat="43.954532484496525" lon="12.804642025477468"><ele>151.25</ele><time>2026-03-22T11:51:24.935Z</time></trkpt><trkpt lat="43.95461486188085" lon="12.804770823626706"><ele>149.0</ele><time>2026-03-22T11:51:25.935Z</time></trkpt><trkpt lat="43.95470447969601" lon="12.80493668662141"><ele>149.0</ele><time>2026-03-22T11:51:26.935Z</time></trkpt><trkpt lat="43.95479986963268" lon="12.805101678021401"><ele>149.0</ele><time>2026-03-22T11:51:27.935Z</time></trkpt><trkpt lat="43.954887156320275" lon="12.80527925995534"><ele>149.0</ele><time>2026-03-22T11:51:28.935Z</time></trkpt><trkpt lat="43.95497942859431" lon="12.805430462304228"><ele>152.25</ele><time>2026-03-22T11:51:29.935Z</time></trkpt><trkpt lat="43.95504330851063" lon="12.80556459632266"><ele>155.5</ele><time>2026-03-22T11:51:30.935Z</time></trkpt><trkpt lat="43.95513932170389" lon="12.805667667362831"><ele>158.75</ele><time>2026-03-22T11:51:31.935Z</time></trkpt><trkpt lat="43.95525351348999" lon="12.805751636485837"><ele>162.0</ele><time>2026-03-22T11:51:32.935Z</time></trkpt><trkpt lat="43.95538046558377" lon="12.805815046582731"><ele>162.0</ele><time>2026-03-22T11:51:33.935Z</time></trkpt><trkpt lat="43.955514252775885" lon="12.805891642232636"><ele>162.0</ele><time>2026-03-22T11:51:34.935Z</time></trkpt><trkpt lat="43.95564100551627" lon="12.805957510686248"><ele>162.0</ele><time>2026-03-22T11:51:35.935Z</time></trkpt><trkpt lat="43.95576090844567" lon="12.806014345777829"><ele>162.0</ele><time>2026-03-22T11:51:36.935Z</time></trkpt><trkpt lat="43.955866683671324" lon="12.806048862223342"><ele>164.5</ele><time>2026-03-22T11:51:37.935Z</time></trkpt><trkpt lat="43.955963884308325" lon="12.806076649798445"><ele>167.0</ele><time>2026-03-22T11:51:38.935Z</time></trkpt><trkpt lat="43.95606358679034" lon="12.806062209071028"><ele>169.5</ele><time>2026-03-22T11:51:39.935Z</time></trkpt><trkpt lat="43.95617916617542" lon="12.806008210464672"><ele>172.0</ele><time>2026-03-22T11:51:40.935Z</time></trkpt><trkpt lat="43.956299710177625" lon="12.805921544080892"><ele>172.0</ele><time>2026-03-22T11:51:41.934Z</time></trkpt><trkpt lat="43.95640688157254" lon="12.805836923931608"><ele>172.0</ele><time>2026-03-22T11:51:42.935Z</time></trkpt><trkpt lat="43.95648211703427" lon="12.805759018970386"><ele>172.0</ele><time>2026-03-22T11:51:43.935Z</time></trkpt><trkpt lat="43.95654581378893" lon="12.805681388858789"><ele>172.0</ele><time>2026-03-22T11:51:44.934Z</time></trkpt><trkpt lat="43.95657650760589" lon="12.80556994700311"><ele>172.0</ele><time>2026-03-22T11:51:45.934Z</time></trkpt><trkpt lat="43.95658881833488" lon="12.805400543360644"><ele>172.0</ele><time>2026-03-22T11:51:46.934Z</time></trkpt><trkpt lat="43.956574753585194" lon="12.805193547038767"><ele>172.0</ele><time>2026-03-22T11:51:47.935Z</time></trkpt><trkpt lat="43.956575264101474" lon="12.805012999494224"><ele>172.0</ele><time>2026-03-22T11:51:48.935Z</time></trkpt><trkpt lat="43.956586600126926" lon="12.804846101545248"><ele>172.0</ele><time>2026-03-22T11:51:49.935Z</time></trkpt><trkpt lat="43.95659196573008" lon="12.804690298909705"><ele>171.16666666666669</ele><time>2026-03-22T11:51:50.935Z</time></trkpt><trkpt lat="43.95660582078675" lon="12.804555655923417"><ele>170.33333333333334</ele><time>2026-03-22T11:51:51.934Z</time></trkpt><trkpt lat="43.95661273953006" lon="12.804442047396028"><ele>169.5</ele><time>2026-03-22T11:51:52.934Z</time></trkpt><trkpt lat="43.95663543981013" lon="12.80434776804751"><ele>168.66666666666666</ele><time>2026-03-22T11:51:53.934Z</time></trkpt><trkpt lat="43.95668309444386" lon="12.804272753873661"><ele>167.83333333333331</ele><time>2026-03-22T11:51:54.934Z</time></trkpt><trkpt lat="43.956750528190135" lon="12.804244164569697"><ele>167.0</ele><time>2026-03-22T11:51:55.934Z</time></trkpt><trkpt lat="43.95682684124589" lon="12.804260382584857"><ele>169.5</ele><time>2026-03-22T11:51:56.934Z</time></trkpt><trkpt lat="43.95691115023882" lon="12.804305637991625"><ele>172.0</ele><time>2026-03-22T11:51:57.934Z</time></trkpt><trkpt lat="43.957001848105875" lon="12.804366462627529"><ele>174.5</ele><time>2026-03-22T11:51:58.934Z</time></trkpt><trkpt lat="43.95711808374193" lon="12.804464924146405"><ele>177.0</ele><time>2026-03-22T11:51:59.934Z</time></trkpt><trkpt lat="43.95723274786767" lon="12.804525739742564"><ele>177.0</ele><time>2026-03-22T11:52:00.934Z</time></trkpt><trkpt lat="43.95736080865297" lon="12.80456545690143"><ele>177.0</ele><time>2026-03-22T11:52:01.934Z</time></trkpt><trkpt lat="43.957483120711984" lon="12.804587473706828"><ele>177.0</ele><time>2026-03-22T11:52:02.934Z</time></trkpt><trkpt lat="43.9575940390548" lon="12.804646701436505"><ele>177.0</ele><time>2026-03-22T11:52:03.934Z</time></trkpt><trkpt lat="43.957693611596426" lon="12.804699558128927"><ele>175.5</ele><time>2026-03-22T11:52:04.934Z</time></trkpt><trkpt lat="43.95778369787653" lon="12.804758283968031"><ele>174.0</ele><time>2026-03-22T11:52:05.934Z</time></trkpt><trkpt lat="43.95785813599416" lon="12.804807357103568"><ele>172.5</ele><time>2026-03-22T11:52:06.934Z</time></trkpt><trkpt lat="43.957928834997944" lon="12.804851297413743"><ele>171.0</ele><time>2026-03-22T11:52:07.934Z</time></trkpt><trkpt lat="43.95800009729989" lon="12.804915004045194"><ele>169.5</ele><time>2026-03-22T11:52:08.934Z</time></trkpt><trkpt lat="43.9580763993726" lon="12.804978011419609"><ele>168.0</ele><time>2026-03-22T11:52:09.934Z</time></trkpt><trkpt lat="43.958133650073506" lon="12.805028091450772"><ele>168.0</ele><time>2026-03-22T11:52:10.934Z</time></trkpt><trkpt lat="43.95822973430948" lon="12.805122968368591"><ele>168.0</ele><time>2026-03-22T11:52:12.934Z</time></trkpt><trkpt lat="43.958280347673195" lon="12.80519169169725"><ele>168.0</ele><time>2026-03-22T11:52:13.934Z</time></trkpt><trkpt lat="43.9583381587835" lon="12.805270883459217"><ele>168.0</ele><time>2026-03-22T11:52:14.934Z</time></trkpt><trkpt lat="43.958412285084755" lon="12.80531292011064"><ele>168.0</ele><time>2026-03-22T11:52:15.934Z</time></trkpt><trkpt lat="43.9584901406823" lon="12.805315823172196"><ele>168.0</ele><time>2026-03-22T11:52:16.934Z</time></trkpt><trkpt lat="43.95856153392499" lon="12.805281412069782"><ele>159.0</ele><time>2026-03-22T11:52:17.934Z</time></trkpt><trkpt lat="43.95863472118693" lon="12.805193560796601"><ele>150.0</ele><time>2026-03-22T11:52:18.934Z</time></trkpt><trkpt lat="43.95870189657383" lon="12.805064091404688"><ele>141.0</ele><time>2026-03-22T11:52:19.934Z</time></trkpt><trkpt lat="43.95876700688648" lon="12.804911090933054"><ele>132.0</ele><time>2026-03-22T11:52:20.934Z</time></trkpt><trkpt lat="43.958812185195825" lon="12.804735302676827"><ele>132.0</ele><time>2026-03-22T11:52:21.934Z</time></trkpt><trkpt lat="43.9588442634204" lon="12.804546654430705"><ele>132.0</ele><time>2026-03-22T11:52:22.935Z</time></trkpt><trkpt lat="43.95886072546284" lon="12.804343235512444"><ele>132.0</ele><time>2026-03-22T11:52:23.935Z</time></trkpt><trkpt lat="43.95889643187641" lon="12.804114237613522"><ele>136.0</ele><time>2026-03-22T11:52:24.935Z</time></trkpt><trkpt lat="43.95893502752362" lon="12.803921733518482"><ele>140.0</ele><time>2026-03-22T11:52:25.935Z</time></trkpt><trkpt lat="43.958998281061895" lon="12.80375068465378"><ele>144.0</ele><time>2026-03-22T11:52:26.935Z</time></trkpt><trkpt lat="43.959088057487065" lon="12.803586438056398"><ele>148.0</ele><time>2026-03-22T11:52:27.935Z</time></trkpt><trkpt lat="43.95918106062419" lon="12.803408014739766"><ele>145.25</ele><time>2026-03-22T11:52:28.935Z</time></trkpt><trkpt lat="43.959280006429275" lon="12.803253715791483"><ele>142.5</ele><time>2026-03-22T11:52:29.935Z</time></trkpt><trkpt lat="43.95938960785266" lon="12.803112995493096"><ele>139.75</ele><time>2026-03-22T11:52:30.935Z</time></trkpt><trkpt lat="43.95949899665248" lon="12.802975315579058"><ele>137.0</ele><time>2026-03-22T11:52:31.935Z</time></trkpt><trkpt lat="43.9595978860416" lon="12.80282824542817"><ele>137.0</ele><time>2026-03-22T11:52:32.935Z</time></trkpt><trkpt lat="43.959677269027225" lon="12.802668938317954"><ele>137.0</ele><time>2026-03-22T11:52:33.935Z</time></trkpt><trkpt lat="43.959755576959104" lon="12.802521271295186"><ele>137.0</ele><time>2026-03-22T11:52:34.935Z</time></trkpt><trkpt lat="43.95982145451698" lon="12.802356063139847"><ele>137.0</ele><time>2026-03-22T11:52:35.935Z</time></trkpt><trkpt lat="43.95989181786793" lon="12.802192310878832"><ele>140.5</ele><time>2026-03-22T11:52:36.935Z</time></trkpt><trkpt lat="43.959958171590536" lon="12.802033168148448"><ele>144.0</ele><time>2026-03-22T11:52:37.935Z</time></trkpt><trkpt lat="43.960016725124426" lon="12.801869882119796"><ele>147.5</ele><time>2026-03-22T11:52:38.935Z</time></trkpt><trkpt lat="43.96007844016706" lon="12.801719501290167"><ele>151.0</ele><time>2026-03-22T11:52:39.935Z</time></trkpt><trkpt lat="43.96013555274031" lon="12.8015660352005"><ele>149.75</ele><time>2026-03-22T11:52:40.935Z</time></trkpt><trkpt lat="43.960200803995484" lon="12.801418472826269"><ele>148.5</ele><time>2026-03-22T11:52:41.935Z</time></trkpt><trkpt lat="43.96027063953049" lon="12.80127617193672"><ele>147.25</ele><time>2026-03-22T11:52:42.935Z</time></trkpt><trkpt lat="43.96033445608513" lon="12.80112905533046"><ele>146.0</ele><time>2026-03-22T11:52:43.935Z</time></trkpt><trkpt lat="43.960398484721395" lon="12.800989190456002"><ele>146.0</ele><time>2026-03-22T11:52:44.935Z</time></trkpt><trkpt lat="43.96045185555774" lon="12.800849172910434"><ele>146.0</ele><time>2026-03-22T11:52:45.935Z</time></trkpt><trkpt lat="43.96049782385942" lon="12.800695795621705"><ele>146.0</ele><time>2026-03-22T11:52:46.935Z</time></trkpt><trkpt lat="43.96053152328979" lon="12.800541627488165"><ele>146.0</ele><time>2026-03-22T11:52:47.935Z</time></trkpt><trkpt lat="43.96053943183754" lon="12.800378597079302"><ele>146.0</ele><time>2026-03-22T11:52:48.935Z</time></trkpt><trkpt lat="43.96051833620606" lon="12.800222930083809"><ele>146.0</ele><time>2026-03-22T11:52:49.935Z</time></trkpt><trkpt lat="43.96047145135888" lon="12.800069131974123"><ele>146.0</ele><time>2026-03-22T11:52:50.935Z</time></trkpt><trkpt lat="43.960407884456004" lon="12.79990950662501"><ele>146.0</ele><time>2026-03-22T11:52:51.935Z</time></trkpt><trkpt lat="43.96033406815565" lon="12.79973717219955"><ele>151.75</ele><time>2026-03-22T11:52:52.935Z</time></trkpt><trkpt lat="43.960263609573104" lon="12.799590251011779"><ele>157.5</ele><time>2026-03-22T11:52:53.935Z</time></trkpt><trkpt lat="43.960186007583964" lon="12.799456495313978"><ele>163.25</ele><time>2026-03-22T11:52:54.935Z</time></trkpt><trkpt lat="43.960107418636504" lon="12.799332465394498"><ele>169.0</ele><time>2026-03-22T11:52:55.935Z</time></trkpt><trkpt lat="43.96000215645014" lon="12.799232996960669"><ele>171.5</ele><time>2026-03-22T11:52:56.935Z</time></trkpt><trkpt lat="43.959887828664705" lon="12.799159481789394"><ele>174.0</ele><time>2026-03-22T11:52:57.935Z</time></trkpt><trkpt lat="43.95975274100678" lon="12.799107906626373"><ele>176.5</ele><time>2026-03-22T11:52:58.935Z</time></trkpt><trkpt lat="43.959608128574004" lon="12.79906069406443"><ele>179.0</ele><time>2026-03-22T11:52:59.935Z</time></trkpt><trkpt lat="43.95946036917875" lon="12.799010130102417"><ele>179.0</ele><time>2026-03-22T11:53:00.935Z</time></trkpt><trkpt lat="43.95932381172052" lon="12.79893696168053"><ele>179.0</ele><time>2026-03-22T11:53:01.935Z</time></trkpt><trkpt lat="43.95919778216458" lon="12.798845085327141"><ele>179.0</ele><time>2026-03-22T11:53:02.935Z</time></trkpt><trkpt lat="43.95907804349044" lon="12.798725545899705"><ele>179.0</ele><time>2026-03-22T11:53:03.935Z</time></trkpt><trkpt lat="43.95898128072412" lon="12.798602010988468"><ele>178.39999999999998</ele><time>2026-03-22T11:53:04.935Z</time></trkpt><trkpt lat="43.9588996162236" lon="12.79849437269477"><ele>177.8</ele><time>2026-03-22T11:53:05.935Z</time></trkpt><trkpt lat="43.9588357891368" lon="12.798391372148096"><ele>177.2</ele><time>2026-03-22T11:53:06.935Z</time></trkpt><trkpt lat="43.95879675684794" lon="12.798277593480691"><ele>176.60000000000002</ele><time>2026-03-22T11:53:07.935Z</time></trkpt><trkpt lat="43.958778561385934" lon="12.798146016244234"><ele>176.0</ele><time>2026-03-22T11:53:08.935Z</time></trkpt><trkpt lat="43.95880469453905" lon="12.797969601335154"><ele>176.0</ele><time>2026-03-22T11:53:09.935Z</time></trkpt><trkpt lat="43.958858115182196" lon="12.797783751013343"><ele>176.0</ele><time>2026-03-22T11:53:10.935Z</time></trkpt><trkpt lat="43.95889311028692" lon="12.797574522183172"><ele>176.0</ele><time>2026-03-22T11:53:11.935Z</time></trkpt><trkpt lat="43.95889946703544" lon="12.79737893152639"><ele>176.0</ele><time>2026-03-22T11:53:12.935Z</time></trkpt><trkpt lat="43.95887640505784" lon="12.797179507301264"><ele>175.66666666666666</ele><time>2026-03-22T11:53:13.935Z</time></trkpt><trkpt lat="43.95882550749147" lon="12.796988037258306"><ele>175.33333333333334</ele><time>2026-03-22T11:53:14.935Z</time></trkpt><trkpt lat="43.95874235592636" lon="12.796801608642857"><ele>175.0</ele><time>2026-03-22T11:53:15.935Z</time></trkpt><trkpt lat="43.958639468686364" lon="12.796633284758812"><ele>173.25</ele><time>2026-03-22T11:53:16.935Z</time></trkpt><trkpt lat="43.95854054920392" lon="12.796476716363998"><ele>171.5</ele><time>2026-03-22T11:53:17.935Z</time></trkpt><trkpt lat="43.958456269592176" lon="12.796330623237965"><ele>169.75</ele><time>2026-03-22T11:53:18.935Z</time></trkpt><trkpt lat="43.958385052562676" lon="12.796202563981641"><ele>168.0</ele><time>2026-03-22T11:53:19.935Z</time></trkpt><trkpt lat="43.95832117289288" lon="12.7960855316311"><ele>165.8</ele><time>2026-03-22T11:53:20.935Z</time></trkpt><trkpt lat="43.95825782496059" lon="12.795987271789787"><ele>163.60000000000002</ele><time>2026-03-22T11:53:21.935Z</time></trkpt><trkpt lat="43.95820598305551" lon="12.795879713703028"><ele>161.39999999999998</ele><time>2026-03-22T11:53:22.935Z</time></trkpt><trkpt lat="43.958178218889884" lon="12.795751416130878"><ele>159.2</ele><time>2026-03-22T11:53:23.935Z</time></trkpt><trkpt lat="43.95817525509066" lon="12.795620834695118"><ele>157.0</ele><time>2026-03-22T11:53:24.935Z</time></trkpt><trkpt lat="43.95821389967594" lon="12.795485633644141"><ele>157.0</ele><time>2026-03-22T11:53:25.935Z</time></trkpt><trkpt lat="43.95827118071499" lon="12.79536699171386"><ele>157.0</ele><time>2026-03-22T11:53:26.935Z</time></trkpt><trkpt lat="43.95835574022634" lon="12.79527145867358"><ele>157.0</ele><time>2026-03-22T11:53:27.935Z</time></trkpt><trkpt lat="43.95845772757954" lon="12.795213356140371"><ele>157.0</ele><time>2026-03-22T11:53:28.935Z</time></trkpt><trkpt lat="43.9585673504341" lon="12.795194710191678"><ele>157.0</ele><time>2026-03-22T11:53:29.935Z</time></trkpt><trkpt lat="43.958674575353" lon="12.795216436052517"><ele>156.75</ele><time>2026-03-22T11:53:30.935Z</time></trkpt><trkpt lat="43.958780334533635" lon="12.795285372830483"><ele>156.5</ele><time>2026-03-22T11:53:31.935Z</time></trkpt><trkpt lat="43.95888142125619" lon="12.79539586308625"><ele>156.25</ele><time>2026-03-22T11:53:32.935Z</time></trkpt><trkpt lat="43.95897686257373" lon="12.795534038304716"><ele>156.0</ele><time>2026-03-22T11:53:33.935Z</time></trkpt><trkpt lat="43.959063228106366" lon="12.795648302634921"><ele>156.0</ele><time>2026-03-22T11:53:34.935Z</time></trkpt><trkpt lat="43.95916384948576" lon="12.795714992660177"><ele>156.0</ele><time>2026-03-22T11:53:35.935Z</time></trkpt><trkpt lat="43.95927385909339" lon="12.79572739981857"><ele>156.0</ele><time>2026-03-22T11:53:36.935Z</time></trkpt><trkpt lat="43.9593829505562" lon="12.79569031825518"><ele>156.0</ele><time>2026-03-22T11:53:37.935Z</time></trkpt><trkpt lat="43.959489712992365" lon="12.795613479343766"><ele>154.2</ele><time>2026-03-22T11:53:38.935Z</time></trkpt><trkpt lat="43.95959718004069" lon="12.79555550825514"><ele>152.39999999999998</ele><time>2026-03-22T11:53:39.935Z</time></trkpt><trkpt lat="43.959699745789" lon="12.795550512417286"><ele>150.6</ele><time>2026-03-22T11:53:40.935Z</time></trkpt><trkpt lat="43.95978884424997" lon="12.795583872273703"><ele>148.79999999999998</ele><time>2026-03-22T11:53:41.935Z</time></trkpt><trkpt lat="43.95987357290122" lon="12.795662560590994"><ele>147.0</ele><time>2026-03-22T11:53:42.935Z</time></trkpt><trkpt lat="43.95994795927879" lon="12.795762127982401"><ele>147.0</ele><time>2026-03-22T11:53:43.935Z</time></trkpt><trkpt lat="43.96000408557045" lon="12.795865294625683"><ele>147.0</ele><time>2026-03-22T11:53:44.935Z</time></trkpt><trkpt lat="43.960070963737046" lon="12.795927432292409"><ele>147.0</ele><time>2026-03-22T11:53:45.935Z</time></trkpt><trkpt lat="43.96014935280377" lon="12.796011479367088"><ele>147.0</ele><time>2026-03-22T11:53:46.935Z</time></trkpt><trkpt lat="43.96025514676953" lon="12.796081523723887"><ele>147.0</ele><time>2026-03-22T11:53:47.935Z</time></trkpt><trkpt lat="43.960364994510876" lon="12.796142103959431"><ele>147.75</ele><time>2026-03-22T11:53:48.934Z</time></trkpt><trkpt lat="43.96049251020454" lon="12.796188117217348"><ele>148.5</ele><time>2026-03-22T11:53:49.934Z</time></trkpt><trkpt lat="43.96062368982736" lon="12.796230658817423"><ele>149.25</ele><time>2026-03-22T11:53:50.935Z</time></trkpt><trkpt lat="43.96075760132692" lon="12.796286858175014"><ele>150.0</ele><time>2026-03-22T11:53:51.935Z</time></trkpt><trkpt lat="43.96087756413665" lon="12.79633741752626"><ele>150.0</ele><time>2026-03-22T11:53:52.935Z</time></trkpt><trkpt lat="43.960993353284756" lon="12.796388515018041"><ele>150.0</ele><time>2026-03-22T11:53:53.935Z</time></trkpt><trkpt lat="43.9611091007453" lon="12.796425388603382"><ele>150.0</ele><time>2026-03-22T11:53:54.935Z</time></trkpt><trkpt lat="43.96121707856275" lon="12.79647675741839"><ele>150.0</ele><time>2026-03-22T11:53:55.935Z</time></trkpt><trkpt lat="43.96130545504956" lon="12.796514696531833"><ele>150.0</ele><time>2026-03-22T11:53:56.935Z</time></trkpt><trkpt lat="43.961380306512694" lon="12.796519805937017"><ele>150.0</ele><time>2026-03-22T11:53:57.935Z</time></trkpt><trkpt lat="43.96145904763226" lon="12.796481069243049"><ele>150.0</ele><time>2026-03-22T11:53:58.935Z</time></trkpt><trkpt lat="43.96152699091773" lon="12.796401830579802"><ele>150.0</ele><time>2026-03-22T11:53:59.935Z</time></trkpt><trkpt lat="43.96154753834264" lon="12.79629168042466"><ele>150.0</ele><time>2026-03-22T11:54:00.935Z</time></trkpt><trkpt lat="43.961511651356815" lon="12.796168446832274"><ele>150.0</ele><time>2026-03-22T11:54:01.935Z</time></trkpt><trkpt lat="43.961429794878796" lon="12.796076832536151"><ele>150.0</ele><time>2026-03-22T11:54:02.935Z</time></trkpt><trkpt lat="43.961345633044196" lon="12.796029535075753"><ele>150.0</ele><time>2026-03-22T11:54:03.935Z</time></trkpt><trkpt lat="43.961234742035614" lon="12.796015113101983"><ele>150.0</ele><time>2026-03-22T11:54:04.935Z</time></trkpt><trkpt lat="43.961093572619504" lon="12.796006341980046"><ele>150.0</ele><time>2026-03-22T11:54:05.935Z</time></trkpt><trkpt lat="43.96093818807237" lon="12.795986672188358"><ele>146.25</ele><time>2026-03-22T11:54:06.935Z</time></trkpt><trkpt lat="43.96079997618567" lon="12.795960003973594"><ele>142.5</ele><time>2026-03-22T11:54:07.935Z</time></trkpt><trkpt lat="43.96067401894737" lon="12.795905013901374"><ele>138.75</ele><time>2026-03-22T11:54:08.935Z</time></trkpt><trkpt lat="43.9605621382134" lon="12.795824225250755"><ele>135.0</ele><time>2026-03-22T11:54:09.935Z</time></trkpt><trkpt lat="43.960452514483066" lon="12.795727957635021"><ele>135.0</ele><time>2026-03-22T11:54:10.935Z</time></trkpt><trkpt lat="43.96034515188136" lon="12.795638484016983"><ele>135.0</ele><time>2026-03-22T11:54:11.935Z</time></trkpt><trkpt lat="43.96024358476382" lon="12.795542953063613"><ele>135.0</ele><time>2026-03-22T11:54:12.935Z</time></trkpt><trkpt lat="43.96014998190222" lon="12.795480247247625"><ele>135.0</ele><time>2026-03-22T11:54:13.935Z</time></trkpt><trkpt lat="43.96009315875288" lon="12.795405308299793"><ele>135.0</ele><time>2026-03-22T11:54:14.935Z</time></trkpt><trkpt lat="43.96004706704759" lon="12.795318612110886"><ele>135.0</ele><time>2026-03-22T11:54:15.935Z</time></trkpt><trkpt lat="43.96006257018385" lon="12.795222234175961"><ele>135.0</ele><time>2026-03-22T11:54:16.935Z</time></trkpt><trkpt lat="43.96011958113329" lon="12.795145824911966"><ele>135.0</ele><time>2026-03-22T11:54:17.935Z</time></trkpt><trkpt lat="43.96020110564918" lon="12.795098759181428"><ele>135.0</ele><time>2026-03-22T11:54:18.935Z</time></trkpt><trkpt lat="43.96029726177176" lon="12.795091552672222"><ele>135.0</ele><time>2026-03-22T11:54:19.935Z</time></trkpt><trkpt lat="43.96043507516928" lon="12.795151266905439"><ele>135.0</ele><time>2026-03-22T11:54:20.935Z</time></trkpt><trkpt lat="43.960563107440585" lon="12.795203229848653"><ele>135.0</ele><time>2026-03-22T11:54:21.935Z</time></trkpt><trkpt lat="43.96069007652682" lon="12.795230008363585"><ele>135.0</ele><time>2026-03-22T11:54:22.935Z</time></trkpt><trkpt lat="43.96080184266009" lon="12.795223652330723"><ele>135.0</ele><time>2026-03-22T11:54:23.935Z</time></trkpt><trkpt lat="43.96091164139851" lon="12.795165005774587"><ele>133.5</ele><time>2026-03-22T11:54:24.935Z</time></trkpt><trkpt lat="43.961020576554034" lon="12.79508390871335"><ele>132.0</ele><time>2026-03-22T11:54:25.935Z</time></trkpt><trkpt lat="43.96111226845184" lon="12.794969010713485"><ele>130.5</ele><time>2026-03-22T11:54:26.935Z</time></trkpt><trkpt lat="43.961206042579455" lon="12.794841823412693"><ele>129.0</ele><time>2026-03-22T11:54:27.935Z</time></trkpt><trkpt lat="43.961302951542656" lon="12.794719262378973"><ele>129.0</ele><time>2026-03-22T11:54:28.935Z</time></trkpt><trkpt lat="43.96138632362769" lon="12.794613880228148"><ele>129.0</ele><time>2026-03-22T11:54:29.935Z</time></trkpt><trkpt lat="43.96144982776843" lon="12.794519780541371"><ele>129.0</ele><time>2026-03-22T11:54:30.935Z</time></trkpt><trkpt lat="43.96147986553841" lon="12.794421572108584"><ele>129.0</ele><time>2026-03-22T11:54:31.935Z</time></trkpt><trkpt lat="43.96146986188361" lon="12.794317392395824"><ele>129.0</ele><time>2026-03-22T11:54:32.935Z</time></trkpt><trkpt lat="43.96142319115022" lon="12.794220462000427"><ele>129.0</ele><time>2026-03-22T11:54:33.935Z</time></trkpt><trkpt lat="43.96135169870951" lon="12.794153305773994"><ele>129.0</ele><time>2026-03-22T11:54:34.935Z</time></trkpt><trkpt lat="43.96126819907774" lon="12.794129235027057"><ele>129.0</ele><time>2026-03-22T11:54:35.935Z</time></trkpt><trkpt lat="43.9611883455495" lon="12.794156470121312"><ele>129.0</ele><time>2026-03-22T11:54:36.935Z</time></trkpt><trkpt lat="43.96110245081347" lon="12.794246258555603"><ele>129.0</ele><time>2026-03-22T11:54:37.935Z</time></trkpt><trkpt lat="43.96101695786114" lon="12.794367758709992"><ele>129.0</ele><time>2026-03-22T11:54:38.935Z</time></trkpt><trkpt lat="43.96093275797709" lon="12.794494353206183"><ele>127.80000000000001</ele><time>2026-03-22T11:54:39.935Z</time></trkpt><trkpt lat="43.960852628710576" lon="12.794613240880649"><ele>126.60000000000001</ele><time>2026-03-22T11:54:40.935Z</time></trkpt><trkpt lat="43.96078424927952" lon="12.794680821325157"><ele>125.4</ele><time>2026-03-22T11:54:41.935Z</time></trkpt><trkpt lat="43.96071354638128" lon="12.79467549144621"><ele>124.2</ele><time>2026-03-22T11:54:42.935Z</time></trkpt><trkpt lat="43.960614287738544" lon="12.794630755384711"><ele>123.0</ele><time>2026-03-22T11:54:43.935Z</time></trkpt><trkpt lat="43.96052092262438" lon="12.794530871311515"><ele>123.0</ele><time>2026-03-22T11:54:44.935Z</time></trkpt><trkpt lat="43.96042124634103" lon="12.794371859691138"><ele>123.0</ele><time>2026-03-22T11:54:45.935Z</time></trkpt><trkpt lat="43.96030495762283" lon="12.794210019224689"><ele>123.0</ele><time>2026-03-22T11:54:46.935Z</time></trkpt><trkpt lat="43.960191451799915" lon="12.79403931302365"><ele>121.5</ele><time>2026-03-22T11:54:47.935Z</time></trkpt><trkpt lat="43.960084992326216" lon="12.7938917345802"><ele>120.0</ele><time>2026-03-22T11:54:48.935Z</time></trkpt><trkpt lat="43.959982456979574" lon="12.79375133539529"><ele>118.5</ele><time>2026-03-22T11:54:49.935Z</time></trkpt><trkpt lat="43.959882075172025" lon="12.793609111526832"><ele>117.0</ele><time>2026-03-22T11:54:50.935Z</time></trkpt><trkpt lat="43.959784288924084" lon="12.79347132302395"><ele>113.0</ele><time>2026-03-22T11:54:51.935Z</time></trkpt><trkpt lat="43.95968682026644" lon="12.793343909734697"><ele>109.0</ele><time>2026-03-22T11:54:52.935Z</time></trkpt><trkpt lat="43.95960358867258" lon="12.793242128660623"><ele>105.0</ele><time>2026-03-22T11:54:53.935Z</time></trkpt><trkpt lat="43.95951754306546" lon="12.793131424089475"><ele>101.0</ele><time>2026-03-22T11:54:54.935Z</time></trkpt><trkpt lat="43.95943726418283" lon="12.793035799817279"><ele>101.0</ele><time>2026-03-22T11:54:55.935Z</time></trkpt><trkpt lat="43.959358759573504" lon="12.792928730361432"><ele>101.0</ele><time>2026-03-22T11:54:56.935Z</time></trkpt><trkpt lat="43.95928992324954" lon="12.792817447185266"><ele>101.0</ele><time>2026-03-22T11:54:57.935Z</time></trkpt><trkpt lat="43.95923532306376" lon="12.792685375394193"><ele>101.0</ele><time>2026-03-22T11:54:58.935Z</time></trkpt><trkpt lat="43.95920582116775" lon="12.792551675160547"><ele>101.0</ele><time>2026-03-22T11:54:59.935Z</time></trkpt><trkpt lat="43.95920372679805" lon="12.792379721949782"><ele>97.25</ele><time>2026-03-22T11:55:00.935Z</time></trkpt><trkpt lat="43.959223210402335" lon="12.792215992267165"><ele>93.5</ele><time>2026-03-22T11:55:01.935Z</time></trkpt><trkpt lat="43.95922980216383" lon="12.792051519446947"><ele>89.75</ele><time>2026-03-22T11:55:02.935Z</time></trkpt><trkpt lat="43.959228374189095" lon="12.79188258495099"><ele>86.0</ele><time>2026-03-22T11:55:03.935Z</time></trkpt><trkpt lat="43.95922026328732" lon="12.791722339676355"><ele>87.0</ele><time>2026-03-22T11:55:04.935Z</time></trkpt><trkpt lat="43.9592064969199" lon="12.79157757619192"><ele>88.0</ele><time>2026-03-22T11:55:05.935Z</time></trkpt><trkpt lat="43.959185892177906" lon="12.791439716467588"><ele>89.0</ele><time>2026-03-22T11:55:06.935Z</time></trkpt><trkpt lat="43.95914871627314" lon="12.791323477680352"><ele>90.0</ele><time>2026-03-22T11:55:07.935Z</time></trkpt><trkpt lat="43.959078625377984" lon="12.791257161347685"><ele>91.0</ele><time>2026-03-22T11:55:08.935Z</time></trkpt><trkpt lat="43.95898966121995" lon="12.791232580896697"><ele>91.0</ele><time>2026-03-22T11:55:09.935Z</time></trkpt><trkpt lat="43.95887874798311" lon="12.791252987613072"><ele>91.0</ele><time>2026-03-22T11:55:10.935Z</time></trkpt><trkpt lat="43.95874832638774" lon="12.791323661094724"><ele>91.0</ele><time>2026-03-22T11:55:11.935Z</time></trkpt><trkpt lat="43.95861161143698" lon="12.791407032513613"><ele>91.0</ele><time>2026-03-22T11:55:12.935Z</time></trkpt><trkpt lat="43.958451611319" lon="12.791487292561973"><ele>92.0</ele><time>2026-03-22T11:55:13.935Z</time></trkpt><trkpt lat="43.95830418540234" lon="12.79155120411301"><ele>93.0</ele><time>2026-03-22T11:55:14.935Z</time></trkpt><trkpt lat="43.95815190072934" lon="12.791597021658701"><ele>94.0</ele><time>2026-03-22T11:55:15.935Z</time></trkpt><trkpt lat="43.95800798890146" lon="12.791655372913706"><ele>94.0</ele><time>2026-03-22T11:55:16.935Z</time></trkpt><trkpt lat="43.95786883193737" lon="12.791695533420278"><ele>94.0</ele><time>2026-03-22T11:55:17.935Z</time></trkpt><trkpt lat="43.957733500730484" lon="12.791734778591763"><ele>94.0</ele><time>2026-03-22T11:55:18.935Z</time></trkpt><trkpt lat="43.957593308063345" lon="12.791765614244463"><ele>94.0</ele><time>2026-03-22T11:55:19.935Z</time></trkpt><trkpt lat="43.95745027660312" lon="12.791808385433376"><ele>96.25</ele><time>2026-03-22T11:55:20.935Z</time></trkpt><trkpt lat="43.957318543073406" lon="12.791844805224894"><ele>98.5</ele><time>2026-03-22T11:55:21.935Z</time></trkpt><trkpt lat="43.95718297685899" lon="12.79186310748699"><ele>100.75</ele><time>2026-03-22T11:55:22.935Z</time></trkpt><trkpt lat="43.95707009523536" lon="12.791872022390265"><ele>103.0</ele><time>2026-03-22T11:55:23.935Z</time></trkpt><trkpt lat="43.95697224268611" lon="12.791893067575623"><ele>103.0</ele><time>2026-03-22T11:55:24.935Z</time></trkpt><trkpt lat="43.956870233910934" lon="12.791937399916256"><ele>103.0</ele><time>2026-03-22T11:55:25.935Z</time></trkpt><trkpt lat="43.95676663475843" lon="12.792045842778009"><ele>103.0</ele><time>2026-03-22T11:55:26.935Z</time></trkpt><trkpt lat="43.95665656297075" lon="12.792151154186616"><ele>103.0</ele><time>2026-03-22T11:55:27.935Z</time></trkpt><trkpt lat="43.956556009466006" lon="12.792269283223327"><ele>98.75</ele><time>2026-03-22T11:55:28.935Z</time></trkpt><trkpt lat="43.95645154033188" lon="12.792378320499507"><ele>94.5</ele><time>2026-03-22T11:55:29.935Z</time></trkpt><trkpt lat="43.956357836378295" lon="12.792469310788533"><ele>90.25</ele><time>2026-03-22T11:55:30.935Z</time></trkpt><trkpt lat="43.956274940790344" lon="12.79255688620315"><ele>86.0</ele><time>2026-03-22T11:55:31.935Z</time></trkpt><trkpt lat="43.956173032442805" lon="12.79260470315226"><ele>86.0</ele><time>2026-03-22T11:55:32.935Z</time></trkpt><trkpt lat="43.956061656526536" lon="12.792630166879459"><ele>86.0</ele><time>2026-03-22T11:55:33.935Z</time></trkpt><trkpt lat="43.955950712651514" lon="12.79261339255113"><ele>86.0</ele><time>2026-03-22T11:55:34.935Z</time></trkpt><trkpt lat="43.955809576761894" lon="12.792546190004746"><ele>86.0</ele><time>2026-03-22T11:55:35.935Z</time></trkpt><trkpt lat="43.955665554037246" lon="12.792467522951968"><ele>84.0</ele><time>2026-03-22T11:55:36.935Z</time></trkpt><trkpt lat="43.95552524501625" lon="12.792413323768052"><ele>82.0</ele><time>2026-03-22T11:55:37.935Z</time></trkpt><trkpt lat="43.955403040927706" lon="12.792391976650226"><ele>80.0</ele><time>2026-03-22T11:55:38.935Z</time></trkpt><trkpt lat="43.9552934362739" lon="12.792383905617896"><ele>78.0</ele><time>2026-03-22T11:55:39.935Z</time></trkpt><trkpt lat="43.955175439360005" lon="12.792447165959073"><ele>78.0</ele><time>2026-03-22T11:55:40.935Z</time></trkpt><trkpt lat="43.95506857673428" lon="12.792566524141778"><ele>78.0</ele><time>2026-03-22T11:55:41.936Z</time></trkpt><trkpt lat="43.95494929745789" lon="12.792673584384914"><ele>78.0</ele><time>2026-03-22T11:55:42.936Z</time></trkpt><trkpt lat="43.95483265977558" lon="12.792775302431645"><ele>78.0</ele><time>2026-03-22T11:55:43.936Z</time></trkpt><trkpt lat="43.95473626982307" lon="12.792864397577992"><ele>78.0</ele><time>2026-03-22T11:55:44.936Z</time></trkpt><trkpt lat="43.95464167419507" lon="12.792920114208199"><ele>78.0</ele><time>2026-03-22T11:55:45.936Z</time></trkpt><trkpt lat="43.954561312762515" lon="12.792918347886651"><ele>78.0</ele><time>2026-03-22T11:55:46.936Z</time></trkpt><trkpt lat="43.95446457154845" lon="12.79285229794631"><ele>78.0</ele><time>2026-03-22T11:55:47.936Z</time></trkpt><trkpt lat="43.95440775628121" lon="12.792708414569923"><ele>78.0</ele><time>2026-03-22T11:55:48.936Z</time></trkpt><trkpt lat="43.9543741497128" lon="12.792549808444765"><ele>75.75</ele><time>2026-03-22T11:55:49.936Z</time></trkpt><trkpt lat="43.95437218672464" lon="12.792367161960579"><ele>73.5</ele><time>2026-03-22T11:55:50.936Z</time></trkpt><trkpt lat="43.954357926500954" lon="12.792183675075835"><ele>71.25</ele><time>2026-03-22T11:55:51.936Z</time></trkpt><trkpt lat="43.954348284470946" lon="12.791996863237054"><ele>69.0</ele><time>2026-03-22T11:55:52.936Z</time></trkpt><trkpt lat="43.954333987183425" lon="12.791796514321835"><ele>67.5</ele><time>2026-03-22T11:55:53.935Z</time></trkpt><trkpt lat="43.954312191272045" lon="12.791616497511178"><ele>66.0</ele><time>2026-03-22T11:55:54.934Z</time></trkpt><trkpt lat="43.954312650435945" lon="12.791438101516201"><ele>64.5</ele><time>2026-03-22T11:55:55.934Z</time></trkpt><trkpt lat="43.95434408424698" lon="12.791265865300218"><ele>63.0</ele><time>2026-03-22T11:55:56.935Z</time></trkpt><trkpt lat="43.95443053919927" lon="12.791107350803943"><ele>62.33333333333333</ele><time>2026-03-22T11:55:57.935Z</time></trkpt><trkpt lat="43.95453118590713" lon="12.790941350218475"><ele>61.666666666666664</ele><time>2026-03-22T11:55:58.935Z</time></trkpt><trkpt lat="43.954623846426045" lon="12.79076298120988"><ele>61.0</ele><time>2026-03-22T11:55:59.935Z</time></trkpt><trkpt lat="43.95470443291539" lon="12.79059284138742"><ele>61.0</ele><time>2026-03-22T11:56:00.935Z</time></trkpt><trkpt lat="43.95477812924959" lon="12.790418686469364"><ele>61.0</ele><time>2026-03-22T11:56:01.935Z</time></trkpt><trkpt lat="43.954837020484405" lon="12.790231224137676"><ele>61.0</ele><time>2026-03-22T11:56:02.935Z</time></trkpt><trkpt lat="43.954897490236824" lon="12.79006946156436"><ele>61.0</ele><time>2026-03-22T11:56:03.935Z</time></trkpt><trkpt lat="43.95496245332576" lon="12.789924508367278"><ele>60.0</ele><time>2026-03-22T11:56:04.935Z</time></trkpt><trkpt lat="43.955048452236234" lon="12.789802217150045"><ele>59.0</ele><time>2026-03-22T11:56:05.935Z</time></trkpt><trkpt lat="43.95515151403495" lon="12.789701326497957"><ele>58.0</ele><time>2026-03-22T11:56:06.935Z</time></trkpt><trkpt lat="43.95527664514495" lon="12.789608841111802"><ele>57.0</ele><time>2026-03-22T11:56:07.935Z</time></trkpt><trkpt lat="43.95539546225051" lon="12.789514245064915"><ele>57.0</ele><time>2026-03-22T11:56:08.935Z</time></trkpt><trkpt lat="43.95551278205048" lon="12.789409243522494"><ele>57.0</ele><time>2026-03-22T11:56:09.935Z</time></trkpt><trkpt lat="43.95563256391659" lon="12.789302590027884"><ele>57.0</ele><time>2026-03-22T11:56:10.935Z</time></trkpt><trkpt lat="43.95575486109525" lon="12.789195361368808"><ele>57.0</ele><time>2026-03-22T11:56:11.935Z</time></trkpt><trkpt lat="43.95586876574906" lon="12.789102904143746"><ele>56.5</ele><time>2026-03-22T11:56:12.935Z</time></trkpt><trkpt lat="43.95596853872389" lon="12.789020288350356"><ele>56.0</ele><time>2026-03-22T11:56:13.935Z</time></trkpt><trkpt lat="43.95608299923455" lon="12.78891853704822"><ele>55.5</ele><time>2026-03-22T11:56:14.935Z</time></trkpt><trkpt lat="43.956188357221166" lon="12.788829263438059"><ele>55.0</ele><time>2026-03-22T11:56:15.935Z</time></trkpt><trkpt lat="43.9562880302724" lon="12.788746765925474"><ele>55.0</ele><time>2026-03-22T11:56:16.935Z</time></trkpt><trkpt lat="43.956378235766756" lon="12.788676224937726"><ele>55.0</ele><time>2026-03-22T11:56:17.935Z</time></trkpt><trkpt lat="43.956465916066804" lon="12.788583161947509"><ele>55.0</ele><time>2026-03-22T11:56:18.935Z</time></trkpt><trkpt lat="43.9565544281464" lon="12.788510110628238"><ele>55.0</ele><time>2026-03-22T11:56:19.935Z</time></trkpt><trkpt lat="43.95663991470942" lon="12.788427258752163"><ele>55.0</ele><time>2026-03-22T11:56:20.935Z</time></trkpt><trkpt lat="43.95672588056581" lon="12.788334865130924"><ele>55.25</ele><time>2026-03-22T11:56:21.935Z</time></trkpt><trkpt lat="43.956812353410044" lon="12.788232348996544"><ele>55.5</ele><time>2026-03-22T11:56:22.935Z</time></trkpt><trkpt lat="43.95689649723762" lon="12.788124538178957"><ele>55.75</ele><time>2026-03-22T11:56:23.935Z</time></trkpt><trkpt lat="43.956984455636054" lon="12.78802969740407"><ele>56.0</ele><time>2026-03-22T11:56:24.935Z</time></trkpt><trkpt lat="43.957070167972624" lon="12.787919256240981"><ele>56.0</ele><time>2026-03-22T11:56:25.935Z</time></trkpt><trkpt lat="43.95715659910707" lon="12.787800126476435"><ele>56.0</ele><time>2026-03-22T11:56:26.935Z</time></trkpt><trkpt lat="43.95724149691155" lon="12.787685747296228"><ele>56.0</ele><time>2026-03-22T11:56:27.935Z</time></trkpt><trkpt lat="43.957324788751905" lon="12.787563463221485"><ele>56.0</ele><time>2026-03-22T11:56:28.935Z</time></trkpt><trkpt lat="43.957414109110665" lon="12.787448035006388"><ele>54.0</ele><time>2026-03-22T11:56:29.935Z</time></trkpt><trkpt lat="43.95751325119976" lon="12.787319527077718"><ele>52.0</ele><time>2026-03-22T11:56:30.935Z</time></trkpt><trkpt lat="43.957614728244174" lon="12.787198321354698"><ele>50.0</ele><time>2026-03-22T11:56:31.935Z</time></trkpt><trkpt lat="43.957711121544826" lon="12.787066839270167"><ele>48.0</ele><time>2026-03-22T11:56:32.935Z</time></trkpt><trkpt lat="43.957778077745665" lon="12.786923378554386"><ele>50.0</ele><time>2026-03-22T11:56:33.935Z</time></trkpt><trkpt lat="43.95781845763256" lon="12.786751287509901"><ele>52.0</ele><time>2026-03-22T11:56:34.935Z</time></trkpt><trkpt lat="43.957833154184" lon="12.786573824852367"><ele>54.0</ele><time>2026-03-22T11:56:35.935Z</time></trkpt><trkpt lat="43.957855566889386" lon="12.786412656753598"><ele>56.0</ele><time>2026-03-22T11:56:36.935Z</time></trkpt><trkpt lat="43.957906493182634" lon="12.786257187602056"><ele>56.0</ele><time>2026-03-22T11:56:37.935Z</time></trkpt><trkpt lat="43.957992371594216" lon="12.78610773420334"><ele>56.0</ele><time>2026-03-22T11:56:38.935Z</time></trkpt><trkpt lat="43.95811316512128" lon="12.785970638555227"><ele>56.0</ele><time>2026-03-22T11:56:39.935Z</time></trkpt><trkpt lat="43.95820167259361" lon="12.785832094075962"><ele>56.0</ele><time>2026-03-22T11:56:40.935Z</time></trkpt><trkpt lat="43.95826757784521" lon="12.78567256968478"><ele>59.5</ele><time>2026-03-22T11:56:41.935Z</time></trkpt><trkpt lat="43.95832840279712" lon="12.785502083804422"><ele>63.0</ele><time>2026-03-22T11:56:42.935Z</time></trkpt><trkpt lat="43.95836433337842" lon="12.785314145121392"><ele>66.5</ele><time>2026-03-22T11:56:43.935Z</time></trkpt><trkpt lat="43.958394867668424" lon="12.785129762843074"><ele>70.0</ele><time>2026-03-22T11:56:44.935Z</time></trkpt><trkpt lat="43.95844726118127" lon="12.784965196435486"><ele>70.0</ele><time>2026-03-22T11:56:45.935Z</time></trkpt><trkpt lat="43.95850916157271" lon="12.7848389890708"><ele>70.0</ele><time>2026-03-22T11:56:46.935Z</time></trkpt><trkpt lat="43.95859800681317" lon="12.78472206601852"><ele>70.0</ele><time>2026-03-22T11:56:47.935Z</time></trkpt><trkpt lat="43.95872208397649" lon="12.784629201432844"><ele>70.0</ele><time>2026-03-22T11:56:48.935Z</time></trkpt><trkpt lat="43.95884981552894" lon="12.784571865886793"><ele>70.0</ele><time>2026-03-22T11:56:49.935Z</time></trkpt><trkpt lat="43.958974085267705" lon="12.784519896464468"><ele>70.0</ele><time>2026-03-22T11:56:50.935Z</time></trkpt><trkpt lat="43.95909314183737" lon="12.784445859010438"><ele>70.0</ele><time>2026-03-22T11:56:51.935Z</time></trkpt><trkpt lat="43.95920832211579" lon="12.784379982983674"><ele>70.0</ele><time>2026-03-22T11:56:52.935Z</time></trkpt><trkpt lat="43.95932451062908" lon="12.784331096550869"><ele>76.5</ele><time>2026-03-22T11:56:53.935Z</time></trkpt><trkpt lat="43.95945065934953" lon="12.784279504942646"><ele>83.0</ele><time>2026-03-22T11:56:54.935Z</time></trkpt><trkpt lat="43.95957892788367" lon="12.784264123152141"><ele>89.5</ele><time>2026-03-22T11:56:55.935Z</time></trkpt><trkpt lat="43.959707986584114" lon="12.784284862081899"><ele>96.0</ele><time>2026-03-22T11:56:56.935Z</time></trkpt><trkpt lat="43.95985025195297" lon="12.784331007009506"><ele>90.5</ele><time>2026-03-22T11:56:57.935Z</time></trkpt><trkpt lat="43.959976971716976" lon="12.784371191067223"><ele>85.0</ele><time>2026-03-22T11:56:58.935Z</time></trkpt><trkpt lat="43.96009492221548" lon="12.784398599367002"><ele>79.5</ele><time>2026-03-22T11:56:59.935Z</time></trkpt><trkpt lat="43.96021551854586" lon="12.784419715589795"><ele>74.0</ele><time>2026-03-22T11:57:00.935Z</time></trkpt><trkpt lat="43.96033713264938" lon="12.784442442894624"><ele>74.0</ele><time>2026-03-22T11:57:01.935Z</time></trkpt><trkpt lat="43.96045086895055" lon="12.784454805446952"><ele>74.0</ele><time>2026-03-22T11:57:02.935Z</time></trkpt><trkpt lat="43.960552820341135" lon="12.784466361444194"><ele>74.0</ele><time>2026-03-22T11:57:03.935Z</time></trkpt><trkpt lat="43.96063355718385" lon="12.784468726585198"><ele>74.0</ele><time>2026-03-22T11:57:04.935Z</time></trkpt><trkpt lat="43.96071395221546" lon="12.78445731004844"><ele>74.0</ele><time>2026-03-22T11:57:05.935Z</time></trkpt><trkpt lat="43.96076869927739" lon="12.78440333274801"><ele>74.0</ele><time>2026-03-22T11:57:06.935Z</time></trkpt><trkpt lat="43.96079794710764" lon="12.784317137739738"><ele>79.2</ele><time>2026-03-22T11:57:07.935Z</time></trkpt><trkpt lat="43.960759015867644" lon="12.784168196250718"><ele>84.4</ele><time>2026-03-22T11:57:09.935Z</time></trkpt><trkpt lat="43.960684572623606" lon="12.784114886076047"><ele>89.6</ele><time>2026-03-22T11:57:10.935Z</time></trkpt><trkpt lat="43.96059923842184" lon="12.784077777095739"><ele>94.8</ele><time>2026-03-22T11:57:11.935Z</time></trkpt><trkpt lat="43.960492549204986" lon="12.784040151672919"><ele>100.0</ele><time>2026-03-22T11:57:12.935Z</time></trkpt><trkpt lat="43.96034809176953" lon="12.784035577534578"><ele>100.0</ele><time>2026-03-22T11:57:13.935Z</time></trkpt><trkpt lat="43.9602026052934" lon="12.784014445208193"><ele>100.0</ele><time>2026-03-22T11:57:14.935Z</time></trkpt><trkpt lat="43.96007896371291" lon="12.783970857089109"><ele>100.0</ele><time>2026-03-22T11:57:15.935Z</time></trkpt><trkpt lat="43.95993235033708" lon="12.783926756518866"><ele>100.0</ele><time>2026-03-22T11:57:16.935Z</time></trkpt><trkpt lat="43.95980219310427" lon="12.78389001334258"><ele>99.0</ele><time>2026-03-22T11:57:17.935Z</time></trkpt><trkpt lat="43.959686279853244" lon="12.78383495272775"><ele>98.0</ele><time>2026-03-22T11:57:18.935Z</time></trkpt><trkpt lat="43.95956642756864" lon="12.78378595629155"><ele>97.0</ele><time>2026-03-22T11:57:19.935Z</time></trkpt><trkpt lat="43.959431261451336" lon="12.783738803030593"><ele>96.0</ele><time>2026-03-22T11:57:20.935Z</time></trkpt><trkpt lat="43.959335925629766" lon="12.783691388286327"><ele>96.0</ele><time>2026-03-22T11:57:21.935Z</time></trkpt><trkpt lat="43.95924656707887" lon="12.783665872276911"><ele>96.0</ele><time>2026-03-22T11:57:22.935Z</time></trkpt><trkpt lat="43.95917342375458" lon="12.783625479705826"><ele>96.0</ele><time>2026-03-22T11:57:23.935Z</time></trkpt><trkpt lat="43.95910304621646" lon="12.783550271130247"><ele>96.0</ele><time>2026-03-22T11:57:24.935Z</time></trkpt><trkpt lat="43.95905916523826" lon="12.783450619081602"><ele>96.0</ele><time>2026-03-22T11:57:25.935Z</time></trkpt><trkpt lat="43.95907431257424" lon="12.783337691294493"><ele>96.0</ele><time>2026-03-22T11:57:26.935Z</time></trkpt><trkpt lat="43.95912294231736" lon="12.783235064214187"><ele>99.19999999999999</ele><time>2026-03-22T11:57:27.935Z</time></trkpt><trkpt lat="43.95920369993834" lon="12.783181237298496"><ele>102.39999999999999</ele><time>2026-03-22T11:57:28.935Z</time></trkpt><trkpt lat="43.95930452969134" lon="12.783179538600443"><ele>105.6</ele><time>2026-03-22T11:57:29.935Z</time></trkpt><trkpt lat="43.959424284981154" lon="12.783208288863207"><ele>108.8</ele><time>2026-03-22T11:57:30.935Z</time></trkpt><trkpt lat="43.95955213709479" lon="12.783261788609607"><ele>112.0</ele><time>2026-03-22T11:57:31.935Z</time></trkpt><trkpt lat="43.959703041145204" lon="12.783310972277581"><ele>112.0</ele><time>2026-03-22T11:57:32.935Z</time></trkpt><trkpt lat="43.959869764971636" lon="12.783349149394251"><ele>112.0</ele><time>2026-03-22T11:57:33.935Z</time></trkpt><trkpt lat="43.96004741647592" lon="12.78338405899476"><ele>112.0</ele><time>2026-03-22T11:57:34.936Z</time></trkpt><trkpt lat="43.96020725460021" lon="12.783438046909373"><ele>114.66666666666667</ele><time>2026-03-22T11:57:35.936Z</time></trkpt><trkpt lat="43.96037368013058" lon="12.78347683985373"><ele>117.33333333333334</ele><time>2026-03-22T11:57:36.936Z</time></trkpt><trkpt lat="43.9605173993506" lon="12.783499375104087"><ele>120.0</ele><time>2026-03-22T11:57:37.936Z</time></trkpt><trkpt lat="43.960652866066674" lon="12.783522992720924"><ele>119.0</ele><time>2026-03-22T11:57:38.936Z</time></trkpt><trkpt lat="43.96077289544039" lon="12.783519110552845"><ele>118.0</ele><time>2026-03-22T11:57:39.936Z</time></trkpt><trkpt lat="43.960877752357675" lon="12.783481807825972"><ele>117.0</ele><time>2026-03-22T11:57:40.936Z</time></trkpt><trkpt lat="43.960966007827786" lon="12.783413716403635"><ele>116.0</ele><time>2026-03-22T11:57:41.936Z</time></trkpt><trkpt lat="43.96106468522811" lon="12.783340956189605"><ele>115.0</ele><time>2026-03-22T11:57:42.937Z</time></trkpt><trkpt lat="43.96115929248406" lon="12.783267511043945"><ele>115.0</ele><time>2026-03-22T11:57:43.938Z</time></trkpt><trkpt lat="43.961257222018695" lon="12.783174510286454"><ele>115.0</ele><time>2026-03-22T11:57:44.938Z</time></trkpt><trkpt lat="43.96134420719561" lon="12.783066172228324"><ele>115.0</ele><time>2026-03-22T11:57:45.939Z</time></trkpt><trkpt lat="43.961426185771025" lon="12.782934675728674"><ele>115.0</ele><time>2026-03-22T11:57:46.939Z</time></trkpt><trkpt lat="43.961505497800296" lon="12.782797439160634"><ele>116.25</ele><time>2026-03-22T11:57:47.94Z</time></trkpt><trkpt lat="43.96157857378356" lon="12.782662659760339"><ele>117.5</ele><time>2026-03-22T11:57:48.94Z</time></trkpt><trkpt lat="43.96165103097595" lon="12.782531437428316"><ele>118.75</ele><time>2026-03-22T11:57:49.941Z</time></trkpt><trkpt lat="43.96171640553455" lon="12.782399597812134"><ele>120.0</ele><time>2026-03-22T11:57:50.941Z</time></trkpt><trkpt lat="43.961779604425146" lon="12.7822595991088"><ele>119.75</ele><time>2026-03-22T11:57:51.941Z</time></trkpt><trkpt lat="43.96183335813883" lon="12.782107194761378"><ele>119.5</ele><time>2026-03-22T11:57:52.942Z</time></trkpt><trkpt lat="43.96187904141215" lon="12.7819627654638"><ele>119.25</ele><time>2026-03-22T11:57:53.942Z</time></trkpt><trkpt lat="43.96192078331719" lon="12.781816306159119"><ele>119.0</ele><time>2026-03-22T11:57:54.942Z</time></trkpt><trkpt lat="43.961960247303466" lon="12.781678033863441"><ele>119.0</ele><time>2026-03-22T11:57:55.943Z</time></trkpt><trkpt lat="43.96200318758895" lon="12.781536570447923"><ele>119.0</ele><time>2026-03-22T11:57:56.943Z</time></trkpt><trkpt lat="43.96205447220571" lon="12.78138285879233"><ele>119.0</ele><time>2026-03-22T11:57:57.943Z</time></trkpt><trkpt lat="43.96211547326095" lon="12.781217548477727"><ele>119.0</ele><time>2026-03-22T11:57:58.943Z</time></trkpt><trkpt lat="43.962172384726436" lon="12.781046656256141"><ele>118.75</ele><time>2026-03-22T11:57:59.943Z</time></trkpt><trkpt lat="43.96223318884982" lon="12.780882412830877"><ele>118.5</ele><time>2026-03-22T11:58:00.943Z</time></trkpt><trkpt lat="43.96229662622986" lon="12.780724228567573"><ele>118.25</ele><time>2026-03-22T11:58:01.944Z</time></trkpt><trkpt lat="43.96236072641769" lon="12.780568726799636"><ele>118.0</ele><time>2026-03-22T11:58:02.944Z</time></trkpt><trkpt lat="43.96242552308494" lon="12.780402250460046"><ele>118.0</ele><time>2026-03-22T11:58:03.944Z</time></trkpt><trkpt lat="43.96246763029958" lon="12.780202589232665"><ele>118.0</ele><time>2026-03-22T11:58:04.944Z</time></trkpt><trkpt lat="43.9624972213945" lon="12.780019799243272"><ele>118.0</ele><time>2026-03-22T11:58:05.944Z</time></trkpt><trkpt lat="43.96251263232435" lon="12.77984468391032"><ele>118.0</ele><time>2026-03-22T11:58:06.944Z</time></trkpt><trkpt lat="43.96251781629544" lon="12.779665859829144"><ele>116.0</ele><time>2026-03-22T11:58:07.944Z</time></trkpt><trkpt lat="43.96250605176931" lon="12.77948539692284"><ele>114.0</ele><time>2026-03-22T11:58:08.944Z</time></trkpt><trkpt lat="43.96248538025987" lon="12.77929195136312"><ele>112.0</ele><time>2026-03-22T11:58:09.945Z</time></trkpt><trkpt lat="43.962445912298705" lon="12.779120647380866"><ele>110.0</ele><time>2026-03-22T11:58:10.945Z</time></trkpt><trkpt lat="43.96241268856467" lon="12.77898585965633"><ele>109.33333333333333</ele><time>2026-03-22T11:58:11.945Z</time></trkpt><trkpt lat="43.96237979311239" lon="12.778867375909893"><ele>108.66666666666666</ele><time>2026-03-22T11:58:12.945Z</time></trkpt><trkpt lat="43.962346937585274" lon="12.77874825746707"><ele>108.0</ele><time>2026-03-22T11:58:13.945Z</time></trkpt><trkpt lat="43.962331860482514" lon="12.778632501157412"><ele>107.33333333333334</ele><time>2026-03-22T11:58:14.945Z</time></trkpt><trkpt lat="43.962333275509586" lon="12.778509022850125"><ele>106.66666666666667</ele><time>2026-03-22T11:58:15.945Z</time></trkpt><trkpt lat="43.96237093466325" lon="12.778395237162798"><ele>106.0</ele><time>2026-03-22T11:58:16.945Z</time></trkpt><trkpt lat="43.96242928979072" lon="12.77830316522793"><ele>104.5</ele><time>2026-03-22T11:58:17.945Z</time></trkpt><trkpt lat="43.96252388344149" lon="12.7782577928443"><ele>103.0</ele><time>2026-03-22T11:58:18.945Z</time></trkpt><trkpt lat="43.96263719401883" lon="12.778262304037577"><ele>101.5</ele><time>2026-03-22T11:58:19.945Z</time></trkpt><trkpt lat="43.96276248916466" lon="12.77829816629971"><ele>100.0</ele><time>2026-03-22T11:58:20.945Z</time></trkpt><trkpt lat="43.96290612751229" lon="12.778341108782312"><ele>100.0</ele><time>2026-03-22T11:58:21.945Z</time></trkpt><trkpt lat="43.96304217048646" lon="12.778367851944752"><ele>100.0</ele><time>2026-03-22T11:58:22.945Z</time></trkpt><trkpt lat="43.96316597759569" lon="12.77836542086405"><ele>100.0</ele><time>2026-03-22T11:58:23.946Z</time></trkpt><trkpt lat="43.96328124939827" lon="12.77831712991209"><ele>100.0</ele><time>2026-03-22T11:58:24.946Z</time></trkpt><trkpt lat="43.9633880199568" lon="12.778250001402617"><ele>95.0</ele><time>2026-03-22T11:58:25.946Z</time></trkpt><trkpt lat="43.96351501780274" lon="12.778175473601284"><ele>90.0</ele><time>2026-03-22T11:58:26.946Z</time></trkpt><trkpt lat="43.9636132272057" lon="12.7780751898715"><ele>85.0</ele><time>2026-03-22T11:58:27.946Z</time></trkpt><trkpt lat="43.96371169604763" lon="12.77796280076804"><ele>80.0</ele><time>2026-03-22T11:58:28.946Z</time></trkpt><trkpt lat="43.96379905401336" lon="12.777834242460736"><ele>80.0</ele><time>2026-03-22T11:58:29.946Z</time></trkpt><trkpt lat="43.96387592374934" lon="12.777700528601205"><ele>80.0</ele><time>2026-03-22T11:58:30.946Z</time></trkpt><trkpt lat="43.963943432159574" lon="12.777567811519253"><ele>80.0</ele><time>2026-03-22T11:58:31.946Z</time></trkpt><trkpt lat="43.9639920357582" lon="12.777412014090324"><ele>80.0</ele><time>2026-03-22T11:58:32.946Z</time></trkpt><trkpt lat="43.96402552311986" lon="12.777266898938032"><ele>79.75</ele><time>2026-03-22T11:58:33.946Z</time></trkpt><trkpt lat="43.96403754305391" lon="12.777108399471649"><ele>79.5</ele><time>2026-03-22T11:58:34.946Z</time></trkpt><trkpt lat="43.964044814108256" lon="12.77693551218547"><ele>79.25</ele><time>2026-03-22T11:58:35.946Z</time></trkpt><trkpt lat="43.96405228490064" lon="12.776770321430618"><ele>79.0</ele><time>2026-03-22T11:58:36.946Z</time></trkpt><trkpt lat="43.964059975203234" lon="12.776618936537266"><ele>80.2</ele><time>2026-03-22T11:58:37.946Z</time></trkpt><trkpt lat="43.96406218378439" lon="12.77647817769748"><ele>81.4</ele><time>2026-03-22T11:58:38.946Z</time></trkpt><trkpt lat="43.96406319861351" lon="12.77634344489675"><ele>82.6</ele><time>2026-03-22T11:58:39.946Z</time></trkpt><trkpt lat="43.964073757029844" lon="12.776198319833505"><ele>83.8</ele><time>2026-03-22T11:58:40.946Z</time></trkpt><trkpt lat="43.964077114766354" lon="12.776057762701583"><ele>85.0</ele><time>2026-03-22T11:58:41.946Z</time></trkpt><trkpt lat="43.96407463619614" lon="12.775906377026514"><ele>86.25</ele><time>2026-03-22T11:58:42.946Z</time></trkpt><trkpt lat="43.96406093788099" lon="12.775756243615067"><ele>87.5</ele><time>2026-03-22T11:58:43.946Z</time></trkpt><trkpt lat="43.96402517510238" lon="12.775614721394343"><ele>88.75</ele><time>2026-03-22T11:58:44.946Z</time></trkpt><trkpt lat="43.96395937474059" lon="12.775473037254356"><ele>90.0</ele><time>2026-03-22T11:58:45.946Z</time></trkpt><trkpt lat="43.96384643203488" lon="12.775344648691124"><ele>90.0</ele><time>2026-03-22T11:58:46.946Z</time></trkpt><trkpt lat="43.963724813896164" lon="12.775229220543748"><ele>90.0</ele><time>2026-03-22T11:58:47.946Z</time></trkpt><trkpt lat="43.963583237298664" lon="12.775127969048153"><ele>90.0</ele><time>2026-03-22T11:58:48.946Z</time></trkpt><trkpt lat="43.9634454574563" lon="12.77502478572626"><ele>93.0</ele><time>2026-03-22T11:58:49.946Z</time></trkpt><trkpt lat="43.96331867196947" lon="12.774912283810139"><ele>96.0</ele><time>2026-03-22T11:58:50.946Z</time></trkpt><trkpt lat="43.963194511830395" lon="12.774795820026572"><ele>99.0</ele><time>2026-03-22T11:58:51.946Z</time></trkpt><trkpt lat="43.96306805660501" lon="12.774696330238122"><ele>102.0</ele><time>2026-03-22T11:58:52.946Z</time></trkpt><trkpt lat="43.96297408056971" lon="12.774579341546417"><ele>102.0</ele><time>2026-03-22T11:58:53.946Z</time></trkpt><trkpt lat="43.96285830596989" lon="12.774481874916226"><ele>102.0</ele><time>2026-03-22T11:58:54.946Z</time></trkpt><trkpt lat="43.96275671491487" lon="12.774381074437514"><ele>102.0</ele><time>2026-03-22T11:58:55.946Z</time></trkpt><trkpt lat="43.96265839177041" lon="12.774280806494831"><ele>102.0</ele><time>2026-03-22T11:58:56.946Z</time></trkpt><trkpt lat="43.96256214598596" lon="12.774178247015495"><ele>102.5</ele><time>2026-03-22T11:58:57.946Z</time></trkpt><trkpt lat="43.96246774578179" lon="12.774059776346437"><ele>103.0</ele><time>2026-03-22T11:58:58.947Z</time></trkpt><trkpt lat="43.96236548479549" lon="12.773948264058934"><ele>103.5</ele><time>2026-03-22T11:58:59.947Z</time></trkpt><trkpt lat="43.96226896023316" lon="12.773821378210458"><ele>104.0</ele><time>2026-03-22T11:59:00.947Z</time></trkpt><trkpt lat="43.96216715523586" lon="12.773708088001094"><ele>104.0</ele><time>2026-03-22T11:59:01.947Z</time></trkpt><trkpt lat="43.962069377782775" lon="12.773595584437224"><ele>104.0</ele><time>2026-03-22T11:59:02.947Z</time></trkpt><trkpt lat="43.96196868157035" lon="12.77348534619502"><ele>104.0</ele><time>2026-03-22T11:59:03.947Z</time></trkpt><trkpt lat="43.96188373676375" lon="12.773382087126475"><ele>104.0</ele><time>2026-03-22T11:59:04.947Z</time></trkpt><trkpt lat="43.96182616184463" lon="12.773268094084425"><ele>106.2</ele><time>2026-03-22T11:59:05.947Z</time></trkpt><trkpt lat="43.961798961515065" lon="12.773157732139122"><ele>108.4</ele><time>2026-03-22T11:59:06.947Z</time></trkpt><trkpt lat="43.96180089633746" lon="12.773057423410412"><ele>110.6</ele><time>2026-03-22T11:59:07.947Z</time></trkpt><trkpt lat="43.961858553647524" lon="12.772956932735767"><ele>112.8</ele><time>2026-03-22T11:59:08.947Z</time></trkpt><trkpt lat="43.961941393631726" lon="12.772883055676806"><ele>115.0</ele><time>2026-03-22T11:59:09.947Z</time></trkpt><trkpt lat="43.962051412214485" lon="12.772843385880742"><ele>115.0</ele><time>2026-03-22T11:59:10.947Z</time></trkpt><trkpt lat="43.96219245219918" lon="12.772852884649666"><ele>115.0</ele><time>2026-03-22T11:59:11.947Z</time></trkpt><trkpt lat="43.96233220467335" lon="12.772891826956922"><ele>115.0</ele><time>2026-03-22T11:59:12.947Z</time></trkpt><trkpt lat="43.96247346926239" lon="12.772895791796914"><ele>115.0</ele><time>2026-03-22T11:59:13.947Z</time></trkpt><trkpt lat="43.96258978630117" lon="12.77286141722125"><ele>117.5</ele><time>2026-03-22T11:59:14.947Z</time></trkpt><trkpt lat="43.96270223012409" lon="12.772800944306345"><ele>120.0</ele><time>2026-03-22T11:59:15.947Z</time></trkpt><trkpt lat="43.96281410246412" lon="12.772726030572965"><ele>122.5</ele><time>2026-03-22T11:59:16.947Z</time></trkpt><trkpt lat="43.962921233277065" lon="12.772625210405556"><ele>125.0</ele><time>2026-03-22T11:59:17.947Z</time></trkpt><trkpt lat="43.96300895914465" lon="12.772516214479126"><ele>124.99999999999999</ele><time>2026-03-22T11:59:18.947Z</time></trkpt><trkpt lat="43.96306707517684" lon="12.772397268158429"><ele>125.0</ele><time>2026-03-22T11:59:19.947Z</time></trkpt><trkpt lat="43.96311485610461" lon="12.772281926029772"><ele>125.0</ele><time>2026-03-22T11:59:20.947Z</time></trkpt><trkpt lat="43.963157948801516" lon="12.77219067937589"><ele>125.0</ele><time>2026-03-22T11:59:21.947Z</time></trkpt><trkpt lat="43.96321417078871" lon="12.772068332647121"><ele>124.99999999999999</ele><time>2026-03-22T11:59:23.947Z</time></trkpt><trkpt lat="43.96325051025447" lon="12.771991286095933"><ele>125.0</ele><time>2026-03-22T11:59:26.947Z</time></trkpt><trkpt lat="43.96328517710906" lon="12.77190985796212"><ele>124.33333333333333</ele><time>2026-03-22T11:59:31.947Z</time></trkpt><trkpt lat="43.96332755355294" lon="12.771807602956391"><ele>123.66666666666666</ele><time>2026-03-22T11:59:35.947Z</time></trkpt><trkpt lat="43.96339002178768" lon="12.771753905838095"><ele>123.0</ele><time>2026-03-22T11:59:37.947Z</time></trkpt><trkpt lat="43.96344853246187" lon="12.771721294094935"><ele>122.33333333333334</ele><time>2026-03-22T11:59:46.947Z</time></trkpt><trkpt lat="43.96347761274741" lon="12.77155295338004"><ele>121.66666666666667</ele><time>2026-03-22T11:59:49.947Z</time></trkpt><trkpt lat="43.963465886862" lon="12.771461470501231"><ele>121.0</ele><time>2026-03-22T11:59:50.947Z</time></trkpt><trkpt lat="43.963439127003255" lon="12.77132353396329"><ele>116.5</ele><time>2026-03-22T11:59:51.947Z</time></trkpt><trkpt lat="43.963431942917595" lon="12.771170180459423"><ele>112.0</ele><time>2026-03-22T11:59:52.947Z</time></trkpt><trkpt lat="43.96340993661384" lon="12.770976753722309"><ele>107.5</ele><time>2026-03-22T11:59:53.947Z</time></trkpt><trkpt lat="43.963390837725086" lon="12.770770146677815"><ele>103.0</ele><time>2026-03-22T11:59:54.947Z</time></trkpt><trkpt lat="43.963392855527395" lon="12.770556080263562"><ele>98.0</ele><time>2026-03-22T11:59:55.947Z</time></trkpt><trkpt lat="43.96344801111577" lon="12.770310481425303"><ele>93.0</ele><time>2026-03-22T11:59:56.947Z</time></trkpt><trkpt lat="43.963496955554525" lon="12.770058032542986"><ele>88.0</ele><time>2026-03-22T11:59:57.947Z</time></trkpt><trkpt lat="43.96352070753722" lon="12.769803020607593"><ele>86.66666666666666</ele><time>2026-03-22T11:59:58.947Z</time></trkpt><trkpt lat="43.96352191063149" lon="12.769555769633723"><ele>85.33333333333333</ele><time>2026-03-22T11:59:59.947Z</time></trkpt><trkpt lat="43.9635018439021" lon="12.769316209326755"><ele>84.0</ele><time>2026-03-22T12:00:00.947Z</time></trkpt><trkpt lat="43.96347119894834" lon="12.769097739251453"><ele>83.33333333333333</ele><time>2026-03-22T12:00:01.947Z</time></trkpt><trkpt lat="43.96347911204436" lon="12.768897507220116"><ele>82.66666666666666</ele><time>2026-03-22T12:00:02.947Z</time></trkpt><trkpt lat="43.963535149143844" lon="12.76868776022506"><ele>82.0</ele><time>2026-03-22T12:00:03.947Z</time></trkpt><trkpt lat="43.963588903268736" lon="12.76849624545433"><ele>81.25</ele><time>2026-03-22T12:00:04.947Z</time></trkpt><trkpt lat="43.96362378480623" lon="12.768336981047474"><ele>80.5</ele><time>2026-03-22T12:00:05.947Z</time></trkpt><trkpt lat="43.96361950686045" lon="12.768172777204693"><ele>79.75</ele><time>2026-03-22T12:00:06.947Z</time></trkpt><trkpt lat="43.9635838637729" lon="12.767999781247914"><ele>79.0</ele><time>2026-03-22T12:00:07.947Z</time></trkpt><trkpt lat="43.96352724744893" lon="12.767838588858714"><ele>78.0</ele><time>2026-03-22T12:00:08.947Z</time></trkpt><trkpt lat="43.96349563307405" lon="12.767678900921055"><ele>77.0</ele><time>2026-03-22T12:00:09.947Z</time></trkpt><trkpt lat="43.963461744895284" lon="12.767544610881025"><ele>76.0</ele><time>2026-03-22T12:00:10.947Z</time></trkpt><trkpt lat="43.96343587994818" lon="12.76740421863722"><ele>75.0</ele><time>2026-03-22T12:00:11.947Z</time></trkpt><trkpt lat="43.96342385936585" lon="12.767267146954378"><ele>74.0</ele><time>2026-03-22T12:00:12.946Z</time></trkpt><trkpt lat="43.963440075983954" lon="12.767118427874363"><ele>74.0</ele><time>2026-03-22T12:00:13.946Z</time></trkpt><trkpt lat="43.963476126589946" lon="12.766968240547007"><ele>74.0</ele><time>2026-03-22T12:00:14.947Z</time></trkpt><trkpt lat="43.96349861866851" lon="12.76681854689309"><ele>74.0</ele><time>2026-03-22T12:00:15.947Z</time></trkpt><trkpt lat="43.963499323825275" lon="12.766672203301562"><ele>74.0</ele><time>2026-03-22T12:00:16.947Z</time></trkpt><trkpt lat="43.963470168845284" lon="12.766518241101842"><ele>74.0</ele><time>2026-03-22T12:00:17.947Z</time></trkpt><trkpt lat="43.96342614440582" lon="12.766350096982158"><ele>72.75</ele><time>2026-03-22T12:00:18.947Z</time></trkpt><trkpt lat="43.96337917761029" lon="12.766177107520095"><ele>71.5</ele><time>2026-03-22T12:00:19.947Z</time></trkpt><trkpt lat="43.96332670934532" lon="12.766007659739888"><ele>70.25</ele><time>2026-03-22T12:00:20.947Z</time></trkpt><trkpt lat="43.96328462380906" lon="12.765850029837251"><ele>69.0</ele><time>2026-03-22T12:00:21.947Z</time></trkpt><trkpt lat="43.963245718648224" lon="12.765704787180114"><ele>71.25</ele><time>2026-03-22T12:00:22.947Z</time></trkpt><trkpt lat="43.963219153157624" lon="12.76554591736575"><ele>73.5</ele><time>2026-03-22T12:00:23.947Z</time></trkpt><trkpt lat="43.963200293771735" lon="12.765379632640991"><ele>75.75</ele><time>2026-03-22T12:00:24.947Z</time></trkpt><trkpt lat="43.96318390147547" lon="12.765221946010584"><ele>78.0</ele><time>2026-03-22T12:00:25.947Z</time></trkpt><trkpt lat="43.96317019068115" lon="12.76507507541623"><ele>78.0</ele><time>2026-03-22T12:00:26.947Z</time></trkpt><trkpt lat="43.96315271948497" lon="12.764932182351666"><ele>78.0</ele><time>2026-03-22T12:00:27.947Z</time></trkpt><trkpt lat="43.96313545155958" lon="12.764799606118464"><ele>78.0</ele><time>2026-03-22T12:00:28.947Z</time></trkpt><trkpt lat="43.963123010593016" lon="12.76466250569063"><ele>78.0</ele><time>2026-03-22T12:00:29.947Z</time></trkpt><trkpt lat="43.963120220356004" lon="12.764522627939389"><ele>78.0</ele><time>2026-03-22T12:00:30.947Z</time></trkpt><trkpt lat="43.96310796841421" lon="12.764384210044085"><ele>77.0</ele><time>2026-03-22T12:00:31.947Z</time></trkpt><trkpt lat="43.96309326794182" lon="12.764254560252015"><ele>76.0</ele><time>2026-03-22T12:00:32.947Z</time></trkpt><trkpt lat="43.96307644290617" lon="12.7641158979476"><ele>75.0</ele><time>2026-03-22T12:00:33.947Z</time></trkpt><trkpt lat="43.96306062430331" lon="12.763981341914763"><ele>74.0</ele><time>2026-03-22T12:00:34.947Z</time></trkpt><trkpt lat="43.96304215181653" lon="12.763830750946203"><ele>73.0</ele><time>2026-03-22T12:00:35.947Z</time></trkpt><trkpt lat="43.9630259743301" lon="12.763670258469343"><ele>73.5</ele><time>2026-03-22T12:00:36.947Z</time></trkpt><trkpt lat="43.963007871678755" lon="12.763500975866439"><ele>74.0</ele><time>2026-03-22T12:00:37.947Z</time></trkpt><trkpt lat="43.96298978024429" lon="12.763333156984269"><ele>74.5</ele><time>2026-03-22T12:00:38.947Z</time></trkpt><trkpt lat="43.962965242568806" lon="12.763166279458101"><ele>75.0</ele><time>2026-03-22T12:00:39.947Z</time></trkpt><trkpt lat="43.96295019217018" lon="12.763004448853506"><ele>75.0</ele><time>2026-03-22T12:00:40.947Z</time></trkpt><trkpt lat="43.96293712023614" lon="12.762839209221108"><ele>75.0</ele><time>2026-03-22T12:00:41.947Z</time></trkpt><trkpt lat="43.96292859500409" lon="12.762670929672597"><ele>75.0</ele><time>2026-03-22T12:00:42.947Z</time></trkpt><trkpt lat="43.96293942253816" lon="12.762479629465062"><ele>75.0</ele><time>2026-03-22T12:00:43.947Z</time></trkpt><trkpt lat="43.962982855565194" lon="12.762280976425819"><ele>75.25</ele><time>2026-03-22T12:00:44.947Z</time></trkpt><trkpt lat="43.96304693960841" lon="12.76210409737479"><ele>75.5</ele><time>2026-03-22T12:00:45.947Z</time></trkpt><trkpt lat="43.963114947071716" lon="12.761931809360128"><ele>75.75</ele><time>2026-03-22T12:00:46.947Z</time></trkpt><trkpt lat="43.96318710745687" lon="12.761783402988785"><ele>76.0</ele><time>2026-03-22T12:00:47.947Z</time></trkpt><trkpt lat="43.96325864808411" lon="12.76163742421672"><ele>75.39999999999999</ele><time>2026-03-22T12:00:48.947Z</time></trkpt><trkpt lat="43.9633248662796" lon="12.761506292227326"><ele>74.8</ele><time>2026-03-22T12:00:49.947Z</time></trkpt><trkpt lat="43.96337928264728" lon="12.761380606526407"><ele>74.19999999999999</ele><time>2026-03-22T12:00:50.947Z</time></trkpt><trkpt lat="43.96341958097938" lon="12.76123875555173"><ele>73.6</ele><time>2026-03-22T12:00:51.947Z</time></trkpt><trkpt lat="43.96344478417231" lon="12.761108540128697"><ele>73.0</ele><time>2026-03-22T12:00:52.947Z</time></trkpt><trkpt lat="43.96342231300651" lon="12.760986289666027"><ele>71.2</ele><time>2026-03-22T12:00:53.947Z</time></trkpt><trkpt lat="43.96338423006832" lon="12.7608751093994"><ele>69.4</ele><time>2026-03-22T12:00:54.947Z</time></trkpt><trkpt lat="43.96331451387584" lon="12.760783961253692"><ele>67.60000000000001</ele><time>2026-03-22T12:00:55.947Z</time></trkpt><trkpt lat="43.96322994569582" lon="12.760722689932008"><ele>65.8</ele><time>2026-03-22T12:00:56.947Z</time></trkpt><trkpt lat="43.963133247952584" lon="12.760690836123418"><ele>64.0</ele><time>2026-03-22T12:00:57.947Z</time></trkpt><trkpt lat="43.96301967307577" lon="12.760696258797498"><ele>64.0</ele><time>2026-03-22T12:00:58.947Z</time></trkpt><trkpt lat="43.96289299940801" lon="12.760776981550272"><ele>64.0</ele><time>2026-03-22T12:00:59.947Z</time></trkpt><trkpt lat="43.96279433824905" lon="12.760915023979853"><ele>64.0</ele><time>2026-03-22T12:01:00.947Z</time></trkpt><trkpt lat="43.96269932530609" lon="12.761062411055981"><ele>64.0</ele><time>2026-03-22T12:01:01.947Z</time></trkpt><trkpt lat="43.96260808669293" lon="12.761206391882641"><ele>62.5</ele><time>2026-03-22T12:01:02.947Z</time></trkpt><trkpt lat="43.96252026657791" lon="12.761344775129842"><ele>61.0</ele><time>2026-03-22T12:01:03.947Z</time></trkpt><trkpt lat="43.96243136577858" lon="12.761483735016844"><ele>59.5</ele><time>2026-03-22T12:01:04.947Z</time></trkpt><trkpt lat="43.96233366127919" lon="12.761636455955859"><ele>58.0</ele><time>2026-03-22T12:01:05.947Z</time></trkpt><trkpt lat="43.96223749753227" lon="12.761786768540732"><ele>60.0</ele><time>2026-03-22T12:01:06.947Z</time></trkpt><trkpt lat="43.96216033944437" lon="12.761939959731242"><ele>62.0</ele><time>2026-03-22T12:01:07.947Z</time></trkpt><trkpt lat="43.96206201748631" lon="12.762063609850324"><ele>64.0</ele><time>2026-03-22T12:01:08.947Z</time></trkpt><trkpt lat="43.96199336996122" lon="12.76218165200737"><ele>66.0</ele><time>2026-03-22T12:01:09.947Z</time></trkpt><trkpt lat="43.961924883041114" lon="12.762277486871344"><ele>66.0</ele><time>2026-03-22T12:01:10.947Z</time></trkpt><trkpt lat="43.96187642590869" lon="12.762372256677297"><ele>66.0</ele><time>2026-03-22T12:01:11.947Z</time></trkpt><trkpt lat="43.96182447516874" lon="12.762457048688724"><ele>66.0</ele><time>2026-03-22T12:01:12.947Z</time></trkpt><trkpt lat="43.96177694337009" lon="12.762536725509525"><ele>66.0</ele><time>2026-03-22T12:01:13.947Z</time></trkpt><trkpt lat="43.961715287443816" lon="12.762601079408798"><ele>66.0</ele><time>2026-03-22T12:01:14.947Z</time></trkpt><trkpt lat="43.96166580499676" lon="12.762691129725694"><ele>66.0</ele><time>2026-03-22T12:01:15.947Z</time></trkpt><trkpt lat="43.96160576697083" lon="12.762790041486811"><ele>63.4</ele><time>2026-03-22T12:01:16.947Z</time></trkpt><trkpt lat="43.96153845890185" lon="12.762897874340752"><ele>60.8</ele><time>2026-03-22T12:01:17.947Z</time></trkpt><trkpt lat="43.961473577246565" lon="12.763007412800745"><ele>58.199999999999996</ele><time>2026-03-22T12:01:18.947Z</time></trkpt><trkpt lat="43.96139642362916" lon="12.76310295647856"><ele>55.599999999999994</ele><time>2026-03-22T12:01:19.947Z</time></trkpt><trkpt lat="43.961324326057074" lon="12.763214580405233"><ele>53.0</ele><time>2026-03-22T12:01:20.947Z</time></trkpt><trkpt lat="43.96124891790343" lon="12.763331329852745"><ele>53.0</ele><time>2026-03-22T12:01:21.947Z</time></trkpt><trkpt lat="43.961168112092246" lon="12.763456787678084"><ele>53.0</ele><time>2026-03-22T12:01:22.947Z</time></trkpt><trkpt lat="43.96108052322996" lon="12.763593102134367"><ele>53.0</ele><time>2026-03-22T12:01:23.947Z</time></trkpt><trkpt lat="43.96098843476136" lon="12.763736287667227"><ele>53.0</ele><time>2026-03-22T12:01:24.947Z</time></trkpt><trkpt lat="43.96090736054911" lon="12.763862347536925"><ele>51.16666666666667</ele><time>2026-03-22T12:01:25.947Z</time></trkpt><trkpt lat="43.96083853071387" lon="12.76396936902164"><ele>49.333333333333336</ele><time>2026-03-22T12:01:26.948Z</time></trkpt><trkpt lat="43.96079047048683" lon="12.764044096396363"><ele>47.5</ele><time>2026-03-22T12:01:27.948Z</time></trkpt><trkpt lat="43.96073978272183" lon="12.7641508249931"><ele>45.66666666666667</ele><time>2026-03-22T12:01:29.948Z</time></trkpt><trkpt lat="43.96067683421884" lon="12.764193563500134"><ele>43.833333333333336</ele><time>2026-03-22T12:01:31.948Z</time></trkpt><trkpt lat="43.96060544458042" lon="12.764216717414563"><ele>42.0</ele><time>2026-03-22T12:01:34.948Z</time></trkpt><trkpt lat="43.96052753499053" lon="12.764209283126"><ele>42.0</ele><time>2026-03-22T12:01:39.948Z</time></trkpt><trkpt lat="43.96045555482325" lon="12.764200653646494"><ele>42.0</ele><time>2026-03-22T12:02:02.948Z</time></trkpt><trkpt lat="43.96038910333371" lon="12.764186122081252"><ele>42.0</ele><time>2026-03-22T12:02:17.948Z</time></trkpt><trkpt lat="43.96032483906506" lon="12.764158818097549"><ele>42.0</ele><time>2026-03-22T12:03:33.948Z</time></trkpt><trkpt lat="43.960258381176104" lon="12.764146079608176"><ele>42.0</ele><time>2026-03-22T12:03:35.948Z</time></trkpt><trkpt lat="43.96018556036422" lon="12.764115005210808"><ele>42.0</ele><time>2026-03-22T12:03:37.948Z</time></trkpt><trkpt lat="43.9600834225058" lon="12.764085774175921"><ele>40.833333333333336</ele><time>2026-03-22T12:03:39.948Z</time></trkpt><trkpt lat="43.960018610169" lon="12.76406019977173"><ele>39.666666666666664</ele><time>2026-03-22T12:03:40.948Z</time></trkpt><trkpt lat="43.95993202130606" lon="12.764021239674186"><ele>38.5</ele><time>2026-03-22T12:03:41.948Z</time></trkpt><trkpt lat="43.95984183619987" lon="12.76399225501035"><ele>37.33333333333333</ele><time>2026-03-22T12:03:42.948Z</time></trkpt><trkpt lat="43.95976200078122" lon="12.76396262456028"><ele>36.166666666666664</ele><time>2026-03-22T12:03:43.948Z</time></trkpt><trkpt lat="43.959684681651716" lon="12.763934193143196"><ele>35.0</ele><time>2026-03-22T12:03:44.949Z</time></trkpt><trkpt lat="43.959597467154374" lon="12.763901889813637"><ele>35.0</ele><time>2026-03-22T12:03:45.949Z</time></trkpt><trkpt lat="43.95950818171412" lon="12.763874957624939"><ele>35.0</ele><time>2026-03-22T12:03:46.949Z</time></trkpt><trkpt lat="43.959418216773" lon="12.763844154671702"><ele>35.0</ele><time>2026-03-22T12:03:47.949Z</time></trkpt><trkpt lat="43.95933160047768" lon="12.76381103270739"><ele>35.0</ele><time>2026-03-22T12:03:48.949Z</time></trkpt><trkpt lat="43.95924318937906" lon="12.763776915758092"><ele>35.0</ele><time>2026-03-22T12:03:49.949Z</time></trkpt><trkpt lat="43.959165236377956" lon="12.763725692667109"><ele>34.5</ele><time>2026-03-22T12:03:50.949Z</time></trkpt><trkpt lat="43.95908697525279" lon="12.76369693558371"><ele>34.0</ele><time>2026-03-22T12:03:51.949Z</time></trkpt><trkpt lat="43.9590176357335" lon="12.763672693475202"><ele>33.5</ele><time>2026-03-22T12:03:52.949Z</time></trkpt><trkpt lat="43.95895231259149" lon="12.763649855576194"><ele>33.0</ele><time>2026-03-22T12:03:53.949Z</time></trkpt><trkpt lat="43.958889653542755" lon="12.763627949077524"><ele>32.5</ele><time>2026-03-22T12:03:54.949Z</time></trkpt><trkpt lat="43.958772183305655" lon="12.76358447996917"><ele>32.0</ele><time>2026-03-22T12:03:56.949Z</time></trkpt><trkpt lat="43.958708694905766" lon="12.763560389792879"><ele>31.999999999999996</ele><time>2026-03-22T12:03:57.949Z</time></trkpt><trkpt lat="43.958639348858235" lon="12.763569564642609"><ele>32.0</ele><time>2026-03-22T12:03:58.949Z</time></trkpt><trkpt lat="43.9585688944947" lon="12.763541449493312"><ele>32.0</ele><time>2026-03-22T12:03:59.949Z</time></trkpt><trkpt lat="43.958506019566556" lon="12.763523415651772"><ele>32.0</ele><time>2026-03-22T12:04:00.949Z</time></trkpt><trkpt lat="43.95843875981639" lon="12.763492445878809"><ele>31.999999999999996</ele><time>2026-03-22T12:04:01.949Z</time></trkpt><trkpt lat="43.958361851688494" lon="12.763467243484547"><ele>32.0</ele><time>2026-03-22T12:04:02.949Z</time></trkpt><trkpt lat="43.95826645856373" lon="12.76342247787729"><ele>30.6</ele><time>2026-03-22T12:04:04.949Z</time></trkpt><trkpt lat="43.95817973370759" lon="12.763390062775663"><ele>29.200000000000003</ele><time>2026-03-22T12:04:06.949Z</time></trkpt><trkpt lat="43.958075477356616" lon="12.763349148156115"><ele>27.8</ele><time>2026-03-22T12:04:08.949Z</time></trkpt><trkpt lat="43.95799596750358" lon="12.763312642799287"><ele>26.4</ele><time>2026-03-22T12:04:09.949Z</time></trkpt><trkpt lat="43.95790940537446" lon="12.763279597307944"><ele>25.0</ele><time>2026-03-22T12:04:10.949Z</time></trkpt><trkpt lat="43.95783305137126" lon="12.763249823745555"><ele>25.000000000000004</ele><time>2026-03-22T12:04:11.949Z</time></trkpt><trkpt lat="43.95771916180589" lon="12.763215792456098"><ele>25.0</ele><time>2026-03-22T12:04:13.949Z</time></trkpt><trkpt lat="43.9576380098839" lon="12.763160765863178"><ele>25.0</ele><time>2026-03-22T12:04:15.949Z</time></trkpt><trkpt lat="43.95763646945529" lon="12.763053690061755"><ele>25.0</ele><time>2026-03-22T12:04:17.949Z</time></trkpt><trkpt lat="43.95765388750674" lon="12.762964142304115"><ele>25.000000000000004</ele><time>2026-03-22T12:04:18.949Z</time></trkpt><trkpt lat="43.95770441949722" lon="12.762865005119501"><ele>25.0</ele><time>2026-03-22T12:04:19.949Z</time></trkpt><trkpt lat="43.957776040161065" lon="12.762760639241893"><ele>23.500000000000004</ele><time>2026-03-22T12:04:20.95Z</time></trkpt><trkpt lat="43.95784237103306" lon="12.762672764765686"><ele>22.0</ele><time>2026-03-22T12:04:21.949Z</time></trkpt><trkpt lat="43.95790400163911" lon="12.762586971522193"><ele>20.5</ele><time>2026-03-22T12:04:22.949Z</time></trkpt><trkpt lat="43.957964258824454" lon="12.76250218019074"><ele>19.0</ele><time>2026-03-22T12:04:23.949Z</time></trkpt><trkpt lat="43.95802207619407" lon="12.762420502862488"><ele>17.5</ele><time>2026-03-22T12:04:24.949Z</time></trkpt><trkpt lat="43.95806935632162" lon="12.76234664965353"><ele>16.0</ele><time>2026-03-22T12:04:25.949Z</time></trkpt><trkpt lat="43.95813997385766" lon="12.762247225092045"><ele>16.0</ele><time>2026-03-22T12:04:27.949Z</time></trkpt><trkpt lat="43.958108186567785" lon="12.762113404492986"><ele>16.0</ele><time>2026-03-22T12:04:29.949Z</time></trkpt><trkpt lat="43.958055329660674" lon="12.761986608605907"><ele>16.0</ele><time>2026-03-22T12:04:31.949Z</time></trkpt><trkpt lat="43.958006468259775" lon="12.761837361003474"><ele>16.0</ele><time>2026-03-22T12:04:33.949Z</time></trkpt><trkpt lat="43.95796672436894" lon="12.761720604950558"><ele>16.0</ele><time>2026-03-22T12:04:35.949Z</time></trkpt><trkpt lat="43.957941751005556" lon="12.761617521630232"><ele>15.4</ele><time>2026-03-22T12:04:37.949Z</time></trkpt><trkpt lat="43.95797454726873" lon="12.761473277204985"><ele>14.8</ele><time>2026-03-22T12:04:39.949Z</time></trkpt><trkpt lat="43.95802692615484" lon="12.761377241346986"><ele>14.200000000000001</ele><time>2026-03-22T12:04:40.949Z</time></trkpt><trkpt lat="43.95809065208187" lon="12.761250385902589"><ele>13.600000000000001</ele><time>2026-03-22T12:04:41.949Z</time></trkpt><trkpt lat="43.95816055868141" lon="12.761090302056038"><ele>13.0</ele><time>2026-03-22T12:04:42.949Z</time></trkpt><trkpt lat="43.95822062041998" lon="12.760951180615335"><ele>12.8</ele><time>2026-03-22T12:04:43.949Z</time></trkpt><trkpt lat="43.95827598884483" lon="12.760826693038524"><ele>12.600000000000001</ele><time>2026-03-22T12:04:44.949Z</time></trkpt><trkpt lat="43.9583237381568" lon="12.76071690564477"><ele>12.399999999999999</ele><time>2026-03-22T12:04:45.949Z</time></trkpt><trkpt lat="43.958367374870214" lon="12.760608061900916"><ele>12.2</ele><time>2026-03-22T12:04:46.949Z</time></trkpt><trkpt lat="43.95841393912316" lon="12.760490289417561"><ele>12.0</ele><time>2026-03-22T12:04:47.949Z</time></trkpt><trkpt lat="43.958466119582795" lon="12.760375336829672"><ele>12.0</ele><time>2026-03-22T12:04:48.949Z</time></trkpt><trkpt lat="43.95851792518088" lon="12.760244783264762"><ele>12.0</ele><time>2026-03-22T12:04:49.949Z</time></trkpt><trkpt lat="43.95856403941564" lon="12.760115065268435"><ele>12.0</ele><time>2026-03-22T12:04:50.949Z</time></trkpt><trkpt lat="43.95861893624498" lon="12.759987214042999"><ele>12.0</ele><time>2026-03-22T12:04:51.949Z</time></trkpt><trkpt lat="43.958678346951125" lon="12.7598520111523"><ele>12.0</ele><time>2026-03-22T12:04:52.949Z</time></trkpt><trkpt lat="43.95873570712022" lon="12.759711835826934"><ele>11.4</ele><time>2026-03-22T12:04:53.949Z</time></trkpt><trkpt lat="43.95879655251616" lon="12.759573894736942"><ele>10.799999999999999</ele><time>2026-03-22T12:04:54.949Z</time></trkpt><trkpt lat="43.95885507702987" lon="12.759437891878601"><ele>10.2</ele><time>2026-03-22T12:04:55.949Z</time></trkpt><trkpt lat="43.958909370102354" lon="12.759316197847944"><ele>9.6</ele><time>2026-03-22T12:04:56.949Z</time></trkpt><trkpt lat="43.95895564970783" lon="12.759204371499084"><ele>9.0</ele><time>2026-03-22T12:04:57.949Z</time></trkpt><trkpt lat="43.9589979272621" lon="12.759101197012129"><ele>8.5</ele><time>2026-03-22T12:04:58.949Z</time></trkpt><trkpt lat="43.959039130294144" lon="12.759003576710048"><ele>8.0</ele><time>2026-03-22T12:04:59.949Z</time></trkpt><trkpt lat="43.959080733046825" lon="12.758905390694725"><ele>7.5</ele><time>2026-03-22T12:05:00.949Z</time></trkpt><trkpt lat="43.959120336531136" lon="12.758798729972149"><ele>7.0</ele><time>2026-03-22T12:05:01.949Z</time></trkpt><trkpt lat="43.95916852069984" lon="12.758697279280332"><ele>6.5</ele><time>2026-03-22T12:05:02.949Z</time></trkpt><trkpt lat="43.959215999962424" lon="12.75858504394933"><ele>6.0</ele><time>2026-03-22T12:05:03.949Z</time></trkpt><trkpt lat="43.959257393868796" lon="12.758457972151321"><ele>6.0</ele><time>2026-03-22T12:05:04.949Z</time></trkpt><trkpt lat="43.959298518287646" lon="12.758330924354787"><ele>6.0</ele><time>2026-03-22T12:05:05.949Z</time></trkpt><trkpt lat="43.95932685987013" lon="12.758216745924939"><ele>6.0</ele><time>2026-03-22T12:05:06.949Z</time></trkpt><trkpt lat="43.95935347561656" lon="12.75811935798337"><ele>6.0</ele><time>2026-03-22T12:05:07.949Z</time></trkpt><trkpt lat="43.9593772721919" lon="12.758021244636288"><ele>6.0</ele><time>2026-03-22T12:05:08.949Z</time></trkpt><trkpt lat="43.959401936163" lon="12.75793315647026"><ele>6.0</ele><time>2026-03-22T12:05:09.949Z</time></trkpt><trkpt lat="43.95942381495141" lon="12.757848635774286"><ele>6.0</ele><time>2026-03-22T12:05:10.949Z</time></trkpt><trkpt lat="43.95944323983632" lon="12.757760970092745"><ele>6.0</ele><time>2026-03-22T12:05:11.949Z</time></trkpt><trkpt lat="43.95952772927984" lon="12.757650195812685"><ele>6.0</ele><time>2026-03-22T12:05:13.949Z</time></trkpt><trkpt lat="43.95958190176077" lon="12.757602965790559"><ele>6.0</ele><time>2026-03-22T12:05:14.949Z</time></trkpt><trkpt lat="43.95958066564627" lon="12.757444441315654"><ele>6.0</ele><time>2026-03-22T12:05:16.949Z</time></trkpt><trkpt lat="43.95953650316422" lon="12.75735282686544"><ele>6.0</ele><time>2026-03-22T12:05:17.949Z</time></trkpt><trkpt lat="43.95951339244877" lon="12.757254118035531"><ele>6.4</ele><time>2026-03-22T12:05:18.949Z</time></trkpt><trkpt lat="43.95952219451577" lon="12.757115727375973"><ele>6.8</ele><time>2026-03-22T12:05:19.949Z</time></trkpt><trkpt lat="43.95954518135182" lon="12.756964903470255"><ele>7.200000000000001</ele><time>2026-03-22T12:05:20.949Z</time></trkpt><trkpt lat="43.95955802667788" lon="12.756837108436105"><ele>7.6000000000000005</ele><time>2026-03-22T12:05:21.949Z</time></trkpt><trkpt lat="43.959573906095436" lon="12.756732497980991"><ele>8.0</ele><time>2026-03-22T12:05:22.949Z</time></trkpt><trkpt lat="43.959584547507134" lon="12.756575445752025"><ele>8.200000000000001</ele><time>2026-03-22T12:05:24.949Z</time></trkpt><trkpt lat="43.95960714447522" lon="12.756458181502191"><ele>8.4</ele><time>2026-03-22T12:05:26.949Z</time></trkpt><trkpt lat="43.95966655607874" lon="12.756314047466335"><ele>8.600000000000001</ele><time>2026-03-22T12:05:28.949Z</time></trkpt><trkpt lat="43.95966959937298" lon="12.756143841191845"><ele>8.8</ele><time>2026-03-22T12:05:30.949Z</time></trkpt><trkpt lat="43.9596507115016" lon="12.756014207013683"><ele>9.0</ele><time>2026-03-22T12:05:31.949Z</time></trkpt><trkpt lat="43.95965481503785" lon="12.755880675540288"><ele>9.0</ele><time>2026-03-22T12:05:32.949Z</time></trkpt><trkpt lat="43.95967255930002" lon="12.755733800404531"><ele>9.0</ele><time>2026-03-22T12:05:33.949Z</time></trkpt><trkpt lat="43.95969640282356" lon="12.755607211828744"><ele>9.0</ele><time>2026-03-22T12:05:34.949Z</time></trkpt><trkpt lat="43.959710249096766" lon="12.755490575301483"><ele>9.0</ele><time>2026-03-22T12:05:35.949Z</time></trkpt><trkpt lat="43.95972314894689" lon="12.755381408527965"><ele>9.0</ele><time>2026-03-22T12:05:36.949Z</time></trkpt><trkpt lat="43.95973604411597" lon="12.755286310111304"><ele>9.0</ele><time>2026-03-22T12:05:37.949Z</time></trkpt><trkpt lat="43.95974626481065" lon="12.755174481419807"><ele>9.0</ele><time>2026-03-22T12:05:38.949Z</time></trkpt><trkpt lat="43.9597507897918" lon="12.755067307629162"><ele>9.0</ele><time>2026-03-22T12:05:39.949Z</time></trkpt><trkpt lat="43.95975136077868" lon="12.754959275054329"><ele>9.0</ele><time>2026-03-22T12:05:40.949Z</time></trkpt><trkpt lat="43.95976713425727" lon="12.754824223824272"><ele>9.0</ele><time>2026-03-22T12:05:41.949Z</time></trkpt><trkpt lat="43.95978232476069" lon="12.754680697578683"><ele>9.0</ele><time>2026-03-22T12:05:42.949Z</time></trkpt><trkpt lat="43.95978260651229" lon="12.75451982370379"><ele>8.4</ele><time>2026-03-22T12:05:43.949Z</time></trkpt><trkpt lat="43.9597922120174" lon="12.7543673106225"><ele>7.800000000000001</ele><time>2026-03-22T12:05:44.95Z</time></trkpt><trkpt lat="43.95980006823088" lon="12.754218762427454"><ele>7.199999999999999</ele><time>2026-03-22T12:05:45.95Z</time></trkpt><trkpt lat="43.95981255012626" lon="12.75407570911514"><ele>6.6</ele><time>2026-03-22T12:05:46.95Z</time></trkpt><trkpt lat="43.95982056973947" lon="12.753932538543555"><ele>6.0</ele><time>2026-03-22T12:05:47.95Z</time></trkpt><trkpt lat="43.959832652754855" lon="12.753780803997197"><ele>6.0</ele><time>2026-03-22T12:05:48.95Z</time></trkpt><trkpt lat="43.95985272627437" lon="12.753635996307937"><ele>6.0</ele><time>2026-03-22T12:05:49.95Z</time></trkpt><trkpt lat="43.95984992664087" lon="12.753495844503808"><ele>6.0</ele><time>2026-03-22T12:05:50.95Z</time></trkpt><trkpt lat="43.95986275801352" lon="12.753344704787626"><ele>6.0</ele><time>2026-03-22T12:05:51.95Z</time></trkpt><trkpt lat="43.95987482241651" lon="12.753205591291577"><ele>6.0</ele><time>2026-03-22T12:05:52.95Z</time></trkpt><trkpt lat="43.959890284964246" lon="12.753076496610133"><ele>6.166666666666667</ele><time>2026-03-22T12:05:53.95Z</time></trkpt><trkpt lat="43.959897468603224" lon="12.75294911897055"><ele>6.333333333333334</ele><time>2026-03-22T12:05:54.95Z</time></trkpt><trkpt lat="43.95990982636223" lon="12.75281527395205"><ele>6.5</ele><time>2026-03-22T12:05:55.95Z</time></trkpt><trkpt lat="43.959921857563764" lon="12.752694668867461"><ele>6.666666666666667</ele><time>2026-03-22T12:05:56.95Z</time></trkpt><trkpt lat="43.95993501200171" lon="12.75257695894989"><ele>6.833333333333334</ele><time>2026-03-22T12:05:57.95Z</time></trkpt><trkpt lat="43.95994424092822" lon="12.752461037543206"><ele>7.0</ele><time>2026-03-22T12:05:58.95Z</time></trkpt><trkpt lat="43.95995174714535" lon="12.75234891771589"><ele>7.000000000000001</ele><time>2026-03-22T12:05:59.95Z</time></trkpt><trkpt lat="43.9599594519054" lon="12.752239222844668"><ele>7.0</ele><time>2026-03-22T12:06:00.95Z</time></trkpt><trkpt lat="43.95997245490238" lon="12.752130980751623"><ele>7.0</ele><time>2026-03-22T12:06:01.95Z</time></trkpt><trkpt lat="43.95998293099833" lon="12.752015078161858"><ele>7.0</ele><time>2026-03-22T12:06:02.95Z</time></trkpt><trkpt lat="43.95999646198135" lon="12.7518935866882"><ele>7.000000000000001</ele><time>2026-03-22T12:06:03.95Z</time></trkpt><trkpt lat="43.96000851598197" lon="12.751776470671738"><ele>7.0</ele><time>2026-03-22T12:06:04.95Z</time></trkpt><trkpt lat="43.960031837803285" lon="12.751654161980401"><ele>7.166666666666667</ele><time>2026-03-22T12:06:05.95Z</time></trkpt><trkpt lat="43.96004457562934" lon="12.751541154061744"><ele>7.333333333333334</ele><time>2026-03-22T12:06:06.95Z</time></trkpt><trkpt lat="43.96005047035027" lon="12.75143647517689"><ele>7.5</ele><time>2026-03-22T12:06:07.95Z</time></trkpt><trkpt lat="43.96006376969943" lon="12.751350986723711"><ele>7.666666666666666</ele><time>2026-03-22T12:06:08.95Z</time></trkpt><trkpt lat="43.960092400179704" lon="12.751224473510105"><ele>7.833333333333333</ele><time>2026-03-22T12:06:10.95Z</time></trkpt><trkpt lat="43.96011099235376" lon="12.751118583280661"><ele>8.0</ele><time>2026-03-22T12:06:12.95Z</time></trkpt><trkpt lat="43.96012980954948" lon="12.750996550992703"><ele>8.200000000000001</ele><time>2026-03-22T12:06:14.95Z</time></trkpt><trkpt lat="43.960149577141436" lon="12.750840152236378"><ele>8.4</ele><time>2026-03-22T12:06:16.95Z</time></trkpt><trkpt lat="43.960187683116466" lon="12.750687852399647"><ele>8.600000000000001</ele><time>2026-03-22T12:06:18.95Z</time></trkpt><trkpt lat="43.960192020794814" lon="12.750504401106243"><ele>8.8</ele><time>2026-03-22T12:06:20.95Z</time></trkpt><trkpt lat="43.96019467653865" lon="12.750388049522533"><ele>9.0</ele><time>2026-03-22T12:06:21.95Z</time></trkpt><trkpt lat="43.960215145315566" lon="12.75025170994965"><ele>9.6</ele><time>2026-03-22T12:06:22.95Z</time></trkpt><trkpt lat="43.960234153164556" lon="12.75012218374459"><ele>10.2</ele><time>2026-03-22T12:06:23.949Z</time></trkpt><trkpt lat="43.96025752374919" lon="12.74998922898262"><ele>10.799999999999999</ele><time>2026-03-22T12:06:24.95Z</time></trkpt><trkpt lat="43.96028524258275" lon="12.749832920412326"><ele>11.4</ele><time>2026-03-22T12:06:25.95Z</time></trkpt><trkpt lat="43.96031136752569" lon="12.74966632441114"><ele>12.0</ele><time>2026-03-22T12:06:26.949Z</time></trkpt><trkpt lat="43.96033805343614" lon="12.749518661245732"><ele>12.0</ele><time>2026-03-22T12:06:27.95Z</time></trkpt><trkpt lat="43.96036172241354" lon="12.749387017035803"><ele>12.0</ele><time>2026-03-22T12:06:28.95Z</time></trkpt><trkpt lat="43.960387698293175" lon="12.74925103376059"><ele>12.0</ele><time>2026-03-22T12:06:29.949Z</time></trkpt><trkpt lat="43.960412853219786" lon="12.749115416682288"><ele>12.0</ele><time>2026-03-22T12:06:30.949Z</time></trkpt><trkpt lat="43.96044680684604" lon="12.749001311841713"><ele>12.0</ele><time>2026-03-22T12:06:31.949Z</time></trkpt><trkpt lat="43.96047999085349" lon="12.748882235235138"><ele>11.833333333333334</ele><time>2026-03-22T12:06:32.95Z</time></trkpt><trkpt lat="43.96051887714746" lon="12.748760119888617"><ele>11.666666666666666</ele><time>2026-03-22T12:06:33.949Z</time></trkpt><trkpt lat="43.960557830621305" lon="12.748653039757668"><ele>11.5</ele><time>2026-03-22T12:06:34.949Z</time></trkpt><trkpt lat="43.960598005885046" lon="12.748542986853765"><ele>11.333333333333332</ele><time>2026-03-22T12:06:35.949Z</time></trkpt><trkpt lat="43.960637040048894" lon="12.74843835430478"><ele>11.166666666666666</ele><time>2026-03-22T12:06:36.95Z</time></trkpt><trkpt lat="43.96067479228943" lon="12.748332962922236"><ele>11.0</ele><time>2026-03-22T12:06:37.95Z</time></trkpt><trkpt lat="43.96072008072168" lon="12.74823798883596"><ele>11.0</ele><time>2026-03-22T12:06:38.95Z</time></trkpt><trkpt lat="43.960756776625296" lon="12.748130401931594"><ele>11.0</ele><time>2026-03-22T12:06:39.95Z</time></trkpt><trkpt lat="43.96079212945061" lon="12.74801413680672"><ele>11.0</ele><time>2026-03-22T12:06:40.95Z</time></trkpt><trkpt lat="43.96082881569278" lon="12.747891272295341"><ele>11.0</ele><time>2026-03-22T12:06:41.95Z</time></trkpt><trkpt lat="43.96087173266403" lon="12.747768854357986"><ele>11.0</ele><time>2026-03-22T12:06:42.95Z</time></trkpt><trkpt lat="43.960919158102875" lon="12.747649173801484"><ele>10.600000000000001</ele><time>2026-03-22T12:06:43.95Z</time></trkpt><trkpt lat="43.9609630407301" lon="12.74752226382388"><ele>10.200000000000001</ele><time>2026-03-22T12:06:44.95Z</time></trkpt><trkpt lat="43.961011556766096" lon="12.7473880361801"><ele>9.8</ele><time>2026-03-22T12:06:45.95Z</time></trkpt><trkpt lat="43.96106260008549" lon="12.747261184298505"><ele>9.4</ele><time>2026-03-22T12:06:46.95Z</time></trkpt><trkpt lat="43.961102311341946" lon="12.747137614188551"><ele>9.0</ele><time>2026-03-22T12:06:47.95Z</time></trkpt><trkpt lat="43.961137040480224" lon="12.747028700364456"><ele>9.0</ele><time>2026-03-22T12:06:48.95Z</time></trkpt><trkpt lat="43.96117343532655" lon="12.746943319100351"><ele>9.0</ele><time>2026-03-22T12:06:49.95Z</time></trkpt><trkpt lat="43.96120391591198" lon="12.746862126339327"><ele>9.0</ele><time>2026-03-22T12:06:50.95Z</time></trkpt><trkpt lat="43.96124337645069" lon="12.746726875178197"><ele>9.0</ele><time>2026-03-22T12:06:52.95Z</time></trkpt><trkpt lat="43.96127705446273" lon="12.74664009356994"><ele>9.0</ele><time>2026-03-22T12:06:54.95Z</time></trkpt><trkpt lat="43.961312072431184" lon="12.74653413193455"><ele>9.0</ele><time>2026-03-22T12:06:57.95Z</time></trkpt><trkpt lat="43.96135593217061" lon="12.746428054786362"><ele>9.333333333333334</ele><time>2026-03-22T12:07:00.95Z</time></trkpt><trkpt lat="43.961398239905805" lon="12.746311821340779"><ele>9.666666666666666</ele><time>2026-03-22T12:07:03.95Z</time></trkpt><trkpt lat="43.96145781596834" lon="12.746217005081943"><ele>10.0</ele><time>2026-03-22T12:07:05.95Z</time></trkpt><trkpt lat="43.961557691606416" lon="12.746274419089755"><ele>10.333333333333332</ele><time>2026-03-22T12:07:07.95Z</time></trkpt><trkpt lat="43.96162543458441" lon="12.746333470405995"><ele>10.666666666666666</ele><time>2026-03-22T12:07:08.95Z</time></trkpt><trkpt lat="43.961692283216614" lon="12.746385511410992"><ele>11.0</ele><time>2026-03-22T12:07:09.95Z</time></trkpt><trkpt lat="43.961757841483944" lon="12.746440035997498"><ele>11.0</ele><time>2026-03-22T12:07:10.95Z</time></trkpt><trkpt lat="43.961835986198956" lon="12.746478663225533"><ele>11.0</ele><time>2026-03-22T12:07:12.95Z</time></trkpt><trkpt lat="43.961924400695956" lon="12.746515610236976"><ele>11.0</ele><time>2026-03-22T12:07:15.95Z</time></trkpt><trkpt lat="43.961996628811214" lon="12.74656854929525"><ele>11.0</ele><time>2026-03-22T12:07:17.95Z</time></trkpt><trkpt lat="43.962086205274865" lon="12.746611758886115"><ele>11.0</ele><time>2026-03-22T12:07:19.95Z</time></trkpt><trkpt lat="43.962175421759724" lon="12.74668102863728"><ele>11.0</ele><time>2026-03-22T12:07:21.95Z</time></trkpt><trkpt lat="43.96227413664382" lon="12.746750790751907"><ele>11.0</ele><time>2026-03-22T12:07:23.95Z</time></trkpt><trkpt lat="43.96234057807253" lon="12.746795190866441"><ele>11.0</ele><time>2026-03-22T12:07:25.95Z</time></trkpt><trkpt lat="43.96240972344099" lon="12.746824893653141"><ele>11.0</ele><time>2026-03-22T12:07:27.95Z</time></trkpt><trkpt lat="43.962566549561366" lon="12.746661268009419"><ele>10.833333333333332</ele><time>2026-03-22T12:07:31.95Z</time></trkpt><trkpt lat="43.96261283092194" lon="12.746589480860946"><ele>10.666666666666666</ele><time>2026-03-22T12:07:32.95Z</time></trkpt><trkpt lat="43.962672974606065" lon="12.74645328697252"><ele>10.5</ele><time>2026-03-22T12:07:34.95Z</time></trkpt><trkpt lat="43.9627443960726" lon="12.746321456860123"><ele>10.333333333333334</ele><time>2026-03-22T12:07:36.95Z</time></trkpt><trkpt lat="43.96278905232218" lon="12.746248555126545"><ele>10.166666666666668</ele><time>2026-03-22T12:07:37.95Z</time></trkpt><trkpt lat="43.962828494037495" lon="12.746175518651068"><ele>10.0</ele><time>2026-03-22T12:07:38.95Z</time></trkpt><trkpt lat="43.96288090774957" lon="12.74609698836581"><ele>9.6</ele><time>2026-03-22T12:07:39.95Z</time></trkpt><trkpt lat="43.96292195550379" lon="12.74600733651466"><ele>9.2</ele><time>2026-03-22T12:07:40.95Z</time></trkpt><trkpt lat="43.96295625791278" lon="12.74592955617285"><ele>8.8</ele><time>2026-03-22T12:07:41.95Z</time></trkpt><trkpt lat="43.963017299784944" lon="12.74580194097704"><ele>8.4</ele><time>2026-03-22T12:07:43.95Z</time></trkpt><trkpt lat="43.96308839565503" lon="12.745646118395705"><ele>8.0</ele><time>2026-03-22T12:07:45.95Z</time></trkpt><trkpt lat="43.96314116508266" lon="12.745561862698153"><ele>7.999999999999999</ele><time>2026-03-22T12:07:46.95Z</time></trkpt><trkpt lat="43.963190701832175" lon="12.745467303477424"><ele>8.0</ele><time>2026-03-22T12:07:47.95Z</time></trkpt><trkpt lat="43.963239066098616" lon="12.745378024335192"><ele>8.0</ele><time>2026-03-22T12:07:48.95Z</time></trkpt><trkpt lat="43.96328355590448" lon="12.745297699468765"><ele>8.0</ele><time>2026-03-22T12:07:49.95Z</time></trkpt><trkpt lat="43.963323904671434" lon="12.74520440474217"><ele>7.999999999999999</ele><time>2026-03-22T12:07:50.95Z</time></trkpt><trkpt lat="43.96336308498328" lon="12.745115207745265"><ele>8.0</ele><time>2026-03-22T12:07:51.95Z</time></trkpt><trkpt lat="43.96340350703608" lon="12.745026421846797"><ele>7.999999999999999</ele><time>2026-03-22T12:07:52.95Z</time></trkpt><trkpt lat="43.963444694690644" lon="12.744942370262505"><ele>8.0</ele><time>2026-03-22T12:07:53.95Z</time></trkpt><trkpt lat="43.96349060546645" lon="12.744852010960718"><ele>8.0</ele><time>2026-03-22T12:07:54.95Z</time></trkpt><trkpt lat="43.963543852020365" lon="12.744762590864115"><ele>8.0</ele><time>2026-03-22T12:07:55.95Z</time></trkpt><trkpt lat="43.96359692395497" lon="12.74467464298251"><ele>7.999999999999999</ele><time>2026-03-22T12:07:56.95Z</time></trkpt><trkpt lat="43.96363955061889" lon="12.744601193717894"><ele>8.0</ele><time>2026-03-22T12:07:57.95Z</time></trkpt><trkpt lat="43.963682998049656" lon="12.744526841953643"><ele>7.999999999999999</ele><time>2026-03-22T12:07:58.95Z</time></trkpt><trkpt lat="43.96371810692235" lon="12.744452702017457"><ele>8.0</ele><time>2026-03-22T12:07:59.95Z</time></trkpt><trkpt lat="43.96375656616917" lon="12.744379233669303"><ele>8.0</ele><time>2026-03-22T12:08:00.95Z</time></trkpt><trkpt lat="43.96380191296799" lon="12.744293664776146"><ele>8.0</ele><time>2026-03-22T12:08:01.951Z</time></trkpt><trkpt lat="43.963880844334994" lon="12.744156121524048"><ele>7.999999999999999</ele><time>2026-03-22T12:08:03.951Z</time></trkpt><trkpt lat="43.96391671660107" lon="12.744081315574357"><ele>8.0</ele><time>2026-03-22T12:08:04.951Z</time></trkpt><trkpt lat="43.963955598052856" lon="12.743994478759824"><ele>8.0</ele><time>2026-03-22T12:08:05.951Z</time></trkpt><trkpt lat="43.96399404671731" lon="12.743920456431995"><ele>7.999999999999999</ele><time>2026-03-22T12:08:06.951Z</time></trkpt><trkpt lat="43.96404087859098" lon="12.743841673930774"><ele>8.0</ele><time>2026-03-22T12:08:07.951Z</time></trkpt><trkpt lat="43.9640742582954" lon="12.743743958353203"><ele>8.0</ele><time>2026-03-22T12:08:09.951Z</time></trkpt><trkpt lat="43.964115877080175" lon="12.74365923727062"><ele>7.999999999999999</ele><time>2026-03-22T12:08:14.951Z</time></trkpt><trkpt lat="43.964174281299115" lon="12.74359170547912"><ele>8.0</ele><time>2026-03-22T12:08:27.951Z</time></trkpt><trkpt lat="43.9642427775875" lon="12.7435688382941"><ele>8.0</ele><time>2026-03-22T12:08:38.95Z</time></trkpt><trkpt lat="43.964323770140815" lon="12.74359187069798"><ele>8.0</ele><time>2026-03-22T12:10:04.95Z</time></trkpt><trkpt lat="43.964400656790275" lon="12.743619915168376"><ele>8.0</ele><time>2026-03-22T12:11:16.95Z</time></trkpt><trkpt lat="43.96424640790505" lon="12.743474129389364"><ele>8.0</ele><time>2026-03-22T12:13:21.512Z</time></trkpt><trkpt lat="43.964378801405324" lon="12.743357597182108"><ele>8.0</ele><time>2026-03-22T12:13:53.927Z</time></trkpt><trkpt lat="43.96446248894851" lon="12.743273948149506"><ele>5.0</ele><time>2026-03-22T12:13:57.097Z</time></trkpt></trkseg><trkseg><trkpt lat="43.96468012778352" lon="12.743978686415126"><ele>7.999999999999999</ele><time>2026-03-22T13:45:12.765Z</time></trkpt><trkpt lat="43.964670888212865" lon="12.744100194609713"><ele>8.0</ele><time>2026-03-22T13:46:21Z</time></trkpt><trkpt lat="43.96459600601741" lon="12.744102571147046"><ele>8.0</ele><time>2026-03-22T13:46:43Z</time></trkpt><trkpt lat="43.964601050167865" lon="12.744003246652754"><ele>8.0</ele><time>2026-03-22T13:46:51Z</time></trkpt><trkpt lat="43.96470159615594" lon="12.74399664614897"><ele>7.999999999999999</ele><time>2026-03-22T13:47:26Z</time></trkpt><trkpt lat="43.964750193202065" lon="12.744054054314477"><ele>8.0</ele><time>2026-03-22T13:47:30Z</time></trkpt><trkpt lat="43.964819044717174" lon="12.744113461733876"><ele>7.999999999999999</ele><time>2026-03-22T13:47:34Z</time></trkpt><trkpt lat="43.96487163295982" lon="12.744172387617962"><ele>8.0</ele><time>2026-03-22T13:47:38Z</time></trkpt><trkpt lat="43.964987133932006" lon="12.744286744911959"><ele>8.0</ele><time>2026-03-22T13:47:55Z</time></trkpt><trkpt lat="43.965042185871475" lon="12.744350151283891"><ele>8.0</ele><time>2026-03-22T13:47:56Z</time></trkpt><trkpt lat="43.965105464939334" lon="12.744412480981097"><ele>7.999999999999999</ele><time>2026-03-22T13:47:57Z</time></trkpt><trkpt lat="43.96517044933909" lon="12.744500326452318"><ele>8.0</ele><time>2026-03-22T13:47:59Z</time></trkpt><trkpt lat="43.96523907125532" lon="12.744580974419724"><ele>7.5</ele><time>2026-03-22T13:48:01Z</time></trkpt><trkpt lat="43.9653198545914" lon="12.744679555648066"><ele>7.0</ele><time>2026-03-22T13:48:03Z</time></trkpt><trkpt lat="43.96539627820186" lon="12.744777338117716"><ele>6.5</ele><time>2026-03-22T13:48:05Z</time></trkpt><trkpt lat="43.96549936542965" lon="12.744875219414984"><ele>6.0</ele><time>2026-03-22T13:48:07Z</time></trkpt><trkpt lat="43.965593166584284" lon="12.744964409430045"><ele>6.0</ele><time>2026-03-22T13:48:09Z</time></trkpt><trkpt lat="43.965688585320464" lon="12.745084083608456"><ele>6.0</ele><time>2026-03-22T13:48:11Z</time></trkpt><trkpt lat="43.965787476915466" lon="12.745174702313236"><ele>6.0</ele><time>2026-03-22T13:48:13Z</time></trkpt><trkpt lat="43.96585840748044" lon="12.745278833806964"><ele>6.0</ele><time>2026-03-22T13:48:15Z</time></trkpt><trkpt lat="43.96594180711439" lon="12.745364376173846"><ele>6.5</ele><time>2026-03-22T13:48:17Z</time></trkpt><trkpt lat="43.96599534017867" lon="12.745422161620514"><ele>7.0</ele><time>2026-03-22T13:48:19Z</time></trkpt><trkpt lat="43.966054013485895" lon="12.745492809642187"><ele>7.5</ele><time>2026-03-22T13:48:21Z</time></trkpt><trkpt lat="43.96611675068389" lon="12.745561022217874"><ele>8.0</ele><time>2026-03-22T13:48:23Z</time></trkpt><trkpt lat="43.96617706388706" lon="12.745616613389886"><ele>8.5</ele><time>2026-03-22T13:48:26Z</time></trkpt><trkpt lat="43.96620137888139" lon="12.745715674472939"><ele>9.0</ele><time>2026-03-22T13:48:39Z</time></trkpt><trkpt lat="43.966154146602115" lon="12.745829032579525"><ele>9.0</ele><time>2026-03-22T13:48:41Z</time></trkpt><trkpt lat="43.966096837968685" lon="12.745924226910125"><ele>9.0</ele><time>2026-03-22T13:48:43Z</time></trkpt><trkpt lat="43.96606854396849" lon="12.746005663993053"><ele>9.0</ele><time>2026-03-22T13:48:45Z</time></trkpt><trkpt lat="43.96602600925349" lon="12.74610213019335"><ele>9.0</ele><time>2026-03-22T13:48:49Z</time></trkpt><trkpt lat="43.96593489935306" lon="12.746078437492177"><ele>9.0</ele><time>2026-03-22T13:48:52Z</time></trkpt><trkpt lat="43.96585465026237" lon="12.745986083375877"><ele>9.0</ele><time>2026-03-22T13:48:54Z</time></trkpt><trkpt lat="43.96579689506211" lon="12.745938398762895"><ele>8.833333333333334</ele><time>2026-03-22T13:48:55Z</time></trkpt><trkpt lat="43.96574364127544" lon="12.74588476760068"><ele>8.666666666666666</ele><time>2026-03-22T13:48:56Z</time></trkpt><trkpt lat="43.96566576607233" lon="12.745878355346951"><ele>8.5</ele><time>2026-03-22T13:48:57Z</time></trkpt><trkpt lat="43.96561280725384" lon="12.745820056542938"><ele>8.333333333333332</ele><time>2026-03-22T13:48:58Z</time></trkpt><trkpt lat="43.96557218888038" lon="12.745710339045154"><ele>8.166666666666666</ele><time>2026-03-22T13:48:59Z</time></trkpt><trkpt lat="43.965503258774554" lon="12.745652966180952"><ele>8.0</ele><time>2026-03-22T13:49:00Z</time></trkpt><trkpt lat="43.96543507166618" lon="12.745589903708082"><ele>7.999999999999999</ele><time>2026-03-22T13:49:01Z</time></trkpt><trkpt lat="43.96537326635015" lon="12.745519638392311"><ele>8.0</ele><time>2026-03-22T13:49:02Z</time></trkpt><trkpt lat="43.9653037920004" lon="12.745458075370522"><ele>8.0</ele><time>2026-03-22T13:49:03Z</time></trkpt><trkpt lat="43.96524192641446" lon="12.74539606497072"><ele>8.0</ele><time>2026-03-22T13:49:04Z</time></trkpt><trkpt lat="43.96517949210966" lon="12.74532702470259"><ele>7.999999999999999</ele><time>2026-03-22T13:49:05Z</time></trkpt><trkpt lat="43.965120771643186" lon="12.745253437221631"><ele>8.0</ele><time>2026-03-22T13:49:06Z</time></trkpt><trkpt lat="43.96505055126634" lon="12.74519062465222"><ele>8.142857142857142</ele><time>2026-03-22T13:49:07Z</time></trkpt><trkpt lat="43.96498655819586" lon="12.745127226672322"><ele>8.285714285714285</ele><time>2026-03-22T13:49:08Z</time></trkpt><trkpt lat="43.964920879203376" lon="12.74507026948873"><ele>8.428571428571429</ele><time>2026-03-22T13:49:09Z</time></trkpt><trkpt lat="43.96486236491658" lon="12.745009709095404"><ele>8.571428571428571</ele><time>2026-03-22T13:49:10Z</time></trkpt><trkpt lat="43.96480135518818" lon="12.744936476225773"><ele>8.714285714285715</ele><time>2026-03-22T13:49:11Z</time></trkpt><trkpt lat="43.96474857620367" lon="12.744876215152614"><ele>8.857142857142858</ele><time>2026-03-22T13:49:12Z</time></trkpt><trkpt lat="43.96469575100254" lon="12.74482624800589"><ele>9.0</ele><time>2026-03-22T13:49:13Z</time></trkpt><trkpt lat="43.96463190541548" lon="12.744765026395218"><ele>9.0</ele><time>2026-03-22T13:49:15Z</time></trkpt><trkpt lat="43.96457432735539" lon="12.74470405274256"><ele>9.0</ele><time>2026-03-22T13:49:17Z</time></trkpt><trkpt lat="43.964488598524106" lon="12.744625714780264"><ele>9.0</ele><time>2026-03-22T13:49:19Z</time></trkpt><trkpt lat="43.96440461457652" lon="12.744528582835768"><ele>9.0</ele><time>2026-03-22T13:49:21Z</time></trkpt><trkpt lat="43.96432151418616" lon="12.744440007730272"><ele>9.0</ele><time>2026-03-22T13:49:23Z</time></trkpt><trkpt lat="43.964275552837634" lon="12.744379104411115"><ele>9.0</ele><time>2026-03-22T13:49:24Z</time></trkpt><trkpt lat="43.96418769258293" lon="12.744278729835683"><ele>9.0</ele><time>2026-03-22T13:49:26Z</time></trkpt><trkpt lat="43.96412620746512" lon="12.744197524873337"><ele>9.0</ele><time>2026-03-22T13:49:28Z</time></trkpt><trkpt lat="43.964060588378814" lon="12.744146018186765"><ele>9.0</ele><time>2026-03-22T13:49:30Z</time></trkpt><trkpt lat="43.9639981202667" lon="12.744060732337717"><ele>9.0</ele><time>2026-03-22T13:49:33Z</time></trkpt><trkpt lat="43.96399716058147" lon="12.743941854209886"><ele>9.0</ele><time>2026-03-22T13:49:37Z</time></trkpt><trkpt lat="43.964040290679236" lon="12.743838098518617"><ele>9.0</ele><time>2026-03-22T13:49:39Z</time></trkpt><trkpt lat="43.964092122380016" lon="12.743746900478149"><ele>9.0</ele><time>2026-03-22T13:49:41Z</time></trkpt><trkpt lat="43.96412091651634" lon="12.743662230564292"><ele>9.0</ele><time>2026-03-22T13:49:43Z</time></trkpt><trkpt lat="43.96415143808377" lon="12.743573381679212"><ele>9.0</ele><time>2026-03-22T13:49:46Z</time></trkpt><trkpt lat="43.96419677421573" lon="12.743462040173414"><ele>9.0</ele><time>2026-03-22T13:49:51Z</time></trkpt><trkpt lat="43.964245586504255" lon="12.743374831121729"><ele>9.0</ele><time>2026-03-22T13:49:56Z</time></trkpt><trkpt lat="43.96429061890447" lon="12.743290137036082"><ele>8.2</ele><time>2026-03-22T13:50:00Z</time></trkpt><trkpt lat="43.964323133968186" lon="12.74320015614561"><ele>7.4</ele><time>2026-03-22T13:50:04Z</time></trkpt><trkpt lat="43.96441569081718" lon="12.743036601391612"><ele>6.6</ele><time>2026-03-22T13:54:26Z</time></trkpt><trkpt lat="43.96445727994014" lon="12.742949142435291"><ele>5.8</ele><time>2026-03-22T13:54:29Z</time></trkpt><trkpt lat="43.96449527893853" lon="12.742860752508083"><ele>5.0</ele><time>2026-03-22T13:54:32Z</time></trkpt><trkpt lat="43.96454798346671" lon="12.742773720888794"><ele>5.0</ele><time>2026-03-22T13:54:35Z</time></trkpt><trkpt lat="43.96459161008068" lon="12.742703285262992"><ele>5.0</ele><time>2026-03-22T13:54:38Z</time></trkpt><trkpt lat="43.96464455571988" lon="12.742771723368392"><ele>5.0</ele><time>2026-03-22T13:54:41Z</time></trkpt><trkpt lat="43.96471914877316" lon="12.742856818263332"><ele>5.0</ele><time>2026-03-22T13:54:43Z</time></trkpt><trkpt lat="43.96476870691486" lon="12.742923191090613"><ele>5.0</ele><time>2026-03-22T13:54:45Z</time></trkpt><trkpt lat="43.96481437853982" lon="12.743022125535683"><ele>5.0</ele><time>2026-03-22T13:54:47Z</time></trkpt><trkpt lat="43.96487094508725" lon="12.743070567615646"><ele>5.0</ele><time>2026-03-22T13:54:48Z</time></trkpt><trkpt lat="43.96494856463943" lon="12.743175392466583"><ele>5.0</ele><time>2026-03-22T13:54:50Z</time></trkpt><trkpt lat="43.96501395713062" lon="12.743266210708029"><ele>5.0</ele><time>2026-03-22T13:54:52Z</time></trkpt><trkpt lat="43.96507458312756" lon="12.743370062247434"><ele>5.0</ele><time>2026-03-22T13:54:54Z</time></trkpt><trkpt lat="43.9651563166754" lon="12.743433719041786"><ele>5.0</ele><time>2026-03-22T13:54:56Z</time></trkpt><trkpt lat="43.96520770208223" lon="12.743544292070233"><ele>5.0</ele><time>2026-03-22T13:54:58Z</time></trkpt><trkpt lat="43.96529195018183" lon="12.74365529941195"><ele>5.0</ele><time>2026-03-22T13:55:00Z</time></trkpt><trkpt lat="43.965350334765525" lon="12.743774975082914"><ele>5.0</ele><time>2026-03-22T13:55:02Z</time></trkpt><trkpt lat="43.96540335220525" lon="12.743882254876183"><ele>5.0</ele><time>2026-03-22T13:55:04Z</time></trkpt><trkpt lat="43.96543930735956" lon="12.743958773245573"><ele>5.0</ele><time>2026-03-22T13:55:06Z</time></trkpt><trkpt lat="43.965484299479364" lon="12.744039883176232"><ele>5.0</ele><time>2026-03-22T13:55:11Z</time></trkpt><trkpt lat="43.96552567450754" lon="12.74413368452799"><ele>5.0</ele><time>2026-03-22T13:55:20Z</time></trkpt><trkpt lat="43.96558830973995" lon="12.744197789166762"><ele>5.0</ele><time>2026-03-22T13:55:22Z</time></trkpt><trkpt lat="43.9656870737042" lon="12.7442936688632"><ele>5.0</ele><time>2026-03-22T13:55:24Z</time></trkpt><trkpt lat="43.965722207224964" lon="12.74437486740608"><ele>5.0</ele><time>2026-03-22T13:55:25Z</time></trkpt><trkpt lat="43.96569718954563" lon="12.744497256977267"><ele>5.0</ele><time>2026-03-22T13:55:26Z</time></trkpt><trkpt lat="43.96573325908922" lon="12.744584754943249"><ele>5.166666666666667</ele><time>2026-03-22T13:55:27Z</time></trkpt><trkpt lat="43.9657703386579" lon="12.74467470297394"><ele>5.333333333333334</ele><time>2026-03-22T13:55:28Z</time></trkpt><trkpt lat="43.96580683011057" lon="12.74476322438191"><ele>5.5</ele><time>2026-03-22T13:55:29Z</time></trkpt><trkpt lat="43.96588176194433" lon="12.744837660476549"><ele>5.666666666666667</ele><time>2026-03-22T13:55:30Z</time></trkpt><trkpt lat="43.965925850004204" lon="12.74494199637085"><ele>5.833333333333333</ele><time>2026-03-22T13:55:31Z</time></trkpt><trkpt lat="43.965963796126786" lon="12.745040690297667"><ele>6.0</ele><time>2026-03-22T13:55:32Z</time></trkpt><trkpt lat="43.965994309321104" lon="12.745128449223676"><ele>6.333333333333333</ele><time>2026-03-22T13:55:33Z</time></trkpt><trkpt lat="43.96603172058483" lon="12.74520555766053"><ele>6.666666666666666</ele><time>2026-03-22T13:55:34Z</time></trkpt><trkpt lat="43.966092926208034" lon="12.745334503789875"><ele>7.0</ele><time>2026-03-22T13:55:36Z</time></trkpt><trkpt lat="43.966111568347316" lon="12.745443085103796"><ele>7.333333333333333</ele><time>2026-03-22T13:55:38Z</time></trkpt><trkpt lat="43.966184254819694" lon="12.745551312856387"><ele>7.666666666666666</ele><time>2026-03-22T13:55:40Z</time></trkpt><trkpt lat="43.96623097312302" lon="12.74563808373416"><ele>8.0</ele><time>2026-03-22T13:55:42Z</time></trkpt><trkpt lat="43.96622060691476" lon="12.745741115431047"><ele>7.999999999999999</ele><time>2026-03-22T13:55:45Z</time></trkpt><trkpt lat="43.96616505059787" lon="12.745841360105493"><ele>8.0</ele><time>2026-03-22T13:55:47Z</time></trkpt><trkpt lat="43.96611771143384" lon="12.745926879156421"><ele>8.0</ele><time>2026-03-22T13:55:50Z</time></trkpt><trkpt lat="43.96607457942041" lon="12.746034326102611"><ele>8.0</ele><time>2026-03-22T13:55:53Z</time></trkpt><trkpt lat="43.966027395765195" lon="12.746098074602143"><ele>7.999999999999999</ele><time>2026-03-22T13:55:55Z</time></trkpt><trkpt lat="43.965937687843216" lon="12.746051162700887"><ele>8.0</ele><time>2026-03-22T13:55:58Z</time></trkpt><trkpt lat="43.965838263065955" lon="12.74595871744133"><ele>8.0</ele><time>2026-03-22T13:56:00Z</time></trkpt><trkpt lat="43.96569633003062" lon="12.74591200107259"><ele>8.0</ele><time>2026-03-22T13:56:02Z</time></trkpt><trkpt lat="43.96563146175312" lon="12.745840592105088"><ele>8.0</ele><time>2026-03-22T13:56:03Z</time></trkpt><trkpt lat="43.96559250493872" lon="12.745709498775112"><ele>8.0</ele><time>2026-03-22T13:56:04Z</time></trkpt><trkpt lat="43.96551825896534" lon="12.745643354484395"><ele>8.0</ele><time>2026-03-22T13:56:05Z</time></trkpt><trkpt lat="43.9654509661433" lon="12.745567271654787"><ele>7.999999999999999</ele><time>2026-03-22T13:56:06Z</time></trkpt><trkpt lat="43.965376120496416" lon="12.745499759249222"><ele>8.0</ele><time>2026-03-22T13:56:07Z</time></trkpt><trkpt lat="43.965316499756064" lon="12.745431910858558"><ele>8.0</ele><time>2026-03-22T13:56:08Z</time></trkpt><trkpt lat="43.96525275332935" lon="12.745361631455914"><ele>8.0</ele><time>2026-03-22T13:56:09Z</time></trkpt><trkpt lat="43.96518219959375" lon="12.745286340648494"><ele>7.999999999999999</ele><time>2026-03-22T13:56:10Z</time></trkpt><trkpt lat="43.96512346916597" lon="12.745230140775263"><ele>8.0</ele><time>2026-03-22T13:56:11Z</time></trkpt><trkpt lat="43.96505593193456" lon="12.745167856019384"><ele>8.166666666666666</ele><time>2026-03-22T13:56:12Z</time></trkpt><trkpt lat="43.96499575226914" lon="12.745099599796157"><ele>8.333333333333332</ele><time>2026-03-22T13:56:13Z</time></trkpt><trkpt lat="43.964935497070314" lon="12.745041000914338"><ele>8.5</ele><time>2026-03-22T13:56:14Z</time></trkpt><trkpt lat="43.96486832614776" lon="12.744983103798171"><ele>8.666666666666666</ele><time>2026-03-22T13:56:15Z</time></trkpt><trkpt lat="43.96480164943786" lon="12.744925678743753"><ele>8.833333333333334</ele><time>2026-03-22T13:56:16Z</time></trkpt><trkpt lat="43.96474939257143" lon="12.744871114867763"><ele>9.0</ele><time>2026-03-22T13:56:17Z</time></trkpt><trkpt lat="43.964650824909235" lon="12.744779945096763"><ele>9.0</ele><time>2026-03-22T13:56:19Z</time></trkpt><trkpt lat="43.96459806220685" lon="12.744729192883918"><ele>9.0</ele><time>2026-03-22T13:56:20Z</time></trkpt><trkpt lat="43.964494583822116" lon="12.744633588954622"><ele>9.0</ele><time>2026-03-22T13:56:22Z</time></trkpt><trkpt lat="43.96439790975379" lon="12.744530647594239"><ele>9.0</ele><time>2026-03-22T13:56:24Z</time></trkpt><trkpt lat="43.964305903264936" lon="12.744441730106663"><ele>9.0</ele><time>2026-03-22T13:56:26Z</time></trkpt><trkpt lat="43.964241241818215" lon="12.744347889386306"><ele>9.0</ele><time>2026-03-22T13:56:28Z</time></trkpt><trkpt lat="43.9641657563986" lon="12.744269926830395"><ele>9.0</ele><time>2026-03-22T13:56:30Z</time></trkpt><trkpt lat="43.964111310713754" lon="12.744205509043987"><ele>9.0</ele><time>2026-03-22T13:56:32Z</time></trkpt><trkpt lat="43.964051001341645" lon="12.744165481878609"><ele>9.0</ele><time>2026-03-22T13:56:35Z</time></trkpt><trkpt lat="43.963994864047834" lon="12.744090611007058"><ele>9.0</ele><time>2026-03-22T13:56:38Z</time></trkpt><trkpt lat="43.963925649749136" lon="12.744003978252659"><ele>9.0</ele><time>2026-03-22T13:56:42Z</time></trkpt><trkpt lat="43.963830188675686" lon="12.743925653616122"><ele>9.0</ele><time>2026-03-22T13:56:44Z</time></trkpt><trkpt lat="43.96377487652953" lon="12.743882795786426"><ele>9.0</ele><time>2026-03-22T13:56:45Z</time></trkpt><trkpt lat="43.96373067851001" lon="12.743769442252892"><ele>9.0</ele><time>2026-03-22T13:56:47.001Z</time></trkpt><trkpt lat="43.9636954943323" lon="12.74369413946402"><ele>9.0</ele><time>2026-03-22T13:56:50.001Z</time></trkpt><trkpt lat="43.96367890053004" lon="12.74358808010334"><ele>9.0</ele><time>2026-03-22T13:56:51.001Z</time></trkpt><trkpt lat="43.96374976396508" lon="12.743439082566947"><ele>9.0</ele><time>2026-03-22T13:56:53.001Z</time></trkpt><trkpt lat="43.963799649585496" lon="12.743348285402337"><ele>8.8</ele><time>2026-03-22T13:56:55.001Z</time></trkpt><trkpt lat="43.963843070643016" lon="12.74326925471992"><ele>8.600000000000001</ele><time>2026-03-22T13:56:57.001Z</time></trkpt><trkpt lat="43.96377821927162" lon="12.743153079480429"><ele>8.4</ele><time>2026-03-22T13:57:00.001Z</time></trkpt><trkpt lat="43.9637289134351" lon="12.743090994475729"><ele>8.200000000000001</ele><time>2026-03-22T13:57:01.001Z</time></trkpt><trkpt lat="43.96364497038174" lon="12.743000492818474"><ele>8.0</ele><time>2026-03-22T13:57:03.001Z</time></trkpt><trkpt lat="43.96355280047824" lon="12.74289350878331"><ele>7.999999999999999</ele><time>2026-03-22T13:57:05.001Z</time></trkpt><trkpt lat="43.96350022811628" lon="12.742832537059051"><ele>8.0</ele><time>2026-03-22T13:57:06.001Z</time></trkpt><trkpt lat="43.96341517628338" lon="12.742757859825856"><ele>8.0</ele><time>2026-03-22T13:57:08.001Z</time></trkpt><trkpt lat="43.96335544202589" lon="12.742689107138718"><ele>8.0</ele><time>2026-03-22T13:57:10.001Z</time></trkpt><trkpt lat="43.96329280126863" lon="12.742611113403216"><ele>7.999999999999999</ele><time>2026-03-22T13:57:13.001Z</time></trkpt><trkpt lat="43.96322494512798" lon="12.742551810390268"><ele>8.0</ele><time>2026-03-22T13:57:15.001Z</time></trkpt><trkpt lat="43.96311420467942" lon="12.742597142427064"><ele>8.600000000000001</ele><time>2026-03-22T13:57:19.001Z</time></trkpt><trkpt lat="43.963034816451355" lon="12.742691424507365"><ele>9.200000000000001</ele><time>2026-03-22T13:57:21.001Z</time></trkpt><trkpt lat="43.96297212841505" lon="12.742820586089664"><ele>9.8</ele><time>2026-03-22T13:57:23.001Z</time></trkpt><trkpt lat="43.96290917627467" lon="12.742945266963313"><ele>10.4</ele><time>2026-03-22T13:57:25.001Z</time></trkpt><trkpt lat="43.96286011477797" lon="12.743039839684275"><ele>11.0</ele><time>2026-03-22T13:57:27.001Z</time></trkpt><trkpt lat="43.96279975274308" lon="12.743113677588417"><ele>11.0</ele><time>2026-03-22T13:57:29.001Z</time></trkpt><trkpt lat="43.96274779261602" lon="12.743190749906686"><ele>11.0</ele><time>2026-03-22T13:57:31.001Z</time></trkpt><trkpt lat="43.96270859495937" lon="12.743279485057721"><ele>11.0</ele><time>2026-03-22T13:57:33.001Z</time></trkpt><trkpt lat="43.962664043125436" lon="12.743352491887912"><ele>11.0</ele><time>2026-03-22T13:57:35.001Z</time></trkpt><trkpt lat="43.96259924518346" lon="12.743297349569687"><ele>11.0</ele><time>2026-03-22T13:57:38.001Z</time></trkpt><trkpt lat="43.96262008112282" lon="12.743122221098256"><ele>11.0</ele><time>2026-03-22T13:57:40.001Z</time></trkpt><trkpt lat="43.96264424210254" lon="12.743012277774382"><ele>11.0</ele><time>2026-03-22T13:57:41.001Z</time></trkpt><trkpt lat="43.962670935555735" lon="12.742868867056771"><ele>11.0</ele><time>2026-03-22T13:57:42.001Z</time></trkpt><trkpt lat="43.96270095585312" lon="12.742699543136123"><ele>11.0</ele><time>2026-03-22T13:57:43.001Z</time></trkpt><trkpt lat="43.962728658025675" lon="12.742504916676761"><ele>11.0</ele><time>2026-03-22T13:57:44.001Z</time></trkpt><trkpt lat="43.962745608174565" lon="12.742339391385748"><ele>11.0</ele><time>2026-03-22T13:57:45.001Z</time></trkpt><trkpt lat="43.962767778906866" lon="12.742195702548527"><ele>11.0</ele><time>2026-03-22T13:57:46.001Z</time></trkpt><trkpt lat="43.96278363731323" lon="12.742066574941893"><ele>11.0</ele><time>2026-03-22T13:57:47.001Z</time></trkpt><trkpt lat="43.962799751487424" lon="12.741955120871179"><ele>11.0</ele><time>2026-03-22T13:57:48.001Z</time></trkpt><trkpt lat="43.96282055188797" lon="12.741863957786288"><ele>11.0</ele><time>2026-03-22T13:57:49.001Z</time></trkpt><trkpt lat="43.962840944992905" lon="12.741766425025526"><ele>11.0</ele><time>2026-03-22T13:57:50.001Z</time></trkpt><trkpt lat="43.96285869689516" lon="12.741674526342468"><ele>10.600000000000001</ele><time>2026-03-22T13:57:51.001Z</time></trkpt><trkpt lat="43.9628691093503" lon="12.74158720348042"><ele>10.200000000000001</ele><time>2026-03-22T13:57:52.001Z</time></trkpt><trkpt lat="43.96288495974014" lon="12.74142977021347"><ele>9.8</ele><time>2026-03-22T13:57:54.001Z</time></trkpt><trkpt lat="43.962908214372426" lon="12.741272918143833"><ele>9.4</ele><time>2026-03-22T13:57:56.001Z</time></trkpt><trkpt lat="43.962936027618156" lon="12.741101795736308"><ele>9.0</ele><time>2026-03-22T13:57:58.001Z</time></trkpt><trkpt lat="43.96295521298918" lon="12.740999016278646"><ele>8.4</ele><time>2026-03-22T13:57:59.001Z</time></trkpt><trkpt lat="43.96297427349717" lon="12.74088522287006"><ele>7.800000000000001</ele><time>2026-03-22T13:58:00.001Z</time></trkpt><trkpt lat="43.96299866943981" lon="12.740767392445832"><ele>7.199999999999999</ele><time>2026-03-22T13:58:01.001Z</time></trkpt><trkpt lat="43.963024248548685" lon="12.740659272486974"><ele>6.6</ele><time>2026-03-22T13:58:02.001Z</time></trkpt><trkpt lat="43.96303421641024" lon="12.740558626481628"><ele>6.0</ele><time>2026-03-22T13:58:03.001Z</time></trkpt><trkpt lat="43.96307593272494" lon="12.74039814494519"><ele>6.0</ele><time>2026-03-22T13:58:05.001Z</time></trkpt><trkpt lat="43.96309846552072" lon="12.740292755497965"><ele>6.0</ele><time>2026-03-22T13:58:06.001Z</time></trkpt><trkpt lat="43.963119033886784" lon="12.740179255461213"><ele>6.0</ele><time>2026-03-22T13:58:07.001Z</time></trkpt><trkpt lat="43.96313188467487" lon="12.740037791213886"><ele>6.0</ele><time>2026-03-22T13:58:08.001Z</time></trkpt><trkpt lat="43.96315800722181" lon="12.739876568269787"><ele>6.0</ele><time>2026-03-22T13:58:09.001Z</time></trkpt><trkpt lat="43.96318173680077" lon="12.739751332602863"><ele>6.0</ele><time>2026-03-22T13:58:10.001Z</time></trkpt><trkpt lat="43.96319000566993" lon="12.739614862593399"><ele>6.0</ele><time>2026-03-22T13:58:11.001Z</time></trkpt><trkpt lat="43.963191410302144" lon="12.739490730566116"><ele>6.0</ele><time>2026-03-22T13:58:12.001Z</time></trkpt><trkpt lat="43.963213347445425" lon="12.739377149827027"><ele>6.0</ele><time>2026-03-22T13:58:13.001Z</time></trkpt><trkpt lat="43.96323594021787" lon="12.739262519888525"><ele>6.0</ele><time>2026-03-22T13:58:14.001Z</time></trkpt><trkpt lat="43.963253834677246" lon="12.739153205441287"><ele>6.0</ele><time>2026-03-22T13:58:15.001Z</time></trkpt><trkpt lat="43.96327204022251" lon="12.73900789806614"><ele>6.0</ele><time>2026-03-22T13:58:17.001Z</time></trkpt><trkpt lat="43.96328899492299" lon="12.738900610984704"><ele>6.0</ele><time>2026-03-22T13:58:20.001Z</time></trkpt><trkpt lat="43.963318578947906" lon="12.738784412222804"><ele>6.0</ele><time>2026-03-22T13:58:25.001Z</time></trkpt><trkpt lat="43.963353382759735" lon="12.73868619559577"><ele>6.0</ele><time>2026-03-22T13:58:27.001Z</time></trkpt><trkpt lat="43.96341649489923" lon="12.738603798579465"><ele>6.0</ele><time>2026-03-22T13:58:29.001Z</time></trkpt><trkpt lat="43.96350456736837" lon="12.738518706585081"><ele>6.0</ele><time>2026-03-22T13:58:31.001Z</time></trkpt><trkpt lat="43.963507036524426" lon="12.7383458572087"><ele>6.0</ele><time>2026-03-22T13:58:33.001Z</time></trkpt><trkpt lat="43.96348418009559" lon="12.738215406655927"><ele>6.0</ele><time>2026-03-22T13:58:34.001Z</time></trkpt><trkpt lat="43.96347265793552" lon="12.738076478007486"><ele>6.0</ele><time>2026-03-22T13:58:35.001Z</time></trkpt><trkpt lat="43.96347825351989" lon="12.73792456109893"><ele>6.0</ele><time>2026-03-22T13:58:36.001Z</time></trkpt><trkpt lat="43.96348071965126" lon="12.737787558219386"><ele>6.0</ele><time>2026-03-22T13:58:37.001Z</time></trkpt><trkpt lat="43.96346435337408" lon="12.737660253860534"><ele>5.833333333333333</ele><time>2026-03-22T13:58:38.001Z</time></trkpt><trkpt lat="43.963442492957654" lon="12.737549705218603"><ele>5.666666666666667</ele><time>2026-03-22T13:58:39.001Z</time></trkpt><trkpt lat="43.963403923524304" lon="12.737437859087155"><ele>5.5</ele><time>2026-03-22T13:58:40.001Z</time></trkpt><trkpt lat="43.96334943767708" lon="12.73733792357152"><ele>5.333333333333334</ele><time>2026-03-22T13:58:41.001Z</time></trkpt><trkpt lat="43.963292649582705" lon="12.737250898482248"><ele>5.166666666666667</ele><time>2026-03-22T13:58:42.001Z</time></trkpt><trkpt lat="43.96324344384902" lon="12.737160112984453"><ele>5.0</ele><time>2026-03-22T13:58:43.001Z</time></trkpt><trkpt lat="43.963212605191345" lon="12.737066060967766"><ele>5.0</ele><time>2026-03-22T13:58:44.001Z</time></trkpt><trkpt lat="43.96318400237655" lon="12.73694877521107"><ele>5.0</ele><time>2026-03-22T13:58:45.001Z</time></trkpt><trkpt lat="43.963159899321575" lon="12.736822675865705"><ele>5.0</ele><time>2026-03-22T13:58:46.001Z</time></trkpt><trkpt lat="43.963146457380184" lon="12.736692048808766"><ele>5.0</ele><time>2026-03-22T13:58:47.001Z</time></trkpt><trkpt lat="43.963147547548225" lon="12.736551920276177"><ele>5.0</ele><time>2026-03-22T13:58:48.001Z</time></trkpt><trkpt lat="43.96316219080948" lon="12.73640132801286"><ele>4.75</ele><time>2026-03-22T13:58:49.001Z</time></trkpt><trkpt lat="43.963192341548194" lon="12.736247242941827"><ele>4.5</ele><time>2026-03-22T13:58:50.001Z</time></trkpt><trkpt lat="43.96322870415781" lon="12.736090369685968"><ele>4.25</ele><time>2026-03-22T13:58:51.001Z</time></trkpt><trkpt lat="43.96326316396408" lon="12.735939387545134"><ele>4.0</ele><time>2026-03-22T13:58:52.001Z</time></trkpt><trkpt lat="43.96329881317595" lon="12.735789121166246"><ele>4.0</ele><time>2026-03-22T13:58:53.001Z</time></trkpt><trkpt lat="43.96332719522655" lon="12.735651555578047"><ele>4.0</ele><time>2026-03-22T13:58:54.001Z</time></trkpt><trkpt lat="43.96334696080191" lon="12.735511098970168"><ele>4.0</ele><time>2026-03-22T13:58:55.001Z</time></trkpt><trkpt lat="43.96336675986181" lon="12.7353700636665"><ele>4.0</ele><time>2026-03-22T13:58:56.001Z</time></trkpt><trkpt lat="43.96337694787017" lon="12.735236010109656"><ele>4.0</ele><time>2026-03-22T13:58:57.001Z</time></trkpt><trkpt lat="43.963383555607194" lon="12.7351109350751"><ele>4.166666666666666</ele><time>2026-03-22T13:58:58.001Z</time></trkpt><trkpt lat="43.963379318935324" lon="12.734989756674942"><ele>4.333333333333333</ele><time>2026-03-22T13:58:59.001Z</time></trkpt><trkpt lat="43.96337057280734" lon="12.734882967870124"><ele>4.5</ele><time>2026-03-22T13:59:00.001Z</time></trkpt><trkpt lat="43.96336469852015" lon="12.73476705938974"><ele>4.666666666666667</ele><time>2026-03-22T13:59:01.001Z</time></trkpt><trkpt lat="43.963362338210565" lon="12.734661492379587"><ele>4.833333333333334</ele><time>2026-03-22T13:59:02.001Z</time></trkpt><trkpt lat="43.963359131278594" lon="12.734567876826386"><ele>5.0</ele><time>2026-03-22T13:59:03.001Z</time></trkpt><trkpt lat="43.96334388881079" lon="12.734404476498785"><ele>5.0</ele><time>2026-03-22T13:59:05.001Z</time></trkpt><trkpt lat="43.963343077324865" lon="12.734314349047535"><ele>5.0</ele><time>2026-03-22T13:59:06.001Z</time></trkpt><trkpt lat="43.963338297145015" lon="12.734215525241517"><ele>5.0</ele><time>2026-03-22T13:59:07.001Z</time></trkpt><trkpt lat="43.96333148208925" lon="12.734074699605236"><ele>5.0</ele><time>2026-03-22T13:59:08.001Z</time></trkpt><trkpt lat="43.96332572755955" lon="12.733930513309469"><ele>5.0</ele><time>2026-03-22T13:59:09.001Z</time></trkpt><trkpt lat="43.96331715649473" lon="12.733767077818996"><ele>5.0</ele><time>2026-03-22T13:59:10.001Z</time></trkpt><trkpt lat="43.9633164173611" lon="12.733593363769765"><ele>5.0</ele><time>2026-03-22T13:59:11.001Z</time></trkpt><trkpt lat="43.96331434023511" lon="12.733406295659647"><ele>5.0</ele><time>2026-03-22T13:59:12.001Z</time></trkpt><trkpt lat="43.96330240815271" lon="12.733236651366147"><ele>5.0</ele><time>2026-03-22T13:59:13.001Z</time></trkpt><trkpt lat="43.96329120999427" lon="12.733083073290969"><ele>5.0</ele><time>2026-03-22T13:59:14.001Z</time></trkpt><trkpt lat="43.96328454440396" lon="12.732946341881613"><ele>5.0</ele><time>2026-03-22T13:59:15.001Z</time></trkpt><trkpt lat="43.963281513932635" lon="12.732819133424963"><ele>5.0</ele><time>2026-03-22T13:59:16.001Z</time></trkpt><trkpt lat="43.96328619336501" lon="12.732660651708509"><ele>5.0</ele><time>2026-03-22T13:59:17.001Z</time></trkpt><trkpt lat="43.96329651327386" lon="12.732497098598266"><ele>5.0</ele><time>2026-03-22T13:59:18.001Z</time></trkpt><trkpt lat="43.96331179569926" lon="12.732325892594181"><ele>5.0</ele><time>2026-03-22T13:59:19.001Z</time></trkpt><trkpt lat="43.963335425999105" lon="12.73214919377833"><ele>5.0</ele><time>2026-03-22T13:59:20.001Z</time></trkpt><trkpt lat="43.96335803367816" lon="12.731976190289311"><ele>5.0</ele><time>2026-03-22T13:59:21.001Z</time></trkpt><trkpt lat="43.96337422390161" lon="12.7318062049119"><ele>5.0</ele><time>2026-03-22T13:59:22.001Z</time></trkpt><trkpt lat="43.96338566383595" lon="12.731633871517475"><ele>4.75</ele><time>2026-03-22T13:59:23.001Z</time></trkpt><trkpt lat="43.963403083110336" lon="12.731467760434985"><ele>4.5</ele><time>2026-03-22T13:59:24.001Z</time></trkpt><trkpt lat="43.96342484883747" lon="12.731311712562258"><ele>4.25</ele><time>2026-03-22T13:59:25.001Z</time></trkpt><trkpt lat="43.96344424181597" lon="12.731157051467049"><ele>4.0</ele><time>2026-03-22T13:59:26.001Z</time></trkpt><trkpt lat="43.96346168696729" lon="12.730998154346233"><ele>4.0</ele><time>2026-03-22T13:59:27.001Z</time></trkpt><trkpt lat="43.96348003930411" lon="12.730836896877815"><ele>4.0</ele><time>2026-03-22T13:59:28.001Z</time></trkpt><trkpt lat="43.96349398046762" lon="12.730670128595895"><ele>4.0</ele><time>2026-03-22T13:59:29.001Z</time></trkpt><trkpt lat="43.96350799959168" lon="12.730495365942135"><ele>4.0</ele><time>2026-03-22T13:59:30.001Z</time></trkpt><trkpt lat="43.96353152816251" lon="12.730308341371423"><ele>3.75</ele><time>2026-03-22T13:59:31.001Z</time></trkpt><trkpt lat="43.96355473781734" lon="12.730128924349817"><ele>3.5</ele><time>2026-03-22T13:59:32.001Z</time></trkpt><trkpt lat="43.963573324338746" lon="12.729946543358967"><ele>3.25</ele><time>2026-03-22T13:59:33.001Z</time></trkpt><trkpt lat="43.96359574548416" lon="12.729759046676074"><ele>3.0</ele><time>2026-03-22T13:59:34.001Z</time></trkpt><trkpt lat="43.963618116621525" lon="12.729571743665081"><ele>3.0</ele><time>2026-03-22T13:59:35.001Z</time></trkpt><trkpt lat="43.96363762057736" lon="12.729395538667776"><ele>3.0</ele><time>2026-03-22T13:59:36.001Z</time></trkpt><trkpt lat="43.96365670930403" lon="12.729215977747678"><ele>3.0</ele><time>2026-03-22T13:59:37.001Z</time></trkpt><trkpt lat="43.963668474264736" lon="12.72904136168974"><ele>3.0</ele><time>2026-03-22T13:59:38.001Z</time></trkpt><trkpt lat="43.96368811385591" lon="12.728853382140281"><ele>3.25</ele><time>2026-03-22T13:59:39.001Z</time></trkpt><trkpt lat="43.96371259398583" lon="12.728679059711654"><ele>3.5</ele><time>2026-03-22T13:59:40.001Z</time></trkpt><trkpt lat="43.96373108605103" lon="12.728521261348419"><ele>3.75</ele><time>2026-03-22T13:59:41.001Z</time></trkpt><trkpt lat="43.96375072414321" lon="12.72836505603525"><ele>4.0</ele><time>2026-03-22T13:59:42.001Z</time></trkpt><trkpt lat="43.96377090847754" lon="12.72821261503479"><ele>3.5</ele><time>2026-03-22T13:59:43.001Z</time></trkpt><trkpt lat="43.96379584289038" lon="12.728057402344442"><ele>3.0</ele><time>2026-03-22T13:59:44.001Z</time></trkpt><trkpt lat="43.96382750643942" lon="12.727893113371765"><ele>2.5</ele><time>2026-03-22T13:59:45.001Z</time></trkpt><trkpt lat="43.963858771810756" lon="12.727712353866025"><ele>2.0</ele><time>2026-03-22T13:59:46.001Z</time></trkpt><trkpt lat="43.9638883748155" lon="12.727519999302215"><ele>2.0</ele><time>2026-03-22T13:59:47.001Z</time></trkpt><trkpt lat="43.96392184807227" lon="12.727319512509565"><ele>2.0</ele><time>2026-03-22T13:59:48.001Z</time></trkpt><trkpt lat="43.96395229814419" lon="12.727109421269235"><ele>2.0</ele><time>2026-03-22T13:59:49.001Z</time></trkpt><trkpt lat="43.963988690227296" lon="12.726893552270642"><ele>2.0</ele><time>2026-03-22T13:59:50.001Z</time></trkpt><trkpt lat="43.96402491287977" lon="12.72667938492768"><ele>2.0</ele><time>2026-03-22T13:59:51.001Z</time></trkpt><trkpt lat="43.96406020781794" lon="12.726491219553587"><ele>2.0</ele><time>2026-03-22T13:59:52.001Z</time></trkpt><trkpt lat="43.96409222325809" lon="12.726304561743216"><ele>2.0</ele><time>2026-03-22T13:59:53.001Z</time></trkpt><trkpt lat="43.964123773164204" lon="12.726110172490774"><ele>2.6666666666666665</ele><time>2026-03-22T13:59:54.001Z</time></trkpt><trkpt lat="43.96417233183458" lon="12.725904207353974"><ele>3.333333333333333</ele><time>2026-03-22T13:59:55.001Z</time></trkpt><trkpt lat="43.96421945738062" lon="12.72569784696803"><ele>4.0</ele><time>2026-03-22T13:59:56.001Z</time></trkpt><trkpt lat="43.96427231666047" lon="12.72550301731757"><ele>4.25</ele><time>2026-03-22T13:59:57.001Z</time></trkpt><trkpt lat="43.96432672884721" lon="12.72532642674509"><ele>4.5</ele><time>2026-03-22T13:59:58.001Z</time></trkpt><trkpt lat="43.96437710935037" lon="12.725168734182072"><ele>4.75</ele><time>2026-03-22T13:59:59.001Z</time></trkpt><trkpt lat="43.96442289476524" lon="12.725031185608323"><ele>5.0</ele><time>2026-03-22T14:00:00.001Z</time></trkpt><trkpt lat="43.964464244556176" lon="12.72490492426219"><ele>5.0</ele><time>2026-03-22T14:00:01.001Z</time></trkpt><trkpt lat="43.964502722382456" lon="12.724787167099315"><ele>5.0</ele><time>2026-03-22T14:00:02.001Z</time></trkpt><trkpt lat="43.9645349643611" lon="12.724679772651507"><ele>5.0</ele><time>2026-03-22T14:00:03.001Z</time></trkpt><trkpt lat="43.964562163098144" lon="12.72458196863587"><ele>5.0</ele><time>2026-03-22T14:00:04.001Z</time></trkpt><trkpt lat="43.96459501669355" lon="12.72449655007977"><ele>5.0</ele><time>2026-03-22T14:00:05.001Z</time></trkpt><trkpt lat="43.96465030111859" lon="12.724427481054686"><ele>5.0</ele><time>2026-03-22T14:00:07.001Z</time></trkpt><trkpt lat="43.96470225745821" lon="12.724365937007459"><ele>4.6</ele><time>2026-03-22T14:00:09.001Z</time></trkpt><trkpt lat="43.96479828246093" lon="12.724261674074823"><ele>4.2</ele><time>2026-03-22T14:00:11.001Z</time></trkpt><trkpt lat="43.96481549095654" lon="12.72414472191299"><ele>3.8</ele><time>2026-03-22T14:00:12.001Z</time></trkpt><trkpt lat="43.964798055013304" lon="12.72402663286528"><ele>3.4</ele><time>2026-03-22T14:00:13.001Z</time></trkpt><trkpt lat="43.9647830491013" lon="12.723894581267256"><ele>3.0</ele><time>2026-03-22T14:00:14.001Z</time></trkpt><trkpt lat="43.96480532722615" lon="12.723749856057356"><ele>3.0</ele><time>2026-03-22T14:00:15.001Z</time></trkpt><trkpt lat="43.96484838733869" lon="12.723587562131554"><ele>3.0</ele><time>2026-03-22T14:00:16.001Z</time></trkpt><trkpt lat="43.96488551920652" lon="12.723427627458236"><ele>3.0</ele><time>2026-03-22T14:00:17.001Z</time></trkpt><trkpt lat="43.96490748577615" lon="12.723285595479261"><ele>3.0</ele><time>2026-03-22T14:00:18.001Z</time></trkpt><trkpt lat="43.96492911430488" lon="12.72317212683633"><ele>3.0</ele><time>2026-03-22T14:00:19.001Z</time></trkpt><trkpt lat="43.964948511900026" lon="12.723071356137028"><ele>3.0</ele><time>2026-03-22T14:00:20.001Z</time></trkpt><trkpt lat="43.9649728206441" lon="12.722972746182132"><ele>3.0</ele><time>2026-03-22T14:00:21.001Z</time></trkpt><trkpt lat="43.96499751202491" lon="12.722869533958246"><ele>3.0</ele><time>2026-03-22T14:00:22.001Z</time></trkpt><trkpt lat="43.96501972395937" lon="12.722758914665627"><ele>3.0</ele><time>2026-03-22T14:00:23.001Z</time></trkpt><trkpt lat="43.96504194679027" lon="12.722640737219036"><ele>3.0</ele><time>2026-03-22T14:00:24.001Z</time></trkpt><trkpt lat="43.96506413663755" lon="12.722515024333088"><ele>3.0</ele><time>2026-03-22T14:00:25.001Z</time></trkpt><trkpt lat="43.96509068424013" lon="12.72238447325937"><ele>3.0</ele><time>2026-03-22T14:00:26.001Z</time></trkpt><trkpt lat="43.96512127133392" lon="12.722234088718066"><ele>3.0</ele><time>2026-03-22T14:00:27.001Z</time></trkpt><trkpt lat="43.96515627288803" lon="12.722070690907543"><ele>3.0</ele><time>2026-03-22T14:00:28.001Z</time></trkpt><trkpt lat="43.9651978699631" lon="12.721885886643996"><ele>3.0</ele><time>2026-03-22T14:00:29.001Z</time></trkpt><trkpt lat="43.96524556587574" lon="12.721695974802733"><ele>2.75</ele><time>2026-03-22T14:00:30.001Z</time></trkpt><trkpt lat="43.96529504044519" lon="12.721510332809492"><ele>2.5</ele><time>2026-03-22T14:00:31.001Z</time></trkpt><trkpt lat="43.96533782819419" lon="12.721330655300477"><ele>2.25</ele><time>2026-03-22T14:00:32.001Z</time></trkpt><trkpt lat="43.965383084180324" lon="12.721165868407246"><ele>2.0</ele><time>2026-03-22T14:00:33.001Z</time></trkpt><trkpt lat="43.96543504367186" lon="12.720990651205863"><ele>2.0</ele><time>2026-03-22T14:00:34.001Z</time></trkpt><trkpt lat="43.96547964615639" lon="12.720823641398841"><ele>2.0</ele><time>2026-03-22T14:00:35.001Z</time></trkpt><trkpt lat="43.96552061760303" lon="12.72066042910235"><ele>2.0</ele><time>2026-03-22T14:00:36.001Z</time></trkpt><trkpt lat="43.9655512844443" lon="12.720509839083459"><ele>2.0</ele><time>2026-03-22T14:00:37.001Z</time></trkpt><trkpt lat="43.96557284921747" lon="12.720356252249804"><ele>2.5</ele><time>2026-03-22T14:00:38.001Z</time></trkpt><trkpt lat="43.96558624899545" lon="12.720188956147014"><ele>3.0</ele><time>2026-03-22T14:00:39.001Z</time></trkpt><trkpt lat="43.96558627368217" lon="12.720012146911252"><ele>3.5</ele><time>2026-03-22T14:00:40.001Z</time></trkpt><trkpt lat="43.965565926242164" lon="12.719853469789191"><ele>4.0</ele><time>2026-03-22T14:00:41.001Z</time></trkpt><trkpt lat="43.96553278635339" lon="12.7196980441117"><ele>4.0</ele><time>2026-03-22T14:00:42.001Z</time></trkpt><trkpt lat="43.965495021617336" lon="12.719540330836278"><ele>4.0</ele><time>2026-03-22T14:00:43.001Z</time></trkpt><trkpt lat="43.96545243322191" lon="12.719377236440645"><ele>4.0</ele><time>2026-03-22T14:00:44.001Z</time></trkpt><trkpt lat="43.965404764430566" lon="12.719218622239037"><ele>4.0</ele><time>2026-03-22T14:00:45.001Z</time></trkpt><trkpt lat="43.96535955776147" lon="12.719065527106666"><ele>3.75</ele><time>2026-03-22T14:00:46.001Z</time></trkpt><trkpt lat="43.96531324687828" lon="12.71890913983856"><ele>3.5</ele><time>2026-03-22T14:00:47.001Z</time></trkpt><trkpt lat="43.96526757301278" lon="12.71875125039516"><ele>3.25</ele><time>2026-03-22T14:00:48.001Z</time></trkpt><trkpt lat="43.96522365258286" lon="12.718595922494027"><ele>3.0</ele><time>2026-03-22T14:00:49.001Z</time></trkpt><trkpt lat="43.96517832040581" lon="12.718438634222231"><ele>3.0</ele><time>2026-03-22T14:00:50.001Z</time></trkpt><trkpt lat="43.96513107714838" lon="12.718270945670694"><ele>3.0</ele><time>2026-03-22T14:00:51.001Z</time></trkpt><trkpt lat="43.96508712462365" lon="12.71811182960052"><ele>3.0</ele><time>2026-03-22T14:00:52.001Z</time></trkpt><trkpt lat="43.96504528392548" lon="12.717960004450141"><ele>3.0</ele><time>2026-03-22T14:00:53.001Z</time></trkpt><trkpt lat="43.965005602775506" lon="12.717816305608753"><ele>3.25</ele><time>2026-03-22T14:00:54.001Z</time></trkpt><trkpt lat="43.96496562443717" lon="12.71766839688958"><ele>3.5</ele><time>2026-03-22T14:00:55.001Z</time></trkpt><trkpt lat="43.96492416853282" lon="12.717517024900403"><ele>3.75</ele><time>2026-03-22T14:00:56.001Z</time></trkpt><trkpt lat="43.96487759169875" lon="12.717357295291318"><ele>4.0</ele><time>2026-03-22T14:00:57.001Z</time></trkpt><trkpt lat="43.964832356052426" lon="12.717205374491568"><ele>4.0</ele><time>2026-03-22T14:00:58.001Z</time></trkpt><trkpt lat="43.96479093336886" lon="12.717057429776334"><ele>4.0</ele><time>2026-03-22T14:00:59.001Z</time></trkpt><trkpt lat="43.96474350820032" lon="12.716907383546896"><ele>4.0</ele><time>2026-03-22T14:01:00.001Z</time></trkpt><trkpt lat="43.964701335168364" lon="12.716741127744097"><ele>4.0</ele><time>2026-03-22T14:01:01.001Z</time></trkpt><trkpt lat="43.96465600577698" lon="12.716575816162145"><ele>3.75</ele><time>2026-03-22T14:01:02.001Z</time></trkpt><trkpt lat="43.964609953311374" lon="12.716405795305795"><ele>3.5</ele><time>2026-03-22T14:01:03.001Z</time></trkpt><trkpt lat="43.96456099840988" lon="12.71624196413882"><ele>3.25</ele><time>2026-03-22T14:01:04.001Z</time></trkpt><trkpt lat="43.96451960944891" lon="12.716087107159026"><ele>3.0</ele><time>2026-03-22T14:01:05.001Z</time></trkpt><trkpt lat="43.964475126584546" lon="12.71593640154866"><ele>3.0</ele><time>2026-03-22T14:01:06.001Z</time></trkpt><trkpt lat="43.96443245102123" lon="12.715781971875987"><ele>3.0</ele><time>2026-03-22T14:01:07.001Z</time></trkpt><trkpt lat="43.96438624638418" lon="12.715624042606589"><ele>3.0</ele><time>2026-03-22T14:01:08.001Z</time></trkpt><trkpt lat="43.96432565158342" lon="12.715470177183642"><ele>3.0</ele><time>2026-03-22T14:01:09.001Z</time></trkpt><trkpt lat="43.96425940474614" lon="12.71532323048851"><ele>3.5</ele><time>2026-03-22T14:01:10.001Z</time></trkpt><trkpt lat="43.964191662665144" lon="12.715181132881696"><ele>4.0</ele><time>2026-03-22T14:01:11.001Z</time></trkpt><trkpt lat="43.96411642253965" lon="12.715047727461235"><ele>4.5</ele><time>2026-03-22T14:01:12.001Z</time></trkpt><trkpt lat="43.964033826035994" lon="12.714913685974786"><ele>5.0</ele><time>2026-03-22T14:01:13.001Z</time></trkpt><trkpt lat="43.963940914181755" lon="12.71477132411536"><ele>5.0</ele><time>2026-03-22T14:01:14.001Z</time></trkpt><trkpt lat="43.9638558691731" lon="12.714627905870007"><ele>5.0</ele><time>2026-03-22T14:01:15.001Z</time></trkpt><trkpt lat="43.96379848465343" lon="12.714473204487456"><ele>5.0</ele><time>2026-03-22T14:01:16.001Z</time></trkpt><trkpt lat="43.9637643962726" lon="12.714305099993467"><ele>5.0</ele><time>2026-03-22T14:01:17.001Z</time></trkpt><trkpt lat="43.96376377165909" lon="12.714117418995992"><ele>5.25</ele><time>2026-03-22T14:01:18.001Z</time></trkpt><trkpt lat="43.96378468435712" lon="12.71392472874933"><ele>5.5</ele><time>2026-03-22T14:01:19.001Z</time></trkpt><trkpt lat="43.96383457520798" lon="12.713738377672529"><ele>5.75</ele><time>2026-03-22T14:01:20.001Z</time></trkpt><trkpt lat="43.96391262020022" lon="12.713573510349427"><ele>6.0</ele><time>2026-03-22T14:01:21.001Z</time></trkpt><trkpt lat="43.964008816582286" lon="12.713425699216732"><ele>6.25</ele><time>2026-03-22T14:01:22.001Z</time></trkpt><trkpt lat="43.964130298177174" lon="12.713312030066499"><ele>6.5</ele><time>2026-03-22T14:01:23.001Z</time></trkpt><trkpt lat="43.964266232199634" lon="12.713234295625472"><ele>6.75</ele><time>2026-03-22T14:01:24.001Z</time></trkpt><trkpt lat="43.964398986576846" lon="12.713172904562612"><ele>7.0</ele><time>2026-03-22T14:01:25.001Z</time></trkpt><trkpt lat="43.964524351258085" lon="12.713122202476507"><ele>6.199999999999999</ele><time>2026-03-22T14:01:26.001Z</time></trkpt><trkpt lat="43.96463538151829" lon="12.713063946694168"><ele>5.3999999999999995</ele><time>2026-03-22T14:01:27.001Z</time></trkpt><trkpt lat="43.96474572189822" lon="12.713005456468807"><ele>4.6</ele><time>2026-03-22T14:01:28.001Z</time></trkpt><trkpt lat="43.96484727844496" lon="12.712945752395791"><ele>3.8</ele><time>2026-03-22T14:01:29.001Z</time></trkpt><trkpt lat="43.964932902568435" lon="12.712899281702898"><ele>3.0</ele><time>2026-03-22T14:01:30.001Z</time></trkpt><trkpt lat="43.96500764295669" lon="12.712858932066366"><ele>3.1666666666666665</ele><time>2026-03-22T14:01:31.001Z</time></trkpt><trkpt lat="43.96508736915686" lon="12.712818856176922"><ele>3.333333333333333</ele><time>2026-03-22T14:01:32.001Z</time></trkpt><trkpt lat="43.96516523098893" lon="12.712780412527806"><ele>3.5</ele><time>2026-03-22T14:01:33.001Z</time></trkpt><trkpt lat="43.96524139221995" lon="12.712745442131936"><ele>3.6666666666666665</ele><time>2026-03-22T14:01:34.001Z</time></trkpt><trkpt lat="43.96531698575718" lon="12.712709621597865"><ele>3.833333333333333</ele><time>2026-03-22T14:01:35.001Z</time></trkpt><trkpt lat="43.96539747692403" lon="12.712665416632095"><ele>4.0</ele><time>2026-03-22T14:01:36.001Z</time></trkpt><trkpt lat="43.96549734608379" lon="12.712607204808252"><ele>4.2</ele><time>2026-03-22T14:01:37.001Z</time></trkpt><trkpt lat="43.965610974570694" lon="12.712548561180917"><ele>4.4</ele><time>2026-03-22T14:01:38.001Z</time></trkpt><trkpt lat="43.9657216688579" lon="12.712492041332888"><ele>4.6</ele><time>2026-03-22T14:01:39.001Z</time></trkpt><trkpt lat="43.96581857755391" lon="12.712443716589368"><ele>4.8</ele><time>2026-03-22T14:01:40.001Z</time></trkpt><trkpt lat="43.96589840502492" lon="12.712393708998805"><ele>5.0</ele><time>2026-03-22T14:01:41.001Z</time></trkpt><trkpt lat="43.96597400394754" lon="12.712355810479291"><ele>4.5</ele><time>2026-03-22T14:01:42.001Z</time></trkpt><trkpt lat="43.96604743179766" lon="12.712312149647556"><ele>4.0</ele><time>2026-03-22T14:01:43.001Z</time></trkpt><trkpt lat="43.966133377113685" lon="12.71226865705554"><ele>3.5</ele><time>2026-03-22T14:01:44.001Z</time></trkpt><trkpt lat="43.966219056691756" lon="12.712222994248359"><ele>3.0</ele><time>2026-03-22T14:01:45.001Z</time></trkpt><trkpt lat="43.96629823156572" lon="12.712184484567313"><ele>2.5</ele><time>2026-03-22T14:01:46.001Z</time></trkpt><trkpt lat="43.966375237845874" lon="12.712146449970996"><ele>2.0</ele><time>2026-03-22T14:01:47.001Z</time></trkpt><trkpt lat="43.96644861280677" lon="12.712109187713802"><ele>1.9999999999999998</ele><time>2026-03-22T14:01:48.001Z</time></trkpt><trkpt lat="43.966513173901525" lon="12.71207362049751"><ele>2.0</ele><time>2026-03-22T14:01:49.001Z</time></trkpt><trkpt lat="43.96658629276673" lon="12.712039187477325"><ele>2.0</ele><time>2026-03-22T14:01:50.001Z</time></trkpt><trkpt lat="43.966668521278464" lon="12.711990878326427"><ele>2.0</ele><time>2026-03-22T14:01:51.001Z</time></trkpt><trkpt lat="43.966752598392965" lon="12.71193957276118"><ele>1.9999999999999998</ele><time>2026-03-22T14:01:52.001Z</time></trkpt><trkpt lat="43.96684616028751" lon="12.711897170031401"><ele>2.0</ele><time>2026-03-22T14:01:53.001Z</time></trkpt><trkpt lat="43.96694267393464" lon="12.711849052259263"><ele>2.0</ele><time>2026-03-22T14:01:54.001Z</time></trkpt><trkpt lat="43.967046840292404" lon="12.711797220703827"><ele>2.0</ele><time>2026-03-22T14:01:55.001Z</time></trkpt><trkpt lat="43.967150525542536" lon="12.711746937164314"><ele>2.0</ele><time>2026-03-22T14:01:56.001Z</time></trkpt><trkpt lat="43.967244461963375" lon="12.71168930343445"><ele>2.0</ele><time>2026-03-22T14:01:57.001Z</time></trkpt><trkpt lat="43.96733916536576" lon="12.711632106311374"><ele>2.0</ele><time>2026-03-22T14:01:58.001Z</time></trkpt><trkpt lat="43.96743385281124" lon="12.71159298526426"><ele>1.8</ele><time>2026-03-22T14:01:59.001Z</time></trkpt><trkpt lat="43.967533642111306" lon="12.711545046555898"><ele>1.6</ele><time>2026-03-22T14:02:00.001Z</time></trkpt><trkpt lat="43.967627788954886" lon="12.711486426454192"><ele>1.4000000000000001</ele><time>2026-03-22T14:02:01.001Z</time></trkpt><trkpt lat="43.967720897332576" lon="12.711425701113694"><ele>1.2000000000000002</ele><time>2026-03-22T14:02:02.001Z</time></trkpt><trkpt lat="43.96781360236268" lon="12.711350302558298"><ele>1.0</ele><time>2026-03-22T14:02:03.001Z</time></trkpt><trkpt lat="43.967900382197854" lon="12.711263827556925"><ele>1.0</ele><time>2026-03-22T14:02:04.001Z</time></trkpt><trkpt lat="43.96798119883908" lon="12.711152149197881"><ele>1.0</ele><time>2026-03-22T14:02:05.001Z</time></trkpt><trkpt lat="43.96805009723854" lon="12.711026545758479"><ele>1.0</ele><time>2026-03-22T14:02:06.001Z</time></trkpt><trkpt lat="43.968109177766294" lon="12.71089589185618"><ele>1.0</ele><time>2026-03-22T14:02:07.001Z</time></trkpt><trkpt lat="43.968150667648246" lon="12.71077197049395"><ele>1.0</ele><time>2026-03-22T14:02:08.001Z</time></trkpt><trkpt lat="43.96818450568155" lon="12.71065599786998"><ele>1.0</ele><time>2026-03-22T14:02:09.001Z</time></trkpt><trkpt lat="43.968216067785434" lon="12.71055536073005"><ele>1.0</ele><time>2026-03-22T14:02:10.001Z</time></trkpt><trkpt lat="43.968242164179706" lon="12.710436801708484"><ele>1.0</ele><time>2026-03-22T14:02:12.001Z</time></trkpt><trkpt lat="43.968274372501206" lon="12.71034782792698"><ele>1.0</ele><time>2026-03-22T14:02:14.001Z</time></trkpt><trkpt lat="43.968341294301936" lon="12.7101995251829"><ele>1.0</ele><time>2026-03-22T14:02:16.001Z</time></trkpt><trkpt lat="43.968364846258176" lon="12.710081774998512"><ele>1.0</ele><time>2026-03-22T14:02:17.001Z</time></trkpt><trkpt lat="43.96837827251119" lon="12.709942516452392"><ele>1.0</ele><time>2026-03-22T14:02:18.001Z</time></trkpt><trkpt lat="43.96840532064168" lon="12.709786696618217"><ele>1.0</ele><time>2026-03-22T14:02:19.001Z</time></trkpt><trkpt lat="43.96845012552885" lon="12.709599852506644"><ele>1.0</ele><time>2026-03-22T14:02:20.001Z</time></trkpt><trkpt lat="43.9684907085231" lon="12.70941454452598"><ele>0.5</ele><time>2026-03-22T14:02:21.001Z</time></trkpt><trkpt lat="43.96853112164236" lon="12.709224374678907"><ele>0.0</ele><time>2026-03-22T14:02:22.001Z</time></trkpt><trkpt lat="43.96856707913297" lon="12.709025355105902"><ele>-0.5</ele><time>2026-03-22T14:02:23.001Z</time></trkpt><trkpt lat="43.96859934635844" lon="12.708845155721198"><ele>-1.0</ele><time>2026-03-22T14:02:24.001Z</time></trkpt><trkpt lat="43.96863963936466" lon="12.708674164827807"><ele>-0.5</ele><time>2026-03-22T14:02:25.001Z</time></trkpt><trkpt lat="43.96866877319976" lon="12.708510220648735"><ele>0.0</ele><time>2026-03-22T14:02:26.001Z</time></trkpt><trkpt lat="43.96869838297674" lon="12.708357913490065"><ele>0.5</ele><time>2026-03-22T14:02:27.001Z</time></trkpt><trkpt lat="43.96871150213839" lon="12.708197411145935"><ele>1.0</ele><time>2026-03-22T14:02:28.001Z</time></trkpt><trkpt lat="43.968742034883626" lon="12.708040227043332"><ele>1.0</ele><time>2026-03-22T14:02:29.001Z</time></trkpt><trkpt lat="43.96878114056058" lon="12.707870459076531"><ele>1.0</ele><time>2026-03-22T14:02:30.001Z</time></trkpt><trkpt lat="43.96882882904219" lon="12.707708761955981"><ele>1.0</ele><time>2026-03-22T14:02:31.001Z</time></trkpt><trkpt lat="43.96890391330716" lon="12.707568877975834"><ele>1.0</ele><time>2026-03-22T14:02:32.001Z</time></trkpt><trkpt lat="43.9689440772038" lon="12.707431700909686"><ele>1.2000000000000002</ele><time>2026-03-22T14:02:33.001Z</time></trkpt><trkpt lat="43.96898089154478" lon="12.707305352659938"><ele>1.4000000000000001</ele><time>2026-03-22T14:02:34.001Z</time></trkpt><trkpt lat="43.96902269063486" lon="12.707172425032068"><ele>1.6</ele><time>2026-03-22T14:02:35.001Z</time></trkpt><trkpt lat="43.96906504664618" lon="12.707037466592533"><ele>1.8</ele><time>2026-03-22T14:02:36.001Z</time></trkpt><trkpt lat="43.96911160459174" lon="12.706901680686446"><ele>2.0</ele><time>2026-03-22T14:02:37.001Z</time></trkpt><trkpt lat="43.969160803370336" lon="12.706758329915175"><ele>2.25</ele><time>2026-03-22T14:02:38.001Z</time></trkpt><trkpt lat="43.969218436645036" lon="12.706606959135662"><ele>2.5</ele><time>2026-03-22T14:02:39.001Z</time></trkpt><trkpt lat="43.96928095260542" lon="12.706444289108592"><ele>2.75</ele><time>2026-03-22T14:02:40.001Z</time></trkpt><trkpt lat="43.96934637460706" lon="12.70627741756332"><ele>3.0</ele><time>2026-03-22T14:02:41.001Z</time></trkpt><trkpt lat="43.969416461707034" lon="12.706108103494122"><ele>3.5</ele><time>2026-03-22T14:02:42.001Z</time></trkpt><trkpt lat="43.96948839447678" lon="12.705948431423234"><ele>4.0</ele><time>2026-03-22T14:02:43.001Z</time></trkpt><trkpt lat="43.96955139331415" lon="12.70579818645934"><ele>4.5</ele><time>2026-03-22T14:02:44.001Z</time></trkpt><trkpt lat="43.96960825886856" lon="12.705652094857358"><ele>5.0</ele><time>2026-03-22T14:02:45.001Z</time></trkpt><trkpt lat="43.9696654302499" lon="12.705513885149417"><ele>5.0</ele><time>2026-03-22T14:02:46.001Z</time></trkpt><trkpt lat="43.9697153634247" lon="12.70538421301789"><ele>5.0</ele><time>2026-03-22T14:02:47.001Z</time></trkpt><trkpt lat="43.969762187517624" lon="12.705259323289775"><ele>5.0</ele><time>2026-03-22T14:02:48.001Z</time></trkpt><trkpt lat="43.96980805275437" lon="12.705141930844242"><ele>5.0</ele><time>2026-03-22T14:02:49.001Z</time></trkpt><trkpt lat="43.96985151830701" lon="12.70502699459411"><ele>5.0</ele><time>2026-03-22T14:02:50.001Z</time></trkpt><trkpt lat="43.96989265488569" lon="12.704922216415095"><ele>4.833333333333334</ele><time>2026-03-22T14:02:51.001Z</time></trkpt><trkpt lat="43.96993326704037" lon="12.70482502418573"><ele>4.666666666666667</ele><time>2026-03-22T14:02:52.001Z</time></trkpt><trkpt lat="43.96997453488887" lon="12.70472644079352"><ele>4.5</ele><time>2026-03-22T14:02:53.001Z</time></trkpt><trkpt lat="43.97001295533479" lon="12.704634521669623"><ele>4.333333333333333</ele><time>2026-03-22T14:02:54.001Z</time></trkpt><trkpt lat="43.97005223148162" lon="12.704539218826595"><ele>4.166666666666666</ele><time>2026-03-22T14:02:55.001Z</time></trkpt><trkpt lat="43.97009115550592" lon="12.70443680653329"><ele>4.0</ele><time>2026-03-22T14:02:56.001Z</time></trkpt><trkpt lat="43.97013308163807" lon="12.704327546429953"><ele>3.8000000000000003</ele><time>2026-03-22T14:02:57.001Z</time></trkpt><trkpt lat="43.97017955138454" lon="12.704210025941412"><ele>3.6000000000000005</ele><time>2026-03-22T14:02:58.001Z</time></trkpt><trkpt lat="43.97023308637171" lon="12.704085859528814"><ele>3.4</ele><time>2026-03-22T14:02:59.001Z</time></trkpt><trkpt lat="43.970282970625654" lon="12.703958564821292"><ele>3.2</ele><time>2026-03-22T14:03:00.001Z</time></trkpt><trkpt lat="43.97033463620864" lon="12.703833242513952"><ele>3.0</ele><time>2026-03-22T14:03:01.001Z</time></trkpt><trkpt lat="43.9703821063222" lon="12.70371132348159"><ele>2.75</ele><time>2026-03-22T14:03:02.001Z</time></trkpt><trkpt lat="43.97044156107922" lon="12.703578887678036"><ele>2.5</ele><time>2026-03-22T14:03:03.001Z</time></trkpt><trkpt lat="43.97049878070777" lon="12.70344061490735"><ele>2.25</ele><time>2026-03-22T14:03:04.001Z</time></trkpt><trkpt lat="43.97056065534401" lon="12.70329426653539"><ele>2.0</ele><time>2026-03-22T14:03:05.001Z</time></trkpt><trkpt lat="43.970626593766895" lon="12.703141073229135"><ele>2.0</ele><time>2026-03-22T14:03:06.001Z</time></trkpt><trkpt lat="43.9706971216166" lon="12.702984985862606"><ele>2.0</ele><time>2026-03-22T14:03:07.001Z</time></trkpt><trkpt lat="43.97075880721057" lon="12.70283766657664"><ele>2.0</ele><time>2026-03-22T14:03:08.001Z</time></trkpt><trkpt lat="43.97082212620492" lon="12.702682836716185"><ele>2.0</ele><time>2026-03-22T14:03:09.001Z</time></trkpt><trkpt lat="43.970884463512306" lon="12.702535689394052"><ele>1.6</ele><time>2026-03-22T14:03:10.001Z</time></trkpt><trkpt lat="43.97094591342963" lon="12.702408674673789"><ele>1.2000000000000002</ele><time>2026-03-22T14:03:11.001Z</time></trkpt><trkpt lat="43.97101220810441" lon="12.702313218274577"><ele>0.8</ele><time>2026-03-22T14:03:12.001Z</time></trkpt><trkpt lat="43.97109946982909" lon="12.702259273616601"><ele>0.4</ele><time>2026-03-22T14:03:13.001Z</time></trkpt><trkpt lat="43.97117717982399" lon="12.70221149173283"><ele>0.0</ele><time>2026-03-22T14:03:14.001Z</time></trkpt><trkpt lat="43.97122704283638" lon="12.702130327929924"><ele>0.0</ele><time>2026-03-22T14:03:15.001Z</time></trkpt><trkpt lat="43.97124652682777" lon="12.70202717474836"><ele>0.0</ele><time>2026-03-22T14:03:16.001Z</time></trkpt><trkpt lat="43.97123987374269" lon="12.70192274707925"><ele>0.0</ele><time>2026-03-22T14:03:17.001Z</time></trkpt><trkpt lat="43.97123210182391" lon="12.701815754660291"><ele>0.0</ele><time>2026-03-22T14:03:18.001Z</time></trkpt><trkpt lat="43.97124232383522" lon="12.701699015608678"><ele>0.0</ele><time>2026-03-22T14:03:19.001Z</time></trkpt><trkpt lat="43.97128004977199" lon="12.701561525758361"><ele>0.0</ele><time>2026-03-22T14:03:20.001Z</time></trkpt><trkpt lat="43.97134235168606" lon="12.701423820435775"><ele>0.0</ele><time>2026-03-22T14:03:21.001Z</time></trkpt><trkpt lat="43.971421124884124" lon="12.701269141300319"><ele>0.0</ele><time>2026-03-22T14:03:22.001Z</time></trkpt><trkpt lat="43.9715061898953" lon="12.7011034511993"><ele>0.0</ele><time>2026-03-22T14:03:23.001Z</time></trkpt><trkpt lat="43.97159568522597" lon="12.700920997149467"><ele>0.0</ele><time>2026-03-22T14:03:24.001Z</time></trkpt><trkpt lat="43.971687820797314" lon="12.700724270223423"><ele>0.0</ele><time>2026-03-22T14:03:25.001Z</time></trkpt><trkpt lat="43.97178470683459" lon="12.700527999458812"><ele>0.0</ele><time>2026-03-22T14:03:26.001Z</time></trkpt><trkpt lat="43.971885367392886" lon="12.700322965583686"><ele>0.0</ele><time>2026-03-22T14:03:27.001Z</time></trkpt><trkpt lat="43.97198686211487" lon="12.700117144222594"><ele>0.0</ele><time>2026-03-22T14:03:28.001Z</time></trkpt><trkpt lat="43.972088546656266" lon="12.699909751648711"><ele>0.0</ele><time>2026-03-22T14:03:29.001Z</time></trkpt><trkpt lat="43.97218846258411" lon="12.699699749942425"><ele>0.0</ele><time>2026-03-22T14:03:30.001Z</time></trkpt><trkpt lat="43.972288342047136" lon="12.69948893118191"><ele>0.0</ele><time>2026-03-22T14:03:31.001Z</time></trkpt><trkpt lat="43.97238562561917" lon="12.699285195707178"><ele>0.0</ele><time>2026-03-22T14:03:32.001Z</time></trkpt><trkpt lat="43.97247984454637" lon="12.699081981085703"><ele>0.0</ele><time>2026-03-22T14:03:33.001Z</time></trkpt><trkpt lat="43.972575286854266" lon="12.698879044433298"><ele>0.0</ele><time>2026-03-22T14:03:34.001Z</time></trkpt><trkpt lat="43.97267367711268" lon="12.698675916632343"><ele>0.0</ele><time>2026-03-22T14:03:35.001Z</time></trkpt><trkpt lat="43.97276845359885" lon="12.698481244012571"><ele>0.0</ele><time>2026-03-22T14:03:36.001Z</time></trkpt><trkpt lat="43.97286054359179" lon="12.698291946018518"><ele>0.3333333333333333</ele><time>2026-03-22T14:03:37.001Z</time></trkpt><trkpt lat="43.972953830529896" lon="12.698103071297682"><ele>0.6666666666666666</ele><time>2026-03-22T14:03:38.001Z</time></trkpt><trkpt lat="43.97304133371133" lon="12.697916785032989"><ele>1.0</ele><time>2026-03-22T14:03:39.001Z</time></trkpt><trkpt lat="43.97312783897596" lon="12.697733042657465"><ele>1.5</ele><time>2026-03-22T14:03:40.001Z</time></trkpt><trkpt lat="43.97321359390186" lon="12.697555075488976"><ele>2.0</ele><time>2026-03-22T14:03:41.001Z</time></trkpt><trkpt lat="43.9732941901382" lon="12.697391147991263"><ele>2.5</ele><time>2026-03-22T14:03:42.001Z</time></trkpt><trkpt lat="43.97337374201572" lon="12.697234709272731"><ele>3.0</ele><time>2026-03-22T14:03:43.001Z</time></trkpt><trkpt lat="43.97345456399872" lon="12.697081628771608"><ele>3.25</ele><time>2026-03-22T14:03:44.001Z</time></trkpt><trkpt lat="43.97353432945296" lon="12.696926711527126"><ele>3.5</ele><time>2026-03-22T14:03:45.001Z</time></trkpt><trkpt lat="43.97361165001659" lon="12.696773739444215"><ele>3.75</ele><time>2026-03-22T14:03:46.001Z</time></trkpt><trkpt lat="43.97368702781273" lon="12.696630138048658"><ele>4.0</ele><time>2026-03-22T14:03:47.001Z</time></trkpt><trkpt lat="43.97375433730966" lon="12.696501307149545"><ele>3.9999999999999996</ele><time>2026-03-22T14:03:48.001Z</time></trkpt><trkpt lat="43.97381358339176" lon="12.696390141945905"><ele>4.0</ele><time>2026-03-22T14:03:49.001Z</time></trkpt><trkpt lat="43.973863751726256" lon="12.69628790628151"><ele>4.0</ele><time>2026-03-22T14:03:50.001Z</time></trkpt><trkpt lat="43.97391097568212" lon="12.696187883765466"><ele>4.0</ele><time>2026-03-22T14:03:51.001Z</time></trkpt><trkpt lat="43.973954141819796" lon="12.696098784355064"><ele>3.9999999999999996</ele><time>2026-03-22T14:03:52.001Z</time></trkpt><trkpt lat="43.97399636392532" lon="12.696014928256965"><ele>4.0</ele><time>2026-03-22T14:03:53.001Z</time></trkpt><trkpt lat="43.974035856219366" lon="12.695935782526265"><ele>3.833333333333333</ele><time>2026-03-22T14:03:54.001Z</time></trkpt><trkpt lat="43.97407591207613" lon="12.695861193414514"><ele>3.6666666666666665</ele><time>2026-03-22T14:03:55.001Z</time></trkpt><trkpt lat="43.974129027139575" lon="12.695755867680875"><ele>3.5</ele><time>2026-03-22T14:03:57.001Z</time></trkpt><trkpt lat="43.97416416097751" lon="12.695680650524636"><ele>3.333333333333333</ele><time>2026-03-22T14:03:59.001Z</time></trkpt><trkpt lat="43.974215730393865" lon="12.695578312769028"><ele>3.1666666666666665</ele><time>2026-03-22T14:04:02.001Z</time></trkpt><trkpt lat="43.97426482598072" lon="12.695504590670051"><ele>3.0</ele><time>2026-03-22T14:04:05.001Z</time></trkpt><trkpt lat="43.97429888073126" lon="12.695395120624047"><ele>3.0</ele><time>2026-03-22T14:04:53.001Z</time></trkpt><trkpt lat="43.97436544922004" lon="12.695278687960553"><ele>3.0</ele><time>2026-03-22T14:04:55.001Z</time></trkpt><trkpt lat="43.97443010208067" lon="12.695154809560744"><ele>3.0</ele><time>2026-03-22T14:04:57.001Z</time></trkpt><trkpt lat="43.97448637554396" lon="12.695045064078245"><ele>3.0</ele><time>2026-03-22T14:04:59.001Z</time></trkpt><trkpt lat="43.97456606234779" lon="12.694916978808541"><ele>3.0</ele><time>2026-03-22T14:05:01.001Z</time></trkpt><trkpt lat="43.974608434187296" lon="12.694838067568105"><ele>2.9999999999999996</ele><time>2026-03-22T14:05:02.001Z</time></trkpt><trkpt lat="43.97465546332331" lon="12.694753976991718"><ele>3.0</ele><time>2026-03-22T14:05:03.001Z</time></trkpt><trkpt lat="43.97470545477667" lon="12.69468222173753"><ele>3.0</ele><time>2026-03-22T14:05:04.001Z</time></trkpt><trkpt lat="43.974744930312056" lon="12.694599442720321"><ele>3.0</ele><time>2026-03-22T14:05:05.001Z</time></trkpt><trkpt lat="43.97479057272645" lon="12.694510376976393"><ele>3.0</ele><time>2026-03-22T14:05:06.001Z</time></trkpt><trkpt lat="43.97483294531449" lon="12.694423950925833"><ele>2.9999999999999996</ele><time>2026-03-22T14:05:07.001Z</time></trkpt><trkpt lat="43.97488158861596" lon="12.694344947139907"><ele>3.0</ele><time>2026-03-22T14:05:08.001Z</time></trkpt><trkpt lat="43.97493156087981" lon="12.694255275755618"><ele>3.0</ele><time>2026-03-22T14:05:09.001Z</time></trkpt><trkpt lat="43.97497712639875" lon="12.694160265690948"><ele>3.0</ele><time>2026-03-22T14:05:10.001Z</time></trkpt><trkpt lat="43.9750241395069" lon="12.694066023319202"><ele>3.0</ele><time>2026-03-22T14:05:11.001Z</time></trkpt><trkpt lat="43.9750801031194" lon="12.69396878866116"><ele>3.0</ele><time>2026-03-22T14:05:12.001Z</time></trkpt><trkpt lat="43.97513989576231" lon="12.693846817919571"><ele>3.0</ele><time>2026-03-22T14:05:13.001Z</time></trkpt><trkpt lat="43.975193791263095" lon="12.693720445068864"><ele>3.0</ele><time>2026-03-22T14:05:14.001Z</time></trkpt><trkpt lat="43.97525883580942" lon="12.693601309546468"><ele>3.0</ele><time>2026-03-22T14:05:15.001Z</time></trkpt><trkpt lat="43.97532408070804" lon="12.693491834016841"><ele>3.0</ele><time>2026-03-22T14:05:16.001Z</time></trkpt><trkpt lat="43.97537832926106" lon="12.693379894789851"><ele>3.0</ele><time>2026-03-22T14:05:17.001Z</time></trkpt><trkpt lat="43.97543191895053" lon="12.693271095219924"><ele>3.0</ele><time>2026-03-22T14:05:18.001Z</time></trkpt><trkpt lat="43.97548479275763" lon="12.693162132584394"><ele>2.8</ele><time>2026-03-22T14:05:19.001Z</time></trkpt><trkpt lat="43.975537835714945" lon="12.693051394906577"><ele>2.5999999999999996</ele><time>2026-03-22T14:05:20.001Z</time></trkpt><trkpt lat="43.9755924677207" lon="12.692939340730625"><ele>2.4000000000000004</ele><time>2026-03-22T14:05:21.001Z</time></trkpt><trkpt lat="43.97564805256027" lon="12.692824451952168"><ele>2.2</ele><time>2026-03-22T14:05:22.001Z</time></trkpt><trkpt lat="43.9757066878461" lon="12.692716851624816"><ele>2.0</ele><time>2026-03-22T14:05:23.001Z</time></trkpt><trkpt lat="43.97576693848044" lon="12.692605500967334"><ele>2.5</ele><time>2026-03-22T14:05:24.001Z</time></trkpt><trkpt lat="43.97583290198774" lon="12.692484204599776"><ele>3.0</ele><time>2026-03-22T14:05:25.001Z</time></trkpt><trkpt lat="43.975902207743395" lon="12.692355579024044"><ele>3.5</ele><time>2026-03-22T14:05:26.001Z</time></trkpt><trkpt lat="43.97597010320671" lon="12.692222000826648"><ele>4.0</ele><time>2026-03-22T14:05:27.001Z</time></trkpt><trkpt lat="43.976044816706974" lon="12.692079538095923"><ele>4.333333333333333</ele><time>2026-03-22T14:05:28.001Z</time></trkpt><trkpt lat="43.97612480615642" lon="12.69191542989296"><ele>4.666666666666667</ele><time>2026-03-22T14:05:28.997Z</time></trkpt><trkpt lat="43.97621850954564" lon="12.691739048745402"><ele>5.0</ele><time>2026-03-22T14:05:29.997Z</time></trkpt><trkpt lat="43.97630845787311" lon="12.69156099292577"><ele>5.0</ele><time>2026-03-22T14:05:30.997Z</time></trkpt><trkpt lat="43.97639971649415" lon="12.691385192081523"><ele>5.0</ele><time>2026-03-22T14:05:31.997Z</time></trkpt><trkpt lat="43.976484938324575" lon="12.691218360984568"><ele>5.0</ele><time>2026-03-22T14:05:32.997Z</time></trkpt><trkpt lat="43.97657047541546" lon="12.691055332953786"><ele>5.0</ele><time>2026-03-22T14:05:33.997Z</time></trkpt><trkpt lat="43.97666264286556" lon="12.690893464289063"><ele>4.75</ele><time>2026-03-22T14:05:34.997Z</time></trkpt><trkpt lat="43.976741871438094" lon="12.690731501558474"><ele>4.5</ele><time>2026-03-22T14:05:35.997Z</time></trkpt><trkpt lat="43.9768231065446" lon="12.690566542988673"><ele>4.25</ele><time>2026-03-22T14:05:36.997Z</time></trkpt><trkpt lat="43.97690387717871" lon="12.690396085016696"><ele>4.0</ele><time>2026-03-22T14:05:37.997Z</time></trkpt><trkpt lat="43.97698165949871" lon="12.690229767788082"><ele>4.0</ele><time>2026-03-22T14:05:38.997Z</time></trkpt><trkpt lat="43.97706971748109" lon="12.690050763209564"><ele>4.0</ele><time>2026-03-22T14:05:39.997Z</time></trkpt><trkpt lat="43.97716264541354" lon="12.689873595953927"><ele>4.0</ele><time>2026-03-22T14:05:40.997Z</time></trkpt><trkpt lat="43.977256278052494" lon="12.689693433070445"><ele>4.0</ele><time>2026-03-22T14:05:41.997Z</time></trkpt><trkpt lat="43.97734423470622" lon="12.689523791784337"><ele>4.0</ele><time>2026-03-22T14:05:42.997Z</time></trkpt><trkpt lat="43.977421937995025" lon="12.689364126176686"><ele>4.0</ele><time>2026-03-22T14:05:43.997Z</time></trkpt><trkpt lat="43.97750206044419" lon="12.689205819236497"><ele>4.0</ele><time>2026-03-22T14:05:44.997Z</time></trkpt><trkpt lat="43.97758212515088" lon="12.689046462143207"><ele>3.75</ele><time>2026-03-22T14:05:45.997Z</time></trkpt><trkpt lat="43.9776557457048" lon="12.68889828328237"><ele>3.5</ele><time>2026-03-22T14:05:46.997Z</time></trkpt><trkpt lat="43.97772879107334" lon="12.688750578386433"><ele>3.25</ele><time>2026-03-22T14:05:47.997Z</time></trkpt><trkpt lat="43.977805950072224" lon="12.688604267114318"><ele>3.0</ele><time>2026-03-22T14:05:48.997Z</time></trkpt><trkpt lat="43.977881971358755" lon="12.688455349377385"><ele>3.0</ele><time>2026-03-22T14:05:49.997Z</time></trkpt><trkpt lat="43.977956840183474" lon="12.68831247510756"><ele>3.0</ele><time>2026-03-22T14:05:50.997Z</time></trkpt><trkpt lat="43.97803434496414" lon="12.688166677491248"><ele>3.0</ele><time>2026-03-22T14:05:51.997Z</time></trkpt><trkpt lat="43.97810898062303" lon="12.688013290112456"><ele>3.0</ele><time>2026-03-22T14:05:52.997Z</time></trkpt><trkpt lat="43.978185984895134" lon="12.687859499313156"><ele>3.25</ele><time>2026-03-22T14:05:53.997Z</time></trkpt><trkpt lat="43.978264007367734" lon="12.687698710056237"><ele>3.5</ele><time>2026-03-22T14:05:54.997Z</time></trkpt><trkpt lat="43.97834320142337" lon="12.687539520817912"><ele>3.75</ele><time>2026-03-22T14:05:55.997Z</time></trkpt><trkpt lat="43.97842745239675" lon="12.687373979574543"><ele>4.0</ele><time>2026-03-22T14:05:56.997Z</time></trkpt><trkpt lat="43.97851588868984" lon="12.687213459731733"><ele>4.25</ele><time>2026-03-22T14:05:57.997Z</time></trkpt><trkpt lat="43.97860220544371" lon="12.687060682597858"><ele>4.5</ele><time>2026-03-22T14:05:58.997Z</time></trkpt><trkpt lat="43.9786894462493" lon="12.6869307642218"><ele>4.75</ele><time>2026-03-22T14:05:59.997Z</time></trkpt><trkpt lat="43.97876575356906" lon="12.686832413313388"><ele>5.0</ele><time>2026-03-22T14:06:00.997Z</time></trkpt><trkpt lat="43.97883004084942" lon="12.686754328440852"><ele>5.0</ele><time>2026-03-22T14:06:01.997Z</time></trkpt><trkpt lat="43.97889860167198" lon="12.68670524919037"><ele>5.0</ele><time>2026-03-22T14:06:02.997Z</time></trkpt><trkpt lat="43.978981545319314" lon="12.68669454616087"><ele>5.0</ele><time>2026-03-22T14:06:03.997Z</time></trkpt><trkpt lat="43.97906093656232" lon="12.686705476028706"><ele>5.0</ele><time>2026-03-22T14:06:04.997Z</time></trkpt><trkpt lat="43.979123816424554" lon="12.686679860511314"><ele>5.0</ele><time>2026-03-22T14:06:05.997Z</time></trkpt><trkpt lat="43.97917105137732" lon="12.686604197932883"><ele>5.0</ele><time>2026-03-22T14:06:06.997Z</time></trkpt><trkpt lat="43.97919142940214" lon="12.686505308443731"><ele>5.2</ele><time>2026-03-22T14:06:07.997Z</time></trkpt><trkpt lat="43.97919170940928" lon="12.686380199333238"><ele>5.4</ele><time>2026-03-22T14:06:08.997Z</time></trkpt><trkpt lat="43.97920144147157" lon="12.686258170624276"><ele>5.6</ele><time>2026-03-22T14:06:09.997Z</time></trkpt><trkpt lat="43.97923731438333" lon="12.686136532177194"><ele>5.8</ele><time>2026-03-22T14:06:10.997Z</time></trkpt><trkpt lat="43.979299448052146" lon="12.686015107623641"><ele>6.0</ele><time>2026-03-22T14:06:11.997Z</time></trkpt><trkpt lat="43.97937912782031" lon="12.685891266916634"><ele>6.0</ele><time>2026-03-22T14:06:12.997Z</time></trkpt><trkpt lat="43.979465466603095" lon="12.685760398397507"><ele>6.0</ele><time>2026-03-22T14:06:13.997Z</time></trkpt><trkpt lat="43.97954953324348" lon="12.685638630908315"><ele>6.0</ele><time>2026-03-22T14:06:14.996Z</time></trkpt><trkpt lat="43.979635007770824" lon="12.685506065102873"><ele>6.0</ele><time>2026-03-22T14:06:15.996Z</time></trkpt><trkpt lat="43.979720892771745" lon="12.685374409888924"><ele>6.25</ele><time>2026-03-22T14:06:16.996Z</time></trkpt><trkpt lat="43.97980388187628" lon="12.68524740116078"><ele>6.5</ele><time>2026-03-22T14:06:17.995Z</time></trkpt><trkpt lat="43.97988586415021" lon="12.685126082565644"><ele>6.75</ele><time>2026-03-22T14:06:18.996Z</time></trkpt><trkpt lat="43.97996189676746" lon="12.685019299660494"><ele>7.0</ele><time>2026-03-22T14:06:19.996Z</time></trkpt><trkpt lat="43.98002915807448" lon="12.684906199542008"><ele>6.8</ele><time>2026-03-22T14:06:20.996Z</time></trkpt><trkpt lat="43.98009316029857" lon="12.684809955007488"><ele>6.6</ele><time>2026-03-22T14:06:21.995Z</time></trkpt><trkpt lat="43.980157483319125" lon="12.684711534829896"><ele>6.3999999999999995</ele><time>2026-03-22T14:06:22.995Z</time></trkpt><trkpt lat="43.98022718325483" lon="12.684611620404485"><ele>6.199999999999999</ele><time>2026-03-22T14:06:23.996Z</time></trkpt><trkpt lat="43.98029094476688" lon="12.684510667035754"><ele>6.0</ele><time>2026-03-22T14:06:24.996Z</time></trkpt><trkpt lat="43.98035542157262" lon="12.684405983797486"><ele>6.0</ele><time>2026-03-22T14:06:25.996Z</time></trkpt><trkpt lat="43.9804186176883" lon="12.684307146276947"><ele>6.0</ele><time>2026-03-22T14:06:26.996Z</time></trkpt><trkpt lat="43.98048909072546" lon="12.684211754810251"><ele>6.0</ele><time>2026-03-22T14:06:27.995Z</time></trkpt><trkpt lat="43.98055546647867" lon="12.684109220303476"><ele>6.0</ele><time>2026-03-22T14:06:28.995Z</time></trkpt><trkpt lat="43.98063008738821" lon="12.684004982376987"><ele>6.0</ele><time>2026-03-22T14:06:29.995Z</time></trkpt><trkpt lat="43.980706309485946" lon="12.683904133198391"><ele>6.0</ele><time>2026-03-22T14:06:30.995Z</time></trkpt><trkpt lat="43.98077790931285" lon="12.683800546707866"><ele>6.0</ele><time>2026-03-22T14:06:31.995Z</time></trkpt><trkpt lat="43.98084570118877" lon="12.683699987781075"><ele>6.0</ele><time>2026-03-22T14:06:32.995Z</time></trkpt><trkpt lat="43.98091620331859" lon="12.683593342894715"><ele>6.0</ele><time>2026-03-22T14:06:33.995Z</time></trkpt><trkpt lat="43.98099254247458" lon="12.683491303077068"><ele>6.0</ele><time>2026-03-22T14:06:34.995Z</time></trkpt><trkpt lat="43.981062260295566" lon="12.683383569608806"><ele>5.6</ele><time>2026-03-22T14:06:35.995Z</time></trkpt><trkpt lat="43.981130404366986" lon="12.683282547710352"><ele>5.199999999999999</ele><time>2026-03-22T14:06:36.995Z</time></trkpt><trkpt lat="43.9811990404232" lon="12.683173075224738"><ele>4.800000000000001</ele><time>2026-03-22T14:06:37.995Z</time></trkpt><trkpt lat="43.98127499761695" lon="12.683059853447535"><ele>4.4</ele><time>2026-03-22T14:06:38.995Z</time></trkpt><trkpt lat="43.98135527168005" lon="12.6829505169265"><ele>4.0</ele><time>2026-03-22T14:06:39.995Z</time></trkpt><trkpt lat="43.981427247943444" lon="12.682843561285399"><ele>4.5</ele><time>2026-03-22T14:06:40.995Z</time></trkpt><trkpt lat="43.981502279314824" lon="12.682734838466047"><ele>5.0</ele><time>2026-03-22T14:06:41.995Z</time></trkpt><trkpt lat="43.98158235640066" lon="12.682615277761082"><ele>5.5</ele><time>2026-03-22T14:06:42.995Z</time></trkpt><trkpt lat="43.98166472485808" lon="12.682494395514382"><ele>6.0</ele><time>2026-03-22T14:06:43.995Z</time></trkpt><trkpt lat="43.9817510348106" lon="12.68237151443638"><ele>5.0</ele><time>2026-03-22T14:06:44.995Z</time></trkpt><trkpt lat="43.98184040518217" lon="12.68224869242822"><ele>4.0</ele><time>2026-03-22T14:06:45.995Z</time></trkpt><trkpt lat="43.981927390354215" lon="12.682132345868334"><ele>3.0</ele><time>2026-03-22T14:06:46.995Z</time></trkpt><trkpt lat="43.98200850666232" lon="12.68201636274946"><ele>2.0</ele><time>2026-03-22T14:06:47.995Z</time></trkpt><trkpt lat="43.982087805382086" lon="12.681889666589118"><ele>2.0</ele><time>2026-03-22T14:06:48.995Z</time></trkpt><trkpt lat="43.98216274935231" lon="12.681774329666725"><ele>2.0</ele><time>2026-03-22T14:06:49.995Z</time></trkpt><trkpt lat="43.982232163814935" lon="12.681667306480499"><ele>2.0</ele><time>2026-03-22T14:06:50.995Z</time></trkpt><trkpt lat="43.98230022411882" lon="12.681566517909205"><ele>2.0</ele><time>2026-03-22T14:06:51.995Z</time></trkpt><trkpt lat="43.982371872171306" lon="12.681465041660145"><ele>2.0</ele><time>2026-03-22T14:06:52.995Z</time></trkpt><trkpt lat="43.98244704583411" lon="12.681360380496598"><ele>1.6</ele><time>2026-03-22T14:06:53.995Z</time></trkpt><trkpt lat="43.982519064979975" lon="12.68124481820796"><ele>1.2000000000000002</ele><time>2026-03-22T14:06:54.995Z</time></trkpt><trkpt lat="43.982591899240326" lon="12.681135180809067"><ele>0.8</ele><time>2026-03-22T14:06:55.995Z</time></trkpt><trkpt lat="43.98266223754879" lon="12.681032777006054"><ele>0.4</ele><time>2026-03-22T14:06:56.995Z</time></trkpt><trkpt lat="43.98273081359713" lon="12.680929836382383"><ele>0.0</ele><time>2026-03-22T14:06:57.995Z</time></trkpt><trkpt lat="43.982804121546984" lon="12.680815179655722"><ele>0.0</ele><time>2026-03-22T14:06:58.995Z</time></trkpt><trkpt lat="43.98287937014134" lon="12.680691945865092"><ele>0.0</ele><time>2026-03-22T14:06:59.995Z</time></trkpt><trkpt lat="43.982962661188736" lon="12.68057086097354"><ele>0.0</ele><time>2026-03-22T14:07:00.995Z</time></trkpt><trkpt lat="43.98303797601079" lon="12.680441769761615"><ele>0.0</ele><time>2026-03-22T14:07:01.995Z</time></trkpt><trkpt lat="43.98312351930434" lon="12.680309251210906"><ele>0.5</ele><time>2026-03-22T14:07:02.995Z</time></trkpt><trkpt lat="43.98320490060796" lon="12.680173841148614"><ele>1.0</ele><time>2026-03-22T14:07:03.995Z</time></trkpt><trkpt lat="43.983286914211014" lon="12.680035438813956"><ele>1.5</ele><time>2026-03-22T14:07:04.995Z</time></trkpt><trkpt lat="43.98337192797864" lon="12.679902691578686"><ele>2.0</ele><time>2026-03-22T14:07:05.995Z</time></trkpt><trkpt lat="43.98345970893722" lon="12.679765135851524"><ele>2.0</ele><time>2026-03-22T14:07:06.995Z</time></trkpt><trkpt lat="43.98355440630693" lon="12.679612097051784"><ele>2.0</ele><time>2026-03-22T14:07:07.995Z</time></trkpt><trkpt lat="43.98365506167206" lon="12.679454755582123"><ele>2.0</ele><time>2026-03-22T14:07:08.995Z</time></trkpt><trkpt lat="43.98375465646537" lon="12.679297122094756"><ele>2.0</ele><time>2026-03-22T14:07:09.995Z</time></trkpt><trkpt lat="43.983857219646694" lon="12.679140359976605"><ele>2.25</ele><time>2026-03-22T14:07:10.995Z</time></trkpt><trkpt lat="43.98395637623673" lon="12.678983155048174"><ele>2.5</ele><time>2026-03-22T14:07:11.995Z</time></trkpt><trkpt lat="43.98404272938694" lon="12.678846290076438"><ele>2.75</ele><time>2026-03-22T14:07:12.995Z</time></trkpt><trkpt lat="43.98411853186776" lon="12.678728831577137"><ele>3.0</ele><time>2026-03-22T14:07:13.995Z</time></trkpt><trkpt lat="43.984183166856724" lon="12.678621163300376"><ele>3.0</ele><time>2026-03-22T14:07:14.995Z</time></trkpt><trkpt lat="43.984240189924456" lon="12.678519611723724"><ele>3.0</ele><time>2026-03-22T14:07:15.995Z</time></trkpt><trkpt lat="43.98428835119131" lon="12.67843890610643"><ele>3.0</ele><time>2026-03-22T14:07:16.995Z</time></trkpt><trkpt lat="43.98435403923833" lon="12.678322652301198"><ele>3.0</ele><time>2026-03-22T14:07:18.995Z</time></trkpt><trkpt lat="43.98440024932755" lon="12.678251590554126"><ele>3.0</ele><time>2026-03-22T14:07:21.995Z</time></trkpt><trkpt lat="43.98445340879844" lon="12.678162828528759"><ele>3.0</ele><time>2026-03-22T14:08:04.995Z</time></trkpt><trkpt lat="43.9845037663715" lon="12.678073253735914"><ele>3.0</ele><time>2026-03-22T14:08:06.995Z</time></trkpt><trkpt lat="43.98455024047586" lon="12.677993350769691"><ele>3.0</ele><time>2026-03-22T14:08:07.995Z</time></trkpt><trkpt lat="43.98460156321373" lon="12.677903245223566"><ele>3.0</ele><time>2026-03-22T14:08:08.995Z</time></trkpt><trkpt lat="43.984654190537235" lon="12.677807506471963"><ele>3.0</ele><time>2026-03-22T14:08:09.995Z</time></trkpt><trkpt lat="43.984715750526426" lon="12.67770440362586"><ele>3.0</ele><time>2026-03-22T14:08:10.995Z</time></trkpt><trkpt lat="43.98477707705311" lon="12.677603465842212"><ele>3.0</ele><time>2026-03-22T14:08:11.995Z</time></trkpt><trkpt lat="43.984844369061584" lon="12.67748680604627"><ele>3.0</ele><time>2026-03-22T14:08:12.995Z</time></trkpt><trkpt lat="43.98490397549364" lon="12.677391749095207"><ele>3.0</ele><time>2026-03-22T14:08:13.995Z</time></trkpt><trkpt lat="43.98496866405412" lon="12.677286453601342"><ele>3.0</ele><time>2026-03-22T14:08:14.995Z</time></trkpt><trkpt lat="43.9850301262732" lon="12.677183038444834"><ele>3.0</ele><time>2026-03-22T14:08:15.995Z</time></trkpt><trkpt lat="43.985097518932726" lon="12.677067199650324"><ele>3.0</ele><time>2026-03-22T14:08:16.995Z</time></trkpt><trkpt lat="43.985159113655946" lon="12.676952466805261"><ele>3.2</ele><time>2026-03-22T14:08:17.995Z</time></trkpt><trkpt lat="43.98522452195564" lon="12.676837196211348"><ele>3.4</ele><time>2026-03-22T14:08:18.995Z</time></trkpt><trkpt lat="43.985285700990474" lon="12.676714997889363"><ele>3.6000000000000005</ele><time>2026-03-22T14:08:19.995Z</time></trkpt><trkpt lat="43.98535306182139" lon="12.676604205618954"><ele>3.8000000000000003</ele><time>2026-03-22T14:08:20.995Z</time></trkpt><trkpt lat="43.98541952941677" lon="12.676493821171986"><ele>4.0</ele><time>2026-03-22T14:08:21.995Z</time></trkpt><trkpt lat="43.985489640713254" lon="12.676378853375684"><ele>4.0</ele><time>2026-03-22T14:08:22.995Z</time></trkpt><trkpt lat="43.985558711290814" lon="12.67626886769896"><ele>4.0</ele><time>2026-03-22T14:08:23.995Z</time></trkpt><trkpt lat="43.98562871975013" lon="12.676156073150553"><ele>4.0</ele><time>2026-03-22T14:08:24.995Z</time></trkpt><trkpt lat="43.985691854922145" lon="12.676039545966418"><ele>4.0</ele><time>2026-03-22T14:08:25.995Z</time></trkpt><trkpt lat="43.985762311476265" lon="12.67591842760019"><ele>4.0</ele><time>2026-03-22T14:08:26.995Z</time></trkpt><trkpt lat="43.98583143205505" lon="12.675800885792952"><ele>4.0</ele><time>2026-03-22T14:08:27.995Z</time></trkpt><trkpt lat="43.985900007718826" lon="12.675677267287027"><ele>4.0</ele><time>2026-03-22T14:08:28.995Z</time></trkpt><trkpt lat="43.98597142808756" lon="12.67557273620238"><ele>4.0</ele><time>2026-03-22T14:08:29.995Z</time></trkpt><trkpt lat="43.9860415539795" lon="12.67546763233023"><ele>4.0</ele><time>2026-03-22T14:08:30.996Z</time></trkpt><trkpt lat="43.9861059884603" lon="12.675345567273784"><ele>4.0</ele><time>2026-03-22T14:08:31.996Z</time></trkpt><trkpt lat="43.986177378000896" lon="12.675225458194689"><ele>4.0</ele><time>2026-03-22T14:08:32.995Z</time></trkpt><trkpt lat="43.98624807007161" lon="12.675098699858733"><ele>4.0</ele><time>2026-03-22T14:08:33.995Z</time></trkpt><trkpt lat="43.98631694525819" lon="12.674976976899243"><ele>4.0</ele><time>2026-03-22T14:08:34.995Z</time></trkpt><trkpt lat="43.986390466858886" lon="12.674848613751864"><ele>4.0</ele><time>2026-03-22T14:08:35.995Z</time></trkpt><trkpt lat="43.98646554963825" lon="12.674717825453353"><ele>4.0</ele><time>2026-03-22T14:08:36.995Z</time></trkpt><trkpt lat="43.98654182423098" lon="12.67458255224388"><ele>4.0</ele><time>2026-03-22T14:08:37.995Z</time></trkpt><trkpt lat="43.98662479714987" lon="12.674436032349329"><ele>4.0</ele><time>2026-03-22T14:08:38.995Z</time></trkpt><trkpt lat="43.986708515398114" lon="12.674288953610057"><ele>4.0</ele><time>2026-03-22T14:08:39.995Z</time></trkpt><trkpt lat="43.98678882672611" lon="12.674151193898183"><ele>3.75</ele><time>2026-03-22T14:08:40.995Z</time></trkpt><trkpt lat="43.986864011974596" lon="12.674020853748244"><ele>3.5</ele><time>2026-03-22T14:08:41.995Z</time></trkpt><trkpt lat="43.98694180947007" lon="12.673894745422094"><ele>3.25</ele><time>2026-03-22T14:08:42.995Z</time></trkpt><trkpt lat="43.98701441398989" lon="12.673763159990981"><ele>3.0</ele><time>2026-03-22T14:08:43.995Z</time></trkpt><trkpt lat="43.98708188960302" lon="12.673628197875887"><ele>4.0</ele><time>2026-03-22T14:08:44.995Z</time></trkpt><trkpt lat="43.98714631146093" lon="12.673512556334105"><ele>5.0</ele><time>2026-03-22T14:08:45.995Z</time></trkpt><trkpt lat="43.98720584360373" lon="12.673402579438719"><ele>6.000000000000001</ele><time>2026-03-22T14:08:46.995Z</time></trkpt><trkpt lat="43.98726688351939" lon="12.673292700144502"><ele>7.0</ele><time>2026-03-22T14:08:47.995Z</time></trkpt><trkpt lat="43.98731849219737" lon="12.673199878251438"><ele>8.0</ele><time>2026-03-22T14:08:48.995Z</time></trkpt><trkpt lat="43.98738006608387" lon="12.67310843659694"><ele>8.0</ele><time>2026-03-22T14:08:49.995Z</time></trkpt><trkpt lat="43.98742966134025" lon="12.67302269252932"><ele>8.0</ele><time>2026-03-22T14:08:50.995Z</time></trkpt><trkpt lat="43.9874758901633" lon="12.672941568134837"><ele>8.0</ele><time>2026-03-22T14:08:51.995Z</time></trkpt><trkpt lat="43.98754771441701" lon="12.672803846360788"><ele>8.0</ele><time>2026-03-22T14:08:53.995Z</time></trkpt><trkpt lat="43.98762774480589" lon="12.672671154677744"><ele>8.0</ele><time>2026-03-22T14:08:55.995Z</time></trkpt><trkpt lat="43.98767519828631" lon="12.672577805166082"><ele>7.4</ele><time>2026-03-22T14:08:57.995Z</time></trkpt><trkpt lat="43.987721966393735" lon="12.672453206682226"><ele>6.800000000000001</ele><time>2026-03-22T14:09:00.995Z</time></trkpt><trkpt lat="43.987788801776475" lon="12.672328086427738"><ele>6.2</ele><time>2026-03-22T14:09:02.995Z</time></trkpt><trkpt lat="43.987857778963985" lon="12.672190337045862"><ele>5.6</ele><time>2026-03-22T14:09:04.995Z</time></trkpt><trkpt lat="43.98790844774625" lon="12.672113519161536"><ele>5.0</ele><time>2026-03-22T14:09:05.995Z</time></trkpt><trkpt lat="43.9879631647553" lon="12.672037732081584"><ele>5.0</ele><time>2026-03-22T14:09:06.995Z</time></trkpt><trkpt lat="43.98801310249956" lon="12.671961116923395"><ele>5.0</ele><time>2026-03-22T14:09:07.995Z</time></trkpt><trkpt lat="43.98806370425517" lon="12.671873070734101"><ele>5.0</ele><time>2026-03-22T14:09:08.995Z</time></trkpt><trkpt lat="43.988115033257344" lon="12.67177488471348"><ele>5.0</ele><time>2026-03-22T14:09:09.995Z</time></trkpt><trkpt lat="43.98816645302005" lon="12.671687043994627"><ele>5.0</ele><time>2026-03-22T14:09:10.995Z</time></trkpt><trkpt lat="43.98821724081136" lon="12.671598067308969"><ele>5.0</ele><time>2026-03-22T14:09:11.995Z</time></trkpt><trkpt lat="43.98826550299789" lon="12.671512642172827"><ele>4.833333333333334</ele><time>2026-03-22T14:09:12.995Z</time></trkpt><trkpt lat="43.98830572738816" lon="12.671437707387398"><ele>4.666666666666667</ele><time>2026-03-22T14:09:13.995Z</time></trkpt><trkpt lat="43.98834759281852" lon="12.671371261452895"><ele>4.5</ele><time>2026-03-22T14:09:14.995Z</time></trkpt><trkpt lat="43.98841107787933" lon="12.671255510283908"><ele>4.333333333333333</ele><time>2026-03-22T14:09:16.995Z</time></trkpt><trkpt lat="43.98846226733449" lon="12.671172817230971"><ele>4.166666666666666</ele><time>2026-03-22T14:09:18.995Z</time></trkpt><trkpt lat="43.98850909984861" lon="12.671087367847935"><ele>4.0</ele><time>2026-03-22T14:09:22.995Z</time></trkpt><trkpt lat="43.988574329193966" lon="12.670991597528252"><ele>4.6</ele><time>2026-03-22T14:09:24.995Z</time></trkpt><trkpt lat="43.98863622671539" lon="12.670879963774357"><ele>5.2</ele><time>2026-03-22T14:09:26.996Z</time></trkpt><trkpt lat="43.988699079987654" lon="12.670767267261798"><ele>5.799999999999999</ele><time>2026-03-22T14:09:28.996Z</time></trkpt><trkpt lat="43.98878796122121" lon="12.670612351337791"><ele>6.3999999999999995</ele><time>2026-03-22T14:09:30.996Z</time></trkpt><trkpt lat="43.988839552113866" lon="12.67051021922619"><ele>7.0</ele><time>2026-03-22T14:09:31.996Z</time></trkpt><trkpt lat="43.98889758301404" lon="12.670403947091886"><ele>7.0</ele><time>2026-03-22T14:09:32.996Z</time></trkpt><trkpt lat="43.988951343585434" lon="12.67030314773998"><ele>6.999999999999999</ele><time>2026-03-22T14:09:33.996Z</time></trkpt><trkpt lat="43.989003797926514" lon="12.6702122271446"><ele>6.999999999999999</ele><time>2026-03-22T14:09:34.996Z</time></trkpt><trkpt lat="43.989053791166754" lon="12.670109423099053"><ele>7.0</ele><time>2026-03-22T14:09:35.996Z</time></trkpt><trkpt lat="43.989108413190245" lon="12.66999621694641"><ele>7.0</ele><time>2026-03-22T14:09:36.996Z</time></trkpt><trkpt lat="43.98916855964605" lon="12.66988545510859"><ele>7.0</ele><time>2026-03-22T14:09:37.996Z</time></trkpt><trkpt lat="43.98923109127205" lon="12.669758794354674"><ele>6.999999999999999</ele><time>2026-03-22T14:09:38.996Z</time></trkpt><trkpt lat="43.989296790301765" lon="12.669639229024643"><ele>6.999999999999999</ele><time>2026-03-22T14:09:39.996Z</time></trkpt><trkpt lat="43.98935171426032" lon="12.669521331022922"><ele>7.0</ele><time>2026-03-22T14:09:40.996Z</time></trkpt><trkpt lat="43.98940499724703" lon="12.669409733099581"><ele>7.0</ele><time>2026-03-22T14:09:41.996Z</time></trkpt><trkpt lat="43.989451610416445" lon="12.669300227630313"><ele>7.333333333333334</ele><time>2026-03-22T14:09:42.996Z</time></trkpt><trkpt lat="43.989499993448106" lon="12.669201789053151"><ele>7.666666666666667</ele><time>2026-03-22T14:09:43.996Z</time></trkpt><trkpt lat="43.98954550565756" lon="12.66910675455094"><ele>8.0</ele><time>2026-03-22T14:09:44.996Z</time></trkpt><trkpt lat="43.989586718338295" lon="12.6690173635802"><ele>8.333333333333334</ele><time>2026-03-22T14:09:45.996Z</time></trkpt><trkpt lat="43.989626662640646" lon="12.668933340533803"><ele>8.666666666666666</ele><time>2026-03-22T14:09:46.996Z</time></trkpt><trkpt lat="43.98966896073708" lon="12.668835096465498"><ele>9.0</ele><time>2026-03-22T14:09:47.996Z</time></trkpt><trkpt lat="43.98971298970832" lon="12.668704329952853"><ele>9.75</ele><time>2026-03-22T14:09:48.996Z</time></trkpt><trkpt lat="43.989773357041216" lon="12.668547235615023"><ele>10.5</ele><time>2026-03-22T14:09:49.996Z</time></trkpt><trkpt lat="43.9898526240904" lon="12.668383729258677"><ele>11.25</ele><time>2026-03-22T14:09:50.996Z</time></trkpt><trkpt lat="43.9899160639745" lon="12.668254848098046"><ele>12.0</ele><time>2026-03-22T14:09:51.996Z</time></trkpt><trkpt lat="43.98996995657578" lon="12.668133786905994"><ele>12.0</ele><time>2026-03-22T14:09:52.996Z</time></trkpt><trkpt lat="43.990014665057046" lon="12.668009322646576"><ele>12.0</ele><time>2026-03-22T14:09:53.996Z</time></trkpt><trkpt lat="43.990060975880816" lon="12.667877128460796"><ele>12.0</ele><time>2026-03-22T14:09:54.996Z</time></trkpt><trkpt lat="43.99010498726332" lon="12.667750154205232"><ele>12.0</ele><time>2026-03-22T14:09:55.996Z</time></trkpt><trkpt lat="43.99014897649367" lon="12.667627048506034"><ele>12.0</ele><time>2026-03-22T14:09:56.996Z</time></trkpt><trkpt lat="43.99019380072846" lon="12.667495425258895"><ele>12.0</ele><time>2026-03-22T14:09:57.996Z</time></trkpt><trkpt lat="43.99023809265415" lon="12.667357706906403"><ele>12.0</ele><time>2026-03-22T14:09:58.996Z</time></trkpt><trkpt lat="43.9902864078125" lon="12.667219722101597"><ele>12.0</ele><time>2026-03-22T14:09:59.996Z</time></trkpt><trkpt lat="43.99033708892867" lon="12.667077586552326"><ele>12.0</ele><time>2026-03-22T14:10:00.996Z</time></trkpt><trkpt lat="43.9903825286494" lon="12.666940867037017"><ele>12.0</ele><time>2026-03-22T14:10:01.996Z</time></trkpt><trkpt lat="43.990429760976596" lon="12.66682579175846"><ele>11.4</ele><time>2026-03-22T14:10:02.996Z</time></trkpt><trkpt lat="43.99046974012335" lon="12.66671115865456"><ele>10.799999999999999</ele><time>2026-03-22T14:10:03.996Z</time></trkpt><trkpt lat="43.990516602390365" lon="12.666593177125943"><ele>10.2</ele><time>2026-03-22T14:10:04.996Z</time></trkpt><trkpt lat="43.99056322043434" lon="12.666478826371604"><ele>9.6</ele><time>2026-03-22T14:10:05.996Z</time></trkpt><trkpt lat="43.990618008635465" lon="12.666370377837755"><ele>9.0</ele><time>2026-03-22T14:10:06.996Z</time></trkpt><trkpt lat="43.99067471371188" lon="12.666263974801671"><ele>9.0</ele><time>2026-03-22T14:10:07.996Z</time></trkpt><trkpt lat="43.99073295578172" lon="12.666151971720494"><ele>9.0</ele><time>2026-03-22T14:10:08.996Z</time></trkpt><trkpt lat="43.99080246026559" lon="12.66604211121494"><ele>9.0</ele><time>2026-03-22T14:10:09.996Z</time></trkpt><trkpt lat="43.990866804582225" lon="12.665924025014085"><ele>9.0</ele><time>2026-03-22T14:10:10.996Z</time></trkpt><trkpt lat="43.990937996827896" lon="12.665806772056305"><ele>9.0</ele><time>2026-03-22T14:10:11.996Z</time></trkpt><trkpt lat="43.991012043678445" lon="12.665677159425192"><ele>9.25</ele><time>2026-03-22T14:10:12.996Z</time></trkpt><trkpt lat="43.99108728114188" lon="12.665545336495615"><ele>9.5</ele><time>2026-03-22T14:10:13.996Z</time></trkpt><trkpt lat="43.99115962140404" lon="12.665419358919848"><ele>9.75</ele><time>2026-03-22T14:10:14.996Z</time></trkpt><trkpt lat="43.99122862239058" lon="12.665293776834558"><ele>10.0</ele><time>2026-03-22T14:10:15.996Z</time></trkpt><trkpt lat="43.99129371670451" lon="12.665177081639431"><ele>10.0</ele><time>2026-03-22T14:10:16.996Z</time></trkpt><trkpt lat="43.99136163852319" lon="12.66505935306581"><ele>10.0</ele><time>2026-03-22T14:10:17.996Z</time></trkpt><trkpt lat="43.99142274305535" lon="12.664949139464424"><ele>10.0</ele><time>2026-03-22T14:10:18.996Z</time></trkpt><trkpt lat="43.991475852239965" lon="12.664845206946657"><ele>10.0</ele><time>2026-03-22T14:10:19.996Z</time></trkpt><trkpt lat="43.9915347547399" lon="12.664746386897265"><ele>10.0</ele><time>2026-03-22T14:10:20.996Z</time></trkpt><trkpt lat="43.991595046589204" lon="12.66463535674936"><ele>10.0</ele><time>2026-03-22T14:10:21.996Z</time></trkpt><trkpt lat="43.991659886670085" lon="12.664510327856753"><ele>10.0</ele><time>2026-03-22T14:10:22.996Z</time></trkpt><trkpt lat="43.99173137284114" lon="12.664382261229818"><ele>10.0</ele><time>2026-03-22T14:10:23.996Z</time></trkpt><trkpt lat="43.991795523006246" lon="12.664260518689733"><ele>10.0</ele><time>2026-03-22T14:10:24.996Z</time></trkpt><trkpt lat="43.99186123517419" lon="12.664142371763594"><ele>10.0</ele><time>2026-03-22T14:10:25.996Z</time></trkpt><trkpt lat="43.991925058787295" lon="12.664018632890208"><ele>10.4</ele><time>2026-03-22T14:10:26.995Z</time></trkpt><trkpt lat="43.99199779923948" lon="12.663892688431028"><ele>10.8</ele><time>2026-03-22T14:10:27.995Z</time></trkpt><trkpt lat="43.992060856245054" lon="12.663770752600927"><ele>11.2</ele><time>2026-03-22T14:10:28.995Z</time></trkpt><trkpt lat="43.99211635800204" lon="12.663659000333514"><ele>11.6</ele><time>2026-03-22T14:10:29.995Z</time></trkpt><trkpt lat="43.992174740421525" lon="12.663555679257998"><ele>12.0</ele><time>2026-03-22T14:10:30.995Z</time></trkpt><trkpt lat="43.992229238429225" lon="12.663466481061876"><ele>12.166666666666666</ele><time>2026-03-22T14:10:31.995Z</time></trkpt><trkpt lat="43.992273110711956" lon="12.663375805207785"><ele>12.333333333333332</ele><time>2026-03-22T14:10:32.995Z</time></trkpt><trkpt lat="43.99232052880516" lon="12.663282375361064"><ele>12.5</ele><time>2026-03-22T14:10:33.995Z</time></trkpt><trkpt lat="43.99236789259926" lon="12.663185831387441"><ele>12.666666666666666</ele><time>2026-03-22T14:10:34.995Z</time></trkpt><trkpt lat="43.99241171635642" lon="12.663100109146422"><ele>12.833333333333332</ele><time>2026-03-22T14:10:35.995Z</time></trkpt><trkpt lat="43.99244598754704" lon="12.663021119508707"><ele>13.0</ele><time>2026-03-22T14:10:36.994Z</time></trkpt><trkpt lat="43.99250037049471" lon="12.662915853704819"><ele>12.833333333333332</ele><time>2026-03-22T14:10:38.995Z</time></trkpt><trkpt lat="43.99254454559996" lon="12.66282789608748"><ele>12.666666666666666</ele><time>2026-03-22T14:10:40.994Z</time></trkpt><trkpt lat="43.99259431811024" lon="12.662743709794713"><ele>12.5</ele><time>2026-03-22T14:10:43.994Z</time></trkpt><trkpt lat="43.99269633927067" lon="12.662663438529615"><ele>12.333333333333332</ele><time>2026-03-22T14:10:45.994Z</time></trkpt><trkpt lat="43.99276555432546" lon="12.662661600641965"><ele>12.166666666666666</ele><time>2026-03-22T14:10:46.994Z</time></trkpt><trkpt lat="43.99283181313498" lon="12.662651647368735"><ele>12.0</ele><time>2026-03-22T14:10:47.994Z</time></trkpt><trkpt lat="43.99288073480976" lon="12.662540625796282"><ele>12.0</ele><time>2026-03-22T14:10:49.994Z</time></trkpt><trkpt lat="43.99287190487544" lon="12.662403071595918"><ele>12.0</ele><time>2026-03-22T14:10:51.994Z</time></trkpt><trkpt lat="43.992797530131966" lon="12.66226448325412"><ele>12.0</ele><time>2026-03-22T14:10:53.994Z</time></trkpt><trkpt lat="43.992762537808225" lon="12.662178913436609"><ele>12.0</ele><time>2026-03-22T14:10:54.994Z</time></trkpt><trkpt lat="43.992745911301164" lon="12.662074607420085"><ele>12.0</ele><time>2026-03-22T14:10:55.994Z</time></trkpt><trkpt lat="43.99275501094967" lon="12.661961803249188"><ele>12.25</ele><time>2026-03-22T14:10:56.994Z</time></trkpt><trkpt lat="43.99277447518445" lon="12.66181489198357"><ele>12.5</ele><time>2026-03-22T14:10:57.994Z</time></trkpt><trkpt lat="43.99281561876334" lon="12.66163222604215"><ele>12.75</ele><time>2026-03-22T14:10:58.994Z</time></trkpt><trkpt lat="43.99283409197906" lon="12.661430508337965"><ele>13.0</ele><time>2026-03-22T14:10:59.994Z</time></trkpt><trkpt lat="43.99282227102338" lon="12.661232735626434"><ele>13.333333333333332</ele><time>2026-03-22T14:11:00.994Z</time></trkpt><trkpt lat="43.99279430102498" lon="12.661014290074148"><ele>13.666666666666668</ele><time>2026-03-22T14:11:01.994Z</time></trkpt><trkpt lat="43.99276063518941" lon="12.660778585145785"><ele>14.0</ele><time>2026-03-22T14:11:02.994Z</time></trkpt><trkpt lat="43.99272818437633" lon="12.660553295976888"><ele>14.0</ele><time>2026-03-22T14:11:03.994Z</time></trkpt><trkpt lat="43.992694808020026" lon="12.660346634091882"><ele>14.0</ele><time>2026-03-22T14:11:04.994Z</time></trkpt><trkpt lat="43.992668711705726" lon="12.660159500001939"><ele>14.0</ele><time>2026-03-22T14:11:05.994Z</time></trkpt><trkpt lat="43.99264172199688" lon="12.659974114547165"><ele>14.0</ele><time>2026-03-22T14:11:06.994Z</time></trkpt><trkpt lat="43.99261604457193" lon="12.659784521976578"><ele>14.0</ele><time>2026-03-22T14:11:07.994Z</time></trkpt><trkpt lat="43.99258915871288" lon="12.65959389685677"><ele>14.0</ele><time>2026-03-22T14:11:08.994Z</time></trkpt><trkpt lat="43.9925610040007" lon="12.659404464164249"><ele>14.0</ele><time>2026-03-22T14:11:09.994Z</time></trkpt><trkpt lat="43.99253559103712" lon="12.659212894180769"><ele>14.0</ele><time>2026-03-22T14:11:10.994Z</time></trkpt><trkpt lat="43.99251229926347" lon="12.659018608503331"><ele>13.75</ele><time>2026-03-22T14:11:11.994Z</time></trkpt><trkpt lat="43.992495363750855" lon="12.658829547805784"><ele>13.5</ele><time>2026-03-22T14:11:12.994Z</time></trkpt><trkpt lat="43.99247310093785" lon="12.658646883204392"><ele>13.25</ele><time>2026-03-22T14:11:13.994Z</time></trkpt><trkpt lat="43.992454286716885" lon="12.65848535935458"><ele>13.0</ele><time>2026-03-22T14:11:14.994Z</time></trkpt><trkpt lat="43.99244518887298" lon="12.65836640483963"><ele>12.999999999999998</ele><time>2026-03-22T14:11:15.994Z</time></trkpt><trkpt lat="43.9924346444663" lon="12.658275415213518"><ele>13.0</ele><time>2026-03-22T14:11:16.994Z</time></trkpt><trkpt lat="43.99242723723769" lon="12.65817105521571"><ele>13.0</ele><time>2026-03-22T14:11:18.994Z</time></trkpt><trkpt lat="43.99241625684005" lon="12.658032631158253"><ele>13.0</ele><time>2026-03-22T14:11:21.994Z</time></trkpt><trkpt lat="43.99240973389026" lon="12.657870839101934"><ele>12.999999999999998</ele><time>2026-03-22T14:11:23.994Z</time></trkpt><trkpt lat="43.99238221309246" lon="12.65776393481042"><ele>13.0</ele><time>2026-03-22T14:11:24.994Z</time></trkpt><trkpt lat="43.992357259725594" lon="12.657673528413298"><ele>13.2</ele><time>2026-03-22T14:11:25.994Z</time></trkpt><trkpt lat="43.99232596562126" lon="12.657571491728786"><ele>13.4</ele><time>2026-03-22T14:11:26.994Z</time></trkpt><trkpt lat="43.99229985707461" lon="12.657457830323864"><ele>13.599999999999998</ele><time>2026-03-22T14:11:27.994Z</time></trkpt><trkpt lat="43.992282931773" lon="12.657321981093217"><ele>13.799999999999999</ele><time>2026-03-22T14:11:28.994Z</time></trkpt><trkpt lat="43.992266893299856" lon="12.657176852130727"><ele>14.0</ele><time>2026-03-22T14:11:29.994Z</time></trkpt><trkpt lat="43.99225019440958" lon="12.657029537223707"><ele>14.0</ele><time>2026-03-22T14:11:30.994Z</time></trkpt><trkpt lat="43.99223218324377" lon="12.656867840853119"><ele>14.0</ele><time>2026-03-22T14:11:31.994Z</time></trkpt><trkpt lat="43.992203940105654" lon="12.656683054693012"><ele>14.0</ele><time>2026-03-22T14:11:32.994Z</time></trkpt><trkpt lat="43.992183169590305" lon="12.656470817952716"><ele>14.0</ele><time>2026-03-22T14:11:33.994Z</time></trkpt><trkpt lat="43.99216820312556" lon="12.656251513903701"><ele>14.25</ele><time>2026-03-22T14:11:34.994Z</time></trkpt><trkpt lat="43.99215531349053" lon="12.656058318495603"><ele>14.5</ele><time>2026-03-22T14:11:35.994Z</time></trkpt><trkpt lat="43.99213445516752" lon="12.655869012209033"><ele>14.75</ele><time>2026-03-22T14:11:36.994Z</time></trkpt><trkpt lat="43.9921085383717" lon="12.655672430354462"><ele>15.0</ele><time>2026-03-22T14:11:37.994Z</time></trkpt><trkpt lat="43.992083323509185" lon="12.65546978389239"><ele>15.333333333333332</ele><time>2026-03-22T14:11:38.994Z</time></trkpt><trkpt lat="43.99206304278186" lon="12.655269577362617"><ele>15.666666666666666</ele><time>2026-03-22T14:11:39.994Z</time></trkpt><trkpt lat="43.99205196539289" lon="12.655062743588624"><ele>16.0</ele><time>2026-03-22T14:11:40.994Z</time></trkpt><trkpt lat="43.99205874567656" lon="12.65483891530453"><ele>16.0</ele><time>2026-03-22T14:11:41.994Z</time></trkpt><trkpt lat="43.992072135024706" lon="12.654611522264872"><ele>16.0</ele><time>2026-03-22T14:11:42.994Z</time></trkpt><trkpt lat="43.99209463637108" lon="12.65438763618042"><ele>16.0</ele><time>2026-03-22T14:11:43.994Z</time></trkpt><trkpt lat="43.99211708065264" lon="12.65417970503075"><ele>15.75</ele><time>2026-03-22T14:11:44.994Z</time></trkpt><trkpt lat="43.99214314211501" lon="12.65398758072455"><ele>15.5</ele><time>2026-03-22T14:11:45.994Z</time></trkpt><trkpt lat="43.992172230604154" lon="12.653785924572398"><ele>15.25</ele><time>2026-03-22T14:11:46.994Z</time></trkpt><trkpt lat="43.99220779890601" lon="12.653584095158717"><ele>15.0</ele><time>2026-03-22T14:11:47.994Z</time></trkpt><trkpt lat="43.992254099062535" lon="12.653377582949922"><ele>14.333333333333332</ele><time>2026-03-22T14:11:48.994Z</time></trkpt><trkpt lat="43.992315445871846" lon="12.65317840420867"><ele>13.666666666666666</ele><time>2026-03-22T14:11:49.994Z</time></trkpt><trkpt lat="43.992382385051876" lon="12.65298777930281"><ele>13.0</ele><time>2026-03-22T14:11:50.994Z</time></trkpt><trkpt lat="43.99244884512981" lon="12.652805143063157"><ele>13.0</ele><time>2026-03-22T14:11:51.994Z</time></trkpt><trkpt lat="43.992519114674586" lon="12.652619672797332"><ele>13.0</ele><time>2026-03-22T14:11:52.994Z</time></trkpt><trkpt lat="43.99259376327518" lon="12.652438243399239"><ele>13.0</ele><time>2026-03-22T14:11:53.994Z</time></trkpt><trkpt lat="43.992667225393625" lon="12.652262765347112"><ele>13.0</ele><time>2026-03-22T14:11:54.994Z</time></trkpt><trkpt lat="43.99274707491021" lon="12.652084211981858"><ele>12.666666666666666</ele><time>2026-03-22T14:11:55.994Z</time></trkpt><trkpt lat="43.99282491947569" lon="12.651894555014634"><ele>12.333333333333332</ele><time>2026-03-22T14:11:56.994Z</time></trkpt><trkpt lat="43.99290928937406" lon="12.6516975705654"><ele>12.0</ele><time>2026-03-22T14:11:57.994Z</time></trkpt><trkpt lat="43.99299883334131" lon="12.651489719598269"><ele>12.0</ele><time>2026-03-22T14:11:58.994Z</time></trkpt><trkpt lat="43.99309006282154" lon="12.651284354396486"><ele>12.0</ele><time>2026-03-22T14:11:59.994Z</time></trkpt><trkpt lat="43.99318268460746" lon="12.651073217018252"><ele>12.0</ele><time>2026-03-22T14:12:00.994Z</time></trkpt><trkpt lat="43.993276637072874" lon="12.650861658729427"><ele>12.75</ele><time>2026-03-22T14:12:01.994Z</time></trkpt><trkpt lat="43.993368211708386" lon="12.650671722562693"><ele>13.5</ele><time>2026-03-22T14:12:02.994Z</time></trkpt><trkpt lat="43.99344453210158" lon="12.650545726345467"><ele>14.25</ele><time>2026-03-22T14:12:03.994Z</time></trkpt><trkpt lat="43.993486019890824" lon="12.650458278355186"><ele>15.0</ele><time>2026-03-22T14:12:04.994Z</time></trkpt><trkpt lat="43.99353944222623" lon="12.65033701122979"><ele>14.666666666666668</ele><time>2026-03-22T14:12:05.994Z</time></trkpt><trkpt lat="43.99361060566383" lon="12.650182590449408"><ele>14.333333333333334</ele><time>2026-03-22T14:12:06.994Z</time></trkpt><trkpt lat="43.99371160794034" lon="12.650009793151195"><ele>14.0</ele><time>2026-03-22T14:12:07.994Z</time></trkpt><trkpt lat="43.9938302966056" lon="12.649817818451814"><ele>14.0</ele><time>2026-03-22T14:12:08.994Z</time></trkpt><trkpt lat="43.993968917406164" lon="12.649616061065746"><ele>14.0</ele><time>2026-03-22T14:12:09.994Z</time></trkpt><trkpt lat="43.99411678989924" lon="12.649441129433136"><ele>14.0</ele><time>2026-03-22T14:12:10.994Z</time></trkpt><trkpt lat="43.99426816902175" lon="12.6492824131305"><ele>13.666666666666668</ele><time>2026-03-22T14:12:11.994Z</time></trkpt><trkpt lat="43.99441589351645" lon="12.649156475231022"><ele>13.333333333333332</ele><time>2026-03-22T14:12:12.994Z</time></trkpt><trkpt lat="43.9945594849125" lon="12.649051883027074"><ele>13.0</ele><time>2026-03-22T14:12:13.994Z</time></trkpt><trkpt lat="43.99468930132317" lon="12.648984114003449"><ele>12.999999999999998</ele><time>2026-03-22T14:12:14.994Z</time></trkpt><trkpt lat="43.9947911947009" lon="12.648937531714134"><ele>13.0</ele><time>2026-03-22T14:12:15.994Z</time></trkpt><trkpt lat="43.994878185294134" lon="12.648911928898162"><ele>13.0</ele><time>2026-03-22T14:12:16.994Z</time></trkpt><trkpt lat="43.99496470393408" lon="12.648900621581882"><ele>13.0</ele><time>2026-03-22T14:12:17.994Z</time></trkpt><trkpt lat="43.99505232057027" lon="12.648903101389505"><ele>12.999999999999998</ele><time>2026-03-22T14:12:18.994Z</time></trkpt><trkpt lat="43.995130403662614" lon="12.648894198934729"><ele>13.0</ele><time>2026-03-22T14:12:19.994Z</time></trkpt><trkpt lat="43.99524588722477" lon="12.648768384341858"><ele>12.5</ele><time>2026-03-22T14:12:21.994Z</time></trkpt><trkpt lat="43.99532888132984" lon="12.648684691681629"><ele>12.0</ele><time>2026-03-22T14:12:22.994Z</time></trkpt><trkpt lat="43.995437393576736" lon="12.648634756339856"><ele>11.5</ele><time>2026-03-22T14:12:23.994Z</time></trkpt><trkpt lat="43.99556591272496" lon="12.648617571798043"><ele>11.0</ele><time>2026-03-22T14:12:24.994Z</time></trkpt><trkpt lat="43.995734461856344" lon="12.648591915008465"><ele>10.666666666666666</ele><time>2026-03-22T14:12:25.994Z</time></trkpt><trkpt lat="43.995921140435385" lon="12.648542869456932"><ele>10.333333333333334</ele><time>2026-03-22T14:12:26.994Z</time></trkpt><trkpt lat="43.99612475888829" lon="12.648502483462648"><ele>10.0</ele><time>2026-03-22T14:12:27.994Z</time></trkpt><trkpt lat="43.996336803492596" lon="12.648464263128417"><ele>10.0</ele><time>2026-03-22T14:12:28.994Z</time></trkpt><trkpt lat="43.99655986103292" lon="12.648424153236146"><ele>10.0</ele><time>2026-03-22T14:12:29.994Z</time></trkpt><trkpt lat="43.99677305424624" lon="12.648370882597172"><ele>10.0</ele><time>2026-03-22T14:12:30.994Z</time></trkpt><trkpt lat="43.996974153159655" lon="12.64832537775521"><ele>10.333333333333334</ele><time>2026-03-22T14:12:31.994Z</time></trkpt><trkpt lat="43.99715821774275" lon="12.648282559100139"><ele>10.666666666666666</ele><time>2026-03-22T14:12:32.995Z</time></trkpt><trkpt lat="43.99733446084627" lon="12.648244986613278"><ele>11.0</ele><time>2026-03-22T14:12:33.994Z</time></trkpt><trkpt lat="43.99749641569214" lon="12.6482214231714"><ele>10.25</ele><time>2026-03-22T14:12:34.994Z</time></trkpt><trkpt lat="43.9976551018537" lon="12.648189677076639"><ele>9.5</ele><time>2026-03-22T14:12:35.995Z</time></trkpt><trkpt lat="43.997787027837745" lon="12.648131807439293"><ele>8.75</ele><time>2026-03-22T14:12:36.995Z</time></trkpt><trkpt lat="43.997897171276385" lon="12.648037462353338"><ele>8.0</ele><time>2026-03-22T14:12:37.995Z</time></trkpt><trkpt lat="43.997981711523906" lon="12.647926020635978"><ele>8.0</ele><time>2026-03-22T14:12:38.995Z</time></trkpt><trkpt lat="43.99806546074664" lon="12.647806313431596"><ele>8.0</ele><time>2026-03-22T14:12:39.995Z</time></trkpt><trkpt lat="43.998144511965556" lon="12.647700238654636"><ele>8.0</ele><time>2026-03-22T14:12:40.995Z</time></trkpt><trkpt lat="43.99819642242919" lon="12.647619267104893"><ele>8.0</ele><time>2026-03-22T14:12:41.995Z</time></trkpt><trkpt lat="43.998239241012385" lon="12.647542871361686"><ele>8.0</ele><time>2026-03-22T14:12:42.995Z</time></trkpt><trkpt lat="43.998298428855904" lon="12.647460240244909"><ele>7.333333333333333</ele><time>2026-03-22T14:12:44.995Z</time></trkpt><trkpt lat="43.99835107080983" lon="12.647373865939468"><ele>6.666666666666666</ele><time>2026-03-22T14:12:47.995Z</time></trkpt><trkpt lat="43.99842409157371" lon="12.647308398247153"><ele>6.0</ele><time>2026-03-22T14:12:50.995Z</time></trkpt><trkpt lat="43.99851543564426" lon="12.647292014196474"><ele>5.333333333333333</ele><time>2026-03-22T14:12:52.995Z</time></trkpt><trkpt lat="43.99858974600558" lon="12.647291955375426"><ele>4.666666666666666</ele><time>2026-03-22T14:12:53.995Z</time></trkpt><trkpt lat="43.998671478911" lon="12.647285035163003"><ele>4.0</ele><time>2026-03-22T14:12:54.995Z</time></trkpt><trkpt lat="43.998739501456285" lon="12.647253388946904"><ele>3.9999999999999996</ele><time>2026-03-22T14:12:55.995Z</time></trkpt><trkpt lat="43.99879384048708" lon="12.647179384121776"><ele>4.0</ele><time>2026-03-22T14:12:56.995Z</time></trkpt><trkpt lat="43.99882465265803" lon="12.647072582438694"><ele>4.0</ele><time>2026-03-22T14:12:57.995Z</time></trkpt><trkpt lat="43.998834023419995" lon="12.646954223032843"><ele>4.0</ele><time>2026-03-22T14:12:58.995Z</time></trkpt><trkpt lat="43.99882475733089" lon="12.64682468535639"><ele>3.9999999999999996</ele><time>2026-03-22T14:12:59.995Z</time></trkpt><trkpt lat="43.998816183909" lon="12.64669375880245"><ele>4.0</ele><time>2026-03-22T14:13:00.995Z</time></trkpt><trkpt lat="43.99882979307319" lon="12.64655479719694"><ele>4.75</ele><time>2026-03-22T14:13:01.995Z</time></trkpt><trkpt lat="43.99886246949096" lon="12.64642669761255"><ele>5.5</ele><time>2026-03-22T14:13:02.995Z</time></trkpt><trkpt lat="43.998917921232675" lon="12.646295820471103"><ele>6.25</ele><time>2026-03-22T14:13:03.995Z</time></trkpt><trkpt lat="43.99897819178167" lon="12.646157782391043"><ele>7.0</ele><time>2026-03-22T14:13:04.995Z</time></trkpt><trkpt lat="43.99904185104041" lon="12.645999394835174"><ele>6.75</ele><time>2026-03-22T14:13:05.995Z</time></trkpt><trkpt lat="43.999112324324294" lon="12.645829822644897"><ele>6.5</ele><time>2026-03-22T14:13:06.995Z</time></trkpt><trkpt lat="43.999178410235686" lon="12.645641823354643"><ele>6.25</ele><time>2026-03-22T14:13:07.995Z</time></trkpt><trkpt lat="43.99924564590855" lon="12.645471282695528"><ele>6.0</ele><time>2026-03-22T14:13:08.995Z</time></trkpt><trkpt lat="43.9993041877628" lon="12.645323482981757"><ele>5.3999999999999995</ele><time>2026-03-22T14:13:09.995Z</time></trkpt><trkpt lat="43.99935851010294" lon="12.645205038845827"><ele>4.8</ele><time>2026-03-22T14:13:10.995Z</time></trkpt><trkpt lat="43.99940737877965" lon="12.645083675834336"><ele>4.199999999999999</ele><time>2026-03-22T14:13:11.995Z</time></trkpt><trkpt lat="43.99945555906619" lon="12.644957114770776"><ele>3.5999999999999996</ele><time>2026-03-22T14:13:12.995Z</time></trkpt><trkpt lat="43.99950735661937" lon="12.644824674198912"><ele>3.0</ele><time>2026-03-22T14:13:13.995Z</time></trkpt><trkpt lat="43.99956515074884" lon="12.644677913213766"><ele>3.0</ele><time>2026-03-22T14:13:14.995Z</time></trkpt><trkpt lat="43.99962690164372" lon="12.644523734654015"><ele>3.0</ele><time>2026-03-22T14:13:15.995Z</time></trkpt><trkpt lat="43.999681032506935" lon="12.644378698906019"><ele>3.0</ele><time>2026-03-22T14:13:16.995Z</time></trkpt><trkpt lat="43.99973152043811" lon="12.644244037026258"><ele>3.0</ele><time>2026-03-22T14:13:17.995Z</time></trkpt><trkpt lat="43.999778562917804" lon="12.644115497457788"><ele>3.2</ele><time>2026-03-22T14:13:18.995Z</time></trkpt><trkpt lat="43.999829626486544" lon="12.643990385025434"><ele>3.4</ele><time>2026-03-22T14:13:19.995Z</time></trkpt><trkpt lat="43.999883768898385" lon="12.643860851169274"><ele>3.6000000000000005</ele><time>2026-03-22T14:13:20.995Z</time></trkpt><trkpt lat="43.99993699032988" lon="12.643720699953134"><ele>3.8000000000000003</ele><time>2026-03-22T14:13:21.995Z</time></trkpt><trkpt lat="43.999986827208275" lon="12.64358335998144"><ele>4.0</ele><time>2026-03-22T14:13:22.995Z</time></trkpt><trkpt lat="44.00004011398516" lon="12.643433227039303"><ele>4.25</ele><time>2026-03-22T14:13:23.995Z</time></trkpt><trkpt lat="44.00009540246104" lon="12.643273179553042"><ele>4.5</ele><time>2026-03-22T14:13:24.995Z</time></trkpt><trkpt lat="44.000159552569514" lon="12.643093992701285"><ele>4.75</ele><time>2026-03-22T14:13:25.995Z</time></trkpt><trkpt lat="44.00023913765022" lon="12.642911958556958"><ele>5.0</ele><time>2026-03-22T14:13:26.995Z</time></trkpt><trkpt lat="44.000308809774275" lon="12.642747419808106"><ele>5.0</ele><time>2026-03-22T14:13:27.995Z</time></trkpt><trkpt lat="44.000357982835986" lon="12.64261691550016"><ele>5.0</ele><time>2026-03-22T14:13:28.995Z</time></trkpt><trkpt lat="44.00040361228475" lon="12.642500741346252"><ele>5.0</ele><time>2026-03-22T14:13:29.995Z</time></trkpt><trkpt lat="44.00045166270753" lon="12.642384053828035"><ele>5.0</ele><time>2026-03-22T14:13:30.995Z</time></trkpt><trkpt lat="44.000494243722" lon="12.642279173150573"><ele>5.0</ele><time>2026-03-22T14:13:31.995Z</time></trkpt><trkpt lat="44.00053658808926" lon="12.642171151280873"><ele>5.0</ele><time>2026-03-22T14:13:32.995Z</time></trkpt><trkpt lat="44.000579663745434" lon="12.64204760542951"><ele>5.0</ele><time>2026-03-22T14:13:33.995Z</time></trkpt><trkpt lat="44.00062758834368" lon="12.641914957594894"><ele>5.0</ele><time>2026-03-22T14:13:34.995Z</time></trkpt><trkpt lat="44.00067595894725" lon="12.641761020061752"><ele>5.0</ele><time>2026-03-22T14:13:35.995Z</time></trkpt><trkpt lat="44.00074035858184" lon="12.64157360778757"><ele>5.0</ele><time>2026-03-22T14:13:36.995Z</time></trkpt><trkpt lat="44.00080841849838" lon="12.641382452885178"><ele>5.0</ele><time>2026-03-22T14:13:37.995Z</time></trkpt><trkpt lat="44.00085964898875" lon="12.64121219314913"><ele>5.0</ele><time>2026-03-22T14:13:38.995Z</time></trkpt><trkpt lat="44.0008903973077" lon="12.64105721642862"><ele>5.0</ele><time>2026-03-22T14:13:39.995Z</time></trkpt><trkpt lat="44.00091251479449" lon="12.64092488383848"><ele>5.666666666666667</ele><time>2026-03-22T14:13:40.995Z</time></trkpt><trkpt lat="44.00093769619331" lon="12.640809423542873"><ele>6.333333333333334</ele><time>2026-03-22T14:13:41.995Z</time></trkpt><trkpt lat="44.00095577099121" lon="12.640710979661193"><ele>7.0</ele><time>2026-03-22T14:13:42.995Z</time></trkpt><trkpt lat="44.00097429603579" lon="12.640617011938213"><ele>7.666666666666667</ele><time>2026-03-22T14:13:43.995Z</time></trkpt><trkpt lat="44.0009971828666" lon="12.640517193978445"><ele>8.333333333333334</ele><time>2026-03-22T14:13:44.995Z</time></trkpt><trkpt lat="44.00101955441841" lon="12.640425937541508"><ele>9.0</ele><time>2026-03-22T14:13:45.995Z</time></trkpt><trkpt lat="44.001043000919246" lon="12.64025235994374"><ele>9.0</ele><time>2026-03-22T14:13:47.995Z</time></trkpt><trkpt lat="44.00105722833991" lon="12.640156488306138"><ele>9.0</ele><time>2026-03-22T14:13:48.995Z</time></trkpt><trkpt lat="44.00108722605439" lon="12.640043711621285"><ele>9.0</ele><time>2026-03-22T14:13:49.995Z</time></trkpt><trkpt lat="44.001129236044115" lon="12.639926005942247"><ele>9.0</ele><time>2026-03-22T14:13:50.995Z</time></trkpt><trkpt lat="44.00116202237904" lon="12.639798644454011"><ele>9.0</ele><time>2026-03-22T14:13:51.995Z</time></trkpt><trkpt lat="44.001193193322464" lon="12.639654517702633"><ele>9.0</ele><time>2026-03-22T14:13:52.995Z</time></trkpt><trkpt lat="44.0012248982707" lon="12.639502789847532"><ele>9.0</ele><time>2026-03-22T14:13:53.995Z</time></trkpt><trkpt lat="44.00126003332987" lon="12.639339845882999"><ele>9.0</ele><time>2026-03-22T14:13:54.995Z</time></trkpt><trkpt lat="44.00129668664425" lon="12.63916980614221"><ele>9.0</ele><time>2026-03-22T14:13:55.995Z</time></trkpt><trkpt lat="44.00133434468148" lon="12.63899002032503"><ele>9.5</ele><time>2026-03-22T14:13:56.995Z</time></trkpt><trkpt lat="44.00136914947423" lon="12.638817356736826"><ele>10.0</ele><time>2026-03-22T14:13:57.995Z</time></trkpt><trkpt lat="44.00140196716787" lon="12.63864373015006"><ele>10.5</ele><time>2026-03-22T14:13:58.995Z</time></trkpt><trkpt lat="44.00142624073307" lon="12.638472797489264"><ele>11.0</ele><time>2026-03-22T14:13:59.995Z</time></trkpt><trkpt lat="44.00145144133219" lon="12.638306257581638"><ele>11.0</ele><time>2026-03-22T14:14:00.995Z</time></trkpt><trkpt lat="44.00147710219725" lon="12.638142088920532"><ele>11.0</ele><time>2026-03-22T14:14:01.995Z</time></trkpt><trkpt lat="44.001502256941315" lon="12.637977629877687"><ele>11.0</ele><time>2026-03-22T14:14:02.995Z</time></trkpt><trkpt lat="44.0015248774614" lon="12.637807361937785"><ele>11.0</ele><time>2026-03-22T14:14:03.995Z</time></trkpt><trkpt lat="44.00155520585261" lon="12.637637604179508"><ele>11.0</ele><time>2026-03-22T14:14:04.995Z</time></trkpt><trkpt lat="44.00158478064665" lon="12.637455305822892"><ele>11.0</ele><time>2026-03-22T14:14:05.995Z</time></trkpt><trkpt lat="44.00162101820016" lon="12.637268082838837"><ele>11.0</ele><time>2026-03-22T14:14:06.995Z</time></trkpt><trkpt lat="44.001661932973484" lon="12.637084749885146"><ele>11.0</ele><time>2026-03-22T14:14:07.995Z</time></trkpt><trkpt lat="44.001707853447826" lon="12.636916663915319"><ele>11.0</ele><time>2026-03-22T14:14:08.995Z</time></trkpt><trkpt lat="44.00175866246633" lon="12.636752655601393"><ele>11.0</ele><time>2026-03-22T14:14:09.995Z</time></trkpt><trkpt lat="44.00180887660318" lon="12.636579147458821"><ele>11.0</ele><time>2026-03-22T14:14:10.995Z</time></trkpt><trkpt lat="44.00186540220644" lon="12.636413191131558"><ele>11.0</ele><time>2026-03-22T14:14:11.995Z</time></trkpt><trkpt lat="44.0019240915183" lon="12.636251818822178"><ele>11.0</ele><time>2026-03-22T14:14:12.995Z</time></trkpt><trkpt lat="44.00198736215831" lon="12.636090720756094"><ele>11.0</ele><time>2026-03-22T14:14:13.995Z</time></trkpt><trkpt lat="44.00205346595112" lon="12.635923625459714"><ele>11.0</ele><time>2026-03-22T14:14:14.995Z</time></trkpt><trkpt lat="44.00212128004765" lon="12.635767775135237"><ele>11.0</ele><time>2026-03-22T14:14:15.995Z</time></trkpt><trkpt lat="44.002185155808164" lon="12.635617467068213"><ele>11.0</ele><time>2026-03-22T14:14:16.995Z</time></trkpt><trkpt lat="44.0022520414998" lon="12.635475482603537"><ele>11.0</ele><time>2026-03-22T14:14:17.995Z</time></trkpt><trkpt lat="44.002310242956476" lon="12.635347148280461"><ele>11.0</ele><time>2026-03-22T14:14:18.995Z</time></trkpt><trkpt lat="44.00236566123136" lon="12.635226996132786"><ele>11.0</ele><time>2026-03-22T14:14:19.995Z</time></trkpt><trkpt lat="44.00242020918623" lon="12.63511020935925"><ele>11.0</ele><time>2026-03-22T14:14:20.995Z</time></trkpt><trkpt lat="44.00247389511802" lon="12.635021572372105"><ele>11.166666666666666</ele><time>2026-03-22T14:14:21.995Z</time></trkpt><trkpt lat="44.00253501226924" lon="12.63495538695839"><ele>11.333333333333332</ele><time>2026-03-22T14:14:22.995Z</time></trkpt><trkpt lat="44.00260840529067" lon="12.634915059755293"><ele>11.5</ele><time>2026-03-22T14:14:23.995Z</time></trkpt><trkpt lat="44.002699256419206" lon="12.634877205106493"><ele>11.666666666666666</ele><time>2026-03-22T14:14:24.995Z</time></trkpt><trkpt lat="44.002782702189435" lon="12.634812467774294"><ele>11.833333333333334</ele><time>2026-03-22T14:14:25.995Z</time></trkpt><trkpt lat="44.00285146570803" lon="12.634710143920357"><ele>12.0</ele><time>2026-03-22T14:14:26.995Z</time></trkpt><trkpt lat="44.00285521616465" lon="12.634559363920939"><ele>12.0</ele><time>2026-03-22T14:14:27.995Z</time></trkpt><trkpt lat="44.00301382276617" lon="12.634507515990402"><ele>12.0</ele><time>2026-03-22T14:14:28.995Z</time></trkpt><trkpt lat="44.0031451317026" lon="12.634446572741213"><ele>12.0</ele><time>2026-03-22T14:14:29.995Z</time></trkpt><trkpt lat="44.00329131665036" lon="12.634398805106096"><ele>12.25</ele><time>2026-03-22T14:14:30.995Z</time></trkpt><trkpt lat="44.00343390853272" lon="12.634350035560784"><ele>12.5</ele><time>2026-03-22T14:14:31.995Z</time></trkpt><trkpt lat="44.00355670432191" lon="12.634301146966925"><ele>12.75</ele><time>2026-03-22T14:14:32.995Z</time></trkpt><trkpt lat="44.00366672325534" lon="12.63425632260185"><ele>13.0</ele><time>2026-03-22T14:14:33.995Z</time></trkpt><trkpt lat="44.00377983111746" lon="12.634217013309152"><ele>13.0</ele><time>2026-03-22T14:14:34.995Z</time></trkpt><trkpt lat="44.003892246977955" lon="12.634172048763896"><ele>13.0</ele><time>2026-03-22T14:14:35.995Z</time></trkpt><trkpt lat="44.0040034185055" lon="12.634127767847167"><ele>13.0</ele><time>2026-03-22T14:14:36.995Z</time></trkpt><trkpt lat="44.004105001887034" lon="12.634085401353602"><ele>13.0</ele><time>2026-03-22T14:14:37.995Z</time></trkpt><trkpt lat="44.00419429208853" lon="12.63404819116891"><ele>13.0</ele><time>2026-03-22T14:14:38.995Z</time></trkpt><trkpt lat="44.004274493017235" lon="12.634018388027936"><ele>12.833333333333332</ele><time>2026-03-22T14:14:39.995Z</time></trkpt><trkpt lat="44.00434465731588" lon="12.633989678198173"><ele>12.666666666666666</ele><time>2026-03-22T14:14:40.995Z</time></trkpt><trkpt lat="44.004407653115784" lon="12.633966433946425"><ele>12.5</ele><time>2026-03-22T14:14:41.995Z</time></trkpt><trkpt lat="44.00449999091715" lon="12.633935157720217"><ele>12.333333333333332</ele><time>2026-03-22T14:14:43.994Z</time></trkpt><trkpt lat="44.00457752494054" lon="12.633912370722568"><ele>12.166666666666666</ele><time>2026-03-22T14:14:46.995Z</time></trkpt><trkpt lat="44.00465780388035" lon="12.633875726380788"><ele>12.0</ele><time>2026-03-22T14:14:49.995Z</time></trkpt><trkpt lat="44.00477497728359" lon="12.633894232117074"><ele>12.0</ele><time>2026-03-22T14:14:51.995Z</time></trkpt><trkpt lat="44.00484992320644" lon="12.633938410712673"><ele>12.0</ele><time>2026-03-22T14:14:52.995Z</time></trkpt><trkpt lat="44.0049175810297" lon="12.633985287903553"><ele>12.0</ele><time>2026-03-22T14:14:53.995Z</time></trkpt><trkpt lat="44.00498946876326" lon="12.634007827086304"><ele>12.0</ele><time>2026-03-22T14:14:54.995Z</time></trkpt><trkpt lat="44.00506474513133" lon="12.633975816514319"><ele>12.0</ele><time>2026-03-22T14:14:55.995Z</time></trkpt><trkpt lat="44.005130993031784" lon="12.63391483882321"><ele>12.0</ele><time>2026-03-22T14:14:56.995Z</time></trkpt><trkpt lat="44.005208418624" lon="12.633827949682441"><ele>13.0</ele><time>2026-03-22T14:14:57.995Z</time></trkpt><trkpt lat="44.00528174558356" lon="12.633743311815502"><ele>14.0</ele><time>2026-03-22T14:14:58.995Z</time></trkpt><trkpt lat="44.005376021098016" lon="12.63366029380864"><ele>15.0</ele><time>2026-03-22T14:14:59.995Z</time></trkpt><trkpt lat="44.00549740116708" lon="12.633629393468572"><ele>16.0</ele><time>2026-03-22T14:15:00.995Z</time></trkpt><trkpt lat="44.005646527962334" lon="12.633621351203304"><ele>16.0</ele><time>2026-03-22T14:15:01.995Z</time></trkpt><trkpt lat="44.00580102213699" lon="12.63361031216724"><ele>16.0</ele><time>2026-03-22T14:15:02.995Z</time></trkpt><trkpt lat="44.00594992076285" lon="12.633606122635136"><ele>16.0</ele><time>2026-03-22T14:15:03.995Z</time></trkpt><trkpt lat="44.00609078760891" lon="12.633584798931386"><ele>16.0</ele><time>2026-03-22T14:15:04.995Z</time></trkpt><trkpt lat="44.00621378415159" lon="12.633568635072935"><ele>15.8</ele><time>2026-03-22T14:15:05.995Z</time></trkpt><trkpt lat="44.00632482514631" lon="12.633562715076746"><ele>15.600000000000001</ele><time>2026-03-22T14:15:06.995Z</time></trkpt><trkpt lat="44.006435248354634" lon="12.633552160279265"><ele>15.4</ele><time>2026-03-22T14:15:07.995Z</time></trkpt><trkpt lat="44.006541984870985" lon="12.633533582047669"><ele>15.2</ele><time>2026-03-22T14:15:08.995Z</time></trkpt><trkpt lat="44.00665126075038" lon="12.633533026045015"><ele>15.0</ele><time>2026-03-22T14:15:09.995Z</time></trkpt><trkpt lat="44.00676329916121" lon="12.63352316137214"><ele>14.8</ele><time>2026-03-22T14:15:10.995Z</time></trkpt><trkpt lat="44.0068674384638" lon="12.633511882175974"><ele>14.6</ele><time>2026-03-22T14:15:11.995Z</time></trkpt><trkpt lat="44.00696757887621" lon="12.63351268941136"><ele>14.399999999999999</ele><time>2026-03-22T14:15:12.995Z</time></trkpt><trkpt lat="44.00706397354702" lon="12.633507138865276"><ele>14.2</ele><time>2026-03-22T14:15:13.995Z</time></trkpt><trkpt lat="44.007164141108056" lon="12.63349343001941"><ele>14.0</ele><time>2026-03-22T14:15:14.995Z</time></trkpt><trkpt lat="44.00725719568747" lon="12.63347788754798"><ele>14.0</ele><time>2026-03-22T14:15:15.995Z</time></trkpt><trkpt lat="44.0073594724393" lon="12.633472647664059"><ele>13.999999999999998</ele><time>2026-03-22T14:15:16.995Z</time></trkpt><trkpt lat="44.00746543175455" lon="12.633467175076944"><ele>13.999999999999998</ele><time>2026-03-22T14:15:17.995Z</time></trkpt><trkpt lat="44.007576060146334" lon="12.633463253586617"><ele>14.0</ele><time>2026-03-22T14:15:18.995Z</time></trkpt><trkpt lat="44.007694618721054" lon="12.633460959122678"><ele>14.0</ele><time>2026-03-22T14:15:19.995Z</time></trkpt><trkpt lat="44.00781986177378" lon="12.633453898528058"><ele>14.0</ele><time>2026-03-22T14:15:20.995Z</time></trkpt><trkpt lat="44.007940062466346" lon="12.633447149442498"><ele>14.0</ele><time>2026-03-22T14:15:21.995Z</time></trkpt><trkpt lat="44.0080582182185" lon="12.633434896600916"><ele>14.0</ele><time>2026-03-22T14:15:22.995Z</time></trkpt><trkpt lat="44.0081762826954" lon="12.633428741504746"><ele>14.0</ele><time>2026-03-22T14:15:23.995Z</time></trkpt><trkpt lat="44.008298157489435" lon="12.633420181747663"><ele>13.75</ele><time>2026-03-22T14:15:24.995Z</time></trkpt><trkpt lat="44.00842350916338" lon="12.633411278341493"><ele>13.5</ele><time>2026-03-22T14:15:25.995Z</time></trkpt><trkpt lat="44.00855511586761" lon="12.633409318084762"><ele>13.25</ele><time>2026-03-22T14:15:26.995Z</time></trkpt><trkpt lat="44.00869605961574" lon="12.63339796584696"><ele>13.0</ele><time>2026-03-22T14:15:27.995Z</time></trkpt><trkpt lat="44.00883202920778" lon="12.63338994230985"><ele>13.0</ele><time>2026-03-22T14:15:28.995Z</time></trkpt><trkpt lat="44.008969039906624" lon="12.63338267279524"><ele>13.0</ele><time>2026-03-22T14:15:29.995Z</time></trkpt><trkpt lat="44.00910448849289" lon="12.633371823383435"><ele>13.0</ele><time>2026-03-22T14:15:30.995Z</time></trkpt><trkpt lat="44.00924843326947" lon="12.63336828554944"><ele>13.0</ele><time>2026-03-22T14:15:31.995Z</time></trkpt><trkpt lat="44.009395598416056" lon="12.633356385216993"><ele>12.25</ele><time>2026-03-22T14:15:32.995Z</time></trkpt><trkpt lat="44.009542449630615" lon="12.633351894016537"><ele>11.5</ele><time>2026-03-22T14:15:33.995Z</time></trkpt><trkpt lat="44.00968695804463" lon="12.633339176646777"><ele>10.75</ele><time>2026-03-22T14:15:34.995Z</time></trkpt><trkpt lat="44.00982727180472" lon="12.633325432867327"><ele>10.0</ele><time>2026-03-22T14:15:35.995Z</time></trkpt><trkpt lat="44.00996340211904" lon="12.633314444825542"><ele>10.25</ele><time>2026-03-22T14:15:36.995Z</time></trkpt><trkpt lat="44.01009241767624" lon="12.633305400923835"><ele>10.5</ele><time>2026-03-22T14:15:37.995Z</time></trkpt><trkpt lat="44.01021690084729" lon="12.633294581589753"><ele>10.75</ele><time>2026-03-22T14:15:38.995Z</time></trkpt><trkpt lat="44.01033556567311" lon="12.633286463468663"><ele>11.0</ele><time>2026-03-22T14:15:39.995Z</time></trkpt><trkpt lat="44.01046629325011" lon="12.633276795706568"><ele>11.0</ele><time>2026-03-22T14:15:40.995Z</time></trkpt><trkpt lat="44.010606349201815" lon="12.63326609790775"><ele>11.0</ele><time>2026-03-22T14:15:41.995Z</time></trkpt><trkpt lat="44.01075385315172" lon="12.633253937176658"><ele>11.0</ele><time>2026-03-22T14:15:42.995Z</time></trkpt><trkpt lat="44.010903408324644" lon="12.633245575042377"><ele>11.0</ele><time>2026-03-22T14:15:43.995Z</time></trkpt><trkpt lat="44.01105291488652" lon="12.633230253772908"><ele>10.5</ele><time>2026-03-22T14:15:44.995Z</time></trkpt><trkpt lat="44.01119952146433" lon="12.633219818121821"><ele>10.0</ele><time>2026-03-22T14:15:45.995Z</time></trkpt><trkpt lat="44.011342472195984" lon="12.633202246593205"><ele>9.5</ele><time>2026-03-22T14:15:46.995Z</time></trkpt><trkpt lat="44.011485931767375" lon="12.633186185705892"><ele>9.0</ele><time>2026-03-22T14:15:47.995Z</time></trkpt><trkpt lat="44.01163671968182" lon="12.633161271835629"><ele>9.666666666666666</ele><time>2026-03-22T14:15:48.995Z</time></trkpt><trkpt lat="44.01178843898781" lon="12.63313136074175"><ele>10.333333333333332</ele><time>2026-03-22T14:15:49.995Z</time></trkpt><trkpt lat="44.01194754678999" lon="12.633103874843817"><ele>11.0</ele><time>2026-03-22T14:15:50.995Z</time></trkpt><trkpt lat="44.01209769542585" lon="12.633073129808619"><ele>11.0</ele><time>2026-03-22T14:15:51.995Z</time></trkpt><trkpt lat="44.01224885210453" lon="12.633039442825146"><ele>11.0</ele><time>2026-03-22T14:15:52.995Z</time></trkpt><trkpt lat="44.012400744749534" lon="12.633003976477836"><ele>11.0</ele><time>2026-03-22T14:15:53.995Z</time></trkpt><trkpt lat="44.01253876234628" lon="12.632968518273207"><ele>11.0</ele><time>2026-03-22T14:15:54.995Z</time></trkpt><trkpt lat="44.01266965859077" lon="12.63293314372971"><ele>9.0</ele><time>2026-03-22T14:15:55.995Z</time></trkpt><trkpt lat="44.01279144059472" lon="12.63290511732112"><ele>7.0</ele><time>2026-03-22T14:15:56.995Z</time></trkpt><trkpt lat="44.01290379473521" lon="12.632876492198207"><ele>5.0</ele><time>2026-03-22T14:15:57.995Z</time></trkpt><trkpt lat="44.01301399224682" lon="12.632854072386344"><ele>3.0</ele><time>2026-03-22T14:15:58.995Z</time></trkpt><trkpt lat="44.01312960757589" lon="12.632821087847747"><ele>3.0</ele><time>2026-03-22T14:15:59.995Z</time></trkpt><trkpt lat="44.01325800200572" lon="12.632789967805923"><ele>3.0</ele><time>2026-03-22T14:16:00.995Z</time></trkpt><trkpt lat="44.01339234005643" lon="12.632758771244289"><ele>3.0</ele><time>2026-03-22T14:16:01.995Z</time></trkpt><trkpt lat="44.013523542957124" lon="12.632721507743565"><ele>3.0</ele><time>2026-03-22T14:16:02.995Z</time></trkpt><trkpt lat="44.013639862502316" lon="12.632698570959422"><ele>2.6</ele><time>2026-03-22T14:16:03.995Z</time></trkpt><trkpt lat="44.013749835131605" lon="12.632671187348055"><ele>2.1999999999999997</ele><time>2026-03-22T14:16:04.995Z</time></trkpt><trkpt lat="44.0138554023092" lon="12.632643259209908"><ele>1.8</ele><time>2026-03-22T14:16:05.995Z</time></trkpt><trkpt lat="44.01393931339919" lon="12.632620431991993"><ele>1.4</ele><time>2026-03-22T14:16:06.995Z</time></trkpt><trkpt lat="44.01401528072934" lon="12.632600218481667"><ele>1.0</ele><time>2026-03-22T14:16:07.995Z</time></trkpt><trkpt lat="44.01408959735019" lon="12.632582829745743"><ele>2.4000000000000004</ele><time>2026-03-22T14:16:08.995Z</time></trkpt><trkpt lat="44.014172992986765" lon="12.632565081565891"><ele>3.8000000000000003</ele><time>2026-03-22T14:16:09.995Z</time></trkpt><trkpt lat="44.01427065759116" lon="12.632543417754643"><ele>5.200000000000001</ele><time>2026-03-22T14:16:10.995Z</time></trkpt><trkpt lat="44.01436976780421" lon="12.63251513762804"><ele>6.6000000000000005</ele><time>2026-03-22T14:16:11.995Z</time></trkpt><trkpt lat="44.01448006231715" lon="12.632485915851802"><ele>8.0</ele><time>2026-03-22T14:16:12.995Z</time></trkpt><trkpt lat="44.01459157463448" lon="12.632466021972787"><ele>8.0</ele><time>2026-03-22T14:16:13.995Z</time></trkpt><trkpt lat="44.01470624265014" lon="12.632424641798053"><ele>8.0</ele><time>2026-03-22T14:16:14.995Z</time></trkpt><trkpt lat="44.0148153796982" lon="12.6324004168066"><ele>8.0</ele><time>2026-03-22T14:16:15.995Z</time></trkpt><trkpt lat="44.01491967057064" lon="12.632377304563416"><ele>8.0</ele><time>2026-03-22T14:16:16.995Z</time></trkpt><trkpt lat="44.01501958846074" lon="12.632355416154834"><ele>8.0</ele><time>2026-03-22T14:16:17.995Z</time></trkpt><trkpt lat="44.015131928552364" lon="12.632335777022492"><ele>6.75</ele><time>2026-03-22T14:16:18.995Z</time></trkpt><trkpt lat="44.01524566276292" lon="12.632302665997619"><ele>5.5</ele><time>2026-03-22T14:16:19.995Z</time></trkpt><trkpt lat="44.01536241181222" lon="12.63225308413305"><ele>4.25</ele><time>2026-03-22T14:16:20.995Z</time></trkpt><trkpt lat="44.01547786684741" lon="12.632193922686774"><ele>3.0</ele><time>2026-03-22T14:16:21.995Z</time></trkpt><trkpt lat="44.01559215954445" lon="12.632134121857808"><ele>3.0</ele><time>2026-03-22T14:16:22.995Z</time></trkpt><trkpt lat="44.0157045077629" lon="12.632055272975586"><ele>3.0</ele><time>2026-03-22T14:16:23.995Z</time></trkpt><trkpt lat="44.015812991419885" lon="12.631959096961609"><ele>3.0</ele><time>2026-03-22T14:16:24.995Z</time></trkpt><trkpt lat="44.015921269791555" lon="12.631858373170132"><ele>3.0</ele><time>2026-03-22T14:16:25.995Z</time></trkpt><trkpt lat="44.01602780303724" lon="12.631749717597518"><ele>4.0</ele><time>2026-03-22T14:16:26.995Z</time></trkpt><trkpt lat="44.01613258108282" lon="12.631629050367303"><ele>5.0</ele><time>2026-03-22T14:16:27.995Z</time></trkpt><trkpt lat="44.016228704139856" lon="12.631491512846248"><ele>6.0</ele><time>2026-03-22T14:16:28.995Z</time></trkpt><trkpt lat="44.01632086891454" lon="12.631355421073016"><ele>7.0</ele><time>2026-03-22T14:16:29.995Z</time></trkpt><trkpt lat="44.01639821269242" lon="12.631226831193857"><ele>7.0</ele><time>2026-03-22T14:16:30.995Z</time></trkpt><trkpt lat="44.01647844320521" lon="12.631099154588783"><ele>7.0</ele><time>2026-03-22T14:16:31.995Z</time></trkpt><trkpt lat="44.01656082785023" lon="12.63097279576823"><ele>7.0</ele><time>2026-03-22T14:16:32.995Z</time></trkpt><trkpt lat="44.016645621490575" lon="12.63083879068824"><ele>7.0</ele><time>2026-03-22T14:16:33.995Z</time></trkpt><trkpt lat="44.016732787678606" lon="12.630698312866349"><ele>7.0</ele><time>2026-03-22T14:16:34.995Z</time></trkpt><trkpt lat="44.01682584805598" lon="12.630550888665523"><ele>7.0</ele><time>2026-03-22T14:16:35.995Z</time></trkpt><trkpt lat="44.01692683761434" lon="12.630397274161462"><ele>7.0</ele><time>2026-03-22T14:16:36.995Z</time></trkpt><trkpt lat="44.01701902017105" lon="12.630247046900742"><ele>7.0</ele><time>2026-03-22T14:16:37.995Z</time></trkpt><trkpt lat="44.0171039396013" lon="12.630100838328502"><ele>7.25</ele><time>2026-03-22T14:16:38.995Z</time></trkpt><trkpt lat="44.01719379325012" lon="12.629953459487215"><ele>7.5</ele><time>2026-03-22T14:16:39.995Z</time></trkpt><trkpt lat="44.01728645290036" lon="12.629808878220578"><ele>7.75</ele><time>2026-03-22T14:16:40.995Z</time></trkpt><trkpt lat="44.01738250277484" lon="12.629658466998936"><ele>8.0</ele><time>2026-03-22T14:16:41.995Z</time></trkpt><trkpt lat="44.017473831054524" lon="12.629512775812584"><ele>7.6000000000000005</ele><time>2026-03-22T14:16:42.995Z</time></trkpt><trkpt lat="44.01755335350231" lon="12.629381294913793"><ele>7.200000000000001</ele><time>2026-03-22T14:16:43.995Z</time></trkpt><trkpt lat="44.01763003039725" lon="12.629261518565789"><ele>6.8</ele><time>2026-03-22T14:16:44.995Z</time></trkpt><trkpt lat="44.01769223429007" lon="12.629156731382565"><ele>6.4</ele><time>2026-03-22T14:16:45.995Z</time></trkpt><trkpt lat="44.01774435280605" lon="12.629072802206958"><ele>6.0</ele><time>2026-03-22T14:16:46.995Z</time></trkpt><trkpt lat="44.0178105961338" lon="12.628970446703587"><ele>6.0</ele><time>2026-03-22T14:16:48.994Z</time></trkpt><trkpt lat="44.017867628630114" lon="12.628890531572877"><ele>6.0</ele><time>2026-03-22T14:16:51.994Z</time></trkpt><trkpt lat="44.017920023714964" lon="12.628811198522559"><ele>6.0</ele><time>2026-03-22T14:16:55.995Z</time></trkpt><trkpt lat="44.01796609433816" lon="12.628724815926795"><ele>6.0</ele><time>2026-03-22T14:17:02.995Z</time></trkpt><trkpt lat="44.01803996289691" lon="12.628606378893632"><ele>6.0</ele><time>2026-03-22T14:17:04.995Z</time></trkpt><trkpt lat="44.01808535161116" lon="12.628531999204842"><ele>6.0</ele><time>2026-03-22T14:17:05.995Z</time></trkpt><trkpt lat="44.01814305960715" lon="12.628444019594863"><ele>6.0</ele><time>2026-03-22T14:17:06.995Z</time></trkpt><trkpt lat="44.018196358759965" lon="12.628356003625338"><ele>6.0</ele><time>2026-03-22T14:17:07.995Z</time></trkpt><trkpt lat="44.01824705383748" lon="12.628268244892354"><ele>6.0</ele><time>2026-03-22T14:17:08.995Z</time></trkpt><trkpt lat="44.018305816149514" lon="12.628167649606256"><ele>6.0</ele><time>2026-03-22T14:17:09.995Z</time></trkpt><trkpt lat="44.018370594728424" lon="12.628057455140164"><ele>6.0</ele><time>2026-03-22T14:17:10.995Z</time></trkpt><trkpt lat="44.01843502764717" lon="12.627950961105343"><ele>6.0</ele><time>2026-03-22T14:17:11.995Z</time></trkpt><trkpt lat="44.01849384645751" lon="12.62785272146685"><ele>6.0</ele><time>2026-03-22T14:17:12.995Z</time></trkpt><trkpt lat="44.018554893612226" lon="12.627756189303772"><ele>6.0</ele><time>2026-03-22T14:17:13.995Z</time></trkpt><trkpt lat="44.018612613141144" lon="12.627659968988018"><ele>6.0</ele><time>2026-03-22T14:17:14.995Z</time></trkpt><trkpt lat="44.01867427625392" lon="12.627563243209899"><ele>6.0</ele><time>2026-03-22T14:17:15.995Z</time></trkpt><trkpt lat="44.01873298899654" lon="12.627469573577546"><ele>5.8</ele><time>2026-03-22T14:17:16.995Z</time></trkpt><trkpt lat="44.01879629608856" lon="12.627376608147891"><ele>5.6</ele><time>2026-03-22T14:17:17.995Z</time></trkpt><trkpt lat="44.01886047739706" lon="12.62728966569204"><ele>5.4</ele><time>2026-03-22T14:17:18.995Z</time></trkpt><trkpt lat="44.018924902390644" lon="12.627186975118983"><ele>5.2</ele><time>2026-03-22T14:17:19.995Z</time></trkpt><trkpt lat="44.01899015907838" lon="12.62708385629347"><ele>5.0</ele><time>2026-03-22T14:17:20.995Z</time></trkpt><trkpt lat="44.01905258686911" lon="12.626984393588204"><ele>4.8</ele><time>2026-03-22T14:17:21.995Z</time></trkpt><trkpt lat="44.01911495235671" lon="12.626882070519057"><ele>4.6</ele><time>2026-03-22T14:17:22.995Z</time></trkpt><trkpt lat="44.01917862853039" lon="12.626780202680253"><ele>4.4</ele><time>2026-03-22T14:17:23.995Z</time></trkpt><trkpt lat="44.019242737214384" lon="12.626675918974462"><ele>4.2</ele><time>2026-03-22T14:17:24.995Z</time></trkpt><trkpt lat="44.0193088322088" lon="12.626571496376995"><ele>4.0</ele><time>2026-03-22T14:17:25.995Z</time></trkpt><trkpt lat="44.01937534188651" lon="12.626468506181233"><ele>4.0</ele><time>2026-03-22T14:17:26.995Z</time></trkpt><trkpt lat="44.019442261045235" lon="12.626359949522067"><ele>4.0</ele><time>2026-03-22T14:17:27.995Z</time></trkpt><trkpt lat="44.01951151257398" lon="12.626241198377429"><ele>4.0</ele><time>2026-03-22T14:17:28.995Z</time></trkpt><trkpt lat="44.01958182546889" lon="12.626121167952954"><ele>4.0</ele><time>2026-03-22T14:17:29.995Z</time></trkpt><trkpt lat="44.01965769697815" lon="12.626005372981439"><ele>4.0</ele><time>2026-03-22T14:17:30.995Z</time></trkpt><trkpt lat="44.019735342027246" lon="12.625882775021461"><ele>3.8000000000000003</ele><time>2026-03-22T14:17:31.995Z</time></trkpt><trkpt lat="44.0198089964652" lon="12.625769566102916"><ele>3.6000000000000005</ele><time>2026-03-22T14:17:32.995Z</time></trkpt><trkpt lat="44.019875896283246" lon="12.625664680564377"><ele>3.4</ele><time>2026-03-22T14:17:33.995Z</time></trkpt><trkpt lat="44.01993553927215" lon="12.62556841051996"><ele>3.2</ele><time>2026-03-22T14:17:34.995Z</time></trkpt><trkpt lat="44.019988792165734" lon="12.625481039554435"><ele>3.0</ele><time>2026-03-22T14:17:35.995Z</time></trkpt><trkpt lat="44.02004298205705" lon="12.625402983347824"><ele>3.0</ele><time>2026-03-22T14:17:36.995Z</time></trkpt><trkpt lat="44.020096793462095" lon="12.625313848805645"><ele>3.0</ele><time>2026-03-22T14:17:37.995Z</time></trkpt><trkpt lat="44.02014819164239" lon="12.62523134271293"><ele>3.0</ele><time>2026-03-22T14:17:38.995Z</time></trkpt><trkpt lat="44.0202032706373" lon="12.625144028008659"><ele>3.0</ele><time>2026-03-22T14:17:39.995Z</time></trkpt><trkpt lat="44.02025860751785" lon="12.625052348718842"><ele>3.0</ele><time>2026-03-22T14:17:40.995Z</time></trkpt><trkpt lat="44.020318948222304" lon="12.624950981032613"><ele>3.0</ele><time>2026-03-22T14:17:41.995Z</time></trkpt><trkpt lat="44.02037958402146" lon="12.624850970449698"><ele>3.0</ele><time>2026-03-22T14:17:42.995Z</time></trkpt><trkpt lat="44.02044618976417" lon="12.624741636609505"><ele>3.0</ele><time>2026-03-22T14:17:43.995Z</time></trkpt><trkpt lat="44.02051506801337" lon="12.62462814500844"><ele>3.0</ele><time>2026-03-22T14:17:44.995Z</time></trkpt><trkpt lat="44.0205857048752" lon="12.624508989367918"><ele>3.0</ele><time>2026-03-22T14:17:45.995Z</time></trkpt><trkpt lat="44.020655829013755" lon="12.624395335462307"><ele>3.0</ele><time>2026-03-22T14:17:46.995Z</time></trkpt><trkpt lat="44.02072500420556" lon="12.624289057231065"><ele>3.0</ele><time>2026-03-22T14:17:47.995Z</time></trkpt><trkpt lat="44.02078850360547" lon="12.624190458056658"><ele>3.0</ele><time>2026-03-22T14:17:48.995Z</time></trkpt><trkpt lat="44.02084462625004" lon="12.624097973190272"><ele>3.0</ele><time>2026-03-22T14:17:49.995Z</time></trkpt><trkpt lat="44.02090237457799" lon="12.62400639472859"><ele>3.0</ele><time>2026-03-22T14:17:50.995Z</time></trkpt><trkpt lat="44.020956827770036" lon="12.623908679228796"><ele>3.0</ele><time>2026-03-22T14:17:51.995Z</time></trkpt><trkpt lat="44.02100419248125" lon="12.623828982965248"><ele>3.0</ele><time>2026-03-22T14:17:52.995Z</time></trkpt><trkpt lat="44.02107234274088" lon="12.62373898062988"><ele>3.1666666666666665</ele><time>2026-03-22T14:17:54.995Z</time></trkpt><trkpt lat="44.02116981360658" lon="12.623675714590284"><ele>3.333333333333333</ele><time>2026-03-22T14:17:56.995Z</time></trkpt><trkpt lat="44.02123364398246" lon="12.623666767022586"><ele>3.5</ele><time>2026-03-22T14:17:57.995Z</time></trkpt><trkpt lat="44.02131029831201" lon="12.62366696336242"><ele>3.6666666666666665</ele><time>2026-03-22T14:17:58.995Z</time></trkpt><trkpt lat="44.02139773842273" lon="12.62367017650184"><ele>3.833333333333333</ele><time>2026-03-22T14:17:59.995Z</time></trkpt><trkpt lat="44.02147889732918" lon="12.623631466260253"><ele>4.0</ele><time>2026-03-22T14:18:00.995Z</time></trkpt><trkpt lat="44.02154038455713" lon="12.62354961963676"><ele>4.2</ele><time>2026-03-22T14:18:01.995Z</time></trkpt><trkpt lat="44.02157195484584" lon="12.623432772564549"><ele>4.4</ele><time>2026-03-22T14:18:02.995Z</time></trkpt><trkpt lat="44.02158049435229" lon="12.62328784857511"><ele>4.6</ele><time>2026-03-22T14:18:03.995Z</time></trkpt><trkpt lat="44.02157002740478" lon="12.623122546894091"><ele>4.8</ele><time>2026-03-22T14:18:04.995Z</time></trkpt><trkpt lat="44.02157811079656" lon="12.622962622974331"><ele>5.0</ele><time>2026-03-22T14:18:05.995Z</time></trkpt><trkpt lat="44.02162317757845" lon="12.62281543640157"><ele>5.25</ele><time>2026-03-22T14:18:06.995Z</time></trkpt><trkpt lat="44.02170572673269" lon="12.622679880393154"><ele>5.5</ele><time>2026-03-22T14:18:07.995Z</time></trkpt><trkpt lat="44.021799066453454" lon="12.622542784474257"><ele>5.75</ele><time>2026-03-22T14:18:08.995Z</time></trkpt><trkpt lat="44.021883338494234" lon="12.622415771636943"><ele>6.0</ele><time>2026-03-22T14:18:09.995Z</time></trkpt><trkpt lat="44.02196970950594" lon="12.622284092317242"><ele>6.0</ele><time>2026-03-22T14:18:10.995Z</time></trkpt><trkpt lat="44.02205493969984" lon="12.622148128708655"><ele>6.0</ele><time>2026-03-22T14:18:11.995Z</time></trkpt><trkpt lat="44.02214196002683" lon="12.622006212893647"><ele>6.0</ele><time>2026-03-22T14:18:12.995Z</time></trkpt><trkpt lat="44.022228800758214" lon="12.621880227838727"><ele>6.0</ele><time>2026-03-22T14:18:13.995Z</time></trkpt><trkpt lat="44.02230666979565" lon="12.621752100023237"><ele>6.25</ele><time>2026-03-22T14:18:14.995Z</time></trkpt><trkpt lat="44.02238415795177" lon="12.621627619396222"><ele>6.5</ele><time>2026-03-22T14:18:15.995Z</time></trkpt><trkpt lat="44.022462358944374" lon="12.62149748393514"><ele>6.75</ele><time>2026-03-22T14:18:16.995Z</time></trkpt><trkpt lat="44.02254130415072" lon="12.621375143903993"><ele>7.0</ele><time>2026-03-22T14:18:17.995Z</time></trkpt><trkpt lat="44.02260941919571" lon="12.621272414404869"><ele>7.000000000000001</ele><time>2026-03-22T14:18:18.995Z</time></trkpt><trkpt lat="44.0226654895749" lon="12.621185801960898"><ele>7.0</ele><time>2026-03-22T14:18:19.995Z</time></trkpt><trkpt lat="44.02271315165651" lon="12.62110464802932"><ele>7.0</ele><time>2026-03-22T14:18:20.995Z</time></trkpt><trkpt lat="44.022769675907924" lon="12.621022748422766"><ele>7.0</ele><time>2026-03-22T14:18:21.995Z</time></trkpt><trkpt lat="44.02282633443241" lon="12.620929072090028"><ele>7.000000000000001</ele><time>2026-03-22T14:18:22.995Z</time></trkpt><trkpt lat="44.022880543484405" lon="12.620840944917646"><ele>7.0</ele><time>2026-03-22T14:18:23.995Z</time></trkpt><trkpt lat="44.022941870095416" lon="12.620751721065659"><ele>7.0</ele><time>2026-03-22T14:18:24.995Z</time></trkpt><trkpt lat="44.02300557578165" lon="12.620641090277115"><ele>7.0</ele><time>2026-03-22T14:18:25.995Z</time></trkpt><trkpt lat="44.02307924022995" lon="12.620518443749598"><ele>7.0</ele><time>2026-03-22T14:18:26.995Z</time></trkpt><trkpt lat="44.02315810998865" lon="12.62039075452278"><ele>7.0</ele><time>2026-03-22T14:18:27.995Z</time></trkpt><trkpt lat="44.023248533799375" lon="12.620251997177853"><ele>7.0</ele><time>2026-03-22T14:18:28.995Z</time></trkpt><trkpt lat="44.02333452999301" lon="12.620115968201356"><ele>7.0</ele><time>2026-03-22T14:18:29.995Z</time></trkpt><trkpt lat="44.023416548984535" lon="12.619977632788894"><ele>7.0</ele><time>2026-03-22T14:18:30.995Z</time></trkpt><trkpt lat="44.02349701936912" lon="12.619833287645934"><ele>7.0</ele><time>2026-03-22T14:18:31.995Z</time></trkpt><trkpt lat="44.02358928370206" lon="12.619686048997576"><ele>7.0</ele><time>2026-03-22T14:18:32.995Z</time></trkpt><trkpt lat="44.023677392724764" lon="12.619529414750732"><ele>7.0</ele><time>2026-03-22T14:18:33.995Z</time></trkpt><trkpt lat="44.02377035020456" lon="12.619371676169925"><ele>7.0</ele><time>2026-03-22T14:18:34.995Z</time></trkpt><trkpt lat="44.02386029184848" lon="12.619213679957037"><ele>7.0</ele><time>2026-03-22T14:18:35.995Z</time></trkpt><trkpt lat="44.02394847580127" lon="12.619062026897897"><ele>7.25</ele><time>2026-03-22T14:18:36.995Z</time></trkpt><trkpt lat="44.02403990492306" lon="12.61891005516657"><ele>7.5</ele><time>2026-03-22T14:18:37.995Z</time></trkpt><trkpt lat="44.02413417887297" lon="12.618751100929861"><ele>7.75</ele><time>2026-03-22T14:18:38.995Z</time></trkpt><trkpt lat="44.024227022799444" lon="12.618592890009522"><ele>8.0</ele><time>2026-03-22T14:18:39.995Z</time></trkpt><trkpt lat="44.024318725334176" lon="12.61842166470121"><ele>7.0</ele><time>2026-03-22T14:18:40.995Z</time></trkpt><trkpt lat="44.02440627663028" lon="12.618281514754212"><ele>6.0</ele><time>2026-03-22T14:18:41.995Z</time></trkpt><trkpt lat="44.02449089944832" lon="12.618140402026805"><ele>5.0</ele><time>2026-03-22T14:18:42.995Z</time></trkpt><trkpt lat="44.024577518718154" lon="12.617998404329983"><ele>4.0</ele><time>2026-03-22T14:18:43.995Z</time></trkpt><trkpt lat="44.024670207514134" lon="12.617851562713879"><ele>4.0</ele><time>2026-03-22T14:18:44.995Z</time></trkpt><trkpt lat="44.02476256686564" lon="12.617707552630844"><ele>4.0</ele><time>2026-03-22T14:18:45.995Z</time></trkpt><trkpt lat="44.02485268105879" lon="12.617569342981943"><ele>4.0</ele><time>2026-03-22T14:18:46.995Z</time></trkpt><trkpt lat="44.02494481510428" lon="12.617429162525799"><ele>4.0</ele><time>2026-03-22T14:18:47.995Z</time></trkpt><trkpt lat="44.025042796876" lon="12.617278803325469"><ele>4.0</ele><time>2026-03-22T14:18:48.995Z</time></trkpt><trkpt lat="44.0251456244816" lon="12.617129326798224"><ele>4.0</ele><time>2026-03-22T14:18:49.995Z</time></trkpt><trkpt lat="44.025240736754654" lon="12.616968988337332"><ele>4.0</ele><time>2026-03-22T14:18:50.996Z</time></trkpt><trkpt lat="44.025340219968236" lon="12.616814717546578"><ele>4.0</ele><time>2026-03-22T14:18:51.996Z</time></trkpt><trkpt lat="44.025437245030695" lon="12.6166611985843"><ele>4.25</ele><time>2026-03-22T14:18:52.996Z</time></trkpt><trkpt lat="44.02553250946011" lon="12.616510489074015"><ele>4.5</ele><time>2026-03-22T14:18:53.996Z</time></trkpt><trkpt lat="44.025629142807816" lon="12.616361003608972"><ele>4.75</ele><time>2026-03-22T14:18:54.995Z</time></trkpt><trkpt lat="44.025725044436555" lon="12.616213455253153"><ele>5.0</ele><time>2026-03-22T14:18:55.995Z</time></trkpt><trkpt lat="44.02581551842291" lon="12.616072357693309"><ele>4.5</ele><time>2026-03-22T14:18:56.996Z</time></trkpt><trkpt lat="44.025903683476265" lon="12.615932957050859"><ele>4.0</ele><time>2026-03-22T14:18:57.996Z</time></trkpt><trkpt lat="44.02599061455954" lon="12.61578778522537"><ele>3.5</ele><time>2026-03-22T14:18:58.996Z</time></trkpt><trkpt lat="44.02607570180184" lon="12.615655527805393"><ele>3.0</ele><time>2026-03-22T14:18:59.996Z</time></trkpt><trkpt lat="44.02615831960858" lon="12.61552564739893"><ele>3.0</ele><time>2026-03-22T14:19:00.995Z</time></trkpt><trkpt lat="44.026236666186314" lon="12.61540020342037"><ele>3.0</ele><time>2026-03-22T14:19:01.995Z</time></trkpt><trkpt lat="44.02632102977301" lon="12.615261039276463"><ele>3.0</ele><time>2026-03-22T14:19:02.995Z</time></trkpt><trkpt lat="44.02641921353136" lon="12.615114230102087"><ele>3.0</ele><time>2026-03-22T14:19:03.995Z</time></trkpt><trkpt lat="44.02651314073565" lon="12.614972654202688"><ele>3.5</ele><time>2026-03-22T14:19:04.995Z</time></trkpt><trkpt lat="44.026601905719595" lon="12.614833329187444"><ele>4.0</ele><time>2026-03-22T14:19:05.995Z</time></trkpt><trkpt lat="44.02669975848185" lon="12.614691108703253"><ele>4.5</ele><time>2026-03-22T14:19:06.995Z</time></trkpt><trkpt lat="44.02679178374851" lon="12.614545295954517"><ele>5.0</ele><time>2026-03-22T14:19:07.995Z</time></trkpt><trkpt lat="44.026874273596675" lon="12.614406087981202"><ele>5.25</ele><time>2026-03-22T14:19:08.995Z</time></trkpt><trkpt lat="44.0269567650835" lon="12.614257174422498"><ele>5.5</ele><time>2026-03-22T14:19:09.995Z</time></trkpt><trkpt lat="44.027049579422496" lon="12.61409149391479"><ele>5.75</ele><time>2026-03-22T14:19:10.995Z</time></trkpt><trkpt lat="44.02715194608399" lon="12.613926829465322"><ele>6.0</ele><time>2026-03-22T14:19:11.995Z</time></trkpt><trkpt lat="44.02725707391974" lon="12.613776946630441"><ele>5.5</ele><time>2026-03-22T14:19:12.995Z</time></trkpt><trkpt lat="44.02736059885373" lon="12.613626402491377"><ele>5.0</ele><time>2026-03-22T14:19:13.995Z</time></trkpt><trkpt lat="44.02745666507159" lon="12.613474250766371"><ele>4.5</ele><time>2026-03-22T14:19:14.995Z</time></trkpt><trkpt lat="44.02754915711207" lon="12.613320768205567"><ele>4.0</ele><time>2026-03-22T14:19:15.995Z</time></trkpt><trkpt lat="44.027638141054034" lon="12.613178346372145"><ele>4.25</ele><time>2026-03-22T14:19:16.995Z</time></trkpt><trkpt lat="44.02771860148052" lon="12.613049724092338"><ele>4.5</ele><time>2026-03-22T14:19:17.995Z</time></trkpt><trkpt lat="44.02780215465091" lon="12.61291335518369"><ele>4.75</ele><time>2026-03-22T14:19:18.995Z</time></trkpt><trkpt lat="44.02788952488429" lon="12.612762812880401"><ele>5.0</ele><time>2026-03-22T14:19:19.995Z</time></trkpt><trkpt lat="44.02798082365163" lon="12.612610643839409"><ele>5.0</ele><time>2026-03-22T14:19:20.995Z</time></trkpt><trkpt lat="44.02807456844252" lon="12.612453238772664"><ele>5.0</ele><time>2026-03-22T14:19:21.995Z</time></trkpt><trkpt lat="44.02817738122533" lon="12.612296888252972"><ele>5.0</ele><time>2026-03-22T14:19:22.995Z</time></trkpt><trkpt lat="44.02826782951203" lon="12.612161754133849"><ele>5.0</ele><time>2026-03-22T14:19:23.995Z</time></trkpt><trkpt lat="44.02834891606033" lon="12.612027993521801"><ele>4.6</ele><time>2026-03-22T14:19:24.995Z</time></trkpt><trkpt lat="44.02842397207778" lon="12.61190951283845"><ele>4.2</ele><time>2026-03-22T14:19:25.995Z</time></trkpt><trkpt lat="44.02849069791913" lon="12.611798713183141"><ele>3.8</ele><time>2026-03-22T14:19:26.995Z</time></trkpt><trkpt lat="44.0285497373235" lon="12.611707789123619"><ele>3.4</ele><time>2026-03-22T14:19:27.995Z</time></trkpt><trkpt lat="44.02860615814556" lon="12.61161721359948"><ele>3.0</ele><time>2026-03-22T14:19:28.995Z</time></trkpt><trkpt lat="44.028654617431286" lon="12.61154727414564"><ele>3.0</ele><time>2026-03-22T14:19:29.995Z</time></trkpt><trkpt lat="44.02871969738701" lon="12.611444635567764"><ele>3.0</ele><time>2026-03-22T14:19:31.995Z</time></trkpt><trkpt lat="44.02878257328093" lon="12.611331869750073"><ele>3.0</ele><time>2026-03-22T14:19:33.995Z</time></trkpt><trkpt lat="44.02884230230421" lon="12.611242859168879"><ele>3.0</ele><time>2026-03-22T14:19:35.995Z</time></trkpt><trkpt lat="44.028903733105395" lon="12.611149131318522"><ele>3.0</ele><time>2026-03-22T14:19:37.995Z</time></trkpt><trkpt lat="44.02899829398993" lon="12.61099603931004"><ele>3.0</ele><time>2026-03-22T14:19:39.995Z</time></trkpt><trkpt lat="44.02906429479913" lon="12.610885610398208"><ele>3.0</ele><time>2026-03-22T14:19:40.995Z</time></trkpt><trkpt lat="44.02913424686955" lon="12.61076778072727"><ele>3.0</ele><time>2026-03-22T14:19:41.995Z</time></trkpt><trkpt lat="44.0292010318156" lon="12.610656587491363"><ele>3.0</ele><time>2026-03-22T14:19:42.995Z</time></trkpt><trkpt lat="44.029279314280274" lon="12.610525915838174"><ele>3.0</ele><time>2026-03-22T14:19:43.995Z</time></trkpt><trkpt lat="44.029368868043576" lon="12.610387402888362"><ele>3.0</ele><time>2026-03-22T14:19:44.995Z</time></trkpt><trkpt lat="44.029460585043616" lon="12.610246369436306"><ele>3.0</ele><time>2026-03-22T14:19:45.995Z</time></trkpt><trkpt lat="44.029541059471015" lon="12.610095515163126"><ele>3.0</ele><time>2026-03-22T14:19:46.995Z</time></trkpt><trkpt lat="44.02962206944611" lon="12.609955019642852"><ele>3.0</ele><time>2026-03-22T14:19:47.995Z</time></trkpt><trkpt lat="44.02970451826109" lon="12.609811314864084"><ele>3.0</ele><time>2026-03-22T14:19:48.995Z</time></trkpt><trkpt lat="44.029792471655" lon="12.609667762395935"><ele>3.0</ele><time>2026-03-22T14:19:49.995Z</time></trkpt><trkpt lat="44.029881286788516" lon="12.609521744938855"><ele>3.0</ele><time>2026-03-22T14:19:50.995Z</time></trkpt><trkpt lat="44.02996789239025" lon="12.60938187895901"><ele>3.0</ele><time>2026-03-22T14:19:51.995Z</time></trkpt><trkpt lat="44.03004965066362" lon="12.609244183040328"><ele>3.25</ele><time>2026-03-22T14:19:52.995Z</time></trkpt><trkpt lat="44.03013198189214" lon="12.6091013399683"><ele>3.5</ele><time>2026-03-22T14:19:53.995Z</time></trkpt><trkpt lat="44.03020944952417" lon="12.608964849160639"><ele>3.75</ele><time>2026-03-22T14:19:54.995Z</time></trkpt><trkpt lat="44.03029005979967" lon="12.608830575184498"><ele>4.0</ele><time>2026-03-22T14:19:55.995Z</time></trkpt><trkpt lat="44.03036836271507" lon="12.608703072890076"><ele>3.5</ele><time>2026-03-22T14:19:56.995Z</time></trkpt><trkpt lat="44.03044839915212" lon="12.608579913772354"><ele>3.0</ele><time>2026-03-22T14:19:57.995Z</time></trkpt><trkpt lat="44.0305280120591" lon="12.608455525662245"><ele>2.5</ele><time>2026-03-22T14:19:58.995Z</time></trkpt><trkpt lat="44.03060997154042" lon="12.608331655654242"><ele>2.0</ele><time>2026-03-22T14:19:59.995Z</time></trkpt><trkpt lat="44.03069119606831" lon="12.608210495121957"><ele>1.9999999999999998</ele><time>2026-03-22T14:20:00.995Z</time></trkpt><trkpt lat="44.03076359426462" lon="12.608101880989114"><ele>2.0</ele><time>2026-03-22T14:20:01.995Z</time></trkpt><trkpt lat="44.03082681100316" lon="12.608002698539968"><ele>2.0</ele><time>2026-03-22T14:20:02.995Z</time></trkpt><trkpt lat="44.03088708115386" lon="12.607918245230868"><ele>2.0</ele><time>2026-03-22T14:20:03.995Z</time></trkpt><trkpt lat="44.03095092682748" lon="12.607850463022919"><ele>1.9999999999999998</ele><time>2026-03-22T14:20:04.995Z</time></trkpt><trkpt lat="44.0310219433696" lon="12.60780617429357"><ele>2.0</ele><time>2026-03-22T14:20:05.995Z</time></trkpt><trkpt lat="44.03110338006602" lon="12.607780165291283"><ele>2.2</ele><time>2026-03-22T14:20:06.995Z</time></trkpt><trkpt lat="44.031198429390095" lon="12.607772104907367"><ele>2.4000000000000004</ele><time>2026-03-22T14:20:07.995Z</time></trkpt><trkpt lat="44.03130664263778" lon="12.60776856293667"><ele>2.5999999999999996</ele><time>2026-03-22T14:20:08.995Z</time></trkpt><trkpt lat="44.03140238679045" lon="12.607762768297501"><ele>2.8</ele><time>2026-03-22T14:20:09.995Z</time></trkpt><trkpt lat="44.03148484309631" lon="12.607749392069508"><ele>3.0</ele><time>2026-03-22T14:20:10.995Z</time></trkpt><trkpt lat="44.031561572596125" lon="12.607720291558424"><ele>3.0</ele><time>2026-03-22T14:20:11.995Z</time></trkpt><trkpt lat="44.031636448269076" lon="12.60765802783521"><ele>3.0</ele><time>2026-03-22T14:20:12.995Z</time></trkpt><trkpt lat="44.03170597373386" lon="12.607563724811312"><ele>3.0</ele><time>2026-03-22T14:20:13.995Z</time></trkpt><trkpt lat="44.031742054291485" lon="12.607425044532128"><ele>3.0</ele><time>2026-03-22T14:20:14.995Z</time></trkpt><trkpt lat="44.031808273788826" lon="12.607319099600044"><ele>3.0</ele><time>2026-03-22T14:20:15.995Z</time></trkpt><trkpt lat="44.03190302143835" lon="12.607232821338206"><ele>3.0</ele><time>2026-03-22T14:20:16.995Z</time></trkpt><trkpt lat="44.03197964521527" lon="12.60711254028818"><ele>3.0</ele><time>2026-03-22T14:20:17.995Z</time></trkpt><trkpt lat="44.03205553783086" lon="12.606995035001322"><ele>3.0</ele><time>2026-03-22T14:20:18.995Z</time></trkpt><trkpt lat="44.03211482912319" lon="12.606891155151182"><ele>3.0</ele><time>2026-03-22T14:20:19.995Z</time></trkpt><trkpt lat="44.03215934656443" lon="12.606810675605013"><ele>3.0</ele><time>2026-03-22T14:20:20.995Z</time></trkpt><trkpt lat="44.03219139983478" lon="12.606731937824156"><ele>2.9999999999999996</ele><time>2026-03-22T14:20:21.995Z</time></trkpt><trkpt lat="44.03220849470816" lon="12.60664228956301"><ele>3.0</ele><time>2026-03-22T14:20:22.995Z</time></trkpt><trkpt lat="44.03220329425889" lon="12.606544172238259"><ele>3.0</ele><time>2026-03-22T14:20:23.995Z</time></trkpt><trkpt lat="44.032184782743656" lon="12.606443251448999"><ele>3.0</ele><time>2026-03-22T14:20:24.995Z</time></trkpt><trkpt lat="44.032146734966716" lon="12.606358191362466"><ele>3.0</ele><time>2026-03-22T14:20:25.995Z</time></trkpt><trkpt lat="44.03210982417999" lon="12.60626844905724"><ele>2.9999999999999996</ele><time>2026-03-22T14:20:26.995Z</time></trkpt><trkpt lat="44.03208782636197" lon="12.606169009002269"><ele>3.0</ele><time>2026-03-22T14:20:27.995Z</time></trkpt><trkpt lat="44.03208578087962" lon="12.606068022396808"><ele>3.2</ele><time>2026-03-22T14:20:28.995Z</time></trkpt><trkpt lat="44.0321128893641" lon="12.605958152838165"><ele>3.4</ele><time>2026-03-22T14:20:29.995Z</time></trkpt><trkpt lat="44.032164753981725" lon="12.605849897675716"><ele>3.6000000000000005</ele><time>2026-03-22T14:20:30.995Z</time></trkpt><trkpt lat="44.03223774380982" lon="12.605743682461762"><ele>3.8000000000000003</ele><time>2026-03-22T14:20:31.995Z</time></trkpt><trkpt lat="44.03232050373224" lon="12.60562803933694"><ele>4.0</ele><time>2026-03-22T14:20:32.995Z</time></trkpt><trkpt lat="44.03240028895377" lon="12.605503262685458"><ele>4.0</ele><time>2026-03-22T14:20:33.995Z</time></trkpt><trkpt lat="44.032476636815105" lon="12.605381646024817"><ele>4.0</ele><time>2026-03-22T14:20:34.995Z</time></trkpt><trkpt lat="44.03254913719596" lon="12.60525974799284"><ele>4.0</ele><time>2026-03-22T14:20:35.995Z</time></trkpt><trkpt lat="44.03262192659436" lon="12.605140496649083"><ele>4.0</ele><time>2026-03-22T14:20:36.995Z</time></trkpt><trkpt lat="44.032688783546824" lon="12.605037585235928"><ele>4.0</ele><time>2026-03-22T14:20:37.995Z</time></trkpt><trkpt lat="44.032750116323236" lon="12.604932026081185"><ele>4.0</ele><time>2026-03-22T14:20:38.995Z</time></trkpt><trkpt lat="44.03281951093056" lon="12.604822136467718"><ele>4.0</ele><time>2026-03-22T14:20:39.995Z</time></trkpt><trkpt lat="44.03289361561256" lon="12.604704051197757"><ele>4.0</ele><time>2026-03-22T14:20:40.995Z</time></trkpt><trkpt lat="44.032965179253516" lon="12.604591389064016"><ele>4.0</ele><time>2026-03-22T14:20:41.995Z</time></trkpt><trkpt lat="44.033028264527395" lon="12.60449293577231"><ele>4.0</ele><time>2026-03-22T14:20:42.995Z</time></trkpt><trkpt lat="44.03308235958165" lon="12.604396114808456"><ele>4.166666666666666</ele><time>2026-03-22T14:20:43.995Z</time></trkpt><trkpt lat="44.033137521252876" lon="12.604301721243537"><ele>4.333333333333333</ele><time>2026-03-22T14:20:44.995Z</time></trkpt><trkpt lat="44.03319001457273" lon="12.60420663782937"><ele>4.5</ele><time>2026-03-22T14:20:45.995Z</time></trkpt><trkpt lat="44.03324730185775" lon="12.604123988354004"><ele>4.666666666666667</ele><time>2026-03-22T14:20:46.995Z</time></trkpt><trkpt lat="44.03329934350707" lon="12.60405128556721"><ele>4.833333333333334</ele><time>2026-03-22T14:20:47.995Z</time></trkpt><trkpt lat="44.03334752557239" lon="12.603968986004428"><ele>5.0</ele><time>2026-03-22T14:20:48.995Z</time></trkpt><trkpt lat="44.03340094675598" lon="12.603877156284911"><ele>5.0</ele><time>2026-03-22T14:20:49.995Z</time></trkpt><trkpt lat="44.03345607803808" lon="12.603787219841868"><ele>5.0</ele><time>2026-03-22T14:20:50.995Z</time></trkpt><trkpt lat="44.03351080450529" lon="12.603705273094361"><ele>5.0</ele><time>2026-03-22T14:20:51.995Z</time></trkpt><trkpt lat="44.03356905967632" lon="12.603616362401233"><ele>5.0</ele><time>2026-03-22T14:20:52.995Z</time></trkpt><trkpt lat="44.03362930298866" lon="12.603514202655518"><ele>5.0</ele><time>2026-03-22T14:20:53.995Z</time></trkpt><trkpt lat="44.033697406459574" lon="12.603403303835735"><ele>5.0</ele><time>2026-03-22T14:20:54.995Z</time></trkpt><trkpt lat="44.03376868125695" lon="12.603302362547675"><ele>5.0</ele><time>2026-03-22T14:20:55.995Z</time></trkpt><trkpt lat="44.03383447805789" lon="12.603188788366907"><ele>5.0</ele><time>2026-03-22T14:20:56.995Z</time></trkpt><trkpt lat="44.03390047832027" lon="12.603081497457893"><ele>5.0</ele><time>2026-03-22T14:20:57.996Z</time></trkpt><trkpt lat="44.03396526786999" lon="12.602973841824479"><ele>5.0</ele><time>2026-03-22T14:20:58.996Z</time></trkpt><trkpt lat="44.03403234444558" lon="12.602869920882537"><ele>4.6</ele><time>2026-03-22T14:20:59.996Z</time></trkpt><trkpt lat="44.03409657924106" lon="12.602761451327341"><ele>4.2</ele><time>2026-03-22T14:21:00.996Z</time></trkpt><trkpt lat="44.034156910771465" lon="12.602653249488903"><ele>3.8</ele><time>2026-03-22T14:21:01.996Z</time></trkpt><trkpt lat="44.03422388625067" lon="12.60255283188615"><ele>3.4</ele><time>2026-03-22T14:21:02.996Z</time></trkpt><trkpt lat="44.034284857598415" lon="12.602454645284636"><ele>3.0</ele><time>2026-03-22T14:21:03.995Z</time></trkpt><trkpt lat="44.034340237738874" lon="12.602358941592348"><ele>3.0</ele><time>2026-03-22T14:21:04.995Z</time></trkpt><trkpt lat="44.034401842014866" lon="12.602261925981418"><ele>3.0</ele><time>2026-03-22T14:21:05.996Z</time></trkpt><trkpt lat="44.034471039620826" lon="12.602168507049486"><ele>3.0</ele><time>2026-03-22T14:21:06.995Z</time></trkpt><trkpt lat="44.03453852014347" lon="12.602068394590798"><ele>3.0</ele><time>2026-03-22T14:21:07.995Z</time></trkpt><trkpt lat="44.03460457530561" lon="12.601963517224368"><ele>3.0</ele><time>2026-03-22T14:21:08.996Z</time></trkpt><trkpt lat="44.034676752674834" lon="12.601850029878474"><ele>3.0</ele><time>2026-03-22T14:21:09.996Z</time></trkpt><trkpt lat="44.034754820872536" lon="12.601736082570307"><ele>3.0</ele><time>2026-03-22T14:21:10.996Z</time></trkpt><trkpt lat="44.0348305655883" lon="12.601615402842478"><ele>3.0</ele><time>2026-03-22T14:21:11.996Z</time></trkpt><trkpt lat="44.034905272937856" lon="12.601501662656224"><ele>3.0</ele><time>2026-03-22T14:21:12.996Z</time></trkpt><trkpt lat="44.034978598563065" lon="12.601379750698394"><ele>3.0</ele><time>2026-03-22T14:21:13.996Z</time></trkpt><trkpt lat="44.0350547417951" lon="12.601253091447434"><ele>3.0</ele><time>2026-03-22T14:21:14.996Z</time></trkpt><trkpt lat="44.03513625559681" lon="12.60112405322511"><ele>3.0</ele><time>2026-03-22T14:21:15.996Z</time></trkpt><trkpt lat="44.03521537898935" lon="12.601008008297608"><ele>3.0</ele><time>2026-03-22T14:21:16.996Z</time></trkpt><trkpt lat="44.03528953985989" lon="12.6008885271121"><ele>3.0</ele><time>2026-03-22T14:21:17.996Z</time></trkpt><trkpt lat="44.03536655567846" lon="12.600761964863546"><ele>3.0</ele><time>2026-03-22T14:21:18.996Z</time></trkpt><trkpt lat="44.035447974876305" lon="12.600631216494907"><ele>3.0</ele><time>2026-03-22T14:21:19.996Z</time></trkpt><trkpt lat="44.035525672386676" lon="12.600508354611847"><ele>3.0</ele><time>2026-03-22T14:21:20.996Z</time></trkpt><trkpt lat="44.03560221720841" lon="12.600385934305145"><ele>3.2</ele><time>2026-03-22T14:21:21.996Z</time></trkpt><trkpt lat="44.0356697351207" lon="12.600265762008329"><ele>3.4</ele><time>2026-03-22T14:21:22.996Z</time></trkpt><trkpt lat="44.03574011492303" lon="12.60015138357289"><ele>3.6000000000000005</ele><time>2026-03-22T14:21:23.996Z</time></trkpt><trkpt lat="44.035805811992184" lon="12.600040886083834"><ele>3.8000000000000003</ele><time>2026-03-22T14:21:24.996Z</time></trkpt><trkpt lat="44.03586945262197" lon="12.599935570342446"><ele>4.0</ele><time>2026-03-22T14:21:25.996Z</time></trkpt><trkpt lat="44.03593093953151" lon="12.599830321643584"><ele>4.0</ele><time>2026-03-22T14:21:26.996Z</time></trkpt><trkpt lat="44.03599447019265" lon="12.59973480396255"><ele>4.0</ele><time>2026-03-22T14:21:27.996Z</time></trkpt><trkpt lat="44.03605354663643" lon="12.59963444894387"><ele>4.0</ele><time>2026-03-22T14:21:28.996Z</time></trkpt><trkpt lat="44.036118828503184" lon="12.599532501744232"><ele>4.0</ele><time>2026-03-22T14:21:29.996Z</time></trkpt><trkpt lat="44.0361845329823" lon="12.599433232540887"><ele>4.0</ele><time>2026-03-22T14:21:30.996Z</time></trkpt><trkpt lat="44.036246714936254" lon="12.5993318476311"><ele>4.2</ele><time>2026-03-22T14:21:31.996Z</time></trkpt><trkpt lat="44.036309711641756" lon="12.599227895973364"><ele>4.4</ele><time>2026-03-22T14:21:32.996Z</time></trkpt><trkpt lat="44.03637657844898" lon="12.599118272294058"><ele>4.6</ele><time>2026-03-22T14:21:33.996Z</time></trkpt><trkpt lat="44.0364451977066" lon="12.599009932791708"><ele>4.8</ele><time>2026-03-22T14:21:34.996Z</time></trkpt><trkpt lat="44.036508639580994" lon="12.598912761372702"><ele>5.0</ele><time>2026-03-22T14:21:35.996Z</time></trkpt><trkpt lat="44.03655802015929" lon="12.598819477746847"><ele>5.0</ele><time>2026-03-22T14:21:36.996Z</time></trkpt><trkpt lat="44.03661022959522" lon="12.598733207439007"><ele>5.0</ele><time>2026-03-22T14:21:37.996Z</time></trkpt><trkpt lat="44.036652807155036" lon="12.598667492173668"><ele>5.0</ele><time>2026-03-22T14:21:38.996Z</time></trkpt><trkpt lat="44.0367245971892" lon="12.598553177798287"><ele>5.0</ele><time>2026-03-22T14:21:40.996Z</time></trkpt><trkpt lat="44.03678824110213" lon="12.598455255354764"><ele>5.0</ele><time>2026-03-22T14:21:42.996Z</time></trkpt><trkpt lat="44.03686493801656" lon="12.598351295086017"><ele>4.6</ele><time>2026-03-22T14:21:44.996Z</time></trkpt><trkpt lat="44.036974516650766" lon="12.598266441054683"><ele>4.2</ele><time>2026-03-22T14:21:46.996Z</time></trkpt><trkpt lat="44.03705196798032" lon="12.598247921203088"><ele>3.8</ele><time>2026-03-22T14:21:47.996Z</time></trkpt><trkpt lat="44.03714620885697" lon="12.598229022226604"><ele>3.4</ele><time>2026-03-22T14:21:48.996Z</time></trkpt><trkpt lat="44.03723641829935" lon="12.598209121755497"><ele>3.0</ele><time>2026-03-22T14:21:49.996Z</time></trkpt><trkpt lat="44.037332261471946" lon="12.598138149096316"><ele>3.0</ele><time>2026-03-22T14:21:50.996Z</time></trkpt><trkpt lat="44.03739107304182" lon="12.59803621079674"><ele>3.0</ele><time>2026-03-22T14:21:51.996Z</time></trkpt><trkpt lat="44.037426441813395" lon="12.597910034100845"><ele>3.0</ele><time>2026-03-22T14:21:52.996Z</time></trkpt><trkpt lat="44.03743964756652" lon="12.597767306298465"><ele>3.0</ele><time>2026-03-22T14:21:53.996Z</time></trkpt><trkpt lat="44.037427914627166" lon="12.597630038270388"><ele>3.0</ele><time>2026-03-22T14:21:54.996Z</time></trkpt><trkpt lat="44.03742967443235" lon="12.59749542939902"><ele>3.0</ele><time>2026-03-22T14:21:55.996Z</time></trkpt><trkpt lat="44.037465119100005" lon="12.597376233128543"><ele>3.0</ele><time>2026-03-22T14:21:56.996Z</time></trkpt><trkpt lat="44.03753879533264" lon="12.597248902361917"><ele>3.0</ele><time>2026-03-22T14:21:57.996Z</time></trkpt><trkpt lat="44.0376304610617" lon="12.597117556843296"><ele>3.0</ele><time>2026-03-22T14:21:58.996Z</time></trkpt><trkpt lat="44.037727658330574" lon="12.596970567838234"><ele>3.0</ele><time>2026-03-22T14:21:59.996Z</time></trkpt><trkpt lat="44.03781936860553" lon="12.59682651050451"><ele>3.0</ele><time>2026-03-22T14:22:00.996Z</time></trkpt><trkpt lat="44.03790397039199" lon="12.596694477746706"><ele>3.0</ele><time>2026-03-22T14:22:01.996Z</time></trkpt><trkpt lat="44.037966597011135" lon="12.596542514480614"><ele>3.0</ele><time>2026-03-22T14:22:02.996Z</time></trkpt><trkpt lat="44.03804758845489" lon="12.596416225824937"><ele>3.0</ele><time>2026-03-22T14:22:03.996Z</time></trkpt><trkpt lat="44.038134027471564" lon="12.596298102703733"><ele>3.0</ele><time>2026-03-22T14:22:04.996Z</time></trkpt><trkpt lat="44.03821417980879" lon="12.596164406251246"><ele>3.0</ele><time>2026-03-22T14:22:05.996Z</time></trkpt><trkpt lat="44.03829981836849" lon="12.59604077062772"><ele>3.0</ele><time>2026-03-22T14:22:06.996Z</time></trkpt><trkpt lat="44.03838149338029" lon="12.595916714689823"><ele>3.0</ele><time>2026-03-22T14:22:07.996Z</time></trkpt><trkpt lat="44.038461510914054" lon="12.595793260552803"><ele>3.0</ele><time>2026-03-22T14:22:08.996Z</time></trkpt><trkpt lat="44.03853901343667" lon="12.59567222009197"><ele>3.0</ele><time>2026-03-22T14:22:09.996Z</time></trkpt><trkpt lat="44.03862082078895" lon="12.595552587325548"><ele>3.0</ele><time>2026-03-22T14:22:10.996Z</time></trkpt><trkpt lat="44.038708203473796" lon="12.595418601497107"><ele>3.0</ele><time>2026-03-22T14:22:11.996Z</time></trkpt><trkpt lat="44.038799547068386" lon="12.595275903036253"><ele>3.0</ele><time>2026-03-22T14:22:12.996Z</time></trkpt><trkpt lat="44.03887833806051" lon="12.595121000992421"><ele>3.0</ele><time>2026-03-22T14:22:13.996Z</time></trkpt><trkpt lat="44.03896233015577" lon="12.594999598388293"><ele>3.0</ele><time>2026-03-22T14:22:14.996Z</time></trkpt><trkpt lat="44.039045766953095" lon="12.59487497044333"><ele>3.0</ele><time>2026-03-22T14:22:15.996Z</time></trkpt><trkpt lat="44.039129297276716" lon="12.59474974366358"><ele>3.0</ele><time>2026-03-22T14:22:16.996Z</time></trkpt><trkpt lat="44.03920519385937" lon="12.59461058386182"><ele>3.0</ele><time>2026-03-22T14:22:17.996Z</time></trkpt><trkpt lat="44.039293810454865" lon="12.594480923816956"><ele>3.0</ele><time>2026-03-22T14:22:18.996Z</time></trkpt><trkpt lat="44.0393812943081" lon="12.594351588619348"><ele>2.75</ele><time>2026-03-22T14:22:19.996Z</time></trkpt><trkpt lat="44.0394702402213" lon="12.594209677447841"><ele>2.5</ele><time>2026-03-22T14:22:20.996Z</time></trkpt><trkpt lat="44.039558755380185" lon="12.594071976053238"><ele>2.25</ele><time>2026-03-22T14:22:21.996Z</time></trkpt><trkpt lat="44.03964558032951" lon="12.593926157814838"><ele>2.0</ele><time>2026-03-22T14:22:22.996Z</time></trkpt><trkpt lat="44.03972200579396" lon="12.593774342151706"><ele>2.25</ele><time>2026-03-22T14:22:23.996Z</time></trkpt><trkpt lat="44.03980588336158" lon="12.593630382192298"><ele>2.5</ele><time>2026-03-22T14:22:24.996Z</time></trkpt><trkpt lat="44.039877830849065" lon="12.593494624758296"><ele>2.75</ele><time>2026-03-22T14:22:25.996Z</time></trkpt><trkpt lat="44.03995277483199" lon="12.593350797022653"><ele>3.0</ele><time>2026-03-22T14:22:26.996Z</time></trkpt><trkpt lat="44.040019784555675" lon="12.593216735989857"><ele>3.0</ele><time>2026-03-22T14:22:27.996Z</time></trkpt><trkpt lat="44.04008699993083" lon="12.593087842518626"><ele>3.0</ele><time>2026-03-22T14:22:28.996Z</time></trkpt><trkpt lat="44.040151389499854" lon="12.592955697315208"><ele>3.0</ele><time>2026-03-22T14:22:29.996Z</time></trkpt><trkpt lat="44.04021168140139" lon="12.592831265371405"><ele>3.0</ele><time>2026-03-22T14:22:30.996Z</time></trkpt><trkpt lat="44.04025631215588" lon="12.592694566400242"><ele>3.0</ele><time>2026-03-22T14:22:31.996Z</time></trkpt><trkpt lat="44.04031886278666" lon="12.592558721519287"><ele>2.8</ele><time>2026-03-22T14:22:32.996Z</time></trkpt><trkpt lat="44.040374329880684" lon="12.592426194482744"><ele>2.5999999999999996</ele><time>2026-03-22T14:22:33.996Z</time></trkpt><trkpt lat="44.04042365383742" lon="12.59228538019984"><ele>2.4000000000000004</ele><time>2026-03-22T14:22:34.996Z</time></trkpt><trkpt lat="44.040463619969785" lon="12.59214894755413"><ele>2.2</ele><time>2026-03-22T14:22:35.996Z</time></trkpt><trkpt lat="44.04047810465348" lon="12.592014850635355"><ele>2.0</ele><time>2026-03-22T14:22:36.996Z</time></trkpt><trkpt lat="44.04050002386215" lon="12.591899961909638"><ele>2.0</ele><time>2026-03-22T14:22:37.996Z</time></trkpt><trkpt lat="44.04052718770264" lon="12.591803685399272"><ele>2.0</ele><time>2026-03-22T14:22:38.996Z</time></trkpt><trkpt lat="44.040594336085206" lon="12.591732412768977"><ele>2.0</ele><time>2026-03-22T14:22:39.996Z</time></trkpt><trkpt lat="44.04065781083308" lon="12.591645609856064"><ele>2.0</ele><time>2026-03-22T14:22:40.996Z</time></trkpt><trkpt lat="44.04079063799734" lon="12.591602384834731"><ele>2.0</ele><time>2026-03-22T14:22:41.996Z</time></trkpt><trkpt lat="44.04090063734713" lon="12.591518687413224"><ele>2.75</ele><time>2026-03-22T14:22:42.996Z</time></trkpt><trkpt lat="44.0409796409002" lon="12.59141372017742"><ele>3.5</ele><time>2026-03-22T14:22:43.996Z</time></trkpt><trkpt lat="44.04104667754864" lon="12.591282651537465"><ele>4.25</ele><time>2026-03-22T14:22:44.996Z</time></trkpt><trkpt lat="44.04109000666445" lon="12.591132237434767"><ele>5.0</ele><time>2026-03-22T14:22:45.996Z</time></trkpt><trkpt lat="44.04111312834792" lon="12.590970687377714"><ele>5.0</ele><time>2026-03-22T14:22:46.996Z</time></trkpt><trkpt lat="44.04111963049043" lon="12.59082403360889"><ele>5.0</ele><time>2026-03-22T14:22:47.996Z</time></trkpt><trkpt lat="44.04108022246649" lon="12.5906734697683"><ele>5.0</ele><time>2026-03-22T14:22:48.996Z</time></trkpt><trkpt lat="44.04104140386563" lon="12.5905355356479"><ele>5.0</ele><time>2026-03-22T14:22:49.996Z</time></trkpt><trkpt lat="44.0409779129836" lon="12.590451718810685"><ele>5.0</ele><time>2026-03-22T14:22:50.996Z</time></trkpt><trkpt lat="44.04095048500709" lon="12.590316901961568"><ele>4.6</ele><time>2026-03-22T14:22:51.996Z</time></trkpt><trkpt lat="44.040937800184665" lon="12.59020105691141"><ele>4.2</ele><time>2026-03-22T14:22:52.996Z</time></trkpt><trkpt lat="44.04094393221393" lon="12.590071951508381"><ele>3.8</ele><time>2026-03-22T14:22:53.996Z</time></trkpt><trkpt lat="44.040996286007505" lon="12.589940141630533"><ele>3.4</ele><time>2026-03-22T14:22:54.996Z</time></trkpt><trkpt lat="44.041036116454514" lon="12.58979999141523"><ele>3.0</ele><time>2026-03-22T14:22:55.996Z</time></trkpt><trkpt lat="44.04107812953348" lon="12.589666497983703"><ele>3.0</ele><time>2026-03-22T14:22:56.996Z</time></trkpt><trkpt lat="44.04111705516985" lon="12.589520501940596"><ele>3.0</ele><time>2026-03-22T14:22:57.996Z</time></trkpt><trkpt lat="44.04114623588201" lon="12.589375210560473"><ele>3.0</ele><time>2026-03-22T14:22:58.996Z</time></trkpt><trkpt lat="44.04116848790895" lon="12.58921535801722"><ele>3.0</ele><time>2026-03-22T14:22:59.996Z</time></trkpt><trkpt lat="44.04120111203753" lon="12.589042599757178"><ele>3.0</ele><time>2026-03-22T14:23:00.996Z</time></trkpt><trkpt lat="44.04121193298496" lon="12.588843924196862"><ele>3.0</ele><time>2026-03-22T14:23:01.996Z</time></trkpt><trkpt lat="44.04123096074636" lon="12.588636468704781"><ele>3.0</ele><time>2026-03-22T14:23:02.997Z</time></trkpt><trkpt lat="44.041246744075224" lon="12.588442965638473"><ele>3.0</ele><time>2026-03-22T14:23:03.996Z</time></trkpt><trkpt lat="44.041259347635545" lon="12.588247441966773"><ele>2.6666666666666665</ele><time>2026-03-22T14:23:04.996Z</time></trkpt><trkpt lat="44.041268446868294" lon="12.588039291626222"><ele>2.333333333333333</ele><time>2026-03-22T14:23:05.996Z</time></trkpt><trkpt lat="44.041279133120604" lon="12.587823143037296"><ele>2.0</ele><time>2026-03-22T14:23:06.995Z</time></trkpt><trkpt lat="44.041291138482606" lon="12.587603643876614"><ele>2.6666666666666665</ele><time>2026-03-22T14:23:07.995Z</time></trkpt><trkpt lat="44.04130248649099" lon="12.58737869842752"><ele>3.333333333333333</ele><time>2026-03-22T14:23:08.996Z</time></trkpt><trkpt lat="44.04131494737587" lon="12.587145354777517"><ele>4.0</ele><time>2026-03-22T14:23:09.996Z</time></trkpt><trkpt lat="44.04132964727866" lon="12.586898312402766"><ele>4.0</ele><time>2026-03-22T14:23:10.996Z</time></trkpt><trkpt lat="44.04134016542301" lon="12.586648634603959"><ele>4.0</ele><time>2026-03-22T14:23:11.996Z</time></trkpt><trkpt lat="44.04135297865367" lon="12.586397831477951"><ele>4.0</ele><time>2026-03-22T14:23:12.996Z</time></trkpt><trkpt lat="44.04136586597601" lon="12.586148627624773"><ele>4.0</ele><time>2026-03-22T14:23:13.996Z</time></trkpt><trkpt lat="44.04137642611578" lon="12.585897708300516"><ele>4.0</ele><time>2026-03-22T14:23:14.996Z</time></trkpt><trkpt lat="44.04138458273808" lon="12.585646954407345"><ele>4.0</ele><time>2026-03-22T14:23:15.995Z</time></trkpt><trkpt lat="44.04139547162263" lon="12.585390078841737"><ele>3.0</ele><time>2026-03-22T14:23:16.995Z</time></trkpt><trkpt lat="44.041408623933705" lon="12.585126182594355"><ele>2.0</ele><time>2026-03-22T14:23:17.995Z</time></trkpt><trkpt lat="44.041419770538006" lon="12.584855474911485"><ele>1.0</ele><time>2026-03-22T14:23:18.995Z</time></trkpt><trkpt lat="44.041429089596356" lon="12.584582168042283"><ele>1.6666666666666665</ele><time>2026-03-22T14:23:19.995Z</time></trkpt><trkpt lat="44.041441190052694" lon="12.584307921224486"><ele>2.3333333333333335</ele><time>2026-03-22T14:23:20.995Z</time></trkpt><trkpt lat="44.041459532697935" lon="12.584033451829292"><ele>3.0</ele><time>2026-03-22T14:23:21.995Z</time></trkpt><trkpt lat="44.04147257890682" lon="12.583765630850337"><ele>4.0</ele><time>2026-03-22T14:23:22.995Z</time></trkpt><trkpt lat="44.04148509403467" lon="12.583505016201427"><ele>5.0</ele><time>2026-03-22T14:23:23.995Z</time></trkpt><trkpt lat="44.0414961090429" lon="12.583239929333333"><ele>6.0</ele><time>2026-03-22T14:23:24.995Z</time></trkpt><trkpt lat="44.041508947274366" lon="12.582975782401181"><ele>5.666666666666667</ele><time>2026-03-22T14:23:25.995Z</time></trkpt><trkpt lat="44.04152209543577" lon="12.582718948183581"><ele>5.333333333333334</ele><time>2026-03-22T14:23:26.995Z</time></trkpt><trkpt lat="44.041531978250134" lon="12.58247258867098"><ele>5.0</ele><time>2026-03-22T14:23:27.995Z</time></trkpt><trkpt lat="44.04154467333304" lon="12.582223119683915"><ele>4.666666666666667</ele><time>2026-03-22T14:23:28.995Z</time></trkpt><trkpt lat="44.0415586946537" lon="12.581971300348947"><ele>4.333333333333333</ele><time>2026-03-22T14:23:29.995Z</time></trkpt><trkpt lat="44.04157267914597" lon="12.581718926663106"><ele>4.0</ele><time>2026-03-22T14:23:30.995Z</time></trkpt><trkpt lat="44.04158570510597" lon="12.58146370263502"><ele>4.0</ele><time>2026-03-22T14:23:31.995Z</time></trkpt><trkpt lat="44.04159719319794" lon="12.581208083510075"><ele>4.0</ele><time>2026-03-22T14:23:32.995Z</time></trkpt><trkpt lat="44.041610693759" lon="12.580945743900129"><ele>4.0</ele><time>2026-03-22T14:23:33.995Z</time></trkpt><trkpt lat="44.04162427673785" lon="12.580680602313622"><ele>5.0</ele><time>2026-03-22T14:23:34.995Z</time></trkpt><trkpt lat="44.04163798647947" lon="12.58041499067344"><ele>6.0</ele><time>2026-03-22T14:23:35.995Z</time></trkpt><trkpt lat="44.041651426176436" lon="12.580149347454618"><ele>7.0</ele><time>2026-03-22T14:23:36.995Z</time></trkpt><trkpt lat="44.0416670421336" lon="12.579883693883644"><ele>7.0</ele><time>2026-03-22T14:23:37.995Z</time></trkpt><trkpt lat="44.041680498285636" lon="12.57962934086157"><ele>7.0</ele><time>2026-03-22T14:23:38.995Z</time></trkpt><trkpt lat="44.041693508825354" lon="12.579377234125143"><ele>7.0</ele><time>2026-03-22T14:23:39.995Z</time></trkpt><trkpt lat="44.04170987927949" lon="12.579124369487404"><ele>6.333333333333334</ele><time>2026-03-22T14:23:40.995Z</time></trkpt><trkpt lat="44.041723002925224" lon="12.578870476841086"><ele>5.666666666666667</ele><time>2026-03-22T14:23:41.995Z</time></trkpt><trkpt lat="44.04173797989565" lon="12.578619424747965"><ele>5.0</ele><time>2026-03-22T14:23:42.995Z</time></trkpt><trkpt lat="44.04174902114099" lon="12.578379994145303"><ele>4.666666666666667</ele><time>2026-03-22T14:23:43.995Z</time></trkpt><trkpt lat="44.04176152141843" lon="12.5781568511292"><ele>4.333333333333333</ele><time>2026-03-22T14:23:44.995Z</time></trkpt><trkpt lat="44.04177062424225" lon="12.57793813707521"><ele>4.0</ele><time>2026-03-22T14:23:45.995Z</time></trkpt><trkpt lat="44.04178316645111" lon="12.577711677968631"><ele>5.25</ele><time>2026-03-22T14:23:46.995Z</time></trkpt><trkpt lat="44.041792163681734" lon="12.577486134616997"><ele>6.5</ele><time>2026-03-22T14:23:47.995Z</time></trkpt><trkpt lat="44.04180048589004" lon="12.577276201480409"><ele>7.75</ele><time>2026-03-22T14:23:48.995Z</time></trkpt><trkpt lat="44.04181036436568" lon="12.577087974731354"><ele>9.0</ele><time>2026-03-22T14:23:49.995Z</time></trkpt><trkpt lat="44.04181989082709" lon="12.57692175835266"><ele>9.166666666666666</ele><time>2026-03-22T14:23:50.995Z</time></trkpt><trkpt lat="44.04182763331572" lon="12.576788688917674"><ele>9.333333333333334</ele><time>2026-03-22T14:23:51.995Z</time></trkpt><trkpt lat="44.04183171640657" lon="12.57668223704436"><ele>9.5</ele><time>2026-03-22T14:23:52.995Z</time></trkpt><trkpt lat="44.04184763371098" lon="12.576546738550986"><ele>9.666666666666668</ele><time>2026-03-22T14:23:54.995Z</time></trkpt><trkpt lat="44.0418854937125" lon="12.57642958202527"><ele>9.833333333333334</ele><time>2026-03-22T14:23:56.995Z</time></trkpt><trkpt lat="44.041923905380486" lon="12.576357483301164"><ele>10.0</ele><time>2026-03-22T14:23:57.995Z</time></trkpt><trkpt lat="44.0419878721319" lon="12.576282334374477"><ele>10.0</ele><time>2026-03-22T14:23:58.995Z</time></trkpt><trkpt lat="44.0420608165408" lon="12.576206656010413"><ele>10.0</ele><time>2026-03-22T14:23:59.995Z</time></trkpt><trkpt lat="44.042104585271275" lon="12.576120751458795"><ele>10.0</ele><time>2026-03-22T14:24:00.995Z</time></trkpt><trkpt lat="44.04211553830839" lon="12.576016665141648"><ele>10.0</ele><time>2026-03-22T14:24:01.995Z</time></trkpt><trkpt lat="44.042089211364306" lon="12.575917735110165"><ele>10.0</ele><time>2026-03-22T14:24:02.995Z</time></trkpt><trkpt lat="44.04205205482342" lon="12.575818980935747"><ele>10.0</ele><time>2026-03-22T14:24:03.995Z</time></trkpt><trkpt lat="44.04199628349025" lon="12.575720634646283"><ele>10.25</ele><time>2026-03-22T14:24:04.995Z</time></trkpt><trkpt lat="44.04193597689426" lon="12.575605773425595"><ele>10.5</ele><time>2026-03-22T14:24:05.995Z</time></trkpt><trkpt lat="44.04190997505672" lon="12.57545414291463"><ele>10.75</ele><time>2026-03-22T14:24:06.995Z</time></trkpt><trkpt lat="44.041908731650636" lon="12.575276051182612"><ele>11.0</ele><time>2026-03-22T14:24:07.995Z</time></trkpt><trkpt lat="44.04192234299728" lon="12.575067593403334"><ele>11.333333333333332</ele><time>2026-03-22T14:24:08.995Z</time></trkpt><trkpt lat="44.04193439329342" lon="12.574842643716181"><ele>11.666666666666666</ele><time>2026-03-22T14:24:09.995Z</time></trkpt><trkpt lat="44.04194170497001" lon="12.574589941537786"><ele>12.0</ele><time>2026-03-22T14:24:10.995Z</time></trkpt><trkpt lat="44.04195531949178" lon="12.57432638673297"><ele>11.333333333333334</ele><time>2026-03-22T14:24:11.995Z</time></trkpt><trkpt lat="44.041966705354945" lon="12.574079598114247"><ele>10.666666666666668</ele><time>2026-03-22T14:24:12.995Z</time></trkpt><trkpt lat="44.04196094946541" lon="12.57387216596176"><ele>10.0</ele><time>2026-03-22T14:24:13.995Z</time></trkpt><trkpt lat="44.041931956239246" lon="12.573659346685357"><ele>9.666666666666668</ele><time>2026-03-22T14:24:14.995Z</time></trkpt><trkpt lat="44.04189770719998" lon="12.573451736935922"><ele>9.333333333333334</ele><time>2026-03-22T14:24:15.995Z</time></trkpt><trkpt lat="44.041847745522524" lon="12.573242875560457"><ele>9.0</ele><time>2026-03-22T14:24:16.995Z</time></trkpt><trkpt lat="44.04178191683652" lon="12.573049249375309"><ele>9.0</ele><time>2026-03-22T14:24:17.995Z</time></trkpt><trkpt lat="44.041715615444915" lon="12.572890221191832"><ele>9.0</ele><time>2026-03-22T14:24:18.995Z</time></trkpt><trkpt lat="44.041656933493115" lon="12.572769112025938"><ele>9.0</ele><time>2026-03-22T14:24:19.995Z</time></trkpt><trkpt lat="44.04159778226066" lon="12.572657785346257"><ele>9.0</ele><time>2026-03-22T14:24:20.995Z</time></trkpt><trkpt lat="44.041549419835896" lon="12.572549092724724"><ele>9.0</ele><time>2026-03-22T14:24:21.995Z</time></trkpt><trkpt lat="44.041502703133375" lon="12.572444912786143"><ele>9.6</ele><time>2026-03-22T14:24:22.995Z</time></trkpt><trkpt lat="44.041472453748156" lon="12.572364637356277"><ele>10.2</ele><time>2026-03-22T14:24:23.995Z</time></trkpt><trkpt lat="44.041431507204145" lon="12.572217043054774"><ele>10.799999999999999</ele><time>2026-03-22T14:24:25.996Z</time></trkpt><trkpt lat="44.041416241358675" lon="12.572047760645523"><ele>11.4</ele><time>2026-03-22T14:24:27.996Z</time></trkpt><trkpt lat="44.04143733305455" lon="12.571886895202853"><ele>12.0</ele><time>2026-03-22T14:24:29.996Z</time></trkpt><trkpt lat="44.04150407931225" lon="12.571855314793511"><ele>11.6</ele><time>2026-03-22T14:24:30.996Z</time></trkpt><trkpt lat="44.041641744405894" lon="12.571824628176795"><ele>11.2</ele><time>2026-03-22T14:24:32.996Z</time></trkpt><trkpt lat="44.041734223301546" lon="12.571831432820346"><ele>10.8</ele><time>2026-03-22T14:24:33.996Z</time></trkpt><trkpt lat="44.041823557914185" lon="12.571844337943778"><ele>10.4</ele><time>2026-03-22T14:24:34.996Z</time></trkpt><trkpt lat="44.04190904762898" lon="12.571837772775924"><ele>10.0</ele><time>2026-03-22T14:24:35.996Z</time></trkpt><trkpt lat="44.04199201774657" lon="12.571812214755912"><ele>10.0</ele><time>2026-03-22T14:24:36.996Z</time></trkpt><trkpt lat="44.04207446624954" lon="12.571754937540991"><ele>10.0</ele><time>2026-03-22T14:24:37.996Z</time></trkpt><trkpt lat="44.042150698919436" lon="12.571681561078803"><ele>10.0</ele><time>2026-03-22T14:24:38.996Z</time></trkpt><trkpt lat="44.04221660430524" lon="12.571591356136272"><ele>10.0</ele><time>2026-03-22T14:24:39.996Z</time></trkpt><trkpt lat="44.04226946479519" lon="12.57148124937252"><ele>10.0</ele><time>2026-03-22T14:24:40.996Z</time></trkpt><trkpt lat="44.042305649012235" lon="12.571359538797894"><ele>10.0</ele><time>2026-03-22T14:24:41.996Z</time></trkpt><trkpt lat="44.04232337887282" lon="12.571230182498967"><ele>10.0</ele><time>2026-03-22T14:24:42.996Z</time></trkpt><trkpt lat="44.04232596844531" lon="12.571099269199191"><ele>10.0</ele><time>2026-03-22T14:24:43.996Z</time></trkpt><trkpt lat="44.04231090355269" lon="12.570968332265602"><ele>10.0</ele><time>2026-03-22T14:24:44.996Z</time></trkpt><trkpt lat="44.04227872851502" lon="12.570842389658365"><ele>10.0</ele><time>2026-03-22T14:24:45.996Z</time></trkpt><trkpt lat="44.04224275501568" lon="12.570705434089591"><ele>10.0</ele><time>2026-03-22T14:24:46.996Z</time></trkpt><trkpt lat="44.04220655077397" lon="12.570546004250765"><ele>10.0</ele><time>2026-03-22T14:24:47.996Z</time></trkpt><trkpt lat="44.042193672618964" lon="12.570361078659225"><ele>10.0</ele><time>2026-03-22T14:24:48.996Z</time></trkpt><trkpt lat="44.042202179347356" lon="12.570168973844785"><ele>10.0</ele><time>2026-03-22T14:24:49.996Z</time></trkpt><trkpt lat="44.04221713432398" lon="12.569969621321441"><ele>9.666666666666668</ele><time>2026-03-22T14:24:50.996Z</time></trkpt><trkpt lat="44.042231355193955" lon="12.569744041924345"><ele>9.333333333333334</ele><time>2026-03-22T14:24:51.996Z</time></trkpt><trkpt lat="44.0422435493675" lon="12.569498290788873"><ele>9.0</ele><time>2026-03-22T14:24:52.996Z</time></trkpt><trkpt lat="44.04225380084758" lon="12.569236872903115"><ele>9.0</ele><time>2026-03-22T14:24:53.996Z</time></trkpt><trkpt lat="44.04226824250595" lon="12.568978396724273"><ele>9.0</ele><time>2026-03-22T14:24:54.996Z</time></trkpt><trkpt lat="44.04228153395015" lon="12.56870883045546"><ele>9.0</ele><time>2026-03-22T14:24:55.996Z</time></trkpt><trkpt lat="44.04229586919991" lon="12.568444874684046"><ele>10.0</ele><time>2026-03-22T14:24:56.996Z</time></trkpt><trkpt lat="44.04230618135436" lon="12.568189574581607"><ele>11.0</ele><time>2026-03-22T14:24:57.996Z</time></trkpt><trkpt lat="44.04232125973235" lon="12.567925099598472"><ele>12.0</ele><time>2026-03-22T14:24:58.996Z</time></trkpt><trkpt lat="44.04234041125035" lon="12.567659404977007"><ele>12.0</ele><time>2026-03-22T14:24:59.996Z</time></trkpt><trkpt lat="44.04236483497678" lon="12.567394527576473"><ele>12.0</ele><time>2026-03-22T14:25:00.996Z</time></trkpt><trkpt lat="44.04239630607698" lon="12.567136175274998"><ele>12.0</ele><time>2026-03-22T14:25:01.996Z</time></trkpt><trkpt lat="44.04242801634608" lon="12.5668964029299"><ele>11.0</ele><time>2026-03-22T14:25:02.996Z</time></trkpt><trkpt lat="44.04246887364701" lon="12.566662103189838"><ele>10.0</ele><time>2026-03-22T14:25:03.996Z</time></trkpt><trkpt lat="44.0425117583682" lon="12.566421767847105"><ele>9.0</ele><time>2026-03-22T14:25:04.996Z</time></trkpt><trkpt lat="44.04255024892195" lon="12.566193564336736"><ele>9.0</ele><time>2026-03-22T14:25:05.996Z</time></trkpt><trkpt lat="44.04258908782255" lon="12.565968153133342"><ele>9.0</ele><time>2026-03-22T14:25:06.996Z</time></trkpt><trkpt lat="44.04263030288483" lon="12.565747646798151"><ele>9.0</ele><time>2026-03-22T14:25:07.996Z</time></trkpt><trkpt lat="44.04267658243203" lon="12.56553173138548"><ele>9.0</ele><time>2026-03-22T14:25:08.997Z</time></trkpt><trkpt lat="44.04272882421427" lon="12.565318447876207"><ele>9.0</ele><time>2026-03-22T14:25:09.997Z</time></trkpt><trkpt lat="44.04277631395453" lon="12.565103723930212"><ele>9.0</ele><time>2026-03-22T14:25:10.997Z</time></trkpt><trkpt lat="44.042824004732026" lon="12.564894383933527"><ele>9.0</ele><time>2026-03-22T14:25:11.996Z</time></trkpt><trkpt lat="44.04287705396878" lon="12.56469336628994"><ele>9.0</ele><time>2026-03-22T14:25:12.997Z</time></trkpt><trkpt lat="44.04293110226589" lon="12.56449488360714"><ele>9.0</ele><time>2026-03-22T14:25:13.997Z</time></trkpt><trkpt lat="44.042982807980906" lon="12.564293912360405"><ele>8.666666666666666</ele><time>2026-03-22T14:25:14.997Z</time></trkpt><trkpt lat="44.04304262817729" lon="12.564089669117084"><ele>8.333333333333332</ele><time>2026-03-22T14:25:15.996Z</time></trkpt><trkpt lat="44.0430915040519" lon="12.5638761355464"><ele>8.0</ele><time>2026-03-22T14:25:16.996Z</time></trkpt><trkpt lat="44.04314918099406" lon="12.563656510374717"><ele>8.0</ele><time>2026-03-22T14:25:17.997Z</time></trkpt><trkpt lat="44.04320901874225" lon="12.563435357752008"><ele>8.0</ele><time>2026-03-22T14:25:18.996Z</time></trkpt><trkpt lat="44.043265029197684" lon="12.563213374128548"><ele>8.0</ele><time>2026-03-22T14:25:19.996Z</time></trkpt><trkpt lat="44.043322282793035" lon="12.562990555465634"><ele>8.666666666666666</ele><time>2026-03-22T14:25:20.996Z</time></trkpt><trkpt lat="44.04338055598094" lon="12.562769426228895"><ele>9.333333333333334</ele><time>2026-03-22T14:25:21.997Z</time></trkpt><trkpt lat="44.04343449285389" lon="12.562553157584512"><ele>10.0</ele><time>2026-03-22T14:25:22.997Z</time></trkpt><trkpt lat="44.04349286095086" lon="12.562342303747931"><ele>10.0</ele><time>2026-03-22T14:25:23.997Z</time></trkpt><trkpt lat="44.043545573022314" lon="12.562127450009637"><ele>10.0</ele><time>2026-03-22T14:25:24.997Z</time></trkpt><trkpt lat="44.04360205116446" lon="12.561914340083911"><ele>10.0</ele><time>2026-03-22T14:25:25.997Z</time></trkpt><trkpt lat="44.043658381512465" lon="12.561700331911194"><ele>10.5</ele><time>2026-03-22T14:25:26.997Z</time></trkpt><trkpt lat="44.04371433327022" lon="12.561497421244407"><ele>11.0</ele><time>2026-03-22T14:25:27.997Z</time></trkpt><trkpt lat="44.043762771279894" lon="12.561306478754085"><ele>11.5</ele><time>2026-03-22T14:25:28.997Z</time></trkpt><trkpt lat="44.04381086589235" lon="12.561129818089633"><ele>12.0</ele><time>2026-03-22T14:25:29.997Z</time></trkpt><trkpt lat="44.04385508378837" lon="12.560965476937296"><ele>12.0</ele><time>2026-03-22T14:25:30.997Z</time></trkpt><trkpt lat="44.04389473728473" lon="12.560817623069472"><ele>12.0</ele><time>2026-03-22T14:25:31.997Z</time></trkpt><trkpt lat="44.04393175513902" lon="12.560675948395176"><ele>12.0</ele><time>2026-03-22T14:25:32.997Z</time></trkpt><trkpt lat="44.0439630637444" lon="12.56054556663395"><ele>12.0</ele><time>2026-03-22T14:25:33.997Z</time></trkpt><trkpt lat="44.043992762994726" lon="12.56043213846048"><ele>12.0</ele><time>2026-03-22T14:25:34.997Z</time></trkpt><trkpt lat="44.04401649720734" lon="12.56034383290744"><ele>12.0</ele><time>2026-03-22T14:25:35.997Z</time></trkpt><trkpt lat="44.0440664538009" lon="12.560212985082439"><ele>12.0</ele><time>2026-03-22T14:25:37.997Z</time></trkpt><trkpt lat="44.0441170142478" lon="12.5601416993093"><ele>12.0</ele><time>2026-03-22T14:25:38.997Z</time></trkpt><trkpt lat="44.04416968563045" lon="12.560038358769813"><ele>12.0</ele><time>2026-03-22T14:25:39.997Z</time></trkpt><trkpt lat="44.0442634684859" lon="12.559967244089263"><ele>12.0</ele><time>2026-03-22T14:25:40.997Z</time></trkpt><trkpt lat="44.04431628162817" lon="12.559874820545415"><ele>12.2</ele><time>2026-03-22T14:25:41.997Z</time></trkpt><trkpt lat="44.0443356427978" lon="12.559773186477509"><ele>12.399999999999999</ele><time>2026-03-22T14:25:42.997Z</time></trkpt><trkpt lat="44.04432679104653" lon="12.559656460277553"><ele>12.600000000000001</ele><time>2026-03-22T14:25:43.997Z</time></trkpt><trkpt lat="44.04429723859545" lon="12.559515859803437"><ele>12.8</ele><time>2026-03-22T14:25:44.997Z</time></trkpt><trkpt lat="44.04429005130747" lon="12.559357680215438"><ele>13.0</ele><time>2026-03-22T14:25:45.997Z</time></trkpt><trkpt lat="44.04428949960848" lon="12.559181505709855"><ele>12.333333333333332</ele><time>2026-03-22T14:25:46.997Z</time></trkpt><trkpt lat="44.044377939387346" lon="12.558982612314493"><ele>11.666666666666666</ele><time>2026-03-22T14:25:47.997Z</time></trkpt><trkpt lat="44.04443081269344" lon="12.558778093229906"><ele>11.0</ele><time>2026-03-22T14:25:48.997Z</time></trkpt><trkpt lat="44.044505841948954" lon="12.558540212467923"><ele>11.0</ele><time>2026-03-22T14:25:49.997Z</time></trkpt><trkpt lat="44.04456636466354" lon="12.55829994209683"><ele>11.0</ele><time>2026-03-22T14:25:50.997Z</time></trkpt><trkpt lat="44.044631297560635" lon="12.55805777981953"><ele>11.0</ele><time>2026-03-22T14:25:51.997Z</time></trkpt><trkpt lat="44.0446923622455" lon="12.557826930723394"><ele>11.0</ele><time>2026-03-22T14:25:52.997Z</time></trkpt><trkpt lat="44.04475625317682" lon="12.557590359422063"><ele>11.0</ele><time>2026-03-22T14:25:53.997Z</time></trkpt><trkpt lat="44.04482042587086" lon="12.557347189435115"><ele>11.0</ele><time>2026-03-22T14:25:54.997Z</time></trkpt><trkpt lat="44.044889274854576" lon="12.557099853370904"><ele>10.333333333333332</ele><time>2026-03-22T14:25:55.997Z</time></trkpt><trkpt lat="44.044953482698524" lon="12.556871686058729"><ele>9.666666666666666</ele><time>2026-03-22T14:25:56.997Z</time></trkpt><trkpt lat="44.04501309685677" lon="12.556657967606277"><ele>9.0</ele><time>2026-03-22T14:25:57.997Z</time></trkpt><trkpt lat="44.0450658309739" lon="12.55645212659021"><ele>9.0</ele><time>2026-03-22T14:25:58.997Z</time></trkpt><trkpt lat="44.045115243237966" lon="12.55625618846245"><ele>9.0</ele><time>2026-03-22T14:25:59.997Z</time></trkpt><trkpt lat="44.045163267099674" lon="12.556072669183179"><ele>9.0</ele><time>2026-03-22T14:26:00.997Z</time></trkpt><trkpt lat="44.04521063942217" lon="12.555902223824551"><ele>9.0</ele><time>2026-03-22T14:26:01.997Z</time></trkpt><trkpt lat="44.0452531012239" lon="12.555736206391728"><ele>9.25</ele><time>2026-03-22T14:26:02.997Z</time></trkpt><trkpt lat="44.04529774648196" lon="12.555567652940775"><ele>9.5</ele><time>2026-03-22T14:26:03.997Z</time></trkpt><trkpt lat="44.04534197122661" lon="12.555408225171643"><ele>9.75</ele><time>2026-03-22T14:26:04.997Z</time></trkpt><trkpt lat="44.045382991846935" lon="12.555265938703283"><ele>10.0</ele><time>2026-03-22T14:26:05.997Z</time></trkpt><trkpt lat="44.045415549874555" lon="12.555148739631393"><ele>10.166666666666668</ele><time>2026-03-22T14:26:06.997Z</time></trkpt><trkpt lat="44.04544469402169" lon="12.555046307557108"><ele>10.333333333333334</ele><time>2026-03-22T14:26:07.997Z</time></trkpt><trkpt lat="44.04546989449325" lon="12.554961690903482"><ele>10.5</ele><time>2026-03-22T14:26:08.997Z</time></trkpt><trkpt lat="44.04551987223102" lon="12.554817927894545"><ele>10.666666666666666</ele><time>2026-03-22T14:26:10.997Z</time></trkpt><trkpt lat="44.04555673017906" lon="12.55470073135129"><ele>10.833333333333332</ele><time>2026-03-22T14:26:12.997Z</time></trkpt><trkpt lat="44.045575225174495" lon="12.554616321466893"><ele>11.0</ele><time>2026-03-22T14:26:15.997Z</time></trkpt><trkpt lat="44.04559513678189" lon="12.55452675569902"><ele>11.333333333333332</ele><time>2026-03-22T14:26:29.997Z</time></trkpt><trkpt lat="44.045628433229446" lon="12.554412176746064"><ele>11.666666666666666</ele><time>2026-03-22T14:26:31.997Z</time></trkpt><trkpt lat="44.04566607901569" lon="12.554297453163997"><ele>12.0</ele><time>2026-03-22T14:26:33.997Z</time></trkpt><trkpt lat="44.04569884585732" lon="12.554203433635122"><ele>12.333333333333332</ele><time>2026-03-22T14:26:34.997Z</time></trkpt><trkpt lat="44.04573763068499" lon="12.554098162159807"><ele>12.666666666666666</ele><time>2026-03-22T14:26:35.997Z</time></trkpt><trkpt lat="44.04577436165706" lon="12.553999114008304"><ele>13.0</ele><time>2026-03-22T14:26:36.997Z</time></trkpt><trkpt lat="44.04580895707426" lon="12.553904869577073"><ele>12.333333333333332</ele><time>2026-03-22T14:26:37.997Z</time></trkpt><trkpt lat="44.045842427318306" lon="12.553818975795053"><ele>11.666666666666666</ele><time>2026-03-22T14:26:38.997Z</time></trkpt><trkpt lat="44.0458991569465" lon="12.553678518311187"><ele>11.0</ele><time>2026-03-22T14:26:40.997Z</time></trkpt><trkpt lat="44.04594139879154" lon="12.55357285805294"><ele>10.333333333333332</ele><time>2026-03-22T14:26:42.997Z</time></trkpt><trkpt lat="44.04599520444672" lon="12.553464325823121"><ele>9.666666666666666</ele><time>2026-03-22T14:26:44.997Z</time></trkpt><trkpt lat="44.046034224180936" lon="12.553389780066047"><ele>9.0</ele><time>2026-03-22T14:26:46.997Z</time></trkpt><trkpt lat="44.04607586458525" lon="12.553315787259484"><ele>9.0</ele><time>2026-03-22T14:26:49.997Z</time></trkpt><trkpt lat="44.046156152649765" lon="12.553229037914777"><ele>9.0</ele><time>2026-03-22T14:26:51.997Z</time></trkpt><trkpt lat="44.0462154737278" lon="12.553198760733856"><ele>9.0</ele><time>2026-03-22T14:26:52.997Z</time></trkpt><trkpt lat="44.04632012345594" lon="12.553165599373964"><ele>9.0</ele><time>2026-03-22T14:26:54.997Z</time></trkpt><trkpt lat="44.046408291758375" lon="12.553055166556288"><ele>9.0</ele><time>2026-03-22T14:26:56.997Z</time></trkpt><trkpt lat="44.0464443732937" lon="12.552961009294805"><ele>9.6</ele><time>2026-03-22T14:26:57.997Z</time></trkpt><trkpt lat="44.0464592680867" lon="12.552840997878949"><ele>10.2</ele><time>2026-03-22T14:26:58.997Z</time></trkpt><trkpt lat="44.04646492349" lon="12.552713741756227"><ele>10.799999999999999</ele><time>2026-03-22T14:26:59.997Z</time></trkpt><trkpt lat="44.04648846196364" lon="12.552587383547317"><ele>11.4</ele><time>2026-03-22T14:27:00.997Z</time></trkpt><trkpt lat="44.04653710343906" lon="12.55244205720789"><ele>12.0</ele><time>2026-03-22T14:27:01.997Z</time></trkpt><trkpt lat="44.046609105035756" lon="12.552284383872216"><ele>12.0</ele><time>2026-03-22T14:27:02.997Z</time></trkpt><trkpt lat="44.046700209615125" lon="12.552129928526393"><ele>12.0</ele><time>2026-03-22T14:27:03.997Z</time></trkpt><trkpt lat="44.04680567105202" lon="12.551972400518403"><ele>12.0</ele><time>2026-03-22T14:27:04.997Z</time></trkpt><trkpt lat="44.04691878936113" lon="12.55181224396328"><ele>12.0</ele><time>2026-03-22T14:27:05.997Z</time></trkpt><trkpt lat="44.047041819139224" lon="12.551636829383096"><ele>12.0</ele><time>2026-03-22T14:27:06.997Z</time></trkpt><trkpt lat="44.04716393276756" lon="12.551462511572256"><ele>12.0</ele><time>2026-03-22T14:27:07.997Z</time></trkpt><trkpt lat="44.047286028111806" lon="12.55130214135155"><ele>12.666666666666668</ele><time>2026-03-22T14:27:08.997Z</time></trkpt><trkpt lat="44.04742419873941" lon="12.551136014358107"><ele>13.333333333333334</ele><time>2026-03-22T14:27:09.997Z</time></trkpt><trkpt lat="44.04756443622091" lon="12.55097034428826"><ele>14.0</ele><time>2026-03-22T14:27:10.997Z</time></trkpt><trkpt lat="44.047709838163435" lon="12.550806882945464"><ele>12.666666666666668</ele><time>2026-03-22T14:27:11.997Z</time></trkpt><trkpt lat="44.04785786720903" lon="12.550650091087295"><ele>11.333333333333334</ele><time>2026-03-22T14:27:12.997Z</time></trkpt><trkpt lat="44.04800142845362" lon="12.550506738746416"><ele>10.0</ele><time>2026-03-22T14:27:13.997Z</time></trkpt><trkpt lat="44.04814443906832" lon="12.550365557863142"><ele>10.0</ele><time>2026-03-22T14:27:14.997Z</time></trkpt><trkpt lat="44.048287257532" lon="12.550226699585012"><ele>10.0</ele><time>2026-03-22T14:27:15.997Z</time></trkpt><trkpt lat="44.048422188386475" lon="12.550095129634453"><ele>10.0</ele><time>2026-03-22T14:27:16.997Z</time></trkpt><trkpt lat="44.048549763602225" lon="12.54997276069538"><ele>8.75</ele><time>2026-03-22T14:27:17.997Z</time></trkpt><trkpt lat="44.04867275807197" lon="12.549851126311173"><ele>7.5</ele><time>2026-03-22T14:27:18.996Z</time></trkpt><trkpt lat="44.04879594504108" lon="12.549728550342754"><ele>6.25</ele><time>2026-03-22T14:27:19.996Z</time></trkpt><trkpt lat="44.04891682430153" lon="12.549612992913858"><ele>5.0</ele><time>2026-03-22T14:27:20.997Z</time></trkpt><trkpt lat="44.04903035205971" lon="12.549504791952225"><ele>5.0</ele><time>2026-03-22T14:27:21.997Z</time></trkpt><trkpt lat="44.04913672799252" lon="12.54940238356036"><ele>5.0</ele><time>2026-03-22T14:27:22.996Z</time></trkpt><trkpt lat="44.049239032680404" lon="12.549303771571982"><ele>5.0</ele><time>2026-03-22T14:27:23.997Z</time></trkpt><trkpt lat="44.049340428821246" lon="12.549209699369744"><ele>5.0</ele><time>2026-03-22T14:27:24.996Z</time></trkpt><trkpt lat="44.04943935889189" lon="12.549121942593336"><ele>5.0</ele><time>2026-03-22T14:27:25.996Z</time></trkpt><trkpt lat="44.049537351614276" lon="12.549052391171744"><ele>5.0</ele><time>2026-03-22T14:27:26.996Z</time></trkpt><trkpt lat="44.04964883192349" lon="12.54900201938468"><ele>5.0</ele><time>2026-03-22T14:27:27.996Z</time></trkpt><trkpt lat="44.04977265196203" lon="12.548979070174228"><ele>5.0</ele><time>2026-03-22T14:27:28.996Z</time></trkpt><trkpt lat="44.04989233852557" lon="12.548982006091272"><ele>5.6</ele><time>2026-03-22T14:27:29.996Z</time></trkpt><trkpt lat="44.04998025547598" lon="12.548944361496009"><ele>6.2</ele><time>2026-03-22T14:27:30.996Z</time></trkpt><trkpt lat="44.05004962401185" lon="12.548863919618608"><ele>6.800000000000001</ele><time>2026-03-22T14:27:31.996Z</time></trkpt><trkpt lat="44.050106379229966" lon="12.548742639580567"><ele>7.4</ele><time>2026-03-22T14:27:32.996Z</time></trkpt><trkpt lat="44.05010665404029" lon="12.548592240115397"><ele>8.0</ele><time>2026-03-22T14:27:33.996Z</time></trkpt><trkpt lat="44.05014805541392" lon="12.548414892457636"><ele>8.333333333333332</ele><time>2026-03-22T14:27:34.995Z</time></trkpt><trkpt lat="44.05023492619552" lon="12.54830751127956"><ele>8.666666666666666</ele><time>2026-03-22T14:27:35.995Z</time></trkpt><trkpt lat="44.05030325236977" lon="12.548137970660083"><ele>9.0</ele><time>2026-03-22T14:27:36.995Z</time></trkpt><trkpt lat="44.050527424810454" lon="12.548048283392506"><ele>9.0</ele><time>2026-03-22T14:27:37.995Z</time></trkpt><trkpt lat="44.050698707375375" lon="12.547895220046112"><ele>9.0</ele><time>2026-03-22T14:27:38.995Z</time></trkpt><trkpt lat="44.05087578433232" lon="12.547732503091575"><ele>9.0</ele><time>2026-03-22T14:27:39.995Z</time></trkpt><trkpt lat="44.05106447055946" lon="12.54753891810466"><ele>10.0</ele><time>2026-03-22T14:27:40.995Z</time></trkpt><trkpt lat="44.05126260285767" lon="12.547336151987736"><ele>11.0</ele><time>2026-03-22T14:27:41.995Z</time></trkpt><trkpt lat="44.05145636518526" lon="12.547150925949504"><ele>10.666666666666666</ele><time>2026-03-22T14:27:42.995Z</time></trkpt><trkpt lat="44.05162816412676" lon="12.54699449004852"><ele>10.333333333333334</ele><time>2026-03-22T14:27:43.995Z</time></trkpt><trkpt lat="44.05179120176055" lon="12.546832597855733"><ele>10.0</ele><time>2026-03-22T14:27:44.995Z</time></trkpt><trkpt lat="44.05194484333997" lon="12.546678265992616"><ele>10.0</ele><time>2026-03-22T14:27:45.995Z</time></trkpt><trkpt lat="44.05209515592139" lon="12.546528972942422"><ele>10.0</ele><time>2026-03-22T14:27:46.995Z</time></trkpt><trkpt lat="44.05225575307335" lon="12.546374745815044"><ele>10.0</ele><time>2026-03-22T14:27:47.995Z</time></trkpt><trkpt lat="44.05242217491387" lon="12.546213040857982"><ele>9.333333333333334</ele><time>2026-03-22T14:27:48.995Z</time></trkpt><trkpt lat="44.052594377560574" lon="12.546046667398446"><ele>8.666666666666666</ele><time>2026-03-22T14:27:49.995Z</time></trkpt><trkpt lat="44.052765520351464" lon="12.54587737897105"><ele>8.0</ele><time>2026-03-22T14:27:50.995Z</time></trkpt><trkpt lat="44.05293474161601" lon="12.545718142763944"><ele>8.0</ele><time>2026-03-22T14:27:51.995Z</time></trkpt><trkpt lat="44.053105518312265" lon="12.545548759483806"><ele>8.0</ele><time>2026-03-22T14:27:52.995Z</time></trkpt><trkpt lat="44.053270393161355" lon="12.545383409701898"><ele>8.0</ele><time>2026-03-22T14:27:53.995Z</time></trkpt><trkpt lat="44.053431762920766" lon="12.54522302119525"><ele>8.0</ele><time>2026-03-22T14:27:54.995Z</time></trkpt><trkpt lat="44.05359060975098" lon="12.5450667792036"><ele>8.0</ele><time>2026-03-22T14:27:55.995Z</time></trkpt><trkpt lat="44.05375321845377" lon="12.54490937435745"><ele>8.0</ele><time>2026-03-22T14:27:56.995Z</time></trkpt><trkpt lat="44.05391593660165" lon="12.544751829038814"><ele>8.0</ele><time>2026-03-22T14:27:57.995Z</time></trkpt><trkpt lat="44.05407860263307" lon="12.54459278101633"><ele>8.0</ele><time>2026-03-22T14:27:58.995Z</time></trkpt><trkpt lat="44.05424078321305" lon="12.54443269976718"><ele>8.0</ele><time>2026-03-22T14:27:59.995Z</time></trkpt><trkpt lat="44.05440492634959" lon="12.54427601159955"><ele>8.0</ele><time>2026-03-22T14:28:00.995Z</time></trkpt><trkpt lat="44.054567079895364" lon="12.544118266566299"><ele>8.0</ele><time>2026-03-22T14:28:01.995Z</time></trkpt><trkpt lat="44.054730060403436" lon="12.543959951770598"><ele>8.0</ele><time>2026-03-22T14:28:02.995Z</time></trkpt><trkpt lat="44.05489212572346" lon="12.54379969731849"><ele>9.0</ele><time>2026-03-22T14:28:03.995Z</time></trkpt><trkpt lat="44.05505696576216" lon="12.543637322816044"><ele>10.0</ele><time>2026-03-22T14:28:04.995Z</time></trkpt><trkpt lat="44.05521767604367" lon="12.543476302725953"><ele>11.0</ele><time>2026-03-22T14:28:05.995Z</time></trkpt><trkpt lat="44.0553772706195" lon="12.543321294207761"><ele>11.0</ele><time>2026-03-22T14:28:06.995Z</time></trkpt><trkpt lat="44.05553999070592" lon="12.543177413545191"><ele>11.0</ele><time>2026-03-22T14:28:07.995Z</time></trkpt><trkpt lat="44.05571114924702" lon="12.54305753835669"><ele>11.0</ele><time>2026-03-22T14:28:08.995Z</time></trkpt><trkpt lat="44.055892330666275" lon="12.54294919913317"><ele>10.333333333333332</ele><time>2026-03-22T14:28:09.995Z</time></trkpt><trkpt lat="44.0560809372777" lon="12.542848908382206"><ele>9.666666666666666</ele><time>2026-03-22T14:28:10.995Z</time></trkpt><trkpt lat="44.0562817755345" lon="12.542749451523331"><ele>9.0</ele><time>2026-03-22T14:28:11.995Z</time></trkpt><trkpt lat="44.056487515736194" lon="12.542662173758691"><ele>9.666666666666666</ele><time>2026-03-22T14:28:12.995Z</time></trkpt><trkpt lat="44.05669933555598" lon="12.542595152789838"><ele>10.333333333333332</ele><time>2026-03-22T14:28:13.995Z</time></trkpt><trkpt lat="44.05691386820777" lon="12.5425422107633"><ele>11.0</ele><time>2026-03-22T14:28:14.995Z</time></trkpt><trkpt lat="44.05712918742208" lon="12.542503430491111"><ele>11.0</ele><time>2026-03-22T14:28:15.995Z</time></trkpt><trkpt lat="44.05734736657291" lon="12.542476344168136"><ele>11.0</ele><time>2026-03-22T14:28:16.995Z</time></trkpt><trkpt lat="44.057561823198306" lon="12.542451331330273"><ele>11.0</ele><time>2026-03-22T14:28:17.995Z</time></trkpt><trkpt lat="44.05777866299111" lon="12.542427686065384"><ele>11.333333333333332</ele><time>2026-03-22T14:28:18.995Z</time></trkpt><trkpt lat="44.058000051295075" lon="12.54240306816045"><ele>11.666666666666666</ele><time>2026-03-22T14:28:19.995Z</time></trkpt><trkpt lat="44.05822167308063" lon="12.542376739974825"><ele>12.0</ele><time>2026-03-22T14:28:20.995Z</time></trkpt><trkpt lat="44.05843179535962" lon="12.542350341128888"><ele>11.333333333333334</ele><time>2026-03-22T14:28:21.995Z</time></trkpt><trkpt lat="44.05863572570783" lon="12.542325323779398"><ele>10.666666666666668</ele><time>2026-03-22T14:28:22.995Z</time></trkpt><trkpt lat="44.05884055284734" lon="12.54230496380618"><ele>10.0</ele><time>2026-03-22T14:28:23.995Z</time></trkpt><trkpt lat="44.05905042157406" lon="12.542281039314162"><ele>9.333333333333334</ele><time>2026-03-22T14:28:24.995Z</time></trkpt><trkpt lat="44.05925037366118" lon="12.542255584589794"><ele>8.666666666666666</ele><time>2026-03-22T14:28:25.995Z</time></trkpt><trkpt lat="44.05945341958392" lon="12.542228281473534"><ele>8.0</ele><time>2026-03-22T14:28:26.995Z</time></trkpt><trkpt lat="44.059657098257766" lon="12.542203954955282"><ele>8.0</ele><time>2026-03-22T14:28:27.995Z</time></trkpt><trkpt lat="44.05985353409486" lon="12.54217963773089"><ele>8.0</ele><time>2026-03-22T14:28:28.995Z</time></trkpt><trkpt lat="44.060047760203005" lon="12.542155366789059"><ele>8.0</ele><time>2026-03-22T14:28:29.995Z</time></trkpt><trkpt lat="44.060249568477715" lon="12.542128499834252"><ele>8.333333333333332</ele><time>2026-03-22T14:28:30.995Z</time></trkpt><trkpt lat="44.06046456343637" lon="12.542096848518973"><ele>8.666666666666666</ele><time>2026-03-22T14:28:31.995Z</time></trkpt><trkpt lat="44.06067546270445" lon="12.542073341790982"><ele>9.0</ele><time>2026-03-22T14:28:32.995Z</time></trkpt><trkpt lat="44.060882940476425" lon="12.542051436240536"><ele>7.333333333333333</ele><time>2026-03-22T14:28:33.995Z</time></trkpt><trkpt lat="44.06109476770389" lon="12.54202655274985"><ele>5.666666666666666</ele><time>2026-03-22T14:28:34.995Z</time></trkpt><trkpt lat="44.06129678506534" lon="12.542003981505216"><ele>4.0</ele><time>2026-03-22T14:28:35.995Z</time></trkpt><trkpt lat="44.06148200865992" lon="12.541980527946107"><ele>3.6666666666666665</ele><time>2026-03-22T14:28:36.995Z</time></trkpt><trkpt lat="44.06166116142057" lon="12.54195519886228"><ele>3.333333333333333</ele><time>2026-03-22T14:28:37.995Z</time></trkpt><trkpt lat="44.06183996161058" lon="12.541934143833764"><ele>3.0</ele><time>2026-03-22T14:28:38.995Z</time></trkpt><trkpt lat="44.06202223314561" lon="12.541911473507367"><ele>3.0</ele><time>2026-03-22T14:28:39.995Z</time></trkpt><trkpt lat="44.06219970725047" lon="12.541891586958224"><ele>3.0</ele><time>2026-03-22T14:28:40.995Z</time></trkpt><trkpt lat="44.06237124403044" lon="12.541871062309102"><ele>3.0</ele><time>2026-03-22T14:28:41.995Z</time></trkpt><trkpt lat="44.06254127339234" lon="12.541850935897454"><ele>3.666666666666667</ele><time>2026-03-22T14:28:42.995Z</time></trkpt><trkpt lat="44.06270600958384" lon="12.541833284875153"><ele>4.333333333333334</ele><time>2026-03-22T14:28:43.995Z</time></trkpt><trkpt lat="44.06286276738314" lon="12.541814136901667"><ele>5.0</ele><time>2026-03-22T14:28:44.995Z</time></trkpt><trkpt lat="44.063010630095974" lon="12.541802528708443"><ele>5.0</ele><time>2026-03-22T14:28:45.995Z</time></trkpt><trkpt lat="44.0631542620206" lon="12.54178402260612"><ele>5.0</ele><time>2026-03-22T14:28:46.995Z</time></trkpt><trkpt lat="44.063291271558604" lon="12.541761228453122"><ele>5.0</ele><time>2026-03-22T14:28:47.995Z</time></trkpt><trkpt lat="44.063415702277226" lon="12.541730354526116"><ele>5.0</ele><time>2026-03-22T14:28:48.995Z</time></trkpt><trkpt lat="44.063523630650074" lon="12.541690219974786"><ele>5.2</ele><time>2026-03-22T14:28:49.995Z</time></trkpt><trkpt lat="44.063627298596465" lon="12.541645412396548"><ele>5.4</ele><time>2026-03-22T14:28:50.995Z</time></trkpt><trkpt lat="44.063720947853504" lon="12.541625864223665"><ele>5.6</ele><time>2026-03-22T14:28:51.995Z</time></trkpt><trkpt lat="44.06382715407629" lon="12.541623769336194"><ele>5.8</ele><time>2026-03-22T14:28:52.995Z</time></trkpt><trkpt lat="44.06392818559068" lon="12.541608641192298"><ele>6.0</ele><time>2026-03-22T14:28:53.995Z</time></trkpt><trkpt lat="44.06402050407419" lon="12.541584746363775"><ele>6.0</ele><time>2026-03-22T14:28:54.995Z</time></trkpt><trkpt lat="44.06410872948761" lon="12.541608271825403"><ele>6.0</ele><time>2026-03-22T14:28:55.995Z</time></trkpt><trkpt lat="44.064187307533544" lon="12.541576048719607"><ele>6.0</ele><time>2026-03-22T14:28:56.995Z</time></trkpt><trkpt lat="44.06426394680993" lon="12.54152059956977"><ele>6.0</ele><time>2026-03-22T14:28:57.995Z</time></trkpt><trkpt lat="44.064315511669434" lon="12.541431618270494"><ele>6.0</ele><time>2026-03-22T14:28:58.995Z</time></trkpt><trkpt lat="44.064346415081765" lon="12.541321734673279"><ele>6.0</ele><time>2026-03-22T14:28:59.995Z</time></trkpt><trkpt lat="44.06435444775395" lon="12.5411987032839"><ele>6.166666666666667</ele><time>2026-03-22T14:29:00.995Z</time></trkpt><trkpt lat="44.06433804540757" lon="12.541078930591834"><ele>6.333333333333334</ele><time>2026-03-22T14:29:01.995Z</time></trkpt><trkpt lat="44.064301357392274" lon="12.54097513477342"><ele>6.5</ele><time>2026-03-22T14:29:02.995Z</time></trkpt><trkpt lat="44.064240624700105" lon="12.540887794625556"><ele>6.666666666666667</ele><time>2026-03-22T14:29:03.995Z</time></trkpt><trkpt lat="44.06416347537896" lon="12.540819244327867"><ele>6.833333333333334</ele><time>2026-03-22T14:29:04.995Z</time></trkpt><trkpt lat="44.064075772701024" lon="12.540803626257542"><ele>7.0</ele><time>2026-03-22T14:29:05.995Z</time></trkpt><trkpt lat="44.063990292071544" lon="12.540818964253361"><ele>7.0</ele><time>2026-03-22T14:29:06.995Z</time></trkpt><trkpt lat="44.063907387300254" lon="12.54087040301168"><ele>6.999999999999999</ele><time>2026-03-22T14:29:07.995Z</time></trkpt><trkpt lat="44.06383064747446" lon="12.540950356809596"><ele>6.999999999999999</ele><time>2026-03-22T14:29:08.995Z</time></trkpt><trkpt lat="44.063775279020184" lon="12.541062428030502"><ele>7.0</ele><time>2026-03-22T14:29:09.995Z</time></trkpt><trkpt lat="44.06374285558224" lon="12.541186040585007"><ele>7.0</ele><time>2026-03-22T14:29:10.995Z</time></trkpt><trkpt lat="44.06372901663775" lon="12.541314844529483"><ele>6.8</ele><time>2026-03-22T14:29:11.995Z</time></trkpt><trkpt lat="44.06375164752444" lon="12.541440403056564"><ele>6.6</ele><time>2026-03-22T14:29:12.995Z</time></trkpt><trkpt lat="44.06380091763868" lon="12.54154898954148"><ele>6.3999999999999995</ele><time>2026-03-22T14:29:13.995Z</time></trkpt><trkpt lat="44.0638713980035" lon="12.54162855006471"><ele>6.199999999999999</ele><time>2026-03-22T14:29:14.995Z</time></trkpt><trkpt lat="44.063958116367886" lon="12.54167710390705"><ele>6.0</ele><time>2026-03-22T14:29:15.995Z</time></trkpt><trkpt lat="44.06405490203708" lon="12.541690367440347"><ele>6.25</ele><time>2026-03-22T14:29:16.995Z</time></trkpt><trkpt lat="44.06416323038515" lon="12.541670642469596"><ele>6.5</ele><time>2026-03-22T14:29:17.995Z</time></trkpt><trkpt lat="44.06427311595946" lon="12.541621406748876"><ele>6.75</ele><time>2026-03-22T14:29:18.995Z</time></trkpt><trkpt lat="44.06438633905311" lon="12.541561697820423"><ele>7.0</ele><time>2026-03-22T14:29:19.995Z</time></trkpt><trkpt lat="44.06450747157616" lon="12.541543704358403"><ele>7.0</ele><time>2026-03-22T14:29:20.995Z</time></trkpt><trkpt lat="44.06463244469493" lon="12.541559939903426"><ele>7.0</ele><time>2026-03-22T14:29:21.995Z</time></trkpt><trkpt lat="44.06477737696249" lon="12.541577911085541"><ele>7.0</ele><time>2026-03-22T14:29:22.995Z</time></trkpt><trkpt lat="44.06492753016374" lon="12.541582958809656"><ele>7.0</ele><time>2026-03-22T14:29:23.995Z</time></trkpt><trkpt lat="44.06509202159512" lon="12.54157756141989"><ele>7.333333333333334</ele><time>2026-03-22T14:29:24.995Z</time></trkpt><trkpt lat="44.06526122790033" lon="12.541561747275434"><ele>7.666666666666666</ele><time>2026-03-22T14:29:25.995Z</time></trkpt><trkpt lat="44.06542554307735" lon="12.54154141666309"><ele>8.0</ele><time>2026-03-22T14:29:26.996Z</time></trkpt><trkpt lat="44.065591165919436" lon="12.541523346805777"><ele>8.0</ele><time>2026-03-22T14:29:27.995Z</time></trkpt><trkpt lat="44.06576621112604" lon="12.541498171421624"><ele>8.0</ele><time>2026-03-22T14:29:28.995Z</time></trkpt><trkpt lat="44.065938828180826" lon="12.541476330414675"><ele>8.0</ele><time>2026-03-22T14:29:29.995Z</time></trkpt><trkpt lat="44.066112664188836" lon="12.54145542059866"><ele>8.333333333333332</ele><time>2026-03-22T14:29:30.995Z</time></trkpt><trkpt lat="44.06628518859828" lon="12.541434618797993"><ele>8.666666666666666</ele><time>2026-03-22T14:29:31.995Z</time></trkpt><trkpt lat="44.06644999131902" lon="12.54141337418706"><ele>9.0</ele><time>2026-03-22T14:29:32.995Z</time></trkpt><trkpt lat="44.06661306573965" lon="12.541395611852568"><ele>9.0</ele><time>2026-03-22T14:29:33.996Z</time></trkpt><trkpt lat="44.06677808205041" lon="12.541375134314755"><ele>9.0</ele><time>2026-03-22T14:29:34.996Z</time></trkpt><trkpt lat="44.066945920277746" lon="12.541351163105094"><ele>9.0</ele><time>2026-03-22T14:29:35.996Z</time></trkpt><trkpt lat="44.06711227911088" lon="12.541325475673212"><ele>9.0</ele><time>2026-03-22T14:29:36.996Z</time></trkpt><trkpt lat="44.067286269210676" lon="12.541307783289092"><ele>9.0</ele><time>2026-03-22T14:29:37.996Z</time></trkpt><trkpt lat="44.06746466163577" lon="12.541285972294382"><ele>9.0</ele><time>2026-03-22T14:29:38.996Z</time></trkpt><trkpt lat="44.06764752748056" lon="12.541272689243707"><ele>9.0</ele><time>2026-03-22T14:29:39.996Z</time></trkpt><trkpt lat="44.067833618650184" lon="12.541246412076367"><ele>9.0</ele><time>2026-03-22T14:29:40.996Z</time></trkpt><trkpt lat="44.068023270878854" lon="12.541229996155923"><ele>9.0</ele><time>2026-03-22T14:29:41.996Z</time></trkpt><trkpt lat="44.06821310981186" lon="12.541199100401798"><ele>8.666666666666666</ele><time>2026-03-22T14:29:42.996Z</time></trkpt><trkpt lat="44.0684023604238" lon="12.541173766815081"><ele>8.333333333333332</ele><time>2026-03-22T14:29:43.996Z</time></trkpt><trkpt lat="44.06859262703899" lon="12.54114669673947"><ele>8.0</ele><time>2026-03-22T14:29:44.996Z</time></trkpt><trkpt lat="44.06878537505407" lon="12.541123942325866"><ele>8.0</ele><time>2026-03-22T14:29:45.996Z</time></trkpt><trkpt lat="44.06898391482854" lon="12.541093426373436"><ele>8.0</ele><time>2026-03-22T14:29:46.996Z</time></trkpt><trkpt lat="44.06917939801295" lon="12.541057010321925"><ele>8.0</ele><time>2026-03-22T14:29:47.996Z</time></trkpt><trkpt lat="44.06938002757338" lon="12.541013434186745"><ele>7.666666666666666</ele><time>2026-03-22T14:29:48.996Z</time></trkpt><trkpt lat="44.06957772534262" lon="12.54096100059481"><ele>7.333333333333334</ele><time>2026-03-22T14:29:49.996Z</time></trkpt><trkpt lat="44.06977689546626" lon="12.540907113860714"><ele>7.0</ele><time>2026-03-22T14:29:50.996Z</time></trkpt><trkpt lat="44.06997326564973" lon="12.540846916945423"><ele>7.666666666666667</ele><time>2026-03-22T14:29:51.996Z</time></trkpt><trkpt lat="44.07016969002697" lon="12.540783112280138"><ele>8.333333333333334</ele><time>2026-03-22T14:29:52.996Z</time></trkpt><trkpt lat="44.0703677987192" lon="12.540714915516157"><ele>9.0</ele><time>2026-03-22T14:29:53.996Z</time></trkpt><trkpt lat="44.070563292824204" lon="12.540641763435707"><ele>9.0</ele><time>2026-03-22T14:29:54.996Z</time></trkpt><trkpt lat="44.07075487081567" lon="12.540564015435564"><ele>9.0</ele><time>2026-03-22T14:29:55.996Z</time></trkpt><trkpt lat="44.07094186590635" lon="12.540482764534879"><ele>9.0</ele><time>2026-03-22T14:29:56.996Z</time></trkpt><trkpt lat="44.07112648473329" lon="12.54039583369028"><ele>8.666666666666666</ele><time>2026-03-22T14:29:57.996Z</time></trkpt><trkpt lat="44.071306579980494" lon="12.540304399568246"><ele>8.333333333333332</ele><time>2026-03-22T14:29:58.996Z</time></trkpt><trkpt lat="44.07148866582831" lon="12.540219646068516"><ele>8.0</ele><time>2026-03-22T14:29:59.996Z</time></trkpt><trkpt lat="44.071671444237076" lon="12.540110300115762"><ele>7.666666666666666</ele><time>2026-03-22T14:30:00.996Z</time></trkpt><trkpt lat="44.07184903384374" lon="12.540000490828293"><ele>7.333333333333334</ele><time>2026-03-22T14:30:01.996Z</time></trkpt><trkpt lat="44.07201866465076" lon="12.539861357976104"><ele>7.0</ele><time>2026-03-22T14:30:02.996Z</time></trkpt><trkpt lat="44.07219886173405" lon="12.539743649352282"><ele>7.0</ele><time>2026-03-22T14:30:03.996Z</time></trkpt><trkpt lat="44.07237388464465" lon="12.539622432871631"><ele>7.0</ele><time>2026-03-22T14:30:04.996Z</time></trkpt><trkpt lat="44.07254804700703" lon="12.539494922718923"><ele>7.0</ele><time>2026-03-22T14:30:05.996Z</time></trkpt><trkpt lat="44.07272663716184" lon="12.539379581215652"><ele>7.0</ele><time>2026-03-22T14:30:06.996Z</time></trkpt><trkpt lat="44.0728985467911" lon="12.53924561474888"><ele>7.0</ele><time>2026-03-22T14:30:07.996Z</time></trkpt><trkpt lat="44.07306528748029" lon="12.539104845899967"><ele>7.0</ele><time>2026-03-22T14:30:08.996Z</time></trkpt><trkpt lat="44.07323371984959" lon="12.538963058773259"><ele>7.0</ele><time>2026-03-22T14:30:09.996Z</time></trkpt><trkpt lat="44.073388821336245" lon="12.538800724258513"><ele>7.0</ele><time>2026-03-22T14:30:10.996Z</time></trkpt><trkpt lat="44.07354537624937" lon="12.538653093097036"><ele>7.0</ele><time>2026-03-22T14:30:11.996Z</time></trkpt><trkpt lat="44.07370117617011" lon="12.538500350856536"><ele>7.0</ele><time>2026-03-22T14:30:12.996Z</time></trkpt><trkpt lat="44.0738519023913" lon="12.538344528925531"><ele>7.0</ele><time>2026-03-22T14:30:13.996Z</time></trkpt><trkpt lat="44.07400458750288" lon="12.538180409943992"><ele>7.0</ele><time>2026-03-22T14:30:14.996Z</time></trkpt><trkpt lat="44.074167586406126" lon="12.538024376509973"><ele>6.666666666666667</ele><time>2026-03-22T14:30:15.996Z</time></trkpt><trkpt lat="44.074320954902056" lon="12.537841516499599"><ele>6.333333333333334</ele><time>2026-03-22T14:30:16.996Z</time></trkpt><trkpt lat="44.07447224673383" lon="12.537659872189261"><ele>6.0</ele><time>2026-03-22T14:30:17.996Z</time></trkpt><trkpt lat="44.0746108226567" lon="12.537480459886908"><ele>6.0</ele><time>2026-03-22T14:30:18.996Z</time></trkpt><trkpt lat="44.07474010119602" lon="12.53730171074123"><ele>6.0</ele><time>2026-03-22T14:30:19.996Z</time></trkpt><trkpt lat="44.07487212198339" lon="12.53711607407985"><ele>6.0</ele><time>2026-03-22T14:30:20.996Z</time></trkpt><trkpt lat="44.07500883689168" lon="12.536923165820237"><ele>6.333333333333334</ele><time>2026-03-22T14:30:21.996Z</time></trkpt><trkpt lat="44.075150972626304" lon="12.536726059437997"><ele>6.666666666666667</ele><time>2026-03-22T14:30:22.996Z</time></trkpt><trkpt lat="44.075293120563806" lon="12.53652544193795"><ele>7.0</ele><time>2026-03-22T14:30:23.996Z</time></trkpt><trkpt lat="44.075418961976844" lon="12.536300874155254"><ele>7.333333333333334</ele><time>2026-03-22T14:30:24.996Z</time></trkpt><trkpt lat="44.075548665684565" lon="12.536087732856876"><ele>7.666666666666666</ele><time>2026-03-22T14:30:25.996Z</time></trkpt><trkpt lat="44.075693712605364" lon="12.535898265146649"><ele>8.0</ele><time>2026-03-22T14:30:26.996Z</time></trkpt><trkpt lat="44.075825426163014" lon="12.535692153668599"><ele>8.0</ele><time>2026-03-22T14:30:27.996Z</time></trkpt><trkpt lat="44.0759505599665" lon="12.535478540836737"><ele>8.0</ele><time>2026-03-22T14:30:28.996Z</time></trkpt><trkpt lat="44.07607749187775" lon="12.535260309857918"><ele>8.0</ele><time>2026-03-22T14:30:29.996Z</time></trkpt><trkpt lat="44.076207262836945" lon="12.535053422780239"><ele>8.0</ele><time>2026-03-22T14:30:30.996Z</time></trkpt><trkpt lat="44.076322388219886" lon="12.534870576639419"><ele>8.0</ele><time>2026-03-22T14:30:31.996Z</time></trkpt><trkpt lat="44.0764279702701" lon="12.534683985174974"><ele>8.0</ele><time>2026-03-22T14:30:32.996Z</time></trkpt><trkpt lat="44.076528500658576" lon="12.534516926642988"><ele>8.25</ele><time>2026-03-22T14:30:33.996Z</time></trkpt><trkpt lat="44.07662377098072" lon="12.534363766133612"><ele>8.5</ele><time>2026-03-22T14:30:34.996Z</time></trkpt><trkpt lat="44.07671406672355" lon="12.534207186010118"><ele>8.75</ele><time>2026-03-22T14:30:35.996Z</time></trkpt><trkpt lat="44.07681080130715" lon="12.534050831053237"><ele>9.0</ele><time>2026-03-22T14:30:36.996Z</time></trkpt><trkpt lat="44.076913659151735" lon="12.53387717384176"><ele>7.666666666666667</ele><time>2026-03-22T14:30:37.996Z</time></trkpt><trkpt lat="44.07702923720025" lon="12.533683492732811"><ele>6.333333333333334</ele><time>2026-03-22T14:30:38.996Z</time></trkpt><trkpt lat="44.077149753632916" lon="12.533477203429813"><ele>5.0</ele><time>2026-03-22T14:30:39.996Z</time></trkpt><trkpt lat="44.0772753882509" lon="12.533245986287431"><ele>5.0</ele><time>2026-03-22T14:30:40.996Z</time></trkpt><trkpt lat="44.077413494579936" lon="12.533005039489838"><ele>5.0</ele><time>2026-03-22T14:30:41.996Z</time></trkpt><trkpt lat="44.07756098966502" lon="12.532766263090602"><ele>5.0</ele><time>2026-03-22T14:30:42.996Z</time></trkpt><trkpt lat="44.077699921698176" lon="12.532529136006163"><ele>6.333333333333334</ele><time>2026-03-22T14:30:43.996Z</time></trkpt><trkpt lat="44.077839743794314" lon="12.532291500449505"><ele>7.666666666666667</ele><time>2026-03-22T14:30:44.996Z</time></trkpt><trkpt lat="44.07797738312344" lon="12.532052550617285"><ele>9.0</ele><time>2026-03-22T14:30:45.996Z</time></trkpt><trkpt lat="44.07811158622891" lon="12.531810311388538"><ele>9.333333333333334</ele><time>2026-03-22T14:30:46.996Z</time></trkpt><trkpt lat="44.07824748655533" lon="12.531571003428024"><ele>9.666666666666668</ele><time>2026-03-22T14:30:47.996Z</time></trkpt><trkpt lat="44.07838334454363" lon="12.531327536605012"><ele>10.0</ele><time>2026-03-22T14:30:48.996Z</time></trkpt><trkpt lat="44.0785231748343" lon="12.531080936487928"><ele>9.333333333333334</ele><time>2026-03-22T14:30:49.996Z</time></trkpt><trkpt lat="44.0786634485858" lon="12.530835208715757"><ele>8.666666666666666</ele><time>2026-03-22T14:30:50.996Z</time></trkpt><trkpt lat="44.078803751384285" lon="12.530593541915467"><ele>8.0</ele><time>2026-03-22T14:30:51.996Z</time></trkpt><trkpt lat="44.078938599012574" lon="12.530362613447274"><ele>8.0</ele><time>2026-03-22T14:30:52.996Z</time></trkpt><trkpt lat="44.079064381212284" lon="12.53013221499279"><ele>8.0</ele><time>2026-03-22T14:30:53.996Z</time></trkpt><trkpt lat="44.07919514615294" lon="12.529898852300322"><ele>8.0</ele><time>2026-03-22T14:30:54.996Z</time></trkpt><trkpt lat="44.07932552217537" lon="12.529670547289577"><ele>8.333333333333332</ele><time>2026-03-22T14:30:55.996Z</time></trkpt><trkpt lat="44.0794496645471" lon="12.52945192466484"><ele>8.666666666666666</ele><time>2026-03-22T14:30:56.996Z</time></trkpt><trkpt lat="44.07957072715278" lon="12.529230355409663"><ele>9.0</ele><time>2026-03-22T14:30:57.996Z</time></trkpt><trkpt lat="44.07969003246147" lon="12.529014117236388"><ele>9.0</ele><time>2026-03-22T14:30:58.996Z</time></trkpt><trkpt lat="44.07980941699025" lon="12.528794573128916"><ele>9.0</ele><time>2026-03-22T14:30:59.996Z</time></trkpt><trkpt lat="44.07993357706601" lon="12.528570521125753"><ele>9.0</ele><time>2026-03-22T14:31:00.996Z</time></trkpt><trkpt lat="44.08004989508202" lon="12.52834809052186"><ele>9.333333333333334</ele><time>2026-03-22T14:31:01.996Z</time></trkpt><trkpt lat="44.08015900353247" lon="12.528133636641595"><ele>9.666666666666668</ele><time>2026-03-22T14:31:02.996Z</time></trkpt><trkpt lat="44.08025796203063" lon="12.527915749664121"><ele>10.0</ele><time>2026-03-22T14:31:03.996Z</time></trkpt><trkpt lat="44.08035880830302" lon="12.527698806904574"><ele>10.0</ele><time>2026-03-22T14:31:04.996Z</time></trkpt><trkpt lat="44.08046514495164" lon="12.527475544908306"><ele>10.0</ele><time>2026-03-22T14:31:05.996Z</time></trkpt><trkpt lat="44.08057200272074" lon="12.52725117566623"><ele>10.0</ele><time>2026-03-22T14:31:06.996Z</time></trkpt><trkpt lat="44.08068109529205" lon="12.527019659606786"><ele>9.333333333333334</ele><time>2026-03-22T14:31:07.996Z</time></trkpt><trkpt lat="44.08079271511359" lon="12.526770753422717"><ele>8.666666666666666</ele><time>2026-03-22T14:31:08.996Z</time></trkpt><trkpt lat="44.080913836207266" lon="12.526509870949239"><ele>8.0</ele><time>2026-03-22T14:31:09.996Z</time></trkpt><trkpt lat="44.081052004223274" lon="12.526241363001358"><ele>8.0</ele><time>2026-03-22T14:31:10.996Z</time></trkpt><trkpt lat="44.08118973658921" lon="12.525970622341005"><ele>8.0</ele><time>2026-03-22T14:31:11.996Z</time></trkpt><trkpt lat="44.081325932168035" lon="12.525687971722046"><ele>8.0</ele><time>2026-03-22T14:31:12.996Z</time></trkpt><trkpt lat="44.08146069277484" lon="12.525405391543806"><ele>8.0</ele><time>2026-03-22T14:31:13.996Z</time></trkpt><trkpt lat="44.081592408171936" lon="12.525136774941972"><ele>8.333333333333332</ele><time>2026-03-22T14:31:14.996Z</time></trkpt><trkpt lat="44.08171271966899" lon="12.524891313088098"><ele>8.666666666666666</ele><time>2026-03-22T14:31:15.996Z</time></trkpt><trkpt lat="44.08182381728289" lon="12.52465195807205"><ele>9.0</ele><time>2026-03-22T14:31:16.996Z</time></trkpt><trkpt lat="44.08193263719251" lon="12.524416832406816"><ele>9.0</ele><time>2026-03-22T14:31:17.996Z</time></trkpt><trkpt lat="44.08204657432661" lon="12.524180036967334"><ele>9.0</ele><time>2026-03-22T14:31:18.996Z</time></trkpt><trkpt lat="44.08216558321236" lon="12.523940900941142"><ele>9.0</ele><time>2026-03-22T14:31:19.996Z</time></trkpt><trkpt lat="44.082288137617084" lon="12.52369968440535"><ele>8.666666666666666</ele><time>2026-03-22T14:31:20.996Z</time></trkpt><trkpt lat="44.082417554742854" lon="12.523461506343113"><ele>8.333333333333332</ele><time>2026-03-22T14:31:21.996Z</time></trkpt><trkpt lat="44.082554044651985" lon="12.523227346620406"><ele>8.0</ele><time>2026-03-22T14:31:22.996Z</time></trkpt><trkpt lat="44.08269783998196" lon="12.523004016580456"><ele>8.333333333333332</ele><time>2026-03-22T14:31:23.996Z</time></trkpt><trkpt lat="44.08284873253291" lon="12.522795516805775"><ele>8.666666666666666</ele><time>2026-03-22T14:31:24.996Z</time></trkpt><trkpt lat="44.08300804972054" lon="12.522599973383587"><ele>9.0</ele><time>2026-03-22T14:31:25.996Z</time></trkpt><trkpt lat="44.083168851700144" lon="12.522419471164243"><ele>9.0</ele><time>2026-03-22T14:31:26.996Z</time></trkpt><trkpt lat="44.083329169721544" lon="12.522257362054932"><ele>9.0</ele><time>2026-03-22T14:31:27.996Z</time></trkpt><trkpt lat="44.08349355587262" lon="12.522098148867737"><ele>9.0</ele><time>2026-03-22T14:31:28.996Z</time></trkpt><trkpt lat="44.083653643896575" lon="12.521948668045287"><ele>9.0</ele><time>2026-03-22T14:31:29.996Z</time></trkpt><trkpt lat="44.083803903737355" lon="12.521804366777047"><ele>9.0</ele><time>2026-03-22T14:31:30.995Z</time></trkpt><trkpt lat="44.083950844948276" lon="12.521665174134915"><ele>9.0</ele><time>2026-03-22T14:31:31.995Z</time></trkpt><trkpt lat="44.08409746261125" lon="12.521524484895059"><ele>9.5</ele><time>2026-03-22T14:31:32.996Z</time></trkpt><trkpt lat="44.0842418603006" lon="12.521381766478125"><ele>10.0</ele><time>2026-03-22T14:31:33.996Z</time></trkpt><trkpt lat="44.08453370771914" lon="12.521097559440944"><ele>10.0</ele><time>2026-03-22T14:31:35.996Z</time></trkpt><trkpt lat="44.08468108744542" lon="12.520957282587046"><ele>10.0</ele><time>2026-03-22T14:31:36.996Z</time></trkpt><trkpt lat="44.08482061710358" lon="12.520820951363543"><ele>10.0</ele><time>2026-03-22T14:31:37.996Z</time></trkpt><trkpt lat="44.08495589837741" lon="12.520683818866027"><ele>10.0</ele><time>2026-03-22T14:31:38.996Z</time></trkpt><trkpt lat="44.085091009473615" lon="12.520551737530907"><ele>10.0</ele><time>2026-03-22T14:31:39.996Z</time></trkpt><trkpt lat="44.08522930094633" lon="12.520417453566013"><ele>10.0</ele><time>2026-03-22T14:31:40.996Z</time></trkpt><trkpt lat="44.08536781934846" lon="12.520273440671273"><ele>10.0</ele><time>2026-03-22T14:31:41.996Z</time></trkpt><trkpt lat="44.08550271732336" lon="12.520116226416688"><ele>10.0</ele><time>2026-03-22T14:31:42.996Z</time></trkpt><trkpt lat="44.08563361965533" lon="12.519959599619678"><ele>10.0</ele><time>2026-03-22T14:31:43.996Z</time></trkpt><trkpt lat="44.085753903748156" lon="12.519797487050877"><ele>10.333333333333334</ele><time>2026-03-22T14:31:44.996Z</time></trkpt><trkpt lat="44.08587472446737" lon="12.519622481076846"><ele>10.666666666666666</ele><time>2026-03-22T14:31:45.996Z</time></trkpt><trkpt lat="44.085987014656446" lon="12.519443959656066"><ele>11.0</ele><time>2026-03-22T14:31:46.996Z</time></trkpt><trkpt lat="44.08609236340748" lon="12.51926518683022"><ele>11.0</ele><time>2026-03-22T14:31:47.996Z</time></trkpt><trkpt lat="44.086189319790776" lon="12.519094342050913"><ele>11.0</ele><time>2026-03-22T14:31:48.996Z</time></trkpt><trkpt lat="44.08627696360841" lon="12.518922234593932"><ele>11.0</ele><time>2026-03-22T14:31:49.996Z</time></trkpt><trkpt lat="44.08635991923229" lon="12.518773011748232"><ele>11.0</ele><time>2026-03-22T14:31:50.996Z</time></trkpt><trkpt lat="44.086442605084315" lon="12.518622082504773"><ele>11.0</ele><time>2026-03-22T14:31:51.996Z</time></trkpt><trkpt lat="44.08653815365176" lon="12.518462396098245"><ele>11.0</ele><time>2026-03-22T14:31:52.996Z</time></trkpt><trkpt lat="44.086640989277825" lon="12.518290504473354"><ele>11.0</ele><time>2026-03-22T14:31:53.996Z</time></trkpt><trkpt lat="44.08674640608363" lon="12.518114390371014"><ele>11.0</ele><time>2026-03-22T14:31:54.996Z</time></trkpt><trkpt lat="44.086852622573105" lon="12.517947904288848"><ele>11.0</ele><time>2026-03-22T14:31:55.996Z</time></trkpt><trkpt lat="44.086946943741424" lon="12.517782392597702"><ele>11.0</ele><time>2026-03-22T14:31:56.996Z</time></trkpt><trkpt lat="44.08704006086578" lon="12.51762836930114"><ele>11.0</ele><time>2026-03-22T14:31:57.996Z</time></trkpt><trkpt lat="44.0871286209988" lon="12.517488294274555"><ele>11.0</ele><time>2026-03-22T14:31:58.996Z</time></trkpt><trkpt lat="44.087211408834634" lon="12.517361735570717"><ele>11.0</ele><time>2026-03-22T14:31:59.996Z</time></trkpt><trkpt lat="44.087281819029066" lon="12.51724742683338"><ele>11.0</ele><time>2026-03-22T14:32:00.996Z</time></trkpt><trkpt lat="44.08735029230326" lon="12.51715739173156"><ele>11.0</ele><time>2026-03-22T14:32:01.996Z</time></trkpt><trkpt lat="44.08741062117018" lon="12.517102036619479"><ele>11.0</ele><time>2026-03-22T14:32:02.996Z</time></trkpt><trkpt lat="44.08747110203532" lon="12.517067103919048"><ele>11.0</ele><time>2026-03-22T14:32:03.996Z</time></trkpt><trkpt lat="44.087550424697326" lon="12.516983657342111"><ele>11.0</ele><time>2026-03-22T14:32:05.996Z</time></trkpt><trkpt lat="44.0875909893456" lon="12.51689216826933"><ele>11.0</ele><time>2026-03-22T14:32:07.996Z</time></trkpt><trkpt lat="44.087685399808855" lon="12.516746144419335"><ele>11.200000000000001</ele><time>2026-03-22T14:35:40.993Z</time></trkpt><trkpt lat="44.087745248317304" lon="12.516658356794935"><ele>11.4</ele><time>2026-03-22T14:35:42.993Z</time></trkpt><trkpt lat="44.08774224664869" lon="12.51651768310797"><ele>11.6</ele><time>2026-03-22T14:35:54.993Z</time></trkpt><trkpt lat="44.08780895524978" lon="12.516420827724605"><ele>11.8</ele><time>2026-03-22T14:35:55.993Z</time></trkpt><trkpt lat="44.087893925960486" lon="12.516302138861208"><ele>12.0</ele><time>2026-03-22T14:35:56.993Z</time></trkpt><trkpt lat="44.087974680731364" lon="12.516167024438124"><ele>11.666666666666666</ele><time>2026-03-22T14:35:57.993Z</time></trkpt><trkpt lat="44.08806915733245" lon="12.516006908883966"><ele>11.333333333333332</ele><time>2026-03-22T14:35:58.993Z</time></trkpt><trkpt lat="44.088167037671056" lon="12.515837374248967"><ele>11.0</ele><time>2026-03-22T14:35:59.993Z</time></trkpt><trkpt lat="44.08826671239825" lon="12.515650485663993"><ele>11.0</ele><time>2026-03-22T14:36:00.993Z</time></trkpt><trkpt lat="44.08836823184809" lon="12.515474473178436"><ele>11.0</ele><time>2026-03-22T14:36:01.993Z</time></trkpt><trkpt lat="44.08846371925545" lon="12.515312012816889"><ele>11.0</ele><time>2026-03-22T14:36:02.993Z</time></trkpt><trkpt lat="44.088557451666304" lon="12.51516005199459"><ele>10.75</ele><time>2026-03-22T14:36:03.993Z</time></trkpt><trkpt lat="44.08863748971262" lon="12.51502414076253"><ele>10.5</ele><time>2026-03-22T14:36:04.993Z</time></trkpt><trkpt lat="44.08872072673787" lon="12.514886902316833"><ele>10.25</ele><time>2026-03-22T14:36:05.993Z</time></trkpt><trkpt lat="44.08881395176358" lon="12.514723132529179"><ele>10.0</ele><time>2026-03-22T14:36:06.993Z</time></trkpt><trkpt lat="44.08891566494376" lon="12.514547196840416"><ele>10.0</ele><time>2026-03-22T14:36:07.993Z</time></trkpt><trkpt lat="44.08902592782309" lon="12.514363580916603"><ele>10.0</ele><time>2026-03-22T14:36:08.993Z</time></trkpt><trkpt lat="44.08914232246913" lon="12.514178002319971"><ele>10.0</ele><time>2026-03-22T14:36:09.993Z</time></trkpt><trkpt lat="44.089263517094984" lon="12.513979808397133"><ele>10.0</ele><time>2026-03-22T14:36:10.993Z</time></trkpt><trkpt lat="44.089378836978064" lon="12.51379755414365"><ele>10.0</ele><time>2026-03-22T14:36:11.993Z</time></trkpt><trkpt lat="44.08948621063575" lon="12.513621790569024"><ele>10.0</ele><time>2026-03-22T14:36:12.993Z</time></trkpt><trkpt lat="44.08958999836701" lon="12.513455542086062"><ele>10.0</ele><time>2026-03-22T14:36:13.993Z</time></trkpt><trkpt lat="44.089692159885985" lon="12.513285818945349"><ele>10.0</ele><time>2026-03-22T14:36:14.993Z</time></trkpt><trkpt lat="44.08979845838672" lon="12.513122298942672"><ele>10.0</ele><time>2026-03-22T14:36:15.993Z</time></trkpt><trkpt lat="44.08990172882355" lon="12.512954114663481"><ele>9.75</ele><time>2026-03-22T14:36:16.993Z</time></trkpt><trkpt lat="44.090000198057005" lon="12.512794132809946"><ele>9.5</ele><time>2026-03-22T14:36:17.993Z</time></trkpt><trkpt lat="44.09009117014994" lon="12.512644903819321"><ele>9.25</ele><time>2026-03-22T14:36:18.993Z</time></trkpt><trkpt lat="44.09017741679962" lon="12.512504561848885"><ele>9.0</ele><time>2026-03-22T14:36:19.993Z</time></trkpt><trkpt lat="44.09025714449892" lon="12.512373080138648"><ele>9.0</ele><time>2026-03-22T14:36:20.993Z</time></trkpt><trkpt lat="44.09033488726074" lon="12.512246198254095"><ele>9.0</ele><time>2026-03-22T14:36:21.993Z</time></trkpt><trkpt lat="44.09041311834804" lon="12.512120574168216"><ele>9.0</ele><time>2026-03-22T14:36:22.993Z</time></trkpt><trkpt lat="44.09049376905478" lon="12.511988158190686"><ele>9.0</ele><time>2026-03-22T14:36:23.993Z</time></trkpt><trkpt lat="44.09057229025305" lon="12.511864843676257"><ele>9.5</ele><time>2026-03-22T14:36:24.993Z</time></trkpt><trkpt lat="44.09064905278528" lon="12.511742291224957"><ele>10.0</ele><time>2026-03-22T14:36:25.993Z</time></trkpt><trkpt lat="44.090720203622375" lon="12.511630257830639"><ele>10.5</ele><time>2026-03-22T14:36:26.993Z</time></trkpt><trkpt lat="44.09079746000234" lon="12.511510458436867"><ele>11.0</ele><time>2026-03-22T14:36:27.993Z</time></trkpt><trkpt lat="44.090876256268416" lon="12.511383834383563"><ele>11.0</ele><time>2026-03-22T14:36:28.993Z</time></trkpt><trkpt lat="44.09095757308679" lon="12.51125404401715"><ele>11.0</ele><time>2026-03-22T14:36:29.993Z</time></trkpt><trkpt lat="44.091046205943314" lon="12.511117731710728"><ele>11.0</ele><time>2026-03-22T14:36:30.993Z</time></trkpt><trkpt lat="44.091140354540485" lon="12.510969522831413"><ele>11.0</ele><time>2026-03-22T14:36:31.993Z</time></trkpt><trkpt lat="44.09122751273373" lon="12.510829446885245"><ele>10.8</ele><time>2026-03-22T14:36:32.993Z</time></trkpt><trkpt lat="44.09130768481132" lon="12.510703925988354"><ele>10.600000000000001</ele><time>2026-03-22T14:36:33.993Z</time></trkpt><trkpt lat="44.091382475195765" lon="12.510590419755781"><ele>10.4</ele><time>2026-03-22T14:36:34.993Z</time></trkpt><trkpt lat="44.09144917270682" lon="12.51048914333188"><ele>10.2</ele><time>2026-03-22T14:36:35.993Z</time></trkpt><trkpt lat="44.09151613712642" lon="12.510396642082378"><ele>10.0</ele><time>2026-03-22T14:36:36.993Z</time></trkpt><trkpt lat="44.09158181526591" lon="12.51032018466135"><ele>10.0</ele><time>2026-03-22T14:36:37.993Z</time></trkpt><trkpt lat="44.09165157622145" lon="12.510251117246254"><ele>10.0</ele><time>2026-03-22T14:36:38.993Z</time></trkpt><trkpt lat="44.091722659654366" lon="12.5101986208793"><ele>10.0</ele><time>2026-03-22T14:36:39.993Z</time></trkpt><trkpt lat="44.09179812255053" lon="12.510166526610991"><ele>10.0</ele><time>2026-03-22T14:36:40.993Z</time></trkpt><trkpt lat="44.09189531765657" lon="12.510157666933756"><ele>10.0</ele><time>2026-03-22T14:36:41.993Z</time></trkpt><trkpt lat="44.09198714885541" lon="12.510156547365693"><ele>10.0</ele><time>2026-03-22T14:36:42.993Z</time></trkpt><trkpt lat="44.09207001808766" lon="12.510130952319285"><ele>10.0</ele><time>2026-03-22T14:36:43.993Z</time></trkpt><trkpt lat="44.09212671278016" lon="12.510061759879521"><ele>10.0</ele><time>2026-03-22T14:36:44.993Z</time></trkpt><trkpt lat="44.0921586579504" lon="12.509964871921547"><ele>10.0</ele><time>2026-03-22T14:36:45.993Z</time></trkpt><trkpt lat="44.09218181551999" lon="12.50983486365809"><ele>10.0</ele><time>2026-03-22T14:36:46.993Z</time></trkpt><trkpt lat="44.0921694571367" lon="12.509690004613079"><ele>10.0</ele><time>2026-03-22T14:36:47.993Z</time></trkpt><trkpt lat="44.09216220807701" lon="12.509538984972126"><ele>9.5</ele><time>2026-03-22T14:36:48.993Z</time></trkpt><trkpt lat="44.09218159330217" lon="12.509376337747732"><ele>9.0</ele><time>2026-03-22T14:36:49.993Z</time></trkpt><trkpt lat="44.0922335311022" lon="12.509209125895277"><ele>8.5</ele><time>2026-03-22T14:36:50.993Z</time></trkpt><trkpt lat="44.09230896465268" lon="12.509033402274047"><ele>8.0</ele><time>2026-03-22T14:36:51.993Z</time></trkpt><trkpt lat="44.0923873756541" lon="12.508864255043447"><ele>8.333333333333332</ele><time>2026-03-22T14:36:52.993Z</time></trkpt><trkpt lat="44.09248409228587" lon="12.508691303501315"><ele>8.666666666666666</ele><time>2026-03-22T14:36:53.993Z</time></trkpt><trkpt lat="44.092594381494" lon="12.508517950338545"><ele>9.0</ele><time>2026-03-22T14:36:54.993Z</time></trkpt><trkpt lat="44.09270477402582" lon="12.508336502122406"><ele>9.0</ele><time>2026-03-22T14:36:55.993Z</time></trkpt><trkpt lat="44.09281106182942" lon="12.508152489506816"><ele>9.0</ele><time>2026-03-22T14:36:56.993Z</time></trkpt><trkpt lat="44.092921465279716" lon="12.507961831681856"><ele>9.0</ele><time>2026-03-22T14:36:57.993Z</time></trkpt><trkpt lat="44.09303813280143" lon="12.507772743223693"><ele>9.333333333333334</ele><time>2026-03-22T14:36:58.993Z</time></trkpt><trkpt lat="44.09315676287169" lon="12.507579473882156"><ele>9.666666666666668</ele><time>2026-03-22T14:36:59.993Z</time></trkpt><trkpt lat="44.093278993570316" lon="12.507384825645016"><ele>10.0</ele><time>2026-03-22T14:37:00.993Z</time></trkpt><trkpt lat="44.09339512023551" lon="12.507184699268471"><ele>9.666666666666668</ele><time>2026-03-22T14:37:01.993Z</time></trkpt><trkpt lat="44.09352020370103" lon="12.506987810325262"><ele>9.333333333333334</ele><time>2026-03-22T14:37:02.993Z</time></trkpt><trkpt lat="44.09363587347069" lon="12.506796377448664"><ele>9.0</ele><time>2026-03-22T14:37:03.993Z</time></trkpt><trkpt lat="44.093760388906944" lon="12.506597670360295"><ele>9.0</ele><time>2026-03-22T14:37:04.993Z</time></trkpt><trkpt lat="44.093883287336546" lon="12.506397596352008"><ele>9.0</ele><time>2026-03-22T14:37:05.993Z</time></trkpt><trkpt lat="44.09400286720792" lon="12.50620139326133"><ele>9.0</ele><time>2026-03-22T14:37:06.993Z</time></trkpt><trkpt lat="44.09412446521356" lon="12.506005152707651"><ele>8.666666666666666</ele><time>2026-03-22T14:37:07.993Z</time></trkpt><trkpt lat="44.09424385959811" lon="12.50580991558912"><ele>8.333333333333332</ele><time>2026-03-22T14:37:08.993Z</time></trkpt><trkpt lat="44.09436518463508" lon="12.505610058627186"><ele>8.0</ele><time>2026-03-22T14:37:09.993Z</time></trkpt><trkpt lat="44.094487198674855" lon="12.505409027231668"><ele>7.666666666666666</ele><time>2026-03-22T14:37:10.993Z</time></trkpt><trkpt lat="44.09461441663361" lon="12.505204298358073"><ele>7.333333333333334</ele><time>2026-03-22T14:37:11.993Z</time></trkpt><trkpt lat="44.094745116553916" lon="12.504993144011756"><ele>7.0</ele><time>2026-03-22T14:37:12.993Z</time></trkpt><trkpt lat="44.09487616935222" lon="12.504785866775553"><ele>8.0</ele><time>2026-03-22T14:37:13.993Z</time></trkpt><trkpt lat="44.095000513226694" lon="12.504587616528518"><ele>9.0</ele><time>2026-03-22T14:37:14.993Z</time></trkpt><trkpt lat="44.09512623016171" lon="12.504389408796161"><ele>10.0</ele><time>2026-03-22T14:37:15.993Z</time></trkpt><trkpt lat="44.095253197686795" lon="12.50418925802772"><ele>10.0</ele><time>2026-03-22T14:37:16.993Z</time></trkpt><trkpt lat="44.0953762199499" lon="12.503990997770414"><ele>10.0</ele><time>2026-03-22T14:37:17.993Z</time></trkpt><trkpt lat="44.095501409821765" lon="12.503793375053375"><ele>10.0</ele><time>2026-03-22T14:37:18.993Z</time></trkpt><trkpt lat="44.09562235607249" lon="12.503605194165099"><ele>10.0</ele><time>2026-03-22T14:37:19.993Z</time></trkpt><trkpt lat="44.09573547067365" lon="12.503426868423643"><ele>10.0</ele><time>2026-03-22T14:37:20.993Z</time></trkpt><trkpt lat="44.09584206583625" lon="12.503256946868841"><ele>10.0</ele><time>2026-03-22T14:37:21.993Z</time></trkpt><trkpt lat="44.095949271180416" lon="12.503090402408354"><ele>9.666666666666668</ele><time>2026-03-22T14:37:22.993Z</time></trkpt><trkpt lat="44.0960616219285" lon="12.502916030468839"><ele>9.333333333333334</ele><time>2026-03-22T14:37:23.993Z</time></trkpt><trkpt lat="44.096174097214366" lon="12.502744045760878"><ele>9.0</ele><time>2026-03-22T14:37:24.993Z</time></trkpt><trkpt lat="44.09628315824304" lon="12.502570740822112"><ele>9.0</ele><time>2026-03-22T14:37:25.993Z</time></trkpt><trkpt lat="44.09639034063717" lon="12.502401250807845"><ele>9.0</ele><time>2026-03-22T14:37:26.993Z</time></trkpt><trkpt lat="44.096492546655966" lon="12.502240304653283"><ele>9.0</ele><time>2026-03-22T14:37:27.993Z</time></trkpt><trkpt lat="44.096588740299765" lon="12.502082050721954"><ele>9.333333333333334</ele><time>2026-03-22T14:37:28.993Z</time></trkpt><trkpt lat="44.096684371584054" lon="12.501922851067606"><ele>9.666666666666668</ele><time>2026-03-22T14:37:29.993Z</time></trkpt><trkpt lat="44.09678185184853" lon="12.501759398988161"><ele>10.0</ele><time>2026-03-22T14:37:30.993Z</time></trkpt><trkpt lat="44.096878475798896" lon="12.501596438494106"><ele>10.0</ele><time>2026-03-22T14:37:31.993Z</time></trkpt><trkpt lat="44.09697958939641" lon="12.501431877822508"><ele>10.0</ele><time>2026-03-22T14:37:32.993Z</time></trkpt><trkpt lat="44.09708790634906" lon="12.501266164676037"><ele>10.0</ele><time>2026-03-22T14:37:33.993Z</time></trkpt><trkpt lat="44.097198626439386" lon="12.5010898198057"><ele>10.0</ele><time>2026-03-22T14:37:34.993Z</time></trkpt><trkpt lat="44.0973070246325" lon="12.500912962215004"><ele>10.0</ele><time>2026-03-22T14:37:35.993Z</time></trkpt><trkpt lat="44.09741938869664" lon="12.500737650126924"><ele>10.0</ele><time>2026-03-22T14:37:36.993Z</time></trkpt><trkpt lat="44.09753008375078" lon="12.500541854259717"><ele>10.0</ele><time>2026-03-22T14:37:37.993Z</time></trkpt><trkpt lat="44.09765016601523" lon="12.500342223752618"><ele>10.0</ele><time>2026-03-22T14:37:38.993Z</time></trkpt><trkpt lat="44.097772529770275" lon="12.500145958632105"><ele>10.0</ele><time>2026-03-22T14:37:39.993Z</time></trkpt><trkpt lat="44.0978946244362" lon="12.499956940462567"><ele>10.0</ele><time>2026-03-22T14:37:40.993Z</time></trkpt><trkpt lat="44.09801155908469" lon="12.499761595157265"><ele>10.0</ele><time>2026-03-22T14:37:41.993Z</time></trkpt><trkpt lat="44.09811607996957" lon="12.499590286903036"><ele>10.0</ele><time>2026-03-22T14:37:42.993Z</time></trkpt><trkpt lat="44.09822486728742" lon="12.499408048957875"><ele>9.666666666666668</ele><time>2026-03-22T14:37:43.993Z</time></trkpt><trkpt lat="44.098335984329424" lon="12.499228904468964"><ele>9.333333333333334</ele><time>2026-03-22T14:37:44.992Z</time></trkpt><trkpt lat="44.09844008490873" lon="12.499055653907066"><ele>9.0</ele><time>2026-03-22T14:37:45.992Z</time></trkpt><trkpt lat="44.09853486500846" lon="12.498888736371185"><ele>9.333333333333334</ele><time>2026-03-22T14:37:46.992Z</time></trkpt><trkpt lat="44.09863178901598" lon="12.498739685103558"><ele>9.666666666666668</ele><time>2026-03-22T14:37:47.992Z</time></trkpt><trkpt lat="44.09872809339641" lon="12.498582541391684"><ele>10.0</ele><time>2026-03-22T14:37:48.992Z</time></trkpt><trkpt lat="44.09883106183926" lon="12.498415903153347"><ele>10.0</ele><time>2026-03-22T14:37:49.992Z</time></trkpt><trkpt lat="44.09894202596608" lon="12.498234258704395"><ele>10.0</ele><time>2026-03-22T14:37:50.992Z</time></trkpt><trkpt lat="44.099056818745794" lon="12.498050160256357"><ele>10.0</ele><time>2026-03-22T14:37:51.992Z</time></trkpt><trkpt lat="44.099168292459375" lon="12.497873115281983"><ele>9.333333333333334</ele><time>2026-03-22T14:37:52.992Z</time></trkpt><trkpt lat="44.09926847380059" lon="12.497710362623097"><ele>8.666666666666666</ele><time>2026-03-22T14:37:53.991Z</time></trkpt><trkpt lat="44.099369231288456" lon="12.497550423253834"><ele>8.0</ele><time>2026-03-22T14:37:54.992Z</time></trkpt><trkpt lat="44.099467268928876" lon="12.497394643281206"><ele>8.0</ele><time>2026-03-22T14:37:55.992Z</time></trkpt><trkpt lat="44.09956036208959" lon="12.49724188114083"><ele>8.0</ele><time>2026-03-22T14:37:56.992Z</time></trkpt><trkpt lat="44.09964750638076" lon="12.497092634262662"><ele>8.0</ele><time>2026-03-22T14:37:57.992Z</time></trkpt><trkpt lat="44.0997363648714" lon="12.496944856279718"><ele>8.0</ele><time>2026-03-22T14:37:58.992Z</time></trkpt><trkpt lat="44.09983189549371" lon="12.496789620831255"><ele>8.333333333333332</ele><time>2026-03-22T14:37:59.992Z</time></trkpt><trkpt lat="44.099927080541576" lon="12.496626822011363"><ele>8.666666666666666</ele><time>2026-03-22T14:38:00.992Z</time></trkpt><trkpt lat="44.10002885134274" lon="12.496458037101528"><ele>9.0</ele><time>2026-03-22T14:38:01.992Z</time></trkpt><trkpt lat="44.100140445874985" lon="12.496280298268742"><ele>9.0</ele><time>2026-03-22T14:38:02.992Z</time></trkpt><trkpt lat="44.10025736905822" lon="12.49610289252847"><ele>9.0</ele><time>2026-03-22T14:38:03.992Z</time></trkpt><trkpt lat="44.100364959017405" lon="12.4959254007324"><ele>9.0</ele><time>2026-03-22T14:38:04.992Z</time></trkpt><trkpt lat="44.10046661432249" lon="12.49576199691128"><ele>9.0</ele><time>2026-03-22T14:38:05.992Z</time></trkpt><trkpt lat="44.10056597632006" lon="12.495602879042922"><ele>9.0</ele><time>2026-03-22T14:38:06.992Z</time></trkpt><trkpt lat="44.10066625201648" lon="12.495440607729417"><ele>9.0</ele><time>2026-03-22T14:38:07.992Z</time></trkpt><trkpt lat="44.100764850074896" lon="12.495280317419718"><ele>9.5</ele><time>2026-03-22T14:38:08.992Z</time></trkpt><trkpt lat="44.10085908754513" lon="12.4951246261616"><ele>10.0</ele><time>2026-03-22T14:38:09.992Z</time></trkpt><trkpt lat="44.10094882520224" lon="12.494979409419962"><ele>10.5</ele><time>2026-03-22T14:38:10.992Z</time></trkpt><trkpt lat="44.101033203486864" lon="12.494838443660086"><ele>11.0</ele><time>2026-03-22T14:38:11.992Z</time></trkpt><trkpt lat="44.101124391472894" lon="12.494683024766369"><ele>10.666666666666666</ele><time>2026-03-22T14:38:12.992Z</time></trkpt><trkpt lat="44.10122638384852" lon="12.494507918247374"><ele>10.333333333333334</ele><time>2026-03-22T14:38:13.992Z</time></trkpt><trkpt lat="44.10133236993791" lon="12.49432861629954"><ele>10.0</ele><time>2026-03-22T14:38:14.992Z</time></trkpt><trkpt lat="44.101436984312556" lon="12.49416375450952"><ele>10.0</ele><time>2026-03-22T14:38:15.992Z</time></trkpt><trkpt lat="44.101540976238034" lon="12.494004061397112"><ele>10.0</ele><time>2026-03-22T14:38:16.992Z</time></trkpt><trkpt lat="44.10162852773659" lon="12.493862427823787"><ele>10.0</ele><time>2026-03-22T14:38:17.992Z</time></trkpt><trkpt lat="44.10170118398976" lon="12.493740452940255"><ele>10.0</ele><time>2026-03-22T14:38:18.992Z</time></trkpt><trkpt lat="44.10176225979174" lon="12.493636624569445"><ele>10.0</ele><time>2026-03-22T14:38:19.992Z</time></trkpt><trkpt lat="44.10181787523276" lon="12.493544041413807"><ele>10.0</ele><time>2026-03-22T14:38:20.992Z</time></trkpt><trkpt lat="44.10187801014552" lon="12.49344250565471"><ele>10.0</ele><time>2026-03-22T14:38:21.992Z</time></trkpt><trkpt lat="44.10194188500374" lon="12.493339116764936"><ele>10.0</ele><time>2026-03-22T14:38:22.992Z</time></trkpt><trkpt lat="44.10200857282143" lon="12.493231159757388"><ele>10.0</ele><time>2026-03-22T14:38:23.992Z</time></trkpt><trkpt lat="44.102082887124574" lon="12.493091696164615"><ele>10.0</ele><time>2026-03-22T14:38:24.992Z</time></trkpt><trkpt lat="44.10217192505716" lon="12.492944090173383"><ele>10.0</ele><time>2026-03-22T14:38:25.992Z</time></trkpt><trkpt lat="44.102273382230706" lon="12.492786684444422"><ele>10.0</ele><time>2026-03-22T14:38:26.992Z</time></trkpt><trkpt lat="44.102384165824276" lon="12.492613937568755"><ele>10.5</ele><time>2026-03-22T14:38:27.992Z</time></trkpt><trkpt lat="44.10248304760569" lon="12.492462861311651"><ele>11.0</ele><time>2026-03-22T14:38:28.992Z</time></trkpt><trkpt lat="44.102576648485815" lon="12.492325841425371"><ele>11.5</ele><time>2026-03-22T14:38:29.992Z</time></trkpt><trkpt lat="44.10266021386819" lon="12.492205341598273"><ele>12.0</ele><time>2026-03-22T14:38:30.992Z</time></trkpt><trkpt lat="44.102732481414044" lon="12.49211199328521"><ele>11.8</ele><time>2026-03-22T14:38:31.992Z</time></trkpt><trkpt lat="44.10281073545638" lon="12.492018977588542"><ele>11.6</ele><time>2026-03-22T14:38:32.992Z</time></trkpt><trkpt lat="44.10289894351058" lon="12.491927238624024"><ele>11.4</ele><time>2026-03-22T14:38:33.992Z</time></trkpt><trkpt lat="44.102999570769576" lon="12.491863399366459"><ele>11.200000000000001</ele><time>2026-03-22T14:38:34.992Z</time></trkpt><trkpt lat="44.103104610753356" lon="12.491829766032575"><ele>11.0</ele><time>2026-03-22T14:38:35.992Z</time></trkpt><trkpt lat="44.10320702852776" lon="12.491816102882954"><ele>10.8</ele><time>2026-03-22T14:38:36.992Z</time></trkpt><trkpt lat="44.103290198878426" lon="12.491770141788816"><ele>10.600000000000001</ele><time>2026-03-22T14:38:37.992Z</time></trkpt><trkpt lat="44.10335413524182" lon="12.491681621658593"><ele>10.4</ele><time>2026-03-22T14:38:38.992Z</time></trkpt><trkpt lat="44.10340080402685" lon="12.491575702432252"><ele>10.2</ele><time>2026-03-22T14:38:39.992Z</time></trkpt><trkpt lat="44.103429204185254" lon="12.491441424502124"><ele>10.0</ele><time>2026-03-22T14:38:40.992Z</time></trkpt><trkpt lat="44.10344054002566" lon="12.49128561353994"><ele>10.0</ele><time>2026-03-22T14:38:41.992Z</time></trkpt><trkpt lat="44.10344267412327" lon="12.491113506326567"><ele>10.0</ele><time>2026-03-22T14:38:42.992Z</time></trkpt><trkpt lat="44.10347270467181" lon="12.490935312278568"><ele>10.0</ele><time>2026-03-22T14:38:43.992Z</time></trkpt><trkpt lat="44.10353124895029" lon="12.490755911472393"><ele>10.0</ele><time>2026-03-22T14:38:44.992Z</time></trkpt><trkpt lat="44.10365568454717" lon="12.490596247266888"><ele>10.333333333333334</ele><time>2026-03-22T14:38:45.992Z</time></trkpt><trkpt lat="44.103768231736936" lon="12.49041151532048"><ele>10.666666666666666</ele><time>2026-03-22T14:38:46.992Z</time></trkpt><trkpt lat="44.10388767659676" lon="12.490218651925739"><ele>11.0</ele><time>2026-03-22T14:38:47.992Z</time></trkpt><trkpt lat="44.104005250229285" lon="12.490022658801387"><ele>11.333333333333332</ele><time>2026-03-22T14:38:48.992Z</time></trkpt><trkpt lat="44.10412950149613" lon="12.4898068079594"><ele>11.666666666666666</ele><time>2026-03-22T14:38:49.992Z</time></trkpt><trkpt lat="44.104267445875976" lon="12.489579913018105"><ele>12.0</ele><time>2026-03-22T14:38:50.992Z</time></trkpt><trkpt lat="44.10441978928588" lon="12.489337850454827"><ele>12.0</ele><time>2026-03-22T14:38:51.992Z</time></trkpt><trkpt lat="44.10457548007945" lon="12.489096459638134"><ele>12.0</ele><time>2026-03-22T14:38:52.992Z</time></trkpt><trkpt lat="44.10474118343948" lon="12.488856480527577"><ele>12.5</ele><time>2026-03-22T14:38:53.992Z</time></trkpt><trkpt lat="44.104900896761215" lon="12.488611319623287"><ele>13.0</ele><time>2026-03-22T14:38:54.992Z</time></trkpt><trkpt lat="44.105057406829545" lon="12.488361213377676"><ele>13.0</ele><time>2026-03-22T14:38:55.992Z</time></trkpt><trkpt lat="44.10521091027398" lon="12.488115013485233"><ele>13.0</ele><time>2026-03-22T14:38:56.992Z</time></trkpt><trkpt lat="44.10536449040772" lon="12.487868458590004"><ele>12.5</ele><time>2026-03-22T14:38:57.992Z</time></trkpt><trkpt lat="44.10551356354635" lon="12.487622945915373"><ele>12.0</ele><time>2026-03-22T14:38:58.992Z</time></trkpt><trkpt lat="44.105663647323986" lon="12.487371928048718"><ele>12.0</ele><time>2026-03-22T14:38:59.992Z</time></trkpt><trkpt lat="44.10581417945347" lon="12.48712585813641"><ele>12.0</ele><time>2026-03-22T14:39:00.992Z</time></trkpt><trkpt lat="44.10596078513271" lon="12.486884671014742"><ele>12.0</ele><time>2026-03-22T14:39:01.992Z</time></trkpt><trkpt lat="44.1061094098523" lon="12.486649486007328"><ele>12.0</ele><time>2026-03-22T14:39:02.992Z</time></trkpt><trkpt lat="44.106259891108365" lon="12.486421535187144"><ele>12.0</ele><time>2026-03-22T14:39:03.992Z</time></trkpt><trkpt lat="44.10641513726064" lon="12.48621135082181"><ele>12.0</ele><time>2026-03-22T14:39:04.992Z</time></trkpt><trkpt lat="44.10656934229187" lon="12.4860212158328"><ele>12.0</ele><time>2026-03-22T14:39:05.992Z</time></trkpt><trkpt lat="44.10672260761054" lon="12.485858718883428"><ele>12.0</ele><time>2026-03-22T14:39:06.992Z</time></trkpt><trkpt lat="44.10687532912836" lon="12.485711132667646"><ele>12.0</ele><time>2026-03-22T14:39:07.992Z</time></trkpt><trkpt lat="44.1070327787285" lon="12.485573093339866"><ele>12.0</ele><time>2026-03-22T14:39:08.992Z</time></trkpt><trkpt lat="44.107193364264695" lon="12.485442045813839"><ele>12.0</ele><time>2026-03-22T14:39:09.992Z</time></trkpt><trkpt lat="44.10734084142092" lon="12.485318452438994"><ele>10.666666666666666</ele><time>2026-03-22T14:39:10.992Z</time></trkpt><trkpt lat="44.107487880318416" lon="12.48519796338747"><ele>9.333333333333332</ele><time>2026-03-22T14:39:11.992Z</time></trkpt><trkpt lat="44.10764632656197" lon="12.485076278001367"><ele>8.0</ele><time>2026-03-22T14:39:12.992Z</time></trkpt><trkpt lat="44.1078037777806" lon="12.48495261770183"><ele>8.0</ele><time>2026-03-22T14:39:13.992Z</time></trkpt><trkpt lat="44.107949834814065" lon="12.484834677095018"><ele>8.0</ele><time>2026-03-22T14:39:14.992Z</time></trkpt><trkpt lat="44.1080900974791" lon="12.484720352761837"><ele>8.0</ele><time>2026-03-22T14:39:15.992Z</time></trkpt><trkpt lat="44.10822293317297" lon="12.484618185923482"><ele>9.25</ele><time>2026-03-22T14:39:16.992Z</time></trkpt><trkpt lat="44.10835021139526" lon="12.484511529969218"><ele>10.5</ele><time>2026-03-22T14:39:17.992Z</time></trkpt><trkpt lat="44.108474751954894" lon="12.484411077795578"><ele>11.75</ele><time>2026-03-22T14:39:18.992Z</time></trkpt><trkpt lat="44.10860701333053" lon="12.484316843263"><ele>13.0</ele><time>2026-03-22T14:39:19.992Z</time></trkpt><trkpt lat="44.108736552387455" lon="12.48420813280274"><ele>13.0</ele><time>2026-03-22T14:39:20.992Z</time></trkpt><trkpt lat="44.10886324226348" lon="12.484101466223334"><ele>13.0</ele><time>2026-03-22T14:39:21.992Z</time></trkpt><trkpt lat="44.108989867133786" lon="12.484006821652372"><ele>13.0</ele><time>2026-03-22T14:39:22.992Z</time></trkpt><trkpt lat="44.10911398856488" lon="12.483909160029675"><ele>13.0</ele><time>2026-03-22T14:39:23.992Z</time></trkpt><trkpt lat="44.10923437605372" lon="12.483809542070361"><ele>12.666666666666666</ele><time>2026-03-22T14:39:24.992Z</time></trkpt><trkpt lat="44.10936708181999" lon="12.4837078357579"><ele>12.333333333333332</ele><time>2026-03-22T14:39:25.992Z</time></trkpt><trkpt lat="44.109515632843284" lon="12.483596107544736"><ele>12.0</ele><time>2026-03-22T14:39:26.992Z</time></trkpt><trkpt lat="44.10968091899948" lon="12.483464689633227"><ele>12.0</ele><time>2026-03-22T14:39:27.992Z</time></trkpt><trkpt lat="44.10985771647172" lon="12.483317854982488"><ele>12.0</ele><time>2026-03-22T14:39:28.992Z</time></trkpt><trkpt lat="44.110046469213984" lon="12.483148998119342"><ele>12.0</ele><time>2026-03-22T14:39:29.992Z</time></trkpt><trkpt lat="44.11024003787789" lon="12.48296009552768"><ele>11.0</ele><time>2026-03-22T14:39:30.992Z</time></trkpt><trkpt lat="44.110448476885026" lon="12.482761363784864"><ele>10.0</ele><time>2026-03-22T14:39:31.992Z</time></trkpt><trkpt lat="44.11065847592312" lon="12.482537690889437"><ele>10.0</ele><time>2026-03-22T14:39:32.992Z</time></trkpt><trkpt lat="44.1108678875325" lon="12.482297048449341"><ele>10.0</ele><time>2026-03-22T14:39:33.992Z</time></trkpt><trkpt lat="44.11107876861526" lon="12.482041939649156"><ele>9.5</ele><time>2026-03-22T14:39:34.992Z</time></trkpt><trkpt lat="44.11130061260531" lon="12.481778317657387"><ele>9.0</ele><time>2026-03-22T14:39:35.992Z</time></trkpt><trkpt lat="44.111530365329784" lon="12.481508647197819"><ele>10.0</ele><time>2026-03-22T14:39:36.992Z</time></trkpt><trkpt lat="44.11175991790307" lon="12.481229189511401"><ele>11.0</ele><time>2026-03-22T14:39:37.992Z</time></trkpt><trkpt lat="44.1119810077545" lon="12.480944980186148"><ele>11.0</ele><time>2026-03-22T14:39:38.992Z</time></trkpt><trkpt lat="44.11217537872987" lon="12.480682139636954"><ele>11.0</ele><time>2026-03-22T14:39:39.992Z</time></trkpt><trkpt lat="44.112367074796786" lon="12.480427126566612"><ele>11.0</ele><time>2026-03-22T14:39:40.992Z</time></trkpt><trkpt lat="44.112566281892185" lon="12.480159282389948"><ele>11.0</ele><time>2026-03-22T14:39:41.992Z</time></trkpt><trkpt lat="44.112771039540426" lon="12.479873838139428"><ele>11.0</ele><time>2026-03-22T14:39:42.992Z</time></trkpt><trkpt lat="44.112972523915715" lon="12.479594435406137"><ele>11.0</ele><time>2026-03-22T14:39:43.992Z</time></trkpt><trkpt lat="44.11315657911877" lon="12.47933736656693"><ele>9.5</ele><time>2026-03-22T14:39:44.992Z</time></trkpt><trkpt lat="44.113349529280754" lon="12.47907526878316"><ele>8.0</ele><time>2026-03-22T14:39:45.992Z</time></trkpt><trkpt lat="44.11355002380961" lon="12.478796991058582"><ele>9.0</ele><time>2026-03-22T14:39:46.992Z</time></trkpt><trkpt lat="44.1137633498606" lon="12.478512913177225"><ele>10.0</ele><time>2026-03-22T14:39:47.992Z</time></trkpt><trkpt lat="44.11398061892746" lon="12.478219684556986"><ele>11.0</ele><time>2026-03-22T14:39:48.992Z</time></trkpt><trkpt lat="44.11420444405236" lon="12.477919864347855"><ele>12.0</ele><time>2026-03-22T14:39:49.992Z</time></trkpt><trkpt lat="44.11443247951021" lon="12.47761498279367"><ele>12.0</ele><time>2026-03-22T14:39:50.991Z</time></trkpt><trkpt lat="44.114669736762465" lon="12.477309475191737"><ele>12.0</ele><time>2026-03-22T14:39:51.992Z</time></trkpt><trkpt lat="44.11490040179301" lon="12.47701763476772"><ele>10.5</ele><time>2026-03-22T14:39:52.992Z</time></trkpt><trkpt lat="44.115122462569026" lon="12.476745753370324"><ele>9.0</ele><time>2026-03-22T14:39:53.992Z</time></trkpt><trkpt lat="44.115361362781286" lon="12.47649634997375"><ele>9.0</ele><time>2026-03-22T14:39:54.992Z</time></trkpt><trkpt lat="44.11561494435731" lon="12.476251075735398"><ele>9.0</ele><time>2026-03-22T14:39:55.992Z</time></trkpt><trkpt lat="44.11587944211212" lon="12.476011237495614"><ele>8.5</ele><time>2026-03-22T14:39:56.991Z</time></trkpt><trkpt lat="44.116151594601234" lon="12.475776661802533"><ele>8.0</ele><time>2026-03-22T14:39:57.991Z</time></trkpt><trkpt lat="44.11642484279659" lon="12.475554833304436"><ele>9.0</ele><time>2026-03-22T14:39:58.991Z</time></trkpt><trkpt lat="44.11669397003226" lon="12.475347289078112"><ele>10.0</ele><time>2026-03-22T14:39:59.991Z</time></trkpt><trkpt lat="44.116971548711305" lon="12.475157704341413"><ele>10.0</ele><time>2026-03-22T14:40:00.991Z</time></trkpt><trkpt lat="44.11725734634976" lon="12.47497696627385"><ele>10.0</ele><time>2026-03-22T14:40:01.991Z</time></trkpt><trkpt lat="44.117556829003014" lon="12.474810183105337"><ele>9.5</ele><time>2026-03-22T14:40:02.992Z</time></trkpt><trkpt lat="44.11785922900461" lon="12.474651988768303"><ele>9.0</ele><time>2026-03-22T14:40:03.991Z</time></trkpt><trkpt lat="44.11815650527099" lon="12.474494032303983"><ele>9.0</ele><time>2026-03-22T14:40:04.991Z</time></trkpt><trkpt lat="44.11844569563735" lon="12.474340055454341"><ele>9.0</ele><time>2026-03-22T14:40:05.991Z</time></trkpt><trkpt lat="44.11873352901638" lon="12.474185411341738"><ele>9.0</ele><time>2026-03-22T14:40:06.991Z</time></trkpt><trkpt lat="44.11902185464671" lon="12.474028347649432"><ele>9.0</ele><time>2026-03-22T14:40:07.991Z</time></trkpt><trkpt lat="44.119310138999666" lon="12.47387512574698"><ele>9.0</ele><time>2026-03-22T14:40:08.991Z</time></trkpt><trkpt lat="44.11960756836302" lon="12.473720221437274"><ele>9.0</ele><time>2026-03-22T14:40:09.991Z</time></trkpt><trkpt lat="44.11991027154392" lon="12.473560611562593"><ele>8.0</ele><time>2026-03-22T14:40:10.991Z</time></trkpt><trkpt lat="44.12021719253454" lon="12.473402649339636"><ele>7.0</ele><time>2026-03-22T14:40:11.991Z</time></trkpt><trkpt lat="44.12052428743846" lon="12.473243877821771"><ele>7.0</ele><time>2026-03-22T14:40:12.991Z</time></trkpt><trkpt lat="44.12082424450283" lon="12.473087268643074"><ele>7.0</ele><time>2026-03-22T14:40:13.991Z</time></trkpt><trkpt lat="44.1211207391825" lon="12.472927489748228"><ele>7.0</ele><time>2026-03-22T14:40:14.991Z</time></trkpt><trkpt lat="44.12141702497679" lon="12.472769485201136"><ele>7.0</ele><time>2026-03-22T14:40:15.991Z</time></trkpt><trkpt lat="44.12171589132111" lon="12.472609744731441"><ele>7.5</ele><time>2026-03-22T14:40:16.991Z</time></trkpt><trkpt lat="44.1220137599286" lon="12.472451366272733"><ele>8.0</ele><time>2026-03-22T14:40:17.991Z</time></trkpt><trkpt lat="44.12230719706714" lon="12.47229792833181"><ele>8.0</ele><time>2026-03-22T14:40:18.991Z</time></trkpt><trkpt lat="44.122589154589285" lon="12.472149122563325"><ele>8.0</ele><time>2026-03-22T14:40:19.991Z</time></trkpt><trkpt lat="44.1228664501805" lon="12.472008162207011"><ele>7.5</ele><time>2026-03-22T14:40:20.991Z</time></trkpt><trkpt lat="44.12313921323493" lon="12.471860297991581"><ele>7.0</ele><time>2026-03-22T14:40:21.991Z</time></trkpt><trkpt lat="44.123416160093534" lon="12.471715448287686"><ele>6.0</ele><time>2026-03-22T14:40:22.991Z</time></trkpt><trkpt lat="44.123693823567244" lon="12.471568945799849"><ele>5.0</ele><time>2026-03-22T14:40:23.991Z</time></trkpt><trkpt lat="44.1239718246941" lon="12.47142085414809"><ele>6.5</ele><time>2026-03-22T14:40:24.991Z</time></trkpt><trkpt lat="44.12425247157565" lon="12.471268879211323"><ele>8.0</ele><time>2026-03-22T14:40:25.991Z</time></trkpt><trkpt lat="44.12453669589022" lon="12.47111806362595"><ele>8.0</ele><time>2026-03-22T14:40:26.991Z</time></trkpt><trkpt lat="44.12481888673541" lon="12.470967319882202"><ele>8.0</ele><time>2026-03-22T14:40:27.991Z</time></trkpt><trkpt lat="44.12509787852231" lon="12.470823904668508"><ele>7.5</ele><time>2026-03-22T14:40:28.991Z</time></trkpt><trkpt lat="44.125363451107816" lon="12.470679886324396"><ele>7.0</ele><time>2026-03-22T14:40:29.991Z</time></trkpt><trkpt lat="44.12561779620756" lon="12.470544206778614"><ele>6.0</ele><time>2026-03-22T14:40:30.991Z</time></trkpt><trkpt lat="44.12586940763494" lon="12.470403725552654"><ele>5.0</ele><time>2026-03-22T14:40:31.991Z</time></trkpt><trkpt lat="44.1261250834483" lon="12.470262394890554"><ele>5.0</ele><time>2026-03-22T14:40:32.991Z</time></trkpt><trkpt lat="44.126383346464884" lon="12.470118215725014"><ele>5.0</ele><time>2026-03-22T14:40:33.991Z</time></trkpt><trkpt lat="44.1266381745303" lon="12.469972612633143"><ele>5.5</ele><time>2026-03-22T14:40:34.991Z</time></trkpt><trkpt lat="44.12689206837857" lon="12.46982020280793"><ele>6.0</ele><time>2026-03-22T14:40:35.991Z</time></trkpt><trkpt lat="44.12714588486212" lon="12.469664843872682"><ele>6.5</ele><time>2026-03-22T14:40:36.991Z</time></trkpt><trkpt lat="44.12739433316335" lon="12.469500640586437"><ele>7.0</ele><time>2026-03-22T14:40:37.991Z</time></trkpt><trkpt lat="44.12763899348947" lon="12.469327226527557"><ele>7.0</ele><time>2026-03-22T14:40:38.991Z</time></trkpt><trkpt lat="44.12787924867452" lon="12.46915639811255"><ele>7.0</ele><time>2026-03-22T14:40:39.991Z</time></trkpt><trkpt lat="44.12811674565899" lon="12.468978258745718"><ele>6.5</ele><time>2026-03-22T14:40:40.991Z</time></trkpt><trkpt lat="44.12835106089991" lon="12.468790127780725"><ele>6.0</ele><time>2026-03-22T14:40:41.991Z</time></trkpt><trkpt lat="44.1285868333822" lon="12.468600073055176"><ele>5.5</ele><time>2026-03-22T14:40:42.991Z</time></trkpt><trkpt lat="44.12882568039667" lon="12.46840627898356"><ele>5.0</ele><time>2026-03-22T14:40:43.991Z</time></trkpt><trkpt lat="44.129067539270125" lon="12.468215529010513"><ele>5.0</ele><time>2026-03-22T14:40:44.991Z</time></trkpt><trkpt lat="44.12930107182947" lon="12.468028197226745"><ele>5.0</ele><time>2026-03-22T14:40:45.991Z</time></trkpt><trkpt lat="44.12953048007644" lon="12.467833404169133"><ele>5.0</ele><time>2026-03-22T14:40:46.991Z</time></trkpt><trkpt lat="44.12976549053638" lon="12.467645130130155"><ele>5.0</ele><time>2026-03-22T14:40:47.991Z</time></trkpt><trkpt lat="44.130000808661805" lon="12.467455908504162"><ele>4.5</ele><time>2026-03-22T14:40:48.991Z</time></trkpt><trkpt lat="44.13023864706467" lon="12.467261594695435"><ele>4.0</ele><time>2026-03-22T14:40:49.991Z</time></trkpt><trkpt lat="44.13048262038162" lon="12.467061345340184"><ele>3.0</ele><time>2026-03-22T14:40:50.991Z</time></trkpt><trkpt lat="44.13073523176944" lon="12.46685143779796"><ele>2.0</ele><time>2026-03-22T14:40:51.991Z</time></trkpt><trkpt lat="44.13099172203283" lon="12.466634992075933"><ele>2.0</ele><time>2026-03-22T14:40:52.991Z</time></trkpt><trkpt lat="44.13125565719365" lon="12.466416656153504"><ele>2.0</ele><time>2026-03-22T14:40:53.991Z</time></trkpt><trkpt lat="44.13152322173588" lon="12.466196222426353"><ele>2.5</ele><time>2026-03-22T14:40:54.991Z</time></trkpt><trkpt lat="44.13179343189871" lon="12.4659734276116"><ele>3.0</ele><time>2026-03-22T14:40:55.991Z</time></trkpt><trkpt lat="44.13206185012305" lon="12.465758980178247"><ele>3.0</ele><time>2026-03-22T14:40:56.991Z</time></trkpt><trkpt lat="44.13231958716979" lon="12.465551340567524"><ele>3.0</ele><time>2026-03-22T14:40:57.991Z</time></trkpt><trkpt lat="44.13257186409962" lon="12.465341026260909"><ele>3.0</ele><time>2026-03-22T14:40:58.991Z</time></trkpt><trkpt lat="44.13282878585689" lon="12.465126351943933"><ele>3.0</ele><time>2026-03-22T14:40:59.991Z</time></trkpt><trkpt lat="44.13309993125227" lon="12.464902949795306"><ele>2.5</ele><time>2026-03-22T14:41:00.991Z</time></trkpt><trkpt lat="44.13337276340361" lon="12.464676675141252"><ele>2.0</ele><time>2026-03-22T14:41:01.991Z</time></trkpt><trkpt lat="44.13365961610281" lon="12.464442531206883"><ele>2.0</ele><time>2026-03-22T14:41:02.991Z</time></trkpt><trkpt lat="44.13394077435113" lon="12.46421744669984"><ele>2.0</ele><time>2026-03-22T14:41:03.991Z</time></trkpt><trkpt lat="44.134205360043566" lon="12.463999237443726"><ele>2.0</ele><time>2026-03-22T14:41:04.991Z</time></trkpt><trkpt lat="44.1344652696229" lon="12.46378543394301"><ele>2.0</ele><time>2026-03-22T14:41:05.991Z</time></trkpt><trkpt lat="44.13473341823987" lon="12.463567829125154"><ele>0.5</ele><time>2026-03-22T14:41:06.991Z</time></trkpt><trkpt lat="44.1349979360639" lon="12.463351121214483"><ele>-1.0</ele><time>2026-03-22T14:41:07.991Z</time></trkpt><trkpt lat="44.13525898945536" lon="12.463138263171215"><ele>-0.5</ele><time>2026-03-22T14:41:08.991Z</time></trkpt><trkpt lat="44.135514474899026" lon="12.46292798279764"><ele>0.0</ele><time>2026-03-22T14:41:09.991Z</time></trkpt><trkpt lat="44.13577664580169" lon="12.462717542598936"><ele>0.0</ele><time>2026-03-22T14:41:10.991Z</time></trkpt><trkpt lat="44.136046873790946" lon="12.462495579118226"><ele>0.0</ele><time>2026-03-22T14:41:11.991Z</time></trkpt><trkpt lat="44.136311283971196" lon="12.462277434720805"><ele>0.0</ele><time>2026-03-22T14:41:12.991Z</time></trkpt><trkpt lat="44.13654102685551" lon="12.462090962198973"><ele>0.0</ele><time>2026-03-22T14:41:13.991Z</time></trkpt><trkpt lat="44.1367385190746" lon="12.461933194318462"><ele>0.3333333333333333</ele><time>2026-03-22T14:41:14.991Z</time></trkpt><trkpt lat="44.13691787813337" lon="12.461778109101976"><ele>0.6666666666666666</ele><time>2026-03-22T14:41:15.991Z</time></trkpt><trkpt lat="44.137104401580565" lon="12.461624307386861"><ele>1.0</ele><time>2026-03-22T14:41:16.991Z</time></trkpt><trkpt lat="44.13729618631791" lon="12.461468640567903"><ele>0.5</ele><time>2026-03-22T14:41:17.991Z</time></trkpt><trkpt lat="44.13749489642396" lon="12.461307390738398"><ele>0.0</ele><time>2026-03-22T14:41:18.991Z</time></trkpt><trkpt lat="44.13770062073386" lon="12.461139041116715"><ele>-0.5</ele><time>2026-03-22T14:41:19.991Z</time></trkpt><trkpt lat="44.13791108366221" lon="12.460966077619286"><ele>-1.0</ele><time>2026-03-22T14:41:20.991Z</time></trkpt><trkpt lat="44.13812208825488" lon="12.460789187175628"><ele>-0.5</ele><time>2026-03-22T14:41:21.991Z</time></trkpt><trkpt lat="44.138332748446125" lon="12.460614831117887"><ele>0.0</ele><time>2026-03-22T14:41:22.991Z</time></trkpt><trkpt lat="44.13854276143435" lon="12.460444199248153"><ele>0.0</ele><time>2026-03-22T14:41:23.991Z</time></trkpt><trkpt lat="44.13875244766125" lon="12.460275877759727"><ele>0.0</ele><time>2026-03-22T14:41:24.991Z</time></trkpt><trkpt lat="44.138958922196416" lon="12.460107727776121"><ele>0.5</ele><time>2026-03-22T14:41:25.991Z</time></trkpt><trkpt lat="44.13916459812586" lon="12.459934918327509"><ele>1.0</ele><time>2026-03-22T14:41:26.991Z</time></trkpt><trkpt lat="44.139370187022166" lon="12.45976766658061"><ele>2.0</ele><time>2026-03-22T14:41:27.991Z</time></trkpt><trkpt lat="44.1395741165119" lon="12.459600809331798"><ele>3.0</ele><time>2026-03-22T14:41:28.991Z</time></trkpt><trkpt lat="44.139778791650826" lon="12.459434999812114"><ele>3.0</ele><time>2026-03-22T14:41:29.991Z</time></trkpt><trkpt lat="44.13998308242477" lon="12.45926571771802"><ele>3.0</ele><time>2026-03-22T14:41:30.991Z</time></trkpt><trkpt lat="44.14018684739821" lon="12.459100194430706"><ele>3.0</ele><time>2026-03-22T14:41:31.991Z</time></trkpt><trkpt lat="44.140387134154004" lon="12.458932406471042"><ele>3.0</ele><time>2026-03-22T14:41:32.991Z</time></trkpt><trkpt lat="44.140587903445976" lon="12.458766950251938"><ele>1.5</ele><time>2026-03-22T14:41:33.991Z</time></trkpt><trkpt lat="44.140791478375505" lon="12.458604083874755"><ele>0.0</ele><time>2026-03-22T14:41:34.991Z</time></trkpt><trkpt lat="44.1409921624375" lon="12.458441718079955"><ele>0.0</ele><time>2026-03-22T14:41:35.991Z</time></trkpt><trkpt lat="44.14119274056122" lon="12.458277118781211"><ele>0.0</ele><time>2026-03-22T14:41:36.991Z</time></trkpt><trkpt lat="44.141396778542735" lon="12.458113653587482"><ele>0.5</ele><time>2026-03-22T14:41:37.991Z</time></trkpt><trkpt lat="44.141595562180406" lon="12.457946534002218"><ele>1.0</ele><time>2026-03-22T14:41:38.991Z</time></trkpt><trkpt lat="44.14180240703004" lon="12.4577789119038"><ele>1.0</ele><time>2026-03-22T14:41:39.991Z</time></trkpt><trkpt lat="44.142008639473154" lon="12.4576046179203"><ele>1.0</ele><time>2026-03-22T14:41:40.991Z</time></trkpt><trkpt lat="44.14221831247703" lon="12.457424039541873"><ele>1.0</ele><time>2026-03-22T14:41:41.991Z</time></trkpt><trkpt lat="44.14243040716906" lon="12.457240935751058"><ele>1.0</ele><time>2026-03-22T14:41:42.991Z</time></trkpt><trkpt lat="44.14263740819243" lon="12.457040917173988"><ele>0.5</ele><time>2026-03-22T14:41:43.991Z</time></trkpt><trkpt lat="44.142848894705494" lon="12.456823567921049"><ele>0.0</ele><time>2026-03-22T14:41:44.991Z</time></trkpt><trkpt lat="44.143055270326556" lon="12.456596736209672"><ele>0.0</ele><time>2026-03-22T14:41:45.991Z</time></trkpt><trkpt lat="44.14325693921855" lon="12.456359150594583"><ele>0.0</ele><time>2026-03-22T14:41:46.991Z</time></trkpt><trkpt lat="44.143456519828426" lon="12.456109744988778"><ele>0.5</ele><time>2026-03-22T14:41:47.991Z</time></trkpt><trkpt lat="44.143655994771784" lon="12.455844977271715"><ele>1.0</ele><time>2026-03-22T14:41:48.991Z</time></trkpt><trkpt lat="44.14385005981928" lon="12.45556965714585"><ele>1.5</ele><time>2026-03-22T14:41:49.991Z</time></trkpt><trkpt lat="44.144034301203135" lon="12.455274612445907"><ele>2.0</ele><time>2026-03-22T14:41:50.991Z</time></trkpt><trkpt lat="44.144211611284675" lon="12.454980480863673"><ele>1.0</ele><time>2026-03-22T14:41:51.991Z</time></trkpt><trkpt lat="44.14438241732747" lon="12.454679465029585"><ele>0.0</ele><time>2026-03-22T14:41:52.991Z</time></trkpt><trkpt lat="44.144547334798354" lon="12.454369679256853"><ele>0.0</ele><time>2026-03-22T14:41:53.991Z</time></trkpt><trkpt lat="44.144707735988185" lon="12.454059469922957"><ele>0.0</ele><time>2026-03-22T14:41:54.991Z</time></trkpt><trkpt lat="44.14486734950365" lon="12.453752917499129"><ele>1.0</ele><time>2026-03-22T14:41:55.991Z</time></trkpt><trkpt lat="44.145022244667004" lon="12.453450721707238"><ele>2.0</ele><time>2026-03-22T14:41:56.99Z</time></trkpt><trkpt lat="44.14517648551925" lon="12.453144137447055"><ele>1.5</ele><time>2026-03-22T14:41:57.991Z</time></trkpt><trkpt lat="44.145332900529965" lon="12.452834686732075"><ele>1.0</ele><time>2026-03-22T14:41:58.991Z</time></trkpt><trkpt lat="44.145493844323326" lon="12.452522302141695"><ele>1.0</ele><time>2026-03-22T14:41:59.991Z</time></trkpt><trkpt lat="44.14566002328131" lon="12.452207795167864"><ele>1.0</ele><time>2026-03-22T14:42:00.991Z</time></trkpt><trkpt lat="44.1458168991063" lon="12.45191042714356"><ele>1.5</ele><time>2026-03-22T14:42:01.991Z</time></trkpt><trkpt lat="44.145969542987444" lon="12.451616330339732"><ele>2.0</ele><time>2026-03-22T14:42:02.991Z</time></trkpt><trkpt lat="44.14611997305003" lon="12.451319514398772"><ele>0.5</ele><time>2026-03-22T14:42:03.991Z</time></trkpt><trkpt lat="44.146275437698726" lon="12.451016266951436"><ele>-1.0</ele><time>2026-03-22T14:42:04.991Z</time></trkpt><trkpt lat="44.14643226921305" lon="12.45071053004196"><ele>0.5</ele><time>2026-03-22T14:42:05.99Z</time></trkpt><trkpt lat="44.14659008978661" lon="12.450404325307804"><ele>2.0</ele><time>2026-03-22T14:42:06.99Z</time></trkpt><trkpt lat="44.14674759674474" lon="12.450099662460092"><ele>2.0</ele><time>2026-03-22T14:42:07.99Z</time></trkpt><trkpt lat="44.14690571343352" lon="12.449794184711592"><ele>2.0</ele><time>2026-03-22T14:42:08.99Z</time></trkpt><trkpt lat="44.14706295163655" lon="12.44948674784947"><ele>2.0</ele><time>2026-03-22T14:42:09.99Z</time></trkpt><trkpt lat="44.14722399499978" lon="12.449174975353294"><ele>2.0</ele><time>2026-03-22T14:42:10.99Z</time></trkpt><trkpt lat="44.14738305767225" lon="12.448858623067549"><ele>0.5</ele><time>2026-03-22T14:42:11.99Z</time></trkpt><trkpt lat="44.14754492723083" lon="12.448547295380406"><ele>-1.0</ele><time>2026-03-22T14:42:12.99Z</time></trkpt><trkpt lat="44.14770852398201" lon="12.448228732674144"><ele>-1.5</ele><time>2026-03-22T14:42:13.99Z</time></trkpt><trkpt lat="44.147873458988144" lon="12.447906400898894"><ele>-2.0</ele><time>2026-03-22T14:42:14.99Z</time></trkpt><trkpt lat="44.148034393823266" lon="12.447585506635358"><ele>-2.0</ele><time>2026-03-22T14:42:15.99Z</time></trkpt><trkpt lat="44.14820306417546" lon="12.447266766468825"><ele>-2.0</ele><time>2026-03-22T14:42:16.99Z</time></trkpt><trkpt lat="44.14836698844372" lon="12.446950899813432"><ele>-1.5</ele><time>2026-03-22T14:42:17.99Z</time></trkpt><trkpt lat="44.14853487986734" lon="12.446631458707222"><ele>-1.0</ele><time>2026-03-22T14:42:18.99Z</time></trkpt><trkpt lat="44.148697331951546" lon="12.446312670880781"><ele>-1.0</ele><time>2026-03-22T14:42:19.99Z</time></trkpt><trkpt lat="44.14886681080745" lon="12.445993125215468"><ele>-1.0</ele><time>2026-03-22T14:42:20.99Z</time></trkpt><trkpt lat="44.149039898244276" lon="12.44567789399937"><ele>0.0</ele><time>2026-03-22T14:42:21.99Z</time></trkpt><trkpt lat="44.14921703808895" lon="12.445367338595082"><ele>1.0</ele><time>2026-03-22T14:42:22.99Z</time></trkpt><trkpt lat="44.14940655165767" lon="12.445069022563386"><ele>1.0</ele><time>2026-03-22T14:42:23.99Z</time></trkpt><trkpt lat="44.14961050988539" lon="12.444777760900555"><ele>1.0</ele><time>2026-03-22T14:42:24.99Z</time></trkpt><trkpt lat="44.149821563780165" lon="12.444500230341777"><ele>1.0</ele><time>2026-03-22T14:42:25.99Z</time></trkpt><trkpt lat="44.150035243646414" lon="12.444232980672853"><ele>1.0</ele><time>2026-03-22T14:42:26.99Z</time></trkpt><trkpt lat="44.15025331701771" lon="12.44397531313258"><ele>0.5</ele><time>2026-03-22T14:42:27.99Z</time></trkpt><trkpt lat="44.15047796705448" lon="12.443726600337463"><ele>0.0</ele><time>2026-03-22T14:42:28.99Z</time></trkpt><trkpt lat="44.15071233498058" lon="12.44348947510067"><ele>-2.5</ele><time>2026-03-22T14:42:29.99Z</time></trkpt><trkpt lat="44.150947716921486" lon="12.443257151590077"><ele>-5.0</ele><time>2026-03-22T14:42:30.99Z</time></trkpt><trkpt lat="44.15119224236884" lon="12.443051433984493"><ele>-4.5</ele><time>2026-03-22T14:42:31.99Z</time></trkpt><trkpt lat="44.15144231762916" lon="12.44284930451819"><ele>-4.0</ele><time>2026-03-22T14:42:32.99Z</time></trkpt><trkpt lat="44.15169676605614" lon="12.442648894083122"><ele>-3.0</ele><time>2026-03-22T14:42:33.99Z</time></trkpt><trkpt lat="44.1519527476889" lon="12.442446483804734"><ele>-2.0</ele><time>2026-03-22T14:42:34.99Z</time></trkpt><trkpt lat="44.15220546734078" lon="12.442254489138755"><ele>-2.0</ele><time>2026-03-22T14:42:35.99Z</time></trkpt><trkpt lat="44.15245669966812" lon="12.44206767391213"><ele>-2.0</ele><time>2026-03-22T14:42:36.99Z</time></trkpt><trkpt lat="44.15270651415809" lon="12.441879519052472"><ele>-2.0</ele><time>2026-03-22T14:42:37.99Z</time></trkpt><trkpt lat="44.15295754235219" lon="12.441688315987982"><ele>-2.0</ele><time>2026-03-22T14:42:38.99Z</time></trkpt><trkpt lat="44.15320894397222" lon="12.441496306899323"><ele>-2.0</ele><time>2026-03-22T14:42:39.99Z</time></trkpt><trkpt lat="44.15346140212983" lon="12.441302548076944"><ele>-2.0</ele><time>2026-03-22T14:42:40.99Z</time></trkpt><trkpt lat="44.153713142776745" lon="12.44110510083634"><ele>-2.5</ele><time>2026-03-22T14:42:41.99Z</time></trkpt><trkpt lat="44.153963286895426" lon="12.44091171052276"><ele>-3.0</ele><time>2026-03-22T14:42:42.99Z</time></trkpt><trkpt lat="44.15422103976592" lon="12.440709877502675"><ele>-3.0</ele><time>2026-03-22T14:42:43.99Z</time></trkpt><trkpt lat="44.15447720794498" lon="12.440514194859123"><ele>-3.0</ele><time>2026-03-22T14:42:44.99Z</time></trkpt><trkpt lat="44.154733298236444" lon="12.44032011598683"><ele>-3.0</ele><time>2026-03-22T14:42:45.99Z</time></trkpt><trkpt lat="44.15498667499879" lon="12.44012745805441"><ele>-3.0</ele><time>2026-03-22T14:42:46.99Z</time></trkpt><trkpt lat="44.15523929175398" lon="12.439934146565543"><ele>-3.0</ele><time>2026-03-22T14:42:47.99Z</time></trkpt><trkpt lat="44.15549131029808" lon="12.439742342487618"><ele>-3.0</ele><time>2026-03-22T14:42:48.99Z</time></trkpt><trkpt lat="44.15573867554544" lon="12.439555008949279"><ele>-3.0</ele><time>2026-03-22T14:42:49.99Z</time></trkpt><trkpt lat="44.15598251902716" lon="12.439367738572429"><ele>-3.0</ele><time>2026-03-22T14:42:50.99Z</time></trkpt><trkpt lat="44.15622214233233" lon="12.439179156383101"><ele>-3.0</ele><time>2026-03-22T14:42:51.99Z</time></trkpt><trkpt lat="44.156458369578196" lon="12.43899909449118"><ele>-3.0</ele><time>2026-03-22T14:42:52.99Z</time></trkpt><trkpt lat="44.15669480043134" lon="12.438815743646941"><ele>-1.0</ele><time>2026-03-22T14:42:53.99Z</time></trkpt><trkpt lat="44.15692141259142" lon="12.438640015402246"><ele>1.0</ele><time>2026-03-22T14:42:54.99Z</time></trkpt><trkpt lat="44.1571374808466" lon="12.438459984082263"><ele>1.0</ele><time>2026-03-22T14:42:55.99Z</time></trkpt><trkpt lat="44.15735610225318" lon="12.438276401257475"><ele>1.0</ele><time>2026-03-22T14:42:56.99Z</time></trkpt><trkpt lat="44.157573517537706" lon="12.43808185733686"><ele>1.5</ele><time>2026-03-22T14:42:57.99Z</time></trkpt><trkpt lat="44.15779275688524" lon="12.437883475667975"><ele>2.0</ele><time>2026-03-22T14:42:58.99Z</time></trkpt><trkpt lat="44.15800607600124" lon="12.437674753726853"><ele>1.5</ele><time>2026-03-22T14:42:59.99Z</time></trkpt><trkpt lat="44.1582131410505" lon="12.437461263883685"><ele>1.0</ele><time>2026-03-22T14:43:00.99Z</time></trkpt><trkpt lat="44.15841704213337" lon="12.437234940820767"><ele>1.0</ele><time>2026-03-22T14:43:01.99Z</time></trkpt><trkpt lat="44.15861372881521" lon="12.437001743182657"><ele>1.0</ele><time>2026-03-22T14:43:02.99Z</time></trkpt><trkpt lat="44.158807457185986" lon="12.436764424331162"><ele>1.0</ele><time>2026-03-22T14:43:03.99Z</time></trkpt><trkpt lat="44.158997532271584" lon="12.436515922406905"><ele>1.0</ele><time>2026-03-22T14:43:04.99Z</time></trkpt><trkpt lat="44.15918413722061" lon="12.436265633220822"><ele>1.5</ele><time>2026-03-22T14:43:05.99Z</time></trkpt><trkpt lat="44.15935873501002" lon="12.436019944253985"><ele>2.0</ele><time>2026-03-22T14:43:06.99Z</time></trkpt><trkpt lat="44.159525126788864" lon="12.43575893010569"><ele>2.0</ele><time>2026-03-22T14:43:07.99Z</time></trkpt><trkpt lat="44.15969726223213" lon="12.43548497288474"><ele>2.0</ele><time>2026-03-22T14:43:08.99Z</time></trkpt><trkpt lat="44.15987404515016" lon="12.43519602341816"><ele>1.5</ele><time>2026-03-22T14:43:09.99Z</time></trkpt><trkpt lat="44.16005249402673" lon="12.434894319852535"><ele>1.0</ele><time>2026-03-22T14:43:10.99Z</time></trkpt><trkpt lat="44.16022858493726" lon="12.43458194508856"><ele>0.0</ele><time>2026-03-22T14:43:11.99Z</time></trkpt><trkpt lat="44.160410211573435" lon="12.434263947851333"><ele>-1.0</ele><time>2026-03-22T14:43:12.99Z</time></trkpt><trkpt lat="44.16059731691803" lon="12.433940089008612"><ele>-1.0</ele><time>2026-03-22T14:43:13.99Z</time></trkpt><trkpt lat="44.16078950086409" lon="12.433610612165923"><ele>-1.0</ele><time>2026-03-22T14:43:14.99Z</time></trkpt><trkpt lat="44.16098658293756" lon="12.433273486897805"><ele>-0.5</ele><time>2026-03-22T14:43:15.99Z</time></trkpt><trkpt lat="44.1611858836551" lon="12.43292862078693"><ele>0.0</ele><time>2026-03-22T14:43:16.99Z</time></trkpt><trkpt lat="44.16138852715932" lon="12.432578212093048"><ele>-0.5</ele><time>2026-03-22T14:43:17.99Z</time></trkpt><trkpt lat="44.161591966889624" lon="12.43222211816121"><ele>-1.0</ele><time>2026-03-22T14:43:18.99Z</time></trkpt><trkpt lat="44.16179544468613" lon="12.431863068564502"><ele>-1.0</ele><time>2026-03-22T14:43:19.99Z</time></trkpt><trkpt lat="44.162005753374025" lon="12.431500795030239"><ele>-1.0</ele><time>2026-03-22T14:43:20.99Z</time></trkpt><trkpt lat="44.16221604567454" lon="12.431142717471733"><ele>-0.5</ele><time>2026-03-22T14:43:21.99Z</time></trkpt><trkpt lat="44.162423159615244" lon="12.43079746428007"><ele>0.0</ele><time>2026-03-22T14:43:22.99Z</time></trkpt><trkpt lat="44.16262568452993" lon="12.430474102942027"><ele>0.5</ele><time>2026-03-22T14:43:23.99Z</time></trkpt><trkpt lat="44.16283127123885" lon="12.430166213397342"><ele>1.0</ele><time>2026-03-22T14:43:24.99Z</time></trkpt><trkpt lat="44.16303761304831" lon="12.429866405225676"><ele>1.5</ele><time>2026-03-22T14:43:25.99Z</time></trkpt><trkpt lat="44.16324580284263" lon="12.429576896971545"><ele>2.0</ele><time>2026-03-22T14:43:26.99Z</time></trkpt><trkpt lat="44.163458697014086" lon="12.429293437955048"><ele>2.0</ele><time>2026-03-22T14:43:27.99Z</time></trkpt><trkpt lat="44.16368256251824" lon="12.42900901061877"><ele>2.0</ele><time>2026-03-22T14:43:28.99Z</time></trkpt><trkpt lat="44.16391901287346" lon="12.428728240325183"><ele>2.0</ele><time>2026-03-22T14:43:29.99Z</time></trkpt><trkpt lat="44.164163709080064" lon="12.428451335434302"><ele>2.0</ele><time>2026-03-22T14:43:30.99Z</time></trkpt><trkpt lat="44.16440824764332" lon="12.428175050974417"><ele>1.5</ele><time>2026-03-22T14:43:31.99Z</time></trkpt><trkpt lat="44.164644483876785" lon="12.427927003808982"><ele>1.0</ele><time>2026-03-22T14:43:32.99Z</time></trkpt><trkpt lat="44.16486063707746" lon="12.42769242634984"><ele>1.5</ele><time>2026-03-22T14:43:33.99Z</time></trkpt><trkpt lat="44.16506640002746" lon="12.427476623542209"><ele>2.0</ele><time>2026-03-22T14:43:34.99Z</time></trkpt><trkpt lat="44.16526077889595" lon="12.427259126853475"><ele>0.5</ele><time>2026-03-22T14:43:35.99Z</time></trkpt><trkpt lat="44.165467013009206" lon="12.4270409723791"><ele>-1.0</ele><time>2026-03-22T14:43:36.99Z</time></trkpt><trkpt lat="44.16568075293104" lon="12.42681902985231"><ele>-0.5</ele><time>2026-03-22T14:43:37.99Z</time></trkpt><trkpt lat="44.165898911257415" lon="12.42659114182092"><ele>0.0</ele><time>2026-03-22T14:43:38.99Z</time></trkpt><trkpt lat="44.16612077016533" lon="12.426349285113103"><ele>0.5</ele><time>2026-03-22T14:43:39.99Z</time></trkpt><trkpt lat="44.16635226200463" lon="12.426102050185884"><ele>1.0</ele><time>2026-03-22T14:43:40.99Z</time></trkpt><trkpt lat="44.16658846409659" lon="12.425850583340724"><ele>1.0</ele><time>2026-03-22T14:43:41.99Z</time></trkpt><trkpt lat="44.16683015721173" lon="12.425594997475143"><ele>1.0</ele><time>2026-03-22T14:43:42.99Z</time></trkpt><trkpt lat="44.16707601139059" lon="12.425336638309622"><ele>1.0</ele><time>2026-03-22T14:43:43.99Z</time></trkpt><trkpt lat="44.167321956189994" lon="12.425073657524436"><ele>1.0</ele><time>2026-03-22T14:43:44.99Z</time></trkpt><trkpt lat="44.16757338822192" lon="12.42480810927342"><ele>1.0</ele><time>2026-03-22T14:43:45.99Z</time></trkpt><trkpt lat="44.167830547157315" lon="12.424535545628796"><ele>1.0</ele><time>2026-03-22T14:43:46.99Z</time></trkpt><trkpt lat="44.16809055865565" lon="12.424258794763654"><ele>1.5</ele><time>2026-03-22T14:43:47.99Z</time></trkpt><trkpt lat="44.16834469117033" lon="12.423987530368299"><ele>2.0</ele><time>2026-03-22T14:43:48.99Z</time></trkpt><trkpt lat="44.16858051447153" lon="12.423742446408175"><ele>2.0</ele><time>2026-03-22T14:43:49.99Z</time></trkpt><trkpt lat="44.168804192785124" lon="12.423505817703695"><ele>2.0</ele><time>2026-03-22T14:43:50.99Z</time></trkpt><trkpt lat="44.169021678741224" lon="12.423276580551077"><ele>2.0</ele><time>2026-03-22T14:43:51.99Z</time></trkpt><trkpt lat="44.16924379781001" lon="12.423036592280313"><ele>2.0</ele><time>2026-03-22T14:43:52.99Z</time></trkpt><trkpt lat="44.169473057768286" lon="12.422785038632613"><ele>1.5</ele><time>2026-03-22T14:43:53.99Z</time></trkpt><trkpt lat="44.16971512966359" lon="12.422524878497724"><ele>1.0</ele><time>2026-03-22T14:43:54.99Z</time></trkpt><trkpt lat="44.16995250612134" lon="12.422266465203435"><ele>0.0</ele><time>2026-03-22T14:43:55.99Z</time></trkpt><trkpt lat="44.17019215860088" lon="12.422014630795484"><ele>-1.0</ele><time>2026-03-22T14:43:56.99Z</time></trkpt><trkpt lat="44.17043141952609" lon="12.421762290928614"><ele>-1.0</ele><time>2026-03-22T14:43:57.99Z</time></trkpt><trkpt lat="44.17066505439839" lon="12.42151523601382"><ele>-1.0</ele><time>2026-03-22T14:43:58.99Z</time></trkpt><trkpt lat="44.170885681133804" lon="12.421279023687642"><ele>-1.0</ele><time>2026-03-22T14:43:59.99Z</time></trkpt><trkpt lat="44.17109993154323" lon="12.421049116987023"><ele>-1.0</ele><time>2026-03-22T14:44:00.99Z</time></trkpt><trkpt lat="44.17131486516673" lon="12.42081468988023"><ele>-1.0</ele><time>2026-03-22T14:44:01.99Z</time></trkpt><trkpt lat="44.171543275513976" lon="12.420570688508171"><ele>-1.0</ele><time>2026-03-22T14:44:02.99Z</time></trkpt><trkpt lat="44.17178182771037" lon="12.420328798099764"><ele>-1.0</ele><time>2026-03-22T14:44:03.99Z</time></trkpt><trkpt lat="44.172028902332684" lon="12.420073713428124"><ele>-1.0</ele><time>2026-03-22T14:44:04.99Z</time></trkpt><trkpt lat="44.17227905234504" lon="12.419813144102829"><ele>-0.5</ele><time>2026-03-22T14:44:05.99Z</time></trkpt><trkpt lat="44.17252903459522" lon="12.41954631426761"><ele>0.0</ele><time>2026-03-22T14:44:06.99Z</time></trkpt><trkpt lat="44.17278101867996" lon="12.419279418837384"><ele>0.0</ele><time>2026-03-22T14:44:07.99Z</time></trkpt><trkpt lat="44.17303397637196" lon="12.419007420089551"><ele>0.0</ele><time>2026-03-22T14:44:08.99Z</time></trkpt><trkpt lat="44.173293705212956" lon="12.418733168347277"><ele>-0.5</ele><time>2026-03-22T14:44:09.99Z</time></trkpt><trkpt lat="44.17355117752296" lon="12.41845574117052"><ele>-1.0</ele><time>2026-03-22T14:44:10.99Z</time></trkpt><trkpt lat="44.17381159850092" lon="12.418175499181945"><ele>-2.5</ele><time>2026-03-22T14:44:11.99Z</time></trkpt><trkpt lat="44.17407712143373" lon="12.41789410795813"><ele>-4.0</ele><time>2026-03-22T14:44:12.99Z</time></trkpt><trkpt lat="44.17434407494366" lon="12.41761049411583"><ele>-4.0</ele><time>2026-03-22T14:44:13.99Z</time></trkpt><trkpt lat="44.17460849127421" lon="12.417327627297777"><ele>-4.0</ele><time>2026-03-22T14:44:14.991Z</time></trkpt><trkpt lat="44.17487236033656" lon="12.417046995453811"><ele>-3.5</ele><time>2026-03-22T14:44:15.99Z</time></trkpt><trkpt lat="44.17512873878692" lon="12.41677495529876"><ele>-3.0</ele><time>2026-03-22T14:44:16.99Z</time></trkpt><trkpt lat="44.175382679112055" lon="12.416504379710771"><ele>-2.0</ele><time>2026-03-22T14:44:17.99Z</time></trkpt><trkpt lat="44.1756357768212" lon="12.41623537403966"><ele>-1.0</ele><time>2026-03-22T14:44:18.99Z</time></trkpt><trkpt lat="44.17588828144778" lon="12.415967721323476"><ele>-1.0</ele><time>2026-03-22T14:44:19.99Z</time></trkpt><trkpt lat="44.17614175602843" lon="12.415703017076451"><ele>-1.0</ele><time>2026-03-22T14:44:20.99Z</time></trkpt><trkpt lat="44.1763982695593" lon="12.415438154500556"><ele>-1.0</ele><time>2026-03-22T14:44:21.99Z</time></trkpt><trkpt lat="44.17665711921383" lon="12.415178740443375"><ele>-1.0</ele><time>2026-03-22T14:44:22.99Z</time></trkpt><trkpt lat="44.17691533489058" lon="12.414929781969692"><ele>-1.0</ele><time>2026-03-22T14:44:23.99Z</time></trkpt><trkpt lat="44.17715876207973" lon="12.414704956183764"><ele>-1.0</ele><time>2026-03-22T14:44:24.99Z</time></trkpt><trkpt lat="44.17740117208893" lon="12.414477033969863"><ele>-0.5</ele><time>2026-03-22T14:44:25.99Z</time></trkpt><trkpt lat="44.17765181950977" lon="12.414260356914012"><ele>0.0</ele><time>2026-03-22T14:44:26.99Z</time></trkpt><trkpt lat="44.17790603311341" lon="12.414054416602921"><ele>0.0</ele><time>2026-03-22T14:44:27.99Z</time></trkpt><trkpt lat="44.17816473581756" lon="12.41385683252975"><ele>0.0</ele><time>2026-03-22T14:44:28.99Z</time></trkpt><trkpt lat="44.17842756557199" lon="12.413670476167114"><ele>0.0</ele><time>2026-03-22T14:44:29.99Z</time></trkpt><trkpt lat="44.178688383491455" lon="12.413483519921337"><ele>0.0</ele><time>2026-03-22T14:44:30.99Z</time></trkpt><trkpt lat="44.1789555523761" lon="12.413307178360947"><ele>-0.5</ele><time>2026-03-22T14:44:31.99Z</time></trkpt><trkpt lat="44.17922488376999" lon="12.413127392422377"><ele>-1.0</ele><time>2026-03-22T14:44:32.99Z</time></trkpt><trkpt lat="44.17948927163721" lon="12.412946616865748"><ele>-1.5</ele><time>2026-03-22T14:44:33.99Z</time></trkpt><trkpt lat="44.17974859392145" lon="12.412769519879177"><ele>-2.0</ele><time>2026-03-22T14:44:34.99Z</time></trkpt><trkpt lat="44.17999377583787" lon="12.412605071941146"><ele>-2.0</ele><time>2026-03-22T14:44:35.99Z</time></trkpt><trkpt lat="44.18021952794696" lon="12.41245307119548"><ele>-2.0</ele><time>2026-03-22T14:44:36.99Z</time></trkpt><trkpt lat="44.18044945397154" lon="12.412299082380665"><ele>-2.5</ele><time>2026-03-22T14:44:37.99Z</time></trkpt><trkpt lat="44.1806816289443" lon="12.412147552941434"><ele>-3.0</ele><time>2026-03-22T14:44:38.99Z</time></trkpt><trkpt lat="44.180914614832126" lon="12.41199905715116"><ele>-2.0</ele><time>2026-03-22T14:44:39.99Z</time></trkpt><trkpt lat="44.181151393220546" lon="12.41184601903414"><ele>-1.0</ele><time>2026-03-22T14:44:40.99Z</time></trkpt><trkpt lat="44.181394679133405" lon="12.411688298858513"><ele>-1.5</ele><time>2026-03-22T14:44:41.99Z</time></trkpt><trkpt lat="44.181641387717136" lon="12.411523342656627"><ele>-2.0</ele><time>2026-03-22T14:44:42.99Z</time></trkpt><trkpt lat="44.181892139537624" lon="12.41135424521745"><ele>-2.0</ele><time>2026-03-22T14:44:43.99Z</time></trkpt><trkpt lat="44.182146752567334" lon="12.411182019418035"><ele>-2.0</ele><time>2026-03-22T14:44:44.99Z</time></trkpt><trkpt lat="44.18240467706952" lon="12.41100950747383"><ele>-2.0</ele><time>2026-03-22T14:44:45.99Z</time></trkpt><trkpt lat="44.182666802741814" lon="12.410835247907865"><ele>-2.0</ele><time>2026-03-22T14:44:46.99Z</time></trkpt><trkpt lat="44.182928702057" lon="12.410660302613328"><ele>-1.5</ele><time>2026-03-22T14:44:47.99Z</time></trkpt><trkpt lat="44.18319954014485" lon="12.410485914175778"><ele>-1.0</ele><time>2026-03-22T14:44:48.99Z</time></trkpt><trkpt lat="44.18347181826103" lon="12.410309145581474"><ele>-1.0</ele><time>2026-03-22T14:44:49.99Z</time></trkpt><trkpt lat="44.18374356095804" lon="12.410128819975824"><ele>-1.0</ele><time>2026-03-22T14:44:50.99Z</time></trkpt><trkpt lat="44.18401749573905" lon="12.40994863953334"><ele>-1.0</ele><time>2026-03-22T14:44:51.99Z</time></trkpt><trkpt lat="44.18429077140481" lon="12.409764265998676"><ele>-1.0</ele><time>2026-03-22T14:44:52.99Z</time></trkpt><trkpt lat="44.18456519615749" lon="12.4095831384268"><ele>-1.5</ele><time>2026-03-22T14:44:53.99Z</time></trkpt><trkpt lat="44.184840846604516" lon="12.409395488835218"><ele>-2.0</ele><time>2026-03-22T14:44:54.99Z</time></trkpt><trkpt lat="44.185117428538696" lon="12.40920750856553"><ele>-2.0</ele><time>2026-03-22T14:44:55.99Z</time></trkpt><trkpt lat="44.18538896226586" lon="12.409013402395747"><ele>-2.0</ele><time>2026-03-22T14:44:56.99Z</time></trkpt><trkpt lat="44.18565639755187" lon="12.40881044348786"><ele>-1.0</ele><time>2026-03-22T14:44:57.99Z</time></trkpt><trkpt lat="44.18591840029136" lon="12.408595499141814"><ele>0.0</ele><time>2026-03-22T14:44:58.99Z</time></trkpt><trkpt lat="44.1861768577345" lon="12.408364903283433"><ele>0.0</ele><time>2026-03-22T14:44:59.99Z</time></trkpt><trkpt lat="44.18642705474532" lon="12.408122372208998"><ele>0.0</ele><time>2026-03-22T14:45:00.99Z</time></trkpt><trkpt lat="44.18667429542299" lon="12.407871314011517"><ele>1.0</ele><time>2026-03-22T14:45:01.99Z</time></trkpt><trkpt lat="44.18691867365204" lon="12.40760889056915"><ele>2.0</ele><time>2026-03-22T14:45:02.99Z</time></trkpt><trkpt lat="44.18715541058598" lon="12.407349684875923"><ele>2.0</ele><time>2026-03-22T14:45:03.99Z</time></trkpt><trkpt lat="44.18737007682935" lon="12.40710190998311"><ele>2.0</ele><time>2026-03-22T14:45:04.99Z</time></trkpt><trkpt lat="44.18757108685668" lon="12.40685985347904"><ele>2.0</ele><time>2026-03-22T14:45:05.99Z</time></trkpt><trkpt lat="44.187762510740825" lon="12.406616429035363"><ele>2.0</ele><time>2026-03-22T14:45:06.99Z</time></trkpt><trkpt lat="44.18795308595066" lon="12.40634900070458"><ele>2.0</ele><time>2026-03-22T14:45:07.99Z</time></trkpt><trkpt lat="44.18814657569964" lon="12.4060611098522"><ele>2.0</ele><time>2026-03-22T14:45:08.99Z</time></trkpt><trkpt lat="44.18833363076794" lon="12.405765058080778"><ele>2.0</ele><time>2026-03-22T14:45:09.99Z</time></trkpt><trkpt lat="44.18852214727277" lon="12.40545927030075"><ele>2.0</ele><time>2026-03-22T14:45:10.99Z</time></trkpt><trkpt lat="44.188718654608415" lon="12.405141571686503"><ele>2.0</ele><time>2026-03-22T14:45:11.99Z</time></trkpt><trkpt lat="44.18892377014949" lon="12.40482192523612"><ele>2.0</ele><time>2026-03-22T14:45:12.99Z</time></trkpt><trkpt lat="44.18912419760065" lon="12.404499692637476"><ele>2.0</ele><time>2026-03-22T14:45:13.99Z</time></trkpt><trkpt lat="44.18931948461559" lon="12.404173084289672"><ele>2.0</ele><time>2026-03-22T14:45:14.99Z</time></trkpt><trkpt lat="44.189514379270015" lon="12.403846849483159"><ele>2.0</ele><time>2026-03-22T14:45:15.99Z</time></trkpt><trkpt lat="44.18971022844425" lon="12.403521471388768"><ele>2.0</ele><time>2026-03-22T14:45:16.99Z</time></trkpt><trkpt lat="44.189904363661505" lon="12.40318906388229"><ele>1.5</ele><time>2026-03-22T14:45:17.99Z</time></trkpt><trkpt lat="44.19009936910732" lon="12.402869004557331"><ele>1.0</ele><time>2026-03-22T14:45:18.99Z</time></trkpt><trkpt lat="44.19029194124836" lon="12.40254995181935"><ele>1.0</ele><time>2026-03-22T14:45:19.99Z</time></trkpt><trkpt lat="44.19048617640229" lon="12.402230239579785"><ele>1.0</ele><time>2026-03-22T14:45:20.99Z</time></trkpt><trkpt lat="44.19067802936243" lon="12.401920693619033"><ele>1.5</ele><time>2026-03-22T14:45:21.99Z</time></trkpt><trkpt lat="44.19086412423945" lon="12.401612933768225"><ele>2.0</ele><time>2026-03-22T14:45:22.99Z</time></trkpt><trkpt lat="44.191046944131486" lon="12.40131228387054"><ele>1.0</ele><time>2026-03-22T14:45:23.99Z</time></trkpt><trkpt lat="44.19122234579609" lon="12.401024856611047"><ele>0.0</ele><time>2026-03-22T14:45:24.99Z</time></trkpt><trkpt lat="44.191392826930205" lon="12.40074201227957"><ele>0.0</ele><time>2026-03-22T14:45:25.99Z</time></trkpt><trkpt lat="44.19156328203611" lon="12.400468223077167"><ele>0.0</ele><time>2026-03-22T14:45:26.99Z</time></trkpt><trkpt lat="44.19173328459052" lon="12.400194966794162"><ele>0.0</ele><time>2026-03-22T14:45:27.99Z</time></trkpt><trkpt lat="44.191902166357316" lon="12.399925911625282"><ele>0.0</ele><time>2026-03-22T14:45:28.99Z</time></trkpt><trkpt lat="44.192069257960746" lon="12.399661957309279"><ele>0.5</ele><time>2026-03-22T14:45:29.99Z</time></trkpt><trkpt lat="44.19223155847153" lon="12.399399595473538"><ele>1.0</ele><time>2026-03-22T14:45:30.99Z</time></trkpt><trkpt lat="44.19239074254924" lon="12.399140418673161"><ele>1.0</ele><time>2026-03-22T14:45:31.99Z</time></trkpt><trkpt lat="44.19254351541581" lon="12.398894515615192"><ele>1.0</ele><time>2026-03-22T14:45:32.99Z</time></trkpt><trkpt lat="44.192690857723534" lon="12.398655780736538"><ele>1.6666666666666665</ele><time>2026-03-22T14:45:33.99Z</time></trkpt><trkpt lat="44.19283879430328" lon="12.39842416225716"><ele>2.3333333333333335</ele><time>2026-03-22T14:45:34.99Z</time></trkpt><trkpt lat="44.192982865482435" lon="12.398193930565553"><ele>3.0</ele><time>2026-03-22T14:45:35.99Z</time></trkpt><trkpt lat="44.19312060276657" lon="12.397968085732318"><ele>2.0</ele><time>2026-03-22T14:45:36.99Z</time></trkpt><trkpt lat="44.19324955350218" lon="12.397745481507789"><ele>1.0</ele><time>2026-03-22T14:45:37.99Z</time></trkpt><trkpt lat="44.1933791155745" lon="12.397535755311857"><ele>0.0</ele><time>2026-03-22T14:45:38.99Z</time></trkpt><trkpt lat="44.193505376428604" lon="12.397331506955238"><ele>0.3333333333333333</ele><time>2026-03-22T14:45:39.99Z</time></trkpt><trkpt lat="44.19362928844002" lon="12.397131601421167"><ele>0.6666666666666666</ele><time>2026-03-22T14:45:40.99Z</time></trkpt><trkpt lat="44.193756702203515" lon="12.396931998741128"><ele>1.0</ele><time>2026-03-22T14:45:41.99Z</time></trkpt><trkpt lat="44.19388744501499" lon="12.396726037540393"><ele>0.6666666666666666</ele><time>2026-03-22T14:45:42.99Z</time></trkpt><trkpt lat="44.19401807479488" lon="12.396519194377099"><ele>0.3333333333333333</ele><time>2026-03-22T14:45:43.99Z</time></trkpt><trkpt lat="44.19414815657203" lon="12.396304394729508"><ele>0.0</ele><time>2026-03-22T14:45:44.99Z</time></trkpt><trkpt lat="44.19427994029913" lon="12.3960889468001"><ele>0.0</ele><time>2026-03-22T14:45:45.99Z</time></trkpt><trkpt lat="44.19441195562862" lon="12.395874715233976"><ele>0.0</ele><time>2026-03-22T14:45:46.99Z</time></trkpt><trkpt lat="44.194546641892885" lon="12.395656594257728"><ele>0.0</ele><time>2026-03-22T14:45:47.99Z</time></trkpt><trkpt lat="44.19468220026402" lon="12.395439101280772"><ele>0.0</ele><time>2026-03-22T14:45:48.99Z</time></trkpt><trkpt lat="44.19481684282445" lon="12.395220629950988"><ele>0.0</ele><time>2026-03-22T14:45:49.99Z</time></trkpt><trkpt lat="44.194954986559836" lon="12.394998954330724"><ele>0.0</ele><time>2026-03-22T14:45:50.99Z</time></trkpt><trkpt lat="44.195093024464846" lon="12.394777391680526"><ele>0.0</ele><time>2026-03-22T14:45:51.99Z</time></trkpt><trkpt lat="44.19522876600766" lon="12.394555998266313"><ele>0.0</ele><time>2026-03-22T14:45:52.99Z</time></trkpt><trkpt lat="44.195364047847505" lon="12.394338863099636"><ele>0.0</ele><time>2026-03-22T14:45:53.99Z</time></trkpt><trkpt lat="44.19548435067531" lon="12.394146207488266"><ele>0.0</ele><time>2026-03-22T14:45:54.99Z</time></trkpt><trkpt lat="44.19559548255229" lon="12.393964570258836"><ele>0.0</ele><time>2026-03-22T14:45:55.99Z</time></trkpt><trkpt lat="44.19569831163777" lon="12.393791766843096"><ele>0.0</ele><time>2026-03-22T14:45:56.99Z</time></trkpt><trkpt lat="44.19580009844869" lon="12.39362357604731"><ele>-0.6666666666666666</ele><time>2026-03-22T14:45:57.99Z</time></trkpt><trkpt lat="44.195900615717" lon="12.39345953727037"><ele>-1.3333333333333333</ele><time>2026-03-22T14:45:58.99Z</time></trkpt><trkpt lat="44.196002699972375" lon="12.393293242587854"><ele>-2.0</ele><time>2026-03-22T14:45:59.99Z</time></trkpt><trkpt lat="44.196105631897225" lon="12.393121903973386"><ele>-1.6666666666666665</ele><time>2026-03-22T14:46:00.99Z</time></trkpt><trkpt lat="44.196209844457194" lon="12.392953895999511"><ele>-1.3333333333333333</ele><time>2026-03-22T14:46:01.99Z</time></trkpt><trkpt lat="44.19631490595947" lon="12.392783511217353"><ele>-1.0</ele><time>2026-03-22T14:46:02.99Z</time></trkpt><trkpt lat="44.19641948844897" lon="12.39261269649585"><ele>-1.0</ele><time>2026-03-22T14:46:03.99Z</time></trkpt><trkpt lat="44.19651121688228" lon="12.39245558203178"><ele>-1.0</ele><time>2026-03-22T14:46:04.99Z</time></trkpt><trkpt lat="44.196598895266455" lon="12.392307928059214"><ele>-1.0</ele><time>2026-03-22T14:46:05.99Z</time></trkpt><trkpt lat="44.19669107352774" lon="12.392154612581496"><ele>-1.0</ele><time>2026-03-22T14:46:06.99Z</time></trkpt><trkpt lat="44.196781817231084" lon="12.392011921539483"><ele>-0.75</ele><time>2026-03-22T14:46:07.99Z</time></trkpt><trkpt lat="44.19687032845425" lon="12.391868964301178"><ele>-0.5</ele><time>2026-03-22T14:46:08.989Z</time></trkpt><trkpt lat="44.19695493191056" lon="12.391734396966761"><ele>-0.25</ele><time>2026-03-22T14:46:09.989Z</time></trkpt><trkpt lat="44.197040819973886" lon="12.39159714422294"><ele>0.0</ele><time>2026-03-22T14:46:10.989Z</time></trkpt><trkpt lat="44.19712499853152" lon="12.391461259833171"><ele>0.0</ele><time>2026-03-22T14:46:11.989Z</time></trkpt><trkpt lat="44.19720324272299" lon="12.391340785018077"><ele>0.0</ele><time>2026-03-22T14:46:12.989Z</time></trkpt><trkpt lat="44.19729176369376" lon="12.391214371206436"><ele>0.0</ele><time>2026-03-22T14:46:13.989Z</time></trkpt><trkpt lat="44.19738020918491" lon="12.391099108051456"><ele>0.0</ele><time>2026-03-22T14:46:14.989Z</time></trkpt><trkpt lat="44.197477439052996" lon="12.390970145479578"><ele>0.0</ele><time>2026-03-22T14:46:15.989Z</time></trkpt><trkpt lat="44.197566933288876" lon="12.390854964510531"><ele>0.0</ele><time>2026-03-22T14:46:16.989Z</time></trkpt><trkpt lat="44.197653729563356" lon="12.390749173510798"><ele>0.0</ele><time>2026-03-22T14:46:17.989Z</time></trkpt><trkpt lat="44.197742923684196" lon="12.390650654805926"><ele>0.0</ele><time>2026-03-22T14:46:18.989Z</time></trkpt><trkpt lat="44.197825767090166" lon="12.390559295366774"><ele>0.2</ele><time>2026-03-22T14:46:19.989Z</time></trkpt><trkpt lat="44.19791524352186" lon="12.390467790387495"><ele>0.4</ele><time>2026-03-22T14:46:20.989Z</time></trkpt><trkpt lat="44.19800079968849" lon="12.390379722669365"><ele>0.6000000000000001</ele><time>2026-03-22T14:46:21.989Z</time></trkpt><trkpt lat="44.198085543041834" lon="12.390299504780648"><ele>0.8</ele><time>2026-03-22T14:46:22.989Z</time></trkpt><trkpt lat="44.198171171838034" lon="12.390217120563367"><ele>1.0</ele><time>2026-03-22T14:46:23.989Z</time></trkpt><trkpt lat="44.198260249095966" lon="12.39013749134465"><ele>1.0</ele><time>2026-03-22T14:46:24.989Z</time></trkpt><trkpt lat="44.19834673965566" lon="12.390058564812268"><ele>1.0</ele><time>2026-03-22T14:46:25.989Z</time></trkpt><trkpt lat="44.198438854948066" lon="12.389980156336309"><ele>1.0</ele><time>2026-03-22T14:46:26.989Z</time></trkpt><trkpt lat="44.198531456351574" lon="12.389907174036363"><ele>1.0</ele><time>2026-03-22T14:46:27.989Z</time></trkpt><trkpt lat="44.19862083639705" lon="12.389841228804443"><ele>1.0</ele><time>2026-03-22T14:46:28.989Z</time></trkpt><trkpt lat="44.198710151979206" lon="12.389779167445118"><ele>1.0</ele><time>2026-03-22T14:46:29.989Z</time></trkpt><trkpt lat="44.198800134279296" lon="12.389716800425779"><ele>1.0</ele><time>2026-03-22T14:46:30.989Z</time></trkpt><trkpt lat="44.19889184308299" lon="12.389658450316116"><ele>1.0</ele><time>2026-03-22T14:46:31.989Z</time></trkpt><trkpt lat="44.19899035154301" lon="12.389600793704242"><ele>1.0</ele><time>2026-03-22T14:46:32.989Z</time></trkpt><trkpt lat="44.19909014843588" lon="12.389540632014485"><ele>1.0</ele><time>2026-03-22T14:46:33.989Z</time></trkpt><trkpt lat="44.19919029393922" lon="12.389482452061785"><ele>0.20000000000000007</ele><time>2026-03-22T14:46:34.989Z</time></trkpt><trkpt lat="44.199288107763365" lon="12.389431532075607"><ele>-0.5999999999999999</ele><time>2026-03-22T14:46:35.989Z</time></trkpt><trkpt lat="44.1993817324383" lon="12.389387238104357"><ele>-1.4</ele><time>2026-03-22T14:46:36.989Z</time></trkpt><trkpt lat="44.199473446189" lon="12.389347394335157"><ele>-2.1999999999999997</ele><time>2026-03-22T14:46:37.989Z</time></trkpt><trkpt lat="44.199563120815256" lon="12.38930352326243"><ele>-3.0</ele><time>2026-03-22T14:46:38.989Z</time></trkpt><trkpt lat="44.19965481243724" lon="12.389265189269565"><ele>-3.0</ele><time>2026-03-22T14:46:39.989Z</time></trkpt><trkpt lat="44.19974397089826" lon="12.389228820048844"><ele>-3.0</ele><time>2026-03-22T14:46:40.989Z</time></trkpt><trkpt lat="44.199837457883504" lon="12.389195236935903"><ele>-3.0</ele><time>2026-03-22T14:46:41.989Z</time></trkpt><trkpt lat="44.19993631605101" lon="12.389164385034313"><ele>-3.0</ele><time>2026-03-22T14:46:42.989Z</time></trkpt><trkpt lat="44.20004447073651" lon="12.389135531586142"><ele>-3.0</ele><time>2026-03-22T14:46:43.989Z</time></trkpt><trkpt lat="44.20015447836897" lon="12.389105704015403"><ele>-3.25</ele><time>2026-03-22T14:46:44.989Z</time></trkpt><trkpt lat="44.20026554546049" lon="12.389072793478137"><ele>-3.5</ele><time>2026-03-22T14:46:45.989Z</time></trkpt><trkpt lat="44.20037604025009" lon="12.389039545890999"><ele>-3.75</ele><time>2026-03-22T14:46:46.989Z</time></trkpt><trkpt lat="44.20048855510451" lon="12.389008792222523"><ele>-4.0</ele><time>2026-03-22T14:46:47.989Z</time></trkpt><trkpt lat="44.200600222956844" lon="12.38897746914209"><ele>-3.5</ele><time>2026-03-22T14:46:48.989Z</time></trkpt><trkpt lat="44.20070675856054" lon="12.388946441835985"><ele>-3.0</ele><time>2026-03-22T14:46:49.989Z</time></trkpt><trkpt lat="44.20081899720489" lon="12.38891434412295"><ele>-2.5</ele><time>2026-03-22T14:46:50.989Z</time></trkpt><trkpt lat="44.20093217780394" lon="12.388882140629725"><ele>-2.0</ele><time>2026-03-22T14:46:51.989Z</time></trkpt><trkpt lat="44.20104316343288" lon="12.388849645180477"><ele>-1.75</ele><time>2026-03-22T14:46:52.989Z</time></trkpt><trkpt lat="44.20115112155834" lon="12.388818351457056"><ele>-1.5</ele><time>2026-03-22T14:46:53.989Z</time></trkpt><trkpt lat="44.2012543825506" lon="12.388787445645754"><ele>-1.25</ele><time>2026-03-22T14:46:54.989Z</time></trkpt><trkpt lat="44.201360231782786" lon="12.388753628136488"><ele>-1.0</ele><time>2026-03-22T14:46:55.989Z</time></trkpt><trkpt lat="44.20149108605065" lon="12.388717035563172"><ele>0.0</ele><time>2026-03-22T14:46:56.989Z</time></trkpt><trkpt lat="44.20164102219399" lon="12.388672466157578"><ele>1.0</ele><time>2026-03-22T14:46:57.989Z</time></trkpt><trkpt lat="44.201809668424346" lon="12.388633561979903"><ele>2.0</ele><time>2026-03-22T14:46:58.989Z</time></trkpt><trkpt lat="44.20197159905679" lon="12.388592722326315"><ele>2.0</ele><time>2026-03-22T14:46:59.989Z</time></trkpt><trkpt lat="44.20211604885735" lon="12.388551545076519"><ele>2.0</ele><time>2026-03-22T14:47:00.989Z</time></trkpt><trkpt lat="44.20225221711008" lon="12.388511595762674"><ele>2.0</ele><time>2026-03-22T14:47:01.989Z</time></trkpt><trkpt lat="44.20238094819385" lon="12.388476836419859"><ele>2.0</ele><time>2026-03-22T14:47:02.989Z</time></trkpt><trkpt lat="44.202501249387865" lon="12.388440331460123"><ele>1.5</ele><time>2026-03-22T14:47:03.989Z</time></trkpt><trkpt lat="44.202623084390005" lon="12.38840429634422"><ele>1.0</ele><time>2026-03-22T14:47:04.989Z</time></trkpt><trkpt lat="44.20275240565659" lon="12.388360218635992"><ele>0.5</ele><time>2026-03-22T14:47:05.989Z</time></trkpt><trkpt lat="44.20290501244321" lon="12.388323898065076"><ele>0.0</ele><time>2026-03-22T14:47:06.989Z</time></trkpt><trkpt lat="44.20304555306038" lon="12.388289734432869"><ele>-0.2</ele><time>2026-03-22T14:47:07.989Z</time></trkpt><trkpt lat="44.203165054499756" lon="12.388252904624485"><ele>-0.4</ele><time>2026-03-22T14:47:08.989Z</time></trkpt><trkpt lat="44.203273241740405" lon="12.388220264795978"><ele>-0.6000000000000001</ele><time>2026-03-22T14:47:09.989Z</time></trkpt><trkpt lat="44.20337652562301" lon="12.38819413302772"><ele>-0.8</ele><time>2026-03-22T14:47:10.989Z</time></trkpt><trkpt lat="44.20347853652794" lon="12.388167317036523"><ele>-1.0</ele><time>2026-03-22T14:47:11.989Z</time></trkpt><trkpt lat="44.2035879273887" lon="12.388136392746695"><ele>-1.0</ele><time>2026-03-22T14:47:12.989Z</time></trkpt><trkpt lat="44.20370260241444" lon="12.388102792466716"><ele>-1.0</ele><time>2026-03-22T14:47:13.989Z</time></trkpt><trkpt lat="44.203826728646256" lon="12.388063416324263"><ele>-1.0</ele><time>2026-03-22T14:47:14.989Z</time></trkpt><trkpt lat="44.20396734584115" lon="12.388020590078938"><ele>-1.0</ele><time>2026-03-22T14:47:15.989Z</time></trkpt><trkpt lat="44.204120861155836" lon="12.387971671641024"><ele>-1.3333333333333333</ele><time>2026-03-22T14:47:16.989Z</time></trkpt><trkpt lat="44.204291877549004" lon="12.387919543964026"><ele>-1.6666666666666665</ele><time>2026-03-22T14:47:17.989Z</time></trkpt><trkpt lat="44.20447288464995" lon="12.387854216009753"><ele>-2.0</ele><time>2026-03-22T14:47:18.989Z</time></trkpt><trkpt lat="44.20465260152567" lon="12.387782475268859"><ele>-2.0</ele><time>2026-03-22T14:47:19.989Z</time></trkpt><trkpt lat="44.20482575305796" lon="12.387698204144419"><ele>-2.0</ele><time>2026-03-22T14:47:20.989Z</time></trkpt><trkpt lat="44.204998583431596" lon="12.387615327524507"><ele>-2.0</ele><time>2026-03-22T14:47:21.989Z</time></trkpt><trkpt lat="44.205169112244654" lon="12.387517646650604"><ele>-1.6666666666666665</ele><time>2026-03-22T14:47:22.989Z</time></trkpt><trkpt lat="44.20534217128976" lon="12.38741384867337"><ele>-1.3333333333333333</ele><time>2026-03-22T14:47:23.989Z</time></trkpt><trkpt lat="44.205516025747954" lon="12.387305767318237"><ele>-1.0</ele><time>2026-03-22T14:47:24.989Z</time></trkpt><trkpt lat="44.20568919554126" lon="12.387191806067893"><ele>-1.6666666666666665</ele><time>2026-03-22T14:47:25.989Z</time></trkpt><trkpt lat="44.20585366219903" lon="12.387074374002742"><ele>-2.3333333333333335</ele><time>2026-03-22T14:47:26.989Z</time></trkpt><trkpt lat="44.206010417052724" lon="12.386954465806303"><ele>-3.0</ele><time>2026-03-22T14:47:27.989Z</time></trkpt><trkpt lat="44.20616102193628" lon="12.386827903776918"><ele>-3.0</ele><time>2026-03-22T14:47:28.989Z</time></trkpt><trkpt lat="44.20631457953848" lon="12.386694926954153"><ele>-3.0</ele><time>2026-03-22T14:47:29.989Z</time></trkpt><trkpt lat="44.206473629543915" lon="12.38655411610309"><ele>-3.0</ele><time>2026-03-22T14:47:30.989Z</time></trkpt><trkpt lat="44.2066395915199" lon="12.38640753764147"><ele>-2.3333333333333335</ele><time>2026-03-22T14:47:31.989Z</time></trkpt><trkpt lat="44.20680385501731" lon="12.386247250326807"><ele>-1.6666666666666665</ele><time>2026-03-22T14:47:32.989Z</time></trkpt><trkpt lat="44.20697003455381" lon="12.38607166233085"><ele>-1.0</ele><time>2026-03-22T14:47:33.989Z</time></trkpt><trkpt lat="44.2071400895748" lon="12.385884335757327"><ele>-1.0</ele><time>2026-03-22T14:47:34.989Z</time></trkpt><trkpt lat="44.207324164989984" lon="12.385693398137771"><ele>-1.0</ele><time>2026-03-22T14:47:35.989Z</time></trkpt><trkpt lat="44.20752460247517" lon="12.385506010357966"><ele>-1.0</ele><time>2026-03-22T14:47:36.989Z</time></trkpt><trkpt lat="44.20773051320086" lon="12.385319154755177"><ele>-1.0</ele><time>2026-03-22T14:47:37.989Z</time></trkpt><trkpt lat="44.20792837035686" lon="12.385131305028072"><ele>-1.0</ele><time>2026-03-22T14:47:38.989Z</time></trkpt><trkpt lat="44.208123371347966" lon="12.384936943928903"><ele>-1.0</ele><time>2026-03-22T14:47:39.989Z</time></trkpt><trkpt lat="44.20831309572355" lon="12.384738093241713"><ele>0.0</ele><time>2026-03-22T14:47:40.989Z</time></trkpt><trkpt lat="44.208498070774546" lon="12.384538324894564"><ele>1.0</ele><time>2026-03-22T14:47:41.989Z</time></trkpt><trkpt lat="44.208688892217154" lon="12.384340953187834"><ele>1.0</ele><time>2026-03-22T14:47:42.989Z</time></trkpt><trkpt lat="44.20887901495336" lon="12.384138189064045"><ele>1.0</ele><time>2026-03-22T14:47:43.989Z</time></trkpt><trkpt lat="44.20906477299198" lon="12.383943910095564"><ele>0.0</ele><time>2026-03-22T14:47:44.989Z</time></trkpt><trkpt lat="44.20925398210812" lon="12.383749429103558"><ele>-1.0</ele><time>2026-03-22T14:47:45.989Z</time></trkpt><trkpt lat="44.209438450352046" lon="12.383553561612095"><ele>-1.0</ele><time>2026-03-22T14:47:46.989Z</time></trkpt><trkpt lat="44.209628425148495" lon="12.383361695809233"><ele>-1.0</ele><time>2026-03-22T14:47:47.989Z</time></trkpt><trkpt lat="44.20981863680234" lon="12.383171329720648"><ele>-2.0</ele><time>2026-03-22T14:47:48.989Z</time></trkpt><trkpt lat="44.21000940468792" lon="12.382982866130636"><ele>-3.0</ele><time>2026-03-22T14:47:49.989Z</time></trkpt><trkpt lat="44.21019197868135" lon="12.382793921621628"><ele>-3.0</ele><time>2026-03-22T14:47:50.989Z</time></trkpt><trkpt lat="44.210373155556404" lon="12.382605395213295"><ele>-3.0</ele><time>2026-03-22T14:47:51.989Z</time></trkpt><trkpt lat="44.210553654399895" lon="12.382420313302196"><ele>-2.6666666666666665</ele><time>2026-03-22T14:47:52.989Z</time></trkpt><trkpt lat="44.21073405410075" lon="12.382238187277352"><ele>-2.333333333333333</ele><time>2026-03-22T14:47:53.989Z</time></trkpt><trkpt lat="44.21091094482931" lon="12.382053272276849"><ele>-2.0</ele><time>2026-03-22T14:47:54.989Z</time></trkpt><trkpt lat="44.21109066845018" lon="12.38186928579206"><ele>-2.0</ele><time>2026-03-22T14:47:55.989Z</time></trkpt><trkpt lat="44.21127048061648" lon="12.381680592732172"><ele>-2.0</ele><time>2026-03-22T14:47:56.989Z</time></trkpt><trkpt lat="44.211448016427624" lon="12.381490519335932"><ele>-2.0</ele><time>2026-03-22T14:47:57.989Z</time></trkpt><trkpt lat="44.211627466538324" lon="12.3813070343279"><ele>-2.0</ele><time>2026-03-22T14:47:58.989Z</time></trkpt><trkpt lat="44.21180279402795" lon="12.381123077336126"><ele>-2.0</ele><time>2026-03-22T14:47:59.989Z</time></trkpt><trkpt lat="44.21197996412486" lon="12.38093650823265"><ele>-2.0</ele><time>2026-03-22T14:48:00.989Z</time></trkpt><trkpt lat="44.21216302562467" lon="12.380741699189235"><ele>-2.0</ele><time>2026-03-22T14:48:01.989Z</time></trkpt><trkpt lat="44.21235409714141" lon="12.380541473354505"><ele>-2.0</ele><time>2026-03-22T14:48:02.989Z</time></trkpt><trkpt lat="44.21256141124454" lon="12.380356721964626"><ele>-2.0</ele><time>2026-03-22T14:48:03.989Z</time></trkpt><trkpt lat="44.21276578095112" lon="12.38013960416671"><ele>-2.0</ele><time>2026-03-22T14:48:04.989Z</time></trkpt><trkpt lat="44.212979135435994" lon="12.379945962251455"><ele>-1.5</ele><time>2026-03-22T14:48:05.989Z</time></trkpt><trkpt lat="44.213179973040596" lon="12.37975668729919"><ele>-1.0</ele><time>2026-03-22T14:48:06.989Z</time></trkpt><trkpt lat="44.213369015606915" lon="12.379570764703184"><ele>-2.0</ele><time>2026-03-22T14:48:07.989Z</time></trkpt><trkpt lat="44.21356099733568" lon="12.379383388065069"><ele>-3.0</ele><time>2026-03-22T14:48:08.989Z</time></trkpt><trkpt lat="44.213757382230305" lon="12.379197533459545"><ele>-3.0</ele><time>2026-03-22T14:48:09.989Z</time></trkpt><trkpt lat="44.21395291393012" lon="12.379015737637808"><ele>-3.0</ele><time>2026-03-22T14:48:10.989Z</time></trkpt><trkpt lat="44.21414235462568" lon="12.378841138298657"><ele>-2.6666666666666665</ele><time>2026-03-22T14:48:11.989Z</time></trkpt><trkpt lat="44.214326753213655" lon="12.378686688861826"><ele>-2.333333333333333</ele><time>2026-03-22T14:48:12.989Z</time></trkpt><trkpt lat="44.21450285714774" lon="12.37853519872449"><ele>-2.0</ele><time>2026-03-22T14:48:13.989Z</time></trkpt><trkpt lat="44.21466692713941" lon="12.378391712455441"><ele>-2.0</ele><time>2026-03-22T14:48:14.989Z</time></trkpt><trkpt lat="44.2148209390449" lon="12.378258473689906"><ele>-2.0</ele><time>2026-03-22T14:48:15.989Z</time></trkpt><trkpt lat="44.21496140723738" lon="12.378136163058745"><ele>-2.0</ele><time>2026-03-22T14:48:16.989Z</time></trkpt><trkpt lat="44.21510297781871" lon="12.37801405714303"><ele>-2.0</ele><time>2026-03-22T14:48:17.989Z</time></trkpt><trkpt lat="44.21523563608027" lon="12.377902701985336"><ele>-2.0</ele><time>2026-03-22T14:48:18.989Z</time></trkpt><trkpt lat="44.21534986606768" lon="12.37780444618691"><ele>-2.0</ele><time>2026-03-22T14:48:19.989Z</time></trkpt><trkpt lat="44.21547556383861" lon="12.377692736333536"><ele>-2.0</ele><time>2026-03-22T14:48:20.989Z</time></trkpt><trkpt lat="44.21562200746551" lon="12.377575037879321"><ele>-1.6666666666666665</ele><time>2026-03-22T14:48:21.989Z</time></trkpt><trkpt lat="44.21578164372624" lon="12.377444404261315"><ele>-1.3333333333333333</ele><time>2026-03-22T14:48:22.989Z</time></trkpt><trkpt lat="44.215938923755274" lon="12.37731178997502"><ele>-1.0</ele><time>2026-03-22T14:48:23.989Z</time></trkpt><trkpt lat="44.21608957261477" lon="12.377183738030656"><ele>-1.0</ele><time>2026-03-22T14:48:24.989Z</time></trkpt><trkpt lat="44.2162347193127" lon="12.377062640907921"><ele>-1.0</ele><time>2026-03-22T14:48:25.989Z</time></trkpt><trkpt lat="44.21637805037029" lon="12.376938916269337"><ele>-1.0</ele><time>2026-03-22T14:48:26.989Z</time></trkpt><trkpt lat="44.216514166139696" lon="12.376821964234196"><ele>-1.0</ele><time>2026-03-22T14:48:27.989Z</time></trkpt><trkpt lat="44.21664935487247" lon="12.376708759267107"><ele>-1.0</ele><time>2026-03-22T14:48:28.989Z</time></trkpt><trkpt lat="44.21678077107473" lon="12.376598439233348"><ele>-1.0</ele><time>2026-03-22T14:48:29.989Z</time></trkpt><trkpt lat="44.21691213674455" lon="12.37648563200423"><ele>-1.0</ele><time>2026-03-22T14:48:30.989Z</time></trkpt><trkpt lat="44.217051037163756" lon="12.376364401766399"><ele>-1.0</ele><time>2026-03-22T14:48:31.989Z</time></trkpt><trkpt lat="44.21719216019206" lon="12.376244736194032"><ele>-1.0</ele><time>2026-03-22T14:48:32.989Z</time></trkpt><trkpt lat="44.217326539441245" lon="12.376133421396537"><ele>-1.0</ele><time>2026-03-22T14:48:33.989Z</time></trkpt><trkpt lat="44.217449716613956" lon="12.376035856355088"><ele>-1.0</ele><time>2026-03-22T14:48:34.989Z</time></trkpt><trkpt lat="44.217570169452195" lon="12.375935496444965"><ele>-1.0</ele><time>2026-03-22T14:48:35.989Z</time></trkpt><trkpt lat="44.217683864330525" lon="12.375847428250568"><ele>-1.0</ele><time>2026-03-22T14:48:36.989Z</time></trkpt><trkpt lat="44.21780041284776" lon="12.375752422595815"><ele>-1.0</ele><time>2026-03-22T14:48:37.989Z</time></trkpt><trkpt lat="44.21791117698246" lon="12.375666365363875"><ele>-1.0</ele><time>2026-03-22T14:48:38.989Z</time></trkpt><trkpt lat="44.218026048743035" lon="12.375585553542209"><ele>-1.0</ele><time>2026-03-22T14:48:39.989Z</time></trkpt><trkpt lat="44.21813461915384" lon="12.375502276709872"><ele>-1.0</ele><time>2026-03-22T14:48:40.989Z</time></trkpt><trkpt lat="44.21823801652586" lon="12.375416801273353"><ele>-1.0</ele><time>2026-03-22T14:48:41.989Z</time></trkpt><trkpt lat="44.21833795799969" lon="12.375326289342773"><ele>-1.0</ele><time>2026-03-22T14:48:42.989Z</time></trkpt><trkpt lat="44.218441111082" lon="12.375236442580814"><ele>-1.0</ele><time>2026-03-22T14:48:43.989Z</time></trkpt><trkpt lat="44.218549892734664" lon="12.375147046973852"><ele>-1.0</ele><time>2026-03-22T14:48:44.989Z</time></trkpt><trkpt lat="44.21865637677732" lon="12.375058699316295"><ele>-1.0</ele><time>2026-03-22T14:48:45.989Z</time></trkpt><trkpt lat="44.21875597994697" lon="12.374972557911361"><ele>-1.0</ele><time>2026-03-22T14:48:46.989Z</time></trkpt><trkpt lat="44.218864786050034" lon="12.374880213029206"><ele>-1.0</ele><time>2026-03-22T14:48:47.989Z</time></trkpt><trkpt lat="44.218975704284325" lon="12.374786911162747"><ele>-1.0</ele><time>2026-03-22T14:48:48.989Z</time></trkpt><trkpt lat="44.219075916549976" lon="12.374694200374199"><ele>-0.5</ele><time>2026-03-22T14:48:49.989Z</time></trkpt><trkpt lat="44.21917600150034" lon="12.374604133259412"><ele>0.0</ele><time>2026-03-22T14:48:50.989Z</time></trkpt><trkpt lat="44.21927695207595" lon="12.374514704114606"><ele>0.5</ele><time>2026-03-22T14:48:51.989Z</time></trkpt><trkpt lat="44.21937861386753" lon="12.374424685556237"><ele>1.0</ele><time>2026-03-22T14:48:52.989Z</time></trkpt><trkpt lat="44.219484824081036" lon="12.37433474274546"><ele>1.0</ele><time>2026-03-22T14:48:53.989Z</time></trkpt><trkpt lat="44.219589709945595" lon="12.374234992335746"><ele>1.0</ele><time>2026-03-22T14:48:54.989Z</time></trkpt><trkpt lat="44.219690908416354" lon="12.374138319863949"><ele>1.0</ele><time>2026-03-22T14:48:55.989Z</time></trkpt><trkpt lat="44.219793439693795" lon="12.374042613266118"><ele>1.0</ele><time>2026-03-22T14:48:56.989Z</time></trkpt><trkpt lat="44.2198883084384" lon="12.373944540738666"><ele>1.5</ele><time>2026-03-22T14:48:57.989Z</time></trkpt><trkpt lat="44.21998575487479" lon="12.373852006939916"><ele>2.0</ele><time>2026-03-22T14:48:58.989Z</time></trkpt><trkpt lat="44.22007906329011" lon="12.373746708511254"><ele>2.5</ele><time>2026-03-22T14:48:59.989Z</time></trkpt><trkpt lat="44.22018471962885" lon="12.373649438176063"><ele>3.0</ele><time>2026-03-22T14:49:00.989Z</time></trkpt><trkpt lat="44.22028787284769" lon="12.373549721265226"><ele>3.0</ele><time>2026-03-22T14:49:01.989Z</time></trkpt><trkpt lat="44.22038977426167" lon="12.373453024110777"><ele>3.0</ele><time>2026-03-22T14:49:02.989Z</time></trkpt><trkpt lat="44.220490980255576" lon="12.373355389879988"><ele>3.0</ele><time>2026-03-22T14:49:03.989Z</time></trkpt><trkpt lat="44.22059162675585" lon="12.373260855488574"><ele>3.0</ele><time>2026-03-22T14:49:04.989Z</time></trkpt><trkpt lat="44.22069203756311" lon="12.373163050145049"><ele>2.25</ele><time>2026-03-22T14:49:05.989Z</time></trkpt><trkpt lat="44.22078413585397" lon="12.373070354592718"><ele>1.5</ele><time>2026-03-22T14:49:06.989Z</time></trkpt><trkpt lat="44.22087730103572" lon="12.372986272830332"><ele>0.75</ele><time>2026-03-22T14:49:07.989Z</time></trkpt><trkpt lat="44.22096982008174" lon="12.372901231889514"><ele>0.0</ele><time>2026-03-22T14:49:08.989Z</time></trkpt><trkpt lat="44.221065822581124" lon="12.372812913748227"><ele>-0.5</ele><time>2026-03-22T14:49:09.989Z</time></trkpt><trkpt lat="44.2211651035268" lon="12.372718300432236"><ele>-1.0</ele><time>2026-03-22T14:49:10.989Z</time></trkpt><trkpt lat="44.22127108830974" lon="12.372624047932735"><ele>-1.5</ele><time>2026-03-22T14:49:11.989Z</time></trkpt><trkpt lat="44.22137509942671" lon="12.372531159890583"><ele>-2.0</ele><time>2026-03-22T14:49:12.989Z</time></trkpt><trkpt lat="44.221468808951414" lon="12.372431964813027"><ele>-2.0</ele><time>2026-03-22T14:49:13.989Z</time></trkpt><trkpt lat="44.2215699853716" lon="12.372324832853034"><ele>-2.0</ele><time>2026-03-22T14:49:14.989Z</time></trkpt><trkpt lat="44.221669245031435" lon="12.372226877710382"><ele>-2.0</ele><time>2026-03-22T14:49:15.989Z</time></trkpt><trkpt lat="44.22177066456923" lon="12.372130294479295"><ele>-2.0</ele><time>2026-03-22T14:49:16.989Z</time></trkpt><trkpt lat="44.221868261091814" lon="12.372036416866695"><ele>-2.0</ele><time>2026-03-22T14:49:17.989Z</time></trkpt><trkpt lat="44.221976155213575" lon="12.37192971277847"><ele>-2.0</ele><time>2026-03-22T14:49:18.989Z</time></trkpt><trkpt lat="44.222102683535454" lon="12.37180717997353"><ele>-2.0</ele><time>2026-03-22T14:49:19.989Z</time></trkpt><trkpt lat="44.22224128877959" lon="12.371676568489171"><ele>-1.75</ele><time>2026-03-22T14:49:20.989Z</time></trkpt><trkpt lat="44.222378255769875" lon="12.371555020370991"><ele>-1.5</ele><time>2026-03-22T14:49:21.989Z</time></trkpt><trkpt lat="44.222495513271966" lon="12.371442022314918"><ele>-1.25</ele><time>2026-03-22T14:49:22.989Z</time></trkpt><trkpt lat="44.222602312642614" lon="12.371336216576864"><ele>-1.0</ele><time>2026-03-22T14:49:23.989Z</time></trkpt><trkpt lat="44.2227003309448" lon="12.371241419613144"><ele>-1.5</ele><time>2026-03-22T14:49:24.989Z</time></trkpt><trkpt lat="44.22279354406388" lon="12.371148822637789"><ele>-2.0</ele><time>2026-03-22T14:49:25.989Z</time></trkpt><trkpt lat="44.222883648233214" lon="12.371059911328635"><ele>-2.5</ele><time>2026-03-22T14:49:26.989Z</time></trkpt><trkpt lat="44.222979514951895" lon="12.370966225125759"><ele>-3.0</ele><time>2026-03-22T14:49:27.989Z</time></trkpt><trkpt lat="44.22308390381969" lon="12.370870248060552"><ele>-3.0</ele><time>2026-03-22T14:49:28.989Z</time></trkpt><trkpt lat="44.22319126444011" lon="12.370768997927346"><ele>-3.0</ele><time>2026-03-22T14:49:29.989Z</time></trkpt><trkpt lat="44.22330094786014" lon="12.37066460333068"><ele>-3.0</ele><time>2026-03-22T14:49:30.989Z</time></trkpt><trkpt lat="44.22341561641045" lon="12.370556860784715"><ele>-3.0</ele><time>2026-03-22T14:49:31.989Z</time></trkpt><trkpt lat="44.223535777170824" lon="12.370443251231025"><ele>-3.0</ele><time>2026-03-22T14:49:32.989Z</time></trkpt><trkpt lat="44.22365533253529" lon="12.370327620620962"><ele>-3.0</ele><time>2026-03-22T14:49:33.989Z</time></trkpt><trkpt lat="44.223779741866714" lon="12.370204289168793"><ele>-3.0</ele><time>2026-03-22T14:49:34.989Z</time></trkpt><trkpt lat="44.22390308632954" lon="12.37008096044299"><ele>-2.6666666666666665</ele><time>2026-03-22T14:49:35.989Z</time></trkpt><trkpt lat="44.2240330026115" lon="12.369961844250614"><ele>-2.333333333333333</ele><time>2026-03-22T14:49:36.989Z</time></trkpt><trkpt lat="44.22416516263705" lon="12.369841277303864"><ele>-2.0</ele><time>2026-03-22T14:49:37.989Z</time></trkpt><trkpt lat="44.22429808554705" lon="12.369714290884536"><ele>-2.333333333333333</ele><time>2026-03-22T14:49:38.989Z</time></trkpt><trkpt lat="44.22443184847177" lon="12.36958352877303"><ele>-2.6666666666666665</ele><time>2026-03-22T14:49:39.989Z</time></trkpt><trkpt lat="44.22456712684132" lon="12.369448136678663"><ele>-3.0</ele><time>2026-03-22T14:49:40.989Z</time></trkpt><trkpt lat="44.22470162915362" lon="12.369319240056289"><ele>-2.6666666666666665</ele><time>2026-03-22T14:49:41.989Z</time></trkpt><trkpt lat="44.22482790894597" lon="12.36919331821575"><ele>-2.333333333333333</ele><time>2026-03-22T14:49:42.989Z</time></trkpt><trkpt lat="44.22495756648286" lon="12.369062429984025"><ele>-2.0</ele><time>2026-03-22T14:49:43.989Z</time></trkpt><trkpt lat="44.22508365390845" lon="12.368942700949502"><ele>-2.25</ele><time>2026-03-22T14:49:44.989Z</time></trkpt><trkpt lat="44.225213889269945" lon="12.36882171228208"><ele>-2.5</ele><time>2026-03-22T14:49:45.989Z</time></trkpt><trkpt lat="44.22532472687166" lon="12.368712222498186"><ele>-2.75</ele><time>2026-03-22T14:49:46.989Z</time></trkpt><trkpt lat="44.22543591198823" lon="12.368607158519493"><ele>-3.0</ele><time>2026-03-22T14:49:47.989Z</time></trkpt><trkpt lat="44.22555083162908" lon="12.36848905045596"><ele>-2.75</ele><time>2026-03-22T14:49:48.989Z</time></trkpt><trkpt lat="44.22567404604559" lon="12.368366902458225"><ele>-2.5</ele><time>2026-03-22T14:49:49.989Z</time></trkpt><trkpt lat="44.22578828851564" lon="12.368260061307707"><ele>-2.25</ele><time>2026-03-22T14:49:50.989Z</time></trkpt><trkpt lat="44.225892658965" lon="12.368156721565649"><ele>-2.0</ele><time>2026-03-22T14:49:51.989Z</time></trkpt><trkpt lat="44.2260035674813" lon="12.36804847374272"><ele>-1.75</ele><time>2026-03-22T14:49:52.989Z</time></trkpt><trkpt lat="44.22612016601777" lon="12.367932119875654"><ele>-1.5</ele><time>2026-03-22T14:49:53.989Z</time></trkpt><trkpt lat="44.22623726235092" lon="12.367819810652305"><ele>-1.25</ele><time>2026-03-22T14:49:54.989Z</time></trkpt><trkpt lat="44.226359223366664" lon="12.367703177358225"><ele>-1.0</ele><time>2026-03-22T14:49:55.989Z</time></trkpt><trkpt lat="44.22649033272337" lon="12.367571863532058"><ele>-1.0</ele><time>2026-03-22T14:49:56.989Z</time></trkpt><trkpt lat="44.22663691730231" lon="12.367431323535135"><ele>-1.0</ele><time>2026-03-22T14:49:57.989Z</time></trkpt><trkpt lat="44.22678576440626" lon="12.367281452225692"><ele>-1.0</ele><time>2026-03-22T14:49:58.989Z</time></trkpt><trkpt lat="44.22692700628365" lon="12.36715839013465"><ele>-1.0</ele><time>2026-03-22T14:49:59.989Z</time></trkpt><trkpt lat="44.227055754090344" lon="12.367034618473221"><ele>-1.0</ele><time>2026-03-22T14:50:00.989Z</time></trkpt><trkpt lat="44.22717848123457" lon="12.366910037281798"><ele>-1.0</ele><time>2026-03-22T14:50:01.989Z</time></trkpt><trkpt lat="44.22731388650996" lon="12.366775598320677"><ele>-1.0</ele><time>2026-03-22T14:50:02.989Z</time></trkpt><trkpt lat="44.227467122670255" lon="12.36663261114614"><ele>-1.0</ele><time>2026-03-22T14:50:03.989Z</time></trkpt><trkpt lat="44.227622759006216" lon="12.366487179272232"><ele>-1.0</ele><time>2026-03-22T14:50:04.989Z</time></trkpt><trkpt lat="44.22777686433066" lon="12.366336338658309"><ele>-1.3333333333333333</ele><time>2026-03-22T14:50:05.989Z</time></trkpt><trkpt lat="44.22792135139666" lon="12.366191079734596"><ele>-1.6666666666666665</ele><time>2026-03-22T14:50:06.989Z</time></trkpt><trkpt lat="44.22806548657445" lon="12.366049020006832"><ele>-2.0</ele><time>2026-03-22T14:50:07.989Z</time></trkpt><trkpt lat="44.22821300600358" lon="12.365899708195268"><ele>-2.0</ele><time>2026-03-22T14:50:08.989Z</time></trkpt><trkpt lat="44.228375175289116" lon="12.365736958768423"><ele>-2.0</ele><time>2026-03-22T14:50:09.989Z</time></trkpt><trkpt lat="44.228544277334336" lon="12.365570248472714"><ele>-2.0</ele><time>2026-03-22T14:50:10.989Z</time></trkpt><trkpt lat="44.22871383745706" lon="12.365407022771524"><ele>-1.3333333333333333</ele><time>2026-03-22T14:50:11.989Z</time></trkpt><trkpt lat="44.2288771428536" lon="12.365254257962043"><ele>-0.6666666666666666</ele><time>2026-03-22T14:50:12.989Z</time></trkpt><trkpt lat="44.229031266954564" lon="12.365109214502624"><ele>0.0</ele><time>2026-03-22T14:50:13.989Z</time></trkpt><trkpt lat="44.22918052607763" lon="12.364965664483341"><ele>0.0</ele><time>2026-03-22T14:50:14.989Z</time></trkpt><trkpt lat="44.22933523861963" lon="12.364822685973596"><ele>0.0</ele><time>2026-03-22T14:50:15.989Z</time></trkpt><trkpt lat="44.22948446524765" lon="12.364680142235496"><ele>0.0</ele><time>2026-03-22T14:50:16.989Z</time></trkpt><trkpt lat="44.22961986821504" lon="12.364551637991408"><ele>0.0</ele><time>2026-03-22T14:50:17.989Z</time></trkpt><trkpt lat="44.22974552393972" lon="12.364439809071294"><ele>0.0</ele><time>2026-03-22T14:50:18.989Z</time></trkpt><trkpt lat="44.229867067580415" lon="12.364329211990144"><ele>0.0</ele><time>2026-03-22T14:50:19.989Z</time></trkpt><trkpt lat="44.229987500257174" lon="12.364217464575527"><ele>0.0</ele><time>2026-03-22T14:50:20.989Z</time></trkpt><trkpt lat="44.230095078723714" lon="12.36411992176199"><ele>0.0</ele><time>2026-03-22T14:50:21.989Z</time></trkpt><trkpt lat="44.230195208359994" lon="12.364029004838729"><ele>0.0</ele><time>2026-03-22T14:50:22.989Z</time></trkpt><trkpt lat="44.23029612456337" lon="12.363938370895662"><ele>0.0</ele><time>2026-03-22T14:50:23.989Z</time></trkpt><trkpt lat="44.23040150583687" lon="12.363854467673717"><ele>0.0</ele><time>2026-03-22T14:50:24.989Z</time></trkpt><trkpt lat="44.23052056101503" lon="12.363789394656468"><ele>0.0</ele><time>2026-03-22T14:50:25.989Z</time></trkpt><trkpt lat="44.230648434742726" lon="12.363728881088225"><ele>0.0</ele><time>2026-03-22T14:50:26.989Z</time></trkpt><trkpt lat="44.23077728555267" lon="12.36364908260719"><ele>0.0</ele><time>2026-03-22T14:50:27.989Z</time></trkpt><trkpt lat="44.23089879462454" lon="12.36354367565281"><ele>0.0</ele><time>2026-03-22T14:50:28.989Z</time></trkpt><trkpt lat="44.23103886475362" lon="12.36342002212991"><ele>0.0</ele><time>2026-03-22T14:50:29.989Z</time></trkpt><trkpt lat="44.231200389592175" lon="12.363294594256988"><ele>0.0</ele><time>2026-03-22T14:50:30.989Z</time></trkpt><trkpt lat="44.23136393799957" lon="12.363167743044563"><ele>0.0</ele><time>2026-03-22T14:50:31.989Z</time></trkpt><trkpt lat="44.231509424416885" lon="12.363051132098365"><ele>-0.25</ele><time>2026-03-22T14:50:32.989Z</time></trkpt><trkpt lat="44.23163792414996" lon="12.362946746894888"><ele>-0.5</ele><time>2026-03-22T14:50:33.989Z</time></trkpt><trkpt lat="44.23175289437621" lon="12.362848892081752"><ele>-0.75</ele><time>2026-03-22T14:50:34.989Z</time></trkpt><trkpt lat="44.23186487236701" lon="12.362753322884435"><ele>-1.0</ele><time>2026-03-22T14:50:35.989Z</time></trkpt><trkpt lat="44.231966155294806" lon="12.362676012739264"><ele>-1.0</ele><time>2026-03-22T14:50:36.989Z</time></trkpt><trkpt lat="44.23204168156346" lon="12.362621848322767"><ele>-1.0</ele><time>2026-03-22T14:50:37.989Z</time></trkpt><trkpt lat="44.23211409985051" lon="12.36258913487515"><ele>-1.0</ele><time>2026-03-22T14:50:39.989Z</time></trkpt><trkpt lat="44.23221236855816" lon="12.362570552183579"><ele>-1.0</ele><time>2026-03-22T14:50:41.989Z</time></trkpt><trkpt lat="44.23230276342718" lon="12.362560016404677"><ele>-1.0</ele><time>2026-03-22T14:50:42.989Z</time></trkpt><trkpt lat="44.232416904152615" lon="12.36252938265816"><ele>-1.0</ele><time>2026-03-22T14:50:43.989Z</time></trkpt><trkpt lat="44.23253006648122" lon="12.362461680306337"><ele>-1.0</ele><time>2026-03-22T14:50:44.989Z</time></trkpt><trkpt lat="44.23263462373795" lon="12.362332383083109"><ele>-1.0</ele><time>2026-03-22T14:50:45.989Z</time></trkpt><trkpt lat="44.23272033350932" lon="12.362170843284423"><ele>-1.0</ele><time>2026-03-22T14:50:46.989Z</time></trkpt><trkpt lat="44.23279151982847" lon="12.361981217105162"><ele>-1.0</ele><time>2026-03-22T14:50:47.989Z</time></trkpt><trkpt lat="44.23287293366265" lon="12.36179278490491"><ele>-1.0</ele><time>2026-03-22T14:50:48.989Z</time></trkpt><trkpt lat="44.23299902490272" lon="12.361617628431388"><ele>-1.0</ele><time>2026-03-22T14:50:49.989Z</time></trkpt><trkpt lat="44.23316322160074" lon="12.361451898039883"><ele>-1.0</ele><time>2026-03-22T14:50:50.989Z</time></trkpt><trkpt lat="44.233329952655566" lon="12.361280437441524"><ele>-1.0</ele><time>2026-03-22T14:50:51.989Z</time></trkpt><trkpt lat="44.23349399548484" lon="12.361087392069429"><ele>-1.0</ele><time>2026-03-22T14:50:52.989Z</time></trkpt><trkpt lat="44.23366971374612" lon="12.360886342742331"><ele>-1.0</ele><time>2026-03-22T14:50:53.989Z</time></trkpt><trkpt lat="44.23384968032854" lon="12.360686381040662"><ele>-1.0</ele><time>2026-03-22T14:50:54.989Z</time></trkpt><trkpt lat="44.234010634701235" lon="12.360501479339847"><ele>-1.0</ele><time>2026-03-22T14:50:55.989Z</time></trkpt><trkpt lat="44.23414953557302" lon="12.360320327919805"><ele>-0.6666666666666666</ele><time>2026-03-22T14:50:56.989Z</time></trkpt><trkpt lat="44.234270453183186" lon="12.360132151221928"><ele>-0.3333333333333333</ele><time>2026-03-22T14:50:57.989Z</time></trkpt><trkpt lat="44.23438869114739" lon="12.359967601200463"><ele>0.0</ele><time>2026-03-22T14:50:58.989Z</time></trkpt><trkpt lat="44.23451421170465" lon="12.35981962692283"><ele>0.0</ele><time>2026-03-22T14:50:59.989Z</time></trkpt><trkpt lat="44.23463727438735" lon="12.359694161652238"><ele>0.0</ele><time>2026-03-22T14:51:00.989Z</time></trkpt><trkpt lat="44.23474400304162" lon="12.359589605620561"><ele>0.0</ele><time>2026-03-22T14:51:01.989Z</time></trkpt><trkpt lat="44.23484635959371" lon="12.359496470904155"><ele>0.0</ele><time>2026-03-22T14:51:02.989Z</time></trkpt><trkpt lat="44.23493915411832" lon="12.359415065377876"><ele>0.0</ele><time>2026-03-22T14:51:03.989Z</time></trkpt><trkpt lat="44.23503222234983" lon="12.359323296100673"><ele>0.0</ele><time>2026-03-22T14:51:04.989Z</time></trkpt><trkpt lat="44.235130420923625" lon="12.35923163167633"><ele>0.0</ele><time>2026-03-22T14:51:05.989Z</time></trkpt><trkpt lat="44.23523945171467" lon="12.359129234430211"><ele>0.0</ele><time>2026-03-22T14:51:06.989Z</time></trkpt><trkpt lat="44.23534939412568" lon="12.359015873484882"><ele>0.0</ele><time>2026-03-22T14:51:07.989Z</time></trkpt><trkpt lat="44.23545693978047" lon="12.358904404046816"><ele>0.0</ele><time>2026-03-22T14:51:08.989Z</time></trkpt><trkpt lat="44.23556896804755" lon="12.358791487058093"><ele>0.0</ele><time>2026-03-22T14:51:09.989Z</time></trkpt><trkpt lat="44.235681063006716" lon="12.358685185426326"><ele>0.0</ele><time>2026-03-22T14:51:10.989Z</time></trkpt><trkpt lat="44.235794029536216" lon="12.358576893146234"><ele>-0.25</ele><time>2026-03-22T14:51:11.989Z</time></trkpt><trkpt lat="44.2359065893501" lon="12.358466496502281"><ele>-0.5</ele><time>2026-03-22T14:51:12.989Z</time></trkpt><trkpt lat="44.23601983950144" lon="12.358354205070608"><ele>-0.75</ele><time>2026-03-22T14:51:13.989Z</time></trkpt><trkpt lat="44.23613356668433" lon="12.358245824928991"><ele>-1.0</ele><time>2026-03-22T14:51:14.989Z</time></trkpt><trkpt lat="44.23624406578595" lon="12.358139242983066"><ele>-1.0</ele><time>2026-03-22T14:51:15.989Z</time></trkpt><trkpt lat="44.23635923573091" lon="12.358029186221357"><ele>-1.0</ele><time>2026-03-22T14:51:16.989Z</time></trkpt><trkpt lat="44.23647645739521" lon="12.357918202556236"><ele>-1.0</ele><time>2026-03-22T14:51:17.989Z</time></trkpt><trkpt lat="44.23659093638107" lon="12.357811326811824"><ele>-1.0</ele><time>2026-03-22T14:51:18.989Z</time></trkpt><trkpt lat="44.23670316826896" lon="12.357697288611307"><ele>-1.0</ele><time>2026-03-22T14:51:19.989Z</time></trkpt><trkpt lat="44.23681870400796" lon="12.357582916376078"><ele>-1.0</ele><time>2026-03-22T14:51:20.989Z</time></trkpt><trkpt lat="44.23693069740682" lon="12.3574752587725"><ele>-1.0</ele><time>2026-03-22T14:51:21.989Z</time></trkpt><trkpt lat="44.23703906401449" lon="12.357374359529668"><ele>-1.0</ele><time>2026-03-22T14:51:22.989Z</time></trkpt><trkpt lat="44.237148255297996" lon="12.35726801360677"><ele>-1.0</ele><time>2026-03-22T14:51:23.989Z</time></trkpt><trkpt lat="44.2372636633198" lon="12.357151130957208"><ele>-1.0</ele><time>2026-03-22T14:51:24.989Z</time></trkpt><trkpt lat="44.23737975725026" lon="12.357044299426498"><ele>-1.0</ele><time>2026-03-22T14:51:25.989Z</time></trkpt><trkpt lat="44.23748764303516" lon="12.356936090491084"><ele>-1.0</ele><time>2026-03-22T14:51:26.989Z</time></trkpt><trkpt lat="44.23759851290832" lon="12.356822157609075"><ele>-1.0</ele><time>2026-03-22T14:51:27.989Z</time></trkpt><trkpt lat="44.23772111104197" lon="12.35670725540594"><ele>-1.0</ele><time>2026-03-22T14:51:28.989Z</time></trkpt><trkpt lat="44.23784779562577" lon="12.35659062274228"><ele>-1.0</ele><time>2026-03-22T14:51:29.989Z</time></trkpt><trkpt lat="44.23797685514794" lon="12.35646592344599"><ele>-1.3333333333333333</ele><time>2026-03-22T14:51:30.989Z</time></trkpt><trkpt lat="44.238109643812905" lon="12.356337112556744"><ele>-1.6666666666666665</ele><time>2026-03-22T14:51:31.989Z</time></trkpt><trkpt lat="44.23823297866732" lon="12.35621415186337"><ele>-2.0</ele><time>2026-03-22T14:51:32.989Z</time></trkpt><trkpt lat="44.23836335084446" lon="12.35607851038071"><ele>-2.333333333333333</ele><time>2026-03-22T14:51:33.989Z</time></trkpt><trkpt lat="44.23850467229164" lon="12.355933165802616"><ele>-2.6666666666666665</ele><time>2026-03-22T14:51:34.989Z</time></trkpt><trkpt lat="44.23865336624192" lon="12.355779129225482"><ele>-3.0</ele><time>2026-03-22T14:51:35.989Z</time></trkpt><trkpt lat="44.23881024787964" lon="12.355629001583683"><ele>-2.6666666666666665</ele><time>2026-03-22T14:51:36.989Z</time></trkpt><trkpt lat="44.23897491299572" lon="12.355468853389176"><ele>-2.333333333333333</ele><time>2026-03-22T14:51:37.989Z</time></trkpt><trkpt lat="44.23914309313357" lon="12.35530319642025"><ele>-2.0</ele><time>2026-03-22T14:51:38.989Z</time></trkpt><trkpt lat="44.23930537969791" lon="12.355143516500927"><ele>-2.0</ele><time>2026-03-22T14:51:39.989Z</time></trkpt><trkpt lat="44.239463792068825" lon="12.354991851620847"><ele>-2.0</ele><time>2026-03-22T14:51:40.989Z</time></trkpt><trkpt lat="44.239612068970054" lon="12.354851055334775"><ele>-2.0</ele><time>2026-03-22T14:51:41.989Z</time></trkpt><trkpt lat="44.239759437468614" lon="12.354708922747127"><ele>-1.6666666666666665</ele><time>2026-03-22T14:51:42.989Z</time></trkpt><trkpt lat="44.23990345198712" lon="12.354570867821456"><ele>-1.3333333333333333</ele><time>2026-03-22T14:51:43.989Z</time></trkpt><trkpt lat="44.2400388721934" lon="12.354440397525787"><ele>-1.0</ele><time>2026-03-22T14:51:44.989Z</time></trkpt><trkpt lat="44.240171121334576" lon="12.354313608049816"><ele>-1.0</ele><time>2026-03-22T14:51:45.989Z</time></trkpt><trkpt lat="44.240320848215795" lon="12.35418014055047"><ele>-1.0</ele><time>2026-03-22T14:51:46.989Z</time></trkpt><trkpt lat="44.24047150938984" lon="12.354058932177502"><ele>-1.0</ele><time>2026-03-22T14:51:47.989Z</time></trkpt><trkpt lat="44.2406170904141" lon="12.353949915105886"><ele>-1.6666666666666665</ele><time>2026-03-22T14:51:48.989Z</time></trkpt><trkpt lat="44.24076098282313" lon="12.353845384728576"><ele>-2.3333333333333335</ele><time>2026-03-22T14:51:49.989Z</time></trkpt><trkpt lat="44.240906368147535" lon="12.353738347171078"><ele>-3.0</ele><time>2026-03-22T14:51:50.989Z</time></trkpt><trkpt lat="44.241048592781084" lon="12.353631799332005"><ele>-3.0</ele><time>2026-03-22T14:51:51.989Z</time></trkpt><trkpt lat="44.24119475975998" lon="12.353525621537297"><ele>-3.0</ele><time>2026-03-22T14:51:52.989Z</time></trkpt><trkpt lat="44.241349709982345" lon="12.35341235844936"><ele>-3.0</ele><time>2026-03-22T14:51:53.989Z</time></trkpt><trkpt lat="44.24151624351492" lon="12.353279345102958"><ele>-3.0</ele><time>2026-03-22T14:51:54.989Z</time></trkpt><trkpt lat="44.24169808416498" lon="12.353147463151355"><ele>-3.0</ele><time>2026-03-22T14:51:55.989Z</time></trkpt><trkpt lat="44.24188361281508" lon="12.353023228162376"><ele>-3.0</ele><time>2026-03-22T14:51:56.989Z</time></trkpt><trkpt lat="44.24205432116226" lon="12.352903071898389"><ele>-3.0</ele><time>2026-03-22T14:51:57.989Z</time></trkpt><trkpt lat="44.24221287252431" lon="12.352789432575086"><ele>-3.0</ele><time>2026-03-22T14:51:58.989Z</time></trkpt><trkpt lat="44.242361011430866" lon="12.352688187169381"><ele>-3.0</ele><time>2026-03-22T14:51:59.989Z</time></trkpt><trkpt lat="44.24249602250075" lon="12.352580834591006"><ele>-2.3333333333333335</ele><time>2026-03-22T14:52:00.989Z</time></trkpt><trkpt lat="44.24262520698885" lon="12.352482980818403"><ele>-1.6666666666666665</ele><time>2026-03-22T14:52:01.989Z</time></trkpt><trkpt lat="44.242763115811975" lon="12.352375359922737"><ele>-1.0</ele><time>2026-03-22T14:52:02.989Z</time></trkpt><trkpt lat="44.24290416786182" lon="12.352263225144512"><ele>-1.0</ele><time>2026-03-22T14:52:03.989Z</time></trkpt><trkpt lat="44.243055875618296" lon="12.35214683931204"><ele>-1.0</ele><time>2026-03-22T14:52:04.989Z</time></trkpt><trkpt lat="44.24322433657182" lon="12.352012221332837"><ele>-1.0</ele><time>2026-03-22T14:52:05.989Z</time></trkpt><trkpt lat="44.243409768395416" lon="12.351881577550326"><ele>-1.0</ele><time>2026-03-22T14:52:06.989Z</time></trkpt><trkpt lat="44.24360261530134" lon="12.351757025873212"><ele>-1.0</ele><time>2026-03-22T14:52:07.989Z</time></trkpt><trkpt lat="44.243773661670225" lon="12.351638258398108"><ele>-1.0</ele><time>2026-03-22T14:52:08.989Z</time></trkpt><trkpt lat="44.243939736441924" lon="12.351513545720309"><ele>-1.0</ele><time>2026-03-22T14:52:09.989Z</time></trkpt><trkpt lat="44.24410824976193" lon="12.351392566091679"><ele>-1.0</ele><time>2026-03-22T14:52:10.989Z</time></trkpt><trkpt lat="44.244268622533916" lon="12.351275429379355"><ele>-1.0</ele><time>2026-03-22T14:52:11.989Z</time></trkpt><trkpt lat="44.2444155870772" lon="12.351165752580668"><ele>-1.3333333333333333</ele><time>2026-03-22T14:52:12.989Z</time></trkpt><trkpt lat="44.24455570659487" lon="12.35106100326189"><ele>-1.6666666666666665</ele><time>2026-03-22T14:52:13.989Z</time></trkpt><trkpt lat="44.24469514973592" lon="12.350963019063286"><ele>-2.0</ele><time>2026-03-22T14:52:14.989Z</time></trkpt><trkpt lat="44.24483597100061" lon="12.350860791954647"><ele>-2.333333333333333</ele><time>2026-03-22T14:52:15.989Z</time></trkpt><trkpt lat="44.24497629569171" lon="12.350753485997515"><ele>-2.6666666666666665</ele><time>2026-03-22T14:52:16.989Z</time></trkpt><trkpt lat="44.24512395689559" lon="12.35064363430347"><ele>-3.0</ele><time>2026-03-22T14:52:17.989Z</time></trkpt><trkpt lat="44.2452822995332" lon="12.350520890320729"><ele>-3.0</ele><time>2026-03-22T14:52:18.989Z</time></trkpt><trkpt lat="44.24546207480895" lon="12.35038160513937"><ele>-3.0</ele><time>2026-03-22T14:52:19.989Z</time></trkpt><trkpt lat="44.245661032092585" lon="12.350243536912394"><ele>-3.0</ele><time>2026-03-22T14:52:20.989Z</time></trkpt><trkpt lat="44.245854369726445" lon="12.350108617701173"><ele>-3.0</ele><time>2026-03-22T14:52:21.989Z</time></trkpt><trkpt lat="44.24604323033658" lon="12.349970906814601"><ele>-3.0</ele><time>2026-03-22T14:52:22.989Z</time></trkpt><trkpt lat="44.24623682751701" lon="12.349828613248917"><ele>-3.0</ele><time>2026-03-22T14:52:23.989Z</time></trkpt><trkpt lat="44.246445694801515" lon="12.349675678983886"><ele>-3.0</ele><time>2026-03-22T14:52:24.989Z</time></trkpt><trkpt lat="44.24666017840678" lon="12.349520184469064"><ele>-3.0</ele><time>2026-03-22T14:52:25.989Z</time></trkpt><trkpt lat="44.246875340176736" lon="12.349367956506457"><ele>-3.0</ele><time>2026-03-22T14:52:26.988Z</time></trkpt><trkpt lat="44.24707780095995" lon="12.34921811807035"><ele>-3.0</ele><time>2026-03-22T14:52:27.989Z</time></trkpt><trkpt lat="44.247267943770524" lon="12.349080921968993"><ele>-3.0</ele><time>2026-03-22T14:52:28.989Z</time></trkpt><trkpt lat="44.24745821133281" lon="12.348942637019988"><ele>-3.333333333333333</ele><time>2026-03-22T14:52:29.989Z</time></trkpt><trkpt lat="44.24765045082092" lon="12.348799335668572"><ele>-3.6666666666666665</ele><time>2026-03-22T14:52:30.989Z</time></trkpt><trkpt lat="44.247842151870486" lon="12.348650357123827"><ele>-4.0</ele><time>2026-03-22T14:52:31.989Z</time></trkpt><trkpt lat="44.24803729636293" lon="12.348516634485716"><ele>-3.0</ele><time>2026-03-22T14:52:32.989Z</time></trkpt><trkpt lat="44.248218741576615" lon="12.348383842457457"><ele>-2.0</ele><time>2026-03-22T14:52:33.989Z</time></trkpt><trkpt lat="44.24838663693943" lon="12.348260960388336"><ele>-1.0</ele><time>2026-03-22T14:52:34.989Z</time></trkpt><trkpt lat="44.24854488551293" lon="12.348149761410445"><ele>-2.0</ele><time>2026-03-22T14:52:35.989Z</time></trkpt><trkpt lat="44.2486877031036" lon="12.34804140648218"><ele>-3.0</ele><time>2026-03-22T14:52:36.989Z</time></trkpt><trkpt lat="44.248822267184245" lon="12.347940563795744"><ele>-4.0</ele><time>2026-03-22T14:52:37.989Z</time></trkpt><trkpt lat="44.2489569502138" lon="12.347846063691536"><ele>-3.0</ele><time>2026-03-22T14:52:38.988Z</time></trkpt><trkpt lat="44.249096423436065" lon="12.347745344960561"><ele>-2.0</ele><time>2026-03-22T14:52:39.989Z</time></trkpt><trkpt lat="44.24923093572077" lon="12.347648797246773"><ele>-1.0</ele><time>2026-03-22T14:52:40.989Z</time></trkpt><trkpt lat="44.24935783714563" lon="12.347559977640053"><ele>-1.0</ele><time>2026-03-22T14:52:41.989Z</time></trkpt><trkpt lat="44.249482007481184" lon="12.347464876312042"><ele>-1.0</ele><time>2026-03-22T14:52:42.989Z</time></trkpt><trkpt lat="44.24960983278661" lon="12.347370431734543"><ele>-1.0</ele><time>2026-03-22T14:52:43.989Z</time></trkpt><trkpt lat="44.249746058082216" lon="12.347268976017734"><ele>-1.0</ele><time>2026-03-22T14:52:44.989Z</time></trkpt><trkpt lat="44.24988385574147" lon="12.347164671586592"><ele>-1.3333333333333333</ele><time>2026-03-22T14:52:45.989Z</time></trkpt><trkpt lat="44.250022797923094" lon="12.347060623129236"><ele>-1.6666666666666665</ele><time>2026-03-22T14:52:46.989Z</time></trkpt><trkpt lat="44.250157277159616" lon="12.34695252294772"><ele>-2.0</ele><time>2026-03-22T14:52:47.989Z</time></trkpt><trkpt lat="44.25029006382306" lon="12.346844315068685"><ele>-2.0</ele><time>2026-03-22T14:52:48.989Z</time></trkpt><trkpt lat="44.25042554293161" lon="12.346722403394972"><ele>-2.0</ele><time>2026-03-22T14:52:49.989Z</time></trkpt><trkpt lat="44.250566102575924" lon="12.346599318909691"><ele>-2.0</ele><time>2026-03-22T14:52:50.989Z</time></trkpt><trkpt lat="44.250707054105334" lon="12.346468362619035"><ele>-1.6666666666666665</ele><time>2026-03-22T14:52:51.989Z</time></trkpt><trkpt lat="44.250843743591616" lon="12.346326791209762"><ele>-1.3333333333333333</ele><time>2026-03-22T14:52:52.989Z</time></trkpt><trkpt lat="44.25097680310142" lon="12.346187052738653"><ele>-1.0</ele><time>2026-03-22T14:52:53.989Z</time></trkpt><trkpt lat="44.251104018480625" lon="12.346051496204439"><ele>-1.0</ele><time>2026-03-22T14:52:54.989Z</time></trkpt><trkpt lat="44.25122508142611" lon="12.345915004801405"><ele>-1.0</ele><time>2026-03-22T14:52:55.989Z</time></trkpt><trkpt lat="44.251338234377016" lon="12.34577906611719"><ele>-1.0</ele><time>2026-03-22T14:52:56.989Z</time></trkpt><trkpt lat="44.25145339949857" lon="12.34564135203366"><ele>0.0</ele><time>2026-03-22T14:52:57.989Z</time></trkpt><trkpt lat="44.25156490553255" lon="12.345498985695698"><ele>1.0</ele><time>2026-03-22T14:52:58.989Z</time></trkpt><trkpt lat="44.25167959309977" lon="12.345364260733316"><ele>2.0</ele><time>2026-03-22T14:52:59.989Z</time></trkpt><trkpt lat="44.25179039520592" lon="12.345219799221754"><ele>2.0</ele><time>2026-03-22T14:53:00.989Z</time></trkpt><trkpt lat="44.251893907358365" lon="12.345075953032113"><ele>2.0</ele><time>2026-03-22T14:53:01.989Z</time></trkpt><trkpt lat="44.25199949995548" lon="12.344927735751599"><ele>2.0</ele><time>2026-03-22T14:53:02.989Z</time></trkpt><trkpt lat="44.252095680148834" lon="12.344780119312343"><ele>2.0</ele><time>2026-03-22T14:53:03.989Z</time></trkpt><trkpt lat="44.25219917610505" lon="12.344627959604248"><ele>1.6666666666666665</ele><time>2026-03-22T14:53:04.989Z</time></trkpt><trkpt lat="44.252305381996244" lon="12.34447601698743"><ele>1.3333333333333333</ele><time>2026-03-22T14:53:05.989Z</time></trkpt><trkpt lat="44.25241421207527" lon="12.344324815250422"><ele>1.0</ele><time>2026-03-22T14:53:06.989Z</time></trkpt><trkpt lat="44.252524869285686" lon="12.344165831271345"><ele>1.0</ele><time>2026-03-22T14:53:07.989Z</time></trkpt><trkpt lat="44.25263609678855" lon="12.343992968176568"><ele>1.0</ele><time>2026-03-22T14:53:08.989Z</time></trkpt><trkpt lat="44.25275230901095" lon="12.34380260749717"><ele>1.0</ele><time>2026-03-22T14:53:09.989Z</time></trkpt><trkpt lat="44.252883905362346" lon="12.343599727963948"><ele>0.3333333333333333</ele><time>2026-03-22T14:53:10.989Z</time></trkpt><trkpt lat="44.25303305707337" lon="12.343389100048958"><ele>-0.3333333333333333</ele><time>2026-03-22T14:53:11.989Z</time></trkpt><trkpt lat="44.25319005937436" lon="12.343166378071322"><ele>-1.0</ele><time>2026-03-22T14:53:12.989Z</time></trkpt><trkpt lat="44.25334889964494" lon="12.342933205244385"><ele>-1.0</ele><time>2026-03-22T14:53:13.989Z</time></trkpt><trkpt lat="44.2535138913569" lon="12.342698540291902"><ele>-1.0</ele><time>2026-03-22T14:53:14.989Z</time></trkpt><trkpt lat="44.25367138890455" lon="12.342477336684961"><ele>-1.0</ele><time>2026-03-22T14:53:15.989Z</time></trkpt><trkpt lat="44.253813804426585" lon="12.342268444685917"><ele>-1.0</ele><time>2026-03-22T14:53:16.989Z</time></trkpt><trkpt lat="44.2539448091476" lon="12.342073162060439"><ele>-1.0</ele><time>2026-03-22T14:53:17.989Z</time></trkpt><trkpt lat="44.25407075878199" lon="12.34188690412577"><ele>-1.3333333333333333</ele><time>2026-03-22T14:53:18.989Z</time></trkpt><trkpt lat="44.25418405030447" lon="12.34171725349222"><ele>-1.6666666666666665</ele><time>2026-03-22T14:53:19.989Z</time></trkpt><trkpt lat="44.25428801065616" lon="12.341558082635425"><ele>-2.0</ele><time>2026-03-22T14:53:20.989Z</time></trkpt><trkpt lat="44.254388673299474" lon="12.341410737763244"><ele>-2.0</ele><time>2026-03-22T14:53:21.989Z</time></trkpt><trkpt lat="44.25448735692145" lon="12.341270755499403"><ele>-2.0</ele><time>2026-03-22T14:53:22.989Z</time></trkpt><trkpt lat="44.25458218827906" lon="12.341134295037481"><ele>-2.0</ele><time>2026-03-22T14:53:23.989Z</time></trkpt><trkpt lat="44.25465838978237" lon="12.341019340086298"><ele>-2.0</ele><time>2026-03-22T14:53:24.989Z</time></trkpt><trkpt lat="44.25473501260921" lon="12.340898914899396"><ele>-2.25</ele><time>2026-03-22T14:53:25.989Z</time></trkpt><trkpt lat="44.25481079637156" lon="12.34077775827312"><ele>-2.5</ele><time>2026-03-22T14:53:26.989Z</time></trkpt><trkpt lat="44.254888920524564" lon="12.340654542825247"><ele>-2.75</ele><time>2026-03-22T14:53:27.989Z</time></trkpt><trkpt lat="44.254975164389776" lon="12.34053460980864"><ele>-3.0</ele><time>2026-03-22T14:53:28.989Z</time></trkpt><trkpt lat="44.2550602590112" lon="12.340400820224868"><ele>-2.3333333333333335</ele><time>2026-03-22T14:53:29.989Z</time></trkpt><trkpt lat="44.255159083238816" lon="12.340254164836486"><ele>-1.6666666666666665</ele><time>2026-03-22T14:53:30.989Z</time></trkpt><trkpt lat="44.255258242292086" lon="12.340104824175915"><ele>-1.0</ele><time>2026-03-22T14:53:31.989Z</time></trkpt><trkpt lat="44.25536732426893" lon="12.339923411843692"><ele>-1.0</ele><time>2026-03-22T14:53:32.989Z</time></trkpt><trkpt lat="44.2555013284353" lon="12.339728679872827"><ele>-1.0</ele><time>2026-03-22T14:53:33.989Z</time></trkpt><trkpt lat="44.255640444789435" lon="12.339537123339102"><ele>-1.0</ele><time>2026-03-22T14:53:34.989Z</time></trkpt><trkpt lat="44.25577692034273" lon="12.339345182872552"><ele>-1.0</ele><time>2026-03-22T14:53:35.989Z</time></trkpt><trkpt lat="44.25590054206507" lon="12.339175940125747"><ele>-1.0</ele><time>2026-03-22T14:53:36.989Z</time></trkpt><trkpt lat="44.25600847603039" lon="12.339019876176023"><ele>-1.0</ele><time>2026-03-22T14:53:37.989Z</time></trkpt><trkpt lat="44.25610809442625" lon="12.338871325571002"><ele>-1.0</ele><time>2026-03-22T14:53:38.989Z</time></trkpt><trkpt lat="44.25620456088652" lon="12.338724842425725"><ele>-1.0</ele><time>2026-03-22T14:53:39.989Z</time></trkpt><trkpt lat="44.25629507091504" lon="12.338592948706896"><ele>-1.0</ele><time>2026-03-22T14:53:40.989Z</time></trkpt><trkpt lat="44.256386783339025" lon="12.338458916293183"><ele>-1.0</ele><time>2026-03-22T14:53:41.989Z</time></trkpt><trkpt lat="44.256480804762205" lon="12.338303559824869"><ele>-1.0</ele><time>2026-03-22T14:53:42.989Z</time></trkpt><trkpt lat="44.25658971579788" lon="12.338122284246726"><ele>-1.0</ele><time>2026-03-22T14:53:43.989Z</time></trkpt><trkpt lat="44.256710074124314" lon="12.337939947374425"><ele>-1.0</ele><time>2026-03-22T14:53:44.989Z</time></trkpt><trkpt lat="44.256819148692486" lon="12.337783709831637"><ele>-1.0</ele><time>2026-03-22T14:53:45.989Z</time></trkpt><trkpt lat="44.25689878067495" lon="12.337664169148763"><ele>-1.0</ele><time>2026-03-22T14:53:46.989Z</time></trkpt><trkpt lat="44.2569837262062" lon="12.337578746082446"><ele>-1.0</ele><time>2026-03-22T14:53:47.989Z</time></trkpt><trkpt lat="44.25707656341114" lon="12.337524420620975"><ele>-1.0</ele><time>2026-03-22T14:53:48.989Z</time></trkpt><trkpt lat="44.25717903029488" lon="12.337517416537203"><ele>-1.0</ele><time>2026-03-22T14:53:49.989Z</time></trkpt><trkpt lat="44.25728969433099" lon="12.337532201983668"><ele>-1.0</ele><time>2026-03-22T14:53:50.989Z</time></trkpt><trkpt lat="44.25740335244858" lon="12.337520278283865"><ele>-1.0</ele><time>2026-03-22T14:53:51.989Z</time></trkpt><trkpt lat="44.25750337300115" lon="12.337454933085194"><ele>-1.0</ele><time>2026-03-22T14:53:52.989Z</time></trkpt><trkpt lat="44.257578295981894" lon="12.33734079710816"><ele>-1.0</ele><time>2026-03-22T14:53:53.989Z</time></trkpt><trkpt lat="44.25763620525394" lon="12.337201335637149"><ele>-1.25</ele><time>2026-03-22T14:53:54.989Z</time></trkpt><trkpt lat="44.25766676175911" lon="12.337059323480082"><ele>-1.5</ele><time>2026-03-22T14:53:55.989Z</time></trkpt><trkpt lat="44.25767890094107" lon="12.33691262190937"><ele>-1.75</ele><time>2026-03-22T14:53:56.989Z</time></trkpt><trkpt lat="44.25768588345382" lon="12.336745882868339"><ele>-2.0</ele><time>2026-03-22T14:53:57.989Z</time></trkpt><trkpt lat="44.257706245030995" lon="12.336569898657912"><ele>-2.0</ele><time>2026-03-22T14:53:58.989Z</time></trkpt><trkpt lat="44.25777221726096" lon="12.336413187438762"><ele>-2.0</ele><time>2026-03-22T14:53:59.989Z</time></trkpt><trkpt lat="44.25790399008039" lon="12.336267241927143"><ele>-2.0</ele><time>2026-03-22T14:54:00.989Z</time></trkpt><trkpt lat="44.25803908535427" lon="12.336095019360092"><ele>-2.333333333333333</ele><time>2026-03-22T14:54:01.989Z</time></trkpt><trkpt lat="44.25817414405416" lon="12.335912286387417"><ele>-2.6666666666666665</ele><time>2026-03-22T14:54:02.989Z</time></trkpt><trkpt lat="44.25830871669011" lon="12.33572080884551"><ele>-3.0</ele><time>2026-03-22T14:54:03.989Z</time></trkpt><trkpt lat="44.25845808043754" lon="12.335523293563329"><ele>-3.0</ele><time>2026-03-22T14:54:04.989Z</time></trkpt><trkpt lat="44.258607289261136" lon="12.335323719275282"><ele>-3.0</ele><time>2026-03-22T14:54:05.989Z</time></trkpt><trkpt lat="44.25876614812616" lon="12.335120708029887"><ele>-3.0</ele><time>2026-03-22T14:54:06.989Z</time></trkpt><trkpt lat="44.25893144683251" lon="12.334920485773718"><ele>-2.6666666666666665</ele><time>2026-03-22T14:54:07.989Z</time></trkpt><trkpt lat="44.259108013028865" lon="12.334725838095384"><ele>-2.333333333333333</ele><time>2026-03-22T14:54:08.989Z</time></trkpt><trkpt lat="44.259291593949435" lon="12.334546914845959"><ele>-2.0</ele><time>2026-03-22T14:54:09.989Z</time></trkpt><trkpt lat="44.25947869498678" lon="12.334376080438684"><ele>-2.6666666666666665</ele><time>2026-03-22T14:54:10.989Z</time></trkpt><trkpt lat="44.25966775757036" lon="12.334214051327923"><ele>-3.333333333333333</ele><time>2026-03-22T14:54:11.989Z</time></trkpt><trkpt lat="44.259861184306416" lon="12.334060673495134"><ele>-4.0</ele><time>2026-03-22T14:54:12.989Z</time></trkpt><trkpt lat="44.26004920115398" lon="12.333924840118463"><ele>-4.333333333333333</ele><time>2026-03-22T14:54:13.989Z</time></trkpt><trkpt lat="44.26022717887405" lon="12.333801319652505"><ele>-4.666666666666667</ele><time>2026-03-22T14:54:14.989Z</time></trkpt><trkpt lat="44.26039376151765" lon="12.33368482534049"><ele>-5.0</ele><time>2026-03-22T14:54:15.989Z</time></trkpt><trkpt lat="44.260554245807725" lon="12.333572538446065"><ele>-4.0</ele><time>2026-03-22T14:54:16.989Z</time></trkpt><trkpt lat="44.26071431424617" lon="12.333457708649169"><ele>-3.0</ele><time>2026-03-22T14:54:17.989Z</time></trkpt><trkpt lat="44.26087762186488" lon="12.333336003120879"><ele>-2.0</ele><time>2026-03-22T14:54:18.989Z</time></trkpt><trkpt lat="44.261042827039624" lon="12.333211872638607"><ele>-2.0</ele><time>2026-03-22T14:54:19.989Z</time></trkpt><trkpt lat="44.261210825690085" lon="12.33309084268507"><ele>-2.0</ele><time>2026-03-22T14:54:20.989Z</time></trkpt><trkpt lat="44.26138096772468" lon="12.332970884470909"><ele>-2.0</ele><time>2026-03-22T14:54:21.989Z</time></trkpt><trkpt lat="44.26154802481529" lon="12.332850424551935"><ele>-2.0</ele><time>2026-03-22T14:54:22.989Z</time></trkpt><trkpt lat="44.2617138436235" lon="12.332729309840213"><ele>-2.0</ele><time>2026-03-22T14:54:23.989Z</time></trkpt><trkpt lat="44.26188207507757" lon="12.3326078337107"><ele>-2.0</ele><time>2026-03-22T14:54:24.989Z</time></trkpt><trkpt lat="44.26204865590824" lon="12.332484165183512"><ele>-2.0</ele><time>2026-03-22T14:54:25.989Z</time></trkpt><trkpt lat="44.262216350347515" lon="12.332362384049413"><ele>-2.0</ele><time>2026-03-22T14:54:26.989Z</time></trkpt><trkpt lat="44.26238581299724" lon="12.33223809801524"><ele>-2.0</ele><time>2026-03-22T14:54:27.989Z</time></trkpt><trkpt lat="44.262556105350654" lon="12.332117554071848"><ele>-2.6666666666666665</ele><time>2026-03-22T14:54:28.989Z</time></trkpt><trkpt lat="44.26272842687456" lon="12.331992813252324"><ele>-3.333333333333333</ele><time>2026-03-22T14:54:29.989Z</time></trkpt><trkpt lat="44.2628999467536" lon="12.331867690706542"><ele>-4.0</ele><time>2026-03-22T14:54:30.989Z</time></trkpt><trkpt lat="44.263066654354844" lon="12.331747541690493"><ele>-3.333333333333333</ele><time>2026-03-22T14:54:31.989Z</time></trkpt><trkpt lat="44.26321981861207" lon="12.331635700178078"><ele>-2.6666666666666665</ele><time>2026-03-22T14:54:32.989Z</time></trkpt><trkpt lat="44.26337199547437" lon="12.331528392961488"><ele>-2.0</ele><time>2026-03-22T14:54:33.988Z</time></trkpt><trkpt lat="44.26352685501899" lon="12.331418697402256"><ele>-2.0</ele><time>2026-03-22T14:54:34.988Z</time></trkpt><trkpt lat="44.263685343314535" lon="12.33131585982468"><ele>-2.0</ele><time>2026-03-22T14:54:35.988Z</time></trkpt><trkpt lat="44.263834348518294" lon="12.331202095332799"><ele>-2.0</ele><time>2026-03-22T14:54:36.988Z</time></trkpt><trkpt lat="44.26398504892675" lon="12.331093988272317"><ele>-2.0</ele><time>2026-03-22T14:54:37.988Z</time></trkpt><trkpt lat="44.26413794972888" lon="12.330987734950671"><ele>-2.0</ele><time>2026-03-22T14:54:38.988Z</time></trkpt><trkpt lat="44.26428879871112" lon="12.330879292226218"><ele>-2.0</ele><time>2026-03-22T14:54:39.988Z</time></trkpt><trkpt lat="44.26443835280556" lon="12.33076690744381"><ele>-2.0</ele><time>2026-03-22T14:54:40.988Z</time></trkpt><trkpt lat="44.26459232744869" lon="12.33066016906133"><ele>-2.0</ele><time>2026-03-22T14:54:41.988Z</time></trkpt><trkpt lat="44.264752488593636" lon="12.330537910297847"><ele>-2.0</ele><time>2026-03-22T14:54:42.988Z</time></trkpt><trkpt lat="44.264927153456675" lon="12.330407392173253"><ele>-2.333333333333333</ele><time>2026-03-22T14:54:43.988Z</time></trkpt><trkpt lat="44.26511790591779" lon="12.330275741187343"><ele>-2.6666666666666665</ele><time>2026-03-22T14:54:44.989Z</time></trkpt><trkpt lat="44.26531202903648" lon="12.330148420827763"><ele>-3.0</ele><time>2026-03-22T14:54:45.988Z</time></trkpt><trkpt lat="44.265504848432684" lon="12.330022269723091"><ele>-3.0</ele><time>2026-03-22T14:54:46.988Z</time></trkpt><trkpt lat="44.26569570038011" lon="12.329887033144313"><ele>-3.0</ele><time>2026-03-22T14:54:47.988Z</time></trkpt><trkpt lat="44.265884145832594" lon="12.32975960819557"><ele>-3.0</ele><time>2026-03-22T14:54:48.988Z</time></trkpt><trkpt lat="44.266071902443244" lon="12.329620207814276"><ele>-3.0</ele><time>2026-03-22T14:54:49.988Z</time></trkpt><trkpt lat="44.266261017394285" lon="12.329488075767065"><ele>-3.0</ele><time>2026-03-22T14:54:50.988Z</time></trkpt><trkpt lat="44.26644494151308" lon="12.329352500986836"><ele>-3.0</ele><time>2026-03-22T14:54:51.988Z</time></trkpt><trkpt lat="44.266617797487136" lon="12.329226833946851"><ele>-2.3333333333333335</ele><time>2026-03-22T14:54:52.988Z</time></trkpt><trkpt lat="44.26679496211601" lon="12.32911350405702"><ele>-1.6666666666666665</ele><time>2026-03-22T14:54:53.988Z</time></trkpt><trkpt lat="44.26696435782666" lon="12.328992378206163"><ele>-1.0</ele><time>2026-03-22T14:54:54.988Z</time></trkpt><trkpt lat="44.26712809091584" lon="12.328873823803956"><ele>-1.0</ele><time>2026-03-22T14:54:55.988Z</time></trkpt><trkpt lat="44.26727945455721" lon="12.328762760791356"><ele>-1.0</ele><time>2026-03-22T14:54:56.988Z</time></trkpt><trkpt lat="44.26742172422165" lon="12.328661379128626"><ele>-1.0</ele><time>2026-03-22T14:54:57.988Z</time></trkpt><trkpt lat="44.26755288218178" lon="12.328565644429831"><ele>-1.0</ele><time>2026-03-22T14:54:58.988Z</time></trkpt><trkpt lat="44.267673670628255" lon="12.328475866924649"><ele>-1.0</ele><time>2026-03-22T14:54:59.988Z</time></trkpt><trkpt lat="44.26779475537363" lon="12.328388011549869"><ele>-1.0</ele><time>2026-03-22T14:55:00.988Z</time></trkpt><trkpt lat="44.267918397011556" lon="12.328300305428828"><ele>-1.0</ele><time>2026-03-22T14:55:01.988Z</time></trkpt><trkpt lat="44.26803714845245" lon="12.328214704964205"><ele>-1.25</ele><time>2026-03-22T14:55:02.987Z</time></trkpt><trkpt lat="44.268147470721786" lon="12.328139676592798"><ele>-1.5</ele><time>2026-03-22T14:55:03.987Z</time></trkpt><trkpt lat="44.268260567928046" lon="12.328057375621535"><ele>-1.75</ele><time>2026-03-22T14:55:04.987Z</time></trkpt><trkpt lat="44.26837341094574" lon="12.327978001946327"><ele>-2.0</ele><time>2026-03-22T14:55:05.987Z</time></trkpt><trkpt lat="44.26848405740457" lon="12.32789777706363"><ele>-2.0</ele><time>2026-03-22T14:55:06.987Z</time></trkpt><trkpt lat="44.2685947011002" lon="12.327822006938543"><ele>-2.0</ele><time>2026-03-22T14:55:07.987Z</time></trkpt><trkpt lat="44.26869721046951" lon="12.327747121550912"><ele>-2.0</ele><time>2026-03-22T14:55:08.987Z</time></trkpt><trkpt lat="44.26879805664142" lon="12.327668216845767"><ele>-2.0</ele><time>2026-03-22T14:55:09.986Z</time></trkpt><trkpt lat="44.2689056197009" lon="12.327592839638163"><ele>-1.75</ele><time>2026-03-22T14:55:10.986Z</time></trkpt><trkpt lat="44.26901380625846" lon="12.327516935077002"><ele>-1.5</ele><time>2026-03-22T14:55:11.986Z</time></trkpt><trkpt lat="44.269123163809915" lon="12.327440801713518"><ele>-1.25</ele><time>2026-03-22T14:55:12.986Z</time></trkpt><trkpt lat="44.26923475030037" lon="12.32736246409097"><ele>-1.0</ele><time>2026-03-22T14:55:13.986Z</time></trkpt><trkpt lat="44.269350449736635" lon="12.327280824337523"><ele>-1.0</ele><time>2026-03-22T14:55:14.986Z</time></trkpt><trkpt lat="44.269471213559356" lon="12.327192333020376"><ele>-1.0</ele><time>2026-03-22T14:55:15.986Z</time></trkpt><trkpt lat="44.269596910838274" lon="12.327105161725491"><ele>-1.0</ele><time>2026-03-22T14:55:16.986Z</time></trkpt><trkpt lat="44.26972548447527" lon="12.327015586516527"><ele>-1.0</ele><time>2026-03-22T14:55:17.986Z</time></trkpt><trkpt lat="44.269858467732966" lon="12.326927231656356"><ele>-1.0</ele><time>2026-03-22T14:55:18.986Z</time></trkpt><trkpt lat="44.26999565218004" lon="12.326826886658893"><ele>-1.0</ele><time>2026-03-22T14:55:19.986Z</time></trkpt><trkpt lat="44.27014116988672" lon="12.326717830124986"><ele>-1.0</ele><time>2026-03-22T14:55:20.986Z</time></trkpt><trkpt lat="44.27028947113046" lon="12.326610572712532"><ele>-1.0</ele><time>2026-03-22T14:55:21.986Z</time></trkpt><trkpt lat="44.270447796740456" lon="12.326497726305051"><ele>-1.0</ele><time>2026-03-22T14:55:22.986Z</time></trkpt><trkpt lat="44.27061672109783" lon="12.326380324137537"><ele>-1.0</ele><time>2026-03-22T14:55:23.986Z</time></trkpt><trkpt lat="44.270796695348395" lon="12.32625017475863"><ele>-0.3333333333333333</ele><time>2026-03-22T14:55:24.986Z</time></trkpt><trkpt lat="44.27098959135428" lon="12.326107241610728"><ele>0.3333333333333333</ele><time>2026-03-22T14:55:25.985Z</time></trkpt><trkpt lat="44.271188593437365" lon="12.325962322722264"><ele>1.0</ele><time>2026-03-22T14:55:26.985Z</time></trkpt><trkpt lat="44.27139436248593" lon="12.32581850227417"><ele>1.0</ele><time>2026-03-22T14:55:27.985Z</time></trkpt><trkpt lat="44.271609520650955" lon="12.325665132887137"><ele>1.0</ele><time>2026-03-22T14:55:28.985Z</time></trkpt><trkpt lat="44.27183157599584" lon="12.325499457344788"><ele>1.0</ele><time>2026-03-22T14:55:29.985Z</time></trkpt><trkpt lat="44.27205356650006" lon="12.325336680007823"><ele>1.0</ele><time>2026-03-22T14:55:30.985Z</time></trkpt><trkpt lat="44.272277373933754" lon="12.32517728522975"><ele>0.0</ele><time>2026-03-22T14:55:31.985Z</time></trkpt><trkpt lat="44.27249085998265" lon="12.32502794416776"><ele>-1.0</ele><time>2026-03-22T14:55:32.985Z</time></trkpt><trkpt lat="44.27269034433204" lon="12.324872220735037"><ele>-1.0</ele><time>2026-03-22T14:55:33.985Z</time></trkpt><trkpt lat="44.27288576853935" lon="12.324713983505632"><ele>-1.0</ele><time>2026-03-22T14:55:34.985Z</time></trkpt><trkpt lat="44.27307585505522" lon="12.32455500569355"><ele>-1.0</ele><time>2026-03-22T14:55:35.985Z</time></trkpt><trkpt lat="44.27325635975911" lon="12.32438667895417"><ele>0.0</ele><time>2026-03-22T14:55:36.985Z</time></trkpt><trkpt lat="44.2734466132683" lon="12.324203082436103"><ele>1.0</ele><time>2026-03-22T14:55:37.985Z</time></trkpt><trkpt lat="44.2736548132999" lon="12.32402235356411"><ele>-0.5</ele><time>2026-03-22T14:55:38.985Z</time></trkpt><trkpt lat="44.27386949794522" lon="12.32385678756987"><ele>-2.0</ele><time>2026-03-22T14:55:39.985Z</time></trkpt><trkpt lat="44.274095037129776" lon="12.323690860229506"><ele>-2.0</ele><time>2026-03-22T14:55:40.985Z</time></trkpt><trkpt lat="44.274297527398296" lon="12.323531508223788"><ele>-2.0</ele><time>2026-03-22T14:55:41.985Z</time></trkpt><trkpt lat="44.27448217645427" lon="12.323372560393361"><ele>-2.0</ele><time>2026-03-22T14:55:42.985Z</time></trkpt><trkpt lat="44.274671257711304" lon="12.323205797876476"><ele>-2.333333333333333</ele><time>2026-03-22T14:55:43.985Z</time></trkpt><trkpt lat="44.27486257289879" lon="12.323045066907513"><ele>-2.6666666666666665</ele><time>2026-03-22T14:55:44.985Z</time></trkpt><trkpt lat="44.27505646500603" lon="12.322884712068685"><ele>-3.0</ele><time>2026-03-22T14:55:45.985Z</time></trkpt><trkpt lat="44.275248659615905" lon="12.32272114019164"><ele>-3.0</ele><time>2026-03-22T14:55:46.985Z</time></trkpt><trkpt lat="44.27543894250319" lon="12.322556575034238"><ele>-3.0</ele><time>2026-03-22T14:55:47.985Z</time></trkpt><trkpt lat="44.275623169461426" lon="12.32239472505301"><ele>-3.0</ele><time>2026-03-22T14:55:48.985Z</time></trkpt><trkpt lat="44.27580505671814" lon="12.322239839350251"><ele>-2.6666666666666665</ele><time>2026-03-22T14:55:49.985Z</time></trkpt><trkpt lat="44.27598948621664" lon="12.322081105613739"><ele>-2.333333333333333</ele><time>2026-03-22T14:55:50.985Z</time></trkpt><trkpt lat="44.276175853786604" lon="12.32192396287883"><ele>-2.0</ele><time>2026-03-22T14:55:51.985Z</time></trkpt><trkpt lat="44.27636381025245" lon="12.321770117726224"><ele>-1.6666666666666665</ele><time>2026-03-22T14:55:52.985Z</time></trkpt><trkpt lat="44.276548527889474" lon="12.321606428821857"><ele>-1.3333333333333333</ele><time>2026-03-22T14:55:53.985Z</time></trkpt><trkpt lat="44.27673469653608" lon="12.32144163286755"><ele>-1.0</ele><time>2026-03-22T14:55:54.985Z</time></trkpt><trkpt lat="44.27692288811222" lon="12.321277626647214"><ele>-0.5</ele><time>2026-03-22T14:55:55.985Z</time></trkpt><trkpt lat="44.277111472540106" lon="12.321114930112122"><ele>0.0</ele><time>2026-03-22T14:55:56.985Z</time></trkpt><trkpt lat="44.277307229867695" lon="12.32094478374095"><ele>-1.0</ele><time>2026-03-22T14:55:57.985Z</time></trkpt><trkpt lat="44.27750342753587" lon="12.320771459955496"><ele>-2.0</ele><time>2026-03-22T14:55:58.985Z</time></trkpt><trkpt lat="44.27770235553475" lon="12.320598431108532"><ele>-2.0</ele><time>2026-03-22T14:55:59.985Z</time></trkpt><trkpt lat="44.27790472593244" lon="12.320427478099633"><ele>-2.0</ele><time>2026-03-22T14:56:00.985Z</time></trkpt><trkpt lat="44.278105841542015" lon="12.320261754438718"><ele>-2.0</ele><time>2026-03-22T14:56:01.985Z</time></trkpt><trkpt lat="44.278310112119044" lon="12.32009141482816"><ele>-2.0</ele><time>2026-03-22T14:56:02.985Z</time></trkpt><trkpt lat="44.2785115766594" lon="12.31991997577293"><ele>-2.0</ele><time>2026-03-22T14:56:03.985Z</time></trkpt><trkpt lat="44.27870894618191" lon="12.319753460140019"><ele>-2.0</ele><time>2026-03-22T14:56:04.985Z</time></trkpt><trkpt lat="44.27890198574376" lon="12.319584519332452"><ele>-1.3333333333333333</ele><time>2026-03-22T14:56:05.985Z</time></trkpt><trkpt lat="44.27908666252876" lon="12.319419551068904"><ele>-0.6666666666666666</ele><time>2026-03-22T14:56:06.985Z</time></trkpt><trkpt lat="44.279270770325205" lon="12.319259657770216"><ele>0.0</ele><time>2026-03-22T14:56:07.985Z</time></trkpt><trkpt lat="44.279450774263324" lon="12.31910873793303"><ele>0.0</ele><time>2026-03-22T14:56:08.985Z</time></trkpt><trkpt lat="44.279628935077575" lon="12.318953512946168"><ele>0.0</ele><time>2026-03-22T14:56:09.985Z</time></trkpt><trkpt lat="44.27980291444565" lon="12.318801468693406"><ele>0.0</ele><time>2026-03-22T14:56:10.985Z</time></trkpt><trkpt lat="44.27997492987617" lon="12.31865886291755"><ele>-0.3333333333333333</ele><time>2026-03-22T14:56:11.985Z</time></trkpt><trkpt lat="44.28014148179229" lon="12.318519175408758"><ele>-0.6666666666666666</ele><time>2026-03-22T14:56:12.985Z</time></trkpt><trkpt lat="44.28031220377705" lon="12.31837175797098"><ele>-1.0</ele><time>2026-03-22T14:56:13.985Z</time></trkpt><trkpt lat="44.28048514397119" lon="12.318225869044445"><ele>-1.0</ele><time>2026-03-22T14:56:14.985Z</time></trkpt><trkpt lat="44.28066272240007" lon="12.318075553156133"><ele>-1.0</ele><time>2026-03-22T14:56:15.985Z</time></trkpt><trkpt lat="44.280845133559865" lon="12.317918801141778"><ele>-1.0</ele><time>2026-03-22T14:56:16.985Z</time></trkpt><trkpt lat="44.28103914935988" lon="12.317752389152572"><ele>-1.5</ele><time>2026-03-22T14:56:17.985Z</time></trkpt><trkpt lat="44.28124565199075" lon="12.317578038982068"><ele>-2.0</ele><time>2026-03-22T14:56:18.985Z</time></trkpt><trkpt lat="44.28145773374639" lon="12.317404730265832"><ele>-2.0</ele><time>2026-03-22T14:56:19.985Z</time></trkpt><trkpt lat="44.28166646443627" lon="12.317228647754776"><ele>-2.0</ele><time>2026-03-22T14:56:20.985Z</time></trkpt><trkpt lat="44.28186382596142" lon="12.317057697699623"><ele>-2.0</ele><time>2026-03-22T14:56:21.985Z</time></trkpt><trkpt lat="44.28204175554874" lon="12.316898177694659"><ele>-2.0</ele><time>2026-03-22T14:56:22.985Z</time></trkpt><trkpt lat="44.282210310869694" lon="12.316745028888134"><ele>-2.0</ele><time>2026-03-22T14:56:23.985Z</time></trkpt><trkpt lat="44.282376281972134" lon="12.316596682637753"><ele>-1.6666666666666665</ele><time>2026-03-22T14:56:24.985Z</time></trkpt><trkpt lat="44.28254896591766" lon="12.316432366904452"><ele>-1.3333333333333333</ele><time>2026-03-22T14:56:25.985Z</time></trkpt><trkpt lat="44.282730290350905" lon="12.316265335786884"><ele>-1.0</ele><time>2026-03-22T14:56:26.985Z</time></trkpt><trkpt lat="44.28291445987206" lon="12.316097039042763"><ele>-0.6666666666666666</ele><time>2026-03-22T14:56:27.985Z</time></trkpt><trkpt lat="44.28310060310627" lon="12.315932295474898"><ele>-0.3333333333333333</ele><time>2026-03-22T14:56:28.985Z</time></trkpt><trkpt lat="44.28328834404156" lon="12.31576070883749"><ele>0.0</ele><time>2026-03-22T14:56:29.985Z</time></trkpt><trkpt lat="44.28348350833055" lon="12.315591708254047"><ele>-0.3333333333333333</ele><time>2026-03-22T14:56:30.985Z</time></trkpt><trkpt lat="44.283675567682224" lon="12.315436604360585"><ele>-0.6666666666666666</ele><time>2026-03-22T14:56:31.985Z</time></trkpt><trkpt lat="44.28385601610808" lon="12.315289189296031"><ele>-1.0</ele><time>2026-03-22T14:56:32.985Z</time></trkpt><trkpt lat="44.28402061065331" lon="12.31514576588634"><ele>-1.0</ele><time>2026-03-22T14:56:33.985Z</time></trkpt><trkpt lat="44.28417836361913" lon="12.315003963367475"><ele>-1.0</ele><time>2026-03-22T14:56:34.985Z</time></trkpt><trkpt lat="44.28433101961244" lon="12.314863175886797"><ele>-1.0</ele><time>2026-03-22T14:56:35.985Z</time></trkpt><trkpt lat="44.28448746578803" lon="12.314719802346854"><ele>-1.0</ele><time>2026-03-22T14:56:36.985Z</time></trkpt><trkpt lat="44.284649137715284" lon="12.314588483919305"><ele>-1.0</ele><time>2026-03-22T14:56:37.985Z</time></trkpt><trkpt lat="44.28481920375461" lon="12.314455380183151"><ele>-1.0</ele><time>2026-03-22T14:56:38.985Z</time></trkpt><trkpt lat="44.284993649844125" lon="12.314314769829512"><ele>-1.0</ele><time>2026-03-22T14:56:39.985Z</time></trkpt><trkpt lat="44.28516554369163" lon="12.314169959354835"><ele>-1.0</ele><time>2026-03-22T14:56:40.985Z</time></trkpt><trkpt lat="44.28533146368864" lon="12.314030113607105"><ele>-1.0</ele><time>2026-03-22T14:56:41.985Z</time></trkpt><trkpt lat="44.28549459161655" lon="12.31389357997128"><ele>-1.3333333333333333</ele><time>2026-03-22T14:56:42.985Z</time></trkpt><trkpt lat="44.285639159079615" lon="12.313764825761055"><ele>-1.6666666666666665</ele><time>2026-03-22T14:56:43.985Z</time></trkpt><trkpt lat="44.2857904100026" lon="12.31363830683134"><ele>-2.0</ele><time>2026-03-22T14:56:44.985Z</time></trkpt><trkpt lat="44.28593768362348" lon="12.3135144051294"><ele>-2.0</ele><time>2026-03-22T14:56:45.985Z</time></trkpt><trkpt lat="44.28609420497966" lon="12.313385963682821"><ele>-2.0</ele><time>2026-03-22T14:56:46.985Z</time></trkpt><trkpt lat="44.286246165298195" lon="12.313247644916835"><ele>-2.0</ele><time>2026-03-22T14:56:47.985Z</time></trkpt><trkpt lat="44.28641377684693" lon="12.313108560063965"><ele>-2.333333333333333</ele><time>2026-03-22T14:56:48.985Z</time></trkpt><trkpt lat="44.286583348814176" lon="12.312968844737872"><ele>-2.6666666666666665</ele><time>2026-03-22T14:56:49.985Z</time></trkpt><trkpt lat="44.28675682560679" lon="12.312823732768177"><ele>-3.0</ele><time>2026-03-22T14:56:50.985Z</time></trkpt><trkpt lat="44.286934203517944" lon="12.31266604773336"><ele>-3.0</ele><time>2026-03-22T14:56:51.985Z</time></trkpt><trkpt lat="44.287117793204956" lon="12.312504043435869"><ele>-3.0</ele><time>2026-03-22T14:56:52.985Z</time></trkpt><trkpt lat="44.28731203984506" lon="12.312336430551674"><ele>-3.0</ele><time>2026-03-22T14:56:53.985Z</time></trkpt><trkpt lat="44.287500301053804" lon="12.312185948323046"><ele>-3.333333333333333</ele><time>2026-03-22T14:56:54.985Z</time></trkpt><trkpt lat="44.28766413158521" lon="12.312047217279268"><ele>-3.6666666666666665</ele><time>2026-03-22T14:56:55.985Z</time></trkpt><trkpt lat="44.28781478810048" lon="12.311912042171842"><ele>-4.0</ele><time>2026-03-22T14:56:56.985Z</time></trkpt><trkpt lat="44.28795779445933" lon="12.311790568394446"><ele>-4.0</ele><time>2026-03-22T14:56:57.985Z</time></trkpt><trkpt lat="44.28809583008243" lon="12.31167130136357"><ele>-4.0</ele><time>2026-03-22T14:56:58.985Z</time></trkpt><trkpt lat="44.28824033775484" lon="12.311526310911628"><ele>-4.0</ele><time>2026-03-22T14:56:59.985Z</time></trkpt><trkpt lat="44.288406938108146" lon="12.31135975395876"><ele>-4.0</ele><time>2026-03-22T14:57:00.985Z</time></trkpt><trkpt lat="44.288578796524966" lon="12.311167449491366"><ele>-4.0</ele><time>2026-03-22T14:57:01.985Z</time></trkpt><trkpt lat="44.288746625268956" lon="12.310930164871026"><ele>-4.0</ele><time>2026-03-22T14:57:02.985Z</time></trkpt><trkpt lat="44.28890207589959" lon="12.31067986717313"><ele>-4.0</ele><time>2026-03-22T14:57:03.985Z</time></trkpt><trkpt lat="44.28904675504314" lon="12.31041404956433"><ele>-3.5</ele><time>2026-03-22T14:57:04.985Z</time></trkpt><trkpt lat="44.28917871427868" lon="12.310137491972082"><ele>-3.0</ele><time>2026-03-22T14:57:05.984Z</time></trkpt><trkpt lat="44.289295643140655" lon="12.309851859891053"><ele>-3.0</ele><time>2026-03-22T14:57:06.984Z</time></trkpt><trkpt lat="44.28940046221456" lon="12.309567523306834"><ele>-3.0</ele><time>2026-03-22T14:57:07.984Z</time></trkpt><trkpt lat="44.289488261462466" lon="12.30927143292821"><ele>-3.0</ele><time>2026-03-22T14:57:08.984Z</time></trkpt><trkpt lat="44.28956641301735" lon="12.308939721453514"><ele>-3.0</ele><time>2026-03-22T14:57:09.984Z</time></trkpt><trkpt lat="44.289635977720536" lon="12.308602230179318"><ele>-3.0</ele><time>2026-03-22T14:57:10.984Z</time></trkpt><trkpt lat="44.28968713626197" lon="12.308243025829857"><ele>-3.0</ele><time>2026-03-22T14:57:11.984Z</time></trkpt><trkpt lat="44.28972364721676" lon="12.3078677648966"><ele>-3.0</ele><time>2026-03-22T14:57:12.984Z</time></trkpt><trkpt lat="44.28974031141916" lon="12.307478915689753"><ele>-3.0</ele><time>2026-03-22T14:57:13.984Z</time></trkpt><trkpt lat="44.289751444605834" lon="12.307068635887532"><ele>-3.0</ele><time>2026-03-22T14:57:14.984Z</time></trkpt><trkpt lat="44.289771525082436" lon="12.306654213129212"><ele>-3.0</ele><time>2026-03-22T14:57:15.984Z</time></trkpt><trkpt lat="44.289792320257185" lon="12.30623726843665"><ele>-3.0</ele><time>2026-03-22T14:57:16.984Z</time></trkpt><trkpt lat="44.28981346314557" lon="12.305817949897568"><ele>-3.0</ele><time>2026-03-22T14:57:17.984Z</time></trkpt><trkpt lat="44.2898391210743" lon="12.305405001303802"><ele>-3.0</ele><time>2026-03-22T14:57:18.984Z</time></trkpt><trkpt lat="44.28987380527317" lon="12.305038290543054"><ele>-3.0</ele><time>2026-03-22T14:57:19.984Z</time></trkpt><trkpt lat="44.28991935644169" lon="12.304680062316365"><ele>-3.0</ele><time>2026-03-22T14:57:20.984Z</time></trkpt><trkpt lat="44.289972793484615" lon="12.304315794935397"><ele>-3.0</ele><time>2026-03-22T14:57:21.984Z</time></trkpt><trkpt lat="44.29004586599" lon="12.303948816285684"><ele>-3.5</ele><time>2026-03-22T14:57:22.984Z</time></trkpt><trkpt lat="44.2901347912083" lon="12.303590532537282"><ele>-4.0</ele><time>2026-03-22T14:57:23.984Z</time></trkpt><trkpt lat="44.29024110824177" lon="12.303238967604512"><ele>-4.0</ele><time>2026-03-22T14:57:24.984Z</time></trkpt><trkpt lat="44.290362650226676" lon="12.302893148514695"><ele>-4.0</ele><time>2026-03-22T14:57:25.984Z</time></trkpt><trkpt lat="44.29051490880632" lon="12.302553153028573"><ele>-3.5</ele><time>2026-03-22T14:57:26.984Z</time></trkpt><trkpt lat="44.29069148106048" lon="12.302218669640109"><ele>-3.0</ele><time>2026-03-22T14:57:27.984Z</time></trkpt><trkpt lat="44.29087855759404" lon="12.301893435425885"><ele>-3.0</ele><time>2026-03-22T14:57:28.984Z</time></trkpt><trkpt lat="44.29107644843632" lon="12.301574501220967"><ele>-3.0</ele><time>2026-03-22T14:57:29.984Z</time></trkpt><trkpt lat="44.29129444266284" lon="12.301268973161266"><ele>-3.0</ele><time>2026-03-22T14:57:30.984Z</time></trkpt><trkpt lat="44.29152277025244" lon="12.300968903350203"><ele>-3.0</ele><time>2026-03-22T14:57:31.984Z</time></trkpt><trkpt lat="44.291759455206396" lon="12.300676755164059"><ele>-3.0</ele><time>2026-03-22T14:57:32.984Z</time></trkpt><trkpt lat="44.29200494406902" lon="12.300392331038797"><ele>-3.0</ele><time>2026-03-22T14:57:33.984Z</time></trkpt><trkpt lat="44.29225868612837" lon="12.30011648051271"><ele>-2.5</ele><time>2026-03-22T14:57:34.984Z</time></trkpt><trkpt lat="44.29251883270344" lon="12.299848081360164"><ele>-2.0</ele><time>2026-03-22T14:57:35.984Z</time></trkpt><trkpt lat="44.292781643701986" lon="12.299582917150506"><ele>-2.0</ele><time>2026-03-22T14:57:36.984Z</time></trkpt><trkpt lat="44.29304426696847" lon="12.299312900549143"><ele>-2.0</ele><time>2026-03-22T14:57:37.984Z</time></trkpt><trkpt lat="44.29328868938074" lon="12.299057175040236"><ele>-2.0</ele><time>2026-03-22T14:57:38.984Z</time></trkpt><trkpt lat="44.29352015195457" lon="12.29880885076932"><ele>-2.0</ele><time>2026-03-22T14:57:39.984Z</time></trkpt><trkpt lat="44.293749313408114" lon="12.29856950983451"><ele>-1.5</ele><time>2026-03-22T14:57:40.984Z</time></trkpt><trkpt lat="44.29396602287823" lon="12.298344561386287"><ele>-1.0</ele><time>2026-03-22T14:57:41.984Z</time></trkpt><trkpt lat="44.29417047370875" lon="12.298130544413459"><ele>-2.0</ele><time>2026-03-22T14:57:42.984Z</time></trkpt><trkpt lat="44.294362437679794" lon="12.297928397615337"><ele>-3.0</ele><time>2026-03-22T14:57:43.984Z</time></trkpt><trkpt lat="44.29455684865238" lon="12.297726915895327"><ele>-3.0</ele><time>2026-03-22T14:57:44.984Z</time></trkpt><trkpt lat="44.29475093771101" lon="12.297525571003678"><ele>-3.0</ele><time>2026-03-22T14:57:45.984Z</time></trkpt><trkpt lat="44.29494976917365" lon="12.297315595535762"><ele>-2.5</ele><time>2026-03-22T14:57:46.984Z</time></trkpt><trkpt lat="44.295152985894475" lon="12.297093399975523"><ele>-2.0</ele><time>2026-03-22T14:57:47.984Z</time></trkpt><trkpt lat="44.29536952764464" lon="12.296870539713396"><ele>-2.0</ele><time>2026-03-22T14:57:48.984Z</time></trkpt><trkpt lat="44.295591032691355" lon="12.296646342866694"><ele>-2.0</ele><time>2026-03-22T14:57:49.984Z</time></trkpt><trkpt lat="44.29582182391043" lon="12.296422736472563"><ele>-2.0</ele><time>2026-03-22T14:57:50.984Z</time></trkpt><trkpt lat="44.296047521925786" lon="12.296198178256448"><ele>-2.0</ele><time>2026-03-22T14:57:51.984Z</time></trkpt><trkpt lat="44.2962657106311" lon="12.295970801169464"><ele>-2.0</ele><time>2026-03-22T14:57:52.984Z</time></trkpt><trkpt lat="44.296484174214974" lon="12.295739019269089"><ele>-2.0</ele><time>2026-03-22T14:57:53.984Z</time></trkpt><trkpt lat="44.29669872757618" lon="12.295517475923413"><ele>-2.0</ele><time>2026-03-22T14:57:54.984Z</time></trkpt><trkpt lat="44.29690103707949" lon="12.295308715702015"><ele>-2.0</ele><time>2026-03-22T14:57:55.984Z</time></trkpt><trkpt lat="44.29710218801565" lon="12.29509704673729"><ele>-2.0</ele><time>2026-03-22T14:57:56.984Z</time></trkpt><trkpt lat="44.29730059671158" lon="12.294889097717322"><ele>-2.0</ele><time>2026-03-22T14:57:57.984Z</time></trkpt><trkpt lat="44.29749519557868" lon="12.294688643168545"><ele>-2.0</ele><time>2026-03-22T14:57:58.984Z</time></trkpt><trkpt lat="44.29768787952973" lon="12.294498937705724"><ele>-2.0</ele><time>2026-03-22T14:57:59.984Z</time></trkpt><trkpt lat="44.29788907234505" lon="12.294300346183784"><ele>-2.5</ele><time>2026-03-22T14:58:00.984Z</time></trkpt><trkpt lat="44.298103673063274" lon="12.29409348537189"><ele>-3.0</ele><time>2026-03-22T14:58:01.984Z</time></trkpt><trkpt lat="44.2983320475008" lon="12.293893798026746"><ele>-3.0</ele><time>2026-03-22T14:58:02.984Z</time></trkpt><trkpt lat="44.29857273205744" lon="12.293702273554912"><ele>-3.0</ele><time>2026-03-22T14:58:03.984Z</time></trkpt><trkpt lat="44.29882508214851" lon="12.293515433064277"><ele>-3.5</ele><time>2026-03-22T14:58:04.984Z</time></trkpt><trkpt lat="44.299079411982476" lon="12.293327316515596"><ele>-4.0</ele><time>2026-03-22T14:58:05.984Z</time></trkpt><trkpt lat="44.29932510636376" lon="12.293138070251095"><ele>-4.0</ele><time>2026-03-22T14:58:06.984Z</time></trkpt><trkpt lat="44.2995664541939" lon="12.292947809092151"><ele>-4.0</ele><time>2026-03-22T14:58:07.984Z</time></trkpt><trkpt lat="44.29979837678693" lon="12.29277050635779"><ele>-4.5</ele><time>2026-03-22T14:58:08.984Z</time></trkpt><trkpt lat="44.300023231682836" lon="12.292602082415113"><ele>-5.0</ele><time>2026-03-22T14:58:09.984Z</time></trkpt><trkpt lat="44.3002455478339" lon="12.292430144097994"><ele>-5.0</ele><time>2026-03-22T14:58:10.984Z</time></trkpt><trkpt lat="44.30046073912619" lon="12.292264855887147"><ele>-5.0</ele><time>2026-03-22T14:58:11.984Z</time></trkpt><trkpt lat="44.300668431439725" lon="12.292106989454034"><ele>-3.5</ele><time>2026-03-22T14:58:12.984Z</time></trkpt><trkpt lat="44.30087962073235" lon="12.29194631664402"><ele>-2.0</ele><time>2026-03-22T14:58:13.984Z</time></trkpt><trkpt lat="44.301082651494795" lon="12.291786400036491"><ele>-2.0</ele><time>2026-03-22T14:58:14.984Z</time></trkpt><trkpt lat="44.30128908914333" lon="12.291627720313802"><ele>-2.0</ele><time>2026-03-22T14:58:15.984Z</time></trkpt><trkpt lat="44.30149651143609" lon="12.291463644192751"><ele>-1.5</ele><time>2026-03-22T14:58:16.984Z</time></trkpt><trkpt lat="44.30170088049355" lon="12.291303917440729"><ele>-1.0</ele><time>2026-03-22T14:58:17.984Z</time></trkpt><trkpt lat="44.30189415081316" lon="12.291153817673774"><ele>-1.0</ele><time>2026-03-22T14:58:18.984Z</time></trkpt><trkpt lat="44.30207528651153" lon="12.291013464369652"><ele>-1.0</ele><time>2026-03-22T14:58:19.984Z</time></trkpt><trkpt lat="44.30224962826199" lon="12.290881020830016"><ele>-1.0</ele><time>2026-03-22T14:58:20.984Z</time></trkpt><trkpt lat="44.302420088009434" lon="12.290751371627888"><ele>-1.0</ele><time>2026-03-22T14:58:21.984Z</time></trkpt><trkpt lat="44.302587241319316" lon="12.290623654891816"><ele>-1.0</ele><time>2026-03-22T14:58:22.984Z</time></trkpt><trkpt lat="44.30275520138743" lon="12.290494715964673"><ele>-1.0</ele><time>2026-03-22T14:58:23.984Z</time></trkpt><trkpt lat="44.302924235744676" lon="12.290364385751282"><ele>-0.6666666666666666</ele><time>2026-03-22T14:58:24.984Z</time></trkpt><trkpt lat="44.30309456411385" lon="12.290238319857245"><ele>-0.3333333333333333</ele><time>2026-03-22T14:58:25.984Z</time></trkpt><trkpt lat="44.303264940617645" lon="12.290108476727681"><ele>0.0</ele><time>2026-03-22T14:58:26.984Z</time></trkpt><trkpt lat="44.30343799953748" lon="12.289978179273616"><ele>0.0</ele><time>2026-03-22T14:58:27.984Z</time></trkpt><trkpt lat="44.303601834061126" lon="12.289853543210292"><ele>0.0</ele><time>2026-03-22T14:58:28.984Z</time></trkpt><trkpt lat="44.30376137840495" lon="12.289730419301188"><ele>0.0</ele><time>2026-03-22T14:58:29.984Z</time></trkpt><trkpt lat="44.30392004257681" lon="12.289609778180484"><ele>0.0</ele><time>2026-03-22T14:58:30.984Z</time></trkpt><trkpt lat="44.30408152936158" lon="12.28948486876826"><ele>0.0</ele><time>2026-03-22T14:58:31.984Z</time></trkpt><trkpt lat="44.3042430457315" lon="12.289362913251031"><ele>0.0</ele><time>2026-03-22T14:58:32.984Z</time></trkpt><trkpt lat="44.304409263217856" lon="12.289230803760946"><ele>0.0</ele><time>2026-03-22T14:58:33.984Z</time></trkpt><trkpt lat="44.304585422121306" lon="12.289095985951148"><ele>0.0</ele><time>2026-03-22T14:58:34.984Z</time></trkpt><trkpt lat="44.304770372554714" lon="12.288959815913342"><ele>0.0</ele><time>2026-03-22T14:58:35.984Z</time></trkpt><trkpt lat="44.304959244338455" lon="12.288819179847268"><ele>0.0</ele><time>2026-03-22T14:58:36.984Z</time></trkpt><trkpt lat="44.30514999263425" lon="12.288673319834345"><ele>0.0</ele><time>2026-03-22T14:58:37.984Z</time></trkpt><trkpt lat="44.30534361728679" lon="12.28851493707531"><ele>0.0</ele><time>2026-03-22T14:58:38.984Z</time></trkpt><trkpt lat="44.305547030199" lon="12.288352844400373"><ele>-0.5</ele><time>2026-03-22T14:58:39.984Z</time></trkpt><trkpt lat="44.30575959594131" lon="12.288188266876467"><ele>-1.0</ele><time>2026-03-22T14:58:40.984Z</time></trkpt><trkpt lat="44.305977591833575" lon="12.288023930109114"><ele>-1.5</ele><time>2026-03-22T14:58:41.984Z</time></trkpt><trkpt lat="44.306190130502884" lon="12.287869115910885"><ele>-2.0</ele><time>2026-03-22T14:58:42.984Z</time></trkpt><trkpt lat="44.306390528303226" lon="12.287724684734236"><ele>-2.0</ele><time>2026-03-22T14:58:43.984Z</time></trkpt><trkpt lat="44.30658131578354" lon="12.28758177626827"><ele>-2.0</ele><time>2026-03-22T14:58:44.985Z</time></trkpt><trkpt lat="44.30676705276173" lon="12.287440338221074"><ele>-2.0</ele><time>2026-03-22T14:58:45.985Z</time></trkpt><trkpt lat="44.306957061182395" lon="12.287297598541164"><ele>-1.6666666666666665</ele><time>2026-03-22T14:58:46.985Z</time></trkpt><trkpt lat="44.30715038302963" lon="12.287145187497822"><ele>-1.3333333333333333</ele><time>2026-03-22T14:58:47.985Z</time></trkpt><trkpt lat="44.307351425465335" lon="12.286996287332522"><ele>-1.0</ele><time>2026-03-22T14:58:48.985Z</time></trkpt><trkpt lat="44.30755677235486" lon="12.286841904784724"><ele>-1.0</ele><time>2026-03-22T14:58:49.985Z</time></trkpt><trkpt lat="44.30776240432367" lon="12.28668457925186"><ele>-1.0</ele><time>2026-03-22T14:58:50.985Z</time></trkpt><trkpt lat="44.30796883707751" lon="12.286519541173837"><ele>-2.0</ele><time>2026-03-22T14:58:51.985Z</time></trkpt><trkpt lat="44.30819116401034" lon="12.28634714527111"><ele>-3.0</ele><time>2026-03-22T14:58:52.985Z</time></trkpt><trkpt lat="44.30841286137793" lon="12.286184070191354"><ele>-3.0</ele><time>2026-03-22T14:58:53.985Z</time></trkpt><trkpt lat="44.30863984751728" lon="12.286038256857724"><ele>-3.0</ele><time>2026-03-22T14:58:54.985Z</time></trkpt><trkpt lat="44.308876296228505" lon="12.285879690714061"><ele>-2.0</ele><time>2026-03-22T14:58:55.985Z</time></trkpt><trkpt lat="44.30911459011414" lon="12.28574738556514"><ele>-1.0</ele><time>2026-03-22T14:58:56.985Z</time></trkpt><trkpt lat="44.309348127982496" lon="12.285620558275312"><ele>-1.5</ele><time>2026-03-22T14:58:57.984Z</time></trkpt><trkpt lat="44.309576939570654" lon="12.285494933176654"><ele>-2.0</ele><time>2026-03-22T14:58:58.984Z</time></trkpt><trkpt lat="44.30980648145853" lon="12.285375216061407"><ele>-2.0</ele><time>2026-03-22T14:58:59.984Z</time></trkpt><trkpt lat="44.310041612452345" lon="12.285257131829345"><ele>-2.0</ele><time>2026-03-22T14:59:00.984Z</time></trkpt><trkpt lat="44.310278119417845" lon="12.285143839944508"><ele>-2.0</ele><time>2026-03-22T14:59:01.984Z</time></trkpt><trkpt lat="44.31052572272577" lon="12.28503461857505"><ele>-2.0</ele><time>2026-03-22T14:59:02.984Z</time></trkpt><trkpt lat="44.31078908322078" lon="12.284943927403567"><ele>-1.5</ele><time>2026-03-22T14:59:03.984Z</time></trkpt><trkpt lat="44.31105854739669" lon="12.284872614236072"><ele>-1.0</ele><time>2026-03-22T14:59:04.984Z</time></trkpt><trkpt lat="44.311323370313424" lon="12.284824048941172"><ele>-1.0</ele><time>2026-03-22T14:59:05.984Z</time></trkpt><trkpt lat="44.31157697396874" lon="12.284781184135946"><ele>-1.0</ele><time>2026-03-22T14:59:06.984Z</time></trkpt><trkpt lat="44.31182922735878" lon="12.28474763629101"><ele>-1.0</ele><time>2026-03-22T14:59:07.984Z</time></trkpt><trkpt lat="44.31208444526875" lon="12.284719798155674"><ele>-1.0</ele><time>2026-03-22T14:59:08.984Z</time></trkpt><trkpt lat="44.31234266066683" lon="12.284688334137542"><ele>-1.5</ele><time>2026-03-22T14:59:09.984Z</time></trkpt><trkpt lat="44.31260245485219" lon="12.284665838632469"><ele>-2.0</ele><time>2026-03-22T14:59:10.984Z</time></trkpt><trkpt lat="44.31285526668039" lon="12.284644223894604"><ele>-1.5</ele><time>2026-03-22T14:59:11.984Z</time></trkpt><trkpt lat="44.31310303547955" lon="12.284621542275016"><ele>-1.0</ele><time>2026-03-22T14:59:12.984Z</time></trkpt><trkpt lat="44.313349502556584" lon="12.28459609055725"><ele>-1.0</ele><time>2026-03-22T14:59:13.984Z</time></trkpt><trkpt lat="44.313593946775285" lon="12.284574107509519"><ele>-1.0</ele><time>2026-03-22T14:59:14.984Z</time></trkpt><trkpt lat="44.31383151210867" lon="12.284553217264389"><ele>-1.0</ele><time>2026-03-22T14:59:15.984Z</time></trkpt><trkpt lat="44.31406198757706" lon="12.28453335976321"><ele>-1.0</ele><time>2026-03-22T14:59:16.984Z</time></trkpt><trkpt lat="44.31429229731588" lon="12.284514158673252"><ele>-1.0</ele><time>2026-03-22T14:59:17.984Z</time></trkpt><trkpt lat="44.314506196586755" lon="12.28450072159807"><ele>-1.0</ele><time>2026-03-22T14:59:18.984Z</time></trkpt><trkpt lat="44.314715309604686" lon="12.284480147578286"><ele>-1.0</ele><time>2026-03-22T14:59:19.984Z</time></trkpt><trkpt lat="44.31491580198638" lon="12.284465981988816"><ele>-0.6666666666666666</ele><time>2026-03-22T14:59:20.984Z</time></trkpt><trkpt lat="44.31511308512334" lon="12.284445367418401"><ele>-0.3333333333333333</ele><time>2026-03-22T14:59:21.984Z</time></trkpt><trkpt lat="44.315313437751406" lon="12.284428295123147"><ele>0.0</ele><time>2026-03-22T14:59:22.984Z</time></trkpt><trkpt lat="44.31550998958614" lon="12.284410442450026"><ele>0.0</ele><time>2026-03-22T14:59:23.984Z</time></trkpt><trkpt lat="44.31570164710966" lon="12.284395824451499"><ele>0.0</ele><time>2026-03-22T14:59:24.984Z</time></trkpt><trkpt lat="44.315894337615404" lon="12.284383786036859"><ele>0.0</ele><time>2026-03-22T14:59:25.984Z</time></trkpt><trkpt lat="44.31608110772206" lon="12.284371233493347"><ele>0.0</ele><time>2026-03-22T14:59:26.984Z</time></trkpt><trkpt lat="44.31626365043631" lon="12.28435999541322"><ele>0.0</ele><time>2026-03-22T14:59:27.984Z</time></trkpt><trkpt lat="44.31644865567742" lon="12.284347761967831"><ele>0.0</ele><time>2026-03-22T14:59:28.984Z</time></trkpt><trkpt lat="44.31664063975621" lon="12.28433365413693"><ele>0.0</ele><time>2026-03-22T14:59:29.984Z</time></trkpt><trkpt lat="44.316831593709004" lon="12.284316967571513"><ele>0.0</ele><time>2026-03-22T14:59:30.984Z</time></trkpt><trkpt lat="44.31703080177131" lon="12.284297786007958"><ele>0.0</ele><time>2026-03-22T14:59:31.984Z</time></trkpt><trkpt lat="44.317231298504815" lon="12.284279122633073"><ele>-0.6666666666666666</ele><time>2026-03-22T14:59:32.984Z</time></trkpt><trkpt lat="44.31744099495016" lon="12.284260026603185"><ele>-1.3333333333333333</ele><time>2026-03-22T14:59:33.984Z</time></trkpt><trkpt lat="44.31765505091674" lon="12.28423327871457"><ele>-2.0</ele><time>2026-03-22T14:59:34.984Z</time></trkpt><trkpt lat="44.317873249563384" lon="12.284198974697889"><ele>-1.6666666666666665</ele><time>2026-03-22T14:59:35.984Z</time></trkpt><trkpt lat="44.31809361781062" lon="12.284163307250287"><ele>-1.3333333333333333</ele><time>2026-03-22T14:59:36.984Z</time></trkpt><trkpt lat="44.31830105367478" lon="12.28412463413919"><ele>-1.0</ele><time>2026-03-22T14:59:37.984Z</time></trkpt><trkpt lat="44.318495295402435" lon="12.284077785786483"><ele>-1.0</ele><time>2026-03-22T14:59:38.984Z</time></trkpt><trkpt lat="44.31869054388882" lon="12.284016214001563"><ele>-1.0</ele><time>2026-03-22T14:59:39.984Z</time></trkpt><trkpt lat="44.318887455142246" lon="12.283948369558018"><ele>-1.0</ele><time>2026-03-22T14:59:40.984Z</time></trkpt><trkpt lat="44.319079564201616" lon="12.283878706677632"><ele>-1.0</ele><time>2026-03-22T14:59:41.984Z</time></trkpt><trkpt lat="44.31925729772832" lon="12.283811938635377"><ele>-1.0</ele><time>2026-03-22T14:59:42.984Z</time></trkpt><trkpt lat="44.31942044990226" lon="12.283746974371528"><ele>-1.0</ele><time>2026-03-22T14:59:43.984Z</time></trkpt><trkpt lat="44.31957910475817" lon="12.283674219747065"><ele>-1.0</ele><time>2026-03-22T14:59:44.984Z</time></trkpt><trkpt lat="44.31973161722654" lon="12.283592549435658"><ele>-1.0</ele><time>2026-03-22T14:59:45.984Z</time></trkpt><trkpt lat="44.31986981310231" lon="12.283512921773296"><ele>-1.0</ele><time>2026-03-22T14:59:46.984Z</time></trkpt><trkpt lat="44.320006866871964" lon="12.283434077786668"><ele>-0.75</ele><time>2026-03-22T14:59:47.984Z</time></trkpt><trkpt lat="44.32014518273884" lon="12.283351911187712"><ele>-0.5</ele><time>2026-03-22T14:59:48.984Z</time></trkpt><trkpt lat="44.32027989148961" lon="12.283269094126107"><ele>-0.25</ele><time>2026-03-22T14:59:49.984Z</time></trkpt><trkpt lat="44.320404846174" lon="12.283192680444033"><ele>0.0</ele><time>2026-03-22T14:59:50.984Z</time></trkpt><trkpt lat="44.320520673564985" lon="12.283116808920878"><ele>-0.16666666666666666</ele><time>2026-03-22T14:59:51.984Z</time></trkpt><trkpt lat="44.32062183685902" lon="12.283048386628451"><ele>-0.3333333333333333</ele><time>2026-03-22T14:59:52.984Z</time></trkpt><trkpt lat="44.32071783349196" lon="12.28298072793748"><ele>-0.5</ele><time>2026-03-22T14:59:53.984Z</time></trkpt><trkpt lat="44.32079483770207" lon="12.282926398742354"><ele>-0.6666666666666666</ele><time>2026-03-22T14:59:54.984Z</time></trkpt><trkpt lat="44.32085596951411" lon="12.282880204705652"><ele>-0.8333333333333333</ele><time>2026-03-22T14:59:55.984Z</time></trkpt><trkpt lat="44.32091485428624" lon="12.28284281370682"><ele>-1.0</ele><time>2026-03-22T14:59:56.984Z</time></trkpt><trkpt lat="44.321021275675456" lon="12.28276492573783"><ele>-1.0</ele><time>2026-03-22T14:59:58.984Z</time></trkpt><trkpt lat="44.32111515185106" lon="12.282700783949265"><ele>-1.0</ele><time>2026-03-22T15:00:00.984Z</time></trkpt><trkpt lat="44.321216075030115" lon="12.28262417480563"><ele>-1.0</ele><time>2026-03-22T15:00:02.984Z</time></trkpt><trkpt lat="44.321321009818774" lon="12.282547049375847"><ele>-1.0</ele><time>2026-03-22T15:00:04.984Z</time></trkpt><trkpt lat="44.321422494343985" lon="12.282463022092195"><ele>-0.8333333333333333</ele><time>2026-03-22T15:00:06.984Z</time></trkpt><trkpt lat="44.32152244241872" lon="12.282373929219746"><ele>-0.6666666666666666</ele><time>2026-03-22T15:00:08.984Z</time></trkpt><trkpt lat="44.32157665932244" lon="12.282328061165211"><ele>-0.5</ele><time>2026-03-22T15:00:09.984Z</time></trkpt><trkpt lat="44.32163213342439" lon="12.282282120850647"><ele>-0.3333333333333333</ele><time>2026-03-22T15:00:10.984Z</time></trkpt><trkpt lat="44.32168831864869" lon="12.282239473743852"><ele>-0.16666666666666666</ele><time>2026-03-22T15:00:11.984Z</time></trkpt><trkpt lat="44.32174423792927" lon="12.282190019338183"><ele>0.0</ele><time>2026-03-22T15:00:12.984Z</time></trkpt><trkpt lat="44.32180716995664" lon="12.282134689445648"><ele>0.0</ele><time>2026-03-22T15:00:13.984Z</time></trkpt><trkpt lat="44.321879440267075" lon="12.282074386560465"><ele>0.0</ele><time>2026-03-22T15:00:14.984Z</time></trkpt><trkpt lat="44.32195418650007" lon="12.282011422325121"><ele>0.0</ele><time>2026-03-22T15:00:15.984Z</time></trkpt><trkpt lat="44.32203225162749" lon="12.28194228785416"><ele>0.0</ele><time>2026-03-22T15:00:16.984Z</time></trkpt><trkpt lat="44.32211145832855" lon="12.281868592295597"><ele>0.0</ele><time>2026-03-22T15:00:17.984Z</time></trkpt><trkpt lat="44.3221938816262" lon="12.281800555765484"><ele>-0.2</ele><time>2026-03-22T15:00:18.984Z</time></trkpt><trkpt lat="44.32227425947146" lon="12.2817336389827"><ele>-0.4</ele><time>2026-03-22T15:00:19.984Z</time></trkpt><trkpt lat="44.32236062213716" lon="12.281660691283683"><ele>-0.6000000000000001</ele><time>2026-03-22T15:00:20.984Z</time></trkpt><trkpt lat="44.32244559252961" lon="12.281585879073194"><ele>-0.8</ele><time>2026-03-22T15:00:21.984Z</time></trkpt><trkpt lat="44.32253516229005" lon="12.281509190733935"><ele>-1.0</ele><time>2026-03-22T15:00:22.984Z</time></trkpt><trkpt lat="44.322624568795234" lon="12.28143553347167"><ele>-1.0</ele><time>2026-03-22T15:00:23.984Z</time></trkpt><trkpt lat="44.32271758744541" lon="12.281355607182547"><ele>-1.0</ele><time>2026-03-22T15:00:24.984Z</time></trkpt><trkpt lat="44.322812128635796" lon="12.28127620737736"><ele>-1.0</ele><time>2026-03-22T15:00:25.984Z</time></trkpt><trkpt lat="44.322908297605636" lon="12.28119263719493"><ele>-1.0</ele><time>2026-03-22T15:00:26.984Z</time></trkpt><trkpt lat="44.32301723460343" lon="12.281097569792264"><ele>-1.0</ele><time>2026-03-22T15:00:27.984Z</time></trkpt><trkpt lat="44.32313133058402" lon="12.281012724807534"><ele>-1.0</ele><time>2026-03-22T15:00:28.984Z</time></trkpt><trkpt lat="44.323244395724686" lon="12.28091870928001"><ele>-1.0</ele><time>2026-03-22T15:00:29.984Z</time></trkpt><trkpt lat="44.32336016365014" lon="12.280824203891507"><ele>-1.0</ele><time>2026-03-22T15:00:30.984Z</time></trkpt><trkpt lat="44.32346244046589" lon="12.280733195551964"><ele>-1.0</ele><time>2026-03-22T15:00:31.984Z</time></trkpt><trkpt lat="44.323557903332336" lon="12.280646194092636"><ele>-1.0</ele><time>2026-03-22T15:00:32.984Z</time></trkpt><trkpt lat="44.32364584225149" lon="12.280573185837271"><ele>-1.0</ele><time>2026-03-22T15:00:33.984Z</time></trkpt><trkpt lat="44.323731431069916" lon="12.280499807486564"><ele>-1.0</ele><time>2026-03-22T15:00:34.984Z</time></trkpt><trkpt lat="44.32381350576833" lon="12.280425153457065"><ele>-1.0</ele><time>2026-03-22T15:00:35.984Z</time></trkpt><trkpt lat="44.32389203229118" lon="12.280353988682498"><ele>-0.8</ele><time>2026-03-22T15:00:36.984Z</time></trkpt><trkpt lat="44.32396820108918" lon="12.28028385841284"><ele>-0.6000000000000001</ele><time>2026-03-22T15:00:37.984Z</time></trkpt><trkpt lat="44.32404154080063" lon="12.280210048079992"><ele>-0.4</ele><time>2026-03-22T15:00:38.984Z</time></trkpt><trkpt lat="44.32411758588974" lon="12.280135285735476"><ele>-0.2</ele><time>2026-03-22T15:00:39.984Z</time></trkpt><trkpt lat="44.32420176418462" lon="12.280063958231139"><ele>0.0</ele><time>2026-03-22T15:00:40.984Z</time></trkpt><trkpt lat="44.32428783985665" lon="12.27998905157982"><ele>0.0</ele><time>2026-03-22T15:00:41.984Z</time></trkpt><trkpt lat="44.32437896825895" lon="12.279910199339556"><ele>0.0</ele><time>2026-03-22T15:00:42.984Z</time></trkpt><trkpt lat="44.324468759708516" lon="12.279832581103873"><ele>0.0</ele><time>2026-03-22T15:00:43.984Z</time></trkpt><trkpt lat="44.32455743999669" lon="12.279759656135903"><ele>0.0</ele><time>2026-03-22T15:00:44.984Z</time></trkpt><trkpt lat="44.324648692349676" lon="12.27968515928792"><ele>0.0</ele><time>2026-03-22T15:00:45.984Z</time></trkpt><trkpt lat="44.324741432631726" lon="12.279606451593812"><ele>0.0</ele><time>2026-03-22T15:00:46.984Z</time></trkpt><trkpt lat="44.324827177870645" lon="12.2795330653324"><ele>0.0</ele><time>2026-03-22T15:00:47.984Z</time></trkpt><trkpt lat="44.3249138306323" lon="12.279460062233774"><ele>0.0</ele><time>2026-03-22T15:00:48.984Z</time></trkpt><trkpt lat="44.32500974649034" lon="12.279379533079048"><ele>0.0</ele><time>2026-03-22T15:00:49.984Z</time></trkpt><trkpt lat="44.325103045024264" lon="12.279301231789956"><ele>0.0</ele><time>2026-03-22T15:00:50.985Z</time></trkpt><trkpt lat="44.3252042508644" lon="12.279222834624916"><ele>0.0</ele><time>2026-03-22T15:00:51.984Z</time></trkpt><trkpt lat="44.3253254098048" lon="12.279137029255544"><ele>0.0</ele><time>2026-03-22T15:00:52.984Z</time></trkpt><trkpt lat="44.32545712317898" lon="12.27902493766336"><ele>0.0</ele><time>2026-03-22T15:00:53.985Z</time></trkpt><trkpt lat="44.325610985383136" lon="12.278896226963255"><ele>0.0</ele><time>2026-03-22T15:00:54.985Z</time></trkpt><trkpt lat="44.325762812808534" lon="12.278761002334816"><ele>0.0</ele><time>2026-03-22T15:00:55.985Z</time></trkpt><trkpt lat="44.325904876905085" lon="12.278638929611125"><ele>0.0</ele><time>2026-03-22T15:00:56.985Z</time></trkpt><trkpt lat="44.32605282561897" lon="12.278510928285664"><ele>0.0</ele><time>2026-03-22T15:00:57.984Z</time></trkpt><trkpt lat="44.32622615946196" lon="12.2783655662406"><ele>0.0</ele><time>2026-03-22T15:00:58.984Z</time></trkpt><trkpt lat="44.32640902668191" lon="12.278208448094414"><ele>0.0</ele><time>2026-03-22T15:00:59.985Z</time></trkpt><trkpt lat="44.3266044373695" lon="12.27804808513654"><ele>0.5</ele><time>2026-03-22T15:01:00.985Z</time></trkpt><trkpt lat="44.326813866148" lon="12.277874033308487"><ele>1.0</ele><time>2026-03-22T15:01:01.985Z</time></trkpt><trkpt lat="44.327030507088075" lon="12.277702167010036"><ele>-0.5</ele><time>2026-03-22T15:01:02.985Z</time></trkpt><trkpt lat="44.32726627217145" lon="12.277502699287728"><ele>-2.0</ele><time>2026-03-22T15:01:03.985Z</time></trkpt><trkpt lat="44.32750510713576" lon="12.27730168347464"><ele>-1.5</ele><time>2026-03-22T15:01:04.985Z</time></trkpt><trkpt lat="44.327748110897964" lon="12.277090994958957"><ele>-1.0</ele><time>2026-03-22T15:01:05.985Z</time></trkpt><trkpt lat="44.32800284887364" lon="12.276881469027982"><ele>-0.5</ele><time>2026-03-22T15:01:06.985Z</time></trkpt><trkpt lat="44.32826056116545" lon="12.276670111418026"><ele>0.0</ele><time>2026-03-22T15:01:07.985Z</time></trkpt><trkpt lat="44.32850256427896" lon="12.27647217792471"><ele>-0.5</ele><time>2026-03-22T15:01:08.985Z</time></trkpt><trkpt lat="44.3287195157377" lon="12.276297596632888"><ele>-1.0</ele><time>2026-03-22T15:01:09.985Z</time></trkpt><trkpt lat="44.328926061816695" lon="12.27613415374195"><ele>-1.0</ele><time>2026-03-22T15:01:10.985Z</time></trkpt><trkpt lat="44.329121137084876" lon="12.275968061672085"><ele>-1.0</ele><time>2026-03-22T15:01:11.985Z</time></trkpt><trkpt lat="44.329315427602545" lon="12.275794376317174"><ele>-1.0</ele><time>2026-03-22T15:01:12.985Z</time></trkpt><trkpt lat="44.32952966695712" lon="12.275612135142769"><ele>-1.0</ele><time>2026-03-22T15:01:13.985Z</time></trkpt><trkpt lat="44.32976174008066" lon="12.275427083081539"><ele>-0.5</ele><time>2026-03-22T15:01:14.985Z</time></trkpt><trkpt lat="44.330003430406386" lon="12.275241891709516"><ele>0.0</ele><time>2026-03-22T15:01:15.985Z</time></trkpt><trkpt lat="44.330243550945866" lon="12.275045853964684"><ele>0.0</ele><time>2026-03-22T15:01:16.985Z</time></trkpt><trkpt lat="44.330483177316445" lon="12.274846505983485"><ele>0.0</ele><time>2026-03-22T15:01:17.985Z</time></trkpt><trkpt lat="44.33071640136998" lon="12.274662587804222"><ele>-0.5</ele><time>2026-03-22T15:01:18.985Z</time></trkpt><trkpt lat="44.3309551170689" lon="12.274487729936105"><ele>-1.0</ele><time>2026-03-22T15:01:19.985Z</time></trkpt><trkpt lat="44.33121057512511" lon="12.27431505466758"><ele>-1.5</ele><time>2026-03-22T15:01:20.985Z</time></trkpt><trkpt lat="44.33147784615538" lon="12.274144477204374"><ele>-2.0</ele><time>2026-03-22T15:01:21.985Z</time></trkpt><trkpt lat="44.33174294344196" lon="12.273969438205892"><ele>-1.0</ele><time>2026-03-22T15:01:22.985Z</time></trkpt><trkpt lat="44.33199459652825" lon="12.273804391737077"><ele>0.0</ele><time>2026-03-22T15:01:23.985Z</time></trkpt><trkpt lat="44.33222303717066" lon="12.27365046487549"><ele>-1.0</ele><time>2026-03-22T15:01:24.985Z</time></trkpt><trkpt lat="44.332451650502115" lon="12.273496512055933"><ele>-2.0</ele><time>2026-03-22T15:01:25.985Z</time></trkpt><trkpt lat="44.33267487119954" lon="12.273344662234482"><ele>-2.0</ele><time>2026-03-22T15:01:26.985Z</time></trkpt><trkpt lat="44.33288255516833" lon="12.273203780301214"><ele>-2.0</ele><time>2026-03-22T15:01:27.985Z</time></trkpt><trkpt lat="44.33307646542204" lon="12.273068738172356"><ele>-2.0</ele><time>2026-03-22T15:01:28.985Z</time></trkpt><trkpt lat="44.33326104725638" lon="12.272942434415148"><ele>-1.6666666666666665</ele><time>2026-03-22T15:01:29.985Z</time></trkpt><trkpt lat="44.333449389378856" lon="12.27282041233361"><ele>-1.3333333333333333</ele><time>2026-03-22T15:01:30.985Z</time></trkpt><trkpt lat="44.33361035355365" lon="12.272710964897751"><ele>-1.0</ele><time>2026-03-22T15:01:31.985Z</time></trkpt><trkpt lat="44.33376117016063" lon="12.272617117662405"><ele>-0.75</ele><time>2026-03-22T15:01:32.985Z</time></trkpt><trkpt lat="44.33389031108686" lon="12.272557704910676"><ele>-0.5</ele><time>2026-03-22T15:01:33.985Z</time></trkpt><trkpt lat="44.334021205193345" lon="12.272520150539371"><ele>-0.25</ele><time>2026-03-22T15:01:34.985Z</time></trkpt><trkpt lat="44.3341755984492" lon="12.272512973685698"><ele>0.0</ele><time>2026-03-22T15:01:35.985Z</time></trkpt><trkpt lat="44.3343292070454" lon="12.272477216668186"><ele>0.0</ele><time>2026-03-22T15:01:36.985Z</time></trkpt><trkpt lat="44.334452257346136" lon="12.272402340827112"><ele>0.0</ele><time>2026-03-22T15:01:37.985Z</time></trkpt><trkpt lat="44.334545956828286" lon="12.272287069645877"><ele>0.0</ele><time>2026-03-22T15:01:38.985Z</time></trkpt><trkpt lat="44.33461271447655" lon="12.272130129368787"><ele>0.0</ele><time>2026-03-22T15:01:39.985Z</time></trkpt><trkpt lat="44.3346785677705" lon="12.271956680938084"><ele>-1.0</ele><time>2026-03-22T15:01:40.985Z</time></trkpt><trkpt lat="44.33475602965165" lon="12.271800031663037"><ele>-2.0</ele><time>2026-03-22T15:01:41.985Z</time></trkpt><trkpt lat="44.334872226587514" lon="12.27165896685002"><ele>-3.0</ele><time>2026-03-22T15:01:42.985Z</time></trkpt><trkpt lat="44.33503943863372" lon="12.271499529279296"><ele>-2.6666666666666665</ele><time>2026-03-22T15:01:43.985Z</time></trkpt><trkpt lat="44.335220389072084" lon="12.27133420775973"><ele>-2.333333333333333</ele><time>2026-03-22T15:01:44.985Z</time></trkpt><trkpt lat="44.33541546588238" lon="12.271159800065703"><ele>-2.0</ele><time>2026-03-22T15:01:45.985Z</time></trkpt><trkpt lat="44.33560695590999" lon="12.270971133857048"><ele>-2.0</ele><time>2026-03-22T15:01:46.985Z</time></trkpt><trkpt lat="44.33581056083856" lon="12.27077453400641"><ele>-2.0</ele><time>2026-03-22T15:01:47.985Z</time></trkpt><trkpt lat="44.33602153983352" lon="12.270568912392411"><ele>-1.5</ele><time>2026-03-22T15:01:48.985Z</time></trkpt><trkpt lat="44.33623894504786" lon="12.270360019709232"><ele>-1.0</ele><time>2026-03-22T15:01:49.985Z</time></trkpt><trkpt lat="44.33646145494808" lon="12.270142146963241"><ele>-1.0</ele><time>2026-03-22T15:01:50.985Z</time></trkpt><trkpt lat="44.33669214234078" lon="12.269911602134664"><ele>-1.0</ele><time>2026-03-22T15:01:51.985Z</time></trkpt><trkpt lat="44.33692077060087" lon="12.269683840067387"><ele>-0.5</ele><time>2026-03-22T15:01:52.985Z</time></trkpt><trkpt lat="44.33713259969597" lon="12.269482457651403"><ele>0.0</ele><time>2026-03-22T15:01:53.985Z</time></trkpt><trkpt lat="44.33726516407926" lon="12.269232723829122"><ele>0.3333333333333333</ele><time>2026-03-22T15:01:54.985Z</time></trkpt><trkpt lat="44.337399567857275" lon="12.269014758257235"><ele>0.6666666666666666</ele><time>2026-03-22T15:01:55.985Z</time></trkpt><trkpt lat="44.337520808961656" lon="12.268836211378789"><ele>1.0</ele><time>2026-03-22T15:01:56.985Z</time></trkpt><trkpt lat="44.33778683277553" lon="12.268859433504758"><ele>1.0</ele><time>2026-03-22T15:01:57.985Z</time></trkpt><trkpt lat="44.337933790095285" lon="12.268740618863351"><ele>1.0</ele><time>2026-03-22T15:01:58.985Z</time></trkpt><trkpt lat="44.338099518721805" lon="12.268609236446094"><ele>1.0</ele><time>2026-03-22T15:01:59.985Z</time></trkpt><trkpt lat="44.33827723905257" lon="12.268468194873735"><ele>1.3333333333333333</ele><time>2026-03-22T15:02:00.985Z</time></trkpt><trkpt lat="44.33845628768247" lon="12.268321980592265"><ele>1.6666666666666665</ele><time>2026-03-22T15:02:01.985Z</time></trkpt><trkpt lat="44.33863739656002" lon="12.268176324993473"><ele>2.0</ele><time>2026-03-22T15:02:02.985Z</time></trkpt><trkpt lat="44.33881527163617" lon="12.268025003582133"><ele>1.6666666666666665</ele><time>2026-03-22T15:02:03.985Z</time></trkpt><trkpt lat="44.3389976396767" lon="12.267866016113675"><ele>1.3333333333333333</ele><time>2026-03-22T15:02:04.985Z</time></trkpt><trkpt lat="44.33919530862832" lon="12.267721183166156"><ele>1.0</ele><time>2026-03-22T15:02:05.985Z</time></trkpt><trkpt lat="44.339395376783884" lon="12.267575702410008"><ele>1.0</ele><time>2026-03-22T15:02:06.985Z</time></trkpt><trkpt lat="44.33960173841702" lon="12.267428161751171"><ele>1.0</ele><time>2026-03-22T15:02:07.985Z</time></trkpt><trkpt lat="44.33978424601207" lon="12.267296153244457"><ele>1.0</ele><time>2026-03-22T15:02:08.985Z</time></trkpt><trkpt lat="44.339952772494485" lon="12.267172588682298"><ele>0.3333333333333333</ele><time>2026-03-22T15:02:09.985Z</time></trkpt><trkpt lat="44.34012235815652" lon="12.267046507296671"><ele>-0.3333333333333333</ele><time>2026-03-22T15:02:10.985Z</time></trkpt><trkpt lat="44.340296535171454" lon="12.266904769041508"><ele>-1.0</ele><time>2026-03-22T15:02:11.985Z</time></trkpt><trkpt lat="44.340481670681406" lon="12.266762236446171"><ele>-1.0</ele><time>2026-03-22T15:02:12.985Z</time></trkpt><trkpt lat="44.34067163622146" lon="12.266622646911967"><ele>-1.0</ele><time>2026-03-22T15:02:13.985Z</time></trkpt><trkpt lat="44.340863568772534" lon="12.266482505856485"><ele>-1.0</ele><time>2026-03-22T15:02:14.985Z</time></trkpt><trkpt lat="44.341050566862094" lon="12.266340527104084"><ele>-1.0</ele><time>2026-03-22T15:02:15.985Z</time></trkpt><trkpt lat="44.341243461687284" lon="12.266193720235105"><ele>-1.0</ele><time>2026-03-22T15:02:16.985Z</time></trkpt><trkpt lat="44.341442479057186" lon="12.266042304047808"><ele>-1.0</ele><time>2026-03-22T15:02:17.985Z</time></trkpt><trkpt lat="44.341644514822576" lon="12.265893410239624"><ele>-1.0</ele><time>2026-03-22T15:02:18.985Z</time></trkpt><trkpt lat="44.34184880593263" lon="12.265750556277386"><ele>-1.0</ele><time>2026-03-22T15:02:19.985Z</time></trkpt><trkpt lat="44.342050630664964" lon="12.265609546384766"><ele>-0.6666666666666666</ele><time>2026-03-22T15:02:20.985Z</time></trkpt><trkpt lat="44.34225113946793" lon="12.265468134193055"><ele>-0.3333333333333333</ele><time>2026-03-22T15:02:21.985Z</time></trkpt><trkpt lat="44.342437053990295" lon="12.265328325085328"><ele>0.0</ele><time>2026-03-22T15:02:22.985Z</time></trkpt><trkpt lat="44.34261183918941" lon="12.265194932533"><ele>0.0</ele><time>2026-03-22T15:02:23.985Z</time></trkpt><trkpt lat="44.34276866173406" lon="12.265078461776675"><ele>0.0</ele><time>2026-03-22T15:02:24.985Z</time></trkpt><trkpt lat="44.34291635867128" lon="12.264969419820599"><ele>0.0</ele><time>2026-03-22T15:02:25.985Z</time></trkpt><trkpt lat="44.34305762900838" lon="12.264862359611799"><ele>-1.0</ele><time>2026-03-22T15:02:26.985Z</time></trkpt><trkpt lat="44.34319632807308" lon="12.264754579356847"><ele>-2.0</ele><time>2026-03-22T15:02:27.985Z</time></trkpt><trkpt lat="44.34333196568361" lon="12.264650695839464"><ele>-3.0</ele><time>2026-03-22T15:02:28.985Z</time></trkpt><trkpt lat="44.34346844426479" lon="12.264545213369939"><ele>-3.0</ele><time>2026-03-22T15:02:29.985Z</time></trkpt><trkpt lat="44.34359918825946" lon="12.26444797181523"><ele>-3.0</ele><time>2026-03-22T15:02:30.985Z</time></trkpt><trkpt lat="44.34372251015615" lon="12.26434883593262"><ele>-3.0</ele><time>2026-03-22T15:02:31.985Z</time></trkpt><trkpt lat="44.343845509387926" lon="12.264258278878968"><ele>-3.0</ele><time>2026-03-22T15:02:32.985Z</time></trkpt><trkpt lat="44.3439759159743" lon="12.264163779476442"><ele>-3.0</ele><time>2026-03-22T15:02:33.985Z</time></trkpt><trkpt lat="44.34411368500132" lon="12.264064940830707"><ele>-3.0</ele><time>2026-03-22T15:02:34.985Z</time></trkpt><trkpt lat="44.34424550041037" lon="12.263964620554898"><ele>-3.0</ele><time>2026-03-22T15:02:35.985Z</time></trkpt><trkpt lat="44.34436595812446" lon="12.263867060773936"><ele>-3.0</ele><time>2026-03-22T15:02:36.985Z</time></trkpt><trkpt lat="44.34448257954807" lon="12.26377580318515"><ele>-3.0</ele><time>2026-03-22T15:02:37.985Z</time></trkpt><trkpt lat="44.34459912634226" lon="12.26368617895936"><ele>-3.0</ele><time>2026-03-22T15:02:38.985Z</time></trkpt><trkpt lat="44.344713927941996" lon="12.263598679666403"><ele>-3.0</ele><time>2026-03-22T15:02:39.985Z</time></trkpt><trkpt lat="44.34482041989298" lon="12.263518701991162"><ele>-3.0</ele><time>2026-03-22T15:02:40.985Z</time></trkpt><trkpt lat="44.34491192017891" lon="12.263450477176006"><ele>-3.0</ele><time>2026-03-22T15:02:41.985Z</time></trkpt><trkpt lat="44.345002989476285" lon="12.263383618100445"><ele>-3.0</ele><time>2026-03-22T15:02:42.985Z</time></trkpt><trkpt lat="44.34509749506614" lon="12.263310203285114"><ele>-3.0</ele><time>2026-03-22T15:02:43.985Z</time></trkpt><trkpt lat="44.34520033712337" lon="12.263236918203503"><ele>-3.0</ele><time>2026-03-22T15:02:44.985Z</time></trkpt><trkpt lat="44.34530252831802" lon="12.263155690783895"><ele>-3.0</ele><time>2026-03-22T15:02:45.985Z</time></trkpt><trkpt lat="44.34541363976219" lon="12.263073673814867"><ele>-3.0</ele><time>2026-03-22T15:02:46.985Z</time></trkpt><trkpt lat="44.345529163761114" lon="12.26298838685744"><ele>-3.0</ele><time>2026-03-22T15:02:47.985Z</time></trkpt><trkpt lat="44.34565084387178" lon="12.262898486969325"><ele>-3.0</ele><time>2026-03-22T15:02:48.985Z</time></trkpt><trkpt lat="44.34577326710138" lon="12.262805362941357"><ele>-3.0</ele><time>2026-03-22T15:02:49.985Z</time></trkpt><trkpt lat="44.34589300650613" lon="12.262713106997243"><ele>-2.75</ele><time>2026-03-22T15:02:50.985Z</time></trkpt><trkpt lat="44.34600246986216" lon="12.262624241361088"><ele>-2.5</ele><time>2026-03-22T15:02:51.985Z</time></trkpt><trkpt lat="44.34610578784225" lon="12.26254903766254"><ele>-2.25</ele><time>2026-03-22T15:02:52.985Z</time></trkpt><trkpt lat="44.34620274800236" lon="12.262475487819522"><ele>-2.0</ele><time>2026-03-22T15:02:53.985Z</time></trkpt><trkpt lat="44.346291418759144" lon="12.262406647386939"><ele>-2.0</ele><time>2026-03-22T15:02:54.985Z</time></trkpt><trkpt lat="44.3463835229562" lon="12.262330924697725"><ele>-2.0</ele><time>2026-03-22T15:02:55.985Z</time></trkpt><trkpt lat="44.34647912012185" lon="12.262253813463792"><ele>-2.0</ele><time>2026-03-22T15:02:56.984Z</time></trkpt><trkpt lat="44.34658307111985" lon="12.262179190218534"><ele>-2.0</ele><time>2026-03-22T15:02:57.985Z</time></trkpt><trkpt lat="44.34669879888598" lon="12.2620861039754"><ele>-2.0</ele><time>2026-03-22T15:02:58.985Z</time></trkpt><trkpt lat="44.34682309295641" lon="12.261988316732515"><ele>-2.0</ele><time>2026-03-22T15:02:59.985Z</time></trkpt><trkpt lat="44.346958630102534" lon="12.261887318171304"><ele>-2.0</ele><time>2026-03-22T15:03:00.985Z</time></trkpt><trkpt lat="44.347105424040414" lon="12.261784295425313"><ele>-2.0</ele><time>2026-03-22T15:03:01.985Z</time></trkpt><trkpt lat="44.34725680606011" lon="12.261673279364732"><ele>-2.0</ele><time>2026-03-22T15:03:02.985Z</time></trkpt><trkpt lat="44.347408329876785" lon="12.261557751417005"><ele>-2.0</ele><time>2026-03-22T15:03:03.985Z</time></trkpt><trkpt lat="44.34756195051333" lon="12.261441692054131"><ele>-1.6666666666666665</ele><time>2026-03-22T15:03:04.985Z</time></trkpt><trkpt lat="44.3477114688127" lon="12.261328988581477"><ele>-1.3333333333333333</ele><time>2026-03-22T15:03:05.984Z</time></trkpt><trkpt lat="44.347861612456654" lon="12.261213611758238"><ele>-1.0</ele><time>2026-03-22T15:03:06.984Z</time></trkpt><trkpt lat="44.348012559257356" lon="12.261099280820495"><ele>-0.6666666666666666</ele><time>2026-03-22T15:03:07.984Z</time></trkpt><trkpt lat="44.34815768188631" lon="12.260987351031467"><ele>-0.3333333333333333</ele><time>2026-03-22T15:03:08.985Z</time></trkpt><trkpt lat="44.34829674014691" lon="12.260882784871256"><ele>0.0</ele><time>2026-03-22T15:03:09.985Z</time></trkpt><trkpt lat="44.348432831646804" lon="12.260770773470117"><ele>0.0</ele><time>2026-03-22T15:03:10.985Z</time></trkpt><trkpt lat="44.348568549924806" lon="12.260664278772422"><ele>0.0</ele><time>2026-03-22T15:03:11.985Z</time></trkpt><trkpt lat="44.34871410517705" lon="12.260540699522934"><ele>0.0</ele><time>2026-03-22T15:03:12.985Z</time></trkpt><trkpt lat="44.34887850555687" lon="12.26040944837935"><ele>0.3333333333333333</ele><time>2026-03-22T15:03:13.985Z</time></trkpt><trkpt lat="44.34905042238804" lon="12.260280414806427"><ele>0.6666666666666666</ele><time>2026-03-22T15:03:14.985Z</time></trkpt><trkpt lat="44.34922620161107" lon="12.260149336641781"><ele>1.0</ele><time>2026-03-22T15:03:15.985Z</time></trkpt><trkpt lat="44.34940362683722" lon="12.26001473017541"><ele>1.0</ele><time>2026-03-22T15:03:16.985Z</time></trkpt><trkpt lat="44.3495870860894" lon="12.259866192906202"><ele>1.0</ele><time>2026-03-22T15:03:17.985Z</time></trkpt><trkpt lat="44.349789442065955" lon="12.259713049610708"><ele>1.0</ele><time>2026-03-22T15:03:18.985Z</time></trkpt><trkpt lat="44.35000241070414" lon="12.259557413226041"><ele>-0.5</ele><time>2026-03-22T15:03:19.985Z</time></trkpt><trkpt lat="44.35022268150149" lon="12.259409798385645"><ele>-2.0</ele><time>2026-03-22T15:03:20.985Z</time></trkpt><trkpt lat="44.350428135172265" lon="12.25927221264517"><ele>-1.6666666666666665</ele><time>2026-03-22T15:03:21.985Z</time></trkpt><trkpt lat="44.350611633212" lon="12.259139012975856"><ele>-1.3333333333333333</ele><time>2026-03-22T15:03:22.985Z</time></trkpt><trkpt lat="44.350772460325544" lon="12.259019121931319"><ele>-1.0</ele><time>2026-03-22T15:03:23.985Z</time></trkpt><trkpt lat="44.35090394669127" lon="12.258911105007968"><ele>-1.4</ele><time>2026-03-22T15:03:24.985Z</time></trkpt><trkpt lat="44.35101920230161" lon="12.258813111339004"><ele>-1.8</ele><time>2026-03-22T15:03:25.985Z</time></trkpt><trkpt lat="44.351099203241745" lon="12.258729217089888"><ele>-2.1999999999999997</ele><time>2026-03-22T15:03:26.985Z</time></trkpt><trkpt lat="44.351170489891125" lon="12.258649018994126"><ele>-2.6</ele><time>2026-03-22T15:03:27.985Z</time></trkpt><trkpt lat="44.35123508831545" lon="12.258575602898064"><ele>-3.0</ele><time>2026-03-22T15:03:28.985Z</time></trkpt><trkpt lat="44.351305843765886" lon="12.258532300583056"><ele>-2.6666666666666665</ele><time>2026-03-22T15:03:29.985Z</time></trkpt><trkpt lat="44.35138436372947" lon="12.258511103904462"><ele>-2.3333333333333335</ele><time>2026-03-22T15:03:30.985Z</time></trkpt><trkpt lat="44.35146364881496" lon="12.258489068634685"><ele>-2.0</ele><time>2026-03-22T15:03:31.985Z</time></trkpt><trkpt lat="44.351545916962245" lon="12.258440005223198"><ele>-1.6666666666666665</ele><time>2026-03-22T15:03:32.985Z</time></trkpt><trkpt lat="44.35162288758699" lon="12.258358433293617"><ele>-1.3333333333333333</ele><time>2026-03-22T15:03:33.985Z</time></trkpt><trkpt lat="44.351685137382006" lon="12.25827633183448"><ele>-1.0</ele><time>2026-03-22T15:03:34.985Z</time></trkpt><trkpt lat="44.351747784599944" lon="12.258193687262224"><ele>-1.0</ele><time>2026-03-22T15:03:35.985Z</time></trkpt><trkpt lat="44.35182104881053" lon="12.258127932183527"><ele>-1.0</ele><time>2026-03-22T15:03:36.985Z</time></trkpt><trkpt lat="44.35192727173208" lon="12.258087956051664"><ele>-1.0</ele><time>2026-03-22T15:03:37.985Z</time></trkpt><trkpt lat="44.352035516560186" lon="12.25805069254636"><ele>-1.0</ele><time>2026-03-22T15:03:38.985Z</time></trkpt><trkpt lat="44.352138699706664" lon="12.257983590481786"><ele>-1.0</ele><time>2026-03-22T15:03:39.985Z</time></trkpt><trkpt lat="44.35225544686145" lon="12.257880604919643"><ele>-1.3333333333333333</ele><time>2026-03-22T15:03:40.985Z</time></trkpt><trkpt lat="44.352396980036836" lon="12.257755814253917"><ele>-1.6666666666666665</ele><time>2026-03-22T15:03:41.985Z</time></trkpt><trkpt lat="44.35255796534031" lon="12.25763562385588"><ele>-2.0</ele><time>2026-03-22T15:03:42.985Z</time></trkpt><trkpt lat="44.35271940352048" lon="12.257526744983933"><ele>-2.0</ele><time>2026-03-22T15:03:43.985Z</time></trkpt><trkpt lat="44.352902180781136" lon="12.257403097818543"><ele>-2.0</ele><time>2026-03-22T15:03:44.985Z</time></trkpt><trkpt lat="44.35308917214962" lon="12.257309414483988"><ele>-2.0</ele><time>2026-03-22T15:03:45.985Z</time></trkpt><trkpt lat="44.35327810237773" lon="12.257219405581758"><ele>-2.0</ele><time>2026-03-22T15:03:46.985Z</time></trkpt><trkpt lat="44.353456227116425" lon="12.257150318647373"><ele>-2.0</ele><time>2026-03-22T15:03:47.985Z</time></trkpt><trkpt lat="44.35364117126053" lon="12.257081217614049"><ele>-2.0</ele><time>2026-03-22T15:03:48.985Z</time></trkpt><trkpt lat="44.3538182288797" lon="12.257021612579331"><ele>-1.3333333333333333</ele><time>2026-03-22T15:03:49.985Z</time></trkpt><trkpt lat="44.353998701338604" lon="12.256962099327355"><ele>-0.6666666666666666</ele><time>2026-03-22T15:03:50.985Z</time></trkpt><trkpt lat="44.3541667541433" lon="12.256901357666411"><ele>0.0</ele><time>2026-03-22T15:03:51.985Z</time></trkpt><trkpt lat="44.354319632692246" lon="12.256855468618497"><ele>0.0</ele><time>2026-03-22T15:03:52.985Z</time></trkpt><trkpt lat="44.35446532219764" lon="12.256809255068935"><ele>0.0</ele><time>2026-03-22T15:03:53.985Z</time></trkpt><trkpt lat="44.35461521600256" lon="12.25676631846049"><ele>0.0</ele><time>2026-03-22T15:03:54.985Z</time></trkpt><trkpt lat="44.35476652983528" lon="12.256724274361401"><ele>0.0</ele><time>2026-03-22T15:03:55.985Z</time></trkpt><trkpt lat="44.35491880244189" lon="12.256687273883323"><ele>0.0</ele><time>2026-03-22T15:03:56.985Z</time></trkpt><trkpt lat="44.35507519755567" lon="12.256657621236016"><ele>0.0</ele><time>2026-03-22T15:03:57.985Z</time></trkpt><trkpt lat="44.3552503085775" lon="12.256629839972563"><ele>0.0</ele><time>2026-03-22T15:03:58.985Z</time></trkpt><trkpt lat="44.35543244439718" lon="12.256609718695769"><ele>0.0</ele><time>2026-03-22T15:03:59.985Z</time></trkpt><trkpt lat="44.35561728275971" lon="12.256598307254013"><ele>0.0</ele><time>2026-03-22T15:04:00.985Z</time></trkpt><trkpt lat="44.35579467084621" lon="12.25658337388456"><ele>0.0</ele><time>2026-03-22T15:04:01.985Z</time></trkpt><trkpt lat="44.35595417822431" lon="12.256569328686108"><ele>0.0</ele><time>2026-03-22T15:04:02.985Z</time></trkpt><trkpt lat="44.356110026886135" lon="12.256558713095899"><ele>0.0</ele><time>2026-03-22T15:04:03.985Z</time></trkpt><trkpt lat="44.35625953261745" lon="12.256546269957262"><ele>-0.3333333333333333</ele><time>2026-03-22T15:04:04.985Z</time></trkpt><trkpt lat="44.35641277236805" lon="12.256527638506942"><ele>-0.6666666666666666</ele><time>2026-03-22T15:04:05.985Z</time></trkpt><trkpt lat="44.35656715425381" lon="12.256503578826246"><ele>-1.0</ele><time>2026-03-22T15:04:06.985Z</time></trkpt><trkpt lat="44.35672626604326" lon="12.256485302522684"><ele>-1.0</ele><time>2026-03-22T15:04:07.985Z</time></trkpt><trkpt lat="44.35688811100634" lon="12.25645463599552"><ele>-1.0</ele><time>2026-03-22T15:04:08.985Z</time></trkpt><trkpt lat="44.35707017030668" lon="12.256421830376075"><ele>-1.0</ele><time>2026-03-22T15:04:09.985Z</time></trkpt><trkpt lat="44.357256348123556" lon="12.256379523757701"><ele>-0.6666666666666666</ele><time>2026-03-22T15:04:10.985Z</time></trkpt><trkpt lat="44.35744692195183" lon="12.256317283721927"><ele>-0.3333333333333333</ele><time>2026-03-22T15:04:11.985Z</time></trkpt><trkpt lat="44.35764436484138" lon="12.256242075903437"><ele>0.0</ele><time>2026-03-22T15:04:12.985Z</time></trkpt><trkpt lat="44.35784821426997" lon="12.256177033246892"><ele>0.0</ele><time>2026-03-22T15:04:13.985Z</time></trkpt><trkpt lat="44.35806569048336" lon="12.25609264224473"><ele>0.0</ele><time>2026-03-22T15:04:14.985Z</time></trkpt><trkpt lat="44.3582822069477" lon="12.256016915435518"><ele>0.0</ele><time>2026-03-22T15:04:15.985Z</time></trkpt><trkpt lat="44.35849119145181" lon="12.255945739585853"><ele>0.0</ele><time>2026-03-22T15:04:16.985Z</time></trkpt><trkpt lat="44.358685459897266" lon="12.255879254213035"><ele>0.0</ele><time>2026-03-22T15:04:17.985Z</time></trkpt><trkpt lat="44.35886901837849" lon="12.255818736378231"><ele>0.0</ele><time>2026-03-22T15:04:18.985Z</time></trkpt><trkpt lat="44.35903811981329" lon="12.255767581159382"><ele>0.0</ele><time>2026-03-22T15:04:19.985Z</time></trkpt><trkpt lat="44.35920758721846" lon="12.255708549836827"><ele>0.0</ele><time>2026-03-22T15:04:20.985Z</time></trkpt><trkpt lat="44.359392058956566" lon="12.255644285125037"><ele>0.0</ele><time>2026-03-22T15:04:21.985Z</time></trkpt><trkpt lat="44.35957808936627" lon="12.255571657153947"><ele>0.0</ele><time>2026-03-22T15:04:22.985Z</time></trkpt><trkpt lat="44.359764659080966" lon="12.25550201296792"><ele>0.0</ele><time>2026-03-22T15:04:23.985Z</time></trkpt><trkpt lat="44.35994331084709" lon="12.255428679648048"><ele>0.0</ele><time>2026-03-22T15:04:24.985Z</time></trkpt><trkpt lat="44.36010525935936" lon="12.255355927415541"><ele>0.0</ele><time>2026-03-22T15:04:25.985Z</time></trkpt><trkpt lat="44.3602659600166" lon="12.255273410312002"><ele>0.0</ele><time>2026-03-22T15:04:26.985Z</time></trkpt><trkpt lat="44.3604317472363" lon="12.255172502069632"><ele>0.0</ele><time>2026-03-22T15:04:27.985Z</time></trkpt><trkpt lat="44.36059265519731" lon="12.255071804001615"><ele>-0.3333333333333333</ele><time>2026-03-22T15:04:28.985Z</time></trkpt><trkpt lat="44.36074755715626" lon="12.25495552444222"><ele>-0.6666666666666666</ele><time>2026-03-22T15:04:29.985Z</time></trkpt><trkpt lat="44.360907312267166" lon="12.254822581941054"><ele>-1.0</ele><time>2026-03-22T15:04:30.985Z</time></trkpt><trkpt lat="44.36107343288334" lon="12.254681289729023"><ele>-1.0</ele><time>2026-03-22T15:04:31.985Z</time></trkpt><trkpt lat="44.361245173041496" lon="12.254530739709143"><ele>-1.0</ele><time>2026-03-22T15:04:32.985Z</time></trkpt><trkpt lat="44.36141383246486" lon="12.254371360003843"><ele>-1.0</ele><time>2026-03-22T15:04:33.985Z</time></trkpt><trkpt lat="44.361578724911986" lon="12.254203339259147"><ele>-1.0</ele><time>2026-03-22T15:04:34.985Z</time></trkpt><trkpt lat="44.36174387643133" lon="12.254044862083106"><ele>-1.0</ele><time>2026-03-22T15:04:35.985Z</time></trkpt><trkpt lat="44.36189826736388" lon="12.253883280394417"><ele>-1.0</ele><time>2026-03-22T15:04:36.985Z</time></trkpt><trkpt lat="44.36204404821447" lon="12.25372634003136"><ele>-1.6666666666666665</ele><time>2026-03-22T15:04:37.985Z</time></trkpt><trkpt lat="44.36219233265708" lon="12.25356505446515"><ele>-2.3333333333333335</ele><time>2026-03-22T15:04:38.985Z</time></trkpt><trkpt lat="44.36234675386811" lon="12.253402739174101"><ele>-3.0</ele><time>2026-03-22T15:04:39.985Z</time></trkpt><trkpt lat="44.3625011353237" lon="12.253236080596054"><ele>-3.333333333333333</ele><time>2026-03-22T15:04:40.985Z</time></trkpt><trkpt lat="44.362652519968826" lon="12.253074803491078"><ele>-3.6666666666666665</ele><time>2026-03-22T15:04:41.985Z</time></trkpt><trkpt lat="44.36278911738884" lon="12.252924740411387"><ele>-4.0</ele><time>2026-03-22T15:04:42.985Z</time></trkpt><trkpt lat="44.36290207656525" lon="12.252804112976191"><ele>-4.0</ele><time>2026-03-22T15:04:43.985Z</time></trkpt><trkpt lat="44.363006096903405" lon="12.252691267040937"><ele>-4.0</ele><time>2026-03-22T15:04:44.985Z</time></trkpt><trkpt lat="44.36310281122595" lon="12.2525876693826"><ele>-4.0</ele><time>2026-03-22T15:04:45.985Z</time></trkpt><trkpt lat="44.36319485352953" lon="12.252492205509444"><ele>-4.0</ele><time>2026-03-22T15:04:46.985Z</time></trkpt><trkpt lat="44.363282783496324" lon="12.252395332723832"><ele>-4.25</ele><time>2026-03-22T15:04:47.985Z</time></trkpt><trkpt lat="44.36337228187289" lon="12.252309250948155"><ele>-4.5</ele><time>2026-03-22T15:04:48.985Z</time></trkpt><trkpt lat="44.363449336155554" lon="12.252224420436601"><ele>-4.75</ele><time>2026-03-22T15:04:49.985Z</time></trkpt><trkpt lat="44.36353986777315" lon="12.252123182139648"><ele>-5.0</ele><time>2026-03-22T15:04:50.985Z</time></trkpt><trkpt lat="44.36364927602553" lon="12.252009828492428"><ele>-5.0</ele><time>2026-03-22T15:04:51.985Z</time></trkpt><trkpt lat="44.36376400856976" lon="12.251897250161804"><ele>-5.0</ele><time>2026-03-22T15:04:52.985Z</time></trkpt><trkpt lat="44.36387320502529" lon="12.251783258492633"><ele>-5.0</ele><time>2026-03-22T15:04:53.985Z</time></trkpt><trkpt lat="44.363987945369004" lon="12.251654415754592"><ele>-5.0</ele><time>2026-03-22T15:04:54.985Z</time></trkpt><trkpt lat="44.36412034759934" lon="12.251509262024628"><ele>-4.666666666666667</ele><time>2026-03-22T15:04:55.985Z</time></trkpt><trkpt lat="44.36426755526052" lon="12.251360060993257"><ele>-4.333333333333333</ele><time>2026-03-22T15:04:56.985Z</time></trkpt><trkpt lat="44.36441432924419" lon="12.251208980940099"><ele>-4.0</ele><time>2026-03-22T15:04:57.985Z</time></trkpt><trkpt lat="44.36456180355765" lon="12.251058916135653"><ele>-3.6666666666666665</ele><time>2026-03-22T15:04:58.985Z</time></trkpt><trkpt lat="44.36469913780215" lon="12.250910545152287"><ele>-3.333333333333333</ele><time>2026-03-22T15:04:59.985Z</time></trkpt><trkpt lat="44.36482449076718" lon="12.250768161401016"><ele>-3.0</ele><time>2026-03-22T15:05:00.985Z</time></trkpt><trkpt lat="44.36494857384113" lon="12.250636254859646"><ele>-2.6666666666666665</ele><time>2026-03-22T15:05:01.985Z</time></trkpt><trkpt lat="44.365070208372444" lon="12.250504777207693"><ele>-2.333333333333333</ele><time>2026-03-22T15:05:02.985Z</time></trkpt><trkpt lat="44.365196208811874" lon="12.250369179036625"><ele>-2.0</ele><time>2026-03-22T15:05:03.985Z</time></trkpt><trkpt lat="44.36532892383603" lon="12.250218171615877"><ele>-2.0</ele><time>2026-03-22T15:05:04.985Z</time></trkpt><trkpt lat="44.36547833711585" lon="12.250057502705719"><ele>-2.0</ele><time>2026-03-22T15:05:05.984Z</time></trkpt><trkpt lat="44.36563083411944" lon="12.249903624273374"><ele>-2.0</ele><time>2026-03-22T15:05:06.984Z</time></trkpt><trkpt lat="44.36577505664939" lon="12.249752939718181"><ele>-2.6666666666666665</ele><time>2026-03-22T15:05:07.984Z</time></trkpt><trkpt lat="44.365915711138086" lon="12.249606667259222"><ele>-3.333333333333333</ele><time>2026-03-22T15:05:08.985Z</time></trkpt><trkpt lat="44.36604886823472" lon="12.249462445505634"><ele>-4.0</ele><time>2026-03-22T15:05:09.984Z</time></trkpt><trkpt lat="44.36617972057815" lon="12.249324668906649"><ele>-4.0</ele><time>2026-03-22T15:05:10.984Z</time></trkpt><trkpt lat="44.366298148228346" lon="12.24920152973306"><ele>-4.0</ele><time>2026-03-22T15:05:11.984Z</time></trkpt><trkpt lat="44.366410594416315" lon="12.249084144034791"><ele>-4.0</ele><time>2026-03-22T15:05:12.985Z</time></trkpt><trkpt lat="44.36651384411971" lon="12.24897509030849"><ele>-4.0</ele><time>2026-03-22T15:05:13.985Z</time></trkpt><trkpt lat="44.366636081076564" lon="12.248855699496671"><ele>-4.0</ele><time>2026-03-22T15:05:14.985Z</time></trkpt><trkpt lat="44.36676084598397" lon="12.24873413557828"><ele>-4.0</ele><time>2026-03-22T15:05:15.985Z</time></trkpt><trkpt lat="44.366873164637255" lon="12.248611163012301"><ele>-4.0</ele><time>2026-03-22T15:05:16.985Z</time></trkpt><trkpt lat="44.36698707590912" lon="12.24849243270071"><ele>-4.0</ele><time>2026-03-22T15:05:17.985Z</time></trkpt><trkpt lat="44.367103679868194" lon="12.24837606370616"><ele>-4.0</ele><time>2026-03-22T15:05:18.985Z</time></trkpt><trkpt lat="44.367233014919144" lon="12.248247527668877"><ele>-4.0</ele><time>2026-03-22T15:05:19.985Z</time></trkpt><trkpt lat="44.36735994447606" lon="12.248125346261773"><ele>-4.0</ele><time>2026-03-22T15:05:20.985Z</time></trkpt><trkpt lat="44.367483037562224" lon="12.247999260211934"><ele>-3.333333333333333</ele><time>2026-03-22T15:05:21.985Z</time></trkpt><trkpt lat="44.367605672840114" lon="12.247865430092252"><ele>-2.6666666666666665</ele><time>2026-03-22T15:05:22.985Z</time></trkpt><trkpt lat="44.36772721444642" lon="12.247728228508015"><ele>-2.0</ele><time>2026-03-22T15:05:23.985Z</time></trkpt><trkpt lat="44.36785048731337" lon="12.24759010202043"><ele>-2.0</ele><time>2026-03-22T15:05:24.985Z</time></trkpt><trkpt lat="44.367971000732645" lon="12.247447864495335"><ele>-2.0</ele><time>2026-03-22T15:05:25.985Z</time></trkpt><trkpt lat="44.36808313626748" lon="12.247303974897607"><ele>-2.0</ele><time>2026-03-22T15:05:26.985Z</time></trkpt><trkpt lat="44.36818911065366" lon="12.247157007446166"><ele>-1.6666666666666665</ele><time>2026-03-22T15:05:27.985Z</time></trkpt><trkpt lat="44.36829377674571" lon="12.247010551372304"><ele>-1.3333333333333333</ele><time>2026-03-22T15:05:28.985Z</time></trkpt><trkpt lat="44.368418068267246" lon="12.24686812376786"><ele>-1.0</ele><time>2026-03-22T15:05:29.985Z</time></trkpt><trkpt lat="44.368561010982155" lon="12.246742104311672"><ele>-1.0</ele><time>2026-03-22T15:05:30.985Z</time></trkpt><trkpt lat="44.36871275171239" lon="12.246629925404097"><ele>-1.0</ele><time>2026-03-22T15:05:31.985Z</time></trkpt><trkpt lat="44.36886152746236" lon="12.246492091537016"><ele>-1.0</ele><time>2026-03-22T15:05:32.985Z</time></trkpt><trkpt lat="44.36902177648228" lon="12.246364322843904"><ele>-0.3333333333333333</ele><time>2026-03-22T15:05:33.985Z</time></trkpt><trkpt lat="44.369193272812836" lon="12.246259728851703"><ele>0.3333333333333333</ele><time>2026-03-22T15:05:34.985Z</time></trkpt><trkpt lat="44.369353405039355" lon="12.246130929821906"><ele>1.0</ele><time>2026-03-22T15:05:35.985Z</time></trkpt><trkpt lat="44.36952334984966" lon="12.24600634727819"><ele>1.0</ele><time>2026-03-22T15:05:36.985Z</time></trkpt><trkpt lat="44.36968776881256" lon="12.245876402464775"><ele>1.0</ele><time>2026-03-22T15:05:37.985Z</time></trkpt><trkpt lat="44.36985359344596" lon="12.245741890843208"><ele>1.0</ele><time>2026-03-22T15:05:38.985Z</time></trkpt><trkpt lat="44.37002640192931" lon="12.245614972457934"><ele>1.0</ele><time>2026-03-22T15:05:39.985Z</time></trkpt><trkpt lat="44.370203432887024" lon="12.24548291435223"><ele>1.0</ele><time>2026-03-22T15:05:40.985Z</time></trkpt><trkpt lat="44.3703835565531" lon="12.245348205790759"><ele>1.0</ele><time>2026-03-22T15:05:41.985Z</time></trkpt><trkpt lat="44.370558120519426" lon="12.245215449817472"><ele>1.0</ele><time>2026-03-22T15:05:42.985Z</time></trkpt><trkpt lat="44.37072478381366" lon="12.245084518189417"><ele>1.0</ele><time>2026-03-22T15:05:43.985Z</time></trkpt><trkpt lat="44.370889289549865" lon="12.244956482986607"><ele>1.0</ele><time>2026-03-22T15:05:44.985Z</time></trkpt><trkpt lat="44.371053373681036" lon="12.244830746643169"><ele>1.0</ele><time>2026-03-22T15:05:45.985Z</time></trkpt><trkpt lat="44.37121612458218" lon="12.244714582927774"><ele>1.0</ele><time>2026-03-22T15:05:46.985Z</time></trkpt><trkpt lat="44.37137646047406" lon="12.244594050851962"><ele>1.0</ele><time>2026-03-22T15:05:47.985Z</time></trkpt><trkpt lat="44.37153326155703" lon="12.244476601230629"><ele>1.0</ele><time>2026-03-22T15:05:48.985Z</time></trkpt><trkpt lat="44.371684083053694" lon="12.244352410873702"><ele>1.0</ele><time>2026-03-22T15:05:49.985Z</time></trkpt><trkpt lat="44.37184293952954" lon="12.244228771408308"><ele>1.0</ele><time>2026-03-22T15:05:50.985Z</time></trkpt><trkpt lat="44.37199143290694" lon="12.24411524787209"><ele>1.0</ele><time>2026-03-22T15:05:51.985Z</time></trkpt><trkpt lat="44.37214340808112" lon="12.243998173542924"><ele>1.0</ele><time>2026-03-22T15:05:52.985Z</time></trkpt><trkpt lat="44.372288951088365" lon="12.243886242702475"><ele>1.0</ele><time>2026-03-22T15:05:53.985Z</time></trkpt><trkpt lat="44.372435786415714" lon="12.243776058716561"><ele>1.0</ele><time>2026-03-22T15:05:54.985Z</time></trkpt><trkpt lat="44.372578098872566" lon="12.243670130515527"><ele>1.0</ele><time>2026-03-22T15:05:55.985Z</time></trkpt><trkpt lat="44.37271313888374" lon="12.243566041615935"><ele>1.0</ele><time>2026-03-22T15:05:56.985Z</time></trkpt><trkpt lat="44.3728455067512" lon="12.243464037250655"><ele>1.0</ele><time>2026-03-22T15:05:57.985Z</time></trkpt><trkpt lat="44.37298021266084" lon="12.243361259406896"><ele>1.0</ele><time>2026-03-22T15:05:58.985Z</time></trkpt><trkpt lat="44.373107175747045" lon="12.243260272661509"><ele>1.0</ele><time>2026-03-22T15:05:59.985Z</time></trkpt><trkpt lat="44.3732298549126" lon="12.24316270792242"><ele>1.0</ele><time>2026-03-22T15:06:00.985Z</time></trkpt><trkpt lat="44.37335058117753" lon="12.243068979349376"><ele>0.75</ele><time>2026-03-22T15:06:01.985Z</time></trkpt><trkpt lat="44.3734742938906" lon="12.242973352872578"><ele>0.5</ele><time>2026-03-22T15:06:02.985Z</time></trkpt><trkpt lat="44.37359904096439" lon="12.242876974525528"><ele>0.25</ele><time>2026-03-22T15:06:03.985Z</time></trkpt><trkpt lat="44.3737319610069" lon="12.242778117656806"><ele>0.0</ele><time>2026-03-22T15:06:04.985Z</time></trkpt><trkpt lat="44.373868505230774" lon="12.242676028358542"><ele>0.0</ele><time>2026-03-22T15:06:05.985Z</time></trkpt><trkpt lat="44.374005599212914" lon="12.242569124651384"><ele>0.0</ele><time>2026-03-22T15:06:06.985Z</time></trkpt><trkpt lat="44.37414480649303" lon="12.24245906144984"><ele>0.0</ele><time>2026-03-22T15:06:07.985Z</time></trkpt><trkpt lat="44.37428601654917" lon="12.242351335135792"><ele>0.0</ele><time>2026-03-22T15:06:08.985Z</time></trkpt><trkpt lat="44.37442896630186" lon="12.242245033442734"><ele>0.0</ele><time>2026-03-22T15:06:09.985Z</time></trkpt><trkpt lat="44.37456716085641" lon="12.242126515768003"><ele>0.0</ele><time>2026-03-22T15:06:10.985Z</time></trkpt><trkpt lat="44.37469103449957" lon="12.242010907206938"><ele>0.0</ele><time>2026-03-22T15:06:11.985Z</time></trkpt><trkpt lat="44.37479545224412" lon="12.241881414586636"><ele>0.0</ele><time>2026-03-22T15:06:12.985Z</time></trkpt><trkpt lat="44.37489643177816" lon="12.241737571387072"><ele>0.0</ele><time>2026-03-22T15:06:13.985Z</time></trkpt><trkpt lat="44.37498110352328" lon="12.241574756950003"><ele>0.0</ele><time>2026-03-22T15:06:14.985Z</time></trkpt><trkpt lat="44.37506060556575" lon="12.241401354546797"><ele>0.3333333333333333</ele><time>2026-03-22T15:06:15.985Z</time></trkpt><trkpt lat="44.37512761333108" lon="12.241212251130662"><ele>0.6666666666666666</ele><time>2026-03-22T15:06:16.985Z</time></trkpt><trkpt lat="44.37518634550545" lon="12.241017044612157"><ele>1.0</ele><time>2026-03-22T15:06:17.985Z</time></trkpt><trkpt lat="44.37524245617707" lon="12.240823687658773"><ele>1.6666666666666665</ele><time>2026-03-22T15:06:18.985Z</time></trkpt><trkpt lat="44.375284846139515" lon="12.240613407424656"><ele>2.3333333333333335</ele><time>2026-03-22T15:06:19.985Z</time></trkpt><trkpt lat="44.37533439445851" lon="12.240416833201015"><ele>3.0</ele><time>2026-03-22T15:06:20.985Z</time></trkpt><trkpt lat="44.37538115611995" lon="12.240224748400351"><ele>3.0</ele><time>2026-03-22T15:06:21.985Z</time></trkpt><trkpt lat="44.37543033432859" lon="12.2400181740668"><ele>3.0</ele><time>2026-03-22T15:06:22.985Z</time></trkpt><trkpt lat="44.375479370073606" lon="12.239823852731385"><ele>3.0</ele><time>2026-03-22T15:06:23.985Z</time></trkpt><trkpt lat="44.375530633796735" lon="12.239626628318016"><ele>2.5</ele><time>2026-03-22T15:06:24.985Z</time></trkpt><trkpt lat="44.37557733932588" lon="12.239434068697454"><ele>2.0</ele><time>2026-03-22T15:06:25.985Z</time></trkpt><trkpt lat="44.37562488195167" lon="12.239248536513982"><ele>1.5</ele><time>2026-03-22T15:06:26.985Z</time></trkpt><trkpt lat="44.37566609623262" lon="12.239082461040802"><ele>1.0</ele><time>2026-03-22T15:06:27.985Z</time></trkpt><trkpt lat="44.37569525605597" lon="12.238920132032906"><ele>1.0</ele><time>2026-03-22T15:06:28.985Z</time></trkpt><trkpt lat="44.37572724129665" lon="12.238802579908318"><ele>1.0</ele><time>2026-03-22T15:06:29.985Z</time></trkpt><trkpt lat="44.375758167667826" lon="12.238700453469214"><ele>1.0</ele><time>2026-03-22T15:06:30.985Z</time></trkpt><trkpt lat="44.37578226001026" lon="12.23860863278568"><ele>1.0</ele><time>2026-03-22T15:06:31.985Z</time></trkpt><trkpt lat="44.37581741723819" lon="12.23845254734112"><ele>1.0</ele><time>2026-03-22T15:06:33.985Z</time></trkpt><trkpt lat="44.37586166702115" lon="12.238293880937105"><ele>1.0</ele><time>2026-03-22T15:06:35.985Z</time></trkpt><trkpt lat="44.375893175964805" lon="12.238153575542574"><ele>1.0</ele><time>2026-03-22T15:06:36.985Z</time></trkpt><trkpt lat="44.375928902832996" lon="12.237980897652664"><ele>1.0</ele><time>2026-03-22T15:06:37.985Z</time></trkpt><trkpt lat="44.375973642145304" lon="12.237796100671659"><ele>1.0</ele><time>2026-03-22T15:06:38.985Z</time></trkpt><trkpt lat="44.376029580993325" lon="12.23757099306934"><ele>0.0</ele><time>2026-03-22T15:06:39.985Z</time></trkpt><trkpt lat="44.376094970828724" lon="12.237330285165305"><ele>-1.0</ele><time>2026-03-22T15:06:40.985Z</time></trkpt><trkpt lat="44.3761683587358" lon="12.237079681837892"><ele>-2.0</ele><time>2026-03-22T15:06:41.985Z</time></trkpt><trkpt lat="44.37626325424996" lon="12.236797331172417"><ele>-2.333333333333333</ele><time>2026-03-22T15:06:42.985Z</time></trkpt><trkpt lat="44.37633843169832" lon="12.236527832467093"><ele>-2.6666666666666665</ele><time>2026-03-22T15:06:43.985Z</time></trkpt><trkpt lat="44.37640901816591" lon="12.236281292462998"><ele>-3.0</ele><time>2026-03-22T15:06:44.985Z</time></trkpt><trkpt lat="44.376483690953535" lon="12.236052957609385"><ele>-2.5</ele><time>2026-03-22T15:06:45.985Z</time></trkpt><trkpt lat="44.37656951945402" lon="12.235870782193889"><ele>-2.0</ele><time>2026-03-22T15:06:46.985Z</time></trkpt><trkpt lat="44.376674636981605" lon="12.235717735086348"><ele>-1.5</ele><time>2026-03-22T15:06:47.985Z</time></trkpt><trkpt lat="44.37677751966054" lon="12.235600982238456"><ele>-1.0</ele><time>2026-03-22T15:06:48.985Z</time></trkpt><trkpt lat="44.37686638215379" lon="12.23550211753011"><ele>-1.0</ele><time>2026-03-22T15:06:49.985Z</time></trkpt><trkpt lat="44.376944895340785" lon="12.235423376264173"><ele>-1.0</ele><time>2026-03-22T15:06:50.985Z</time></trkpt><trkpt lat="44.37702081494242" lon="12.235336447119137"><ele>-1.0</ele><time>2026-03-22T15:06:51.985Z</time></trkpt><trkpt lat="44.37710297545823" lon="12.235246951552732"><ele>-1.0</ele><time>2026-03-22T15:06:52.985Z</time></trkpt><trkpt lat="44.37718339312593" lon="12.235162442406843"><ele>-1.0</ele><time>2026-03-22T15:06:53.985Z</time></trkpt><trkpt lat="44.37725578301572" lon="12.235078824089447"><ele>-0.9999999999999999</ele><time>2026-03-22T15:06:54.985Z</time></trkpt><trkpt lat="44.377330233633124" lon="12.234998207345708"><ele>-1.0</ele><time>2026-03-22T15:06:55.985Z</time></trkpt><trkpt lat="44.37739891153995" lon="12.234929865525745"><ele>-1.0</ele><time>2026-03-22T15:06:56.985Z</time></trkpt><trkpt lat="44.37746172063124" lon="12.23486632753183"><ele>-1.0</ele><time>2026-03-22T15:06:57.985Z</time></trkpt><trkpt lat="44.37752783166606" lon="12.234803322138902"><ele>-0.9999999999999999</ele><time>2026-03-22T15:06:58.985Z</time></trkpt><trkpt lat="44.37759834616325" lon="12.234725867400778"><ele>-1.0</ele><time>2026-03-22T15:06:59.985Z</time></trkpt><trkpt lat="44.37766601195048" lon="12.234652217042491"><ele>-0.8</ele><time>2026-03-22T15:07:00.985Z</time></trkpt><trkpt lat="44.3777386921831" lon="12.23457775678004"><ele>-0.6000000000000001</ele><time>2026-03-22T15:07:01.985Z</time></trkpt><trkpt lat="44.377811703738885" lon="12.234502932754513"><ele>-0.4</ele><time>2026-03-22T15:07:02.985Z</time></trkpt><trkpt lat="44.37788676411602" lon="12.234421064019298"><ele>-0.2</ele><time>2026-03-22T15:07:03.985Z</time></trkpt><trkpt lat="44.37796171884029" lon="12.234326556061829"><ele>0.0</ele><time>2026-03-22T15:07:04.985Z</time></trkpt><trkpt lat="44.3780402595001" lon="12.234222852296845"><ele>-0.5</ele><time>2026-03-22T15:07:05.985Z</time></trkpt><trkpt lat="44.3781197527863" lon="12.234108736585942"><ele>-1.0</ele><time>2026-03-22T15:07:06.985Z</time></trkpt><trkpt lat="44.378201240302424" lon="12.233979046103633"><ele>-1.5</ele><time>2026-03-22T15:07:07.985Z</time></trkpt><trkpt lat="44.37828723130457" lon="12.233833816040542"><ele>-2.0</ele><time>2026-03-22T15:07:08.985Z</time></trkpt><trkpt lat="44.378371618406796" lon="12.233670794469893"><ele>-2.0</ele><time>2026-03-22T15:07:09.984Z</time></trkpt><trkpt lat="44.37845686639066" lon="12.233490989571681"><ele>-2.0</ele><time>2026-03-22T15:07:10.984Z</time></trkpt><trkpt lat="44.37853719309525" lon="12.233294808512914"><ele>-2.0</ele><time>2026-03-22T15:07:11.985Z</time></trkpt><trkpt lat="44.37860618586105" lon="12.23308223711637"><ele>-2.333333333333333</ele><time>2026-03-22T15:07:12.985Z</time></trkpt><trkpt lat="44.37866885724283" lon="12.232860173028476"><ele>-2.6666666666666665</ele><time>2026-03-22T15:07:13.985Z</time></trkpt><trkpt lat="44.378725917108916" lon="12.232633951150762"><ele>-3.0</ele><time>2026-03-22T15:07:14.985Z</time></trkpt><trkpt lat="44.37877943762861" lon="12.232401518601794"><ele>-3.0</ele><time>2026-03-22T15:07:15.984Z</time></trkpt><trkpt lat="44.37883558052068" lon="12.232184010393397"><ele>-3.0</ele><time>2026-03-22T15:07:16.984Z</time></trkpt><trkpt lat="44.37888782305315" lon="12.231985522011781"><ele>-3.0</ele><time>2026-03-22T15:07:17.984Z</time></trkpt><trkpt lat="44.378937707562635" lon="12.231800355415706"><ele>-3.0</ele><time>2026-03-22T15:07:18.985Z</time></trkpt><trkpt lat="44.378984701177565" lon="12.231627349179906"><ele>-3.0</ele><time>2026-03-22T15:07:19.985Z</time></trkpt><trkpt lat="44.379038207954686" lon="12.231468993824052"><ele>-3.0</ele><time>2026-03-22T15:07:20.985Z</time></trkpt><trkpt lat="44.379082246111054" lon="12.231297243122949"><ele>-3.0</ele><time>2026-03-22T15:07:21.985Z</time></trkpt><trkpt lat="44.37917056721523" lon="12.231166416554233"><ele>-3.0</ele><time>2026-03-22T15:07:22.985Z</time></trkpt><trkpt lat="44.379292814375866" lon="12.23106442132184"><ele>-3.0</ele><time>2026-03-22T15:07:23.985Z</time></trkpt><trkpt lat="44.37942253438774" lon="12.230983988698503"><ele>-3.0</ele><time>2026-03-22T15:07:24.985Z</time></trkpt><trkpt lat="44.37957164989641" lon="12.230955783881843"><ele>-3.0</ele><time>2026-03-22T15:07:25.985Z</time></trkpt><trkpt lat="44.37972234966992" lon="12.230927564033106"><ele>-2.75</ele><time>2026-03-22T15:07:26.985Z</time></trkpt><trkpt lat="44.37987773847119" lon="12.230933975423952"><ele>-2.5</ele><time>2026-03-22T15:07:27.985Z</time></trkpt><trkpt lat="44.38002131496273" lon="12.230938568483777"><ele>-2.25</ele><time>2026-03-22T15:07:28.985Z</time></trkpt><trkpt lat="44.380154865284915" lon="12.230919020636266"><ele>-2.0</ele><time>2026-03-22T15:07:29.985Z</time></trkpt><trkpt lat="44.38028076444274" lon="12.230927846828358"><ele>-2.0</ele><time>2026-03-22T15:07:30.985Z</time></trkpt><trkpt lat="44.380396672085986" lon="12.230958810255302"><ele>-2.0</ele><time>2026-03-22T15:07:31.985Z</time></trkpt><trkpt lat="44.38049543138047" lon="12.23101315719356"><ele>-2.0</ele><time>2026-03-22T15:07:32.985Z</time></trkpt><trkpt lat="44.38058752684036" lon="12.231057153124445"><ele>-2.0</ele><time>2026-03-22T15:07:33.985Z</time></trkpt><trkpt lat="44.38067653620457" lon="12.231109514113859"><ele>-2.0</ele><time>2026-03-22T15:07:34.985Z</time></trkpt><trkpt lat="44.38076412499883" lon="12.231169067440204"><ele>-2.0</ele><time>2026-03-22T15:07:35.985Z</time></trkpt><trkpt lat="44.380847966267694" lon="12.23123318556624"><ele>-2.0</ele><time>2026-03-22T15:07:36.985Z</time></trkpt><trkpt lat="44.38093085179703" lon="12.231262039368502"><ele>-2.0</ele><time>2026-03-22T15:07:37.985Z</time></trkpt><trkpt lat="44.38101578775585" lon="12.23125033773787"><ele>-2.0</ele><time>2026-03-22T15:07:38.985Z</time></trkpt><trkpt lat="44.381081657707966" lon="12.231145068482027"><ele>-2.0</ele><time>2026-03-22T15:07:39.985Z</time></trkpt><trkpt lat="44.381165627787084" lon="12.231048135120888"><ele>-2.0</ele><time>2026-03-22T15:07:40.985Z</time></trkpt><trkpt lat="44.381260144007484" lon="12.23095153713182"><ele>-2.0</ele><time>2026-03-22T15:07:41.985Z</time></trkpt><trkpt lat="44.38135858437891" lon="12.230843539929088"><ele>-2.0</ele><time>2026-03-22T15:07:42.985Z</time></trkpt><trkpt lat="44.3814900465126" lon="12.230767241656334"><ele>-2.0</ele><time>2026-03-22T15:07:43.985Z</time></trkpt><trkpt lat="44.38160443917393" lon="12.230647698811385"><ele>-2.333333333333333</ele><time>2026-03-22T15:07:44.985Z</time></trkpt><trkpt lat="44.38172589515966" lon="12.230526267058142"><ele>-2.6666666666666665</ele><time>2026-03-22T15:07:45.985Z</time></trkpt><trkpt lat="44.38185066923081" lon="12.23040662150996"><ele>-3.0</ele><time>2026-03-22T15:07:46.985Z</time></trkpt><trkpt lat="44.38197780362494" lon="12.230279781468042"><ele>-3.0</ele><time>2026-03-22T15:07:47.985Z</time></trkpt><trkpt lat="44.382106164300275" lon="12.230144900619946"><ele>-3.0</ele><time>2026-03-22T15:07:48.985Z</time></trkpt><trkpt lat="44.38223957063357" lon="12.230005506822627"><ele>-3.0</ele><time>2026-03-22T15:07:49.985Z</time></trkpt><trkpt lat="44.3823788527899" lon="12.229859932843183"><ele>-3.0</ele><time>2026-03-22T15:07:50.985Z</time></trkpt><trkpt lat="44.38252103479855" lon="12.22971452501559"><ele>-3.0</ele><time>2026-03-22T15:07:51.985Z</time></trkpt><trkpt lat="44.382667520158634" lon="12.229567030976261"><ele>-3.0</ele><time>2026-03-22T15:07:52.985Z</time></trkpt><trkpt lat="44.38281753243979" lon="12.229419204090249"><ele>-3.0</ele><time>2026-03-22T15:07:53.985Z</time></trkpt><trkpt lat="44.3829613487054" lon="12.229277466304994"><ele>-3.0</ele><time>2026-03-22T15:07:54.985Z</time></trkpt><trkpt lat="44.383106408958994" lon="12.22912814093637"><ele>-3.0</ele><time>2026-03-22T15:07:55.985Z</time></trkpt><trkpt lat="44.383256346171116" lon="12.228973364740197"><ele>-3.0</ele><time>2026-03-22T15:07:56.985Z</time></trkpt><trkpt lat="44.383404047574956" lon="12.228818473275046"><ele>-3.0</ele><time>2026-03-22T15:07:57.985Z</time></trkpt><trkpt lat="44.38355381321352" lon="12.22866452869246"><ele>-3.0</ele><time>2026-03-22T15:07:58.985Z</time></trkpt><trkpt lat="44.3837027106975" lon="12.228513221460373"><ele>-3.0</ele><time>2026-03-22T15:07:59.985Z</time></trkpt><trkpt lat="44.38384775304222" lon="12.22836395850815"><ele>-3.0</ele><time>2026-03-22T15:08:00.985Z</time></trkpt><trkpt lat="44.38399196309126" lon="12.228213926245056"><ele>-3.0</ele><time>2026-03-22T15:08:01.985Z</time></trkpt><trkpt lat="44.38413611389101" lon="12.228066465485128"><ele>-3.0</ele><time>2026-03-22T15:08:02.985Z</time></trkpt><trkpt lat="44.38427958191202" lon="12.227921470190719"><ele>-3.0</ele><time>2026-03-22T15:08:03.985Z</time></trkpt><trkpt lat="44.38442583191537" lon="12.227776280333375"><ele>-3.0</ele><time>2026-03-22T15:08:04.985Z</time></trkpt><trkpt lat="44.384568321047944" lon="12.227631320520384"><ele>-3.0</ele><time>2026-03-22T15:08:05.985Z</time></trkpt><trkpt lat="44.38470758130969" lon="12.227483990150647"><ele>-3.0</ele><time>2026-03-22T15:08:06.985Z</time></trkpt><trkpt lat="44.384846772415706" lon="12.227341799479207"><ele>-3.0</ele><time>2026-03-22T15:08:07.985Z</time></trkpt><trkpt lat="44.384983469912726" lon="12.227200408399886"><ele>-3.0</ele><time>2026-03-22T15:08:08.985Z</time></trkpt><trkpt lat="44.38511760967193" lon="12.227060676919427"><ele>-3.0</ele><time>2026-03-22T15:08:09.985Z</time></trkpt><trkpt lat="44.3852495992039" lon="12.226923775578886"><ele>-3.0</ele><time>2026-03-22T15:08:10.985Z</time></trkpt><trkpt lat="44.38538330066903" lon="12.226786140158529"><ele>-2.0</ele><time>2026-03-22T15:08:11.985Z</time></trkpt><trkpt lat="44.38551747224751" lon="12.226651459606204"><ele>-1.0</ele><time>2026-03-22T15:08:12.985Z</time></trkpt><trkpt lat="44.38564924990178" lon="12.226516061054705"><ele>0.0</ele><time>2026-03-22T15:08:13.985Z</time></trkpt><trkpt lat="44.385776262941995" lon="12.226388576408043"><ele>0.5</ele><time>2026-03-22T15:08:14.985Z</time></trkpt><trkpt lat="44.38589387441178" lon="12.226267935897251"><ele>1.0</ele><time>2026-03-22T15:08:15.985Z</time></trkpt><trkpt lat="44.38600498373198" lon="12.226154443454899"><ele>1.5</ele><time>2026-03-22T15:08:16.985Z</time></trkpt><trkpt lat="44.386108770440266" lon="12.226049288895046"><ele>2.0</ele><time>2026-03-22T15:08:17.985Z</time></trkpt><trkpt lat="44.38620488363204" lon="12.225950204714625"><ele>2.0</ele><time>2026-03-22T15:08:18.985Z</time></trkpt><trkpt lat="44.38630291211703" lon="12.22585050266792"><ele>2.0</ele><time>2026-03-22T15:08:19.985Z</time></trkpt><trkpt lat="44.386395718389146" lon="12.225752212369855"><ele>2.0</ele><time>2026-03-22T15:08:20.985Z</time></trkpt><trkpt lat="44.38649424593576" lon="12.22564605614069"><ele>2.0</ele><time>2026-03-22T15:08:21.985Z</time></trkpt><trkpt lat="44.38660281824946" lon="12.225541319749158"><ele>1.75</ele><time>2026-03-22T15:08:22.985Z</time></trkpt><trkpt lat="44.38671075959703" lon="12.225430124453029"><ele>1.5</ele><time>2026-03-22T15:08:23.985Z</time></trkpt><trkpt lat="44.38682290455046" lon="12.22531190206097"><ele>1.25</ele><time>2026-03-22T15:08:24.985Z</time></trkpt><trkpt lat="44.38694455277072" lon="12.225186624113705"><ele>1.0</ele><time>2026-03-22T15:08:25.985Z</time></trkpt><trkpt lat="44.387068893795984" lon="12.225057872211"><ele>0.75</ele><time>2026-03-22T15:08:26.985Z</time></trkpt><trkpt lat="44.38718932410631" lon="12.224924772110207"><ele>0.5</ele><time>2026-03-22T15:08:27.985Z</time></trkpt><trkpt lat="44.38730454617012" lon="12.224801619426838"><ele>0.25</ele><time>2026-03-22T15:08:28.985Z</time></trkpt><trkpt lat="44.387408610623325" lon="12.224690739626507"><ele>0.0</ele><time>2026-03-22T15:08:29.985Z</time></trkpt><trkpt lat="44.387508526127355" lon="12.224587806328573"><ele>0.0</ele><time>2026-03-22T15:08:30.985Z</time></trkpt><trkpt lat="44.38762132326601" lon="12.224478353912398"><ele>0.0</ele><time>2026-03-22T15:08:31.985Z</time></trkpt><trkpt lat="44.387732723513516" lon="12.224362864869908"><ele>0.0</ele><time>2026-03-22T15:08:32.985Z</time></trkpt><trkpt lat="44.38784654839006" lon="12.224241046909281"><ele>0.0</ele><time>2026-03-22T15:08:33.985Z</time></trkpt><trkpt lat="44.38796518940764" lon="12.224118958434678"><ele>-0.25</ele><time>2026-03-22T15:08:34.985Z</time></trkpt><trkpt lat="44.38808523940561" lon="12.22399947141977"><ele>-0.5</ele><time>2026-03-22T15:08:35.985Z</time></trkpt><trkpt lat="44.38819838391923" lon="12.223882642273779"><ele>-0.75</ele><time>2026-03-22T15:08:36.985Z</time></trkpt><trkpt lat="44.38830848479622" lon="12.223766178449432"><ele>-1.0</ele><time>2026-03-22T15:08:37.985Z</time></trkpt><trkpt lat="44.388417199132945" lon="12.223646605987216"><ele>-1.25</ele><time>2026-03-22T15:08:38.985Z</time></trkpt><trkpt lat="44.388532071151864" lon="12.223531611201665"><ele>-1.5</ele><time>2026-03-22T15:08:39.985Z</time></trkpt><trkpt lat="44.388644662002406" lon="12.223416348957308"><ele>-1.75</ele><time>2026-03-22T15:08:40.985Z</time></trkpt><trkpt lat="44.38875821297174" lon="12.223303704816509"><ele>-2.0</ele><time>2026-03-22T15:08:41.985Z</time></trkpt><trkpt lat="44.38887136885851" lon="12.223189347437163"><ele>-1.75</ele><time>2026-03-22T15:08:42.985Z</time></trkpt><trkpt lat="44.388987942111484" lon="12.223073560179301"><ele>-1.5</ele><time>2026-03-22T15:08:43.985Z</time></trkpt><trkpt lat="44.389116180374494" lon="12.222954683167414"><ele>-1.25</ele><time>2026-03-22T15:08:44.985Z</time></trkpt><trkpt lat="44.38923436194054" lon="12.222829444406086"><ele>-1.0</ele><time>2026-03-22T15:08:45.985Z</time></trkpt><trkpt lat="44.38935696621278" lon="12.222700815656308"><ele>-1.0</ele><time>2026-03-22T15:08:46.985Z</time></trkpt><trkpt lat="44.3894849977284" lon="12.222569979341747"><ele>-1.0</ele><time>2026-03-22T15:08:47.985Z</time></trkpt><trkpt lat="44.38961468208289" lon="12.222440273609456"><ele>-1.0</ele><time>2026-03-22T15:08:48.985Z</time></trkpt><trkpt lat="44.389740773336065" lon="12.22231320503432"><ele>-0.3333333333333333</ele><time>2026-03-22T15:08:49.985Z</time></trkpt><trkpt lat="44.389864558184165" lon="12.222184723234209"><ele>0.3333333333333333</ele><time>2026-03-22T15:08:50.985Z</time></trkpt><trkpt lat="44.38998725332465" lon="12.222058254198807"><ele>1.0</ele><time>2026-03-22T15:08:51.985Z</time></trkpt><trkpt lat="44.390111667295095" lon="12.221927897236952"><ele>1.0</ele><time>2026-03-22T15:08:52.985Z</time></trkpt><trkpt lat="44.39023651813273" lon="12.221800945771985"><ele>1.0</ele><time>2026-03-22T15:08:53.985Z</time></trkpt><trkpt lat="44.390359016353294" lon="12.221680155451415"><ele>1.0</ele><time>2026-03-22T15:08:54.985Z</time></trkpt><trkpt lat="44.390477315972575" lon="12.22155975013339"><ele>1.0</ele><time>2026-03-22T15:08:55.985Z</time></trkpt><trkpt lat="44.390598776531995" lon="12.221442729483645"><ele>1.0</ele><time>2026-03-22T15:08:56.985Z</time></trkpt><trkpt lat="44.39071893603301" lon="12.221323172333364"><ele>1.0</ele><time>2026-03-22T15:08:57.985Z</time></trkpt><trkpt lat="44.39084009730928" lon="12.22120323709449"><ele>1.0</ele><time>2026-03-22T15:08:58.985Z</time></trkpt><trkpt lat="44.390954917453136" lon="12.221086789934493"><ele>1.0</ele><time>2026-03-22T15:08:59.985Z</time></trkpt><trkpt lat="44.391064919266746" lon="12.220970604300827"><ele>1.0</ele><time>2026-03-22T15:09:00.985Z</time></trkpt><trkpt lat="44.3911773736099" lon="12.220848979407064"><ele>1.0</ele><time>2026-03-22T15:09:01.985Z</time></trkpt><trkpt lat="44.39128131617128" lon="12.22072915631792"><ele>1.0</ele><time>2026-03-22T15:09:02.985Z</time></trkpt><trkpt lat="44.39138947253302" lon="12.220615097862925"><ele>0.75</ele><time>2026-03-22T15:09:03.985Z</time></trkpt><trkpt lat="44.39149985625164" lon="12.220502412369077"><ele>0.5</ele><time>2026-03-22T15:09:04.985Z</time></trkpt><trkpt lat="44.39160552466774" lon="12.220387567397998"><ele>0.25</ele><time>2026-03-22T15:09:05.985Z</time></trkpt><trkpt lat="44.39170820492371" lon="12.220275862868384"><ele>0.0</ele><time>2026-03-22T15:09:06.985Z</time></trkpt><trkpt lat="44.39181320256918" lon="12.220173046303547"><ele>0.0</ele><time>2026-03-22T15:09:07.985Z</time></trkpt><trkpt lat="44.39192393937597" lon="12.220061720031593"><ele>0.0</ele><time>2026-03-22T15:09:08.985Z</time></trkpt><trkpt lat="44.39203182037823" lon="12.219954192129682"><ele>0.0</ele><time>2026-03-22T15:09:09.985Z</time></trkpt><trkpt lat="44.39213216208817" lon="12.219852947708109"><ele>0.0</ele><time>2026-03-22T15:09:10.985Z</time></trkpt><trkpt lat="44.392220125031216" lon="12.219758061299732"><ele>0.0</ele><time>2026-03-22T15:09:11.985Z</time></trkpt><trkpt lat="44.39230529877008" lon="12.219666892866487"><ele>0.0</ele><time>2026-03-22T15:09:12.985Z</time></trkpt><trkpt lat="44.392388689930115" lon="12.219578209057987"><ele>0.0</ele><time>2026-03-22T15:09:13.985Z</time></trkpt><trkpt lat="44.392478897385736" lon="12.2194822781235"><ele>0.0</ele><time>2026-03-22T15:09:14.985Z</time></trkpt><trkpt lat="44.392571416719065" lon="12.219380362146829"><ele>0.0</ele><time>2026-03-22T15:09:15.984Z</time></trkpt><trkpt lat="44.392670652116074" lon="12.219287460762999"><ele>0.0</ele><time>2026-03-22T15:09:16.984Z</time></trkpt><trkpt lat="44.39276430583208" lon="12.219198294687633"><ele>0.0</ele><time>2026-03-22T15:09:17.985Z</time></trkpt><trkpt lat="44.392860904432894" lon="12.219105344949966"><ele>0.0</ele><time>2026-03-22T15:09:18.984Z</time></trkpt><trkpt lat="44.392951701752224" lon="12.21900393441671"><ele>0.0</ele><time>2026-03-22T15:09:19.984Z</time></trkpt><trkpt lat="44.39304771030866" lon="12.21889849091392"><ele>0.0</ele><time>2026-03-22T15:09:20.984Z</time></trkpt><trkpt lat="44.39315021484582" lon="12.21879325246096"><ele>0.0</ele><time>2026-03-22T15:09:21.985Z</time></trkpt><trkpt lat="44.39325291660488" lon="12.218689653887969"><ele>0.0</ele><time>2026-03-22T15:09:22.985Z</time></trkpt><trkpt lat="44.39335937845646" lon="12.218592612378668"><ele>0.0</ele><time>2026-03-22T15:09:23.985Z</time></trkpt><trkpt lat="44.39346535687362" lon="12.218488966365513"><ele>0.0</ele><time>2026-03-22T15:09:24.985Z</time></trkpt><trkpt lat="44.39356671645173" lon="12.218380158286363"><ele>0.0</ele><time>2026-03-22T15:09:25.985Z</time></trkpt><trkpt lat="44.39367178438988" lon="12.218276911969484"><ele>0.0</ele><time>2026-03-22T15:09:26.985Z</time></trkpt><trkpt lat="44.39377242464704" lon="12.218176489020042"><ele>0.0</ele><time>2026-03-22T15:09:27.984Z</time></trkpt><trkpt lat="44.3938707007102" lon="12.218071104664237"><ele>0.0</ele><time>2026-03-22T15:09:28.984Z</time></trkpt><trkpt lat="44.39397267992743" lon="12.217966193130774"><ele>0.0</ele><time>2026-03-22T15:09:29.984Z</time></trkpt><trkpt lat="44.39407450303604" lon="12.217860970842938"><ele>0.0</ele><time>2026-03-22T15:09:30.984Z</time></trkpt><trkpt lat="44.39417424701998" lon="12.217757386080994"><ele>0.0</ele><time>2026-03-22T15:09:31.984Z</time></trkpt><trkpt lat="44.39427732472786" lon="12.217654133920476"><ele>0.0</ele><time>2026-03-22T15:09:32.984Z</time></trkpt><trkpt lat="44.394384101147075" lon="12.217544310340879"><ele>0.0</ele><time>2026-03-22T15:09:33.984Z</time></trkpt><trkpt lat="44.394483033626955" lon="12.217435828661333"><ele>0.0</ele><time>2026-03-22T15:09:34.984Z</time></trkpt><trkpt lat="44.39458371291397" lon="12.21732273093046"><ele>0.0</ele><time>2026-03-22T15:09:35.984Z</time></trkpt><trkpt lat="44.39468875468477" lon="12.21721342301558"><ele>-0.25</ele><time>2026-03-22T15:09:36.984Z</time></trkpt><trkpt lat="44.39478630181948" lon="12.217109971078445"><ele>-0.5</ele><time>2026-03-22T15:09:37.984Z</time></trkpt><trkpt lat="44.39488171666767" lon="12.217015660062987"><ele>-0.75</ele><time>2026-03-22T15:09:38.984Z</time></trkpt><trkpt lat="44.3949693686575" lon="12.216915708637844"><ele>-1.0</ele><time>2026-03-22T15:09:39.984Z</time></trkpt><trkpt lat="44.39505709364443" lon="12.216824199425105"><ele>-1.0</ele><time>2026-03-22T15:09:40.984Z</time></trkpt><trkpt lat="44.39514256549629" lon="12.216739056827043"><ele>-1.0</ele><time>2026-03-22T15:09:41.984Z</time></trkpt><trkpt lat="44.39523506007071" lon="12.21664780923254"><ele>-1.0</ele><time>2026-03-22T15:09:42.984Z</time></trkpt><trkpt lat="44.3953323452569" lon="12.216549693686124"><ele>-1.0</ele><time>2026-03-22T15:09:43.984Z</time></trkpt><trkpt lat="44.395427359842884" lon="12.216443114155936"><ele>-0.8</ele><time>2026-03-22T15:09:44.984Z</time></trkpt><trkpt lat="44.395524337657314" lon="12.21634462063557"><ele>-0.6000000000000001</ele><time>2026-03-22T15:09:45.984Z</time></trkpt><trkpt lat="44.39561530161385" lon="12.21624790104817"><ele>-0.4</ele><time>2026-03-22T15:09:46.984Z</time></trkpt><trkpt lat="44.39569549234599" lon="12.216157474663392"><ele>-0.2</ele><time>2026-03-22T15:09:47.984Z</time></trkpt><trkpt lat="44.39577233544019" lon="12.216072383936933"><ele>0.0</ele><time>2026-03-22T15:09:48.984Z</time></trkpt><trkpt lat="44.39583963588049" lon="12.216006030291163"><ele>0.0</ele><time>2026-03-22T15:09:49.984Z</time></trkpt><trkpt lat="44.39592440164231" lon="12.215927515154863"><ele>0.0</ele><time>2026-03-22T15:09:51.984Z</time></trkpt><trkpt lat="44.39600731375243" lon="12.215874478983677"><ele>0.0</ele><time>2026-03-22T15:09:55.984Z</time></trkpt><trkpt lat="44.3960891562849" lon="12.215813480532898"><ele>0.0</ele><time>2026-03-22T15:09:57.984Z</time></trkpt><trkpt lat="44.39616326613453" lon="12.215748616664355"><ele>0.0</ele><time>2026-03-22T15:09:59.984Z</time></trkpt><trkpt lat="44.39625619463081" lon="12.215692623958153"><ele>0.0</ele><time>2026-03-22T15:10:01.984Z</time></trkpt><trkpt lat="44.39637606011525" lon="12.215627504836412"><ele>0.0</ele><time>2026-03-22T15:10:03.984Z</time></trkpt><trkpt lat="44.39644222663392" lon="12.215594338264658"><ele>0.0</ele><time>2026-03-22T15:10:04.984Z</time></trkpt><trkpt lat="44.396508457161524" lon="12.215568075415387"><ele>0.0</ele><time>2026-03-22T15:10:05.984Z</time></trkpt><trkpt lat="44.39659096526765" lon="12.215548639347254"><ele>0.0</ele><time>2026-03-22T15:10:06.984Z</time></trkpt><trkpt lat="44.396679207584235" lon="12.215522176842"><ele>0.0</ele><time>2026-03-22T15:10:07.984Z</time></trkpt><trkpt lat="44.39676018370992" lon="12.215502160523952"><ele>0.0</ele><time>2026-03-22T15:10:08.984Z</time></trkpt><trkpt lat="44.39684773415336" lon="12.21548211607239"><ele>0.0</ele><time>2026-03-22T15:10:09.984Z</time></trkpt><trkpt lat="44.39694358214136" lon="12.215467305178072"><ele>0.0</ele><time>2026-03-22T15:10:10.984Z</time></trkpt><trkpt lat="44.397038805336635" lon="12.215444093284791"><ele>0.0</ele><time>2026-03-22T15:10:11.984Z</time></trkpt><trkpt lat="44.39713841699306" lon="12.21542788053231"><ele>0.0</ele><time>2026-03-22T15:10:12.984Z</time></trkpt><trkpt lat="44.3972385680444" lon="12.215410291194782"><ele>-0.4</ele><time>2026-03-22T15:10:13.984Z</time></trkpt><trkpt lat="44.397330458031206" lon="12.215389669399535"><ele>-0.8</ele><time>2026-03-22T15:10:14.984Z</time></trkpt><trkpt lat="44.3974173265835" lon="12.21537204926823"><ele>-1.2000000000000002</ele><time>2026-03-22T15:10:15.984Z</time></trkpt><trkpt lat="44.397505399560785" lon="12.21536107121001"><ele>-1.6</ele><time>2026-03-22T15:10:16.984Z</time></trkpt><trkpt lat="44.39759941040117" lon="12.215345243670551"><ele>-2.0</ele><time>2026-03-22T15:10:17.984Z</time></trkpt><trkpt lat="44.39769254802482" lon="12.215328961881148"><ele>-1.9999999999999998</ele><time>2026-03-22T15:10:18.984Z</time></trkpt><trkpt lat="44.39778177526947" lon="12.215314204290877"><ele>-2.0</ele><time>2026-03-22T15:10:19.984Z</time></trkpt><trkpt lat="44.397865556727325" lon="12.215299907244052"><ele>-2.0</ele><time>2026-03-22T15:10:20.984Z</time></trkpt><trkpt lat="44.39794247839465" lon="12.215284431942562"><ele>-2.0</ele><time>2026-03-22T15:10:21.984Z</time></trkpt><trkpt lat="44.39802545655202" lon="12.215270187960401"><ele>-1.9999999999999998</ele><time>2026-03-22T15:10:22.984Z</time></trkpt><trkpt lat="44.39811055379989" lon="12.215256256118835"><ele>-2.0</ele><time>2026-03-22T15:10:23.984Z</time></trkpt><trkpt lat="44.39820280767888" lon="12.215241570067525"><ele>-1.8</ele><time>2026-03-22T15:10:24.984Z</time></trkpt><trkpt lat="44.398301772393374" lon="12.215224468828023"><ele>-1.6</ele><time>2026-03-22T15:10:25.984Z</time></trkpt><trkpt lat="44.39840883973606" lon="12.215201143903403"><ele>-1.4000000000000001</ele><time>2026-03-22T15:10:26.984Z</time></trkpt><trkpt lat="44.39851940629033" lon="12.215179032156813"><ele>-1.2000000000000002</ele><time>2026-03-22T15:10:27.984Z</time></trkpt><trkpt lat="44.39863383149737" lon="12.215149992492787"><ele>-1.0</ele><time>2026-03-22T15:10:28.984Z</time></trkpt><trkpt lat="44.39875994086237" lon="12.215111791124835"><ele>-0.5</ele><time>2026-03-22T15:10:29.984Z</time></trkpt><trkpt lat="44.39888828667772" lon="12.215076923842783"><ele>0.0</ele><time>2026-03-22T15:10:30.984Z</time></trkpt><trkpt lat="44.39901944475202" lon="12.215040219368335"><ele>0.5</ele><time>2026-03-22T15:10:31.984Z</time></trkpt><trkpt lat="44.39914935659885" lon="12.215001334196408"><ele>1.0</ele><time>2026-03-22T15:10:32.984Z</time></trkpt><trkpt lat="44.39927717372631" lon="12.21496288363422"><ele>1.0</ele><time>2026-03-22T15:10:33.984Z</time></trkpt><trkpt lat="44.39939848345657" lon="12.21492666469108"><ele>1.0</ele><time>2026-03-22T15:10:34.984Z</time></trkpt><trkpt lat="44.399517324107244" lon="12.21488741162046"><ele>1.0</ele><time>2026-03-22T15:10:35.984Z</time></trkpt><trkpt lat="44.399633660310336" lon="12.214839696667891"><ele>1.0</ele><time>2026-03-22T15:10:36.984Z</time></trkpt><trkpt lat="44.39973924319382" lon="12.21479356818391"><ele>0.9999999999999999</ele><time>2026-03-22T15:10:37.984Z</time></trkpt><trkpt lat="44.39982870244164" lon="12.214750278958483"><ele>1.0</ele><time>2026-03-22T15:10:38.984Z</time></trkpt><trkpt lat="44.39989409884382" lon="12.214719641702247"><ele>1.0</ele><time>2026-03-22T15:10:39.984Z</time></trkpt><trkpt lat="44.39997595113114" lon="12.214671158709715"><ele>1.0</ele><time>2026-03-22T15:10:41.984Z</time></trkpt><trkpt lat="44.40004047111152" lon="12.214650026999264"><ele>0.9999999999999999</ele><time>2026-03-22T15:10:44.984Z</time></trkpt><trkpt lat="44.4001415384496" lon="12.214619765247832"><ele>1.0</ele><time>2026-03-22T15:10:46.984Z</time></trkpt><trkpt lat="44.400204049317864" lon="12.214581666365435"><ele>0.9999999999999999</ele><time>2026-03-22T15:10:47.984Z</time></trkpt><trkpt lat="44.40028943329259" lon="12.214541244423781"><ele>1.0</ele><time>2026-03-22T15:10:48.984Z</time></trkpt><trkpt lat="44.40039023446411" lon="12.214503961682414"><ele>1.0</ele><time>2026-03-22T15:10:49.984Z</time></trkpt><trkpt lat="44.40047541076102" lon="12.214483370396106"><ele>1.0</ele><time>2026-03-22T15:10:50.984Z</time></trkpt><trkpt lat="44.40055043125983" lon="12.214470943602727"><ele>0.9999999999999999</ele><time>2026-03-22T15:10:51.984Z</time></trkpt><trkpt lat="44.400635402949185" lon="12.214471006004315"><ele>1.0</ele><time>2026-03-22T15:10:52.984Z</time></trkpt><trkpt lat="44.40073374482304" lon="12.21448123216815"><ele>1.3333333333333333</ele><time>2026-03-22T15:10:53.984Z</time></trkpt><trkpt lat="44.40082733283389" lon="12.214468871023762"><ele>1.6666666666666665</ele><time>2026-03-22T15:10:54.984Z</time></trkpt><trkpt lat="44.400909772842724" lon="12.214430889658715"><ele>2.0</ele><time>2026-03-22T15:10:55.984Z</time></trkpt><trkpt lat="44.40097895309962" lon="12.214369391242634"><ele>2.3333333333333335</ele><time>2026-03-22T15:10:56.984Z</time></trkpt><trkpt lat="44.40102263625118" lon="12.214286709024291"><ele>2.6666666666666665</ele><time>2026-03-22T15:10:57.984Z</time></trkpt><trkpt lat="44.40105425502157" lon="12.214186010939"><ele>3.0</ele><time>2026-03-22T15:10:58.984Z</time></trkpt><trkpt lat="44.401065100801226" lon="12.214089021200603"><ele>2.6</ele><time>2026-03-22T15:10:59.984Z</time></trkpt><trkpt lat="44.40102167481754" lon="12.213934046881196"><ele>2.1999999999999997</ele><time>2026-03-22T15:11:01.984Z</time></trkpt><trkpt lat="44.4009759913963" lon="12.213862312126828"><ele>1.8</ele><time>2026-03-22T15:11:02.984Z</time></trkpt><trkpt lat="44.40091412544444" lon="12.213790138499455"><ele>1.4</ele><time>2026-03-22T15:11:03.984Z</time></trkpt><trkpt lat="44.40084316506981" lon="12.213723213934434"><ele>1.0</ele><time>2026-03-22T15:11:04.984Z</time></trkpt><trkpt lat="44.40076202294855" lon="12.213648454096488"><ele>1.0</ele><time>2026-03-22T15:11:05.984Z</time></trkpt><trkpt lat="44.40069165574586" lon="12.213562812029553"><ele>1.0</ele><time>2026-03-22T15:11:06.984Z</time></trkpt><trkpt lat="44.40062999618707" lon="12.213459834529456"><ele>1.0</ele><time>2026-03-22T15:11:07.984Z</time></trkpt><trkpt lat="44.40057966427009" lon="12.213342946777935"><ele>1.0</ele><time>2026-03-22T15:11:08.984Z</time></trkpt><trkpt lat="44.40052861991358" lon="12.213207439566055"><ele>1.0</ele><time>2026-03-22T15:11:09.984Z</time></trkpt><trkpt lat="44.40048645024697" lon="12.213053255029688"><ele>1.0</ele><time>2026-03-22T15:11:10.984Z</time></trkpt><trkpt lat="44.40044808087009" lon="12.21288734028913"><ele>1.0</ele><time>2026-03-22T15:11:11.984Z</time></trkpt><trkpt lat="44.40041155198416" lon="12.21272715607631"><ele>1.0</ele><time>2026-03-22T15:11:12.984Z</time></trkpt><trkpt lat="44.400372203741405" lon="12.212568486349953"><ele>1.0</ele><time>2026-03-22T15:11:13.984Z</time></trkpt><trkpt lat="44.40034598676705" lon="12.21240968597425"><ele>0.75</ele><time>2026-03-22T15:11:14.984Z</time></trkpt><trkpt lat="44.40031836567127" lon="12.21224859328518"><ele>0.5</ele><time>2026-03-22T15:11:15.984Z</time></trkpt><trkpt lat="44.400305604475186" lon="12.21208096879246"><ele>0.25</ele><time>2026-03-22T15:11:16.984Z</time></trkpt><trkpt lat="44.40028736835759" lon="12.211911660749045"><ele>0.0</ele><time>2026-03-22T15:11:17.984Z</time></trkpt><trkpt lat="44.400279272271185" lon="12.211755390899935"><ele>0.0</ele><time>2026-03-22T15:11:18.984Z</time></trkpt><trkpt lat="44.40027630153508" lon="12.211602115470189"><ele>0.0</ele><time>2026-03-22T15:11:19.984Z</time></trkpt><trkpt lat="44.40026844047218" lon="12.21145249331711"><ele>0.0</ele><time>2026-03-22T15:11:20.984Z</time></trkpt><trkpt lat="44.400268773396554" lon="12.211239241202291"><ele>0.0</ele><time>2026-03-22T15:11:21.984Z</time></trkpt><trkpt lat="44.40027957041035" lon="12.211023659809596"><ele>-0.6666666666666666</ele><time>2026-03-22T15:11:22.984Z</time></trkpt><trkpt lat="44.400312332581855" lon="12.21080261101889"><ele>-1.3333333333333333</ele><time>2026-03-22T15:11:23.984Z</time></trkpt><trkpt lat="44.40035493123434" lon="12.210584862487638"><ele>-2.0</ele><time>2026-03-22T15:11:24.984Z</time></trkpt><trkpt lat="44.40040468515264" lon="12.210385767366057"><ele>-2.25</ele><time>2026-03-22T15:11:25.984Z</time></trkpt><trkpt lat="44.40044144158732" lon="12.210182397778123"><ele>-2.5</ele><time>2026-03-22T15:11:26.984Z</time></trkpt><trkpt lat="44.400469749984694" lon="12.209996870252718"><ele>-2.75</ele><time>2026-03-22T15:11:27.983Z</time></trkpt><trkpt lat="44.40049213756249" lon="12.20982047036138"><ele>-3.0</ele><time>2026-03-22T15:11:28.983Z</time></trkpt><trkpt lat="44.40051178175736" lon="12.209630836020517"><ele>-3.333333333333333</ele><time>2026-03-22T15:11:29.984Z</time></trkpt><trkpt lat="44.40053168032018" lon="12.209397182202023"><ele>-3.6666666666666665</ele><time>2026-03-22T15:11:30.984Z</time></trkpt><trkpt lat="44.400562734925686" lon="12.20914612980747"><ele>-4.0</ele><time>2026-03-22T15:11:31.984Z</time></trkpt><trkpt lat="44.40059127149845" lon="12.208887912689386"><ele>-4.333333333333333</ele><time>2026-03-22T15:11:32.984Z</time></trkpt><trkpt lat="44.40061746173309" lon="12.208639166184971"><ele>-4.666666666666667</ele><time>2026-03-22T15:11:33.984Z</time></trkpt><trkpt lat="44.400636661533866" lon="12.208418735687406"><ele>-5.0</ele><time>2026-03-22T15:11:34.984Z</time></trkpt><trkpt lat="44.400653735024235" lon="12.20822764915812"><ele>-4.25</ele><time>2026-03-22T15:11:35.984Z</time></trkpt><trkpt lat="44.400658839834556" lon="12.20805375188703"><ele>-3.5</ele><time>2026-03-22T15:11:36.984Z</time></trkpt><trkpt lat="44.40066917127673" lon="12.207889775460522"><ele>-2.75</ele><time>2026-03-22T15:11:37.984Z</time></trkpt><trkpt lat="44.40067553589032" lon="12.207733197408015"><ele>-2.0</ele><time>2026-03-22T15:11:38.984Z</time></trkpt><trkpt lat="44.4006808909002" lon="12.207593506043304"><ele>-2.0</ele><time>2026-03-22T15:11:39.984Z</time></trkpt><trkpt lat="44.40068117136054" lon="12.207479016095567"><ele>-2.0</ele><time>2026-03-22T15:11:40.984Z</time></trkpt><trkpt lat="44.400677228480326" lon="12.207382462750783"><ele>-2.0</ele><time>2026-03-22T15:11:41.984Z</time></trkpt><trkpt lat="44.400677932720214" lon="12.20719526083124"><ele>-2.0</ele><time>2026-03-22T15:11:43.984Z</time></trkpt><trkpt lat="44.400686534702736" lon="12.207075223502553"><ele>-2.0</ele><time>2026-03-22T15:11:44.984Z</time></trkpt><trkpt lat="44.400693215611405" lon="12.206947585198304"><ele>-1.6666666666666665</ele><time>2026-03-22T15:11:45.984Z</time></trkpt><trkpt lat="44.400701605765164" lon="12.206811699546407"><ele>-1.3333333333333333</ele><time>2026-03-22T15:11:46.984Z</time></trkpt><trkpt lat="44.40070068105471" lon="12.206682387162012"><ele>-1.0</ele><time>2026-03-22T15:11:47.984Z</time></trkpt><trkpt lat="44.40067713920826" lon="12.20658195955644"><ele>-0.6666666666666666</ele><time>2026-03-22T15:11:48.984Z</time></trkpt><trkpt lat="44.40062742460005" lon="12.206502789918451"><ele>-0.3333333333333333</ele><time>2026-03-22T15:11:49.984Z</time></trkpt><trkpt lat="44.40055874430788" lon="12.20644880051504"><ele>0.0</ele><time>2026-03-22T15:11:50.984Z</time></trkpt><trkpt lat="44.40048036249844" lon="12.206414628291057"><ele>0.2</ele><time>2026-03-22T15:11:51.984Z</time></trkpt><trkpt lat="44.40038374759725" lon="12.20642750672256"><ele>0.4</ele><time>2026-03-22T15:11:52.984Z</time></trkpt><trkpt lat="44.40029156431316" lon="12.206463672246954"><ele>0.6000000000000001</ele><time>2026-03-22T15:11:53.984Z</time></trkpt><trkpt lat="44.40019471558642" lon="12.20655059650016"><ele>0.8</ele><time>2026-03-22T15:11:54.984Z</time></trkpt><trkpt lat="44.40009729706772" lon="12.206642547927983"><ele>1.0</ele><time>2026-03-22T15:11:55.984Z</time></trkpt><trkpt lat="44.39999889117796" lon="12.206693904693228"><ele>1.0</ele><time>2026-03-22T15:11:56.984Z</time></trkpt><trkpt lat="44.39989615132854" lon="12.206715530507894"><ele>1.0</ele><time>2026-03-22T15:11:57.984Z</time></trkpt><trkpt lat="44.399780712451076" lon="12.206710702109257"><ele>1.0</ele><time>2026-03-22T15:11:58.984Z</time></trkpt><trkpt lat="44.39967385838127" lon="12.206686508291886"><ele>1.0</ele><time>2026-03-22T15:11:59.984Z</time></trkpt><trkpt lat="44.399567406854416" lon="12.206661542516688"><ele>1.0</ele><time>2026-03-22T15:12:00.984Z</time></trkpt><trkpt lat="44.39946822424073" lon="12.206644648532329"><ele>0.6000000000000001</ele><time>2026-03-22T15:12:01.984Z</time></trkpt><trkpt lat="44.39938095287103" lon="12.20663452169633"><ele>0.20000000000000007</ele><time>2026-03-22T15:12:02.984Z</time></trkpt><trkpt lat="44.3992860168994" lon="12.206621089490605"><ele>-0.20000000000000007</ele><time>2026-03-22T15:12:03.984Z</time></trkpt><trkpt lat="44.399187073415646" lon="12.206586630945498"><ele>-0.6000000000000001</ele><time>2026-03-22T15:12:04.984Z</time></trkpt><trkpt lat="44.39910124979061" lon="12.20651856418596"><ele>-1.0</ele><time>2026-03-22T15:12:05.984Z</time></trkpt><trkpt lat="44.399018928892595" lon="12.206422614712002"><ele>-1.4</ele><time>2026-03-22T15:12:06.984Z</time></trkpt><trkpt lat="44.398946427944516" lon="12.206307793216745"><ele>-1.8</ele><time>2026-03-22T15:12:07.984Z</time></trkpt><trkpt lat="44.39888267770081" lon="12.20618164557878"><ele>-2.1999999999999997</ele><time>2026-03-22T15:12:08.984Z</time></trkpt><trkpt lat="44.3988203490169" lon="12.206039689755656"><ele>-2.6</ele><time>2026-03-22T15:12:09.984Z</time></trkpt><trkpt lat="44.398773458349794" lon="12.20590819220831"><ele>-3.0</ele><time>2026-03-22T15:12:10.984Z</time></trkpt><trkpt lat="44.39875002317425" lon="12.20577610757585"><ele>-2.5</ele><time>2026-03-22T15:12:11.984Z</time></trkpt><trkpt lat="44.39871994432694" lon="12.20563951100456"><ele>-2.0</ele><time>2026-03-22T15:12:12.984Z</time></trkpt><trkpt lat="44.39872609185109" lon="12.20546576853014"><ele>-1.5</ele><time>2026-03-22T15:12:13.984Z</time></trkpt><trkpt lat="44.39869521966217" lon="12.205295441746733"><ele>-1.0</ele><time>2026-03-22T15:12:14.984Z</time></trkpt><trkpt lat="44.39863893219627" lon="12.205122071101787"><ele>-1.0</ele><time>2026-03-22T15:12:15.984Z</time></trkpt><trkpt lat="44.39856982090956" lon="12.204954589397934"><ele>-1.0</ele><time>2026-03-22T15:12:16.984Z</time></trkpt><trkpt lat="44.39849207328044" lon="12.204795070689284"><ele>-1.0</ele><time>2026-03-22T15:12:17.984Z</time></trkpt><trkpt lat="44.39841615550364" lon="12.204629518294606"><ele>-1.0</ele><time>2026-03-22T15:12:18.984Z</time></trkpt><trkpt lat="44.39834850447451" lon="12.20446410187596"><ele>-0.5</ele><time>2026-03-22T15:12:19.984Z</time></trkpt><trkpt lat="44.398293021529454" lon="12.204302391474993"><ele>0.0</ele><time>2026-03-22T15:12:20.984Z</time></trkpt><trkpt lat="44.3982502162563" lon="12.204134648399524"><ele>0.5</ele><time>2026-03-22T15:12:21.984Z</time></trkpt><trkpt lat="44.398207952316284" lon="12.203937252539706"><ele>1.0</ele><time>2026-03-22T15:12:22.984Z</time></trkpt><trkpt lat="44.39818136399798" lon="12.203722922255304"><ele>1.0</ele><time>2026-03-22T15:12:23.984Z</time></trkpt><trkpt lat="44.39815072826535" lon="12.203525316374481"><ele>1.0</ele><time>2026-03-22T15:12:24.984Z</time></trkpt><trkpt lat="44.39812170533072" lon="12.203331168044441"><ele>1.0</ele><time>2026-03-22T15:12:25.984Z</time></trkpt><trkpt lat="44.3980894997022" lon="12.203141080510456"><ele>1.0</ele><time>2026-03-22T15:12:26.984Z</time></trkpt><trkpt lat="44.3980592554272" lon="12.202950486556706"><ele>1.0</ele><time>2026-03-22T15:12:27.984Z</time></trkpt><trkpt lat="44.39803570207428" lon="12.202751483201231"><ele>1.0</ele><time>2026-03-22T15:12:28.984Z</time></trkpt><trkpt lat="44.39800676156415" lon="12.202557361663937"><ele>1.0</ele><time>2026-03-22T15:12:29.984Z</time></trkpt><trkpt lat="44.397982991855734" lon="12.202371775421684"><ele>1.0</ele><time>2026-03-22T15:12:30.984Z</time></trkpt><trkpt lat="44.3979611343562" lon="12.202188445969643"><ele>1.0</ele><time>2026-03-22T15:12:31.984Z</time></trkpt><trkpt lat="44.397939494117864" lon="12.201996700610819"><ele>1.0</ele><time>2026-03-22T15:12:32.984Z</time></trkpt><trkpt lat="44.39792779291091" lon="12.201811144751149"><ele>1.0</ele><time>2026-03-22T15:12:33.984Z</time></trkpt><trkpt lat="44.39791079678209" lon="12.20161419475097"><ele>1.0</ele><time>2026-03-22T15:12:34.984Z</time></trkpt><trkpt lat="44.39789607849293" lon="12.201433019462739"><ele>1.25</ele><time>2026-03-22T15:12:35.984Z</time></trkpt><trkpt lat="44.397890152163704" lon="12.201245861166955"><ele>1.5</ele><time>2026-03-22T15:12:36.984Z</time></trkpt><trkpt lat="44.39788872368555" lon="12.201055393486163"><ele>1.75</ele><time>2026-03-22T15:12:37.984Z</time></trkpt><trkpt lat="44.397884595413764" lon="12.200845257816658"><ele>2.0</ele><time>2026-03-22T15:12:38.984Z</time></trkpt><trkpt lat="44.39788429899732" lon="12.20063975153222"><ele>2.0</ele><time>2026-03-22T15:12:39.984Z</time></trkpt><trkpt lat="44.39788244053023" lon="12.200441100388549"><ele>2.0</ele><time>2026-03-22T15:12:40.984Z</time></trkpt><trkpt lat="44.39787764081732" lon="12.200246335392427"><ele>2.0</ele><time>2026-03-22T15:12:41.984Z</time></trkpt><trkpt lat="44.39787555588566" lon="12.20005057470014"><ele>2.0</ele><time>2026-03-22T15:12:42.984Z</time></trkpt><trkpt lat="44.3978592263975" lon="12.199850362139841"><ele>2.25</ele><time>2026-03-22T15:12:43.984Z</time></trkpt><trkpt lat="44.39783601216614" lon="12.199658776231937"><ele>2.5</ele><time>2026-03-22T15:12:44.984Z</time></trkpt><trkpt lat="44.39781277623076" lon="12.19948407568076"><ele>2.75</ele><time>2026-03-22T15:12:45.984Z</time></trkpt><trkpt lat="44.39778059476614" lon="12.199314182420151"><ele>3.0</ele><time>2026-03-22T15:12:46.984Z</time></trkpt><trkpt lat="44.39775102069211" lon="12.199145193167622"><ele>3.0</ele><time>2026-03-22T15:12:47.984Z</time></trkpt><trkpt lat="44.397717426637485" lon="12.198986667642853"><ele>3.0</ele><time>2026-03-22T15:12:48.984Z</time></trkpt><trkpt lat="44.397678463425265" lon="12.198824550879838"><ele>3.0</ele><time>2026-03-22T15:12:49.984Z</time></trkpt><trkpt lat="44.39764016473083" lon="12.198660670337453"><ele>3.0</ele><time>2026-03-22T15:12:50.984Z</time></trkpt><trkpt lat="44.39759430849577" lon="12.198494338529924"><ele>3.0</ele><time>2026-03-22T15:12:51.984Z</time></trkpt><trkpt lat="44.39755413076593" lon="12.198327845753814"><ele>3.0</ele><time>2026-03-22T15:12:52.984Z</time></trkpt><trkpt lat="44.39751726725295" lon="12.198164811924203"><ele>3.0</ele><time>2026-03-22T15:12:53.984Z</time></trkpt><trkpt lat="44.39747211593197" lon="12.197993303653544"><ele>3.0</ele><time>2026-03-22T15:12:54.984Z</time></trkpt><trkpt lat="44.39742476724787" lon="12.197818433898618"><ele>2.75</ele><time>2026-03-22T15:12:55.984Z</time></trkpt><trkpt lat="44.397376265702604" lon="12.197637252942137"><ele>2.5</ele><time>2026-03-22T15:12:56.984Z</time></trkpt><trkpt lat="44.39732817313131" lon="12.197445782231314"><ele>2.25</ele><time>2026-03-22T15:12:57.984Z</time></trkpt><trkpt lat="44.39727662647568" lon="12.197252638342901"><ele>2.0</ele><time>2026-03-22T15:12:58.984Z</time></trkpt><trkpt lat="44.397228783300584" lon="12.197055030477582"><ele>1.6666666666666665</ele><time>2026-03-22T15:12:59.984Z</time></trkpt><trkpt lat="44.39717435681125" lon="12.196858679896334"><ele>1.3333333333333333</ele><time>2026-03-22T15:13:00.984Z</time></trkpt><trkpt lat="44.39711809076425" lon="12.196654519767488"><ele>1.0</ele><time>2026-03-22T15:13:01.984Z</time></trkpt><trkpt lat="44.397061759877595" lon="12.19645268597973"><ele>1.6666666666666665</ele><time>2026-03-22T15:13:02.984Z</time></trkpt><trkpt lat="44.397013504839485" lon="12.196238551215002"><ele>2.3333333333333335</ele><time>2026-03-22T15:13:03.984Z</time></trkpt><trkpt lat="44.39696795279936" lon="12.196021934745755"><ele>3.0</ele><time>2026-03-22T15:13:04.984Z</time></trkpt><trkpt lat="44.396913608367505" lon="12.195829104859808"><ele>2.5</ele><time>2026-03-22T15:13:05.984Z</time></trkpt><trkpt lat="44.39686577107407" lon="12.195640033308786"><ele>2.0</ele><time>2026-03-22T15:13:06.984Z</time></trkpt><trkpt lat="44.39681437334124" lon="12.195449606529793"><ele>1.5</ele><time>2026-03-22T15:13:07.984Z</time></trkpt><trkpt lat="44.39676460808815" lon="12.195251127248957"><ele>1.0</ele><time>2026-03-22T15:13:08.984Z</time></trkpt><trkpt lat="44.39671830294531" lon="12.195047035799906"><ele>1.0</ele><time>2026-03-22T15:13:09.984Z</time></trkpt><trkpt lat="44.39666553023238" lon="12.194840974902649"><ele>1.0</ele><time>2026-03-22T15:13:10.984Z</time></trkpt><trkpt lat="44.39661179472143" lon="12.194637439983433"><ele>1.0</ele><time>2026-03-22T15:13:11.984Z</time></trkpt><trkpt lat="44.39655998318806" lon="12.194429314603024"><ele>1.3333333333333333</ele><time>2026-03-22T15:13:12.984Z</time></trkpt><trkpt lat="44.39650659850033" lon="12.194238027262708"><ele>1.6666666666666665</ele><time>2026-03-22T15:13:13.984Z</time></trkpt><trkpt lat="44.39643913980596" lon="12.194048423571786"><ele>2.0</ele><time>2026-03-22T15:13:14.984Z</time></trkpt><trkpt lat="44.39638008985161" lon="12.193849376164911"><ele>2.0</ele><time>2026-03-22T15:13:15.984Z</time></trkpt><trkpt lat="44.39632299130751" lon="12.19363366275348"><ele>2.0</ele><time>2026-03-22T15:13:16.984Z</time></trkpt><trkpt lat="44.39626754209864" lon="12.193413173863409"><ele>2.0</ele><time>2026-03-22T15:13:17.984Z</time></trkpt><trkpt lat="44.396212985905656" lon="12.193195602979856"><ele>1.0</ele><time>2026-03-22T15:13:18.984Z</time></trkpt><trkpt lat="44.396153682944515" lon="12.19297290242419"><ele>0.0</ele><time>2026-03-22T15:13:19.984Z</time></trkpt><trkpt lat="44.396099788294926" lon="12.192757827240186"><ele>-1.0</ele><time>2026-03-22T15:13:20.984Z</time></trkpt><trkpt lat="44.39604641998653" lon="12.192548578769786"><ele>-1.0</ele><time>2026-03-22T15:13:21.984Z</time></trkpt><trkpt lat="44.39599898952895" lon="12.192340813574424"><ele>-1.0</ele><time>2026-03-22T15:13:22.984Z</time></trkpt><trkpt lat="44.395944710058934" lon="12.192134906627134"><ele>-1.0</ele><time>2026-03-22T15:13:23.984Z</time></trkpt><trkpt lat="44.39589212336772" lon="12.191932170128313"><ele>-0.75</ele><time>2026-03-22T15:13:24.984Z</time></trkpt><trkpt lat="44.39583401134871" lon="12.191730535923998"><ele>-0.5</ele><time>2026-03-22T15:13:25.984Z</time></trkpt><trkpt lat="44.39578348630439" lon="12.191535601057476"><ele>-0.25</ele><time>2026-03-22T15:13:26.984Z</time></trkpt><trkpt lat="44.395740653931426" lon="12.191346285186622"><ele>0.0</ele><time>2026-03-22T15:13:27.984Z</time></trkpt><trkpt lat="44.395700624579305" lon="12.191149289573092"><ele>0.25</ele><time>2026-03-22T15:13:28.984Z</time></trkpt><trkpt lat="44.39568034580833" lon="12.190940195167318"><ele>0.5</ele><time>2026-03-22T15:13:29.983Z</time></trkpt><trkpt lat="44.39567931093216" lon="12.190736027564702"><ele>0.75</ele><time>2026-03-22T15:13:30.983Z</time></trkpt><trkpt lat="44.395701551098284" lon="12.190540975653926"><ele>1.0</ele><time>2026-03-22T15:13:31.983Z</time></trkpt><trkpt lat="44.39574080069131" lon="12.190355407464263"><ele>1.0</ele><time>2026-03-22T15:13:32.984Z</time></trkpt><trkpt lat="44.395792612543566" lon="12.190174059706953"><ele>1.0</ele><time>2026-03-22T15:13:33.984Z</time></trkpt><trkpt lat="44.39586049213212" lon="12.189999279978545"><ele>1.0</ele><time>2026-03-22T15:13:34.984Z</time></trkpt><trkpt lat="44.3959429225498" lon="12.189843543528289"><ele>1.0</ele><time>2026-03-22T15:13:35.983Z</time></trkpt><trkpt lat="44.39604128339987" lon="12.18969166297857"><ele>1.0</ele><time>2026-03-22T15:13:36.984Z</time></trkpt><trkpt lat="44.39615252147194" lon="12.18955695012778"><ele>1.0</ele><time>2026-03-22T15:13:37.984Z</time></trkpt><trkpt lat="44.39628005081784" lon="12.189440908946711"><ele>1.0</ele><time>2026-03-22T15:13:38.984Z</time></trkpt><trkpt lat="44.396424032587106" lon="12.18933637368369"><ele>1.0</ele><time>2026-03-22T15:13:39.984Z</time></trkpt><trkpt lat="44.39658381610019" lon="12.189226860502107"><ele>1.0</ele><time>2026-03-22T15:13:40.984Z</time></trkpt><trkpt lat="44.39675424713578" lon="12.1891152184389"><ele>1.0</ele><time>2026-03-22T15:13:41.984Z</time></trkpt><trkpt lat="44.39692567531351" lon="12.189004452044921"><ele>1.3333333333333333</ele><time>2026-03-22T15:13:42.984Z</time></trkpt><trkpt lat="44.39707845299272" lon="12.188902889502534"><ele>1.6666666666666665</ele><time>2026-03-22T15:13:43.984Z</time></trkpt><trkpt lat="44.39721931372397" lon="12.188801367820034"><ele>2.0</ele><time>2026-03-22T15:13:44.984Z</time></trkpt><trkpt lat="44.397346850491466" lon="12.18870922096708"><ele>2.0</ele><time>2026-03-22T15:13:45.984Z</time></trkpt><trkpt lat="44.397472300641866" lon="12.188621607496342"><ele>2.0</ele><time>2026-03-22T15:13:46.984Z</time></trkpt><trkpt lat="44.39758752891614" lon="12.188540499422714"><ele>2.0</ele><time>2026-03-22T15:13:47.984Z</time></trkpt><trkpt lat="44.39769789803103" lon="12.188457426149894"><ele>2.0</ele><time>2026-03-22T15:13:48.984Z</time></trkpt><trkpt lat="44.39780044196309" lon="12.188387339864267"><ele>2.0</ele><time>2026-03-22T15:13:49.983Z</time></trkpt><trkpt lat="44.39790445652294" lon="12.188316451744894"><ele>2.0</ele><time>2026-03-22T15:13:50.983Z</time></trkpt><trkpt lat="44.39800924181006" lon="12.188245713404731"><ele>2.0</ele><time>2026-03-22T15:13:51.983Z</time></trkpt><trkpt lat="44.39810236251318" lon="12.188166042107794"><ele>2.0</ele><time>2026-03-22T15:13:52.983Z</time></trkpt><trkpt lat="44.39818770034001" lon="12.188067725208175"><ele>2.0</ele><time>2026-03-22T15:13:53.983Z</time></trkpt><trkpt lat="44.39826126769119" lon="12.187959021031197"><ele>2.0</ele><time>2026-03-22T15:13:54.983Z</time></trkpt><trkpt lat="44.39832895625393" lon="12.18784032146727"><ele>2.0</ele><time>2026-03-22T15:13:55.983Z</time></trkpt><trkpt lat="44.39840406462498" lon="12.187724213084284"><ele>2.0</ele><time>2026-03-22T15:13:56.983Z</time></trkpt><trkpt lat="44.39846856698949" lon="12.187613709136805"><ele>2.0</ele><time>2026-03-22T15:13:57.983Z</time></trkpt><trkpt lat="44.39855099790829" lon="12.187513875806642"><ele>2.0</ele><time>2026-03-22T15:13:58.983Z</time></trkpt><trkpt lat="44.398642770473145" lon="12.187415302599897"><ele>2.0</ele><time>2026-03-22T15:13:59.983Z</time></trkpt><trkpt lat="44.39874527438143" lon="12.18732796672015"><ele>2.0</ele><time>2026-03-22T15:14:00.982Z</time></trkpt><trkpt lat="44.398841322217486" lon="12.187254944784213"><ele>2.0</ele><time>2026-03-22T15:14:01.982Z</time></trkpt><trkpt lat="44.39893114310147" lon="12.187198571991974"><ele>2.0</ele><time>2026-03-22T15:14:02.982Z</time></trkpt><trkpt lat="44.39901963853893" lon="12.187134850555815"><ele>2.5</ele><time>2026-03-22T15:14:03.982Z</time></trkpt><trkpt lat="44.39910949760027" lon="12.187066962133343"><ele>3.0</ele><time>2026-03-22T15:14:04.982Z</time></trkpt><trkpt lat="44.39920185329531" lon="12.186989546200989"><ele>3.5</ele><time>2026-03-22T15:14:05.982Z</time></trkpt><trkpt lat="44.39930741174234" lon="12.186911468545386"><ele>4.0</ele><time>2026-03-22T15:14:06.982Z</time></trkpt><trkpt lat="44.39941711576296" lon="12.186839849959746"><ele>4.0</ele><time>2026-03-22T15:14:07.982Z</time></trkpt><trkpt lat="44.39953961839027" lon="12.18673806640027"><ele>4.0</ele><time>2026-03-22T15:14:08.982Z</time></trkpt><trkpt lat="44.39968295855924" lon="12.186651267171294"><ele>4.0</ele><time>2026-03-22T15:14:09.982Z</time></trkpt><trkpt lat="44.39983595985817" lon="12.186538087682184"><ele>4.0</ele><time>2026-03-22T15:14:10.982Z</time></trkpt><trkpt lat="44.3999791829194" lon="12.186441035540684"><ele>4.0</ele><time>2026-03-22T15:14:11.982Z</time></trkpt><trkpt lat="44.40012286625602" lon="12.186351487411642"><ele>4.0</ele><time>2026-03-22T15:14:12.982Z</time></trkpt><trkpt lat="44.40026443913027" lon="12.186259011770888"><ele>4.0</ele><time>2026-03-22T15:14:13.982Z</time></trkpt><trkpt lat="44.400402363185876" lon="12.186168571931791"><ele>4.0</ele><time>2026-03-22T15:14:14.982Z</time></trkpt><trkpt lat="44.40054041558216" lon="12.186067751171985"><ele>4.0</ele><time>2026-03-22T15:14:15.982Z</time></trkpt><trkpt lat="44.400662672725254" lon="12.185969795675172"><ele>4.0</ele><time>2026-03-22T15:14:16.982Z</time></trkpt><trkpt lat="44.40078464809311" lon="12.18587949946598"><ele>4.0</ele><time>2026-03-22T15:14:17.982Z</time></trkpt><trkpt lat="44.40090456079388" lon="12.185795509917998"><ele>4.0</ele><time>2026-03-22T15:14:18.982Z</time></trkpt><trkpt lat="44.40101854941653" lon="12.185715001020249"><ele>4.0</ele><time>2026-03-22T15:14:19.982Z</time></trkpt><trkpt lat="44.40113332926001" lon="12.185641198290806"><ele>4.0</ele><time>2026-03-22T15:14:20.982Z</time></trkpt><trkpt lat="44.40124824325884" lon="12.185564830157057"><ele>3.5</ele><time>2026-03-22T15:14:21.982Z</time></trkpt><trkpt lat="44.401359708880705" lon="12.185474549818553"><ele>3.0</ele><time>2026-03-22T15:14:22.982Z</time></trkpt><trkpt lat="44.40146667515564" lon="12.185400453063167"><ele>2.5</ele><time>2026-03-22T15:14:23.982Z</time></trkpt><trkpt lat="44.40156190482736" lon="12.185333930957094"><ele>2.0</ele><time>2026-03-22T15:14:24.982Z</time></trkpt><trkpt lat="44.40165802072618" lon="12.185266287825545"><ele>2.0</ele><time>2026-03-22T15:14:25.982Z</time></trkpt><trkpt lat="44.40175965860918" lon="12.185194387599894"><ele>2.0</ele><time>2026-03-22T15:14:26.982Z</time></trkpt><trkpt lat="44.4018521332606" lon="12.185120332097062"><ele>2.0</ele><time>2026-03-22T15:14:27.982Z</time></trkpt><trkpt lat="44.40195054342565" lon="12.18506355963735"><ele>2.0</ele><time>2026-03-22T15:14:28.982Z</time></trkpt><trkpt lat="44.402047545577666" lon="12.185000947932906"><ele>2.0</ele><time>2026-03-22T15:14:29.982Z</time></trkpt><trkpt lat="44.402127821543836" lon="12.184937956328465"><ele>1.9999999999999998</ele><time>2026-03-22T15:14:30.982Z</time></trkpt><trkpt lat="44.40221179753622" lon="12.184892879200275"><ele>2.0</ele><time>2026-03-22T15:14:31.982Z</time></trkpt><trkpt lat="44.402293615086066" lon="12.184859348089907"><ele>2.0</ele><time>2026-03-22T15:14:32.982Z</time></trkpt><trkpt lat="44.402372515559584" lon="12.184856135124006"><ele>2.0</ele><time>2026-03-22T15:14:33.982Z</time></trkpt><trkpt lat="44.40244503989216" lon="12.18485737515581"><ele>1.9999999999999998</ele><time>2026-03-22T15:14:34.982Z</time></trkpt><trkpt lat="44.40252162547061" lon="12.184885851977603"><ele>2.0</ele><time>2026-03-22T15:14:35.982Z</time></trkpt><trkpt lat="44.40261057849586" lon="12.184899483253778"><ele>2.0</ele><time>2026-03-22T15:14:36.981Z</time></trkpt><trkpt lat="44.40270848039001" lon="12.1848805751072"><ele>2.0</ele><time>2026-03-22T15:14:37.981Z</time></trkpt><trkpt lat="44.40279420774282" lon="12.184819302304719"><ele>2.0</ele><time>2026-03-22T15:14:38.981Z</time></trkpt><trkpt lat="44.40285689433223" lon="12.184713449667356"><ele>2.0</ele><time>2026-03-22T15:14:39.981Z</time></trkpt><trkpt lat="44.40289579665631" lon="12.184586935545893"><ele>2.0</ele><time>2026-03-22T15:14:40.981Z</time></trkpt><trkpt lat="44.402891676556315" lon="12.184430978971223"><ele>2.2</ele><time>2026-03-22T15:14:41.981Z</time></trkpt><trkpt lat="44.40293205873153" lon="12.1843032169809"><ele>2.4000000000000004</ele><time>2026-03-22T15:14:42.981Z</time></trkpt><trkpt lat="44.4029756946917" lon="12.184184465806602"><ele>2.5999999999999996</ele><time>2026-03-22T15:14:43.981Z</time></trkpt><trkpt lat="44.40306570102029" lon="12.18408891948846"><ele>2.8</ele><time>2026-03-22T15:14:44.981Z</time></trkpt><trkpt lat="44.40318103555" lon="12.18399944748672"><ele>3.0</ele><time>2026-03-22T15:14:45.981Z</time></trkpt><trkpt lat="44.40329767675827" lon="12.183892867619631"><ele>3.666666666666667</ele><time>2026-03-22T15:14:46.981Z</time></trkpt><trkpt lat="44.40342043746419" lon="12.183764770163306"><ele>4.333333333333334</ele><time>2026-03-22T15:14:47.981Z</time></trkpt><trkpt lat="44.4035579704169" lon="12.183629696988435"><ele>5.0</ele><time>2026-03-22T15:14:48.981Z</time></trkpt><trkpt lat="44.403696728331695" lon="12.18348639883102"><ele>5.0</ele><time>2026-03-22T15:14:49.981Z</time></trkpt><trkpt lat="44.403829088404905" lon="12.18335408283579"><ele>5.0</ele><time>2026-03-22T15:14:50.981Z</time></trkpt><trkpt lat="44.403957941937044" lon="12.183214137322722"><ele>5.0</ele><time>2026-03-22T15:14:51.981Z</time></trkpt><trkpt lat="44.40409729966412" lon="12.183068850574546"><ele>5.0</ele><time>2026-03-22T15:14:52.981Z</time></trkpt><trkpt lat="44.40423307412737" lon="12.182923670007462"><ele>5.0</ele><time>2026-03-22T15:14:53.981Z</time></trkpt><trkpt lat="44.40437552268234" lon="12.182780019470488"><ele>5.0</ele><time>2026-03-22T15:14:54.981Z</time></trkpt><trkpt lat="44.40451675521786" lon="12.182629437862849"><ele>4.666666666666667</ele><time>2026-03-22T15:14:55.981Z</time></trkpt><trkpt lat="44.404664616707116" lon="12.182484293974454"><ele>4.333333333333333</ele><time>2026-03-22T15:14:56.981Z</time></trkpt><trkpt lat="44.4048108398217" lon="12.182330316381455"><ele>4.0</ele><time>2026-03-22T15:14:57.981Z</time></trkpt><trkpt lat="44.404956663620204" lon="12.182183539264868"><ele>3.0</ele><time>2026-03-22T15:14:58.981Z</time></trkpt><trkpt lat="44.40510280874627" lon="12.182039244361352"><ele>2.0</ele><time>2026-03-22T15:14:59.981Z</time></trkpt><trkpt lat="44.405253066729024" lon="12.181894820424406"><ele>1.0</ele><time>2026-03-22T15:15:00.981Z</time></trkpt><trkpt lat="44.40540334741626" lon="12.181745523404578"><ele>1.0</ele><time>2026-03-22T15:15:01.981Z</time></trkpt><trkpt lat="44.40555156394523" lon="12.181604903622857"><ele>1.0</ele><time>2026-03-22T15:15:02.981Z</time></trkpt><trkpt lat="44.40569752643332" lon="12.181462887987001"><ele>1.0</ele><time>2026-03-22T15:15:03.981Z</time></trkpt><trkpt lat="44.40584535810684" lon="12.181321936376445"><ele>1.3333333333333333</ele><time>2026-03-22T15:15:04.981Z</time></trkpt><trkpt lat="44.405993559232" lon="12.181171044958928"><ele>1.6666666666666665</ele><time>2026-03-22T15:15:05.981Z</time></trkpt><trkpt lat="44.40615263946535" lon="12.18103924410294"><ele>2.0</ele><time>2026-03-22T15:15:06.981Z</time></trkpt><trkpt lat="44.406307783092764" lon="12.180906203016887"><ele>2.0</ele><time>2026-03-22T15:15:07.981Z</time></trkpt><trkpt lat="44.40646164460165" lon="12.180774869579746"><ele>2.0</ele><time>2026-03-22T15:15:08.981Z</time></trkpt><trkpt lat="44.40661578492191" lon="12.180635506316083"><ele>2.0</ele><time>2026-03-22T15:15:09.981Z</time></trkpt><trkpt lat="44.406768150908526" lon="12.18049058725642"><ele>2.0</ele><time>2026-03-22T15:15:10.981Z</time></trkpt><trkpt lat="44.40691351420549" lon="12.180340868630628"><ele>2.0</ele><time>2026-03-22T15:15:11.981Z</time></trkpt><trkpt lat="44.40706230184655" lon="12.180185372234886"><ele>2.0</ele><time>2026-03-22T15:15:12.981Z</time></trkpt><trkpt lat="44.407207706126705" lon="12.180033982426592"><ele>1.6666666666666665</ele><time>2026-03-22T15:15:13.981Z</time></trkpt><trkpt lat="44.407342861859945" lon="12.179894800508496"><ele>1.3333333333333333</ele><time>2026-03-22T15:15:14.981Z</time></trkpt><trkpt lat="44.40746607782213" lon="12.179752254931866"><ele>1.0</ele><time>2026-03-22T15:15:15.981Z</time></trkpt><trkpt lat="44.40758310051751" lon="12.179632955452226"><ele>1.1666666666666665</ele><time>2026-03-22T15:15:16.981Z</time></trkpt><trkpt lat="44.40768093068829" lon="12.179535937094775"><ele>1.3333333333333333</ele><time>2026-03-22T15:15:17.981Z</time></trkpt><trkpt lat="44.4077637198297" lon="12.17947111764314"><ele>1.5</ele><time>2026-03-22T15:15:18.981Z</time></trkpt><trkpt lat="44.407823354117234" lon="12.179440827574629"><ele>1.6666666666666665</ele><time>2026-03-22T15:15:19.981Z</time></trkpt><trkpt lat="44.407883722797024" lon="12.179409239269393"><ele>1.8333333333333333</ele><time>2026-03-22T15:15:22.981Z</time></trkpt><trkpt lat="44.40794849688508" lon="12.179361434875243"><ele>2.0</ele><time>2026-03-22T15:15:27.981Z</time></trkpt><trkpt lat="44.40801472912212" lon="12.179334148477539"><ele>2.0</ele><time>2026-03-22T15:15:28.981Z</time></trkpt><trkpt lat="44.40810647110514" lon="12.179332679212585"><ele>2.0</ele><time>2026-03-22T15:15:29.981Z</time></trkpt><trkpt lat="44.40819731302136" lon="12.179305351199757"><ele>2.0</ele><time>2026-03-22T15:15:30.981Z</time></trkpt><trkpt lat="44.40828493890797" lon="12.179257890045438"><ele>2.0</ele><time>2026-03-22T15:15:31.981Z</time></trkpt><trkpt lat="44.408354326109375" lon="12.179141161019984"><ele>2.0</ele><time>2026-03-22T15:15:32.981Z</time></trkpt><trkpt lat="44.4083842643124" lon="12.179013418116078"><ele>1.8</ele><time>2026-03-22T15:15:33.98Z</time></trkpt><trkpt lat="44.40839040063815" lon="12.178878506379288"><ele>1.6</ele><time>2026-03-22T15:15:34.98Z</time></trkpt><trkpt lat="44.40840722599698" lon="12.178741241739349"><ele>1.4000000000000001</ele><time>2026-03-22T15:15:35.98Z</time></trkpt><trkpt lat="44.4084477917565" lon="12.178623025824274"><ele>1.2000000000000002</ele><time>2026-03-22T15:15:36.981Z</time></trkpt><trkpt lat="44.40854319582487" lon="12.17852787933333"><ele>1.0</ele><time>2026-03-22T15:15:37.981Z</time></trkpt><trkpt lat="44.408655959710835" lon="12.178425216834448"><ele>1.0</ele><time>2026-03-22T15:15:38.981Z</time></trkpt><trkpt lat="44.4087682643044" lon="12.17832282238666"><ele>1.0</ele><time>2026-03-22T15:15:39.981Z</time></trkpt><trkpt lat="44.40889220558483" lon="12.178213704442223"><ele>1.0</ele><time>2026-03-22T15:15:40.981Z</time></trkpt><trkpt lat="44.40901379042951" lon="12.178084395715873"><ele>1.0</ele><time>2026-03-22T15:15:41.981Z</time></trkpt><trkpt lat="44.40913543294528" lon="12.177958777282035"><ele>0.25</ele><time>2026-03-22T15:15:42.981Z</time></trkpt><trkpt lat="44.40925458936645" lon="12.177837006710716"><ele>-0.5</ele><time>2026-03-22T15:15:43.981Z</time></trkpt><trkpt lat="44.40937258334388" lon="12.177715100314487"><ele>-1.25</ele><time>2026-03-22T15:15:44.981Z</time></trkpt><trkpt lat="44.40949076952349" lon="12.177594840837363"><ele>-2.0</ele><time>2026-03-22T15:15:45.98Z</time></trkpt><trkpt lat="44.40960353622566" lon="12.17748084423245"><ele>-1.25</ele><time>2026-03-22T15:15:46.98Z</time></trkpt><trkpt lat="44.409714198640366" lon="12.17735817990333"><ele>-0.5</ele><time>2026-03-22T15:15:47.98Z</time></trkpt><trkpt lat="44.4098336929633" lon="12.17723427253332"><ele>0.25</ele><time>2026-03-22T15:15:48.98Z</time></trkpt><trkpt lat="44.409951690179405" lon="12.177112213963744"><ele>1.0</ele><time>2026-03-22T15:15:49.98Z</time></trkpt><trkpt lat="44.4100712329803" lon="12.176991769810982"><ele>1.0</ele><time>2026-03-22T15:15:50.98Z</time></trkpt><trkpt lat="44.41019704234124" lon="12.176861646411405"><ele>1.0</ele><time>2026-03-22T15:15:51.98Z</time></trkpt><trkpt lat="44.41032226291033" lon="12.176733634322376"><ele>1.0</ele><time>2026-03-22T15:15:52.98Z</time></trkpt><trkpt lat="44.41044651054739" lon="12.176615919663135"><ele>1.0</ele><time>2026-03-22T15:15:53.98Z</time></trkpt><trkpt lat="44.4105628678441" lon="12.176503569997164"><ele>1.0</ele><time>2026-03-22T15:15:54.98Z</time></trkpt><trkpt lat="44.410672223605" lon="12.176377180901982"><ele>1.0</ele><time>2026-03-22T15:15:55.98Z</time></trkpt><trkpt lat="44.41077978027927" lon="12.17627289485727"><ele>1.0</ele><time>2026-03-22T15:15:56.98Z</time></trkpt><trkpt lat="44.410884716927534" lon="12.176163329630327"><ele>1.0</ele><time>2026-03-22T15:15:57.98Z</time></trkpt><trkpt lat="44.410986021479566" lon="12.176051928101906"><ele>1.0</ele><time>2026-03-22T15:15:58.98Z</time></trkpt><trkpt lat="44.41108510363336" lon="12.175952157677408"><ele>1.0</ele><time>2026-03-22T15:15:59.98Z</time></trkpt><trkpt lat="44.41117661813169" lon="12.17586022628602"><ele>1.0</ele><time>2026-03-22T15:16:00.98Z</time></trkpt><trkpt lat="44.41125631992611" lon="12.175778770944179"><ele>1.0</ele><time>2026-03-22T15:16:01.98Z</time></trkpt><trkpt lat="44.41134076139217" lon="12.17570093496139"><ele>1.0</ele><time>2026-03-22T15:16:02.98Z</time></trkpt><trkpt lat="44.411422474436925" lon="12.175637974093547"><ele>1.0</ele><time>2026-03-22T15:16:03.98Z</time></trkpt><trkpt lat="44.411497231424015" lon="12.175602303228779"><ele>1.0</ele><time>2026-03-22T15:16:04.98Z</time></trkpt><trkpt lat="44.41157956278848" lon="12.175584809749747"><ele>1.0</ele><time>2026-03-22T15:16:05.98Z</time></trkpt><trkpt lat="44.411672748331476" lon="12.175594533268766"><ele>1.0</ele><time>2026-03-22T15:16:06.98Z</time></trkpt><trkpt lat="44.411774045453654" lon="12.175614646346652"><ele>1.0</ele><time>2026-03-22T15:16:07.98Z</time></trkpt><trkpt lat="44.41187595634685" lon="12.17562233725062"><ele>1.0</ele><time>2026-03-22T15:16:08.98Z</time></trkpt><trkpt lat="44.41198857651249" lon="12.175637900091406"><ele>1.0</ele><time>2026-03-22T15:16:09.98Z</time></trkpt><trkpt lat="44.41209079416955" lon="12.175626356685793"><ele>1.0</ele><time>2026-03-22T15:16:10.98Z</time></trkpt><trkpt lat="44.41218646536741" lon="12.17575543139009"><ele>1.0</ele><time>2026-03-22T15:16:11.98Z</time></trkpt><trkpt lat="44.41228785291424" lon="12.175829318080055"><ele>1.0</ele><time>2026-03-22T15:16:12.98Z</time></trkpt><trkpt lat="44.412388201131996" lon="12.17586414342612"><ele>1.0</ele><time>2026-03-22T15:16:13.98Z</time></trkpt><trkpt lat="44.41249321705986" lon="12.175870714929921"><ele>1.0</ele><time>2026-03-22T15:16:14.98Z</time></trkpt><trkpt lat="44.412607926606114" lon="12.175850784332862"><ele>1.0</ele><time>2026-03-22T15:16:15.98Z</time></trkpt><trkpt lat="44.41272328544347" lon="12.17580367487404"><ele>1.0</ele><time>2026-03-22T15:16:16.98Z</time></trkpt><trkpt lat="44.412841313978774" lon="12.175745662574103"><ele>1.0</ele><time>2026-03-22T15:16:17.98Z</time></trkpt><trkpt lat="44.412959902220074" lon="12.175679452703907"><ele>1.0</ele><time>2026-03-22T15:16:18.98Z</time></trkpt><trkpt lat="44.41307211463946" lon="12.175602175955087"><ele>1.0</ele><time>2026-03-22T15:16:19.98Z</time></trkpt><trkpt lat="44.41319623208312" lon="12.175537803564264"><ele>0.5</ele><time>2026-03-22T15:16:20.98Z</time></trkpt><trkpt lat="44.41332114390358" lon="12.175470132215466"><ele>0.0</ele><time>2026-03-22T15:16:21.98Z</time></trkpt><trkpt lat="44.41344822229414" lon="12.175426252517168"><ele>-0.5</ele><time>2026-03-22T15:16:22.98Z</time></trkpt><trkpt lat="44.41358012570894" lon="12.17540193216394"><ele>-1.0</ele><time>2026-03-22T15:16:23.98Z</time></trkpt><trkpt lat="44.413715178182365" lon="12.175386714610564"><ele>-0.25</ele><time>2026-03-22T15:16:24.98Z</time></trkpt><trkpt lat="44.41386053500109" lon="12.175381450880034"><ele>0.5</ele><time>2026-03-22T15:16:25.98Z</time></trkpt><trkpt lat="44.41401097215076" lon="12.17540319657862"><ele>1.25</ele><time>2026-03-22T15:16:26.98Z</time></trkpt><trkpt lat="44.414149934143516" lon="12.175421539934241"><ele>2.0</ele><time>2026-03-22T15:16:27.98Z</time></trkpt><trkpt lat="44.41427908629594" lon="12.175437900101782"><ele>1.9999999999999998</ele><time>2026-03-22T15:16:28.98Z</time></trkpt><trkpt lat="44.41439456000391" lon="12.175449389891066"><ele>2.0</ele><time>2026-03-22T15:16:29.98Z</time></trkpt><trkpt lat="44.41448716803469" lon="12.175456950291768"><ele>2.0</ele><time>2026-03-22T15:16:30.98Z</time></trkpt><trkpt lat="44.414565988695344" lon="12.175475204337426"><ele>2.0</ele><time>2026-03-22T15:16:31.98Z</time></trkpt><trkpt lat="44.41464173932077" lon="12.175492602266772"><ele>1.9999999999999998</ele><time>2026-03-22T15:16:32.98Z</time></trkpt><trkpt lat="44.414710932678325" lon="12.175531690855962"><ele>2.0</ele><time>2026-03-22T15:16:33.98Z</time></trkpt><trkpt lat="44.41478984886208" lon="12.17555799107464"><ele>2.0</ele><time>2026-03-22T15:16:34.98Z</time></trkpt><trkpt lat="44.41487991498517" lon="12.17552905219574"><ele>2.0</ele><time>2026-03-22T15:16:35.98Z</time></trkpt><trkpt lat="44.41498739493262" lon="12.1755049204753"><ele>2.0</ele><time>2026-03-22T15:16:36.98Z</time></trkpt><trkpt lat="44.41510432718695" lon="12.175505883206862"><ele>2.0</ele><time>2026-03-22T15:16:37.98Z</time></trkpt><trkpt lat="44.41523797953228" lon="12.175508953540826"><ele>2.0</ele><time>2026-03-22T15:16:38.98Z</time></trkpt><trkpt lat="44.41538708710008" lon="12.175522565511436"><ele>2.0</ele><time>2026-03-22T15:16:39.98Z</time></trkpt><trkpt lat="44.415531649091065" lon="12.175534533545633"><ele>2.0</ele><time>2026-03-22T15:16:40.98Z</time></trkpt><trkpt lat="44.415681948209084" lon="12.175547697761484"><ele>2.0</ele><time>2026-03-22T15:16:41.98Z</time></trkpt><trkpt lat="44.415833703470334" lon="12.175560227791848"><ele>1.75</ele><time>2026-03-22T15:16:42.98Z</time></trkpt><trkpt lat="44.41598505388614" lon="12.175579041492698"><ele>1.5</ele><time>2026-03-22T15:16:43.98Z</time></trkpt><trkpt lat="44.41613562808282" lon="12.175580352387184"><ele>1.25</ele><time>2026-03-22T15:16:44.98Z</time></trkpt><trkpt lat="44.41628212903239" lon="12.17558860552779"><ele>1.0</ele><time>2026-03-22T15:16:45.98Z</time></trkpt><trkpt lat="44.41642374856203" lon="12.17559380823963"><ele>0.5</ele><time>2026-03-22T15:16:46.98Z</time></trkpt><trkpt lat="44.41656107546928" lon="12.17560962709575"><ele>0.0</ele><time>2026-03-22T15:16:47.98Z</time></trkpt><trkpt lat="44.416688777824184" lon="12.175624956099062"><ele>-0.5</ele><time>2026-03-22T15:16:48.98Z</time></trkpt><trkpt lat="44.41680661795497" lon="12.175634983154088"><ele>-1.0</ele><time>2026-03-22T15:16:49.98Z</time></trkpt><trkpt lat="44.41691543458362" lon="12.175640312409978"><ele>-1.0</ele><time>2026-03-22T15:16:50.98Z</time></trkpt><trkpt lat="44.41701917444306" lon="12.175642930926728"><ele>-1.0</ele><time>2026-03-22T15:16:51.98Z</time></trkpt><trkpt lat="44.41711725882889" lon="12.175648955807466"><ele>-1.0</ele><time>2026-03-22T15:16:52.98Z</time></trkpt><trkpt lat="44.41720744589919" lon="12.17566664127243"><ele>-1.0</ele><time>2026-03-22T15:16:53.98Z</time></trkpt><trkpt lat="44.41729036649207" lon="12.175691488845056"><ele>-1.0</ele><time>2026-03-22T15:16:54.98Z</time></trkpt><trkpt lat="44.417372433598544" lon="12.175699519288937"><ele>-0.6000000000000001</ele><time>2026-03-22T15:16:55.98Z</time></trkpt><trkpt lat="44.41746487366067" lon="12.17569303352511"><ele>-0.20000000000000007</ele><time>2026-03-22T15:16:56.98Z</time></trkpt><trkpt lat="44.41756414079336" lon="12.17569958411285"><ele>0.20000000000000007</ele><time>2026-03-22T15:16:57.98Z</time></trkpt><trkpt lat="44.41767060126712" lon="12.175704089617959"><ele>0.6000000000000001</ele><time>2026-03-22T15:16:58.98Z</time></trkpt><trkpt lat="44.417779738789385" lon="12.175709783921146"><ele>1.0</ele><time>2026-03-22T15:16:59.98Z</time></trkpt><trkpt lat="44.41787898030585" lon="12.175718273307622"><ele>0.9999999999999999</ele><time>2026-03-22T15:17:00.98Z</time></trkpt><trkpt lat="44.41796725310301" lon="12.175731213454734"><ele>1.0</ele><time>2026-03-22T15:17:01.98Z</time></trkpt><trkpt lat="44.41804647586327" lon="12.175757311983942"><ele>1.0</ele><time>2026-03-22T15:17:02.98Z</time></trkpt><trkpt lat="44.41810680075852" lon="12.175816721053934"><ele>1.0</ele><time>2026-03-22T15:17:03.98Z</time></trkpt><trkpt lat="44.418144905528465" lon="12.175933716848709"><ele>0.9999999999999999</ele><time>2026-03-22T15:17:04.98Z</time></trkpt><trkpt lat="44.41819691586164" lon="12.175993275049308"><ele>1.0</ele><time>2026-03-22T15:17:05.98Z</time></trkpt><trkpt lat="44.41824946870375" lon="12.17608558604558"><ele>1.0</ele><time>2026-03-22T15:17:06.98Z</time></trkpt><trkpt lat="44.4183579096057" lon="12.17617952797586"><ele>1.0</ele><time>2026-03-22T15:17:08.98Z</time></trkpt><trkpt lat="44.418437885180616" lon="12.176194392612452"><ele>1.0</ele><time>2026-03-22T15:17:09.98Z</time></trkpt><trkpt lat="44.418524294847494" lon="12.1761992630727"><ele>1.0</ele><time>2026-03-22T15:17:10.98Z</time></trkpt><trkpt lat="44.41862146038234" lon="12.17620129312073"><ele>1.0</ele><time>2026-03-22T15:17:11.98Z</time></trkpt><trkpt lat="44.41873009506575" lon="12.176210577457125"><ele>0.8</ele><time>2026-03-22T15:17:12.98Z</time></trkpt><trkpt lat="44.41884366496209" lon="12.176218375035045"><ele>0.6000000000000001</ele><time>2026-03-22T15:17:13.98Z</time></trkpt><trkpt lat="44.418952120011184" lon="12.176223328349408"><ele>0.4</ele><time>2026-03-22T15:17:14.98Z</time></trkpt><trkpt lat="44.41904798389569" lon="12.176228124742323"><ele>0.2</ele><time>2026-03-22T15:17:15.98Z</time></trkpt><trkpt lat="44.41914089675405" lon="12.17623462252743"><ele>0.0</ele><time>2026-03-22T15:17:16.98Z</time></trkpt><trkpt lat="44.41921324533506" lon="12.176238210817404"><ele>0.0</ele><time>2026-03-22T15:17:17.98Z</time></trkpt><trkpt lat="44.419318006830565" lon="12.176249106548655"><ele>0.0</ele><time>2026-03-22T15:17:19.98Z</time></trkpt><trkpt lat="44.41937252327205" lon="12.176302351304525"><ele>0.0</ele><time>2026-03-22T15:17:21.98Z</time></trkpt><trkpt lat="44.41938439244657" lon="12.176436261420628"><ele>0.0</ele><time>2026-03-22T15:17:23.98Z</time></trkpt><trkpt lat="44.41937606003797" lon="12.176532415909689"><ele>0.0</ele><time>2026-03-22T15:17:24.98Z</time></trkpt><trkpt lat="44.41936240304739" lon="12.176647758525787"><ele>0.0</ele><time>2026-03-22T15:17:25.98Z</time></trkpt><trkpt lat="44.419356445481014" lon="12.17676914542271"><ele>0.2</ele><time>2026-03-22T15:17:26.98Z</time></trkpt><trkpt lat="44.41935528728244" lon="12.176902890871862"><ele>0.4</ele><time>2026-03-22T15:17:27.98Z</time></trkpt><trkpt lat="44.419351980735826" lon="12.177047706086482"><ele>0.6000000000000001</ele><time>2026-03-22T15:17:28.98Z</time></trkpt><trkpt lat="44.41934881197264" lon="12.177192953622606"><ele>0.8</ele><time>2026-03-22T15:17:29.98Z</time></trkpt><trkpt lat="44.41934275529492" lon="12.17733175937052"><ele>1.0</ele><time>2026-03-22T15:17:30.98Z</time></trkpt><trkpt lat="44.41933261863444" lon="12.177461816021198"><ele>1.0</ele><time>2026-03-22T15:17:31.98Z</time></trkpt><trkpt lat="44.419324336075526" lon="12.177576500857331"><ele>1.0</ele><time>2026-03-22T15:17:32.98Z</time></trkpt><trkpt lat="44.41931914526937" lon="12.177675552200109"><ele>1.0</ele><time>2026-03-22T15:17:33.98Z</time></trkpt><trkpt lat="44.419314052484786" lon="12.177843238187396"><ele>1.0</ele><time>2026-03-22T15:17:35.98Z</time></trkpt><trkpt lat="44.419358960326996" lon="12.177953875501318"><ele>1.0</ele><time>2026-03-22T15:17:37.98Z</time></trkpt><trkpt lat="44.41946253330099" lon="12.177968670610605"><ele>1.0</ele><time>2026-03-22T15:17:39.98Z</time></trkpt><trkpt lat="44.419587378214295" lon="12.177966050767083"><ele>1.0</ele><time>2026-03-22T15:17:41.98Z</time></trkpt><trkpt lat="44.41966894172125" lon="12.177996077829883"><ele>1.0</ele><time>2026-03-22T15:17:42.98Z</time></trkpt><trkpt lat="44.41975255797066" lon="12.17803677132716"><ele>1.0</ele><time>2026-03-22T15:17:43.98Z</time></trkpt><trkpt lat="44.41983779372619" lon="12.17807789984453"><ele>1.0</ele><time>2026-03-22T15:17:44.98Z</time></trkpt><trkpt lat="44.41992923917383" lon="12.178108471168454"><ele>1.2000000000000002</ele><time>2026-03-22T15:17:45.98Z</time></trkpt><trkpt lat="44.42001753112124" lon="12.178134065496602"><ele>1.4000000000000001</ele><time>2026-03-22T15:17:46.98Z</time></trkpt><trkpt lat="44.420107610373485" lon="12.17819243022739"><ele>1.6</ele><time>2026-03-22T15:17:47.98Z</time></trkpt><trkpt lat="44.42019657142507" lon="12.178233333870601"><ele>1.8</ele><time>2026-03-22T15:17:48.98Z</time></trkpt><trkpt lat="44.4202996676785" lon="12.178280915539531"><ele>2.0</ele><time>2026-03-22T15:17:49.98Z</time></trkpt><trkpt lat="44.42039992389718" lon="12.178326077089576"><ele>2.1666666666666665</ele><time>2026-03-22T15:17:50.979Z</time></trkpt><trkpt lat="44.420489067571495" lon="12.178366084001336"><ele>2.333333333333333</ele><time>2026-03-22T15:17:51.979Z</time></trkpt><trkpt lat="44.4205731057566" lon="12.178393409984764"><ele>2.5</ele><time>2026-03-22T15:17:52.979Z</time></trkpt><trkpt lat="44.420655489175005" lon="12.178418536841896"><ele>2.6666666666666665</ele><time>2026-03-22T15:17:53.979Z</time></trkpt><trkpt lat="44.42075135982847" lon="12.178417659142445"><ele>2.8333333333333335</ele><time>2026-03-22T15:17:54.979Z</time></trkpt><trkpt lat="44.42084039157943" lon="12.178426617287913"><ele>3.0</ele><time>2026-03-22T15:17:55.979Z</time></trkpt><trkpt lat="44.42093361469995" lon="12.178434938842717"><ele>3.0</ele><time>2026-03-22T15:17:56.979Z</time></trkpt><trkpt lat="44.421041828730914" lon="12.178431080348048"><ele>3.0</ele><time>2026-03-22T15:17:57.979Z</time></trkpt><trkpt lat="44.421157631656" lon="12.178424233567943"><ele>3.0</ele><time>2026-03-22T15:17:58.979Z</time></trkpt><trkpt lat="44.42126989012193" lon="12.178424597841177"><ele>3.0</ele><time>2026-03-22T15:17:59.979Z</time></trkpt><trkpt lat="44.42137390821499" lon="12.178419902466391"><ele>3.0</ele><time>2026-03-22T15:18:00.979Z</time></trkpt><trkpt lat="44.42148115890176" lon="12.178427463958405"><ele>2.6</ele><time>2026-03-22T15:18:01.979Z</time></trkpt><trkpt lat="44.421593158037744" lon="12.178464845926102"><ele>2.1999999999999997</ele><time>2026-03-22T15:18:02.979Z</time></trkpt><trkpt lat="44.42170139560038" lon="12.178497897180371"><ele>1.8</ele><time>2026-03-22T15:18:03.979Z</time></trkpt><trkpt lat="44.42180209516486" lon="12.178536160098085"><ele>1.4</ele><time>2026-03-22T15:18:04.979Z</time></trkpt><trkpt lat="44.42190393022081" lon="12.178558978233443"><ele>1.0</ele><time>2026-03-22T15:18:05.979Z</time></trkpt><trkpt lat="44.422004267533126" lon="12.178567190857983"><ele>0.9999999999999999</ele><time>2026-03-22T15:18:06.979Z</time></trkpt><trkpt lat="44.42210106245251" lon="12.178568774646651"><ele>1.0</ele><time>2026-03-22T15:18:07.979Z</time></trkpt><trkpt lat="44.42218092687313" lon="12.178569072889168"><ele>1.0</ele><time>2026-03-22T15:18:08.979Z</time></trkpt><trkpt lat="44.42225697546626" lon="12.178579993448409"><ele>1.0</ele><time>2026-03-22T15:18:09.979Z</time></trkpt><trkpt lat="44.42235271075256" lon="12.1785794021122"><ele>0.9999999999999999</ele><time>2026-03-22T15:18:11.979Z</time></trkpt><trkpt lat="44.42242441213538" lon="12.178579874442857"><ele>1.0</ele><time>2026-03-22T15:18:15.979Z</time></trkpt><trkpt lat="44.42248876182721" lon="12.178585815842288"><ele>1.0</ele><time>2026-03-22T15:18:18.979Z</time></trkpt><trkpt lat="44.42255856982228" lon="12.178604697575967"><ele>1.0</ele><time>2026-03-22T15:18:32.979Z</time></trkpt><trkpt lat="44.422621492739935" lon="12.178613010032967"><ele>1.0</ele><time>2026-03-22T15:18:34.979Z</time></trkpt><trkpt lat="44.42273254831878" lon="12.178629699446827"><ele>1.0</ele><time>2026-03-22T15:18:36.979Z</time></trkpt><trkpt lat="44.42287844985521" lon="12.178639306362006"><ele>1.0</ele><time>2026-03-22T15:18:38.979Z</time></trkpt><trkpt lat="44.42295676501385" lon="12.178632936652264"><ele>1.2000000000000002</ele><time>2026-03-22T15:18:39.979Z</time></trkpt><trkpt lat="44.423040367877874" lon="12.178627366283363"><ele>1.4000000000000001</ele><time>2026-03-22T15:18:40.979Z</time></trkpt><trkpt lat="44.42313812311681" lon="12.178626959852954"><ele>1.6</ele><time>2026-03-22T15:18:41.979Z</time></trkpt><trkpt lat="44.42323449340752" lon="12.178613798890696"><ele>1.8</ele><time>2026-03-22T15:18:42.979Z</time></trkpt><trkpt lat="44.42333983477295" lon="12.178599622660737"><ele>2.0</ele><time>2026-03-22T15:18:43.979Z</time></trkpt><trkpt lat="44.42343449520335" lon="12.178592804794446"><ele>2.0</ele><time>2026-03-22T15:18:44.979Z</time></trkpt><trkpt lat="44.42353203321076" lon="12.17859115008349"><ele>2.0</ele><time>2026-03-22T15:18:45.979Z</time></trkpt><trkpt lat="44.42363429999216" lon="12.178589854365542"><ele>2.0</ele><time>2026-03-22T15:18:46.979Z</time></trkpt><trkpt lat="44.42373862761972" lon="12.178588378172833"><ele>2.0</ele><time>2026-03-22T15:18:47.979Z</time></trkpt><trkpt lat="44.42383952062674" lon="12.178584176185185"><ele>2.0</ele><time>2026-03-22T15:18:48.979Z</time></trkpt><trkpt lat="44.423931669194594" lon="12.178574803438512"><ele>1.8333333333333333</ele><time>2026-03-22T15:18:49.979Z</time></trkpt><trkpt lat="44.42401409524289" lon="12.17857254377775"><ele>1.6666666666666665</ele><time>2026-03-22T15:18:50.979Z</time></trkpt><trkpt lat="44.42409713880476" lon="12.178564848229927"><ele>1.5</ele><time>2026-03-22T15:18:51.979Z</time></trkpt><trkpt lat="44.42418011660028" lon="12.178561096597274"><ele>1.3333333333333333</ele><time>2026-03-22T15:18:52.979Z</time></trkpt><trkpt lat="44.42425616546132" lon="12.178564284526527"><ele>1.1666666666666665</ele><time>2026-03-22T15:18:53.979Z</time></trkpt><trkpt lat="44.424320489251635" lon="12.178568284874492"><ele>1.0</ele><time>2026-03-22T15:18:54.979Z</time></trkpt><trkpt lat="44.42439507205188" lon="12.178572058938416"><ele>1.0</ele><time>2026-03-22T15:18:56.979Z</time></trkpt><trkpt lat="44.42445924717698" lon="12.178571059717786"><ele>0.9999999999999999</ele><time>2026-03-22T15:18:59.979Z</time></trkpt><trkpt lat="44.42456836332668" lon="12.178556456592695"><ele>1.0</ele><time>2026-03-22T15:19:01.979Z</time></trkpt><trkpt lat="44.424634590015806" lon="12.17854810378726"><ele>1.0</ele><time>2026-03-22T15:19:02.979Z</time></trkpt><trkpt lat="44.4247013710293" lon="12.178537424240949"><ele>0.9999999999999999</ele><time>2026-03-22T15:19:03.979Z</time></trkpt><trkpt lat="44.42476907351084" lon="12.178530108063987"><ele>1.0</ele><time>2026-03-22T15:19:04.979Z</time></trkpt><trkpt lat="44.424837027398866" lon="12.178527942570287"><ele>1.0</ele><time>2026-03-22T15:19:05.979Z</time></trkpt><trkpt lat="44.42494282032927" lon="12.178509533344348"><ele>0.9999999999999999</ele><time>2026-03-22T15:19:07.979Z</time></trkpt><trkpt lat="44.425034735748575" lon="12.178503424204811"><ele>1.0</ele><time>2026-03-22T15:19:10.979Z</time></trkpt><trkpt lat="44.42513638737527" lon="12.178512482440086"><ele>1.0</ele><time>2026-03-22T15:21:37.978Z</time></trkpt><trkpt lat="44.42517015514788" lon="12.178590969998458"><ele>1.0</ele><time>2026-03-22T15:21:38.978Z</time></trkpt><trkpt lat="44.42518728186726" lon="12.178683051282565"><ele>0.9999999999999999</ele><time>2026-03-22T15:21:39.978Z</time></trkpt><trkpt lat="44.42518085606309" lon="12.17879240207041"><ele>1.0</ele><time>2026-03-22T15:21:41.978Z</time></trkpt><trkpt lat="44.42511320203827" lon="12.178800245550844"><ele>0.9999999999999999</ele><time>2026-03-22T15:21:43.978Z</time></trkpt><trkpt lat="44.42504957261497" lon="12.178696748645557"><ele>1.0</ele><time>2026-03-22T15:21:45.978Z</time></trkpt><trkpt lat="44.42504870306375" lon="12.178562725380681"><ele>1.0</ele><time>2026-03-22T15:21:47.978Z</time></trkpt><trkpt lat="44.42506526020167" lon="12.178463284390721"><ele>1.0</ele><time>2026-03-22T15:21:51.979Z</time></trkpt><trkpt lat="44.425092881184156" lon="12.17837255511619"><ele>0.9999999999999999</ele><time>2026-03-22T15:21:54.979Z</time></trkpt><trkpt lat="44.42507448855025" lon="12.178278031498392"><ele>1.0</ele><time>2026-03-22T15:21:57.978Z</time></trkpt><trkpt lat="44.425106284390964" lon="12.178356527465091"><ele>1.0</ele><time>2026-03-22T15:23:50.979Z</time></trkpt><trkpt lat="44.425064824251436" lon="12.178282294857187"><ele>1.0</ele><time>2026-03-22T15:25:06.979Z</time></trkpt></trkseg></trk></gpx>